<?xml version="1.0" encoding="UTF-8" standalone="no" ?>
<gpx xmlns="http://www.topografix.com/GPX/1/1" xmlns:xsi="http://www.w3.org/2001/XMLSchema-instance" xsi:schemaLocation="http://www.topografix.com/GPX/1/1 http://www.topografix.com/GPX/1/1/gpx.xsd" version="1.1" creator="VisuGPX - https://www.visugpx.com">
  <metadata>
    <name>#velotaf24/4</name>
  </metadata>
  <trk>
    <name><![CDATA[#velotaf24/4_1]]></name>
    <trkseg>
      <trkpt lat="50.02279" lon="4.32119">
        <ele>257.2</ele>
        <time>2024-03-29T05:38:02Z</time>
      </trkpt>
      <trkpt lat="50.02279" lon="4.32121">
        <ele>258.2</ele>
        <time>2024-03-29T05:38:04Z</time>
      </trkpt>
      <trkpt lat="50.02279" lon="4.32122">
        <ele>258.4</ele>
        <time>2024-03-29T05:38:05Z</time>
      </trkpt>
      <trkpt lat="50.02274" lon="4.32123">
        <ele>258.4</ele>
        <time>2024-03-29T05:38:10Z</time>
      </trkpt>
      <trkpt lat="50.02273" lon="4.32121">
        <ele>258.6</ele>
        <time>2024-03-29T05:38:11Z</time>
      </trkpt>
      <trkpt lat="50.02273" lon="4.32117">
        <ele>258.8</ele>
        <time>2024-03-29T05:38:12Z</time>
      </trkpt>
      <trkpt lat="50.02273" lon="4.32112">
        <ele>259</ele>
        <time>2024-03-29T05:38:13Z</time>
      </trkpt>
      <trkpt lat="50.02274" lon="4.32108">
        <ele>259.4</ele>
        <time>2024-03-29T05:38:14Z</time>
      </trkpt>
      <trkpt lat="50.02274" lon="4.32104">
        <ele>259.6</ele>
        <time>2024-03-29T05:38:15Z</time>
      </trkpt>
      <trkpt lat="50.02274" lon="4.32101">
        <ele>259.2</ele>
        <time>2024-03-29T05:38:16Z</time>
      </trkpt>
      <trkpt lat="50.02274" lon="4.32098">
        <ele>259.2</ele>
        <time>2024-03-29T05:38:17Z</time>
      </trkpt>
      <trkpt lat="50.02273" lon="4.32096">
        <ele>259.2</ele>
        <time>2024-03-29T05:38:18Z</time>
      </trkpt>
      <trkpt lat="50.02273" lon="4.32095">
        <ele>259.4</ele>
        <time>2024-03-29T05:38:19Z</time>
      </trkpt>
      <trkpt lat="50.02272" lon="4.32094">
        <ele>259.4</ele>
        <time>2024-03-29T05:38:20Z</time>
      </trkpt>
      <trkpt lat="50.02272" lon="4.32094">
        <ele>259.8</ele>
        <time>2024-03-29T05:38:21Z</time>
      </trkpt>
      <trkpt lat="50.02272" lon="4.32094">
        <ele>259.8</ele>
        <time>2024-03-29T05:38:22Z</time>
      </trkpt>
      <trkpt lat="50.02274" lon="4.32098">
        <ele>260.6</ele>
        <time>2024-03-29T05:38:47Z</time>
      </trkpt>
      <trkpt lat="50.02275" lon="4.32101">
        <ele>260.6</ele>
        <time>2024-03-29T05:38:48Z</time>
      </trkpt>
      <trkpt lat="50.02277" lon="4.32104">
        <ele>260.8</ele>
        <time>2024-03-29T05:38:49Z</time>
      </trkpt>
      <trkpt lat="50.02279" lon="4.32105">
        <ele>260.6</ele>
        <time>2024-03-29T05:38:50Z</time>
      </trkpt>
      <trkpt lat="50.0228" lon="4.32106">
        <ele>260.6</ele>
        <time>2024-03-29T05:38:51Z</time>
      </trkpt>
      <trkpt lat="50.02282" lon="4.32105">
        <ele>260.8</ele>
        <time>2024-03-29T05:38:52Z</time>
      </trkpt>
      <trkpt lat="50.02283" lon="4.32102">
        <ele>260.6</ele>
        <time>2024-03-29T05:38:53Z</time>
      </trkpt>
      <trkpt lat="50.02284" lon="4.32101">
        <ele>260.6</ele>
        <time>2024-03-29T05:38:54Z</time>
      </trkpt>
      <trkpt lat="50.02284" lon="4.321">
        <ele>260.2</ele>
        <time>2024-03-29T05:38:55Z</time>
      </trkpt>
      <trkpt lat="50.02284" lon="4.32099">
        <ele>259.8</ele>
        <time>2024-03-29T05:38:56Z</time>
      </trkpt>
      <trkpt lat="50.02285" lon="4.32099">
        <ele>259.8</ele>
        <time>2024-03-29T05:38:57Z</time>
      </trkpt>
      <trkpt lat="50.02292" lon="4.32091">
        <ele>257.8</ele>
        <time>2024-03-29T05:39:08Z</time>
      </trkpt>
      <trkpt lat="50.02293" lon="4.32088">
        <ele>257.6</ele>
        <time>2024-03-29T05:39:09Z</time>
      </trkpt>
      <trkpt lat="50.02295" lon="4.32086">
        <ele>257.6</ele>
        <time>2024-03-29T05:39:10Z</time>
      </trkpt>
      <trkpt lat="50.02297" lon="4.32084">
        <ele>257.8</ele>
        <time>2024-03-29T05:39:11Z</time>
      </trkpt>
      <trkpt lat="50.02298" lon="4.32082">
        <ele>257.6</ele>
        <time>2024-03-29T05:39:12Z</time>
      </trkpt>
      <trkpt lat="50.02299" lon="4.3208">
        <ele>257.8</ele>
        <time>2024-03-29T05:39:13Z</time>
      </trkpt>
      <trkpt lat="50.02299" lon="4.32079">
        <ele>257.8</ele>
        <time>2024-03-29T05:39:14Z</time>
      </trkpt>
      <trkpt lat="50.02299" lon="4.32078">
        <ele>257.6</ele>
        <time>2024-03-29T05:39:15Z</time>
      </trkpt>
      <trkpt lat="50.02299" lon="4.32078">
        <ele>257.4</ele>
        <time>2024-03-29T05:39:16Z</time>
      </trkpt>
      <trkpt lat="50.02291" lon="4.32094">
        <ele>257</ele>
        <time>2024-03-29T05:52:54Z</time>
      </trkpt>
      <trkpt lat="50.0229" lon="4.32095">
        <ele>257.2</ele>
        <time>2024-03-29T05:52:55Z</time>
      </trkpt>
      <trkpt lat="50.02289" lon="4.32096">
        <ele>257.2</ele>
        <time>2024-03-29T05:52:56Z</time>
      </trkpt>
      <trkpt lat="50.02289" lon="4.32097">
        <ele>257.2</ele>
        <time>2024-03-29T05:52:57Z</time>
      </trkpt>
      <trkpt lat="50.02289" lon="4.32098">
        <ele>257.2</ele>
        <time>2024-03-29T05:52:58Z</time>
      </trkpt>
      <trkpt lat="50.02285" lon="4.32102">
        <ele>257.6</ele>
        <time>2024-03-29T05:53:09Z</time>
      </trkpt>
      <trkpt lat="50.02284" lon="4.32104">
        <ele>257.6</ele>
        <time>2024-03-29T05:53:10Z</time>
      </trkpt>
      <trkpt lat="50.02282" lon="4.32105">
        <ele>257.8</ele>
        <time>2024-03-29T05:53:11Z</time>
      </trkpt>
      <trkpt lat="50.02281" lon="4.32106">
        <ele>257.8</ele>
        <time>2024-03-29T05:53:12Z</time>
      </trkpt>
      <trkpt lat="50.02279" lon="4.32105">
        <ele>257.8</ele>
        <time>2024-03-29T05:53:13Z</time>
      </trkpt>
      <trkpt lat="50.02278" lon="4.32104">
        <ele>257.8</ele>
        <time>2024-03-29T05:53:14Z</time>
      </trkpt>
      <trkpt lat="50.02277" lon="4.32101">
        <ele>257.6</ele>
        <time>2024-03-29T05:53:15Z</time>
      </trkpt>
      <trkpt lat="50.02276" lon="4.32098">
        <ele>257.8</ele>
        <time>2024-03-29T05:53:16Z</time>
      </trkpt>
      <trkpt lat="50.02276" lon="4.32095">
        <ele>257.8</ele>
        <time>2024-03-29T05:53:17Z</time>
      </trkpt>
      <trkpt lat="50.02276" lon="4.32091">
        <ele>258</ele>
        <time>2024-03-29T05:53:18Z</time>
      </trkpt>
      <trkpt lat="50.02276" lon="4.32088">
        <ele>258.2</ele>
        <time>2024-03-29T05:53:19Z</time>
      </trkpt>
      <trkpt lat="50.02276" lon="4.32084">
        <ele>258.4</ele>
        <time>2024-03-29T05:53:20Z</time>
      </trkpt>
      <trkpt lat="50.02275" lon="4.3208">
        <ele>258.4</ele>
        <time>2024-03-29T05:53:21Z</time>
      </trkpt>
      <trkpt lat="50.02275" lon="4.32077">
        <ele>258.6</ele>
        <time>2024-03-29T05:53:22Z</time>
      </trkpt>
      <trkpt lat="50.02274" lon="4.32073">
        <ele>259</ele>
        <time>2024-03-29T05:53:23Z</time>
      </trkpt>
      <trkpt lat="50.02274" lon="4.3207">
        <ele>259</ele>
        <time>2024-03-29T05:53:24Z</time>
      </trkpt>
      <trkpt lat="50.02274" lon="4.32066">
        <ele>259.6</ele>
        <time>2024-03-29T05:53:25Z</time>
      </trkpt>
      <trkpt lat="50.02273" lon="4.32062">
        <ele>259.8</ele>
        <time>2024-03-29T05:53:26Z</time>
      </trkpt>
      <trkpt lat="50.02273" lon="4.32058">
        <ele>260.2</ele>
        <time>2024-03-29T05:53:27Z</time>
      </trkpt>
      <trkpt lat="50.02273" lon="4.32055">
        <ele>260.4</ele>
        <time>2024-03-29T05:53:28Z</time>
      </trkpt>
      <trkpt lat="50.02272" lon="4.3205">
        <ele>261</ele>
        <time>2024-03-29T05:53:29Z</time>
      </trkpt>
      <trkpt lat="50.02272" lon="4.32046">
        <ele>261.2</ele>
        <time>2024-03-29T05:53:30Z</time>
      </trkpt>
      <trkpt lat="50.02272" lon="4.3204">
        <ele>261.6</ele>
        <time>2024-03-29T05:53:31Z</time>
      </trkpt>
      <trkpt lat="50.02272" lon="4.32035">
        <ele>261.8</ele>
        <time>2024-03-29T05:53:32Z</time>
      </trkpt>
      <trkpt lat="50.02272" lon="4.32029">
        <ele>261.8</ele>
        <time>2024-03-29T05:53:33Z</time>
      </trkpt>
      <trkpt lat="50.02271" lon="4.32024">
        <ele>261.8</ele>
        <time>2024-03-29T05:53:34Z</time>
      </trkpt>
      <trkpt lat="50.02271" lon="4.32019">
        <ele>262</ele>
        <time>2024-03-29T05:53:35Z</time>
      </trkpt>
      <trkpt lat="50.0227" lon="4.32015">
        <ele>262.2</ele>
        <time>2024-03-29T05:53:36Z</time>
      </trkpt>
      <trkpt lat="50.02269" lon="4.32011">
        <ele>262.4</ele>
        <time>2024-03-29T05:53:37Z</time>
      </trkpt>
      <trkpt lat="50.02268" lon="4.32008">
        <ele>262.6</ele>
        <time>2024-03-29T05:53:38Z</time>
      </trkpt>
      <trkpt lat="50.02267" lon="4.32005">
        <ele>262.8</ele>
        <time>2024-03-29T05:53:39Z</time>
      </trkpt>
      <trkpt lat="50.02266" lon="4.32002">
        <ele>263</ele>
        <time>2024-03-29T05:53:40Z</time>
      </trkpt>
      <trkpt lat="50.02264" lon="4.31998">
        <ele>263.2</ele>
        <time>2024-03-29T05:53:41Z</time>
      </trkpt>
      <trkpt lat="50.02263" lon="4.31995">
        <ele>263.4</ele>
        <time>2024-03-29T05:53:42Z</time>
      </trkpt>
      <trkpt lat="50.02261" lon="4.31991">
        <ele>263.6</ele>
        <time>2024-03-29T05:53:43Z</time>
      </trkpt>
      <trkpt lat="50.02259" lon="4.31988">
        <ele>263.8</ele>
        <time>2024-03-29T05:53:44Z</time>
      </trkpt>
      <trkpt lat="50.02258" lon="4.31984">
        <ele>264</ele>
        <time>2024-03-29T05:53:45Z</time>
      </trkpt>
      <trkpt lat="50.02256" lon="4.31981">
        <ele>264.2</ele>
        <time>2024-03-29T05:53:46Z</time>
      </trkpt>
      <trkpt lat="50.02256" lon="4.31977">
        <ele>264.2</ele>
        <time>2024-03-29T05:53:47Z</time>
      </trkpt>
      <trkpt lat="50.02257" lon="4.31972">
        <ele>264.4</ele>
        <time>2024-03-29T05:53:48Z</time>
      </trkpt>
      <trkpt lat="50.02258" lon="4.31967">
        <ele>264.6</ele>
        <time>2024-03-29T05:53:49Z</time>
      </trkpt>
      <trkpt lat="50.02261" lon="4.31961">
        <ele>264.6</ele>
        <time>2024-03-29T05:53:50Z</time>
      </trkpt>
      <trkpt lat="50.02264" lon="4.31956">
        <ele>264.6</ele>
        <time>2024-03-29T05:53:51Z</time>
      </trkpt>
      <trkpt lat="50.02267" lon="4.3195">
        <ele>264.6</ele>
        <time>2024-03-29T05:53:52Z</time>
      </trkpt>
      <trkpt lat="50.0227" lon="4.31944">
        <ele>264.6</ele>
        <time>2024-03-29T05:53:53Z</time>
      </trkpt>
      <trkpt lat="50.02272" lon="4.31937">
        <ele>264.6</ele>
        <time>2024-03-29T05:53:54Z</time>
      </trkpt>
      <trkpt lat="50.02275" lon="4.31931">
        <ele>264.6</ele>
        <time>2024-03-29T05:53:55Z</time>
      </trkpt>
      <trkpt lat="50.02277" lon="4.31925">
        <ele>264.6</ele>
        <time>2024-03-29T05:53:56Z</time>
      </trkpt>
      <trkpt lat="50.0228" lon="4.31918">
        <ele>264.8</ele>
        <time>2024-03-29T05:53:57Z</time>
      </trkpt>
      <trkpt lat="50.02282" lon="4.31912">
        <ele>265</ele>
        <time>2024-03-29T05:53:58Z</time>
      </trkpt>
      <trkpt lat="50.02284" lon="4.31906">
        <ele>265</ele>
        <time>2024-03-29T05:53:59Z</time>
      </trkpt>
      <trkpt lat="50.02286" lon="4.319">
        <ele>265.2</ele>
        <time>2024-03-29T05:54:00Z</time>
      </trkpt>
      <trkpt lat="50.02288" lon="4.31894">
        <ele>265.2</ele>
        <time>2024-03-29T05:54:01Z</time>
      </trkpt>
      <trkpt lat="50.0229" lon="4.31888">
        <ele>265.4</ele>
        <time>2024-03-29T05:54:02Z</time>
      </trkpt>
      <trkpt lat="50.02293" lon="4.31883">
        <ele>265.4</ele>
        <time>2024-03-29T05:54:03Z</time>
      </trkpt>
      <trkpt lat="50.02295" lon="4.31877">
        <ele>265.6</ele>
        <time>2024-03-29T05:54:04Z</time>
      </trkpt>
      <trkpt lat="50.02297" lon="4.31872">
        <ele>265.6</ele>
        <time>2024-03-29T05:54:05Z</time>
      </trkpt>
      <trkpt lat="50.02299" lon="4.31867">
        <ele>265.6</ele>
        <time>2024-03-29T05:54:06Z</time>
      </trkpt>
      <trkpt lat="50.02302" lon="4.31862">
        <ele>265.6</ele>
        <time>2024-03-29T05:54:07Z</time>
      </trkpt>
      <trkpt lat="50.02304" lon="4.31857">
        <ele>265.8</ele>
        <time>2024-03-29T05:54:08Z</time>
      </trkpt>
      <trkpt lat="50.02305" lon="4.31852">
        <ele>266.4</ele>
        <time>2024-03-29T05:54:09Z</time>
      </trkpt>
      <trkpt lat="50.02305" lon="4.31846">
        <ele>266.6</ele>
        <time>2024-03-29T05:54:10Z</time>
      </trkpt>
      <trkpt lat="50.02305" lon="4.3184">
        <ele>267.2</ele>
        <time>2024-03-29T05:54:11Z</time>
      </trkpt>
      <trkpt lat="50.02303" lon="4.31835">
        <ele>267.6</ele>
        <time>2024-03-29T05:54:12Z</time>
      </trkpt>
      <trkpt lat="50.02301" lon="4.3183">
        <ele>267.6</ele>
        <time>2024-03-29T05:54:13Z</time>
      </trkpt>
      <trkpt lat="50.02298" lon="4.31825">
        <ele>268</ele>
        <time>2024-03-29T05:54:14Z</time>
      </trkpt>
      <trkpt lat="50.02296" lon="4.31821">
        <ele>268</ele>
        <time>2024-03-29T05:54:15Z</time>
      </trkpt>
      <trkpt lat="50.02294" lon="4.31816">
        <ele>268.2</ele>
        <time>2024-03-29T05:54:16Z</time>
      </trkpt>
      <trkpt lat="50.02291" lon="4.31812">
        <ele>268.2</ele>
        <time>2024-03-29T05:54:17Z</time>
      </trkpt>
      <trkpt lat="50.02289" lon="4.31807">
        <ele>268.6</ele>
        <time>2024-03-29T05:54:18Z</time>
      </trkpt>
      <trkpt lat="50.02286" lon="4.31803">
        <ele>269</ele>
        <time>2024-03-29T05:54:19Z</time>
      </trkpt>
      <trkpt lat="50.02284" lon="4.31798">
        <ele>269</ele>
        <time>2024-03-29T05:54:20Z</time>
      </trkpt>
      <trkpt lat="50.02281" lon="4.31793">
        <ele>269.4</ele>
        <time>2024-03-29T05:54:21Z</time>
      </trkpt>
      <trkpt lat="50.02278" lon="4.31788">
        <ele>269.6</ele>
        <time>2024-03-29T05:54:22Z</time>
      </trkpt>
      <trkpt lat="50.02276" lon="4.31783">
        <ele>269.6</ele>
        <time>2024-03-29T05:54:23Z</time>
      </trkpt>
      <trkpt lat="50.02274" lon="4.31778">
        <ele>270.2</ele>
        <time>2024-03-29T05:54:24Z</time>
      </trkpt>
      <trkpt lat="50.02271" lon="4.31774">
        <ele>270.8</ele>
        <time>2024-03-29T05:54:25Z</time>
      </trkpt>
      <trkpt lat="50.02268" lon="4.31769">
        <ele>271.2</ele>
        <time>2024-03-29T05:54:26Z</time>
      </trkpt>
      <trkpt lat="50.02266" lon="4.31764">
        <ele>271.2</ele>
        <time>2024-03-29T05:54:27Z</time>
      </trkpt>
      <trkpt lat="50.02263" lon="4.31759">
        <ele>271.4</ele>
        <time>2024-03-29T05:54:28Z</time>
      </trkpt>
      <trkpt lat="50.0226" lon="4.31753">
        <ele>271.8</ele>
        <time>2024-03-29T05:54:29Z</time>
      </trkpt>
      <trkpt lat="50.02258" lon="4.31748">
        <ele>271.8</ele>
        <time>2024-03-29T05:54:30Z</time>
      </trkpt>
      <trkpt lat="50.02256" lon="4.31743">
        <ele>271.8</ele>
        <time>2024-03-29T05:54:31Z</time>
      </trkpt>
      <trkpt lat="50.02253" lon="4.31738">
        <ele>272</ele>
        <time>2024-03-29T05:54:32Z</time>
      </trkpt>
      <trkpt lat="50.02251" lon="4.31732">
        <ele>272.2</ele>
        <time>2024-03-29T05:54:33Z</time>
      </trkpt>
      <trkpt lat="50.02249" lon="4.31727">
        <ele>272.6</ele>
        <time>2024-03-29T05:54:34Z</time>
      </trkpt>
      <trkpt lat="50.02246" lon="4.31722">
        <ele>273</ele>
        <time>2024-03-29T05:54:35Z</time>
      </trkpt>
      <trkpt lat="50.02244" lon="4.31716">
        <ele>273.4</ele>
        <time>2024-03-29T05:54:36Z</time>
      </trkpt>
      <trkpt lat="50.02242" lon="4.31711">
        <ele>273.8</ele>
        <time>2024-03-29T05:54:37Z</time>
      </trkpt>
      <trkpt lat="50.02239" lon="4.31706">
        <ele>274.2</ele>
        <time>2024-03-29T05:54:38Z</time>
      </trkpt>
      <trkpt lat="50.02237" lon="4.31701">
        <ele>274.4</ele>
        <time>2024-03-29T05:54:39Z</time>
      </trkpt>
      <trkpt lat="50.02234" lon="4.31695">
        <ele>274.4</ele>
        <time>2024-03-29T05:54:40Z</time>
      </trkpt>
      <trkpt lat="50.02232" lon="4.3169">
        <ele>274.6</ele>
        <time>2024-03-29T05:54:41Z</time>
      </trkpt>
      <trkpt lat="50.0223" lon="4.31685">
        <ele>274.6</ele>
        <time>2024-03-29T05:54:42Z</time>
      </trkpt>
      <trkpt lat="50.02227" lon="4.31679">
        <ele>274.8</ele>
        <time>2024-03-29T05:54:43Z</time>
      </trkpt>
      <trkpt lat="50.02225" lon="4.31674">
        <ele>274.8</ele>
        <time>2024-03-29T05:54:44Z</time>
      </trkpt>
      <trkpt lat="50.02223" lon="4.31669">
        <ele>275</ele>
        <time>2024-03-29T05:54:45Z</time>
      </trkpt>
      <trkpt lat="50.0222" lon="4.31664">
        <ele>275.4</ele>
        <time>2024-03-29T05:54:46Z</time>
      </trkpt>
      <trkpt lat="50.02218" lon="4.31659">
        <ele>275.4</ele>
        <time>2024-03-29T05:54:47Z</time>
      </trkpt>
      <trkpt lat="50.02215" lon="4.31654">
        <ele>275.4</ele>
        <time>2024-03-29T05:54:48Z</time>
      </trkpt>
      <trkpt lat="50.02213" lon="4.31648">
        <ele>275.8</ele>
        <time>2024-03-29T05:54:49Z</time>
      </trkpt>
      <trkpt lat="50.02211" lon="4.31643">
        <ele>276</ele>
        <time>2024-03-29T05:54:50Z</time>
      </trkpt>
      <trkpt lat="50.02208" lon="4.31639">
        <ele>276.4</ele>
        <time>2024-03-29T05:54:51Z</time>
      </trkpt>
      <trkpt lat="50.02206" lon="4.31634">
        <ele>276.8</ele>
        <time>2024-03-29T05:54:52Z</time>
      </trkpt>
      <trkpt lat="50.02203" lon="4.3163">
        <ele>277.2</ele>
        <time>2024-03-29T05:54:53Z</time>
      </trkpt>
      <trkpt lat="50.022" lon="4.31626">
        <ele>277.8</ele>
        <time>2024-03-29T05:54:54Z</time>
      </trkpt>
      <trkpt lat="50.02196" lon="4.31622">
        <ele>278.4</ele>
        <time>2024-03-29T05:54:55Z</time>
      </trkpt>
      <trkpt lat="50.02193" lon="4.31618">
        <ele>278.8</ele>
        <time>2024-03-29T05:54:56Z</time>
      </trkpt>
      <trkpt lat="50.0219" lon="4.31614">
        <ele>279</ele>
        <time>2024-03-29T05:54:57Z</time>
      </trkpt>
      <trkpt lat="50.02186" lon="4.31611">
        <ele>279</ele>
        <time>2024-03-29T05:54:58Z</time>
      </trkpt>
      <trkpt lat="50.02182" lon="4.31608">
        <ele>279.2</ele>
        <time>2024-03-29T05:54:59Z</time>
      </trkpt>
      <trkpt lat="50.02178" lon="4.31605">
        <ele>279.2</ele>
        <time>2024-03-29T05:55:00Z</time>
      </trkpt>
      <trkpt lat="50.02174" lon="4.31602">
        <ele>279.6</ele>
        <time>2024-03-29T05:55:01Z</time>
      </trkpt>
      <trkpt lat="50.0217" lon="4.316">
        <ele>279.8</ele>
        <time>2024-03-29T05:55:02Z</time>
      </trkpt>
      <trkpt lat="50.02166" lon="4.31597">
        <ele>279.8</ele>
        <time>2024-03-29T05:55:03Z</time>
      </trkpt>
      <trkpt lat="50.02162" lon="4.31595">
        <ele>280</ele>
        <time>2024-03-29T05:55:04Z</time>
      </trkpt>
      <trkpt lat="50.02158" lon="4.31593">
        <ele>280.2</ele>
        <time>2024-03-29T05:55:05Z</time>
      </trkpt>
      <trkpt lat="50.02154" lon="4.31591">
        <ele>280.4</ele>
        <time>2024-03-29T05:55:06Z</time>
      </trkpt>
      <trkpt lat="50.02149" lon="4.31589">
        <ele>280.4</ele>
        <time>2024-03-29T05:55:07Z</time>
      </trkpt>
      <trkpt lat="50.02145" lon="4.31587">
        <ele>280.6</ele>
        <time>2024-03-29T05:55:08Z</time>
      </trkpt>
      <trkpt lat="50.02141" lon="4.31585">
        <ele>280.8</ele>
        <time>2024-03-29T05:55:09Z</time>
      </trkpt>
      <trkpt lat="50.02136" lon="4.31583">
        <ele>281</ele>
        <time>2024-03-29T05:55:10Z</time>
      </trkpt>
      <trkpt lat="50.02132" lon="4.31581">
        <ele>281</ele>
        <time>2024-03-29T05:55:11Z</time>
      </trkpt>
      <trkpt lat="50.02128" lon="4.31579">
        <ele>281</ele>
        <time>2024-03-29T05:55:12Z</time>
      </trkpt>
      <trkpt lat="50.02123" lon="4.31576">
        <ele>281</ele>
        <time>2024-03-29T05:55:13Z</time>
      </trkpt>
      <trkpt lat="50.02119" lon="4.31574">
        <ele>281</ele>
        <time>2024-03-29T05:55:14Z</time>
      </trkpt>
      <trkpt lat="50.02114" lon="4.31572">
        <ele>281.2</ele>
        <time>2024-03-29T05:55:15Z</time>
      </trkpt>
      <trkpt lat="50.0211" lon="4.3157">
        <ele>281.2</ele>
        <time>2024-03-29T05:55:16Z</time>
      </trkpt>
      <trkpt lat="50.02105" lon="4.31568">
        <ele>281.2</ele>
        <time>2024-03-29T05:55:17Z</time>
      </trkpt>
      <trkpt lat="50.02101" lon="4.31567">
        <ele>281.4</ele>
        <time>2024-03-29T05:55:18Z</time>
      </trkpt>
      <trkpt lat="50.02097" lon="4.31565">
        <ele>281.4</ele>
        <time>2024-03-29T05:55:19Z</time>
      </trkpt>
      <trkpt lat="50.02092" lon="4.31563">
        <ele>281.4</ele>
        <time>2024-03-29T05:55:20Z</time>
      </trkpt>
      <trkpt lat="50.02088" lon="4.31561">
        <ele>281.6</ele>
        <time>2024-03-29T05:55:21Z</time>
      </trkpt>
      <trkpt lat="50.02084" lon="4.31559">
        <ele>281.8</ele>
        <time>2024-03-29T05:55:22Z</time>
      </trkpt>
      <trkpt lat="50.0208" lon="4.31557">
        <ele>282</ele>
        <time>2024-03-29T05:55:23Z</time>
      </trkpt>
      <trkpt lat="50.02075" lon="4.31555">
        <ele>282.2</ele>
        <time>2024-03-29T05:55:24Z</time>
      </trkpt>
      <trkpt lat="50.02071" lon="4.31553">
        <ele>282.2</ele>
        <time>2024-03-29T05:55:25Z</time>
      </trkpt>
      <trkpt lat="50.02067" lon="4.31552">
        <ele>282.8</ele>
        <time>2024-03-29T05:55:26Z</time>
      </trkpt>
      <trkpt lat="50.02062" lon="4.3155">
        <ele>282.8</ele>
        <time>2024-03-29T05:55:27Z</time>
      </trkpt>
      <trkpt lat="50.02058" lon="4.31548">
        <ele>283</ele>
        <time>2024-03-29T05:55:28Z</time>
      </trkpt>
      <trkpt lat="50.02054" lon="4.31546">
        <ele>283.2</ele>
        <time>2024-03-29T05:55:29Z</time>
      </trkpt>
      <trkpt lat="50.02049" lon="4.31544">
        <ele>283.6</ele>
        <time>2024-03-29T05:55:30Z</time>
      </trkpt>
      <trkpt lat="50.02045" lon="4.31542">
        <ele>283.8</ele>
        <time>2024-03-29T05:55:31Z</time>
      </trkpt>
      <trkpt lat="50.0204" lon="4.3154">
        <ele>284</ele>
        <time>2024-03-29T05:55:32Z</time>
      </trkpt>
      <trkpt lat="50.02036" lon="4.31538">
        <ele>284.2</ele>
        <time>2024-03-29T05:55:33Z</time>
      </trkpt>
      <trkpt lat="50.02031" lon="4.31536">
        <ele>284.6</ele>
        <time>2024-03-29T05:55:34Z</time>
      </trkpt>
      <trkpt lat="50.02026" lon="4.31534">
        <ele>284.8</ele>
        <time>2024-03-29T05:55:35Z</time>
      </trkpt>
      <trkpt lat="50.02022" lon="4.31532">
        <ele>285</ele>
        <time>2024-03-29T05:55:36Z</time>
      </trkpt>
      <trkpt lat="50.02017" lon="4.3153">
        <ele>285.4</ele>
        <time>2024-03-29T05:55:37Z</time>
      </trkpt>
      <trkpt lat="50.02012" lon="4.31528">
        <ele>285.6</ele>
        <time>2024-03-29T05:55:38Z</time>
      </trkpt>
      <trkpt lat="50.02007" lon="4.31526">
        <ele>285.8</ele>
        <time>2024-03-29T05:55:39Z</time>
      </trkpt>
      <trkpt lat="50.02002" lon="4.31524">
        <ele>285.8</ele>
        <time>2024-03-29T05:55:40Z</time>
      </trkpt>
      <trkpt lat="50.01997" lon="4.31522">
        <ele>286</ele>
        <time>2024-03-29T05:55:41Z</time>
      </trkpt>
      <trkpt lat="50.01993" lon="4.3152">
        <ele>286.2</ele>
        <time>2024-03-29T05:55:42Z</time>
      </trkpt>
      <trkpt lat="50.01988" lon="4.31519">
        <ele>286.4</ele>
        <time>2024-03-29T05:55:43Z</time>
      </trkpt>
      <trkpt lat="50.01983" lon="4.31517">
        <ele>286.4</ele>
        <time>2024-03-29T05:55:44Z</time>
      </trkpt>
      <trkpt lat="50.01978" lon="4.31516">
        <ele>286.4</ele>
        <time>2024-03-29T05:55:45Z</time>
      </trkpt>
      <trkpt lat="50.01974" lon="4.31514">
        <ele>286.6</ele>
        <time>2024-03-29T05:55:46Z</time>
      </trkpt>
      <trkpt lat="50.01969" lon="4.31513">
        <ele>286.8</ele>
        <time>2024-03-29T05:55:47Z</time>
      </trkpt>
      <trkpt lat="50.01964" lon="4.31511">
        <ele>286.8</ele>
        <time>2024-03-29T05:55:48Z</time>
      </trkpt>
      <trkpt lat="50.01959" lon="4.3151">
        <ele>286.8</ele>
        <time>2024-03-29T05:55:49Z</time>
      </trkpt>
      <trkpt lat="50.01955" lon="4.31508">
        <ele>286.8</ele>
        <time>2024-03-29T05:55:50Z</time>
      </trkpt>
      <trkpt lat="50.0195" lon="4.31507">
        <ele>287</ele>
        <time>2024-03-29T05:55:51Z</time>
      </trkpt>
      <trkpt lat="50.01945" lon="4.31505">
        <ele>287.2</ele>
        <time>2024-03-29T05:55:52Z</time>
      </trkpt>
      <trkpt lat="50.0194" lon="4.31503">
        <ele>287.2</ele>
        <time>2024-03-29T05:55:53Z</time>
      </trkpt>
      <trkpt lat="50.01935" lon="4.31501">
        <ele>287.4</ele>
        <time>2024-03-29T05:55:54Z</time>
      </trkpt>
      <trkpt lat="50.0193" lon="4.315">
        <ele>287.4</ele>
        <time>2024-03-29T05:55:55Z</time>
      </trkpt>
      <trkpt lat="50.01925" lon="4.31498">
        <ele>287.4</ele>
        <time>2024-03-29T05:55:56Z</time>
      </trkpt>
      <trkpt lat="50.0192" lon="4.31497">
        <ele>287.4</ele>
        <time>2024-03-29T05:55:57Z</time>
      </trkpt>
      <trkpt lat="50.01915" lon="4.31495">
        <ele>287.6</ele>
        <time>2024-03-29T05:55:58Z</time>
      </trkpt>
      <trkpt lat="50.0191" lon="4.31493">
        <ele>287.6</ele>
        <time>2024-03-29T05:55:59Z</time>
      </trkpt>
      <trkpt lat="50.01905" lon="4.31491">
        <ele>287.6</ele>
        <time>2024-03-29T05:56:00Z</time>
      </trkpt>
      <trkpt lat="50.019" lon="4.3149">
        <ele>287.8</ele>
        <time>2024-03-29T05:56:01Z</time>
      </trkpt>
      <trkpt lat="50.01895" lon="4.31487">
        <ele>287.8</ele>
        <time>2024-03-29T05:56:02Z</time>
      </trkpt>
      <trkpt lat="50.0189" lon="4.31485">
        <ele>288</ele>
        <time>2024-03-29T05:56:03Z</time>
      </trkpt>
      <trkpt lat="50.01884" lon="4.31484">
        <ele>288</ele>
        <time>2024-03-29T05:56:04Z</time>
      </trkpt>
      <trkpt lat="50.01879" lon="4.31482">
        <ele>288</ele>
        <time>2024-03-29T05:56:05Z</time>
      </trkpt>
      <trkpt lat="50.01874" lon="4.3148">
        <ele>288.2</ele>
        <time>2024-03-29T05:56:06Z</time>
      </trkpt>
      <trkpt lat="50.01869" lon="4.31477">
        <ele>288.4</ele>
        <time>2024-03-29T05:56:07Z</time>
      </trkpt>
      <trkpt lat="50.01864" lon="4.31475">
        <ele>288.8</ele>
        <time>2024-03-29T05:56:08Z</time>
      </trkpt>
      <trkpt lat="50.01858" lon="4.31473">
        <ele>289</ele>
        <time>2024-03-29T05:56:09Z</time>
      </trkpt>
      <trkpt lat="50.01853" lon="4.3147">
        <ele>289</ele>
        <time>2024-03-29T05:56:10Z</time>
      </trkpt>
      <trkpt lat="50.01848" lon="4.31468">
        <ele>289.4</ele>
        <time>2024-03-29T05:56:11Z</time>
      </trkpt>
      <trkpt lat="50.01843" lon="4.31466">
        <ele>289.6</ele>
        <time>2024-03-29T05:56:12Z</time>
      </trkpt>
      <trkpt lat="50.01838" lon="4.31464">
        <ele>289.6</ele>
        <time>2024-03-29T05:56:13Z</time>
      </trkpt>
      <trkpt lat="50.01833" lon="4.31461">
        <ele>289.6</ele>
        <time>2024-03-29T05:56:14Z</time>
      </trkpt>
      <trkpt lat="50.01828" lon="4.31458">
        <ele>289.8</ele>
        <time>2024-03-29T05:56:15Z</time>
      </trkpt>
      <trkpt lat="50.01824" lon="4.31456">
        <ele>289.8</ele>
        <time>2024-03-29T05:56:16Z</time>
      </trkpt>
      <trkpt lat="50.01819" lon="4.31453">
        <ele>289.8</ele>
        <time>2024-03-29T05:56:17Z</time>
      </trkpt>
      <trkpt lat="50.01814" lon="4.31451">
        <ele>290</ele>
        <time>2024-03-29T05:56:18Z</time>
      </trkpt>
      <trkpt lat="50.01809" lon="4.31448">
        <ele>290.2</ele>
        <time>2024-03-29T05:56:19Z</time>
      </trkpt>
      <trkpt lat="50.01804" lon="4.31446">
        <ele>290.2</ele>
        <time>2024-03-29T05:56:20Z</time>
      </trkpt>
      <trkpt lat="50.01799" lon="4.31444">
        <ele>290.6</ele>
        <time>2024-03-29T05:56:21Z</time>
      </trkpt>
      <trkpt lat="50.01794" lon="4.31441">
        <ele>290.6</ele>
        <time>2024-03-29T05:56:22Z</time>
      </trkpt>
      <trkpt lat="50.01789" lon="4.31438">
        <ele>290.6</ele>
        <time>2024-03-29T05:56:23Z</time>
      </trkpt>
      <trkpt lat="50.01785" lon="4.31435">
        <ele>290.6</ele>
        <time>2024-03-29T05:56:24Z</time>
      </trkpt>
      <trkpt lat="50.0178" lon="4.31432">
        <ele>291.2</ele>
        <time>2024-03-29T05:56:25Z</time>
      </trkpt>
      <trkpt lat="50.01775" lon="4.31429">
        <ele>291.4</ele>
        <time>2024-03-29T05:56:26Z</time>
      </trkpt>
      <trkpt lat="50.0177" lon="4.31425">
        <ele>291.8</ele>
        <time>2024-03-29T05:56:27Z</time>
      </trkpt>
      <trkpt lat="50.01766" lon="4.31421">
        <ele>292.4</ele>
        <time>2024-03-29T05:56:28Z</time>
      </trkpt>
      <trkpt lat="50.01761" lon="4.31417">
        <ele>292.4</ele>
        <time>2024-03-29T05:56:29Z</time>
      </trkpt>
      <trkpt lat="50.01756" lon="4.31413">
        <ele>292.6</ele>
        <time>2024-03-29T05:56:30Z</time>
      </trkpt>
      <trkpt lat="50.01752" lon="4.31409">
        <ele>292.8</ele>
        <time>2024-03-29T05:56:31Z</time>
      </trkpt>
      <trkpt lat="50.01747" lon="4.31405">
        <ele>293</ele>
        <time>2024-03-29T05:56:32Z</time>
      </trkpt>
      <trkpt lat="50.01743" lon="4.31401">
        <ele>293</ele>
        <time>2024-03-29T05:56:33Z</time>
      </trkpt>
      <trkpt lat="50.01738" lon="4.31397">
        <ele>293</ele>
        <time>2024-03-29T05:56:34Z</time>
      </trkpt>
      <trkpt lat="50.01734" lon="4.31393">
        <ele>293.2</ele>
        <time>2024-03-29T05:56:35Z</time>
      </trkpt>
      <trkpt lat="50.01729" lon="4.31389">
        <ele>293.2</ele>
        <time>2024-03-29T05:56:36Z</time>
      </trkpt>
      <trkpt lat="50.01724" lon="4.31385">
        <ele>293.2</ele>
        <time>2024-03-29T05:56:37Z</time>
      </trkpt>
      <trkpt lat="50.0172" lon="4.31382">
        <ele>293.2</ele>
        <time>2024-03-29T05:56:38Z</time>
      </trkpt>
      <trkpt lat="50.01715" lon="4.31378">
        <ele>293.4</ele>
        <time>2024-03-29T05:56:39Z</time>
      </trkpt>
      <trkpt lat="50.0171" lon="4.31375">
        <ele>293.4</ele>
        <time>2024-03-29T05:56:40Z</time>
      </trkpt>
      <trkpt lat="50.01705" lon="4.31372">
        <ele>293.6</ele>
        <time>2024-03-29T05:56:41Z</time>
      </trkpt>
      <trkpt lat="50.017" lon="4.3137">
        <ele>293.6</ele>
        <time>2024-03-29T05:56:42Z</time>
      </trkpt>
      <trkpt lat="50.01695" lon="4.31367">
        <ele>293.6</ele>
        <time>2024-03-29T05:56:43Z</time>
      </trkpt>
      <trkpt lat="50.0169" lon="4.31365">
        <ele>294</ele>
        <time>2024-03-29T05:56:44Z</time>
      </trkpt>
      <trkpt lat="50.01685" lon="4.31362">
        <ele>294.2</ele>
        <time>2024-03-29T05:56:45Z</time>
      </trkpt>
      <trkpt lat="50.0168" lon="4.3136">
        <ele>294</ele>
        <time>2024-03-29T05:56:46Z</time>
      </trkpt>
      <trkpt lat="50.01675" lon="4.31358">
        <ele>294.4</ele>
        <time>2024-03-29T05:56:47Z</time>
      </trkpt>
      <trkpt lat="50.0167" lon="4.31355">
        <ele>294.4</ele>
        <time>2024-03-29T05:56:48Z</time>
      </trkpt>
      <trkpt lat="50.01665" lon="4.31353">
        <ele>294.6</ele>
        <time>2024-03-29T05:56:49Z</time>
      </trkpt>
      <trkpt lat="50.0166" lon="4.3135">
        <ele>294.6</ele>
        <time>2024-03-29T05:56:50Z</time>
      </trkpt>
      <trkpt lat="50.01655" lon="4.31347">
        <ele>294.6</ele>
        <time>2024-03-29T05:56:51Z</time>
      </trkpt>
      <trkpt lat="50.0165" lon="4.31344">
        <ele>294.8</ele>
        <time>2024-03-29T05:56:52Z</time>
      </trkpt>
      <trkpt lat="50.01646" lon="4.3134">
        <ele>294.8</ele>
        <time>2024-03-29T05:56:53Z</time>
      </trkpt>
      <trkpt lat="50.01641" lon="4.31336">
        <ele>294.8</ele>
        <time>2024-03-29T05:56:54Z</time>
      </trkpt>
      <trkpt lat="50.01637" lon="4.31332">
        <ele>294.8</ele>
        <time>2024-03-29T05:56:55Z</time>
      </trkpt>
      <trkpt lat="50.01632" lon="4.31328">
        <ele>295</ele>
        <time>2024-03-29T05:56:56Z</time>
      </trkpt>
      <trkpt lat="50.01628" lon="4.31323">
        <ele>295</ele>
        <time>2024-03-29T05:56:57Z</time>
      </trkpt>
      <trkpt lat="50.01623" lon="4.31319">
        <ele>295.2</ele>
        <time>2024-03-29T05:56:58Z</time>
      </trkpt>
      <trkpt lat="50.01619" lon="4.31314">
        <ele>295.4</ele>
        <time>2024-03-29T05:56:59Z</time>
      </trkpt>
      <trkpt lat="50.01615" lon="4.3131">
        <ele>295.6</ele>
        <time>2024-03-29T05:57:00Z</time>
      </trkpt>
      <trkpt lat="50.01611" lon="4.31306">
        <ele>296.4</ele>
        <time>2024-03-29T05:57:01Z</time>
      </trkpt>
      <trkpt lat="50.01607" lon="4.31302">
        <ele>297</ele>
        <time>2024-03-29T05:57:02Z</time>
      </trkpt>
      <trkpt lat="50.01602" lon="4.31298">
        <ele>297.4</ele>
        <time>2024-03-29T05:57:03Z</time>
      </trkpt>
      <trkpt lat="50.01598" lon="4.31293">
        <ele>297.6</ele>
        <time>2024-03-29T05:57:04Z</time>
      </trkpt>
      <trkpt lat="50.01594" lon="4.31289">
        <ele>297.6</ele>
        <time>2024-03-29T05:57:05Z</time>
      </trkpt>
      <trkpt lat="50.0159" lon="4.31285">
        <ele>298</ele>
        <time>2024-03-29T05:57:06Z</time>
      </trkpt>
      <trkpt lat="50.01587" lon="4.31279">
        <ele>298.2</ele>
        <time>2024-03-29T05:57:07Z</time>
      </trkpt>
      <trkpt lat="50.01585" lon="4.31272">
        <ele>298.4</ele>
        <time>2024-03-29T05:57:08Z</time>
      </trkpt>
      <trkpt lat="50.01584" lon="4.31264">
        <ele>298.4</ele>
        <time>2024-03-29T05:57:09Z</time>
      </trkpt>
      <trkpt lat="50.01585" lon="4.31256">
        <ele>298.8</ele>
        <time>2024-03-29T05:57:10Z</time>
      </trkpt>
      <trkpt lat="50.01585" lon="4.31247">
        <ele>299</ele>
        <time>2024-03-29T05:57:11Z</time>
      </trkpt>
      <trkpt lat="50.01587" lon="4.31237">
        <ele>299</ele>
        <time>2024-03-29T05:57:12Z</time>
      </trkpt>
      <trkpt lat="50.01588" lon="4.31228">
        <ele>299.2</ele>
        <time>2024-03-29T05:57:13Z</time>
      </trkpt>
      <trkpt lat="50.01589" lon="4.31219">
        <ele>299.2</ele>
        <time>2024-03-29T05:57:14Z</time>
      </trkpt>
      <trkpt lat="50.01591" lon="4.31209">
        <ele>299.4</ele>
        <time>2024-03-29T05:57:15Z</time>
      </trkpt>
      <trkpt lat="50.01593" lon="4.312">
        <ele>299.4</ele>
        <time>2024-03-29T05:57:16Z</time>
      </trkpt>
      <trkpt lat="50.01595" lon="4.3119">
        <ele>299.4</ele>
        <time>2024-03-29T05:57:17Z</time>
      </trkpt>
      <trkpt lat="50.01596" lon="4.31181">
        <ele>299.4</ele>
        <time>2024-03-29T05:57:18Z</time>
      </trkpt>
      <trkpt lat="50.01598" lon="4.31171">
        <ele>299.4</ele>
        <time>2024-03-29T05:57:19Z</time>
      </trkpt>
      <trkpt lat="50.016" lon="4.31161">
        <ele>299.4</ele>
        <time>2024-03-29T05:57:20Z</time>
      </trkpt>
      <trkpt lat="50.01602" lon="4.31151">
        <ele>299.6</ele>
        <time>2024-03-29T05:57:21Z</time>
      </trkpt>
      <trkpt lat="50.01605" lon="4.31141">
        <ele>299.4</ele>
        <time>2024-03-29T05:57:22Z</time>
      </trkpt>
      <trkpt lat="50.01607" lon="4.3113">
        <ele>299.6</ele>
        <time>2024-03-29T05:57:23Z</time>
      </trkpt>
      <trkpt lat="50.0161" lon="4.3112">
        <ele>299.6</ele>
        <time>2024-03-29T05:57:24Z</time>
      </trkpt>
      <trkpt lat="50.01612" lon="4.31109">
        <ele>299.4</ele>
        <time>2024-03-29T05:57:25Z</time>
      </trkpt>
      <trkpt lat="50.01615" lon="4.31098">
        <ele>299.4</ele>
        <time>2024-03-29T05:57:26Z</time>
      </trkpt>
      <trkpt lat="50.01617" lon="4.31087">
        <ele>299.4</ele>
        <time>2024-03-29T05:57:27Z</time>
      </trkpt>
      <trkpt lat="50.0162" lon="4.31076">
        <ele>299.4</ele>
        <time>2024-03-29T05:57:28Z</time>
      </trkpt>
      <trkpt lat="50.01622" lon="4.31065">
        <ele>299.4</ele>
        <time>2024-03-29T05:57:29Z</time>
      </trkpt>
      <trkpt lat="50.01624" lon="4.31053">
        <ele>299.2</ele>
        <time>2024-03-29T05:57:30Z</time>
      </trkpt>
      <trkpt lat="50.01627" lon="4.31042">
        <ele>299.4</ele>
        <time>2024-03-29T05:57:31Z</time>
      </trkpt>
      <trkpt lat="50.01629" lon="4.31031">
        <ele>299.2</ele>
        <time>2024-03-29T05:57:32Z</time>
      </trkpt>
      <trkpt lat="50.01632" lon="4.31019">
        <ele>298.6</ele>
        <time>2024-03-29T05:57:33Z</time>
      </trkpt>
      <trkpt lat="50.01634" lon="4.31008">
        <ele>298.2</ele>
        <time>2024-03-29T05:57:34Z</time>
      </trkpt>
      <trkpt lat="50.01637" lon="4.30996">
        <ele>298</ele>
        <time>2024-03-29T05:57:35Z</time>
      </trkpt>
      <trkpt lat="50.01639" lon="4.30984">
        <ele>297.6</ele>
        <time>2024-03-29T05:57:36Z</time>
      </trkpt>
      <trkpt lat="50.01642" lon="4.30973">
        <ele>297.4</ele>
        <time>2024-03-29T05:57:37Z</time>
      </trkpt>
      <trkpt lat="50.01645" lon="4.30961">
        <ele>297.4</ele>
        <time>2024-03-29T05:57:38Z</time>
      </trkpt>
      <trkpt lat="50.01647" lon="4.30948">
        <ele>297</ele>
        <time>2024-03-29T05:57:39Z</time>
      </trkpt>
      <trkpt lat="50.0165" lon="4.30936">
        <ele>297</ele>
        <time>2024-03-29T05:57:40Z</time>
      </trkpt>
      <trkpt lat="50.01652" lon="4.30923">
        <ele>296.8</ele>
        <time>2024-03-29T05:57:41Z</time>
      </trkpt>
      <trkpt lat="50.01655" lon="4.30911">
        <ele>297</ele>
        <time>2024-03-29T05:57:42Z</time>
      </trkpt>
      <trkpt lat="50.01658" lon="4.30898">
        <ele>296.6</ele>
        <time>2024-03-29T05:57:43Z</time>
      </trkpt>
      <trkpt lat="50.0166" lon="4.30885">
        <ele>296.6</ele>
        <time>2024-03-29T05:57:44Z</time>
      </trkpt>
      <trkpt lat="50.01663" lon="4.30872">
        <ele>296.4</ele>
        <time>2024-03-29T05:57:45Z</time>
      </trkpt>
      <trkpt lat="50.01666" lon="4.3086">
        <ele>296.2</ele>
        <time>2024-03-29T05:57:46Z</time>
      </trkpt>
      <trkpt lat="50.01669" lon="4.30847">
        <ele>295.8</ele>
        <time>2024-03-29T05:57:47Z</time>
      </trkpt>
      <trkpt lat="50.01671" lon="4.30834">
        <ele>295.8</ele>
        <time>2024-03-29T05:57:48Z</time>
      </trkpt>
      <trkpt lat="50.01674" lon="4.30822">
        <ele>295.6</ele>
        <time>2024-03-29T05:57:49Z</time>
      </trkpt>
      <trkpt lat="50.01677" lon="4.30809">
        <ele>295.2</ele>
        <time>2024-03-29T05:57:50Z</time>
      </trkpt>
      <trkpt lat="50.0168" lon="4.30797">
        <ele>295</ele>
        <time>2024-03-29T05:57:51Z</time>
      </trkpt>
      <trkpt lat="50.01682" lon="4.30785">
        <ele>294.8</ele>
        <time>2024-03-29T05:57:52Z</time>
      </trkpt>
      <trkpt lat="50.01685" lon="4.30773">
        <ele>294.6</ele>
        <time>2024-03-29T05:57:53Z</time>
      </trkpt>
      <trkpt lat="50.01688" lon="4.30761">
        <ele>294.6</ele>
        <time>2024-03-29T05:57:54Z</time>
      </trkpt>
      <trkpt lat="50.0169" lon="4.3075">
        <ele>294.6</ele>
        <time>2024-03-29T05:57:55Z</time>
      </trkpt>
      <trkpt lat="50.01692" lon="4.30739">
        <ele>294.4</ele>
        <time>2024-03-29T05:57:56Z</time>
      </trkpt>
      <trkpt lat="50.01694" lon="4.30728">
        <ele>294.4</ele>
        <time>2024-03-29T05:57:57Z</time>
      </trkpt>
      <trkpt lat="50.01697" lon="4.30718">
        <ele>294.2</ele>
        <time>2024-03-29T05:57:58Z</time>
      </trkpt>
      <trkpt lat="50.01699" lon="4.30707">
        <ele>294.2</ele>
        <time>2024-03-29T05:57:59Z</time>
      </trkpt>
      <trkpt lat="50.01701" lon="4.30697">
        <ele>294.2</ele>
        <time>2024-03-29T05:58:00Z</time>
      </trkpt>
      <trkpt lat="50.01703" lon="4.30687">
        <ele>294.2</ele>
        <time>2024-03-29T05:58:01Z</time>
      </trkpt>
      <trkpt lat="50.01705" lon="4.30677">
        <ele>294.2</ele>
        <time>2024-03-29T05:58:02Z</time>
      </trkpt>
      <trkpt lat="50.01707" lon="4.30667">
        <ele>294.2</ele>
        <time>2024-03-29T05:58:03Z</time>
      </trkpt>
      <trkpt lat="50.01709" lon="4.30657">
        <ele>294.2</ele>
        <time>2024-03-29T05:58:04Z</time>
      </trkpt>
      <trkpt lat="50.01711" lon="4.30647">
        <ele>294.2</ele>
        <time>2024-03-29T05:58:05Z</time>
      </trkpt>
      <trkpt lat="50.01713" lon="4.30638">
        <ele>294.2</ele>
        <time>2024-03-29T05:58:06Z</time>
      </trkpt>
      <trkpt lat="50.01715" lon="4.30628">
        <ele>294.4</ele>
        <time>2024-03-29T05:58:07Z</time>
      </trkpt>
      <trkpt lat="50.01717" lon="4.30618">
        <ele>294.4</ele>
        <time>2024-03-29T05:58:08Z</time>
      </trkpt>
      <trkpt lat="50.01719" lon="4.30608">
        <ele>294.4</ele>
        <time>2024-03-29T05:58:09Z</time>
      </trkpt>
      <trkpt lat="50.01721" lon="4.30598">
        <ele>294.6</ele>
        <time>2024-03-29T05:58:10Z</time>
      </trkpt>
      <trkpt lat="50.01723" lon="4.30588">
        <ele>295</ele>
        <time>2024-03-29T05:58:11Z</time>
      </trkpt>
      <trkpt lat="50.01726" lon="4.30578">
        <ele>295.2</ele>
        <time>2024-03-29T05:58:12Z</time>
      </trkpt>
      <trkpt lat="50.01728" lon="4.30568">
        <ele>295.2</ele>
        <time>2024-03-29T05:58:13Z</time>
      </trkpt>
      <trkpt lat="50.0173" lon="4.30558">
        <ele>295.4</ele>
        <time>2024-03-29T05:58:14Z</time>
      </trkpt>
      <trkpt lat="50.01732" lon="4.30548">
        <ele>295.6</ele>
        <time>2024-03-29T05:58:15Z</time>
      </trkpt>
      <trkpt lat="50.01734" lon="4.30539">
        <ele>295.6</ele>
        <time>2024-03-29T05:58:16Z</time>
      </trkpt>
      <trkpt lat="50.01736" lon="4.30529">
        <ele>295.4</ele>
        <time>2024-03-29T05:58:17Z</time>
      </trkpt>
      <trkpt lat="50.01737" lon="4.30519">
        <ele>295.4</ele>
        <time>2024-03-29T05:58:18Z</time>
      </trkpt>
      <trkpt lat="50.01739" lon="4.3051">
        <ele>295.4</ele>
        <time>2024-03-29T05:58:19Z</time>
      </trkpt>
      <trkpt lat="50.01741" lon="4.305">
        <ele>295.6</ele>
        <time>2024-03-29T05:58:20Z</time>
      </trkpt>
      <trkpt lat="50.01743" lon="4.30491">
        <ele>295.4</ele>
        <time>2024-03-29T05:58:21Z</time>
      </trkpt>
      <trkpt lat="50.01745" lon="4.30481">
        <ele>295.6</ele>
        <time>2024-03-29T05:58:22Z</time>
      </trkpt>
      <trkpt lat="50.01747" lon="4.30472">
        <ele>295.4</ele>
        <time>2024-03-29T05:58:23Z</time>
      </trkpt>
      <trkpt lat="50.01749" lon="4.30462">
        <ele>295.6</ele>
        <time>2024-03-29T05:58:24Z</time>
      </trkpt>
      <trkpt lat="50.0175" lon="4.30453">
        <ele>295.4</ele>
        <time>2024-03-29T05:58:25Z</time>
      </trkpt>
      <trkpt lat="50.01752" lon="4.30443">
        <ele>295.4</ele>
        <time>2024-03-29T05:58:26Z</time>
      </trkpt>
      <trkpt lat="50.01754" lon="4.30434">
        <ele>295.6</ele>
        <time>2024-03-29T05:58:27Z</time>
      </trkpt>
      <trkpt lat="50.01756" lon="4.30424">
        <ele>295.6</ele>
        <time>2024-03-29T05:58:28Z</time>
      </trkpt>
      <trkpt lat="50.01757" lon="4.30415">
        <ele>295.6</ele>
        <time>2024-03-29T05:58:29Z</time>
      </trkpt>
      <trkpt lat="50.01758" lon="4.30405">
        <ele>295.6</ele>
        <time>2024-03-29T05:58:30Z</time>
      </trkpt>
      <trkpt lat="50.01758" lon="4.30395">
        <ele>295.8</ele>
        <time>2024-03-29T05:58:31Z</time>
      </trkpt>
      <trkpt lat="50.01757" lon="4.30385">
        <ele>295.6</ele>
        <time>2024-03-29T05:58:32Z</time>
      </trkpt>
      <trkpt lat="50.01756" lon="4.30375">
        <ele>295.6</ele>
        <time>2024-03-29T05:58:33Z</time>
      </trkpt>
      <trkpt lat="50.01754" lon="4.30365">
        <ele>295.6</ele>
        <time>2024-03-29T05:58:34Z</time>
      </trkpt>
      <trkpt lat="50.01752" lon="4.30356">
        <ele>295.8</ele>
        <time>2024-03-29T05:58:35Z</time>
      </trkpt>
      <trkpt lat="50.0175" lon="4.30347">
        <ele>295.8</ele>
        <time>2024-03-29T05:58:36Z</time>
      </trkpt>
      <trkpt lat="50.01749" lon="4.30338">
        <ele>296.2</ele>
        <time>2024-03-29T05:58:37Z</time>
      </trkpt>
      <trkpt lat="50.01747" lon="4.30329">
        <ele>296.4</ele>
        <time>2024-03-29T05:58:38Z</time>
      </trkpt>
      <trkpt lat="50.01745" lon="4.30319">
        <ele>296.4</ele>
        <time>2024-03-29T05:58:39Z</time>
      </trkpt>
      <trkpt lat="50.01743" lon="4.30309">
        <ele>296.6</ele>
        <time>2024-03-29T05:58:40Z</time>
      </trkpt>
      <trkpt lat="50.01742" lon="4.30299">
        <ele>296.6</ele>
        <time>2024-03-29T05:58:41Z</time>
      </trkpt>
      <trkpt lat="50.0174" lon="4.3029">
        <ele>296.8</ele>
        <time>2024-03-29T05:58:42Z</time>
      </trkpt>
      <trkpt lat="50.01738" lon="4.3028">
        <ele>297</ele>
        <time>2024-03-29T05:58:43Z</time>
      </trkpt>
      <trkpt lat="50.01736" lon="4.30271">
        <ele>297</ele>
        <time>2024-03-29T05:58:44Z</time>
      </trkpt>
      <trkpt lat="50.01734" lon="4.30262">
        <ele>297</ele>
        <time>2024-03-29T05:58:45Z</time>
      </trkpt>
      <trkpt lat="50.01733" lon="4.30253">
        <ele>296.8</ele>
        <time>2024-03-29T05:58:46Z</time>
      </trkpt>
      <trkpt lat="50.01731" lon="4.30244">
        <ele>297.2</ele>
        <time>2024-03-29T05:58:47Z</time>
      </trkpt>
      <trkpt lat="50.01729" lon="4.30234">
        <ele>297.4</ele>
        <time>2024-03-29T05:58:48Z</time>
      </trkpt>
      <trkpt lat="50.01727" lon="4.30225">
        <ele>297.4</ele>
        <time>2024-03-29T05:58:49Z</time>
      </trkpt>
      <trkpt lat="50.01725" lon="4.30215">
        <ele>297.6</ele>
        <time>2024-03-29T05:58:50Z</time>
      </trkpt>
      <trkpt lat="50.01723" lon="4.30205">
        <ele>297.8</ele>
        <time>2024-03-29T05:58:51Z</time>
      </trkpt>
      <trkpt lat="50.01721" lon="4.30196">
        <ele>298</ele>
        <time>2024-03-29T05:58:52Z</time>
      </trkpt>
      <trkpt lat="50.01719" lon="4.30187">
        <ele>298</ele>
        <time>2024-03-29T05:58:53Z</time>
      </trkpt>
      <trkpt lat="50.01717" lon="4.30177">
        <ele>298.2</ele>
        <time>2024-03-29T05:58:54Z</time>
      </trkpt>
      <trkpt lat="50.01715" lon="4.30168">
        <ele>298</ele>
        <time>2024-03-29T05:58:55Z</time>
      </trkpt>
      <trkpt lat="50.01713" lon="4.30157">
        <ele>298.2</ele>
        <time>2024-03-29T05:58:56Z</time>
      </trkpt>
      <trkpt lat="50.01711" lon="4.30147">
        <ele>298</ele>
        <time>2024-03-29T05:58:57Z</time>
      </trkpt>
      <trkpt lat="50.01708" lon="4.30136">
        <ele>298.2</ele>
        <time>2024-03-29T05:58:58Z</time>
      </trkpt>
      <trkpt lat="50.01706" lon="4.30126">
        <ele>298.2</ele>
        <time>2024-03-29T05:58:59Z</time>
      </trkpt>
      <trkpt lat="50.01704" lon="4.30116">
        <ele>298</ele>
        <time>2024-03-29T05:59:00Z</time>
      </trkpt>
      <trkpt lat="50.01701" lon="4.30106">
        <ele>298</ele>
        <time>2024-03-29T05:59:01Z</time>
      </trkpt>
      <trkpt lat="50.01699" lon="4.30095">
        <ele>297.8</ele>
        <time>2024-03-29T05:59:02Z</time>
      </trkpt>
      <trkpt lat="50.01696" lon="4.30084">
        <ele>298</ele>
        <time>2024-03-29T05:59:03Z</time>
      </trkpt>
      <trkpt lat="50.01694" lon="4.30074">
        <ele>297.8</ele>
        <time>2024-03-29T05:59:04Z</time>
      </trkpt>
      <trkpt lat="50.01692" lon="4.30064">
        <ele>297.8</ele>
        <time>2024-03-29T05:59:05Z</time>
      </trkpt>
      <trkpt lat="50.0169" lon="4.30053">
        <ele>297.8</ele>
        <time>2024-03-29T05:59:06Z</time>
      </trkpt>
      <trkpt lat="50.01687" lon="4.30043">
        <ele>297.8</ele>
        <time>2024-03-29T05:59:07Z</time>
      </trkpt>
      <trkpt lat="50.01685" lon="4.30033">
        <ele>297.8</ele>
        <time>2024-03-29T05:59:08Z</time>
      </trkpt>
      <trkpt lat="50.01683" lon="4.30022">
        <ele>297.8</ele>
        <time>2024-03-29T05:59:09Z</time>
      </trkpt>
      <trkpt lat="50.01681" lon="4.30012">
        <ele>297.8</ele>
        <time>2024-03-29T05:59:10Z</time>
      </trkpt>
      <trkpt lat="50.01678" lon="4.30002">
        <ele>297.8</ele>
        <time>2024-03-29T05:59:11Z</time>
      </trkpt>
      <trkpt lat="50.01676" lon="4.29992">
        <ele>297.8</ele>
        <time>2024-03-29T05:59:12Z</time>
      </trkpt>
      <trkpt lat="50.01674" lon="4.29982">
        <ele>297.8</ele>
        <time>2024-03-29T05:59:13Z</time>
      </trkpt>
      <trkpt lat="50.01671" lon="4.29972">
        <ele>297.8</ele>
        <time>2024-03-29T05:59:14Z</time>
      </trkpt>
      <trkpt lat="50.01669" lon="4.29962">
        <ele>297.8</ele>
        <time>2024-03-29T05:59:15Z</time>
      </trkpt>
      <trkpt lat="50.01667" lon="4.29951">
        <ele>297.8</ele>
        <time>2024-03-29T05:59:16Z</time>
      </trkpt>
      <trkpt lat="50.01665" lon="4.29942">
        <ele>298.2</ele>
        <time>2024-03-29T05:59:17Z</time>
      </trkpt>
      <trkpt lat="50.01663" lon="4.29932">
        <ele>298.2</ele>
        <time>2024-03-29T05:59:18Z</time>
      </trkpt>
      <trkpt lat="50.0166" lon="4.29922">
        <ele>298.4</ele>
        <time>2024-03-29T05:59:19Z</time>
      </trkpt>
      <trkpt lat="50.01658" lon="4.29912">
        <ele>298.4</ele>
        <time>2024-03-29T05:59:20Z</time>
      </trkpt>
      <trkpt lat="50.01657" lon="4.29902">
        <ele>298.4</ele>
        <time>2024-03-29T05:59:21Z</time>
      </trkpt>
      <trkpt lat="50.01654" lon="4.29892">
        <ele>298.4</ele>
        <time>2024-03-29T05:59:22Z</time>
      </trkpt>
      <trkpt lat="50.01652" lon="4.29881">
        <ele>298.4</ele>
        <time>2024-03-29T05:59:23Z</time>
      </trkpt>
      <trkpt lat="50.0165" lon="4.29871">
        <ele>298.6</ele>
        <time>2024-03-29T05:59:24Z</time>
      </trkpt>
      <trkpt lat="50.01648" lon="4.29861">
        <ele>298.6</ele>
        <time>2024-03-29T05:59:25Z</time>
      </trkpt>
      <trkpt lat="50.01646" lon="4.29851">
        <ele>298.6</ele>
        <time>2024-03-29T05:59:26Z</time>
      </trkpt>
      <trkpt lat="50.01644" lon="4.29841">
        <ele>298.4</ele>
        <time>2024-03-29T05:59:27Z</time>
      </trkpt>
      <trkpt lat="50.01641" lon="4.29831">
        <ele>298.4</ele>
        <time>2024-03-29T05:59:28Z</time>
      </trkpt>
      <trkpt lat="50.01639" lon="4.29821">
        <ele>298.4</ele>
        <time>2024-03-29T05:59:29Z</time>
      </trkpt>
      <trkpt lat="50.01637" lon="4.29811">
        <ele>298.4</ele>
        <time>2024-03-29T05:59:30Z</time>
      </trkpt>
      <trkpt lat="50.01635" lon="4.29801">
        <ele>298.4</ele>
        <time>2024-03-29T05:59:31Z</time>
      </trkpt>
      <trkpt lat="50.01633" lon="4.2979">
        <ele>298.4</ele>
        <time>2024-03-29T05:59:32Z</time>
      </trkpt>
      <trkpt lat="50.01631" lon="4.2978">
        <ele>298.6</ele>
        <time>2024-03-29T05:59:33Z</time>
      </trkpt>
      <trkpt lat="50.01629" lon="4.2977">
        <ele>298.6</ele>
        <time>2024-03-29T05:59:34Z</time>
      </trkpt>
      <trkpt lat="50.01626" lon="4.2976">
        <ele>298.4</ele>
        <time>2024-03-29T05:59:35Z</time>
      </trkpt>
      <trkpt lat="50.01624" lon="4.2975">
        <ele>298.2</ele>
        <time>2024-03-29T05:59:36Z</time>
      </trkpt>
      <trkpt lat="50.01622" lon="4.2974">
        <ele>298.2</ele>
        <time>2024-03-29T05:59:37Z</time>
      </trkpt>
      <trkpt lat="50.0162" lon="4.29731">
        <ele>298.2</ele>
        <time>2024-03-29T05:59:38Z</time>
      </trkpt>
      <trkpt lat="50.01618" lon="4.29721">
        <ele>297.8</ele>
        <time>2024-03-29T05:59:39Z</time>
      </trkpt>
      <trkpt lat="50.01615" lon="4.29711">
        <ele>297.8</ele>
        <time>2024-03-29T05:59:40Z</time>
      </trkpt>
      <trkpt lat="50.01614" lon="4.29702">
        <ele>297.8</ele>
        <time>2024-03-29T05:59:41Z</time>
      </trkpt>
      <trkpt lat="50.01611" lon="4.29691">
        <ele>297.6</ele>
        <time>2024-03-29T05:59:42Z</time>
      </trkpt>
      <trkpt lat="50.01609" lon="4.29681">
        <ele>297.8</ele>
        <time>2024-03-29T05:59:43Z</time>
      </trkpt>
      <trkpt lat="50.01607" lon="4.29671">
        <ele>297.6</ele>
        <time>2024-03-29T05:59:44Z</time>
      </trkpt>
      <trkpt lat="50.01605" lon="4.29661">
        <ele>297.4</ele>
        <time>2024-03-29T05:59:45Z</time>
      </trkpt>
      <trkpt lat="50.01603" lon="4.29651">
        <ele>297.4</ele>
        <time>2024-03-29T05:59:46Z</time>
      </trkpt>
      <trkpt lat="50.01601" lon="4.2964">
        <ele>297.4</ele>
        <time>2024-03-29T05:59:47Z</time>
      </trkpt>
      <trkpt lat="50.01598" lon="4.29628">
        <ele>297.4</ele>
        <time>2024-03-29T05:59:48Z</time>
      </trkpt>
      <trkpt lat="50.01595" lon="4.29617">
        <ele>297.4</ele>
        <time>2024-03-29T05:59:49Z</time>
      </trkpt>
      <trkpt lat="50.01593" lon="4.29606">
        <ele>297.4</ele>
        <time>2024-03-29T05:59:50Z</time>
      </trkpt>
      <trkpt lat="50.01591" lon="4.29595">
        <ele>297.2</ele>
        <time>2024-03-29T05:59:51Z</time>
      </trkpt>
      <trkpt lat="50.01588" lon="4.29584">
        <ele>297.2</ele>
        <time>2024-03-29T05:59:52Z</time>
      </trkpt>
      <trkpt lat="50.01586" lon="4.29573">
        <ele>297</ele>
        <time>2024-03-29T05:59:53Z</time>
      </trkpt>
      <trkpt lat="50.01584" lon="4.29563">
        <ele>297</ele>
        <time>2024-03-29T05:59:54Z</time>
      </trkpt>
      <trkpt lat="50.01581" lon="4.29552">
        <ele>296.6</ele>
        <time>2024-03-29T05:59:55Z</time>
      </trkpt>
      <trkpt lat="50.01579" lon="4.29541">
        <ele>296.4</ele>
        <time>2024-03-29T05:59:56Z</time>
      </trkpt>
      <trkpt lat="50.01577" lon="4.2953">
        <ele>296.4</ele>
        <time>2024-03-29T05:59:57Z</time>
      </trkpt>
      <trkpt lat="50.01574" lon="4.2952">
        <ele>296.4</ele>
        <time>2024-03-29T05:59:58Z</time>
      </trkpt>
      <trkpt lat="50.01572" lon="4.29509">
        <ele>296</ele>
        <time>2024-03-29T05:59:59Z</time>
      </trkpt>
      <trkpt lat="50.01569" lon="4.29498">
        <ele>295.8</ele>
        <time>2024-03-29T06:00:00Z</time>
      </trkpt>
      <trkpt lat="50.01567" lon="4.29488">
        <ele>295.6</ele>
        <time>2024-03-29T06:00:01Z</time>
      </trkpt>
      <trkpt lat="50.01564" lon="4.29477">
        <ele>295.4</ele>
        <time>2024-03-29T06:00:02Z</time>
      </trkpt>
      <trkpt lat="50.01562" lon="4.29467">
        <ele>295.4</ele>
        <time>2024-03-29T06:00:03Z</time>
      </trkpt>
      <trkpt lat="50.0156" lon="4.29456">
        <ele>295.4</ele>
        <time>2024-03-29T06:00:04Z</time>
      </trkpt>
      <trkpt lat="50.01558" lon="4.29446">
        <ele>295.4</ele>
        <time>2024-03-29T06:00:05Z</time>
      </trkpt>
      <trkpt lat="50.01555" lon="4.29435">
        <ele>295.4</ele>
        <time>2024-03-29T06:00:06Z</time>
      </trkpt>
      <trkpt lat="50.01553" lon="4.29425">
        <ele>295.4</ele>
        <time>2024-03-29T06:00:07Z</time>
      </trkpt>
      <trkpt lat="50.01551" lon="4.29414">
        <ele>295.6</ele>
        <time>2024-03-29T06:00:08Z</time>
      </trkpt>
      <trkpt lat="50.01548" lon="4.29403">
        <ele>295.6</ele>
        <time>2024-03-29T06:00:09Z</time>
      </trkpt>
      <trkpt lat="50.01546" lon="4.29393">
        <ele>295.8</ele>
        <time>2024-03-29T06:00:10Z</time>
      </trkpt>
      <trkpt lat="50.01544" lon="4.29382">
        <ele>295.8</ele>
        <time>2024-03-29T06:00:11Z</time>
      </trkpt>
      <trkpt lat="50.01542" lon="4.29372">
        <ele>295.6</ele>
        <time>2024-03-29T06:00:12Z</time>
      </trkpt>
      <trkpt lat="50.01539" lon="4.29361">
        <ele>295.6</ele>
        <time>2024-03-29T06:00:13Z</time>
      </trkpt>
      <trkpt lat="50.01537" lon="4.2935">
        <ele>295.6</ele>
        <time>2024-03-29T06:00:14Z</time>
      </trkpt>
      <trkpt lat="50.01535" lon="4.2934">
        <ele>295.4</ele>
        <time>2024-03-29T06:00:15Z</time>
      </trkpt>
      <trkpt lat="50.01532" lon="4.2933">
        <ele>295.4</ele>
        <time>2024-03-29T06:00:16Z</time>
      </trkpt>
      <trkpt lat="50.0153" lon="4.29319">
        <ele>295.4</ele>
        <time>2024-03-29T06:00:17Z</time>
      </trkpt>
      <trkpt lat="50.01528" lon="4.29309">
        <ele>295.4</ele>
        <time>2024-03-29T06:00:18Z</time>
      </trkpt>
      <trkpt lat="50.01526" lon="4.29299">
        <ele>295.4</ele>
        <time>2024-03-29T06:00:19Z</time>
      </trkpt>
      <trkpt lat="50.01524" lon="4.29288">
        <ele>295.6</ele>
        <time>2024-03-29T06:00:20Z</time>
      </trkpt>
      <trkpt lat="50.01521" lon="4.29278">
        <ele>295.4</ele>
        <time>2024-03-29T06:00:21Z</time>
      </trkpt>
      <trkpt lat="50.01519" lon="4.29267">
        <ele>295</ele>
        <time>2024-03-29T06:00:22Z</time>
      </trkpt>
      <trkpt lat="50.01517" lon="4.29256">
        <ele>294.8</ele>
        <time>2024-03-29T06:00:23Z</time>
      </trkpt>
      <trkpt lat="50.01514" lon="4.29245">
        <ele>294.8</ele>
        <time>2024-03-29T06:00:24Z</time>
      </trkpt>
      <trkpt lat="50.01512" lon="4.29234">
        <ele>294.8</ele>
        <time>2024-03-29T06:00:25Z</time>
      </trkpt>
      <trkpt lat="50.0151" lon="4.29224">
        <ele>294.8</ele>
        <time>2024-03-29T06:00:26Z</time>
      </trkpt>
      <trkpt lat="50.01507" lon="4.29213">
        <ele>294.8</ele>
        <time>2024-03-29T06:00:27Z</time>
      </trkpt>
      <trkpt lat="50.01505" lon="4.29202">
        <ele>294.6</ele>
        <time>2024-03-29T06:00:28Z</time>
      </trkpt>
      <trkpt lat="50.01502" lon="4.29191">
        <ele>294.6</ele>
        <time>2024-03-29T06:00:29Z</time>
      </trkpt>
      <trkpt lat="50.015" lon="4.29181">
        <ele>294.6</ele>
        <time>2024-03-29T06:00:30Z</time>
      </trkpt>
      <trkpt lat="50.01497" lon="4.2917">
        <ele>294.6</ele>
        <time>2024-03-29T06:00:31Z</time>
      </trkpt>
      <trkpt lat="50.01495" lon="4.2916">
        <ele>294.6</ele>
        <time>2024-03-29T06:00:32Z</time>
      </trkpt>
      <trkpt lat="50.01493" lon="4.29149">
        <ele>294.2</ele>
        <time>2024-03-29T06:00:33Z</time>
      </trkpt>
      <trkpt lat="50.01491" lon="4.29138">
        <ele>294.4</ele>
        <time>2024-03-29T06:00:34Z</time>
      </trkpt>
      <trkpt lat="50.01488" lon="4.29127">
        <ele>294.4</ele>
        <time>2024-03-29T06:00:35Z</time>
      </trkpt>
      <trkpt lat="50.01486" lon="4.29116">
        <ele>294.4</ele>
        <time>2024-03-29T06:00:36Z</time>
      </trkpt>
      <trkpt lat="50.01484" lon="4.29106">
        <ele>294.6</ele>
        <time>2024-03-29T06:00:37Z</time>
      </trkpt>
      <trkpt lat="50.01481" lon="4.29095">
        <ele>294.4</ele>
        <time>2024-03-29T06:00:38Z</time>
      </trkpt>
      <trkpt lat="50.01479" lon="4.29084">
        <ele>294.6</ele>
        <time>2024-03-29T06:00:39Z</time>
      </trkpt>
      <trkpt lat="50.01477" lon="4.29074">
        <ele>294.8</ele>
        <time>2024-03-29T06:00:40Z</time>
      </trkpt>
      <trkpt lat="50.01474" lon="4.29063">
        <ele>294.6</ele>
        <time>2024-03-29T06:00:41Z</time>
      </trkpt>
      <trkpt lat="50.01472" lon="4.29053">
        <ele>294.6</ele>
        <time>2024-03-29T06:00:42Z</time>
      </trkpt>
      <trkpt lat="50.0147" lon="4.29042">
        <ele>294.6</ele>
        <time>2024-03-29T06:00:43Z</time>
      </trkpt>
      <trkpt lat="50.01468" lon="4.29031">
        <ele>294.6</ele>
        <time>2024-03-29T06:00:44Z</time>
      </trkpt>
      <trkpt lat="50.01465" lon="4.2902">
        <ele>294.4</ele>
        <time>2024-03-29T06:00:45Z</time>
      </trkpt>
      <trkpt lat="50.01463" lon="4.2901">
        <ele>294.4</ele>
        <time>2024-03-29T06:00:46Z</time>
      </trkpt>
      <trkpt lat="50.01461" lon="4.28999">
        <ele>294.4</ele>
        <time>2024-03-29T06:00:47Z</time>
      </trkpt>
      <trkpt lat="50.01458" lon="4.28988">
        <ele>294.4</ele>
        <time>2024-03-29T06:00:48Z</time>
      </trkpt>
      <trkpt lat="50.01456" lon="4.28978">
        <ele>294.4</ele>
        <time>2024-03-29T06:00:49Z</time>
      </trkpt>
      <trkpt lat="50.01454" lon="4.28967">
        <ele>294.2</ele>
        <time>2024-03-29T06:00:50Z</time>
      </trkpt>
      <trkpt lat="50.01451" lon="4.28956">
        <ele>294.2</ele>
        <time>2024-03-29T06:00:51Z</time>
      </trkpt>
      <trkpt lat="50.01449" lon="4.28946">
        <ele>294.4</ele>
        <time>2024-03-29T06:00:52Z</time>
      </trkpt>
      <trkpt lat="50.01447" lon="4.28935">
        <ele>294.4</ele>
        <time>2024-03-29T06:00:53Z</time>
      </trkpt>
      <trkpt lat="50.01444" lon="4.28925">
        <ele>294</ele>
        <time>2024-03-29T06:00:54Z</time>
      </trkpt>
      <trkpt lat="50.01442" lon="4.28914">
        <ele>294.2</ele>
        <time>2024-03-29T06:00:55Z</time>
      </trkpt>
      <trkpt lat="50.0144" lon="4.28904">
        <ele>294</ele>
        <time>2024-03-29T06:00:56Z</time>
      </trkpt>
      <trkpt lat="50.01438" lon="4.28893">
        <ele>293.8</ele>
        <time>2024-03-29T06:00:57Z</time>
      </trkpt>
      <trkpt lat="50.01435" lon="4.28883">
        <ele>293.8</ele>
        <time>2024-03-29T06:00:58Z</time>
      </trkpt>
      <trkpt lat="50.01433" lon="4.28872">
        <ele>294</ele>
        <time>2024-03-29T06:00:59Z</time>
      </trkpt>
      <trkpt lat="50.01431" lon="4.28862">
        <ele>293.8</ele>
        <time>2024-03-29T06:01:00Z</time>
      </trkpt>
      <trkpt lat="50.01429" lon="4.28851">
        <ele>293.6</ele>
        <time>2024-03-29T06:01:01Z</time>
      </trkpt>
      <trkpt lat="50.01427" lon="4.28841">
        <ele>293.6</ele>
        <time>2024-03-29T06:01:02Z</time>
      </trkpt>
      <trkpt lat="50.01424" lon="4.2883">
        <ele>293.4</ele>
        <time>2024-03-29T06:01:03Z</time>
      </trkpt>
      <trkpt lat="50.01422" lon="4.2882">
        <ele>293.4</ele>
        <time>2024-03-29T06:01:04Z</time>
      </trkpt>
      <trkpt lat="50.0142" lon="4.28809">
        <ele>293.4</ele>
        <time>2024-03-29T06:01:05Z</time>
      </trkpt>
      <trkpt lat="50.01418" lon="4.28799">
        <ele>293.2</ele>
        <time>2024-03-29T06:01:06Z</time>
      </trkpt>
      <trkpt lat="50.01415" lon="4.28788">
        <ele>293.2</ele>
        <time>2024-03-29T06:01:07Z</time>
      </trkpt>
      <trkpt lat="50.01413" lon="4.28778">
        <ele>293</ele>
        <time>2024-03-29T06:01:08Z</time>
      </trkpt>
      <trkpt lat="50.01411" lon="4.28767">
        <ele>293</ele>
        <time>2024-03-29T06:01:09Z</time>
      </trkpt>
      <trkpt lat="50.01409" lon="4.28757">
        <ele>293</ele>
        <time>2024-03-29T06:01:10Z</time>
      </trkpt>
      <trkpt lat="50.01406" lon="4.28747">
        <ele>293</ele>
        <time>2024-03-29T06:01:11Z</time>
      </trkpt>
      <trkpt lat="50.01404" lon="4.28737">
        <ele>292.8</ele>
        <time>2024-03-29T06:01:12Z</time>
      </trkpt>
      <trkpt lat="50.01402" lon="4.28727">
        <ele>292.8</ele>
        <time>2024-03-29T06:01:13Z</time>
      </trkpt>
      <trkpt lat="50.014" lon="4.28717">
        <ele>292.8</ele>
        <time>2024-03-29T06:01:14Z</time>
      </trkpt>
      <trkpt lat="50.01398" lon="4.28707">
        <ele>292.6</ele>
        <time>2024-03-29T06:01:15Z</time>
      </trkpt>
      <trkpt lat="50.01395" lon="4.28696">
        <ele>292.6</ele>
        <time>2024-03-29T06:01:16Z</time>
      </trkpt>
      <trkpt lat="50.01393" lon="4.28686">
        <ele>292.4</ele>
        <time>2024-03-29T06:01:17Z</time>
      </trkpt>
      <trkpt lat="50.01391" lon="4.28675">
        <ele>292.2</ele>
        <time>2024-03-29T06:01:18Z</time>
      </trkpt>
      <trkpt lat="50.01388" lon="4.28664">
        <ele>291.8</ele>
        <time>2024-03-29T06:01:19Z</time>
      </trkpt>
      <trkpt lat="50.01386" lon="4.28653">
        <ele>291.4</ele>
        <time>2024-03-29T06:01:20Z</time>
      </trkpt>
      <trkpt lat="50.01383" lon="4.28642">
        <ele>291.4</ele>
        <time>2024-03-29T06:01:21Z</time>
      </trkpt>
      <trkpt lat="50.01381" lon="4.28631">
        <ele>291</ele>
        <time>2024-03-29T06:01:22Z</time>
      </trkpt>
      <trkpt lat="50.01379" lon="4.2862">
        <ele>290.6</ele>
        <time>2024-03-29T06:01:23Z</time>
      </trkpt>
      <trkpt lat="50.01376" lon="4.28609">
        <ele>290.4</ele>
        <time>2024-03-29T06:01:24Z</time>
      </trkpt>
      <trkpt lat="50.01374" lon="4.28597">
        <ele>290.2</ele>
        <time>2024-03-29T06:01:25Z</time>
      </trkpt>
      <trkpt lat="50.01372" lon="4.28586">
        <ele>290</ele>
        <time>2024-03-29T06:01:26Z</time>
      </trkpt>
      <trkpt lat="50.01369" lon="4.28574">
        <ele>289.8</ele>
        <time>2024-03-29T06:01:27Z</time>
      </trkpt>
      <trkpt lat="50.01367" lon="4.28562">
        <ele>289.8</ele>
        <time>2024-03-29T06:01:28Z</time>
      </trkpt>
      <trkpt lat="50.01364" lon="4.2855">
        <ele>289.8</ele>
        <time>2024-03-29T06:01:29Z</time>
      </trkpt>
      <trkpt lat="50.01362" lon="4.28538">
        <ele>289.8</ele>
        <time>2024-03-29T06:01:30Z</time>
      </trkpt>
      <trkpt lat="50.01359" lon="4.28526">
        <ele>289.6</ele>
        <time>2024-03-29T06:01:31Z</time>
      </trkpt>
      <trkpt lat="50.01357" lon="4.28514">
        <ele>289.4</ele>
        <time>2024-03-29T06:01:32Z</time>
      </trkpt>
      <trkpt lat="50.01354" lon="4.28502">
        <ele>289.4</ele>
        <time>2024-03-29T06:01:33Z</time>
      </trkpt>
      <trkpt lat="50.01351" lon="4.2849">
        <ele>289.4</ele>
        <time>2024-03-29T06:01:34Z</time>
      </trkpt>
      <trkpt lat="50.01348" lon="4.28477">
        <ele>289.4</ele>
        <time>2024-03-29T06:01:35Z</time>
      </trkpt>
      <trkpt lat="50.01346" lon="4.28464">
        <ele>289.2</ele>
        <time>2024-03-29T06:01:36Z</time>
      </trkpt>
      <trkpt lat="50.01343" lon="4.28452">
        <ele>289</ele>
        <time>2024-03-29T06:01:37Z</time>
      </trkpt>
      <trkpt lat="50.0134" lon="4.28439">
        <ele>288.8</ele>
        <time>2024-03-29T06:01:38Z</time>
      </trkpt>
      <trkpt lat="50.01338" lon="4.28426">
        <ele>288.4</ele>
        <time>2024-03-29T06:01:39Z</time>
      </trkpt>
      <trkpt lat="50.01335" lon="4.28413">
        <ele>288</ele>
        <time>2024-03-29T06:01:40Z</time>
      </trkpt>
      <trkpt lat="50.01332" lon="4.284">
        <ele>287.6</ele>
        <time>2024-03-29T06:01:41Z</time>
      </trkpt>
      <trkpt lat="50.01329" lon="4.28386">
        <ele>287.2</ele>
        <time>2024-03-29T06:01:42Z</time>
      </trkpt>
      <trkpt lat="50.01326" lon="4.28373">
        <ele>286.8</ele>
        <time>2024-03-29T06:01:43Z</time>
      </trkpt>
      <trkpt lat="50.01324" lon="4.2836">
        <ele>286.4</ele>
        <time>2024-03-29T06:01:44Z</time>
      </trkpt>
      <trkpt lat="50.01321" lon="4.28347">
        <ele>286</ele>
        <time>2024-03-29T06:01:45Z</time>
      </trkpt>
      <trkpt lat="50.01318" lon="4.28334">
        <ele>285</ele>
        <time>2024-03-29T06:01:46Z</time>
      </trkpt>
      <trkpt lat="50.01315" lon="4.28321">
        <ele>284.4</ele>
        <time>2024-03-29T06:01:47Z</time>
      </trkpt>
      <trkpt lat="50.01312" lon="4.28308">
        <ele>284</ele>
        <time>2024-03-29T06:01:48Z</time>
      </trkpt>
      <trkpt lat="50.01309" lon="4.28294">
        <ele>283.6</ele>
        <time>2024-03-29T06:01:49Z</time>
      </trkpt>
      <trkpt lat="50.01306" lon="4.28281">
        <ele>283.4</ele>
        <time>2024-03-29T06:01:50Z</time>
      </trkpt>
      <trkpt lat="50.01303" lon="4.28268">
        <ele>283.4</ele>
        <time>2024-03-29T06:01:51Z</time>
      </trkpt>
      <trkpt lat="50.01301" lon="4.28254">
        <ele>283.2</ele>
        <time>2024-03-29T06:01:52Z</time>
      </trkpt>
      <trkpt lat="50.01298" lon="4.2824">
        <ele>282.6</ele>
        <time>2024-03-29T06:01:53Z</time>
      </trkpt>
      <trkpt lat="50.01295" lon="4.28227">
        <ele>282.4</ele>
        <time>2024-03-29T06:01:54Z</time>
      </trkpt>
      <trkpt lat="50.01292" lon="4.28213">
        <ele>282</ele>
        <time>2024-03-29T06:01:55Z</time>
      </trkpt>
      <trkpt lat="50.01289" lon="4.28199">
        <ele>282</ele>
        <time>2024-03-29T06:01:56Z</time>
      </trkpt>
      <trkpt lat="50.01286" lon="4.28186">
        <ele>281.6</ele>
        <time>2024-03-29T06:01:57Z</time>
      </trkpt>
      <trkpt lat="50.01283" lon="4.28172">
        <ele>281.2</ele>
        <time>2024-03-29T06:01:58Z</time>
      </trkpt>
      <trkpt lat="50.0128" lon="4.28158">
        <ele>281</ele>
        <time>2024-03-29T06:01:59Z</time>
      </trkpt>
      <trkpt lat="50.01277" lon="4.28144">
        <ele>280.6</ele>
        <time>2024-03-29T06:02:00Z</time>
      </trkpt>
      <trkpt lat="50.01274" lon="4.28131">
        <ele>280.2</ele>
        <time>2024-03-29T06:02:01Z</time>
      </trkpt>
      <trkpt lat="50.01272" lon="4.28118">
        <ele>279.8</ele>
        <time>2024-03-29T06:02:02Z</time>
      </trkpt>
      <trkpt lat="50.01269" lon="4.28105">
        <ele>279.6</ele>
        <time>2024-03-29T06:02:03Z</time>
      </trkpt>
      <trkpt lat="50.01266" lon="4.28093">
        <ele>279.2</ele>
        <time>2024-03-29T06:02:04Z</time>
      </trkpt>
      <trkpt lat="50.01264" lon="4.28081">
        <ele>279</ele>
        <time>2024-03-29T06:02:05Z</time>
      </trkpt>
      <trkpt lat="50.01261" lon="4.28069">
        <ele>279</ele>
        <time>2024-03-29T06:02:06Z</time>
      </trkpt>
      <trkpt lat="50.01258" lon="4.28057">
        <ele>278.8</ele>
        <time>2024-03-29T06:02:07Z</time>
      </trkpt>
      <trkpt lat="50.01256" lon="4.28046">
        <ele>278.4</ele>
        <time>2024-03-29T06:02:08Z</time>
      </trkpt>
      <trkpt lat="50.01254" lon="4.28034">
        <ele>278.2</ele>
        <time>2024-03-29T06:02:09Z</time>
      </trkpt>
      <trkpt lat="50.01251" lon="4.28023">
        <ele>278.2</ele>
        <time>2024-03-29T06:02:10Z</time>
      </trkpt>
      <trkpt lat="50.01249" lon="4.28012">
        <ele>278.2</ele>
        <time>2024-03-29T06:02:11Z</time>
      </trkpt>
      <trkpt lat="50.01247" lon="4.28001">
        <ele>278</ele>
        <time>2024-03-29T06:02:12Z</time>
      </trkpt>
      <trkpt lat="50.01244" lon="4.2799">
        <ele>278.2</ele>
        <time>2024-03-29T06:02:13Z</time>
      </trkpt>
      <trkpt lat="50.01242" lon="4.27979">
        <ele>278.2</ele>
        <time>2024-03-29T06:02:14Z</time>
      </trkpt>
      <trkpt lat="50.01239" lon="4.27969">
        <ele>278.2</ele>
        <time>2024-03-29T06:02:15Z</time>
      </trkpt>
      <trkpt lat="50.01237" lon="4.27958">
        <ele>278.2</ele>
        <time>2024-03-29T06:02:16Z</time>
      </trkpt>
      <trkpt lat="50.01236" lon="4.27948">
        <ele>278.4</ele>
        <time>2024-03-29T06:02:17Z</time>
      </trkpt>
      <trkpt lat="50.01234" lon="4.27938">
        <ele>278.4</ele>
        <time>2024-03-29T06:02:18Z</time>
      </trkpt>
      <trkpt lat="50.01232" lon="4.27928">
        <ele>278.6</ele>
        <time>2024-03-29T06:02:19Z</time>
      </trkpt>
      <trkpt lat="50.0123" lon="4.27918">
        <ele>278.6</ele>
        <time>2024-03-29T06:02:20Z</time>
      </trkpt>
      <trkpt lat="50.01228" lon="4.27909">
        <ele>278.4</ele>
        <time>2024-03-29T06:02:21Z</time>
      </trkpt>
      <trkpt lat="50.01226" lon="4.27899">
        <ele>278.6</ele>
        <time>2024-03-29T06:02:22Z</time>
      </trkpt>
      <trkpt lat="50.01224" lon="4.2789">
        <ele>278.4</ele>
        <time>2024-03-29T06:02:23Z</time>
      </trkpt>
      <trkpt lat="50.01223" lon="4.27881">
        <ele>278.4</ele>
        <time>2024-03-29T06:02:24Z</time>
      </trkpt>
      <trkpt lat="50.01221" lon="4.27871">
        <ele>278.6</ele>
        <time>2024-03-29T06:02:25Z</time>
      </trkpt>
      <trkpt lat="50.01219" lon="4.27861">
        <ele>278.6</ele>
        <time>2024-03-29T06:02:26Z</time>
      </trkpt>
      <trkpt lat="50.01217" lon="4.27851">
        <ele>278.6</ele>
        <time>2024-03-29T06:02:27Z</time>
      </trkpt>
      <trkpt lat="50.01214" lon="4.2784">
        <ele>278.6</ele>
        <time>2024-03-29T06:02:28Z</time>
      </trkpt>
      <trkpt lat="50.01212" lon="4.2783">
        <ele>278.6</ele>
        <time>2024-03-29T06:02:29Z</time>
      </trkpt>
      <trkpt lat="50.0121" lon="4.27819">
        <ele>278.6</ele>
        <time>2024-03-29T06:02:30Z</time>
      </trkpt>
      <trkpt lat="50.01208" lon="4.27809">
        <ele>278.6</ele>
        <time>2024-03-29T06:02:31Z</time>
      </trkpt>
      <trkpt lat="50.01206" lon="4.27798">
        <ele>278.6</ele>
        <time>2024-03-29T06:02:32Z</time>
      </trkpt>
      <trkpt lat="50.01204" lon="4.27788">
        <ele>278.6</ele>
        <time>2024-03-29T06:02:33Z</time>
      </trkpt>
      <trkpt lat="50.01202" lon="4.27777">
        <ele>278.6</ele>
        <time>2024-03-29T06:02:34Z</time>
      </trkpt>
      <trkpt lat="50.01199" lon="4.27767">
        <ele>278.8</ele>
        <time>2024-03-29T06:02:35Z</time>
      </trkpt>
      <trkpt lat="50.01197" lon="4.27756">
        <ele>278.8</ele>
        <time>2024-03-29T06:02:36Z</time>
      </trkpt>
      <trkpt lat="50.01194" lon="4.27746">
        <ele>278.8</ele>
        <time>2024-03-29T06:02:37Z</time>
      </trkpt>
      <trkpt lat="50.01192" lon="4.27736">
        <ele>279</ele>
        <time>2024-03-29T06:02:38Z</time>
      </trkpt>
      <trkpt lat="50.0119" lon="4.27725">
        <ele>279</ele>
        <time>2024-03-29T06:02:39Z</time>
      </trkpt>
      <trkpt lat="50.01187" lon="4.27715">
        <ele>279</ele>
        <time>2024-03-29T06:02:40Z</time>
      </trkpt>
      <trkpt lat="50.01185" lon="4.27704">
        <ele>279.2</ele>
        <time>2024-03-29T06:02:41Z</time>
      </trkpt>
      <trkpt lat="50.01182" lon="4.27693">
        <ele>279.4</ele>
        <time>2024-03-29T06:02:42Z</time>
      </trkpt>
      <trkpt lat="50.01179" lon="4.27683">
        <ele>279.2</ele>
        <time>2024-03-29T06:02:43Z</time>
      </trkpt>
      <trkpt lat="50.01177" lon="4.27673">
        <ele>279.2</ele>
        <time>2024-03-29T06:02:44Z</time>
      </trkpt>
      <trkpt lat="50.01175" lon="4.27662">
        <ele>279.2</ele>
        <time>2024-03-29T06:02:45Z</time>
      </trkpt>
      <trkpt lat="50.01173" lon="4.27652">
        <ele>279.2</ele>
        <time>2024-03-29T06:02:46Z</time>
      </trkpt>
      <trkpt lat="50.01171" lon="4.27642">
        <ele>279.2</ele>
        <time>2024-03-29T06:02:47Z</time>
      </trkpt>
      <trkpt lat="50.01168" lon="4.27633">
        <ele>279.4</ele>
        <time>2024-03-29T06:02:48Z</time>
      </trkpt>
      <trkpt lat="50.01166" lon="4.27623">
        <ele>279.4</ele>
        <time>2024-03-29T06:02:49Z</time>
      </trkpt>
      <trkpt lat="50.01164" lon="4.27614">
        <ele>279.2</ele>
        <time>2024-03-29T06:02:50Z</time>
      </trkpt>
      <trkpt lat="50.01162" lon="4.27604">
        <ele>279.2</ele>
        <time>2024-03-29T06:02:51Z</time>
      </trkpt>
      <trkpt lat="50.0116" lon="4.27594">
        <ele>279.2</ele>
        <time>2024-03-29T06:02:52Z</time>
      </trkpt>
      <trkpt lat="50.01158" lon="4.27585">
        <ele>279.4</ele>
        <time>2024-03-29T06:02:53Z</time>
      </trkpt>
      <trkpt lat="50.01156" lon="4.27575">
        <ele>279</ele>
        <time>2024-03-29T06:02:54Z</time>
      </trkpt>
      <trkpt lat="50.01154" lon="4.27564">
        <ele>278.8</ele>
        <time>2024-03-29T06:02:55Z</time>
      </trkpt>
      <trkpt lat="50.01151" lon="4.27554">
        <ele>278.8</ele>
        <time>2024-03-29T06:02:56Z</time>
      </trkpt>
      <trkpt lat="50.01149" lon="4.27543">
        <ele>278.6</ele>
        <time>2024-03-29T06:02:57Z</time>
      </trkpt>
      <trkpt lat="50.01146" lon="4.27533">
        <ele>278.6</ele>
        <time>2024-03-29T06:02:58Z</time>
      </trkpt>
      <trkpt lat="50.01144" lon="4.27522">
        <ele>278.6</ele>
        <time>2024-03-29T06:02:59Z</time>
      </trkpt>
      <trkpt lat="50.01141" lon="4.27511">
        <ele>278.6</ele>
        <time>2024-03-29T06:03:00Z</time>
      </trkpt>
      <trkpt lat="50.01139" lon="4.275">
        <ele>278.6</ele>
        <time>2024-03-29T06:03:01Z</time>
      </trkpt>
      <trkpt lat="50.01136" lon="4.2749">
        <ele>278.4</ele>
        <time>2024-03-29T06:03:02Z</time>
      </trkpt>
      <trkpt lat="50.01134" lon="4.27479">
        <ele>278.4</ele>
        <time>2024-03-29T06:03:03Z</time>
      </trkpt>
      <trkpt lat="50.01131" lon="4.27468">
        <ele>278.2</ele>
        <time>2024-03-29T06:03:04Z</time>
      </trkpt>
      <trkpt lat="50.01129" lon="4.27458">
        <ele>278.2</ele>
        <time>2024-03-29T06:03:05Z</time>
      </trkpt>
      <trkpt lat="50.01127" lon="4.27447">
        <ele>278</ele>
        <time>2024-03-29T06:03:06Z</time>
      </trkpt>
      <trkpt lat="50.01124" lon="4.27436">
        <ele>278</ele>
        <time>2024-03-29T06:03:07Z</time>
      </trkpt>
      <trkpt lat="50.01122" lon="4.27425">
        <ele>278.2</ele>
        <time>2024-03-29T06:03:08Z</time>
      </trkpt>
      <trkpt lat="50.0112" lon="4.27415">
        <ele>278.2</ele>
        <time>2024-03-29T06:03:09Z</time>
      </trkpt>
      <trkpt lat="50.01118" lon="4.27404">
        <ele>278.4</ele>
        <time>2024-03-29T06:03:10Z</time>
      </trkpt>
      <trkpt lat="50.01115" lon="4.27393">
        <ele>278.2</ele>
        <time>2024-03-29T06:03:11Z</time>
      </trkpt>
      <trkpt lat="50.01113" lon="4.27382">
        <ele>278.4</ele>
        <time>2024-03-29T06:03:12Z</time>
      </trkpt>
      <trkpt lat="50.01111" lon="4.27371">
        <ele>278.6</ele>
        <time>2024-03-29T06:03:13Z</time>
      </trkpt>
      <trkpt lat="50.01108" lon="4.27361">
        <ele>278.8</ele>
        <time>2024-03-29T06:03:14Z</time>
      </trkpt>
      <trkpt lat="50.01106" lon="4.2735">
        <ele>279</ele>
        <time>2024-03-29T06:03:15Z</time>
      </trkpt>
      <trkpt lat="50.01104" lon="4.2734">
        <ele>279.2</ele>
        <time>2024-03-29T06:03:16Z</time>
      </trkpt>
      <trkpt lat="50.01101" lon="4.27329">
        <ele>279.2</ele>
        <time>2024-03-29T06:03:17Z</time>
      </trkpt>
      <trkpt lat="50.01099" lon="4.2732">
        <ele>279.4</ele>
        <time>2024-03-29T06:03:18Z</time>
      </trkpt>
      <trkpt lat="50.01097" lon="4.2731">
        <ele>279.8</ele>
        <time>2024-03-29T06:03:19Z</time>
      </trkpt>
      <trkpt lat="50.01095" lon="4.27301">
        <ele>280</ele>
        <time>2024-03-29T06:03:20Z</time>
      </trkpt>
      <trkpt lat="50.01093" lon="4.27291">
        <ele>280.2</ele>
        <time>2024-03-29T06:03:21Z</time>
      </trkpt>
      <trkpt lat="50.01091" lon="4.27282">
        <ele>280.2</ele>
        <time>2024-03-29T06:03:22Z</time>
      </trkpt>
      <trkpt lat="50.01089" lon="4.27273">
        <ele>280.2</ele>
        <time>2024-03-29T06:03:23Z</time>
      </trkpt>
      <trkpt lat="50.01087" lon="4.27263">
        <ele>280.4</ele>
        <time>2024-03-29T06:03:24Z</time>
      </trkpt>
      <trkpt lat="50.01085" lon="4.27254">
        <ele>280.4</ele>
        <time>2024-03-29T06:03:25Z</time>
      </trkpt>
      <trkpt lat="50.01083" lon="4.27245">
        <ele>280.6</ele>
        <time>2024-03-29T06:03:26Z</time>
      </trkpt>
      <trkpt lat="50.01082" lon="4.27237">
        <ele>280.6</ele>
        <time>2024-03-29T06:03:27Z</time>
      </trkpt>
      <trkpt lat="50.0108" lon="4.27228">
        <ele>280.6</ele>
        <time>2024-03-29T06:03:28Z</time>
      </trkpt>
      <trkpt lat="50.01079" lon="4.27219">
        <ele>281</ele>
        <time>2024-03-29T06:03:29Z</time>
      </trkpt>
      <trkpt lat="50.01078" lon="4.27209">
        <ele>281</ele>
        <time>2024-03-29T06:03:30Z</time>
      </trkpt>
      <trkpt lat="50.01077" lon="4.272">
        <ele>281.4</ele>
        <time>2024-03-29T06:03:31Z</time>
      </trkpt>
      <trkpt lat="50.01076" lon="4.27191">
        <ele>281.8</ele>
        <time>2024-03-29T06:03:32Z</time>
      </trkpt>
      <trkpt lat="50.01075" lon="4.27182">
        <ele>281.8</ele>
        <time>2024-03-29T06:03:33Z</time>
      </trkpt>
      <trkpt lat="50.01075" lon="4.27173">
        <ele>282.4</ele>
        <time>2024-03-29T06:03:34Z</time>
      </trkpt>
      <trkpt lat="50.01075" lon="4.27164">
        <ele>282.4</ele>
        <time>2024-03-29T06:03:35Z</time>
      </trkpt>
      <trkpt lat="50.01075" lon="4.27154">
        <ele>283</ele>
        <time>2024-03-29T06:03:36Z</time>
      </trkpt>
      <trkpt lat="50.01075" lon="4.27145">
        <ele>283.2</ele>
        <time>2024-03-29T06:03:37Z</time>
      </trkpt>
      <trkpt lat="50.01075" lon="4.27135">
        <ele>283.4</ele>
        <time>2024-03-29T06:03:38Z</time>
      </trkpt>
      <trkpt lat="50.01075" lon="4.27126">
        <ele>283.6</ele>
        <time>2024-03-29T06:03:39Z</time>
      </trkpt>
      <trkpt lat="50.01076" lon="4.27116">
        <ele>283.8</ele>
        <time>2024-03-29T06:03:40Z</time>
      </trkpt>
      <trkpt lat="50.01077" lon="4.27107">
        <ele>284</ele>
        <time>2024-03-29T06:03:41Z</time>
      </trkpt>
      <trkpt lat="50.01078" lon="4.27098">
        <ele>284.2</ele>
        <time>2024-03-29T06:03:42Z</time>
      </trkpt>
      <trkpt lat="50.01079" lon="4.27089">
        <ele>284.4</ele>
        <time>2024-03-29T06:03:43Z</time>
      </trkpt>
      <trkpt lat="50.01081" lon="4.27081">
        <ele>284.6</ele>
        <time>2024-03-29T06:03:44Z</time>
      </trkpt>
      <trkpt lat="50.01082" lon="4.27072">
        <ele>284.6</ele>
        <time>2024-03-29T06:03:45Z</time>
      </trkpt>
      <trkpt lat="50.01084" lon="4.27063">
        <ele>284.6</ele>
        <time>2024-03-29T06:03:46Z</time>
      </trkpt>
      <trkpt lat="50.01085" lon="4.27054">
        <ele>285</ele>
        <time>2024-03-29T06:03:47Z</time>
      </trkpt>
      <trkpt lat="50.01088" lon="4.27045">
        <ele>285.4</ele>
        <time>2024-03-29T06:03:48Z</time>
      </trkpt>
      <trkpt lat="50.0109" lon="4.27036">
        <ele>285.6</ele>
        <time>2024-03-29T06:03:49Z</time>
      </trkpt>
      <trkpt lat="50.01092" lon="4.27027">
        <ele>286.4</ele>
        <time>2024-03-29T06:03:50Z</time>
      </trkpt>
      <trkpt lat="50.01095" lon="4.27019">
        <ele>287</ele>
        <time>2024-03-29T06:03:51Z</time>
      </trkpt>
      <trkpt lat="50.01098" lon="4.2701">
        <ele>287.4</ele>
        <time>2024-03-29T06:03:52Z</time>
      </trkpt>
      <trkpt lat="50.01101" lon="4.27001">
        <ele>287.6</ele>
        <time>2024-03-29T06:03:53Z</time>
      </trkpt>
      <trkpt lat="50.01104" lon="4.26993">
        <ele>287.4</ele>
        <time>2024-03-29T06:03:54Z</time>
      </trkpt>
      <trkpt lat="50.01108" lon="4.26984">
        <ele>287.4</ele>
        <time>2024-03-29T06:03:55Z</time>
      </trkpt>
      <trkpt lat="50.01111" lon="4.26975">
        <ele>287.4</ele>
        <time>2024-03-29T06:03:56Z</time>
      </trkpt>
      <trkpt lat="50.01115" lon="4.26967">
        <ele>287.6</ele>
        <time>2024-03-29T06:03:57Z</time>
      </trkpt>
      <trkpt lat="50.01118" lon="4.26958">
        <ele>287.6</ele>
        <time>2024-03-29T06:03:58Z</time>
      </trkpt>
      <trkpt lat="50.01121" lon="4.26949">
        <ele>287.6</ele>
        <time>2024-03-29T06:03:59Z</time>
      </trkpt>
      <trkpt lat="50.01125" lon="4.26941">
        <ele>287.6</ele>
        <time>2024-03-29T06:04:00Z</time>
      </trkpt>
      <trkpt lat="50.01128" lon="4.26933">
        <ele>287.6</ele>
        <time>2024-03-29T06:04:01Z</time>
      </trkpt>
      <trkpt lat="50.01132" lon="4.26924">
        <ele>287.6</ele>
        <time>2024-03-29T06:04:02Z</time>
      </trkpt>
      <trkpt lat="50.01135" lon="4.26916">
        <ele>287.4</ele>
        <time>2024-03-29T06:04:03Z</time>
      </trkpt>
      <trkpt lat="50.01139" lon="4.26908">
        <ele>287.4</ele>
        <time>2024-03-29T06:04:04Z</time>
      </trkpt>
      <trkpt lat="50.01142" lon="4.26899">
        <ele>287.4</ele>
        <time>2024-03-29T06:04:05Z</time>
      </trkpt>
      <trkpt lat="50.01145" lon="4.2689">
        <ele>287.4</ele>
        <time>2024-03-29T06:04:06Z</time>
      </trkpt>
      <trkpt lat="50.01149" lon="4.26882">
        <ele>287.2</ele>
        <time>2024-03-29T06:04:07Z</time>
      </trkpt>
      <trkpt lat="50.01152" lon="4.26873">
        <ele>287.2</ele>
        <time>2024-03-29T06:04:08Z</time>
      </trkpt>
      <trkpt lat="50.01156" lon="4.26864">
        <ele>287.2</ele>
        <time>2024-03-29T06:04:09Z</time>
      </trkpt>
      <trkpt lat="50.0116" lon="4.26855">
        <ele>287.2</ele>
        <time>2024-03-29T06:04:10Z</time>
      </trkpt>
      <trkpt lat="50.01164" lon="4.26845">
        <ele>287.2</ele>
        <time>2024-03-29T06:04:11Z</time>
      </trkpt>
      <trkpt lat="50.01168" lon="4.26836">
        <ele>287.2</ele>
        <time>2024-03-29T06:04:12Z</time>
      </trkpt>
      <trkpt lat="50.01172" lon="4.26826">
        <ele>287.2</ele>
        <time>2024-03-29T06:04:13Z</time>
      </trkpt>
      <trkpt lat="50.01176" lon="4.26816">
        <ele>287</ele>
        <time>2024-03-29T06:04:14Z</time>
      </trkpt>
      <trkpt lat="50.0118" lon="4.26805">
        <ele>287.2</ele>
        <time>2024-03-29T06:04:15Z</time>
      </trkpt>
      <trkpt lat="50.01185" lon="4.26795">
        <ele>287</ele>
        <time>2024-03-29T06:04:16Z</time>
      </trkpt>
      <trkpt lat="50.01189" lon="4.26784">
        <ele>287.2</ele>
        <time>2024-03-29T06:04:17Z</time>
      </trkpt>
      <trkpt lat="50.01193" lon="4.26773">
        <ele>287.2</ele>
        <time>2024-03-29T06:04:18Z</time>
      </trkpt>
      <trkpt lat="50.01198" lon="4.26762">
        <ele>287.2</ele>
        <time>2024-03-29T06:04:19Z</time>
      </trkpt>
      <trkpt lat="50.01203" lon="4.26751">
        <ele>287</ele>
        <time>2024-03-29T06:04:20Z</time>
      </trkpt>
      <trkpt lat="50.01207" lon="4.26739">
        <ele>286.8</ele>
        <time>2024-03-29T06:04:21Z</time>
      </trkpt>
      <trkpt lat="50.01212" lon="4.26727">
        <ele>286.4</ele>
        <time>2024-03-29T06:04:22Z</time>
      </trkpt>
      <trkpt lat="50.01217" lon="4.26715">
        <ele>285.6</ele>
        <time>2024-03-29T06:04:23Z</time>
      </trkpt>
      <trkpt lat="50.01222" lon="4.26704">
        <ele>285</ele>
        <time>2024-03-29T06:04:24Z</time>
      </trkpt>
      <trkpt lat="50.01227" lon="4.26692">
        <ele>284.6</ele>
        <time>2024-03-29T06:04:25Z</time>
      </trkpt>
      <trkpt lat="50.01232" lon="4.2668">
        <ele>284.2</ele>
        <time>2024-03-29T06:04:26Z</time>
      </trkpt>
      <trkpt lat="50.01237" lon="4.26667">
        <ele>283.6</ele>
        <time>2024-03-29T06:04:27Z</time>
      </trkpt>
      <trkpt lat="50.01242" lon="4.26655">
        <ele>283</ele>
        <time>2024-03-29T06:04:28Z</time>
      </trkpt>
      <trkpt lat="50.01247" lon="4.26642">
        <ele>282.8</ele>
        <time>2024-03-29T06:04:29Z</time>
      </trkpt>
      <trkpt lat="50.01252" lon="4.26629">
        <ele>282</ele>
        <time>2024-03-29T06:04:30Z</time>
      </trkpt>
      <trkpt lat="50.01258" lon="4.26616">
        <ele>281.4</ele>
        <time>2024-03-29T06:04:31Z</time>
      </trkpt>
      <trkpt lat="50.01263" lon="4.26603">
        <ele>281.4</ele>
        <time>2024-03-29T06:04:32Z</time>
      </trkpt>
      <trkpt lat="50.01268" lon="4.2659">
        <ele>281</ele>
        <time>2024-03-29T06:04:33Z</time>
      </trkpt>
      <trkpt lat="50.01273" lon="4.26576">
        <ele>280.2</ele>
        <time>2024-03-29T06:04:34Z</time>
      </trkpt>
      <trkpt lat="50.01278" lon="4.26561">
        <ele>279.8</ele>
        <time>2024-03-29T06:04:35Z</time>
      </trkpt>
      <trkpt lat="50.01282" lon="4.26546">
        <ele>279.2</ele>
        <time>2024-03-29T06:04:36Z</time>
      </trkpt>
      <trkpt lat="50.01286" lon="4.26531">
        <ele>279</ele>
        <time>2024-03-29T06:04:37Z</time>
      </trkpt>
      <trkpt lat="50.01289" lon="4.26515">
        <ele>278.8</ele>
        <time>2024-03-29T06:04:38Z</time>
      </trkpt>
      <trkpt lat="50.01292" lon="4.26499">
        <ele>278.2</ele>
        <time>2024-03-29T06:04:39Z</time>
      </trkpt>
      <trkpt lat="50.01295" lon="4.26483">
        <ele>277.8</ele>
        <time>2024-03-29T06:04:40Z</time>
      </trkpt>
      <trkpt lat="50.01297" lon="4.26467">
        <ele>277.2</ele>
        <time>2024-03-29T06:04:41Z</time>
      </trkpt>
      <trkpt lat="50.01299" lon="4.26451">
        <ele>277</ele>
        <time>2024-03-29T06:04:42Z</time>
      </trkpt>
      <trkpt lat="50.01301" lon="4.26434">
        <ele>276.6</ele>
        <time>2024-03-29T06:04:43Z</time>
      </trkpt>
      <trkpt lat="50.01303" lon="4.26418">
        <ele>275.6</ele>
        <time>2024-03-29T06:04:44Z</time>
      </trkpt>
      <trkpt lat="50.01305" lon="4.26402">
        <ele>274.2</ele>
        <time>2024-03-29T06:04:45Z</time>
      </trkpt>
      <trkpt lat="50.01307" lon="4.26387">
        <ele>273</ele>
        <time>2024-03-29T06:04:46Z</time>
      </trkpt>
      <trkpt lat="50.01309" lon="4.26372">
        <ele>272.4</ele>
        <time>2024-03-29T06:04:47Z</time>
      </trkpt>
      <trkpt lat="50.01312" lon="4.26358">
        <ele>271.6</ele>
        <time>2024-03-29T06:04:48Z</time>
      </trkpt>
      <trkpt lat="50.01315" lon="4.26345">
        <ele>271</ele>
        <time>2024-03-29T06:04:49Z</time>
      </trkpt>
      <trkpt lat="50.01318" lon="4.26332">
        <ele>270.8</ele>
        <time>2024-03-29T06:04:50Z</time>
      </trkpt>
      <trkpt lat="50.01321" lon="4.2632">
        <ele>270.8</ele>
        <time>2024-03-29T06:04:51Z</time>
      </trkpt>
      <trkpt lat="50.01324" lon="4.26308">
        <ele>270.8</ele>
        <time>2024-03-29T06:04:52Z</time>
      </trkpt>
      <trkpt lat="50.01328" lon="4.26297">
        <ele>270.6</ele>
        <time>2024-03-29T06:04:53Z</time>
      </trkpt>
      <trkpt lat="50.01331" lon="4.26286">
        <ele>270.8</ele>
        <time>2024-03-29T06:04:54Z</time>
      </trkpt>
      <trkpt lat="50.01335" lon="4.26275">
        <ele>270.8</ele>
        <time>2024-03-29T06:04:55Z</time>
      </trkpt>
      <trkpt lat="50.01339" lon="4.26265">
        <ele>270.6</ele>
        <time>2024-03-29T06:04:56Z</time>
      </trkpt>
      <trkpt lat="50.01342" lon="4.26255">
        <ele>270.8</ele>
        <time>2024-03-29T06:04:57Z</time>
      </trkpt>
      <trkpt lat="50.01346" lon="4.26246">
        <ele>270.8</ele>
        <time>2024-03-29T06:04:58Z</time>
      </trkpt>
      <trkpt lat="50.0135" lon="4.26237">
        <ele>271</ele>
        <time>2024-03-29T06:04:59Z</time>
      </trkpt>
      <trkpt lat="50.01353" lon="4.26228">
        <ele>271.4</ele>
        <time>2024-03-29T06:05:00Z</time>
      </trkpt>
      <trkpt lat="50.01356" lon="4.26219">
        <ele>271.6</ele>
        <time>2024-03-29T06:05:01Z</time>
      </trkpt>
      <trkpt lat="50.0136" lon="4.2621">
        <ele>272</ele>
        <time>2024-03-29T06:05:02Z</time>
      </trkpt>
      <trkpt lat="50.01363" lon="4.26201">
        <ele>272.2</ele>
        <time>2024-03-29T06:05:03Z</time>
      </trkpt>
      <trkpt lat="50.01366" lon="4.26192">
        <ele>272.2</ele>
        <time>2024-03-29T06:05:04Z</time>
      </trkpt>
      <trkpt lat="50.0137" lon="4.26184">
        <ele>272.4</ele>
        <time>2024-03-29T06:05:05Z</time>
      </trkpt>
      <trkpt lat="50.01373" lon="4.26176">
        <ele>272.4</ele>
        <time>2024-03-29T06:05:06Z</time>
      </trkpt>
      <trkpt lat="50.01376" lon="4.26167">
        <ele>272.6</ele>
        <time>2024-03-29T06:05:07Z</time>
      </trkpt>
      <trkpt lat="50.01379" lon="4.26159">
        <ele>272.6</ele>
        <time>2024-03-29T06:05:08Z</time>
      </trkpt>
      <trkpt lat="50.01382" lon="4.2615">
        <ele>272.8</ele>
        <time>2024-03-29T06:05:09Z</time>
      </trkpt>
      <trkpt lat="50.01385" lon="4.26142">
        <ele>273.2</ele>
        <time>2024-03-29T06:05:10Z</time>
      </trkpt>
      <trkpt lat="50.01388" lon="4.26134">
        <ele>273.4</ele>
        <time>2024-03-29T06:05:11Z</time>
      </trkpt>
      <trkpt lat="50.01392" lon="4.26125">
        <ele>273.4</ele>
        <time>2024-03-29T06:05:12Z</time>
      </trkpt>
      <trkpt lat="50.01395" lon="4.26117">
        <ele>273.8</ele>
        <time>2024-03-29T06:05:13Z</time>
      </trkpt>
      <trkpt lat="50.01398" lon="4.26109">
        <ele>273.8</ele>
        <time>2024-03-29T06:05:14Z</time>
      </trkpt>
      <trkpt lat="50.01401" lon="4.261">
        <ele>274</ele>
        <time>2024-03-29T06:05:15Z</time>
      </trkpt>
      <trkpt lat="50.01404" lon="4.26092">
        <ele>274</ele>
        <time>2024-03-29T06:05:16Z</time>
      </trkpt>
      <trkpt lat="50.01407" lon="4.26083">
        <ele>274</ele>
        <time>2024-03-29T06:05:17Z</time>
      </trkpt>
      <trkpt lat="50.01411" lon="4.26074">
        <ele>274</ele>
        <time>2024-03-29T06:05:18Z</time>
      </trkpt>
      <trkpt lat="50.01414" lon="4.26065">
        <ele>274.2</ele>
        <time>2024-03-29T06:05:19Z</time>
      </trkpt>
      <trkpt lat="50.01417" lon="4.26056">
        <ele>274.4</ele>
        <time>2024-03-29T06:05:20Z</time>
      </trkpt>
      <trkpt lat="50.01421" lon="4.26046">
        <ele>274.2</ele>
        <time>2024-03-29T06:05:21Z</time>
      </trkpt>
      <trkpt lat="50.01425" lon="4.26037">
        <ele>274.4</ele>
        <time>2024-03-29T06:05:22Z</time>
      </trkpt>
      <trkpt lat="50.01428" lon="4.26027">
        <ele>274.4</ele>
        <time>2024-03-29T06:05:23Z</time>
      </trkpt>
      <trkpt lat="50.01432" lon="4.26017">
        <ele>274.4</ele>
        <time>2024-03-29T06:05:24Z</time>
      </trkpt>
      <trkpt lat="50.01435" lon="4.26007">
        <ele>274.4</ele>
        <time>2024-03-29T06:05:25Z</time>
      </trkpt>
      <trkpt lat="50.01438" lon="4.25996">
        <ele>274.4</ele>
        <time>2024-03-29T06:05:26Z</time>
      </trkpt>
      <trkpt lat="50.01441" lon="4.25986">
        <ele>274.4</ele>
        <time>2024-03-29T06:05:27Z</time>
      </trkpt>
      <trkpt lat="50.01444" lon="4.25974">
        <ele>274.4</ele>
        <time>2024-03-29T06:05:28Z</time>
      </trkpt>
      <trkpt lat="50.01446" lon="4.25963">
        <ele>274.4</ele>
        <time>2024-03-29T06:05:29Z</time>
      </trkpt>
      <trkpt lat="50.01448" lon="4.25951">
        <ele>274.2</ele>
        <time>2024-03-29T06:05:30Z</time>
      </trkpt>
      <trkpt lat="50.01449" lon="4.25939">
        <ele>274</ele>
        <time>2024-03-29T06:05:31Z</time>
      </trkpt>
      <trkpt lat="50.0145" lon="4.25927">
        <ele>273.8</ele>
        <time>2024-03-29T06:05:32Z</time>
      </trkpt>
      <trkpt lat="50.01451" lon="4.25915">
        <ele>273.4</ele>
        <time>2024-03-29T06:05:33Z</time>
      </trkpt>
      <trkpt lat="50.01452" lon="4.25903">
        <ele>273.2</ele>
        <time>2024-03-29T06:05:34Z</time>
      </trkpt>
      <trkpt lat="50.01453" lon="4.2589">
        <ele>273</ele>
        <time>2024-03-29T06:05:35Z</time>
      </trkpt>
      <trkpt lat="50.01453" lon="4.25878">
        <ele>273</ele>
        <time>2024-03-29T06:05:36Z</time>
      </trkpt>
      <trkpt lat="50.01453" lon="4.25865">
        <ele>272.6</ele>
        <time>2024-03-29T06:05:37Z</time>
      </trkpt>
      <trkpt lat="50.01454" lon="4.25853">
        <ele>272.6</ele>
        <time>2024-03-29T06:05:38Z</time>
      </trkpt>
      <trkpt lat="50.01454" lon="4.2584">
        <ele>272.4</ele>
        <time>2024-03-29T06:05:39Z</time>
      </trkpt>
      <trkpt lat="50.01455" lon="4.25827">
        <ele>272.4</ele>
        <time>2024-03-29T06:05:40Z</time>
      </trkpt>
      <trkpt lat="50.01456" lon="4.25814">
        <ele>272.2</ele>
        <time>2024-03-29T06:05:41Z</time>
      </trkpt>
      <trkpt lat="50.01458" lon="4.25802">
        <ele>272</ele>
        <time>2024-03-29T06:05:42Z</time>
      </trkpt>
      <trkpt lat="50.0146" lon="4.25789">
        <ele>271.4</ele>
        <time>2024-03-29T06:05:43Z</time>
      </trkpt>
      <trkpt lat="50.01463" lon="4.25777">
        <ele>270.6</ele>
        <time>2024-03-29T06:05:44Z</time>
      </trkpt>
      <trkpt lat="50.01466" lon="4.25764">
        <ele>270</ele>
        <time>2024-03-29T06:05:45Z</time>
      </trkpt>
      <trkpt lat="50.0147" lon="4.25752">
        <ele>269.6</ele>
        <time>2024-03-29T06:05:46Z</time>
      </trkpt>
      <trkpt lat="50.01474" lon="4.25741">
        <ele>269.4</ele>
        <time>2024-03-29T06:05:47Z</time>
      </trkpt>
      <trkpt lat="50.01478" lon="4.2573">
        <ele>269</ele>
        <time>2024-03-29T06:05:48Z</time>
      </trkpt>
      <trkpt lat="50.01482" lon="4.2572">
        <ele>268.8</ele>
        <time>2024-03-29T06:05:49Z</time>
      </trkpt>
      <trkpt lat="50.01486" lon="4.2571">
        <ele>268.8</ele>
        <time>2024-03-29T06:05:50Z</time>
      </trkpt>
      <trkpt lat="50.01491" lon="4.25701">
        <ele>268.8</ele>
        <time>2024-03-29T06:05:51Z</time>
      </trkpt>
      <trkpt lat="50.01495" lon="4.25693">
        <ele>268.8</ele>
        <time>2024-03-29T06:05:52Z</time>
      </trkpt>
      <trkpt lat="50.01499" lon="4.25685">
        <ele>268.8</ele>
        <time>2024-03-29T06:05:53Z</time>
      </trkpt>
      <trkpt lat="50.01502" lon="4.25677">
        <ele>268.8</ele>
        <time>2024-03-29T06:05:54Z</time>
      </trkpt>
      <trkpt lat="50.01506" lon="4.25669">
        <ele>268.8</ele>
        <time>2024-03-29T06:05:55Z</time>
      </trkpt>
      <trkpt lat="50.0151" lon="4.25662">
        <ele>269</ele>
        <time>2024-03-29T06:05:56Z</time>
      </trkpt>
      <trkpt lat="50.01513" lon="4.25655">
        <ele>269</ele>
        <time>2024-03-29T06:05:57Z</time>
      </trkpt>
      <trkpt lat="50.01516" lon="4.25648">
        <ele>269.2</ele>
        <time>2024-03-29T06:05:58Z</time>
      </trkpt>
      <trkpt lat="50.01519" lon="4.25642">
        <ele>269.8</ele>
        <time>2024-03-29T06:05:59Z</time>
      </trkpt>
      <trkpt lat="50.01522" lon="4.25636">
        <ele>270.2</ele>
        <time>2024-03-29T06:06:00Z</time>
      </trkpt>
      <trkpt lat="50.01525" lon="4.25631">
        <ele>270.6</ele>
        <time>2024-03-29T06:06:01Z</time>
      </trkpt>
      <trkpt lat="50.01529" lon="4.25628">
        <ele>271</ele>
        <time>2024-03-29T06:06:02Z</time>
      </trkpt>
      <trkpt lat="50.01533" lon="4.25626">
        <ele>271</ele>
        <time>2024-03-29T06:06:03Z</time>
      </trkpt>
      <trkpt lat="50.01538" lon="4.25625">
        <ele>271.4</ele>
        <time>2024-03-29T06:06:04Z</time>
      </trkpt>
      <trkpt lat="50.01544" lon="4.25623">
        <ele>272.2</ele>
        <time>2024-03-29T06:06:05Z</time>
      </trkpt>
      <trkpt lat="50.01549" lon="4.2562">
        <ele>272.6</ele>
        <time>2024-03-29T06:06:06Z</time>
      </trkpt>
      <trkpt lat="50.01554" lon="4.25615">
        <ele>273</ele>
        <time>2024-03-29T06:06:07Z</time>
      </trkpt>
      <trkpt lat="50.01558" lon="4.25608">
        <ele>273.8</ele>
        <time>2024-03-29T06:06:08Z</time>
      </trkpt>
      <trkpt lat="50.01561" lon="4.25601">
        <ele>274.2</ele>
        <time>2024-03-29T06:06:09Z</time>
      </trkpt>
      <trkpt lat="50.01564" lon="4.25593">
        <ele>274.8</ele>
        <time>2024-03-29T06:06:10Z</time>
      </trkpt>
      <trkpt lat="50.01566" lon="4.25584">
        <ele>275.6</ele>
        <time>2024-03-29T06:06:11Z</time>
      </trkpt>
      <trkpt lat="50.01567" lon="4.25576">
        <ele>275.8</ele>
        <time>2024-03-29T06:06:12Z</time>
      </trkpt>
      <trkpt lat="50.01569" lon="4.25567">
        <ele>276</ele>
        <time>2024-03-29T06:06:13Z</time>
      </trkpt>
      <trkpt lat="50.01571" lon="4.25559">
        <ele>276.4</ele>
        <time>2024-03-29T06:06:14Z</time>
      </trkpt>
      <trkpt lat="50.01573" lon="4.25551">
        <ele>276.6</ele>
        <time>2024-03-29T06:06:15Z</time>
      </trkpt>
      <trkpt lat="50.01575" lon="4.25543">
        <ele>276.8</ele>
        <time>2024-03-29T06:06:16Z</time>
      </trkpt>
      <trkpt lat="50.01577" lon="4.25535">
        <ele>276.8</ele>
        <time>2024-03-29T06:06:17Z</time>
      </trkpt>
      <trkpt lat="50.01579" lon="4.25527">
        <ele>277</ele>
        <time>2024-03-29T06:06:18Z</time>
      </trkpt>
      <trkpt lat="50.01581" lon="4.25519">
        <ele>277.4</ele>
        <time>2024-03-29T06:06:19Z</time>
      </trkpt>
      <trkpt lat="50.01583" lon="4.25511">
        <ele>277.8</ele>
        <time>2024-03-29T06:06:20Z</time>
      </trkpt>
      <trkpt lat="50.01584" lon="4.25503">
        <ele>278.2</ele>
        <time>2024-03-29T06:06:21Z</time>
      </trkpt>
      <trkpt lat="50.01585" lon="4.25495">
        <ele>278.6</ele>
        <time>2024-03-29T06:06:22Z</time>
      </trkpt>
      <trkpt lat="50.01585" lon="4.25486">
        <ele>278.6</ele>
        <time>2024-03-29T06:06:23Z</time>
      </trkpt>
      <trkpt lat="50.01585" lon="4.25478">
        <ele>278.6</ele>
        <time>2024-03-29T06:06:24Z</time>
      </trkpt>
      <trkpt lat="50.01583" lon="4.25471">
        <ele>278.8</ele>
        <time>2024-03-29T06:06:25Z</time>
      </trkpt>
      <trkpt lat="50.0158" lon="4.25463">
        <ele>278.8</ele>
        <time>2024-03-29T06:06:26Z</time>
      </trkpt>
      <trkpt lat="50.01577" lon="4.25457">
        <ele>279</ele>
        <time>2024-03-29T06:06:27Z</time>
      </trkpt>
      <trkpt lat="50.01573" lon="4.25451">
        <ele>279</ele>
        <time>2024-03-29T06:06:28Z</time>
      </trkpt>
      <trkpt lat="50.01569" lon="4.25445">
        <ele>279</ele>
        <time>2024-03-29T06:06:29Z</time>
      </trkpt>
      <trkpt lat="50.01565" lon="4.2544">
        <ele>279.2</ele>
        <time>2024-03-29T06:06:30Z</time>
      </trkpt>
      <trkpt lat="50.01561" lon="4.25434">
        <ele>279.4</ele>
        <time>2024-03-29T06:06:31Z</time>
      </trkpt>
      <trkpt lat="50.01558" lon="4.25427">
        <ele>279.2</ele>
        <time>2024-03-29T06:06:32Z</time>
      </trkpt>
      <trkpt lat="50.01556" lon="4.25418">
        <ele>279.4</ele>
        <time>2024-03-29T06:06:33Z</time>
      </trkpt>
      <trkpt lat="50.01556" lon="4.25409">
        <ele>279.2</ele>
        <time>2024-03-29T06:06:34Z</time>
      </trkpt>
      <trkpt lat="50.01558" lon="4.254">
        <ele>279.2</ele>
        <time>2024-03-29T06:06:35Z</time>
      </trkpt>
      <trkpt lat="50.0156" lon="4.25392">
        <ele>279.6</ele>
        <time>2024-03-29T06:06:36Z</time>
      </trkpt>
      <trkpt lat="50.01562" lon="4.25384">
        <ele>279.8</ele>
        <time>2024-03-29T06:06:37Z</time>
      </trkpt>
      <trkpt lat="50.01564" lon="4.25375">
        <ele>280.2</ele>
        <time>2024-03-29T06:06:38Z</time>
      </trkpt>
      <trkpt lat="50.01567" lon="4.25367">
        <ele>280.6</ele>
        <time>2024-03-29T06:06:39Z</time>
      </trkpt>
      <trkpt lat="50.01569" lon="4.25358">
        <ele>280.8</ele>
        <time>2024-03-29T06:06:40Z</time>
      </trkpt>
      <trkpt lat="50.0157" lon="4.2535">
        <ele>280.8</ele>
        <time>2024-03-29T06:06:41Z</time>
      </trkpt>
      <trkpt lat="50.01572" lon="4.25341">
        <ele>281.4</ele>
        <time>2024-03-29T06:06:42Z</time>
      </trkpt>
      <trkpt lat="50.01574" lon="4.25333">
        <ele>281.6</ele>
        <time>2024-03-29T06:06:43Z</time>
      </trkpt>
      <trkpt lat="50.01576" lon="4.25325">
        <ele>281.6</ele>
        <time>2024-03-29T06:06:44Z</time>
      </trkpt>
      <trkpt lat="50.01578" lon="4.25316">
        <ele>281.8</ele>
        <time>2024-03-29T06:06:45Z</time>
      </trkpt>
      <trkpt lat="50.01579" lon="4.25308">
        <ele>281.8</ele>
        <time>2024-03-29T06:06:46Z</time>
      </trkpt>
      <trkpt lat="50.01581" lon="4.253">
        <ele>282</ele>
        <time>2024-03-29T06:06:47Z</time>
      </trkpt>
      <trkpt lat="50.01583" lon="4.25292">
        <ele>282</ele>
        <time>2024-03-29T06:06:48Z</time>
      </trkpt>
      <trkpt lat="50.01585" lon="4.25284">
        <ele>282</ele>
        <time>2024-03-29T06:06:49Z</time>
      </trkpt>
      <trkpt lat="50.01587" lon="4.25276">
        <ele>282.2</ele>
        <time>2024-03-29T06:06:50Z</time>
      </trkpt>
      <trkpt lat="50.01589" lon="4.25267">
        <ele>282.4</ele>
        <time>2024-03-29T06:06:51Z</time>
      </trkpt>
      <trkpt lat="50.01591" lon="4.25259">
        <ele>283</ele>
        <time>2024-03-29T06:06:52Z</time>
      </trkpt>
      <trkpt lat="50.01592" lon="4.25251">
        <ele>283.2</ele>
        <time>2024-03-29T06:06:53Z</time>
      </trkpt>
      <trkpt lat="50.01594" lon="4.25243">
        <ele>283.4</ele>
        <time>2024-03-29T06:06:54Z</time>
      </trkpt>
      <trkpt lat="50.01595" lon="4.25235">
        <ele>283.6</ele>
        <time>2024-03-29T06:06:55Z</time>
      </trkpt>
      <trkpt lat="50.01597" lon="4.25227">
        <ele>283.6</ele>
        <time>2024-03-29T06:06:56Z</time>
      </trkpt>
      <trkpt lat="50.01599" lon="4.25219">
        <ele>283.8</ele>
        <time>2024-03-29T06:06:57Z</time>
      </trkpt>
      <trkpt lat="50.01601" lon="4.25211">
        <ele>284</ele>
        <time>2024-03-29T06:06:58Z</time>
      </trkpt>
      <trkpt lat="50.01603" lon="4.25203">
        <ele>284</ele>
        <time>2024-03-29T06:06:59Z</time>
      </trkpt>
      <trkpt lat="50.01605" lon="4.25195">
        <ele>284.2</ele>
        <time>2024-03-29T06:07:00Z</time>
      </trkpt>
      <trkpt lat="50.01606" lon="4.25187">
        <ele>284.4</ele>
        <time>2024-03-29T06:07:01Z</time>
      </trkpt>
      <trkpt lat="50.01608" lon="4.25179">
        <ele>284.4</ele>
        <time>2024-03-29T06:07:02Z</time>
      </trkpt>
      <trkpt lat="50.0161" lon="4.25171">
        <ele>284.4</ele>
        <time>2024-03-29T06:07:03Z</time>
      </trkpt>
      <trkpt lat="50.01612" lon="4.25163">
        <ele>284.4</ele>
        <time>2024-03-29T06:07:04Z</time>
      </trkpt>
      <trkpt lat="50.01614" lon="4.25154">
        <ele>284.4</ele>
        <time>2024-03-29T06:07:05Z</time>
      </trkpt>
      <trkpt lat="50.01616" lon="4.25146">
        <ele>284.6</ele>
        <time>2024-03-29T06:07:06Z</time>
      </trkpt>
      <trkpt lat="50.01618" lon="4.25138">
        <ele>284.8</ele>
        <time>2024-03-29T06:07:07Z</time>
      </trkpt>
      <trkpt lat="50.0162" lon="4.2513">
        <ele>284.8</ele>
        <time>2024-03-29T06:07:08Z</time>
      </trkpt>
      <trkpt lat="50.01621" lon="4.25122">
        <ele>285</ele>
        <time>2024-03-29T06:07:09Z</time>
      </trkpt>
      <trkpt lat="50.01623" lon="4.25114">
        <ele>285</ele>
        <time>2024-03-29T06:07:10Z</time>
      </trkpt>
      <trkpt lat="50.01625" lon="4.25105">
        <ele>285.2</ele>
        <time>2024-03-29T06:07:11Z</time>
      </trkpt>
      <trkpt lat="50.01627" lon="4.25097">
        <ele>285.2</ele>
        <time>2024-03-29T06:07:12Z</time>
      </trkpt>
      <trkpt lat="50.01629" lon="4.25089">
        <ele>285.4</ele>
        <time>2024-03-29T06:07:13Z</time>
      </trkpt>
      <trkpt lat="50.01631" lon="4.2508">
        <ele>285.4</ele>
        <time>2024-03-29T06:07:14Z</time>
      </trkpt>
      <trkpt lat="50.01633" lon="4.25072">
        <ele>285.6</ele>
        <time>2024-03-29T06:07:15Z</time>
      </trkpt>
      <trkpt lat="50.01635" lon="4.25064">
        <ele>286.2</ele>
        <time>2024-03-29T06:07:16Z</time>
      </trkpt>
      <trkpt lat="50.01636" lon="4.25055">
        <ele>286.4</ele>
        <time>2024-03-29T06:07:17Z</time>
      </trkpt>
      <trkpt lat="50.01638" lon="4.25046">
        <ele>286.8</ele>
        <time>2024-03-29T06:07:18Z</time>
      </trkpt>
      <trkpt lat="50.0164" lon="4.25038">
        <ele>286.8</ele>
        <time>2024-03-29T06:07:19Z</time>
      </trkpt>
      <trkpt lat="50.01642" lon="4.2503">
        <ele>287</ele>
        <time>2024-03-29T06:07:20Z</time>
      </trkpt>
      <trkpt lat="50.01644" lon="4.25021">
        <ele>287.2</ele>
        <time>2024-03-29T06:07:21Z</time>
      </trkpt>
      <trkpt lat="50.01645" lon="4.25013">
        <ele>287.6</ele>
        <time>2024-03-29T06:07:22Z</time>
      </trkpt>
      <trkpt lat="50.01647" lon="4.25004">
        <ele>287.8</ele>
        <time>2024-03-29T06:07:23Z</time>
      </trkpt>
      <trkpt lat="50.01649" lon="4.24996">
        <ele>287.8</ele>
        <time>2024-03-29T06:07:24Z</time>
      </trkpt>
      <trkpt lat="50.01651" lon="4.24988">
        <ele>288</ele>
        <time>2024-03-29T06:07:25Z</time>
      </trkpt>
      <trkpt lat="50.01653" lon="4.2498">
        <ele>288</ele>
        <time>2024-03-29T06:07:26Z</time>
      </trkpt>
      <trkpt lat="50.01656" lon="4.24972">
        <ele>288</ele>
        <time>2024-03-29T06:07:27Z</time>
      </trkpt>
      <trkpt lat="50.01658" lon="4.24964">
        <ele>288.4</ele>
        <time>2024-03-29T06:07:28Z</time>
      </trkpt>
      <trkpt lat="50.01661" lon="4.24956">
        <ele>288.2</ele>
        <time>2024-03-29T06:07:29Z</time>
      </trkpt>
      <trkpt lat="50.01664" lon="4.24948">
        <ele>288.4</ele>
        <time>2024-03-29T06:07:30Z</time>
      </trkpt>
      <trkpt lat="50.01667" lon="4.2494">
        <ele>288.4</ele>
        <time>2024-03-29T06:07:31Z</time>
      </trkpt>
      <trkpt lat="50.0167" lon="4.24933">
        <ele>288.2</ele>
        <time>2024-03-29T06:07:32Z</time>
      </trkpt>
      <trkpt lat="50.01673" lon="4.24925">
        <ele>288.2</ele>
        <time>2024-03-29T06:07:33Z</time>
      </trkpt>
      <trkpt lat="50.01677" lon="4.24918">
        <ele>288.4</ele>
        <time>2024-03-29T06:07:34Z</time>
      </trkpt>
      <trkpt lat="50.01681" lon="4.24911">
        <ele>288.4</ele>
        <time>2024-03-29T06:07:35Z</time>
      </trkpt>
      <trkpt lat="50.01685" lon="4.24904">
        <ele>288.4</ele>
        <time>2024-03-29T06:07:36Z</time>
      </trkpt>
      <trkpt lat="50.01689" lon="4.24898">
        <ele>288.4</ele>
        <time>2024-03-29T06:07:37Z</time>
      </trkpt>
      <trkpt lat="50.01693" lon="4.24891">
        <ele>288.4</ele>
        <time>2024-03-29T06:07:38Z</time>
      </trkpt>
      <trkpt lat="50.01698" lon="4.24885">
        <ele>288.6</ele>
        <time>2024-03-29T06:07:39Z</time>
      </trkpt>
      <trkpt lat="50.01702" lon="4.24878">
        <ele>288.8</ele>
        <time>2024-03-29T06:07:40Z</time>
      </trkpt>
      <trkpt lat="50.01707" lon="4.24872">
        <ele>288.8</ele>
        <time>2024-03-29T06:07:41Z</time>
      </trkpt>
      <trkpt lat="50.01712" lon="4.24867">
        <ele>289</ele>
        <time>2024-03-29T06:07:42Z</time>
      </trkpt>
      <trkpt lat="50.01718" lon="4.24861">
        <ele>289.4</ele>
        <time>2024-03-29T06:07:43Z</time>
      </trkpt>
      <trkpt lat="50.01723" lon="4.24856">
        <ele>289.6</ele>
        <time>2024-03-29T06:07:44Z</time>
      </trkpt>
      <trkpt lat="50.01728" lon="4.2485">
        <ele>289.8</ele>
        <time>2024-03-29T06:07:45Z</time>
      </trkpt>
      <trkpt lat="50.01734" lon="4.24844">
        <ele>289.8</ele>
        <time>2024-03-29T06:07:46Z</time>
      </trkpt>
      <trkpt lat="50.01739" lon="4.24838">
        <ele>290</ele>
        <time>2024-03-29T06:07:47Z</time>
      </trkpt>
      <trkpt lat="50.01745" lon="4.24832">
        <ele>290</ele>
        <time>2024-03-29T06:07:48Z</time>
      </trkpt>
      <trkpt lat="50.01751" lon="4.24826">
        <ele>290</ele>
        <time>2024-03-29T06:07:49Z</time>
      </trkpt>
      <trkpt lat="50.01756" lon="4.24819">
        <ele>290</ele>
        <time>2024-03-29T06:07:50Z</time>
      </trkpt>
      <trkpt lat="50.01762" lon="4.24813">
        <ele>290</ele>
        <time>2024-03-29T06:07:51Z</time>
      </trkpt>
      <trkpt lat="50.01768" lon="4.24807">
        <ele>290</ele>
        <time>2024-03-29T06:07:52Z</time>
      </trkpt>
      <trkpt lat="50.01774" lon="4.248">
        <ele>290</ele>
        <time>2024-03-29T06:07:53Z</time>
      </trkpt>
      <trkpt lat="50.0178" lon="4.24793">
        <ele>290.2</ele>
        <time>2024-03-29T06:07:54Z</time>
      </trkpt>
      <trkpt lat="50.01786" lon="4.24786">
        <ele>290</ele>
        <time>2024-03-29T06:07:55Z</time>
      </trkpt>
      <trkpt lat="50.01792" lon="4.24778">
        <ele>290</ele>
        <time>2024-03-29T06:07:56Z</time>
      </trkpt>
      <trkpt lat="50.01797" lon="4.2477">
        <ele>290</ele>
        <time>2024-03-29T06:07:57Z</time>
      </trkpt>
      <trkpt lat="50.01803" lon="4.24762">
        <ele>290</ele>
        <time>2024-03-29T06:07:58Z</time>
      </trkpt>
      <trkpt lat="50.01809" lon="4.24753">
        <ele>289.8</ele>
        <time>2024-03-29T06:07:59Z</time>
      </trkpt>
      <trkpt lat="50.01814" lon="4.24744">
        <ele>289.6</ele>
        <time>2024-03-29T06:08:00Z</time>
      </trkpt>
      <trkpt lat="50.0182" lon="4.24734">
        <ele>289.6</ele>
        <time>2024-03-29T06:08:01Z</time>
      </trkpt>
      <trkpt lat="50.01825" lon="4.24724">
        <ele>289.6</ele>
        <time>2024-03-29T06:08:02Z</time>
      </trkpt>
      <trkpt lat="50.0183" lon="4.24714">
        <ele>289.4</ele>
        <time>2024-03-29T06:08:03Z</time>
      </trkpt>
      <trkpt lat="50.01835" lon="4.24703">
        <ele>289.4</ele>
        <time>2024-03-29T06:08:04Z</time>
      </trkpt>
      <trkpt lat="50.0184" lon="4.24692">
        <ele>289.4</ele>
        <time>2024-03-29T06:08:05Z</time>
      </trkpt>
      <trkpt lat="50.01844" lon="4.2468">
        <ele>289.4</ele>
        <time>2024-03-29T06:08:06Z</time>
      </trkpt>
      <trkpt lat="50.01848" lon="4.24667">
        <ele>289.2</ele>
        <time>2024-03-29T06:08:07Z</time>
      </trkpt>
      <trkpt lat="50.01851" lon="4.24654">
        <ele>289.2</ele>
        <time>2024-03-29T06:08:08Z</time>
      </trkpt>
      <trkpt lat="50.01853" lon="4.24641">
        <ele>289.2</ele>
        <time>2024-03-29T06:08:09Z</time>
      </trkpt>
      <trkpt lat="50.01855" lon="4.24628">
        <ele>289.2</ele>
        <time>2024-03-29T06:08:10Z</time>
      </trkpt>
      <trkpt lat="50.01857" lon="4.24615">
        <ele>289.2</ele>
        <time>2024-03-29T06:08:11Z</time>
      </trkpt>
      <trkpt lat="50.01858" lon="4.24602">
        <ele>289</ele>
        <time>2024-03-29T06:08:12Z</time>
      </trkpt>
      <trkpt lat="50.01859" lon="4.24589">
        <ele>289</ele>
        <time>2024-03-29T06:08:13Z</time>
      </trkpt>
      <trkpt lat="50.01859" lon="4.24576">
        <ele>288.8</ele>
        <time>2024-03-29T06:08:14Z</time>
      </trkpt>
      <trkpt lat="50.01859" lon="4.24564">
        <ele>288.6</ele>
        <time>2024-03-29T06:08:15Z</time>
      </trkpt>
      <trkpt lat="50.01859" lon="4.24551">
        <ele>288.4</ele>
        <time>2024-03-29T06:08:16Z</time>
      </trkpt>
      <trkpt lat="50.01858" lon="4.24538">
        <ele>287.8</ele>
        <time>2024-03-29T06:08:17Z</time>
      </trkpt>
      <trkpt lat="50.01858" lon="4.24526">
        <ele>287.4</ele>
        <time>2024-03-29T06:08:18Z</time>
      </trkpt>
      <trkpt lat="50.01857" lon="4.24513">
        <ele>287</ele>
        <time>2024-03-29T06:08:19Z</time>
      </trkpt>
      <trkpt lat="50.01856" lon="4.24501">
        <ele>287</ele>
        <time>2024-03-29T06:08:20Z</time>
      </trkpt>
      <trkpt lat="50.01856" lon="4.24488">
        <ele>286.8</ele>
        <time>2024-03-29T06:08:21Z</time>
      </trkpt>
      <trkpt lat="50.01854" lon="4.24476">
        <ele>286.4</ele>
        <time>2024-03-29T06:08:22Z</time>
      </trkpt>
      <trkpt lat="50.01853" lon="4.24464">
        <ele>286.2</ele>
        <time>2024-03-29T06:08:23Z</time>
      </trkpt>
      <trkpt lat="50.0185" lon="4.24452">
        <ele>285.6</ele>
        <time>2024-03-29T06:08:24Z</time>
      </trkpt>
      <trkpt lat="50.01848" lon="4.24441">
        <ele>285</ele>
        <time>2024-03-29T06:08:25Z</time>
      </trkpt>
      <trkpt lat="50.01845" lon="4.2443">
        <ele>284.6</ele>
        <time>2024-03-29T06:08:26Z</time>
      </trkpt>
      <trkpt lat="50.01842" lon="4.24419">
        <ele>284.2</ele>
        <time>2024-03-29T06:08:27Z</time>
      </trkpt>
      <trkpt lat="50.01839" lon="4.24408">
        <ele>283.8</ele>
        <time>2024-03-29T06:08:28Z</time>
      </trkpt>
      <trkpt lat="50.01836" lon="4.24397">
        <ele>283.6</ele>
        <time>2024-03-29T06:08:29Z</time>
      </trkpt>
      <trkpt lat="50.01833" lon="4.24386">
        <ele>283.4</ele>
        <time>2024-03-29T06:08:30Z</time>
      </trkpt>
      <trkpt lat="50.0183" lon="4.24376">
        <ele>283.2</ele>
        <time>2024-03-29T06:08:31Z</time>
      </trkpt>
      <trkpt lat="50.01827" lon="4.24365">
        <ele>283</ele>
        <time>2024-03-29T06:08:32Z</time>
      </trkpt>
      <trkpt lat="50.01824" lon="4.24354">
        <ele>282.8</ele>
        <time>2024-03-29T06:08:33Z</time>
      </trkpt>
      <trkpt lat="50.01821" lon="4.24343">
        <ele>282.6</ele>
        <time>2024-03-29T06:08:34Z</time>
      </trkpt>
      <trkpt lat="50.01818" lon="4.24333">
        <ele>282.6</ele>
        <time>2024-03-29T06:08:35Z</time>
      </trkpt>
      <trkpt lat="50.01815" lon="4.24322">
        <ele>282.6</ele>
        <time>2024-03-29T06:08:36Z</time>
      </trkpt>
      <trkpt lat="50.01812" lon="4.24311">
        <ele>282</ele>
        <time>2024-03-29T06:08:37Z</time>
      </trkpt>
      <trkpt lat="50.01809" lon="4.24301">
        <ele>281.8</ele>
        <time>2024-03-29T06:08:38Z</time>
      </trkpt>
      <trkpt lat="50.01806" lon="4.2429">
        <ele>281.6</ele>
        <time>2024-03-29T06:08:39Z</time>
      </trkpt>
      <trkpt lat="50.01803" lon="4.24279">
        <ele>281.4</ele>
        <time>2024-03-29T06:08:40Z</time>
      </trkpt>
      <trkpt lat="50.018" lon="4.24268">
        <ele>281.4</ele>
        <time>2024-03-29T06:08:41Z</time>
      </trkpt>
      <trkpt lat="50.01797" lon="4.24257">
        <ele>281.4</ele>
        <time>2024-03-29T06:08:42Z</time>
      </trkpt>
      <trkpt lat="50.01794" lon="4.24247">
        <ele>281</ele>
        <time>2024-03-29T06:08:43Z</time>
      </trkpt>
      <trkpt lat="50.01791" lon="4.24235">
        <ele>281</ele>
        <time>2024-03-29T06:08:44Z</time>
      </trkpt>
      <trkpt lat="50.01788" lon="4.24224">
        <ele>280.6</ele>
        <time>2024-03-29T06:08:45Z</time>
      </trkpt>
      <trkpt lat="50.01784" lon="4.24213">
        <ele>280.6</ele>
        <time>2024-03-29T06:08:46Z</time>
      </trkpt>
      <trkpt lat="50.01781" lon="4.24202">
        <ele>280.4</ele>
        <time>2024-03-29T06:08:47Z</time>
      </trkpt>
      <trkpt lat="50.01778" lon="4.24191">
        <ele>279.8</ele>
        <time>2024-03-29T06:08:48Z</time>
      </trkpt>
      <trkpt lat="50.01775" lon="4.24179">
        <ele>279.6</ele>
        <time>2024-03-29T06:08:49Z</time>
      </trkpt>
      <trkpt lat="50.01771" lon="4.24167">
        <ele>279.2</ele>
        <time>2024-03-29T06:08:50Z</time>
      </trkpt>
      <trkpt lat="50.01768" lon="4.24155">
        <ele>278.8</ele>
        <time>2024-03-29T06:08:51Z</time>
      </trkpt>
      <trkpt lat="50.01764" lon="4.24143">
        <ele>278.6</ele>
        <time>2024-03-29T06:08:52Z</time>
      </trkpt>
      <trkpt lat="50.0176" lon="4.2413">
        <ele>278.4</ele>
        <time>2024-03-29T06:08:53Z</time>
      </trkpt>
      <trkpt lat="50.01756" lon="4.24118">
        <ele>277.8</ele>
        <time>2024-03-29T06:08:54Z</time>
      </trkpt>
      <trkpt lat="50.01751" lon="4.24106">
        <ele>277.6</ele>
        <time>2024-03-29T06:08:55Z</time>
      </trkpt>
      <trkpt lat="50.01745" lon="4.24094">
        <ele>277.2</ele>
        <time>2024-03-29T06:08:56Z</time>
      </trkpt>
      <trkpt lat="50.01739" lon="4.24082">
        <ele>277.2</ele>
        <time>2024-03-29T06:08:57Z</time>
      </trkpt>
      <trkpt lat="50.01733" lon="4.2407">
        <ele>277</ele>
        <time>2024-03-29T06:08:58Z</time>
      </trkpt>
      <trkpt lat="50.01727" lon="4.24058">
        <ele>276.8</ele>
        <time>2024-03-29T06:08:59Z</time>
      </trkpt>
      <trkpt lat="50.01721" lon="4.24046">
        <ele>276.6</ele>
        <time>2024-03-29T06:09:00Z</time>
      </trkpt>
      <trkpt lat="50.01715" lon="4.24034">
        <ele>276.4</ele>
        <time>2024-03-29T06:09:01Z</time>
      </trkpt>
      <trkpt lat="50.01708" lon="4.24022">
        <ele>275.8</ele>
        <time>2024-03-29T06:09:02Z</time>
      </trkpt>
      <trkpt lat="50.01702" lon="4.2401">
        <ele>275</ele>
        <time>2024-03-29T06:09:03Z</time>
      </trkpt>
      <trkpt lat="50.01695" lon="4.23997">
        <ele>274.4</ele>
        <time>2024-03-29T06:09:04Z</time>
      </trkpt>
      <trkpt lat="50.0169" lon="4.23984">
        <ele>274.4</ele>
        <time>2024-03-29T06:09:05Z</time>
      </trkpt>
      <trkpt lat="50.01685" lon="4.23969">
        <ele>274</ele>
        <time>2024-03-29T06:09:06Z</time>
      </trkpt>
      <trkpt lat="50.01682" lon="4.23953">
        <ele>273.2</ele>
        <time>2024-03-29T06:09:07Z</time>
      </trkpt>
      <trkpt lat="50.01679" lon="4.23937">
        <ele>272.4</ele>
        <time>2024-03-29T06:09:08Z</time>
      </trkpt>
      <trkpt lat="50.01677" lon="4.23922">
        <ele>271.8</ele>
        <time>2024-03-29T06:09:09Z</time>
      </trkpt>
      <trkpt lat="50.01675" lon="4.23906">
        <ele>271.2</ele>
        <time>2024-03-29T06:09:10Z</time>
      </trkpt>
      <trkpt lat="50.01673" lon="4.23891">
        <ele>270.6</ele>
        <time>2024-03-29T06:09:11Z</time>
      </trkpt>
      <trkpt lat="50.01672" lon="4.23877">
        <ele>270.4</ele>
        <time>2024-03-29T06:09:12Z</time>
      </trkpt>
      <trkpt lat="50.01673" lon="4.23863">
        <ele>269.4</ele>
        <time>2024-03-29T06:09:13Z</time>
      </trkpt>
      <trkpt lat="50.01675" lon="4.2385">
        <ele>269</ele>
        <time>2024-03-29T06:09:14Z</time>
      </trkpt>
      <trkpt lat="50.01677" lon="4.23839">
        <ele>268.8</ele>
        <time>2024-03-29T06:09:15Z</time>
      </trkpt>
      <trkpt lat="50.01681" lon="4.23829">
        <ele>268.6</ele>
        <time>2024-03-29T06:09:16Z</time>
      </trkpt>
      <trkpt lat="50.01684" lon="4.23819">
        <ele>268.6</ele>
        <time>2024-03-29T06:09:17Z</time>
      </trkpt>
      <trkpt lat="50.01688" lon="4.2381">
        <ele>268.6</ele>
        <time>2024-03-29T06:09:18Z</time>
      </trkpt>
      <trkpt lat="50.01691" lon="4.23801">
        <ele>268.6</ele>
        <time>2024-03-29T06:09:19Z</time>
      </trkpt>
      <trkpt lat="50.01695" lon="4.23792">
        <ele>268.6</ele>
        <time>2024-03-29T06:09:20Z</time>
      </trkpt>
      <trkpt lat="50.01698" lon="4.23783">
        <ele>268.6</ele>
        <time>2024-03-29T06:09:21Z</time>
      </trkpt>
      <trkpt lat="50.01702" lon="4.23774">
        <ele>268.4</ele>
        <time>2024-03-29T06:09:22Z</time>
      </trkpt>
      <trkpt lat="50.01705" lon="4.23765">
        <ele>268.2</ele>
        <time>2024-03-29T06:09:23Z</time>
      </trkpt>
      <trkpt lat="50.01708" lon="4.23756">
        <ele>268.4</ele>
        <time>2024-03-29T06:09:24Z</time>
      </trkpt>
      <trkpt lat="50.01711" lon="4.23748">
        <ele>268.4</ele>
        <time>2024-03-29T06:09:25Z</time>
      </trkpt>
      <trkpt lat="50.01714" lon="4.23739">
        <ele>269</ele>
        <time>2024-03-29T06:09:26Z</time>
      </trkpt>
      <trkpt lat="50.01717" lon="4.23731">
        <ele>269</ele>
        <time>2024-03-29T06:09:27Z</time>
      </trkpt>
      <trkpt lat="50.0172" lon="4.23722">
        <ele>269</ele>
        <time>2024-03-29T06:09:28Z</time>
      </trkpt>
      <trkpt lat="50.01723" lon="4.23714">
        <ele>269.2</ele>
        <time>2024-03-29T06:09:29Z</time>
      </trkpt>
      <trkpt lat="50.01727" lon="4.23706">
        <ele>269.4</ele>
        <time>2024-03-29T06:09:30Z</time>
      </trkpt>
      <trkpt lat="50.0173" lon="4.23697">
        <ele>269.4</ele>
        <time>2024-03-29T06:09:31Z</time>
      </trkpt>
      <trkpt lat="50.01733" lon="4.23688">
        <ele>269.4</ele>
        <time>2024-03-29T06:09:32Z</time>
      </trkpt>
      <trkpt lat="50.01736" lon="4.23679">
        <ele>269.6</ele>
        <time>2024-03-29T06:09:33Z</time>
      </trkpt>
      <trkpt lat="50.01739" lon="4.2367">
        <ele>269.4</ele>
        <time>2024-03-29T06:09:34Z</time>
      </trkpt>
      <trkpt lat="50.01742" lon="4.23662">
        <ele>269.6</ele>
        <time>2024-03-29T06:09:35Z</time>
      </trkpt>
      <trkpt lat="50.01745" lon="4.23652">
        <ele>270</ele>
        <time>2024-03-29T06:09:36Z</time>
      </trkpt>
      <trkpt lat="50.01748" lon="4.23643">
        <ele>270.4</ele>
        <time>2024-03-29T06:09:37Z</time>
      </trkpt>
      <trkpt lat="50.01751" lon="4.23634">
        <ele>270.4</ele>
        <time>2024-03-29T06:09:38Z</time>
      </trkpt>
      <trkpt lat="50.01754" lon="4.23625">
        <ele>270.4</ele>
        <time>2024-03-29T06:09:39Z</time>
      </trkpt>
      <trkpt lat="50.01756" lon="4.23615">
        <ele>270.6</ele>
        <time>2024-03-29T06:09:40Z</time>
      </trkpt>
      <trkpt lat="50.01759" lon="4.23605">
        <ele>270.6</ele>
        <time>2024-03-29T06:09:41Z</time>
      </trkpt>
      <trkpt lat="50.01762" lon="4.23596">
        <ele>271.2</ele>
        <time>2024-03-29T06:09:42Z</time>
      </trkpt>
      <trkpt lat="50.01764" lon="4.23587">
        <ele>271</ele>
        <time>2024-03-29T06:09:43Z</time>
      </trkpt>
      <trkpt lat="50.01766" lon="4.23578">
        <ele>271</ele>
        <time>2024-03-29T06:09:44Z</time>
      </trkpt>
      <trkpt lat="50.01768" lon="4.23568">
        <ele>271.4</ele>
        <time>2024-03-29T06:09:45Z</time>
      </trkpt>
      <trkpt lat="50.0177" lon="4.23559">
        <ele>271</ele>
        <time>2024-03-29T06:09:46Z</time>
      </trkpt>
      <trkpt lat="50.01772" lon="4.2355">
        <ele>271.2</ele>
        <time>2024-03-29T06:09:47Z</time>
      </trkpt>
      <trkpt lat="50.01774" lon="4.23542">
        <ele>271.6</ele>
        <time>2024-03-29T06:09:48Z</time>
      </trkpt>
      <trkpt lat="50.01777" lon="4.23533">
        <ele>271.6</ele>
        <time>2024-03-29T06:09:49Z</time>
      </trkpt>
      <trkpt lat="50.01779" lon="4.23526">
        <ele>271.6</ele>
        <time>2024-03-29T06:09:50Z</time>
      </trkpt>
      <trkpt lat="50.01782" lon="4.23518">
        <ele>271.6</ele>
        <time>2024-03-29T06:09:51Z</time>
      </trkpt>
      <trkpt lat="50.01784" lon="4.2351">
        <ele>271.8</ele>
        <time>2024-03-29T06:09:52Z</time>
      </trkpt>
      <trkpt lat="50.01787" lon="4.23503">
        <ele>271.8</ele>
        <time>2024-03-29T06:09:53Z</time>
      </trkpt>
      <trkpt lat="50.01789" lon="4.23496">
        <ele>271.8</ele>
        <time>2024-03-29T06:09:54Z</time>
      </trkpt>
      <trkpt lat="50.01792" lon="4.23489">
        <ele>271.8</ele>
        <time>2024-03-29T06:09:55Z</time>
      </trkpt>
      <trkpt lat="50.01794" lon="4.23482">
        <ele>271.6</ele>
        <time>2024-03-29T06:09:56Z</time>
      </trkpt>
      <trkpt lat="50.01796" lon="4.23474">
        <ele>271.8</ele>
        <time>2024-03-29T06:09:57Z</time>
      </trkpt>
      <trkpt lat="50.01798" lon="4.23467">
        <ele>271.8</ele>
        <time>2024-03-29T06:09:58Z</time>
      </trkpt>
      <trkpt lat="50.018" lon="4.2346">
        <ele>271.6</ele>
        <time>2024-03-29T06:09:59Z</time>
      </trkpt>
      <trkpt lat="50.01802" lon="4.23452">
        <ele>271.8</ele>
        <time>2024-03-29T06:10:00Z</time>
      </trkpt>
      <trkpt lat="50.01804" lon="4.23443">
        <ele>272.2</ele>
        <time>2024-03-29T06:10:01Z</time>
      </trkpt>
      <trkpt lat="50.01806" lon="4.23435">
        <ele>272.8</ele>
        <time>2024-03-29T06:10:02Z</time>
      </trkpt>
      <trkpt lat="50.01808" lon="4.23427">
        <ele>273</ele>
        <time>2024-03-29T06:10:03Z</time>
      </trkpt>
      <trkpt lat="50.0181" lon="4.2342">
        <ele>273.6</ele>
        <time>2024-03-29T06:10:04Z</time>
      </trkpt>
      <trkpt lat="50.01812" lon="4.23413">
        <ele>274.2</ele>
        <time>2024-03-29T06:10:05Z</time>
      </trkpt>
      <trkpt lat="50.01814" lon="4.23404">
        <ele>274.8</ele>
        <time>2024-03-29T06:10:06Z</time>
      </trkpt>
      <trkpt lat="50.01816" lon="4.23396">
        <ele>275.8</ele>
        <time>2024-03-29T06:10:07Z</time>
      </trkpt>
      <trkpt lat="50.01818" lon="4.23388">
        <ele>276.2</ele>
        <time>2024-03-29T06:10:08Z</time>
      </trkpt>
      <trkpt lat="50.0182" lon="4.23379">
        <ele>276.6</ele>
        <time>2024-03-29T06:10:09Z</time>
      </trkpt>
      <trkpt lat="50.01821" lon="4.23371">
        <ele>276.6</ele>
        <time>2024-03-29T06:10:10Z</time>
      </trkpt>
      <trkpt lat="50.01823" lon="4.23363">
        <ele>277</ele>
        <time>2024-03-29T06:10:11Z</time>
      </trkpt>
      <trkpt lat="50.01825" lon="4.23356">
        <ele>277.4</ele>
        <time>2024-03-29T06:10:12Z</time>
      </trkpt>
      <trkpt lat="50.01827" lon="4.23349">
        <ele>277.8</ele>
        <time>2024-03-29T06:10:13Z</time>
      </trkpt>
      <trkpt lat="50.01829" lon="4.2334">
        <ele>278.4</ele>
        <time>2024-03-29T06:10:14Z</time>
      </trkpt>
      <trkpt lat="50.01831" lon="4.23331">
        <ele>278.8</ele>
        <time>2024-03-29T06:10:15Z</time>
      </trkpt>
      <trkpt lat="50.01833" lon="4.23323">
        <ele>279.4</ele>
        <time>2024-03-29T06:10:16Z</time>
      </trkpt>
      <trkpt lat="50.01835" lon="4.23314">
        <ele>279.6</ele>
        <time>2024-03-29T06:10:17Z</time>
      </trkpt>
      <trkpt lat="50.01837" lon="4.23306">
        <ele>279.4</ele>
        <time>2024-03-29T06:10:18Z</time>
      </trkpt>
      <trkpt lat="50.01838" lon="4.23296">
        <ele>279.8</ele>
        <time>2024-03-29T06:10:19Z</time>
      </trkpt>
      <trkpt lat="50.01839" lon="4.23287">
        <ele>280.4</ele>
        <time>2024-03-29T06:10:20Z</time>
      </trkpt>
      <trkpt lat="50.01842" lon="4.23278">
        <ele>280.6</ele>
        <time>2024-03-29T06:10:21Z</time>
      </trkpt>
      <trkpt lat="50.01845" lon="4.2327">
        <ele>281</ele>
        <time>2024-03-29T06:10:22Z</time>
      </trkpt>
      <trkpt lat="50.01848" lon="4.23263">
        <ele>281.4</ele>
        <time>2024-03-29T06:10:23Z</time>
      </trkpt>
      <trkpt lat="50.01851" lon="4.23257">
        <ele>281.6</ele>
        <time>2024-03-29T06:10:24Z</time>
      </trkpt>
      <trkpt lat="50.01853" lon="4.2325">
        <ele>281.8</ele>
        <time>2024-03-29T06:10:25Z</time>
      </trkpt>
      <trkpt lat="50.01857" lon="4.23244">
        <ele>282</ele>
        <time>2024-03-29T06:10:26Z</time>
      </trkpt>
      <trkpt lat="50.0186" lon="4.23238">
        <ele>282.6</ele>
        <time>2024-03-29T06:10:27Z</time>
      </trkpt>
      <trkpt lat="50.01864" lon="4.23232">
        <ele>282.6</ele>
        <time>2024-03-29T06:10:28Z</time>
      </trkpt>
      <trkpt lat="50.01867" lon="4.23224">
        <ele>282.6</ele>
        <time>2024-03-29T06:10:29Z</time>
      </trkpt>
      <trkpt lat="50.01871" lon="4.23217">
        <ele>282.8</ele>
        <time>2024-03-29T06:10:30Z</time>
      </trkpt>
      <trkpt lat="50.01875" lon="4.2321">
        <ele>282.8</ele>
        <time>2024-03-29T06:10:31Z</time>
      </trkpt>
      <trkpt lat="50.01879" lon="4.23205">
        <ele>283</ele>
        <time>2024-03-29T06:10:32Z</time>
      </trkpt>
      <trkpt lat="50.01884" lon="4.23199">
        <ele>283.2</ele>
        <time>2024-03-29T06:10:33Z</time>
      </trkpt>
      <trkpt lat="50.01888" lon="4.23194">
        <ele>283.4</ele>
        <time>2024-03-29T06:10:34Z</time>
      </trkpt>
      <trkpt lat="50.01894" lon="4.23191">
        <ele>284</ele>
        <time>2024-03-29T06:10:35Z</time>
      </trkpt>
      <trkpt lat="50.01898" lon="4.23187">
        <ele>284.2</ele>
        <time>2024-03-29T06:10:36Z</time>
      </trkpt>
      <trkpt lat="50.01904" lon="4.23183">
        <ele>284.4</ele>
        <time>2024-03-29T06:10:37Z</time>
      </trkpt>
      <trkpt lat="50.01909" lon="4.23179">
        <ele>284.8</ele>
        <time>2024-03-29T06:10:38Z</time>
      </trkpt>
      <trkpt lat="50.01913" lon="4.23176">
        <ele>285.2</ele>
        <time>2024-03-29T06:10:39Z</time>
      </trkpt>
      <trkpt lat="50.01918" lon="4.23173">
        <ele>285.6</ele>
        <time>2024-03-29T06:10:40Z</time>
      </trkpt>
      <trkpt lat="50.01924" lon="4.23171">
        <ele>285.6</ele>
        <time>2024-03-29T06:10:41Z</time>
      </trkpt>
      <trkpt lat="50.01929" lon="4.23168">
        <ele>285.6</ele>
        <time>2024-03-29T06:10:42Z</time>
      </trkpt>
      <trkpt lat="50.01934" lon="4.23166">
        <ele>285.8</ele>
        <time>2024-03-29T06:10:43Z</time>
      </trkpt>
      <trkpt lat="50.01939" lon="4.23163">
        <ele>285.8</ele>
        <time>2024-03-29T06:10:44Z</time>
      </trkpt>
      <trkpt lat="50.01945" lon="4.2316">
        <ele>285.6</ele>
        <time>2024-03-29T06:10:45Z</time>
      </trkpt>
      <trkpt lat="50.0195" lon="4.23158">
        <ele>285.8</ele>
        <time>2024-03-29T06:10:46Z</time>
      </trkpt>
      <trkpt lat="50.01956" lon="4.23155">
        <ele>285.8</ele>
        <time>2024-03-29T06:10:47Z</time>
      </trkpt>
      <trkpt lat="50.01962" lon="4.23153">
        <ele>285.8</ele>
        <time>2024-03-29T06:10:48Z</time>
      </trkpt>
      <trkpt lat="50.01968" lon="4.2315">
        <ele>285.8</ele>
        <time>2024-03-29T06:10:49Z</time>
      </trkpt>
      <trkpt lat="50.01974" lon="4.23146">
        <ele>286</ele>
        <time>2024-03-29T06:10:50Z</time>
      </trkpt>
      <trkpt lat="50.0198" lon="4.23143">
        <ele>286.2</ele>
        <time>2024-03-29T06:10:51Z</time>
      </trkpt>
      <trkpt lat="50.01986" lon="4.23141">
        <ele>286.2</ele>
        <time>2024-03-29T06:10:52Z</time>
      </trkpt>
      <trkpt lat="50.01992" lon="4.23138">
        <ele>286.2</ele>
        <time>2024-03-29T06:10:53Z</time>
      </trkpt>
      <trkpt lat="50.01998" lon="4.23135">
        <ele>286.6</ele>
        <time>2024-03-29T06:10:54Z</time>
      </trkpt>
      <trkpt lat="50.02004" lon="4.23133">
        <ele>286.6</ele>
        <time>2024-03-29T06:10:55Z</time>
      </trkpt>
      <trkpt lat="50.02011" lon="4.2313">
        <ele>286.8</ele>
        <time>2024-03-29T06:10:56Z</time>
      </trkpt>
      <trkpt lat="50.02017" lon="4.23128">
        <ele>287</ele>
        <time>2024-03-29T06:10:57Z</time>
      </trkpt>
      <trkpt lat="50.02022" lon="4.23125">
        <ele>287.2</ele>
        <time>2024-03-29T06:10:58Z</time>
      </trkpt>
      <trkpt lat="50.02028" lon="4.23123">
        <ele>287.6</ele>
        <time>2024-03-29T06:10:59Z</time>
      </trkpt>
      <trkpt lat="50.02034" lon="4.23121">
        <ele>287.4</ele>
        <time>2024-03-29T06:11:00Z</time>
      </trkpt>
      <trkpt lat="50.02039" lon="4.23119">
        <ele>287.6</ele>
        <time>2024-03-29T06:11:01Z</time>
      </trkpt>
      <trkpt lat="50.02045" lon="4.23116">
        <ele>287.6</ele>
        <time>2024-03-29T06:11:02Z</time>
      </trkpt>
      <trkpt lat="50.02051" lon="4.23114">
        <ele>287.8</ele>
        <time>2024-03-29T06:11:03Z</time>
      </trkpt>
      <trkpt lat="50.02057" lon="4.23111">
        <ele>287.6</ele>
        <time>2024-03-29T06:11:04Z</time>
      </trkpt>
      <trkpt lat="50.02063" lon="4.23108">
        <ele>287.8</ele>
        <time>2024-03-29T06:11:05Z</time>
      </trkpt>
      <trkpt lat="50.0207" lon="4.23106">
        <ele>288</ele>
        <time>2024-03-29T06:11:06Z</time>
      </trkpt>
      <trkpt lat="50.02076" lon="4.23103">
        <ele>288</ele>
        <time>2024-03-29T06:11:07Z</time>
      </trkpt>
      <trkpt lat="50.02082" lon="4.23101">
        <ele>287.8</ele>
        <time>2024-03-29T06:11:08Z</time>
      </trkpt>
      <trkpt lat="50.02088" lon="4.23099">
        <ele>288</ele>
        <time>2024-03-29T06:11:09Z</time>
      </trkpt>
      <trkpt lat="50.02094" lon="4.23096">
        <ele>288</ele>
        <time>2024-03-29T06:11:10Z</time>
      </trkpt>
      <trkpt lat="50.02099" lon="4.23094">
        <ele>288</ele>
        <time>2024-03-29T06:11:11Z</time>
      </trkpt>
      <trkpt lat="50.02105" lon="4.23092">
        <ele>288</ele>
        <time>2024-03-29T06:11:12Z</time>
      </trkpt>
      <trkpt lat="50.02111" lon="4.23089">
        <ele>288</ele>
        <time>2024-03-29T06:11:13Z</time>
      </trkpt>
      <trkpt lat="50.02117" lon="4.23086">
        <ele>288</ele>
        <time>2024-03-29T06:11:14Z</time>
      </trkpt>
      <trkpt lat="50.02124" lon="4.23083">
        <ele>288</ele>
        <time>2024-03-29T06:11:15Z</time>
      </trkpt>
      <trkpt lat="50.0213" lon="4.2308">
        <ele>288</ele>
        <time>2024-03-29T06:11:16Z</time>
      </trkpt>
      <trkpt lat="50.02136" lon="4.23078">
        <ele>288</ele>
        <time>2024-03-29T06:11:17Z</time>
      </trkpt>
      <trkpt lat="50.02143" lon="4.23075">
        <ele>288</ele>
        <time>2024-03-29T06:11:18Z</time>
      </trkpt>
      <trkpt lat="50.02149" lon="4.23072">
        <ele>287.8</ele>
        <time>2024-03-29T06:11:19Z</time>
      </trkpt>
      <trkpt lat="50.02155" lon="4.2307">
        <ele>287.8</ele>
        <time>2024-03-29T06:11:20Z</time>
      </trkpt>
      <trkpt lat="50.02161" lon="4.23067">
        <ele>288</ele>
        <time>2024-03-29T06:11:21Z</time>
      </trkpt>
      <trkpt lat="50.02168" lon="4.23065">
        <ele>287.8</ele>
        <time>2024-03-29T06:11:22Z</time>
      </trkpt>
      <trkpt lat="50.02174" lon="4.23063">
        <ele>287.6</ele>
        <time>2024-03-29T06:11:23Z</time>
      </trkpt>
      <trkpt lat="50.0218" lon="4.23061">
        <ele>287.6</ele>
        <time>2024-03-29T06:11:24Z</time>
      </trkpt>
      <trkpt lat="50.02187" lon="4.23058">
        <ele>287.6</ele>
        <time>2024-03-29T06:11:25Z</time>
      </trkpt>
      <trkpt lat="50.02193" lon="4.23056">
        <ele>287.4</ele>
        <time>2024-03-29T06:11:26Z</time>
      </trkpt>
      <trkpt lat="50.022" lon="4.23054">
        <ele>287.6</ele>
        <time>2024-03-29T06:11:27Z</time>
      </trkpt>
      <trkpt lat="50.02207" lon="4.23051">
        <ele>287.6</ele>
        <time>2024-03-29T06:11:28Z</time>
      </trkpt>
      <trkpt lat="50.02213" lon="4.23049">
        <ele>287.6</ele>
        <time>2024-03-29T06:11:29Z</time>
      </trkpt>
      <trkpt lat="50.02219" lon="4.23047">
        <ele>287.6</ele>
        <time>2024-03-29T06:11:30Z</time>
      </trkpt>
      <trkpt lat="50.02226" lon="4.23045">
        <ele>287.4</ele>
        <time>2024-03-29T06:11:31Z</time>
      </trkpt>
      <trkpt lat="50.02232" lon="4.23042">
        <ele>287.2</ele>
        <time>2024-03-29T06:11:32Z</time>
      </trkpt>
      <trkpt lat="50.02239" lon="4.23039">
        <ele>287.2</ele>
        <time>2024-03-29T06:11:33Z</time>
      </trkpt>
      <trkpt lat="50.02245" lon="4.23037">
        <ele>287</ele>
        <time>2024-03-29T06:11:34Z</time>
      </trkpt>
      <trkpt lat="50.02251" lon="4.23035">
        <ele>287.2</ele>
        <time>2024-03-29T06:11:35Z</time>
      </trkpt>
      <trkpt lat="50.02257" lon="4.23032">
        <ele>287.2</ele>
        <time>2024-03-29T06:11:36Z</time>
      </trkpt>
      <trkpt lat="50.02263" lon="4.2303">
        <ele>287.2</ele>
        <time>2024-03-29T06:11:37Z</time>
      </trkpt>
      <trkpt lat="50.0227" lon="4.23028">
        <ele>287</ele>
        <time>2024-03-29T06:11:38Z</time>
      </trkpt>
      <trkpt lat="50.02277" lon="4.23025">
        <ele>287.2</ele>
        <time>2024-03-29T06:11:39Z</time>
      </trkpt>
      <trkpt lat="50.02283" lon="4.23023">
        <ele>287</ele>
        <time>2024-03-29T06:11:40Z</time>
      </trkpt>
      <trkpt lat="50.0229" lon="4.2302">
        <ele>287</ele>
        <time>2024-03-29T06:11:41Z</time>
      </trkpt>
      <trkpt lat="50.02296" lon="4.23016">
        <ele>287</ele>
        <time>2024-03-29T06:11:42Z</time>
      </trkpt>
      <trkpt lat="50.02303" lon="4.23013">
        <ele>287</ele>
        <time>2024-03-29T06:11:43Z</time>
      </trkpt>
      <trkpt lat="50.02309" lon="4.2301">
        <ele>287</ele>
        <time>2024-03-29T06:11:44Z</time>
      </trkpt>
      <trkpt lat="50.02315" lon="4.23007">
        <ele>287</ele>
        <time>2024-03-29T06:11:45Z</time>
      </trkpt>
      <trkpt lat="50.02322" lon="4.23004">
        <ele>287</ele>
        <time>2024-03-29T06:11:46Z</time>
      </trkpt>
      <trkpt lat="50.02328" lon="4.23002">
        <ele>287.2</ele>
        <time>2024-03-29T06:11:47Z</time>
      </trkpt>
      <trkpt lat="50.02335" lon="4.22999">
        <ele>287</ele>
        <time>2024-03-29T06:11:48Z</time>
      </trkpt>
      <trkpt lat="50.02341" lon="4.22996">
        <ele>287</ele>
        <time>2024-03-29T06:11:49Z</time>
      </trkpt>
      <trkpt lat="50.02349" lon="4.22994">
        <ele>287</ele>
        <time>2024-03-29T06:11:50Z</time>
      </trkpt>
      <trkpt lat="50.02355" lon="4.22992">
        <ele>287</ele>
        <time>2024-03-29T06:11:51Z</time>
      </trkpt>
      <trkpt lat="50.02362" lon="4.2299">
        <ele>286.8</ele>
        <time>2024-03-29T06:11:52Z</time>
      </trkpt>
      <trkpt lat="50.02369" lon="4.22988">
        <ele>286.8</ele>
        <time>2024-03-29T06:11:53Z</time>
      </trkpt>
      <trkpt lat="50.02376" lon="4.22985">
        <ele>286.6</ele>
        <time>2024-03-29T06:11:54Z</time>
      </trkpt>
      <trkpt lat="50.02383" lon="4.22982">
        <ele>286</ele>
        <time>2024-03-29T06:11:55Z</time>
      </trkpt>
      <trkpt lat="50.0239" lon="4.22979">
        <ele>285.8</ele>
        <time>2024-03-29T06:11:56Z</time>
      </trkpt>
      <trkpt lat="50.02398" lon="4.22976">
        <ele>285.8</ele>
        <time>2024-03-29T06:11:57Z</time>
      </trkpt>
      <trkpt lat="50.02406" lon="4.22973">
        <ele>285.4</ele>
        <time>2024-03-29T06:11:58Z</time>
      </trkpt>
      <trkpt lat="50.02414" lon="4.22971">
        <ele>285</ele>
        <time>2024-03-29T06:11:59Z</time>
      </trkpt>
      <trkpt lat="50.02423" lon="4.22968">
        <ele>285</ele>
        <time>2024-03-29T06:12:00Z</time>
      </trkpt>
      <trkpt lat="50.02431" lon="4.22965">
        <ele>284.8</ele>
        <time>2024-03-29T06:12:01Z</time>
      </trkpt>
      <trkpt lat="50.02441" lon="4.22961">
        <ele>284.6</ele>
        <time>2024-03-29T06:12:02Z</time>
      </trkpt>
      <trkpt lat="50.02448" lon="4.22959">
        <ele>284.6</ele>
        <time>2024-03-29T06:12:03Z</time>
      </trkpt>
      <trkpt lat="50.02456" lon="4.22955">
        <ele>284.4</ele>
        <time>2024-03-29T06:12:04Z</time>
      </trkpt>
      <trkpt lat="50.02464" lon="4.22953">
        <ele>284.4</ele>
        <time>2024-03-29T06:12:05Z</time>
      </trkpt>
      <trkpt lat="50.02471" lon="4.2295">
        <ele>284</ele>
        <time>2024-03-29T06:12:06Z</time>
      </trkpt>
      <trkpt lat="50.0248" lon="4.22947">
        <ele>283.8</ele>
        <time>2024-03-29T06:12:07Z</time>
      </trkpt>
      <trkpt lat="50.02488" lon="4.22944">
        <ele>283.6</ele>
        <time>2024-03-29T06:12:08Z</time>
      </trkpt>
      <trkpt lat="50.02496" lon="4.22941">
        <ele>283.4</ele>
        <time>2024-03-29T06:12:09Z</time>
      </trkpt>
      <trkpt lat="50.02506" lon="4.22937">
        <ele>283.2</ele>
        <time>2024-03-29T06:12:10Z</time>
      </trkpt>
      <trkpt lat="50.02516" lon="4.22933">
        <ele>283</ele>
        <time>2024-03-29T06:12:11Z</time>
      </trkpt>
      <trkpt lat="50.02525" lon="4.22929">
        <ele>282.6</ele>
        <time>2024-03-29T06:12:12Z</time>
      </trkpt>
      <trkpt lat="50.02533" lon="4.22925">
        <ele>282.6</ele>
        <time>2024-03-29T06:12:13Z</time>
      </trkpt>
      <trkpt lat="50.02541" lon="4.22922">
        <ele>282.4</ele>
        <time>2024-03-29T06:12:14Z</time>
      </trkpt>
      <trkpt lat="50.02549" lon="4.22919">
        <ele>282.4</ele>
        <time>2024-03-29T06:12:15Z</time>
      </trkpt>
      <trkpt lat="50.02558" lon="4.22916">
        <ele>282.2</ele>
        <time>2024-03-29T06:12:16Z</time>
      </trkpt>
      <trkpt lat="50.02566" lon="4.22913">
        <ele>282.2</ele>
        <time>2024-03-29T06:12:17Z</time>
      </trkpt>
      <trkpt lat="50.02575" lon="4.22909">
        <ele>282.2</ele>
        <time>2024-03-29T06:12:18Z</time>
      </trkpt>
      <trkpt lat="50.02584" lon="4.22905">
        <ele>282</ele>
        <time>2024-03-29T06:12:19Z</time>
      </trkpt>
      <trkpt lat="50.02592" lon="4.22901">
        <ele>282</ele>
        <time>2024-03-29T06:12:20Z</time>
      </trkpt>
      <trkpt lat="50.026" lon="4.22898">
        <ele>281.8</ele>
        <time>2024-03-29T06:12:21Z</time>
      </trkpt>
      <trkpt lat="50.02608" lon="4.22895">
        <ele>281.8</ele>
        <time>2024-03-29T06:12:22Z</time>
      </trkpt>
      <trkpt lat="50.02617" lon="4.22892">
        <ele>281.6</ele>
        <time>2024-03-29T06:12:23Z</time>
      </trkpt>
      <trkpt lat="50.02625" lon="4.22888">
        <ele>281.6</ele>
        <time>2024-03-29T06:12:24Z</time>
      </trkpt>
      <trkpt lat="50.02634" lon="4.22885">
        <ele>281.6</ele>
        <time>2024-03-29T06:12:25Z</time>
      </trkpt>
      <trkpt lat="50.02642" lon="4.22883">
        <ele>281.6</ele>
        <time>2024-03-29T06:12:26Z</time>
      </trkpt>
      <trkpt lat="50.02653" lon="4.22879">
        <ele>281.4</ele>
        <time>2024-03-29T06:12:27Z</time>
      </trkpt>
      <trkpt lat="50.02662" lon="4.22877">
        <ele>281.4</ele>
        <time>2024-03-29T06:12:28Z</time>
      </trkpt>
      <trkpt lat="50.0267" lon="4.22873">
        <ele>281</ele>
        <time>2024-03-29T06:12:29Z</time>
      </trkpt>
      <trkpt lat="50.02679" lon="4.2287">
        <ele>280.4</ele>
        <time>2024-03-29T06:12:30Z</time>
      </trkpt>
      <trkpt lat="50.02689" lon="4.22867">
        <ele>280.4</ele>
        <time>2024-03-29T06:12:31Z</time>
      </trkpt>
      <trkpt lat="50.02697" lon="4.22864">
        <ele>280</ele>
        <time>2024-03-29T06:12:32Z</time>
      </trkpt>
      <trkpt lat="50.02706" lon="4.22861">
        <ele>279.6</ele>
        <time>2024-03-29T06:12:33Z</time>
      </trkpt>
      <trkpt lat="50.02714" lon="4.22857">
        <ele>279.4</ele>
        <time>2024-03-29T06:12:34Z</time>
      </trkpt>
      <trkpt lat="50.02723" lon="4.22853">
        <ele>279.2</ele>
        <time>2024-03-29T06:12:35Z</time>
      </trkpt>
      <trkpt lat="50.02732" lon="4.22849">
        <ele>278.8</ele>
        <time>2024-03-29T06:12:36Z</time>
      </trkpt>
      <trkpt lat="50.02741" lon="4.22845">
        <ele>278.4</ele>
        <time>2024-03-29T06:12:37Z</time>
      </trkpt>
      <trkpt lat="50.0275" lon="4.22842">
        <ele>278.2</ele>
        <time>2024-03-29T06:12:38Z</time>
      </trkpt>
      <trkpt lat="50.02759" lon="4.22838">
        <ele>277.6</ele>
        <time>2024-03-29T06:12:39Z</time>
      </trkpt>
      <trkpt lat="50.02768" lon="4.22834">
        <ele>276.8</ele>
        <time>2024-03-29T06:12:40Z</time>
      </trkpt>
      <trkpt lat="50.02779" lon="4.2283">
        <ele>276.4</ele>
        <time>2024-03-29T06:12:41Z</time>
      </trkpt>
      <trkpt lat="50.02789" lon="4.22826">
        <ele>276.4</ele>
        <time>2024-03-29T06:12:42Z</time>
      </trkpt>
      <trkpt lat="50.02798" lon="4.22822">
        <ele>276</ele>
        <time>2024-03-29T06:12:43Z</time>
      </trkpt>
      <trkpt lat="50.02807" lon="4.22819">
        <ele>275.6</ele>
        <time>2024-03-29T06:12:44Z</time>
      </trkpt>
      <trkpt lat="50.02817" lon="4.22815">
        <ele>275</ele>
        <time>2024-03-29T06:12:45Z</time>
      </trkpt>
      <trkpt lat="50.02825" lon="4.22811">
        <ele>274.6</ele>
        <time>2024-03-29T06:12:46Z</time>
      </trkpt>
      <trkpt lat="50.02834" lon="4.22807">
        <ele>274.2</ele>
        <time>2024-03-29T06:12:47Z</time>
      </trkpt>
      <trkpt lat="50.02842" lon="4.22803">
        <ele>273.8</ele>
        <time>2024-03-29T06:12:48Z</time>
      </trkpt>
      <trkpt lat="50.0285" lon="4.228">
        <ele>273.2</ele>
        <time>2024-03-29T06:12:49Z</time>
      </trkpt>
      <trkpt lat="50.02858" lon="4.22796">
        <ele>272.8</ele>
        <time>2024-03-29T06:12:50Z</time>
      </trkpt>
      <trkpt lat="50.02867" lon="4.22792">
        <ele>272.6</ele>
        <time>2024-03-29T06:12:51Z</time>
      </trkpt>
      <trkpt lat="50.02876" lon="4.22789">
        <ele>272.6</ele>
        <time>2024-03-29T06:12:52Z</time>
      </trkpt>
      <trkpt lat="50.02883" lon="4.22786">
        <ele>272.6</ele>
        <time>2024-03-29T06:12:53Z</time>
      </trkpt>
      <trkpt lat="50.0289" lon="4.22783">
        <ele>272.6</ele>
        <time>2024-03-29T06:12:54Z</time>
      </trkpt>
      <trkpt lat="50.02897" lon="4.2278">
        <ele>272.4</ele>
        <time>2024-03-29T06:12:55Z</time>
      </trkpt>
      <trkpt lat="50.02905" lon="4.22777">
        <ele>272.4</ele>
        <time>2024-03-29T06:12:56Z</time>
      </trkpt>
      <trkpt lat="50.02914" lon="4.22774">
        <ele>272.4</ele>
        <time>2024-03-29T06:12:57Z</time>
      </trkpt>
      <trkpt lat="50.0292" lon="4.22771">
        <ele>272.6</ele>
        <time>2024-03-29T06:12:58Z</time>
      </trkpt>
      <trkpt lat="50.02927" lon="4.22769">
        <ele>272.6</ele>
        <time>2024-03-29T06:12:59Z</time>
      </trkpt>
      <trkpt lat="50.02934" lon="4.22765">
        <ele>273</ele>
        <time>2024-03-29T06:13:00Z</time>
      </trkpt>
      <trkpt lat="50.0294" lon="4.22762">
        <ele>273.4</ele>
        <time>2024-03-29T06:13:01Z</time>
      </trkpt>
      <trkpt lat="50.02946" lon="4.22759">
        <ele>273.8</ele>
        <time>2024-03-29T06:13:02Z</time>
      </trkpt>
      <trkpt lat="50.02952" lon="4.22757">
        <ele>274.2</ele>
        <time>2024-03-29T06:13:03Z</time>
      </trkpt>
      <trkpt lat="50.02958" lon="4.22755">
        <ele>274.2</ele>
        <time>2024-03-29T06:13:04Z</time>
      </trkpt>
      <trkpt lat="50.02964" lon="4.22753">
        <ele>274.2</ele>
        <time>2024-03-29T06:13:05Z</time>
      </trkpt>
      <trkpt lat="50.0297" lon="4.22751">
        <ele>274.4</ele>
        <time>2024-03-29T06:13:06Z</time>
      </trkpt>
      <trkpt lat="50.02977" lon="4.22749">
        <ele>274.6</ele>
        <time>2024-03-29T06:13:07Z</time>
      </trkpt>
      <trkpt lat="50.02984" lon="4.22746">
        <ele>274.8</ele>
        <time>2024-03-29T06:13:08Z</time>
      </trkpt>
      <trkpt lat="50.0299" lon="4.22743">
        <ele>275</ele>
        <time>2024-03-29T06:13:09Z</time>
      </trkpt>
      <trkpt lat="50.02998" lon="4.2274">
        <ele>275</ele>
        <time>2024-03-29T06:13:10Z</time>
      </trkpt>
      <trkpt lat="50.03005" lon="4.22738">
        <ele>275.2</ele>
        <time>2024-03-29T06:13:11Z</time>
      </trkpt>
      <trkpt lat="50.03011" lon="4.22735">
        <ele>275.4</ele>
        <time>2024-03-29T06:13:12Z</time>
      </trkpt>
      <trkpt lat="50.03019" lon="4.22732">
        <ele>275.4</ele>
        <time>2024-03-29T06:13:13Z</time>
      </trkpt>
      <trkpt lat="50.03026" lon="4.2273">
        <ele>275.4</ele>
        <time>2024-03-29T06:13:14Z</time>
      </trkpt>
      <trkpt lat="50.03034" lon="4.22727">
        <ele>275.8</ele>
        <time>2024-03-29T06:13:15Z</time>
      </trkpt>
      <trkpt lat="50.03041" lon="4.22725">
        <ele>276.2</ele>
        <time>2024-03-29T06:13:16Z</time>
      </trkpt>
      <trkpt lat="50.03048" lon="4.22723">
        <ele>276.8</ele>
        <time>2024-03-29T06:13:17Z</time>
      </trkpt>
      <trkpt lat="50.03055" lon="4.2272">
        <ele>277.2</ele>
        <time>2024-03-29T06:13:18Z</time>
      </trkpt>
      <trkpt lat="50.03062" lon="4.22717">
        <ele>277.4</ele>
        <time>2024-03-29T06:13:19Z</time>
      </trkpt>
      <trkpt lat="50.03069" lon="4.22715">
        <ele>277.4</ele>
        <time>2024-03-29T06:13:20Z</time>
      </trkpt>
      <trkpt lat="50.03075" lon="4.22712">
        <ele>277.6</ele>
        <time>2024-03-29T06:13:21Z</time>
      </trkpt>
      <trkpt lat="50.03083" lon="4.2271">
        <ele>277.6</ele>
        <time>2024-03-29T06:13:22Z</time>
      </trkpt>
      <trkpt lat="50.0309" lon="4.22707">
        <ele>277.6</ele>
        <time>2024-03-29T06:13:23Z</time>
      </trkpt>
      <trkpt lat="50.03096" lon="4.22704">
        <ele>277.8</ele>
        <time>2024-03-29T06:13:24Z</time>
      </trkpt>
      <trkpt lat="50.03102" lon="4.22701">
        <ele>277.8</ele>
        <time>2024-03-29T06:13:25Z</time>
      </trkpt>
      <trkpt lat="50.03109" lon="4.22699">
        <ele>277.8</ele>
        <time>2024-03-29T06:13:26Z</time>
      </trkpt>
      <trkpt lat="50.03115" lon="4.22696">
        <ele>278</ele>
        <time>2024-03-29T06:13:27Z</time>
      </trkpt>
      <trkpt lat="50.03122" lon="4.22693">
        <ele>278</ele>
        <time>2024-03-29T06:13:28Z</time>
      </trkpt>
      <trkpt lat="50.0313" lon="4.2269">
        <ele>277.8</ele>
        <time>2024-03-29T06:13:29Z</time>
      </trkpt>
      <trkpt lat="50.03137" lon="4.22685">
        <ele>277.8</ele>
        <time>2024-03-29T06:13:30Z</time>
      </trkpt>
      <trkpt lat="50.03145" lon="4.2268">
        <ele>277.6</ele>
        <time>2024-03-29T06:13:31Z</time>
      </trkpt>
      <trkpt lat="50.03152" lon="4.22675">
        <ele>277.6</ele>
        <time>2024-03-29T06:13:32Z</time>
      </trkpt>
      <trkpt lat="50.03159" lon="4.22669">
        <ele>277.4</ele>
        <time>2024-03-29T06:13:33Z</time>
      </trkpt>
      <trkpt lat="50.03166" lon="4.22662">
        <ele>277.4</ele>
        <time>2024-03-29T06:13:34Z</time>
      </trkpt>
      <trkpt lat="50.03172" lon="4.22655">
        <ele>277.2</ele>
        <time>2024-03-29T06:13:35Z</time>
      </trkpt>
      <trkpt lat="50.03179" lon="4.22647">
        <ele>277</ele>
        <time>2024-03-29T06:13:36Z</time>
      </trkpt>
      <trkpt lat="50.03186" lon="4.2264">
        <ele>276.8</ele>
        <time>2024-03-29T06:13:37Z</time>
      </trkpt>
      <trkpt lat="50.03193" lon="4.22632">
        <ele>276.8</ele>
        <time>2024-03-29T06:13:38Z</time>
      </trkpt>
      <trkpt lat="50.032" lon="4.22624">
        <ele>276.8</ele>
        <time>2024-03-29T06:13:39Z</time>
      </trkpt>
      <trkpt lat="50.03207" lon="4.22616">
        <ele>276.8</ele>
        <time>2024-03-29T06:13:40Z</time>
      </trkpt>
      <trkpt lat="50.03214" lon="4.22608">
        <ele>276.6</ele>
        <time>2024-03-29T06:13:41Z</time>
      </trkpt>
      <trkpt lat="50.0322" lon="4.226">
        <ele>276.6</ele>
        <time>2024-03-29T06:13:42Z</time>
      </trkpt>
      <trkpt lat="50.03227" lon="4.22592">
        <ele>276</ele>
        <time>2024-03-29T06:13:43Z</time>
      </trkpt>
      <trkpt lat="50.03234" lon="4.22584">
        <ele>275.8</ele>
        <time>2024-03-29T06:13:44Z</time>
      </trkpt>
      <trkpt lat="50.03241" lon="4.22576">
        <ele>275.6</ele>
        <time>2024-03-29T06:13:45Z</time>
      </trkpt>
      <trkpt lat="50.03248" lon="4.22567">
        <ele>275.2</ele>
        <time>2024-03-29T06:13:46Z</time>
      </trkpt>
      <trkpt lat="50.03255" lon="4.22559">
        <ele>275.2</ele>
        <time>2024-03-29T06:13:47Z</time>
      </trkpt>
      <trkpt lat="50.03262" lon="4.22551">
        <ele>275.2</ele>
        <time>2024-03-29T06:13:48Z</time>
      </trkpt>
      <trkpt lat="50.03269" lon="4.22543">
        <ele>274.8</ele>
        <time>2024-03-29T06:13:49Z</time>
      </trkpt>
      <trkpt lat="50.03276" lon="4.22535">
        <ele>274.2</ele>
        <time>2024-03-29T06:13:50Z</time>
      </trkpt>
      <trkpt lat="50.03284" lon="4.22526">
        <ele>274</ele>
        <time>2024-03-29T06:13:51Z</time>
      </trkpt>
      <trkpt lat="50.03291" lon="4.22517">
        <ele>273.6</ele>
        <time>2024-03-29T06:13:52Z</time>
      </trkpt>
      <trkpt lat="50.03299" lon="4.22508">
        <ele>273.4</ele>
        <time>2024-03-29T06:13:53Z</time>
      </trkpt>
      <trkpt lat="50.03307" lon="4.225">
        <ele>273.4</ele>
        <time>2024-03-29T06:13:54Z</time>
      </trkpt>
      <trkpt lat="50.03316" lon="4.22493">
        <ele>273</ele>
        <time>2024-03-29T06:13:55Z</time>
      </trkpt>
      <trkpt lat="50.03326" lon="4.22489">
        <ele>272.2</ele>
        <time>2024-03-29T06:13:56Z</time>
      </trkpt>
      <trkpt lat="50.03336" lon="4.22487">
        <ele>271.6</ele>
        <time>2024-03-29T06:13:57Z</time>
      </trkpt>
      <trkpt lat="50.03346" lon="4.22486">
        <ele>270.8</ele>
        <time>2024-03-29T06:13:58Z</time>
      </trkpt>
      <trkpt lat="50.03357" lon="4.22486">
        <ele>270.2</ele>
        <time>2024-03-29T06:13:59Z</time>
      </trkpt>
      <trkpt lat="50.03367" lon="4.22486">
        <ele>269.4</ele>
        <time>2024-03-29T06:14:00Z</time>
      </trkpt>
      <trkpt lat="50.03378" lon="4.22486">
        <ele>268.8</ele>
        <time>2024-03-29T06:14:01Z</time>
      </trkpt>
      <trkpt lat="50.03389" lon="4.22486">
        <ele>268.2</ele>
        <time>2024-03-29T06:14:02Z</time>
      </trkpt>
      <trkpt lat="50.03399" lon="4.22487">
        <ele>267.8</ele>
        <time>2024-03-29T06:14:03Z</time>
      </trkpt>
      <trkpt lat="50.0341" lon="4.22487">
        <ele>267.2</ele>
        <time>2024-03-29T06:14:04Z</time>
      </trkpt>
      <trkpt lat="50.03421" lon="4.22487">
        <ele>266.4</ele>
        <time>2024-03-29T06:14:05Z</time>
      </trkpt>
      <trkpt lat="50.03431" lon="4.22487">
        <ele>265.4</ele>
        <time>2024-03-29T06:14:06Z</time>
      </trkpt>
      <trkpt lat="50.03442" lon="4.22486">
        <ele>264.8</ele>
        <time>2024-03-29T06:14:07Z</time>
      </trkpt>
      <trkpt lat="50.03453" lon="4.22485">
        <ele>264.6</ele>
        <time>2024-03-29T06:14:08Z</time>
      </trkpt>
      <trkpt lat="50.03464" lon="4.22484">
        <ele>264.4</ele>
        <time>2024-03-29T06:14:09Z</time>
      </trkpt>
      <trkpt lat="50.03474" lon="4.22481">
        <ele>264.4</ele>
        <time>2024-03-29T06:14:10Z</time>
      </trkpt>
      <trkpt lat="50.03485" lon="4.22477">
        <ele>264.4</ele>
        <time>2024-03-29T06:14:11Z</time>
      </trkpt>
      <trkpt lat="50.03494" lon="4.22471">
        <ele>264.4</ele>
        <time>2024-03-29T06:14:12Z</time>
      </trkpt>
      <trkpt lat="50.03504" lon="4.22464">
        <ele>264</ele>
        <time>2024-03-29T06:14:13Z</time>
      </trkpt>
      <trkpt lat="50.03512" lon="4.22455">
        <ele>263.4</ele>
        <time>2024-03-29T06:14:14Z</time>
      </trkpt>
      <trkpt lat="50.03519" lon="4.22445">
        <ele>262.6</ele>
        <time>2024-03-29T06:14:15Z</time>
      </trkpt>
      <trkpt lat="50.03526" lon="4.22433">
        <ele>262.2</ele>
        <time>2024-03-29T06:14:16Z</time>
      </trkpt>
      <trkpt lat="50.03532" lon="4.22422">
        <ele>261.8</ele>
        <time>2024-03-29T06:14:17Z</time>
      </trkpt>
      <trkpt lat="50.03539" lon="4.22411">
        <ele>261.4</ele>
        <time>2024-03-29T06:14:18Z</time>
      </trkpt>
      <trkpt lat="50.03546" lon="4.22402">
        <ele>260.8</ele>
        <time>2024-03-29T06:14:19Z</time>
      </trkpt>
      <trkpt lat="50.03552" lon="4.22394">
        <ele>260.2</ele>
        <time>2024-03-29T06:14:20Z</time>
      </trkpt>
      <trkpt lat="50.03559" lon="4.22388">
        <ele>259.6</ele>
        <time>2024-03-29T06:14:21Z</time>
      </trkpt>
      <trkpt lat="50.03567" lon="4.22385">
        <ele>258.8</ele>
        <time>2024-03-29T06:14:22Z</time>
      </trkpt>
      <trkpt lat="50.03574" lon="4.22385">
        <ele>258.4</ele>
        <time>2024-03-29T06:14:23Z</time>
      </trkpt>
      <trkpt lat="50.03582" lon="4.22389">
        <ele>257.2</ele>
        <time>2024-03-29T06:14:24Z</time>
      </trkpt>
      <trkpt lat="50.0359" lon="4.22394">
        <ele>255.6</ele>
        <time>2024-03-29T06:14:25Z</time>
      </trkpt>
      <trkpt lat="50.03597" lon="4.22401">
        <ele>254.8</ele>
        <time>2024-03-29T06:14:26Z</time>
      </trkpt>
      <trkpt lat="50.03603" lon="4.22409">
        <ele>254.2</ele>
        <time>2024-03-29T06:14:27Z</time>
      </trkpt>
      <trkpt lat="50.0361" lon="4.22416">
        <ele>254</ele>
        <time>2024-03-29T06:14:28Z</time>
      </trkpt>
      <trkpt lat="50.03618" lon="4.22421">
        <ele>253.6</ele>
        <time>2024-03-29T06:14:29Z</time>
      </trkpt>
      <trkpt lat="50.03626" lon="4.22423">
        <ele>253.4</ele>
        <time>2024-03-29T06:14:30Z</time>
      </trkpt>
      <trkpt lat="50.03634" lon="4.22424">
        <ele>253.4</ele>
        <time>2024-03-29T06:14:31Z</time>
      </trkpt>
      <trkpt lat="50.03641" lon="4.2242">
        <ele>253.4</ele>
        <time>2024-03-29T06:14:32Z</time>
      </trkpt>
      <trkpt lat="50.03647" lon="4.22414">
        <ele>252.6</ele>
        <time>2024-03-29T06:14:33Z</time>
      </trkpt>
      <trkpt lat="50.03653" lon="4.22406">
        <ele>252.2</ele>
        <time>2024-03-29T06:14:34Z</time>
      </trkpt>
      <trkpt lat="50.03659" lon="4.22398">
        <ele>251.8</ele>
        <time>2024-03-29T06:14:35Z</time>
      </trkpt>
      <trkpt lat="50.03665" lon="4.22389">
        <ele>251.8</ele>
        <time>2024-03-29T06:14:36Z</time>
      </trkpt>
      <trkpt lat="50.03671" lon="4.22381">
        <ele>251.4</ele>
        <time>2024-03-29T06:14:37Z</time>
      </trkpt>
      <trkpt lat="50.03678" lon="4.22372">
        <ele>251.2</ele>
        <time>2024-03-29T06:14:38Z</time>
      </trkpt>
      <trkpt lat="50.03685" lon="4.22364">
        <ele>251</ele>
        <time>2024-03-29T06:14:39Z</time>
      </trkpt>
      <trkpt lat="50.03691" lon="4.22357">
        <ele>251</ele>
        <time>2024-03-29T06:14:40Z</time>
      </trkpt>
      <trkpt lat="50.03699" lon="4.22349">
        <ele>250.6</ele>
        <time>2024-03-29T06:14:41Z</time>
      </trkpt>
      <trkpt lat="50.03706" lon="4.22343">
        <ele>250.6</ele>
        <time>2024-03-29T06:14:42Z</time>
      </trkpt>
      <trkpt lat="50.03714" lon="4.22336">
        <ele>250.8</ele>
        <time>2024-03-29T06:14:43Z</time>
      </trkpt>
      <trkpt lat="50.03722" lon="4.22331">
        <ele>250.6</ele>
        <time>2024-03-29T06:14:44Z</time>
      </trkpt>
      <trkpt lat="50.0373" lon="4.22326">
        <ele>250.6</ele>
        <time>2024-03-29T06:14:45Z</time>
      </trkpt>
      <trkpt lat="50.03738" lon="4.22321">
        <ele>250.6</ele>
        <time>2024-03-29T06:14:46Z</time>
      </trkpt>
      <trkpt lat="50.03746" lon="4.22316">
        <ele>250.6</ele>
        <time>2024-03-29T06:14:47Z</time>
      </trkpt>
      <trkpt lat="50.03754" lon="4.22312">
        <ele>250.6</ele>
        <time>2024-03-29T06:14:48Z</time>
      </trkpt>
      <trkpt lat="50.03762" lon="4.22306">
        <ele>250.4</ele>
        <time>2024-03-29T06:14:49Z</time>
      </trkpt>
      <trkpt lat="50.03768" lon="4.223">
        <ele>250.2</ele>
        <time>2024-03-29T06:14:50Z</time>
      </trkpt>
      <trkpt lat="50.03774" lon="4.22292">
        <ele>250.4</ele>
        <time>2024-03-29T06:14:51Z</time>
      </trkpt>
      <trkpt lat="50.03779" lon="4.22284">
        <ele>250.4</ele>
        <time>2024-03-29T06:14:52Z</time>
      </trkpt>
      <trkpt lat="50.03783" lon="4.22274">
        <ele>250.4</ele>
        <time>2024-03-29T06:14:53Z</time>
      </trkpt>
      <trkpt lat="50.03786" lon="4.22265">
        <ele>250.4</ele>
        <time>2024-03-29T06:14:54Z</time>
      </trkpt>
      <trkpt lat="50.03788" lon="4.22255">
        <ele>250.4</ele>
        <time>2024-03-29T06:14:55Z</time>
      </trkpt>
      <trkpt lat="50.03789" lon="4.22245">
        <ele>250.4</ele>
        <time>2024-03-29T06:14:56Z</time>
      </trkpt>
      <trkpt lat="50.0379" lon="4.22236">
        <ele>250.6</ele>
        <time>2024-03-29T06:14:57Z</time>
      </trkpt>
      <trkpt lat="50.03791" lon="4.22226">
        <ele>250.4</ele>
        <time>2024-03-29T06:14:58Z</time>
      </trkpt>
      <trkpt lat="50.03793" lon="4.22217">
        <ele>250.6</ele>
        <time>2024-03-29T06:14:59Z</time>
      </trkpt>
      <trkpt lat="50.03794" lon="4.22208">
        <ele>250.6</ele>
        <time>2024-03-29T06:15:00Z</time>
      </trkpt>
      <trkpt lat="50.03795" lon="4.222">
        <ele>250.8</ele>
        <time>2024-03-29T06:15:01Z</time>
      </trkpt>
      <trkpt lat="50.03797" lon="4.22191">
        <ele>251.2</ele>
        <time>2024-03-29T06:15:02Z</time>
      </trkpt>
      <trkpt lat="50.03799" lon="4.22183">
        <ele>251.4</ele>
        <time>2024-03-29T06:15:03Z</time>
      </trkpt>
      <trkpt lat="50.03801" lon="4.22175">
        <ele>251.6</ele>
        <time>2024-03-29T06:15:04Z</time>
      </trkpt>
      <trkpt lat="50.03804" lon="4.22167">
        <ele>252.4</ele>
        <time>2024-03-29T06:15:05Z</time>
      </trkpt>
      <trkpt lat="50.03806" lon="4.2216">
        <ele>252.6</ele>
        <time>2024-03-29T06:15:06Z</time>
      </trkpt>
      <trkpt lat="50.03808" lon="4.22152">
        <ele>252.8</ele>
        <time>2024-03-29T06:15:07Z</time>
      </trkpt>
      <trkpt lat="50.0381" lon="4.22145">
        <ele>253.2</ele>
        <time>2024-03-29T06:15:08Z</time>
      </trkpt>
      <trkpt lat="50.03813" lon="4.22137">
        <ele>253.6</ele>
        <time>2024-03-29T06:15:09Z</time>
      </trkpt>
      <trkpt lat="50.03815" lon="4.22129">
        <ele>254</ele>
        <time>2024-03-29T06:15:10Z</time>
      </trkpt>
      <trkpt lat="50.03817" lon="4.22121">
        <ele>254.4</ele>
        <time>2024-03-29T06:15:11Z</time>
      </trkpt>
      <trkpt lat="50.03819" lon="4.22113">
        <ele>255.2</ele>
        <time>2024-03-29T06:15:12Z</time>
      </trkpt>
      <trkpt lat="50.03821" lon="4.22105">
        <ele>255.6</ele>
        <time>2024-03-29T06:15:13Z</time>
      </trkpt>
      <trkpt lat="50.03823" lon="4.22097">
        <ele>255.6</ele>
        <time>2024-03-29T06:15:14Z</time>
      </trkpt>
      <trkpt lat="50.03824" lon="4.22088">
        <ele>256.2</ele>
        <time>2024-03-29T06:15:15Z</time>
      </trkpt>
      <trkpt lat="50.03826" lon="4.22079">
        <ele>257</ele>
        <time>2024-03-29T06:15:16Z</time>
      </trkpt>
      <trkpt lat="50.03827" lon="4.2207">
        <ele>257.4</ele>
        <time>2024-03-29T06:15:17Z</time>
      </trkpt>
      <trkpt lat="50.03829" lon="4.22061">
        <ele>257.8</ele>
        <time>2024-03-29T06:15:18Z</time>
      </trkpt>
      <trkpt lat="50.0383" lon="4.22053">
        <ele>258</ele>
        <time>2024-03-29T06:15:19Z</time>
      </trkpt>
      <trkpt lat="50.03832" lon="4.22044">
        <ele>258.8</ele>
        <time>2024-03-29T06:15:20Z</time>
      </trkpt>
      <trkpt lat="50.03833" lon="4.22036">
        <ele>259.2</ele>
        <time>2024-03-29T06:15:21Z</time>
      </trkpt>
      <trkpt lat="50.03834" lon="4.22027">
        <ele>259.6</ele>
        <time>2024-03-29T06:15:22Z</time>
      </trkpt>
      <trkpt lat="50.03836" lon="4.22019">
        <ele>260</ele>
        <time>2024-03-29T06:15:23Z</time>
      </trkpt>
      <trkpt lat="50.03837" lon="4.22011">
        <ele>260</ele>
        <time>2024-03-29T06:15:24Z</time>
      </trkpt>
      <trkpt lat="50.03838" lon="4.22003">
        <ele>260.6</ele>
        <time>2024-03-29T06:15:25Z</time>
      </trkpt>
      <trkpt lat="50.0384" lon="4.21995">
        <ele>260.8</ele>
        <time>2024-03-29T06:15:26Z</time>
      </trkpt>
      <trkpt lat="50.03841" lon="4.21986">
        <ele>261</ele>
        <time>2024-03-29T06:15:27Z</time>
      </trkpt>
      <trkpt lat="50.03842" lon="4.21979">
        <ele>261.2</ele>
        <time>2024-03-29T06:15:28Z</time>
      </trkpt>
      <trkpt lat="50.03844" lon="4.2197">
        <ele>261.2</ele>
        <time>2024-03-29T06:15:29Z</time>
      </trkpt>
      <trkpt lat="50.03845" lon="4.21962">
        <ele>261.2</ele>
        <time>2024-03-29T06:15:30Z</time>
      </trkpt>
      <trkpt lat="50.03847" lon="4.21954">
        <ele>261.8</ele>
        <time>2024-03-29T06:15:31Z</time>
      </trkpt>
      <trkpt lat="50.03848" lon="4.21945">
        <ele>261.8</ele>
        <time>2024-03-29T06:15:32Z</time>
      </trkpt>
      <trkpt lat="50.0385" lon="4.21936">
        <ele>262.4</ele>
        <time>2024-03-29T06:15:33Z</time>
      </trkpt>
      <trkpt lat="50.03851" lon="4.21927">
        <ele>262.6</ele>
        <time>2024-03-29T06:15:34Z</time>
      </trkpt>
      <trkpt lat="50.03853" lon="4.21918">
        <ele>262.8</ele>
        <time>2024-03-29T06:15:35Z</time>
      </trkpt>
      <trkpt lat="50.03854" lon="4.21909">
        <ele>262.8</ele>
        <time>2024-03-29T06:15:36Z</time>
      </trkpt>
      <trkpt lat="50.03856" lon="4.219">
        <ele>263.2</ele>
        <time>2024-03-29T06:15:37Z</time>
      </trkpt>
      <trkpt lat="50.03857" lon="4.21891">
        <ele>263.4</ele>
        <time>2024-03-29T06:15:38Z</time>
      </trkpt>
      <trkpt lat="50.03859" lon="4.21881">
        <ele>263.4</ele>
        <time>2024-03-29T06:15:39Z</time>
      </trkpt>
      <trkpt lat="50.0386" lon="4.21872">
        <ele>263.4</ele>
        <time>2024-03-29T06:15:40Z</time>
      </trkpt>
      <trkpt lat="50.03862" lon="4.21862">
        <ele>263.6</ele>
        <time>2024-03-29T06:15:41Z</time>
      </trkpt>
      <trkpt lat="50.03864" lon="4.21852">
        <ele>263.4</ele>
        <time>2024-03-29T06:15:42Z</time>
      </trkpt>
      <trkpt lat="50.03866" lon="4.21841">
        <ele>263.6</ele>
        <time>2024-03-29T06:15:43Z</time>
      </trkpt>
      <trkpt lat="50.03868" lon="4.21831">
        <ele>263.6</ele>
        <time>2024-03-29T06:15:44Z</time>
      </trkpt>
      <trkpt lat="50.0387" lon="4.2182">
        <ele>263.6</ele>
        <time>2024-03-29T06:15:45Z</time>
      </trkpt>
      <trkpt lat="50.03873" lon="4.2181">
        <ele>263.8</ele>
        <time>2024-03-29T06:15:46Z</time>
      </trkpt>
      <trkpt lat="50.03875" lon="4.21799">
        <ele>263.6</ele>
        <time>2024-03-29T06:15:47Z</time>
      </trkpt>
      <trkpt lat="50.03878" lon="4.21789">
        <ele>263.8</ele>
        <time>2024-03-29T06:15:48Z</time>
      </trkpt>
      <trkpt lat="50.03882" lon="4.21778">
        <ele>263.8</ele>
        <time>2024-03-29T06:15:49Z</time>
      </trkpt>
      <trkpt lat="50.03886" lon="4.21769">
        <ele>263.6</ele>
        <time>2024-03-29T06:15:50Z</time>
      </trkpt>
      <trkpt lat="50.0389" lon="4.21759">
        <ele>263.6</ele>
        <time>2024-03-29T06:15:51Z</time>
      </trkpt>
      <trkpt lat="50.03895" lon="4.2175">
        <ele>263.6</ele>
        <time>2024-03-29T06:15:52Z</time>
      </trkpt>
      <trkpt lat="50.03899" lon="4.21741">
        <ele>263.6</ele>
        <time>2024-03-29T06:15:53Z</time>
      </trkpt>
      <trkpt lat="50.03904" lon="4.21732">
        <ele>263.6</ele>
        <time>2024-03-29T06:15:54Z</time>
      </trkpt>
      <trkpt lat="50.03909" lon="4.21724">
        <ele>263.6</ele>
        <time>2024-03-29T06:15:55Z</time>
      </trkpt>
      <trkpt lat="50.03914" lon="4.21715">
        <ele>263.6</ele>
        <time>2024-03-29T06:15:56Z</time>
      </trkpt>
      <trkpt lat="50.03919" lon="4.21706">
        <ele>263.4</ele>
        <time>2024-03-29T06:15:57Z</time>
      </trkpt>
      <trkpt lat="50.03924" lon="4.21697">
        <ele>263.4</ele>
        <time>2024-03-29T06:15:58Z</time>
      </trkpt>
      <trkpt lat="50.03929" lon="4.21689">
        <ele>263.6</ele>
        <time>2024-03-29T06:15:59Z</time>
      </trkpt>
      <trkpt lat="50.03935" lon="4.21681">
        <ele>263.4</ele>
        <time>2024-03-29T06:16:00Z</time>
      </trkpt>
      <trkpt lat="50.03941" lon="4.21673">
        <ele>263.2</ele>
        <time>2024-03-29T06:16:01Z</time>
      </trkpt>
      <trkpt lat="50.03947" lon="4.21666">
        <ele>263.2</ele>
        <time>2024-03-29T06:16:02Z</time>
      </trkpt>
      <trkpt lat="50.03954" lon="4.2166">
        <ele>263.2</ele>
        <time>2024-03-29T06:16:03Z</time>
      </trkpt>
      <trkpt lat="50.03961" lon="4.21656">
        <ele>263</ele>
        <time>2024-03-29T06:16:04Z</time>
      </trkpt>
      <trkpt lat="50.03968" lon="4.21653">
        <ele>262.8</ele>
        <time>2024-03-29T06:16:05Z</time>
      </trkpt>
      <trkpt lat="50.03976" lon="4.21651">
        <ele>262.8</ele>
        <time>2024-03-29T06:16:06Z</time>
      </trkpt>
      <trkpt lat="50.03984" lon="4.2165">
        <ele>262.8</ele>
        <time>2024-03-29T06:16:07Z</time>
      </trkpt>
      <trkpt lat="50.03991" lon="4.2165">
        <ele>262.6</ele>
        <time>2024-03-29T06:16:08Z</time>
      </trkpt>
      <trkpt lat="50.03999" lon="4.2165">
        <ele>262.6</ele>
        <time>2024-03-29T06:16:09Z</time>
      </trkpt>
      <trkpt lat="50.04007" lon="4.21649">
        <ele>262.4</ele>
        <time>2024-03-29T06:16:10Z</time>
      </trkpt>
      <trkpt lat="50.04015" lon="4.21646">
        <ele>262.6</ele>
        <time>2024-03-29T06:16:11Z</time>
      </trkpt>
      <trkpt lat="50.04023" lon="4.21642">
        <ele>262.6</ele>
        <time>2024-03-29T06:16:12Z</time>
      </trkpt>
      <trkpt lat="50.0403" lon="4.21635">
        <ele>262.4</ele>
        <time>2024-03-29T06:16:13Z</time>
      </trkpt>
      <trkpt lat="50.04036" lon="4.21627">
        <ele>262.4</ele>
        <time>2024-03-29T06:16:14Z</time>
      </trkpt>
      <trkpt lat="50.04042" lon="4.21618">
        <ele>262.4</ele>
        <time>2024-03-29T06:16:15Z</time>
      </trkpt>
      <trkpt lat="50.04048" lon="4.21608">
        <ele>262.4</ele>
        <time>2024-03-29T06:16:16Z</time>
      </trkpt>
      <trkpt lat="50.04053" lon="4.21598">
        <ele>262.2</ele>
        <time>2024-03-29T06:16:17Z</time>
      </trkpt>
      <trkpt lat="50.04059" lon="4.21589">
        <ele>262.2</ele>
        <time>2024-03-29T06:16:18Z</time>
      </trkpt>
      <trkpt lat="50.04065" lon="4.2158">
        <ele>262.2</ele>
        <time>2024-03-29T06:16:19Z</time>
      </trkpt>
      <trkpt lat="50.04072" lon="4.21572">
        <ele>262.2</ele>
        <time>2024-03-29T06:16:20Z</time>
      </trkpt>
      <trkpt lat="50.04079" lon="4.21566">
        <ele>262</ele>
        <time>2024-03-29T06:16:21Z</time>
      </trkpt>
      <trkpt lat="50.04086" lon="4.21561">
        <ele>262</ele>
        <time>2024-03-29T06:16:22Z</time>
      </trkpt>
      <trkpt lat="50.04094" lon="4.21558">
        <ele>262</ele>
        <time>2024-03-29T06:16:23Z</time>
      </trkpt>
      <trkpt lat="50.04103" lon="4.21556">
        <ele>261.6</ele>
        <time>2024-03-29T06:16:24Z</time>
      </trkpt>
      <trkpt lat="50.04112" lon="4.21555">
        <ele>261.2</ele>
        <time>2024-03-29T06:16:25Z</time>
      </trkpt>
      <trkpt lat="50.04121" lon="4.21555">
        <ele>261</ele>
        <time>2024-03-29T06:16:26Z</time>
      </trkpt>
      <trkpt lat="50.04131" lon="4.21554">
        <ele>260.8</ele>
        <time>2024-03-29T06:16:27Z</time>
      </trkpt>
      <trkpt lat="50.04141" lon="4.21554">
        <ele>260.2</ele>
        <time>2024-03-29T06:16:28Z</time>
      </trkpt>
      <trkpt lat="50.04151" lon="4.21554">
        <ele>259.6</ele>
        <time>2024-03-29T06:16:29Z</time>
      </trkpt>
      <trkpt lat="50.04162" lon="4.21554">
        <ele>259.4</ele>
        <time>2024-03-29T06:16:30Z</time>
      </trkpt>
      <trkpt lat="50.04174" lon="4.21554">
        <ele>259.2</ele>
        <time>2024-03-29T06:16:31Z</time>
      </trkpt>
      <trkpt lat="50.04185" lon="4.21554">
        <ele>258.8</ele>
        <time>2024-03-29T06:16:32Z</time>
      </trkpt>
      <trkpt lat="50.04197" lon="4.21554">
        <ele>258.4</ele>
        <time>2024-03-29T06:16:33Z</time>
      </trkpt>
      <trkpt lat="50.0421" lon="4.21555">
        <ele>257.8</ele>
        <time>2024-03-29T06:16:34Z</time>
      </trkpt>
      <trkpt lat="50.04222" lon="4.21555">
        <ele>257.2</ele>
        <time>2024-03-29T06:16:35Z</time>
      </trkpt>
      <trkpt lat="50.04235" lon="4.21556">
        <ele>255.8</ele>
        <time>2024-03-29T06:16:36Z</time>
      </trkpt>
      <trkpt lat="50.04248" lon="4.21557">
        <ele>254.2</ele>
        <time>2024-03-29T06:16:37Z</time>
      </trkpt>
      <trkpt lat="50.04261" lon="4.21557">
        <ele>253</ele>
        <time>2024-03-29T06:16:38Z</time>
      </trkpt>
      <trkpt lat="50.04273" lon="4.21557">
        <ele>252</ele>
        <time>2024-03-29T06:16:39Z</time>
      </trkpt>
      <trkpt lat="50.04285" lon="4.21556">
        <ele>251.2</ele>
        <time>2024-03-29T06:16:40Z</time>
      </trkpt>
      <trkpt lat="50.04297" lon="4.21553">
        <ele>250.8</ele>
        <time>2024-03-29T06:16:41Z</time>
      </trkpt>
      <trkpt lat="50.04308" lon="4.21547">
        <ele>250.8</ele>
        <time>2024-03-29T06:16:42Z</time>
      </trkpt>
      <trkpt lat="50.04319" lon="4.21538">
        <ele>250</ele>
        <time>2024-03-29T06:16:43Z</time>
      </trkpt>
      <trkpt lat="50.04329" lon="4.21527">
        <ele>249.2</ele>
        <time>2024-03-29T06:16:44Z</time>
      </trkpt>
      <trkpt lat="50.04338" lon="4.21513">
        <ele>248.4</ele>
        <time>2024-03-29T06:16:45Z</time>
      </trkpt>
      <trkpt lat="50.04346" lon="4.21499">
        <ele>247</ele>
        <time>2024-03-29T06:16:46Z</time>
      </trkpt>
      <trkpt lat="50.04355" lon="4.21483">
        <ele>245.8</ele>
        <time>2024-03-29T06:16:47Z</time>
      </trkpt>
      <trkpt lat="50.04363" lon="4.21468">
        <ele>245</ele>
        <time>2024-03-29T06:16:48Z</time>
      </trkpt>
      <trkpt lat="50.04372" lon="4.21451">
        <ele>244</ele>
        <time>2024-03-29T06:16:49Z</time>
      </trkpt>
      <trkpt lat="50.04381" lon="4.21435">
        <ele>243.2</ele>
        <time>2024-03-29T06:16:50Z</time>
      </trkpt>
      <trkpt lat="50.04389" lon="4.21417">
        <ele>242</ele>
        <time>2024-03-29T06:16:51Z</time>
      </trkpt>
      <trkpt lat="50.04396" lon="4.21399">
        <ele>241</ele>
        <time>2024-03-29T06:16:52Z</time>
      </trkpt>
      <trkpt lat="50.04403" lon="4.21381">
        <ele>239.4</ele>
        <time>2024-03-29T06:16:53Z</time>
      </trkpt>
      <trkpt lat="50.0441" lon="4.21362">
        <ele>237.6</ele>
        <time>2024-03-29T06:16:54Z</time>
      </trkpt>
      <trkpt lat="50.04417" lon="4.21343">
        <ele>236.8</ele>
        <time>2024-03-29T06:16:55Z</time>
      </trkpt>
      <trkpt lat="50.04424" lon="4.21325">
        <ele>236.4</ele>
        <time>2024-03-29T06:16:56Z</time>
      </trkpt>
      <trkpt lat="50.04432" lon="4.21308">
        <ele>235</ele>
        <time>2024-03-29T06:16:57Z</time>
      </trkpt>
      <trkpt lat="50.04439" lon="4.21292">
        <ele>233.8</ele>
        <time>2024-03-29T06:16:58Z</time>
      </trkpt>
      <trkpt lat="50.04446" lon="4.21276">
        <ele>233</ele>
        <time>2024-03-29T06:16:59Z</time>
      </trkpt>
      <trkpt lat="50.04454" lon="4.21261">
        <ele>232.2</ele>
        <time>2024-03-29T06:17:00Z</time>
      </trkpt>
      <trkpt lat="50.04462" lon="4.21246">
        <ele>230.6</ele>
        <time>2024-03-29T06:17:01Z</time>
      </trkpt>
      <trkpt lat="50.0447" lon="4.21232">
        <ele>228.6</ele>
        <time>2024-03-29T06:17:02Z</time>
      </trkpt>
      <trkpt lat="50.04479" lon="4.21219">
        <ele>227.2</ele>
        <time>2024-03-29T06:17:03Z</time>
      </trkpt>
      <trkpt lat="50.04487" lon="4.21207">
        <ele>227.2</ele>
        <time>2024-03-29T06:17:04Z</time>
      </trkpt>
      <trkpt lat="50.04496" lon="4.21196">
        <ele>226.4</ele>
        <time>2024-03-29T06:17:05Z</time>
      </trkpt>
      <trkpt lat="50.04505" lon="4.21185">
        <ele>226</ele>
        <time>2024-03-29T06:17:06Z</time>
      </trkpt>
      <trkpt lat="50.04514" lon="4.21174">
        <ele>225.6</ele>
        <time>2024-03-29T06:17:07Z</time>
      </trkpt>
      <trkpt lat="50.04522" lon="4.21165">
        <ele>225.4</ele>
        <time>2024-03-29T06:17:08Z</time>
      </trkpt>
      <trkpt lat="50.04531" lon="4.21156">
        <ele>225.2</ele>
        <time>2024-03-29T06:17:09Z</time>
      </trkpt>
      <trkpt lat="50.0454" lon="4.21148">
        <ele>225</ele>
        <time>2024-03-29T06:17:10Z</time>
      </trkpt>
      <trkpt lat="50.04549" lon="4.21141">
        <ele>224.8</ele>
        <time>2024-03-29T06:17:11Z</time>
      </trkpt>
      <trkpt lat="50.04557" lon="4.21134">
        <ele>224.6</ele>
        <time>2024-03-29T06:17:12Z</time>
      </trkpt>
      <trkpt lat="50.04566" lon="4.21128">
        <ele>224.6</ele>
        <time>2024-03-29T06:17:13Z</time>
      </trkpt>
      <trkpt lat="50.04575" lon="4.21122">
        <ele>224.2</ele>
        <time>2024-03-29T06:17:14Z</time>
      </trkpt>
      <trkpt lat="50.04585" lon="4.21118">
        <ele>223.8</ele>
        <time>2024-03-29T06:17:15Z</time>
      </trkpt>
      <trkpt lat="50.04594" lon="4.21115">
        <ele>223.6</ele>
        <time>2024-03-29T06:17:16Z</time>
      </trkpt>
      <trkpt lat="50.04602" lon="4.21111">
        <ele>223.4</ele>
        <time>2024-03-29T06:17:17Z</time>
      </trkpt>
      <trkpt lat="50.04611" lon="4.21107">
        <ele>223.2</ele>
        <time>2024-03-29T06:17:18Z</time>
      </trkpt>
      <trkpt lat="50.0462" lon="4.21104">
        <ele>223.2</ele>
        <time>2024-03-29T06:17:19Z</time>
      </trkpt>
      <trkpt lat="50.04628" lon="4.211">
        <ele>223.2</ele>
        <time>2024-03-29T06:17:20Z</time>
      </trkpt>
      <trkpt lat="50.04636" lon="4.21097">
        <ele>223.2</ele>
        <time>2024-03-29T06:17:21Z</time>
      </trkpt>
      <trkpt lat="50.04645" lon="4.21093">
        <ele>223</ele>
        <time>2024-03-29T06:17:22Z</time>
      </trkpt>
      <trkpt lat="50.04653" lon="4.2109">
        <ele>223.2</ele>
        <time>2024-03-29T06:17:23Z</time>
      </trkpt>
      <trkpt lat="50.04661" lon="4.21086">
        <ele>223</ele>
        <time>2024-03-29T06:17:24Z</time>
      </trkpt>
      <trkpt lat="50.04669" lon="4.21083">
        <ele>223</ele>
        <time>2024-03-29T06:17:25Z</time>
      </trkpt>
      <trkpt lat="50.04677" lon="4.2108">
        <ele>223</ele>
        <time>2024-03-29T06:17:26Z</time>
      </trkpt>
      <trkpt lat="50.04685" lon="4.21076">
        <ele>222.8</ele>
        <time>2024-03-29T06:17:27Z</time>
      </trkpt>
      <trkpt lat="50.04693" lon="4.21073">
        <ele>222.6</ele>
        <time>2024-03-29T06:17:28Z</time>
      </trkpt>
      <trkpt lat="50.04702" lon="4.2107">
        <ele>222.6</ele>
        <time>2024-03-29T06:17:29Z</time>
      </trkpt>
      <trkpt lat="50.0471" lon="4.21067">
        <ele>222.4</ele>
        <time>2024-03-29T06:17:30Z</time>
      </trkpt>
      <trkpt lat="50.04718" lon="4.21064">
        <ele>222.4</ele>
        <time>2024-03-29T06:17:31Z</time>
      </trkpt>
      <trkpt lat="50.04726" lon="4.2106">
        <ele>222.4</ele>
        <time>2024-03-29T06:17:32Z</time>
      </trkpt>
      <trkpt lat="50.04735" lon="4.21057">
        <ele>222.2</ele>
        <time>2024-03-29T06:17:33Z</time>
      </trkpt>
      <trkpt lat="50.04743" lon="4.21053">
        <ele>222.2</ele>
        <time>2024-03-29T06:17:34Z</time>
      </trkpt>
      <trkpt lat="50.04751" lon="4.21049">
        <ele>222</ele>
        <time>2024-03-29T06:17:35Z</time>
      </trkpt>
      <trkpt lat="50.04759" lon="4.21045">
        <ele>221.8</ele>
        <time>2024-03-29T06:17:36Z</time>
      </trkpt>
      <trkpt lat="50.04767" lon="4.21041">
        <ele>221.6</ele>
        <time>2024-03-29T06:17:37Z</time>
      </trkpt>
      <trkpt lat="50.04775" lon="4.21036">
        <ele>221.4</ele>
        <time>2024-03-29T06:17:38Z</time>
      </trkpt>
      <trkpt lat="50.04783" lon="4.2103">
        <ele>221.2</ele>
        <time>2024-03-29T06:17:39Z</time>
      </trkpt>
      <trkpt lat="50.0479" lon="4.21024">
        <ele>221.2</ele>
        <time>2024-03-29T06:17:40Z</time>
      </trkpt>
      <trkpt lat="50.04797" lon="4.21018">
        <ele>221</ele>
        <time>2024-03-29T06:17:41Z</time>
      </trkpt>
      <trkpt lat="50.04805" lon="4.21012">
        <ele>221</ele>
        <time>2024-03-29T06:17:42Z</time>
      </trkpt>
      <trkpt lat="50.04812" lon="4.21005">
        <ele>221</ele>
        <time>2024-03-29T06:17:43Z</time>
      </trkpt>
      <trkpt lat="50.04819" lon="4.20998">
        <ele>221</ele>
        <time>2024-03-29T06:17:44Z</time>
      </trkpt>
      <trkpt lat="50.04826" lon="4.2099">
        <ele>220.8</ele>
        <time>2024-03-29T06:17:45Z</time>
      </trkpt>
      <trkpt lat="50.04833" lon="4.20983">
        <ele>220.8</ele>
        <time>2024-03-29T06:17:46Z</time>
      </trkpt>
      <trkpt lat="50.04841" lon="4.20976">
        <ele>220.8</ele>
        <time>2024-03-29T06:17:47Z</time>
      </trkpt>
      <trkpt lat="50.04848" lon="4.20969">
        <ele>220.8</ele>
        <time>2024-03-29T06:17:48Z</time>
      </trkpt>
      <trkpt lat="50.04855" lon="4.20961">
        <ele>220.6</ele>
        <time>2024-03-29T06:17:49Z</time>
      </trkpt>
      <trkpt lat="50.04863" lon="4.20953">
        <ele>220.6</ele>
        <time>2024-03-29T06:17:50Z</time>
      </trkpt>
      <trkpt lat="50.0487" lon="4.20944">
        <ele>220.6</ele>
        <time>2024-03-29T06:17:51Z</time>
      </trkpt>
      <trkpt lat="50.04877" lon="4.20935">
        <ele>220.4</ele>
        <time>2024-03-29T06:17:52Z</time>
      </trkpt>
      <trkpt lat="50.04884" lon="4.20925">
        <ele>220.4</ele>
        <time>2024-03-29T06:17:53Z</time>
      </trkpt>
      <trkpt lat="50.04891" lon="4.20915">
        <ele>220.2</ele>
        <time>2024-03-29T06:17:54Z</time>
      </trkpt>
      <trkpt lat="50.04897" lon="4.20904">
        <ele>220.2</ele>
        <time>2024-03-29T06:17:55Z</time>
      </trkpt>
      <trkpt lat="50.04904" lon="4.20892">
        <ele>220</ele>
        <time>2024-03-29T06:17:56Z</time>
      </trkpt>
      <trkpt lat="50.04911" lon="4.2088">
        <ele>219.8</ele>
        <time>2024-03-29T06:17:57Z</time>
      </trkpt>
      <trkpt lat="50.0492" lon="4.20869">
        <ele>219.6</ele>
        <time>2024-03-29T06:17:58Z</time>
      </trkpt>
      <trkpt lat="50.0493" lon="4.20861">
        <ele>219.4</ele>
        <time>2024-03-29T06:17:59Z</time>
      </trkpt>
      <trkpt lat="50.0494" lon="4.20854">
        <ele>219.2</ele>
        <time>2024-03-29T06:18:00Z</time>
      </trkpt>
      <trkpt lat="50.04952" lon="4.20849">
        <ele>219.2</ele>
        <time>2024-03-29T06:18:01Z</time>
      </trkpt>
      <trkpt lat="50.04963" lon="4.20847">
        <ele>218.6</ele>
        <time>2024-03-29T06:18:02Z</time>
      </trkpt>
      <trkpt lat="50.04975" lon="4.20847">
        <ele>217.6</ele>
        <time>2024-03-29T06:18:03Z</time>
      </trkpt>
      <trkpt lat="50.04988" lon="4.20851">
        <ele>216.2</ele>
        <time>2024-03-29T06:18:04Z</time>
      </trkpt>
      <trkpt lat="50.05" lon="4.20857">
        <ele>214.6</ele>
        <time>2024-03-29T06:18:05Z</time>
      </trkpt>
      <trkpt lat="50.05012" lon="4.20865">
        <ele>213.2</ele>
        <time>2024-03-29T06:18:06Z</time>
      </trkpt>
      <trkpt lat="50.05024" lon="4.20873">
        <ele>212.4</ele>
        <time>2024-03-29T06:18:07Z</time>
      </trkpt>
      <trkpt lat="50.05035" lon="4.20882">
        <ele>211.2</ele>
        <time>2024-03-29T06:18:08Z</time>
      </trkpt>
      <trkpt lat="50.05045" lon="4.2089">
        <ele>211.2</ele>
        <time>2024-03-29T06:18:09Z</time>
      </trkpt>
      <trkpt lat="50.05055" lon="4.20899">
        <ele>209.6</ele>
        <time>2024-03-29T06:18:10Z</time>
      </trkpt>
      <trkpt lat="50.05066" lon="4.20908">
        <ele>207.8</ele>
        <time>2024-03-29T06:18:11Z</time>
      </trkpt>
      <trkpt lat="50.05076" lon="4.20917">
        <ele>206.6</ele>
        <time>2024-03-29T06:18:12Z</time>
      </trkpt>
      <trkpt lat="50.05085" lon="4.20926">
        <ele>206</ele>
        <time>2024-03-29T06:18:13Z</time>
      </trkpt>
      <trkpt lat="50.05095" lon="4.20937">
        <ele>205.4</ele>
        <time>2024-03-29T06:18:14Z</time>
      </trkpt>
      <trkpt lat="50.05103" lon="4.20947">
        <ele>204.6</ele>
        <time>2024-03-29T06:18:15Z</time>
      </trkpt>
      <trkpt lat="50.05112" lon="4.20958">
        <ele>204</ele>
        <time>2024-03-29T06:18:16Z</time>
      </trkpt>
      <trkpt lat="50.05121" lon="4.20967">
        <ele>203.8</ele>
        <time>2024-03-29T06:18:17Z</time>
      </trkpt>
      <trkpt lat="50.0513" lon="4.20976">
        <ele>203.2</ele>
        <time>2024-03-29T06:18:18Z</time>
      </trkpt>
      <trkpt lat="50.05139" lon="4.20984">
        <ele>203.2</ele>
        <time>2024-03-29T06:18:19Z</time>
      </trkpt>
      <trkpt lat="50.05147" lon="4.20991">
        <ele>203.2</ele>
        <time>2024-03-29T06:18:20Z</time>
      </trkpt>
      <trkpt lat="50.05155" lon="4.20999">
        <ele>203.2</ele>
        <time>2024-03-29T06:18:21Z</time>
      </trkpt>
      <trkpt lat="50.05163" lon="4.21005">
        <ele>203</ele>
        <time>2024-03-29T06:18:22Z</time>
      </trkpt>
      <trkpt lat="50.05171" lon="4.21009">
        <ele>203</ele>
        <time>2024-03-29T06:18:23Z</time>
      </trkpt>
      <trkpt lat="50.05179" lon="4.21011">
        <ele>203</ele>
        <time>2024-03-29T06:18:24Z</time>
      </trkpt>
      <trkpt lat="50.05186" lon="4.21012">
        <ele>203</ele>
        <time>2024-03-29T06:18:25Z</time>
      </trkpt>
      <trkpt lat="50.05193" lon="4.21013">
        <ele>203</ele>
        <time>2024-03-29T06:18:26Z</time>
      </trkpt>
      <trkpt lat="50.05199" lon="4.21013">
        <ele>203</ele>
        <time>2024-03-29T06:18:27Z</time>
      </trkpt>
      <trkpt lat="50.05205" lon="4.21012">
        <ele>203.4</ele>
        <time>2024-03-29T06:18:28Z</time>
      </trkpt>
      <trkpt lat="50.05212" lon="4.2101">
        <ele>204.6</ele>
        <time>2024-03-29T06:18:29Z</time>
      </trkpt>
      <trkpt lat="50.05218" lon="4.21007">
        <ele>204.6</ele>
        <time>2024-03-29T06:18:30Z</time>
      </trkpt>
      <trkpt lat="50.05225" lon="4.21005">
        <ele>205.4</ele>
        <time>2024-03-29T06:18:31Z</time>
      </trkpt>
      <trkpt lat="50.05232" lon="4.21004">
        <ele>206</ele>
        <time>2024-03-29T06:18:32Z</time>
      </trkpt>
      <trkpt lat="50.05239" lon="4.21003">
        <ele>206.4</ele>
        <time>2024-03-29T06:18:33Z</time>
      </trkpt>
      <trkpt lat="50.05247" lon="4.21002">
        <ele>206.8</ele>
        <time>2024-03-29T06:18:34Z</time>
      </trkpt>
      <trkpt lat="50.05254" lon="4.21001">
        <ele>207.6</ele>
        <time>2024-03-29T06:18:35Z</time>
      </trkpt>
      <trkpt lat="50.05262" lon="4.21001">
        <ele>208.4</ele>
        <time>2024-03-29T06:18:36Z</time>
      </trkpt>
      <trkpt lat="50.05269" lon="4.21001">
        <ele>209</ele>
        <time>2024-03-29T06:18:37Z</time>
      </trkpt>
      <trkpt lat="50.05277" lon="4.21001">
        <ele>209</ele>
        <time>2024-03-29T06:18:38Z</time>
      </trkpt>
      <trkpt lat="50.05284" lon="4.21002">
        <ele>209.2</ele>
        <time>2024-03-29T06:18:39Z</time>
      </trkpt>
      <trkpt lat="50.05291" lon="4.21002">
        <ele>209.2</ele>
        <time>2024-03-29T06:18:40Z</time>
      </trkpt>
      <trkpt lat="50.05299" lon="4.21001">
        <ele>209.2</ele>
        <time>2024-03-29T06:18:41Z</time>
      </trkpt>
      <trkpt lat="50.05306" lon="4.21001">
        <ele>209.4</ele>
        <time>2024-03-29T06:18:42Z</time>
      </trkpt>
      <trkpt lat="50.05313" lon="4.21">
        <ele>209.2</ele>
        <time>2024-03-29T06:18:43Z</time>
      </trkpt>
      <trkpt lat="50.0532" lon="4.21">
        <ele>209.2</ele>
        <time>2024-03-29T06:18:44Z</time>
      </trkpt>
      <trkpt lat="50.05328" lon="4.20999">
        <ele>209.2</ele>
        <time>2024-03-29T06:18:45Z</time>
      </trkpt>
      <trkpt lat="50.05335" lon="4.20999">
        <ele>209.2</ele>
        <time>2024-03-29T06:18:46Z</time>
      </trkpt>
      <trkpt lat="50.05342" lon="4.20998">
        <ele>209.2</ele>
        <time>2024-03-29T06:18:47Z</time>
      </trkpt>
      <trkpt lat="50.05349" lon="4.20997">
        <ele>209</ele>
        <time>2024-03-29T06:18:48Z</time>
      </trkpt>
      <trkpt lat="50.05356" lon="4.20997">
        <ele>209</ele>
        <time>2024-03-29T06:18:49Z</time>
      </trkpt>
      <trkpt lat="50.05363" lon="4.20997">
        <ele>209.2</ele>
        <time>2024-03-29T06:18:50Z</time>
      </trkpt>
      <trkpt lat="50.0537" lon="4.20996">
        <ele>209.2</ele>
        <time>2024-03-29T06:18:51Z</time>
      </trkpt>
      <trkpt lat="50.05376" lon="4.20996">
        <ele>209.2</ele>
        <time>2024-03-29T06:18:52Z</time>
      </trkpt>
      <trkpt lat="50.05383" lon="4.20997">
        <ele>209</ele>
        <time>2024-03-29T06:18:53Z</time>
      </trkpt>
      <trkpt lat="50.05389" lon="4.20997">
        <ele>209.2</ele>
        <time>2024-03-29T06:18:54Z</time>
      </trkpt>
      <trkpt lat="50.05396" lon="4.20998">
        <ele>209.2</ele>
        <time>2024-03-29T06:18:55Z</time>
      </trkpt>
      <trkpt lat="50.05402" lon="4.20998">
        <ele>209.2</ele>
        <time>2024-03-29T06:18:56Z</time>
      </trkpt>
      <trkpt lat="50.05409" lon="4.20998">
        <ele>209.2</ele>
        <time>2024-03-29T06:18:57Z</time>
      </trkpt>
      <trkpt lat="50.05415" lon="4.20999">
        <ele>209.4</ele>
        <time>2024-03-29T06:18:58Z</time>
      </trkpt>
      <trkpt lat="50.05422" lon="4.20999">
        <ele>209.6</ele>
        <time>2024-03-29T06:18:59Z</time>
      </trkpt>
      <trkpt lat="50.05428" lon="4.21">
        <ele>209.8</ele>
        <time>2024-03-29T06:19:00Z</time>
      </trkpt>
      <trkpt lat="50.05434" lon="4.20999">
        <ele>209.8</ele>
        <time>2024-03-29T06:19:01Z</time>
      </trkpt>
      <trkpt lat="50.0544" lon="4.20997">
        <ele>210.2</ele>
        <time>2024-03-29T06:19:02Z</time>
      </trkpt>
      <trkpt lat="50.05447" lon="4.20994">
        <ele>210.8</ele>
        <time>2024-03-29T06:19:03Z</time>
      </trkpt>
      <trkpt lat="50.05452" lon="4.2099">
        <ele>211.2</ele>
        <time>2024-03-29T06:19:04Z</time>
      </trkpt>
      <trkpt lat="50.05458" lon="4.20986">
        <ele>211.6</ele>
        <time>2024-03-29T06:19:05Z</time>
      </trkpt>
      <trkpt lat="50.05464" lon="4.20982">
        <ele>212</ele>
        <time>2024-03-29T06:19:06Z</time>
      </trkpt>
      <trkpt lat="50.0547" lon="4.20977">
        <ele>212.4</ele>
        <time>2024-03-29T06:19:07Z</time>
      </trkpt>
      <trkpt lat="50.05476" lon="4.20973">
        <ele>212.8</ele>
        <time>2024-03-29T06:19:08Z</time>
      </trkpt>
      <trkpt lat="50.05482" lon="4.20969">
        <ele>213.2</ele>
        <time>2024-03-29T06:19:09Z</time>
      </trkpt>
      <trkpt lat="50.05488" lon="4.20964">
        <ele>213.6</ele>
        <time>2024-03-29T06:19:10Z</time>
      </trkpt>
      <trkpt lat="50.05495" lon="4.20959">
        <ele>214</ele>
        <time>2024-03-29T06:19:11Z</time>
      </trkpt>
      <trkpt lat="50.05501" lon="4.20953">
        <ele>214.4</ele>
        <time>2024-03-29T06:19:12Z</time>
      </trkpt>
      <trkpt lat="50.05508" lon="4.20948">
        <ele>214.4</ele>
        <time>2024-03-29T06:19:13Z</time>
      </trkpt>
      <trkpt lat="50.05515" lon="4.20943">
        <ele>214.4</ele>
        <time>2024-03-29T06:19:14Z</time>
      </trkpt>
      <trkpt lat="50.05522" lon="4.20937">
        <ele>214.4</ele>
        <time>2024-03-29T06:19:15Z</time>
      </trkpt>
      <trkpt lat="50.05529" lon="4.20932">
        <ele>214.8</ele>
        <time>2024-03-29T06:19:16Z</time>
      </trkpt>
      <trkpt lat="50.05536" lon="4.20926">
        <ele>214.8</ele>
        <time>2024-03-29T06:19:17Z</time>
      </trkpt>
      <trkpt lat="50.05543" lon="4.2092">
        <ele>214.8</ele>
        <time>2024-03-29T06:19:18Z</time>
      </trkpt>
      <trkpt lat="50.05551" lon="4.20914">
        <ele>214.8</ele>
        <time>2024-03-29T06:19:19Z</time>
      </trkpt>
      <trkpt lat="50.05558" lon="4.20908">
        <ele>214.8</ele>
        <time>2024-03-29T06:19:20Z</time>
      </trkpt>
      <trkpt lat="50.05566" lon="4.20902">
        <ele>214.8</ele>
        <time>2024-03-29T06:19:21Z</time>
      </trkpt>
      <trkpt lat="50.05574" lon="4.20895">
        <ele>215</ele>
        <time>2024-03-29T06:19:22Z</time>
      </trkpt>
      <trkpt lat="50.05582" lon="4.20889">
        <ele>214.8</ele>
        <time>2024-03-29T06:19:23Z</time>
      </trkpt>
      <trkpt lat="50.0559" lon="4.20882">
        <ele>214.2</ele>
        <time>2024-03-29T06:19:24Z</time>
      </trkpt>
      <trkpt lat="50.05598" lon="4.20875">
        <ele>214.2</ele>
        <time>2024-03-29T06:19:25Z</time>
      </trkpt>
      <trkpt lat="50.05606" lon="4.20868">
        <ele>214</ele>
        <time>2024-03-29T06:19:26Z</time>
      </trkpt>
      <trkpt lat="50.05615" lon="4.20862">
        <ele>213.8</ele>
        <time>2024-03-29T06:19:27Z</time>
      </trkpt>
      <trkpt lat="50.05623" lon="4.20855">
        <ele>213.4</ele>
        <time>2024-03-29T06:19:28Z</time>
      </trkpt>
      <trkpt lat="50.05632" lon="4.20849">
        <ele>213</ele>
        <time>2024-03-29T06:19:29Z</time>
      </trkpt>
      <trkpt lat="50.0564" lon="4.20842">
        <ele>213</ele>
        <time>2024-03-29T06:19:30Z</time>
      </trkpt>
      <trkpt lat="50.05649" lon="4.20836">
        <ele>212.4</ele>
        <time>2024-03-29T06:19:31Z</time>
      </trkpt>
      <trkpt lat="50.05658" lon="4.20829">
        <ele>212</ele>
        <time>2024-03-29T06:19:32Z</time>
      </trkpt>
      <trkpt lat="50.05666" lon="4.20821">
        <ele>211.6</ele>
        <time>2024-03-29T06:19:33Z</time>
      </trkpt>
      <trkpt lat="50.05675" lon="4.20814">
        <ele>211.4</ele>
        <time>2024-03-29T06:19:34Z</time>
      </trkpt>
      <trkpt lat="50.05683" lon="4.20807">
        <ele>210.6</ele>
        <time>2024-03-29T06:19:35Z</time>
      </trkpt>
      <trkpt lat="50.05691" lon="4.208">
        <ele>210.6</ele>
        <time>2024-03-29T06:19:36Z</time>
      </trkpt>
      <trkpt lat="50.05699" lon="4.20794">
        <ele>210.2</ele>
        <time>2024-03-29T06:19:37Z</time>
      </trkpt>
      <trkpt lat="50.05707" lon="4.20788">
        <ele>209.6</ele>
        <time>2024-03-29T06:19:38Z</time>
      </trkpt>
      <trkpt lat="50.05714" lon="4.20782">
        <ele>209.4</ele>
        <time>2024-03-29T06:19:39Z</time>
      </trkpt>
      <trkpt lat="50.05721" lon="4.20777">
        <ele>209</ele>
        <time>2024-03-29T06:19:40Z</time>
      </trkpt>
      <trkpt lat="50.05728" lon="4.20772">
        <ele>208.8</ele>
        <time>2024-03-29T06:19:41Z</time>
      </trkpt>
      <trkpt lat="50.05734" lon="4.20767">
        <ele>208.6</ele>
        <time>2024-03-29T06:19:42Z</time>
      </trkpt>
      <trkpt lat="50.0574" lon="4.20762">
        <ele>208.6</ele>
        <time>2024-03-29T06:19:43Z</time>
      </trkpt>
      <trkpt lat="50.05746" lon="4.20758">
        <ele>208.4</ele>
        <time>2024-03-29T06:19:44Z</time>
      </trkpt>
      <trkpt lat="50.05751" lon="4.20753">
        <ele>208.6</ele>
        <time>2024-03-29T06:19:45Z</time>
      </trkpt>
      <trkpt lat="50.05757" lon="4.20749">
        <ele>208.6</ele>
        <time>2024-03-29T06:19:46Z</time>
      </trkpt>
      <trkpt lat="50.05762" lon="4.20745">
        <ele>208.4</ele>
        <time>2024-03-29T06:19:47Z</time>
      </trkpt>
      <trkpt lat="50.05768" lon="4.20741">
        <ele>208.4</ele>
        <time>2024-03-29T06:19:48Z</time>
      </trkpt>
      <trkpt lat="50.05773" lon="4.20738">
        <ele>208.4</ele>
        <time>2024-03-29T06:19:49Z</time>
      </trkpt>
      <trkpt lat="50.05779" lon="4.20733">
        <ele>208.8</ele>
        <time>2024-03-29T06:19:50Z</time>
      </trkpt>
      <trkpt lat="50.05784" lon="4.20729">
        <ele>209.2</ele>
        <time>2024-03-29T06:19:51Z</time>
      </trkpt>
      <trkpt lat="50.0579" lon="4.20725">
        <ele>209.6</ele>
        <time>2024-03-29T06:19:52Z</time>
      </trkpt>
      <trkpt lat="50.05796" lon="4.2072">
        <ele>210.2</ele>
        <time>2024-03-29T06:19:53Z</time>
      </trkpt>
      <trkpt lat="50.05801" lon="4.20715">
        <ele>210.6</ele>
        <time>2024-03-29T06:19:54Z</time>
      </trkpt>
      <trkpt lat="50.05807" lon="4.20711">
        <ele>211</ele>
        <time>2024-03-29T06:19:55Z</time>
      </trkpt>
      <trkpt lat="50.05813" lon="4.20706">
        <ele>211.6</ele>
        <time>2024-03-29T06:19:56Z</time>
      </trkpt>
      <trkpt lat="50.05819" lon="4.20701">
        <ele>211.6</ele>
        <time>2024-03-29T06:19:57Z</time>
      </trkpt>
      <trkpt lat="50.05825" lon="4.20696">
        <ele>212.4</ele>
        <time>2024-03-29T06:19:58Z</time>
      </trkpt>
      <trkpt lat="50.05831" lon="4.20691">
        <ele>213</ele>
        <time>2024-03-29T06:19:59Z</time>
      </trkpt>
      <trkpt lat="50.05838" lon="4.20686">
        <ele>213.8</ele>
        <time>2024-03-29T06:20:00Z</time>
      </trkpt>
      <trkpt lat="50.05844" lon="4.20681">
        <ele>214.4</ele>
        <time>2024-03-29T06:20:01Z</time>
      </trkpt>
      <trkpt lat="50.05851" lon="4.20675">
        <ele>214.4</ele>
        <time>2024-03-29T06:20:02Z</time>
      </trkpt>
      <trkpt lat="50.05858" lon="4.20669">
        <ele>214.6</ele>
        <time>2024-03-29T06:20:03Z</time>
      </trkpt>
      <trkpt lat="50.05865" lon="4.20664">
        <ele>214.8</ele>
        <time>2024-03-29T06:20:04Z</time>
      </trkpt>
      <trkpt lat="50.05872" lon="4.20658">
        <ele>214.8</ele>
        <time>2024-03-29T06:20:05Z</time>
      </trkpt>
      <trkpt lat="50.0588" lon="4.20651">
        <ele>214.8</ele>
        <time>2024-03-29T06:20:06Z</time>
      </trkpt>
      <trkpt lat="50.05888" lon="4.20645">
        <ele>214.8</ele>
        <time>2024-03-29T06:20:07Z</time>
      </trkpt>
      <trkpt lat="50.05897" lon="4.20639">
        <ele>215</ele>
        <time>2024-03-29T06:20:08Z</time>
      </trkpt>
      <trkpt lat="50.05906" lon="4.20633">
        <ele>215</ele>
        <time>2024-03-29T06:20:09Z</time>
      </trkpt>
      <trkpt lat="50.05915" lon="4.20627">
        <ele>214.8</ele>
        <time>2024-03-29T06:20:10Z</time>
      </trkpt>
      <trkpt lat="50.05924" lon="4.20621">
        <ele>214.8</ele>
        <time>2024-03-29T06:20:11Z</time>
      </trkpt>
      <trkpt lat="50.05934" lon="4.20616">
        <ele>214.4</ele>
        <time>2024-03-29T06:20:12Z</time>
      </trkpt>
      <trkpt lat="50.05944" lon="4.20611">
        <ele>213.8</ele>
        <time>2024-03-29T06:20:13Z</time>
      </trkpt>
      <trkpt lat="50.05954" lon="4.20606">
        <ele>213.2</ele>
        <time>2024-03-29T06:20:14Z</time>
      </trkpt>
      <trkpt lat="50.05964" lon="4.206">
        <ele>212.6</ele>
        <time>2024-03-29T06:20:15Z</time>
      </trkpt>
      <trkpt lat="50.05974" lon="4.20594">
        <ele>211.8</ele>
        <time>2024-03-29T06:20:16Z</time>
      </trkpt>
      <trkpt lat="50.05985" lon="4.20588">
        <ele>210.8</ele>
        <time>2024-03-29T06:20:17Z</time>
      </trkpt>
      <trkpt lat="50.05995" lon="4.20582">
        <ele>210</ele>
        <time>2024-03-29T06:20:18Z</time>
      </trkpt>
      <trkpt lat="50.06006" lon="4.20575">
        <ele>210</ele>
        <time>2024-03-29T06:20:19Z</time>
      </trkpt>
      <trkpt lat="50.06017" lon="4.20569">
        <ele>208.6</ele>
        <time>2024-03-29T06:20:20Z</time>
      </trkpt>
      <trkpt lat="50.06028" lon="4.20562">
        <ele>207.2</ele>
        <time>2024-03-29T06:20:21Z</time>
      </trkpt>
      <trkpt lat="50.0604" lon="4.20556">
        <ele>206.4</ele>
        <time>2024-03-29T06:20:22Z</time>
      </trkpt>
      <trkpt lat="50.06051" lon="4.20549">
        <ele>205.6</ele>
        <time>2024-03-29T06:20:23Z</time>
      </trkpt>
      <trkpt lat="50.06063" lon="4.20542">
        <ele>205</ele>
        <time>2024-03-29T06:20:24Z</time>
      </trkpt>
      <trkpt lat="50.06075" lon="4.20536">
        <ele>204.6</ele>
        <time>2024-03-29T06:20:25Z</time>
      </trkpt>
      <trkpt lat="50.06086" lon="4.20529">
        <ele>203.8</ele>
        <time>2024-03-29T06:20:26Z</time>
      </trkpt>
      <trkpt lat="50.06098" lon="4.20522">
        <ele>202.8</ele>
        <time>2024-03-29T06:20:27Z</time>
      </trkpt>
      <trkpt lat="50.0611" lon="4.20515">
        <ele>202.2</ele>
        <time>2024-03-29T06:20:28Z</time>
      </trkpt>
      <trkpt lat="50.06121" lon="4.20509">
        <ele>201.8</ele>
        <time>2024-03-29T06:20:29Z</time>
      </trkpt>
      <trkpt lat="50.06132" lon="4.20502">
        <ele>201.2</ele>
        <time>2024-03-29T06:20:30Z</time>
      </trkpt>
      <trkpt lat="50.06143" lon="4.20496">
        <ele>200.4</ele>
        <time>2024-03-29T06:20:31Z</time>
      </trkpt>
      <trkpt lat="50.06154" lon="4.2049">
        <ele>199.4</ele>
        <time>2024-03-29T06:20:32Z</time>
      </trkpt>
      <trkpt lat="50.06165" lon="4.20484">
        <ele>198.4</ele>
        <time>2024-03-29T06:20:33Z</time>
      </trkpt>
      <trkpt lat="50.06175" lon="4.20478">
        <ele>197.8</ele>
        <time>2024-03-29T06:20:34Z</time>
      </trkpt>
      <trkpt lat="50.06185" lon="4.20472">
        <ele>197.4</ele>
        <time>2024-03-29T06:20:35Z</time>
      </trkpt>
      <trkpt lat="50.06194" lon="4.20467">
        <ele>196</ele>
        <time>2024-03-29T06:20:36Z</time>
      </trkpt>
      <trkpt lat="50.06204" lon="4.20461">
        <ele>195.6</ele>
        <time>2024-03-29T06:20:37Z</time>
      </trkpt>
      <trkpt lat="50.06213" lon="4.20456">
        <ele>195</ele>
        <time>2024-03-29T06:20:38Z</time>
      </trkpt>
      <trkpt lat="50.06221" lon="4.20452">
        <ele>194.6</ele>
        <time>2024-03-29T06:20:39Z</time>
      </trkpt>
      <trkpt lat="50.06229" lon="4.20447">
        <ele>194.6</ele>
        <time>2024-03-29T06:20:40Z</time>
      </trkpt>
      <trkpt lat="50.06237" lon="4.20443">
        <ele>194.6</ele>
        <time>2024-03-29T06:20:41Z</time>
      </trkpt>
      <trkpt lat="50.06244" lon="4.20439">
        <ele>194.6</ele>
        <time>2024-03-29T06:20:42Z</time>
      </trkpt>
      <trkpt lat="50.06251" lon="4.20435">
        <ele>194.4</ele>
        <time>2024-03-29T06:20:43Z</time>
      </trkpt>
      <trkpt lat="50.06257" lon="4.20431">
        <ele>194.6</ele>
        <time>2024-03-29T06:20:44Z</time>
      </trkpt>
      <trkpt lat="50.06264" lon="4.20428">
        <ele>194.4</ele>
        <time>2024-03-29T06:20:45Z</time>
      </trkpt>
      <trkpt lat="50.0627" lon="4.20425">
        <ele>194.4</ele>
        <time>2024-03-29T06:20:46Z</time>
      </trkpt>
      <trkpt lat="50.06275" lon="4.20422">
        <ele>194.4</ele>
        <time>2024-03-29T06:20:47Z</time>
      </trkpt>
      <trkpt lat="50.0628" lon="4.20419">
        <ele>194.4</ele>
        <time>2024-03-29T06:20:48Z</time>
      </trkpt>
      <trkpt lat="50.06285" lon="4.20416">
        <ele>194.4</ele>
        <time>2024-03-29T06:20:49Z</time>
      </trkpt>
      <trkpt lat="50.06288" lon="4.20412">
        <ele>194.4</ele>
        <time>2024-03-29T06:20:50Z</time>
      </trkpt>
      <trkpt lat="50.06291" lon="4.20405">
        <ele>194.8</ele>
        <time>2024-03-29T06:20:51Z</time>
      </trkpt>
      <trkpt lat="50.06293" lon="4.20396">
        <ele>195.6</ele>
        <time>2024-03-29T06:20:52Z</time>
      </trkpt>
      <trkpt lat="50.06294" lon="4.20387">
        <ele>196.2</ele>
        <time>2024-03-29T06:20:53Z</time>
      </trkpt>
      <trkpt lat="50.06294" lon="4.20376">
        <ele>196.6</ele>
        <time>2024-03-29T06:20:54Z</time>
      </trkpt>
      <trkpt lat="50.06294" lon="4.20365">
        <ele>197</ele>
        <time>2024-03-29T06:20:55Z</time>
      </trkpt>
      <trkpt lat="50.06294" lon="4.20354">
        <ele>197.2</ele>
        <time>2024-03-29T06:20:56Z</time>
      </trkpt>
      <trkpt lat="50.06295" lon="4.20342">
        <ele>197</ele>
        <time>2024-03-29T06:20:57Z</time>
      </trkpt>
      <trkpt lat="50.06295" lon="4.20331">
        <ele>197.2</ele>
        <time>2024-03-29T06:20:58Z</time>
      </trkpt>
      <trkpt lat="50.06295" lon="4.20319">
        <ele>197.2</ele>
        <time>2024-03-29T06:20:59Z</time>
      </trkpt>
      <trkpt lat="50.06296" lon="4.20308">
        <ele>197.2</ele>
        <time>2024-03-29T06:21:00Z</time>
      </trkpt>
      <trkpt lat="50.06296" lon="4.20296">
        <ele>197.4</ele>
        <time>2024-03-29T06:21:01Z</time>
      </trkpt>
      <trkpt lat="50.06296" lon="4.20285">
        <ele>197.2</ele>
        <time>2024-03-29T06:21:02Z</time>
      </trkpt>
      <trkpt lat="50.06297" lon="4.20273">
        <ele>197.2</ele>
        <time>2024-03-29T06:21:03Z</time>
      </trkpt>
      <trkpt lat="50.06297" lon="4.20262">
        <ele>197.4</ele>
        <time>2024-03-29T06:21:04Z</time>
      </trkpt>
      <trkpt lat="50.06297" lon="4.20251">
        <ele>197.2</ele>
        <time>2024-03-29T06:21:05Z</time>
      </trkpt>
      <trkpt lat="50.06297" lon="4.20239">
        <ele>197.2</ele>
        <time>2024-03-29T06:21:06Z</time>
      </trkpt>
      <trkpt lat="50.06297" lon="4.20228">
        <ele>197.2</ele>
        <time>2024-03-29T06:21:07Z</time>
      </trkpt>
      <trkpt lat="50.06297" lon="4.20217">
        <ele>197</ele>
        <time>2024-03-29T06:21:08Z</time>
      </trkpt>
      <trkpt lat="50.06298" lon="4.20206">
        <ele>196.6</ele>
        <time>2024-03-29T06:21:09Z</time>
      </trkpt>
      <trkpt lat="50.06298" lon="4.20194">
        <ele>196</ele>
        <time>2024-03-29T06:21:10Z</time>
      </trkpt>
      <trkpt lat="50.06299" lon="4.20182">
        <ele>195.8</ele>
        <time>2024-03-29T06:21:11Z</time>
      </trkpt>
      <trkpt lat="50.06299" lon="4.2017">
        <ele>195.6</ele>
        <time>2024-03-29T06:21:12Z</time>
      </trkpt>
      <trkpt lat="50.063" lon="4.20158">
        <ele>195.2</ele>
        <time>2024-03-29T06:21:13Z</time>
      </trkpt>
      <trkpt lat="50.063" lon="4.20145">
        <ele>195.2</ele>
        <time>2024-03-29T06:21:14Z</time>
      </trkpt>
      <trkpt lat="50.06301" lon="4.20133">
        <ele>195.2</ele>
        <time>2024-03-29T06:21:15Z</time>
      </trkpt>
      <trkpt lat="50.06301" lon="4.2012">
        <ele>195</ele>
        <time>2024-03-29T06:21:16Z</time>
      </trkpt>
      <trkpt lat="50.06302" lon="4.20107">
        <ele>195</ele>
        <time>2024-03-29T06:21:17Z</time>
      </trkpt>
      <trkpt lat="50.06304" lon="4.20095">
        <ele>195</ele>
        <time>2024-03-29T06:21:18Z</time>
      </trkpt>
      <trkpt lat="50.06306" lon="4.20083">
        <ele>194.8</ele>
        <time>2024-03-29T06:21:19Z</time>
      </trkpt>
      <trkpt lat="50.06309" lon="4.20071">
        <ele>194.8</ele>
        <time>2024-03-29T06:21:20Z</time>
      </trkpt>
      <trkpt lat="50.06312" lon="4.2006">
        <ele>194.8</ele>
        <time>2024-03-29T06:21:21Z</time>
      </trkpt>
      <trkpt lat="50.06315" lon="4.20049">
        <ele>194.6</ele>
        <time>2024-03-29T06:21:22Z</time>
      </trkpt>
      <trkpt lat="50.06317" lon="4.20037">
        <ele>194.6</ele>
        <time>2024-03-29T06:21:23Z</time>
      </trkpt>
      <trkpt lat="50.06318" lon="4.20025">
        <ele>194.6</ele>
        <time>2024-03-29T06:21:24Z</time>
      </trkpt>
      <trkpt lat="50.06319" lon="4.20013">
        <ele>194.6</ele>
        <time>2024-03-29T06:21:25Z</time>
      </trkpt>
      <trkpt lat="50.06319" lon="4.20001">
        <ele>194.2</ele>
        <time>2024-03-29T06:21:26Z</time>
      </trkpt>
      <trkpt lat="50.06318" lon="4.19989">
        <ele>193.8</ele>
        <time>2024-03-29T06:21:27Z</time>
      </trkpt>
      <trkpt lat="50.06318" lon="4.19977">
        <ele>193.4</ele>
        <time>2024-03-29T06:21:28Z</time>
      </trkpt>
      <trkpt lat="50.06319" lon="4.19964">
        <ele>193</ele>
        <time>2024-03-29T06:21:29Z</time>
      </trkpt>
      <trkpt lat="50.06322" lon="4.19952">
        <ele>192.6</ele>
        <time>2024-03-29T06:21:30Z</time>
      </trkpt>
      <trkpt lat="50.06328" lon="4.19942">
        <ele>192.4</ele>
        <time>2024-03-29T06:21:31Z</time>
      </trkpt>
      <trkpt lat="50.06335" lon="4.19933">
        <ele>192.4</ele>
        <time>2024-03-29T06:21:32Z</time>
      </trkpt>
      <trkpt lat="50.06343" lon="4.19925">
        <ele>192.2</ele>
        <time>2024-03-29T06:21:33Z</time>
      </trkpt>
      <trkpt lat="50.06352" lon="4.19919">
        <ele>192</ele>
        <time>2024-03-29T06:21:34Z</time>
      </trkpt>
      <trkpt lat="50.06361" lon="4.19914">
        <ele>192</ele>
        <time>2024-03-29T06:21:35Z</time>
      </trkpt>
      <trkpt lat="50.06371" lon="4.1991">
        <ele>192</ele>
        <time>2024-03-29T06:21:36Z</time>
      </trkpt>
      <trkpt lat="50.0638" lon="4.19906">
        <ele>191.6</ele>
        <time>2024-03-29T06:21:37Z</time>
      </trkpt>
      <trkpt lat="50.06389" lon="4.19901">
        <ele>191.4</ele>
        <time>2024-03-29T06:21:38Z</time>
      </trkpt>
      <trkpt lat="50.06398" lon="4.19895">
        <ele>190.6</ele>
        <time>2024-03-29T06:21:39Z</time>
      </trkpt>
      <trkpt lat="50.06405" lon="4.19888">
        <ele>190</ele>
        <time>2024-03-29T06:21:40Z</time>
      </trkpt>
      <trkpt lat="50.06412" lon="4.19878">
        <ele>189</ele>
        <time>2024-03-29T06:21:41Z</time>
      </trkpt>
      <trkpt lat="50.06416" lon="4.19866">
        <ele>188.4</ele>
        <time>2024-03-29T06:21:42Z</time>
      </trkpt>
      <trkpt lat="50.0642" lon="4.19854">
        <ele>188</ele>
        <time>2024-03-29T06:21:43Z</time>
      </trkpt>
      <trkpt lat="50.06423" lon="4.19842">
        <ele>187.8</ele>
        <time>2024-03-29T06:21:44Z</time>
      </trkpt>
      <trkpt lat="50.06425" lon="4.1983">
        <ele>187.6</ele>
        <time>2024-03-29T06:21:45Z</time>
      </trkpt>
      <trkpt lat="50.06427" lon="4.19818">
        <ele>187.6</ele>
        <time>2024-03-29T06:21:46Z</time>
      </trkpt>
      <trkpt lat="50.0643" lon="4.19806">
        <ele>187.4</ele>
        <time>2024-03-29T06:21:47Z</time>
      </trkpt>
      <trkpt lat="50.06432" lon="4.19795">
        <ele>187.4</ele>
        <time>2024-03-29T06:21:48Z</time>
      </trkpt>
      <trkpt lat="50.06435" lon="4.19783">
        <ele>187.2</ele>
        <time>2024-03-29T06:21:49Z</time>
      </trkpt>
      <trkpt lat="50.06437" lon="4.19771">
        <ele>187</ele>
        <time>2024-03-29T06:21:50Z</time>
      </trkpt>
      <trkpt lat="50.06439" lon="4.1976">
        <ele>187</ele>
        <time>2024-03-29T06:21:51Z</time>
      </trkpt>
      <trkpt lat="50.06441" lon="4.19748">
        <ele>187</ele>
        <time>2024-03-29T06:21:52Z</time>
      </trkpt>
      <trkpt lat="50.06443" lon="4.19737">
        <ele>187</ele>
        <time>2024-03-29T06:21:53Z</time>
      </trkpt>
      <trkpt lat="50.06444" lon="4.19726">
        <ele>186.8</ele>
        <time>2024-03-29T06:21:54Z</time>
      </trkpt>
      <trkpt lat="50.06446" lon="4.19715">
        <ele>186.8</ele>
        <time>2024-03-29T06:21:55Z</time>
      </trkpt>
      <trkpt lat="50.06447" lon="4.19704">
        <ele>186.8</ele>
        <time>2024-03-29T06:21:56Z</time>
      </trkpt>
      <trkpt lat="50.06448" lon="4.19693">
        <ele>186.8</ele>
        <time>2024-03-29T06:21:57Z</time>
      </trkpt>
      <trkpt lat="50.06448" lon="4.19683">
        <ele>186.6</ele>
        <time>2024-03-29T06:21:58Z</time>
      </trkpt>
      <trkpt lat="50.06449" lon="4.19672">
        <ele>186.8</ele>
        <time>2024-03-29T06:21:59Z</time>
      </trkpt>
      <trkpt lat="50.0645" lon="4.19662">
        <ele>186.6</ele>
        <time>2024-03-29T06:22:00Z</time>
      </trkpt>
      <trkpt lat="50.06451" lon="4.19652">
        <ele>186.8</ele>
        <time>2024-03-29T06:22:01Z</time>
      </trkpt>
      <trkpt lat="50.06453" lon="4.19642">
        <ele>186.8</ele>
        <time>2024-03-29T06:22:02Z</time>
      </trkpt>
      <trkpt lat="50.06455" lon="4.19632">
        <ele>186.8</ele>
        <time>2024-03-29T06:22:03Z</time>
      </trkpt>
      <trkpt lat="50.06458" lon="4.19623">
        <ele>186.6</ele>
        <time>2024-03-29T06:22:04Z</time>
      </trkpt>
      <trkpt lat="50.06461" lon="4.19615">
        <ele>186.6</ele>
        <time>2024-03-29T06:22:05Z</time>
      </trkpt>
      <trkpt lat="50.06464" lon="4.19607">
        <ele>186.8</ele>
        <time>2024-03-29T06:22:06Z</time>
      </trkpt>
      <trkpt lat="50.06468" lon="4.19599">
        <ele>186.6</ele>
        <time>2024-03-29T06:22:07Z</time>
      </trkpt>
      <trkpt lat="50.06472" lon="4.19592">
        <ele>187</ele>
        <time>2024-03-29T06:22:08Z</time>
      </trkpt>
      <trkpt lat="50.06476" lon="4.19585">
        <ele>187</ele>
        <time>2024-03-29T06:22:09Z</time>
      </trkpt>
      <trkpt lat="50.06481" lon="4.19579">
        <ele>187</ele>
        <time>2024-03-29T06:22:10Z</time>
      </trkpt>
      <trkpt lat="50.06485" lon="4.19572">
        <ele>187.4</ele>
        <time>2024-03-29T06:22:11Z</time>
      </trkpt>
      <trkpt lat="50.0649" lon="4.19566">
        <ele>187.4</ele>
        <time>2024-03-29T06:22:12Z</time>
      </trkpt>
      <trkpt lat="50.06495" lon="4.1956">
        <ele>188.2</ele>
        <time>2024-03-29T06:22:13Z</time>
      </trkpt>
      <trkpt lat="50.06501" lon="4.19555">
        <ele>188.6</ele>
        <time>2024-03-29T06:22:14Z</time>
      </trkpt>
      <trkpt lat="50.06507" lon="4.19553">
        <ele>189.4</ele>
        <time>2024-03-29T06:22:15Z</time>
      </trkpt>
      <trkpt lat="50.06514" lon="4.19551">
        <ele>189.8</ele>
        <time>2024-03-29T06:22:16Z</time>
      </trkpt>
      <trkpt lat="50.0652" lon="4.19551">
        <ele>190.4</ele>
        <time>2024-03-29T06:22:17Z</time>
      </trkpt>
      <trkpt lat="50.06527" lon="4.1955">
        <ele>190.8</ele>
        <time>2024-03-29T06:22:18Z</time>
      </trkpt>
      <trkpt lat="50.06534" lon="4.1955">
        <ele>191.2</ele>
        <time>2024-03-29T06:22:19Z</time>
      </trkpt>
      <trkpt lat="50.06541" lon="4.1955">
        <ele>191.6</ele>
        <time>2024-03-29T06:22:20Z</time>
      </trkpt>
      <trkpt lat="50.06548" lon="4.1955">
        <ele>192</ele>
        <time>2024-03-29T06:22:21Z</time>
      </trkpt>
      <trkpt lat="50.06555" lon="4.1955">
        <ele>192</ele>
        <time>2024-03-29T06:22:22Z</time>
      </trkpt>
      <trkpt lat="50.06562" lon="4.19549">
        <ele>192.2</ele>
        <time>2024-03-29T06:22:23Z</time>
      </trkpt>
      <trkpt lat="50.0657" lon="4.19549">
        <ele>192.2</ele>
        <time>2024-03-29T06:22:24Z</time>
      </trkpt>
      <trkpt lat="50.06577" lon="4.19549">
        <ele>192.4</ele>
        <time>2024-03-29T06:22:25Z</time>
      </trkpt>
      <trkpt lat="50.06584" lon="4.19549">
        <ele>192.2</ele>
        <time>2024-03-29T06:22:26Z</time>
      </trkpt>
      <trkpt lat="50.06592" lon="4.19549">
        <ele>192.2</ele>
        <time>2024-03-29T06:22:27Z</time>
      </trkpt>
      <trkpt lat="50.06599" lon="4.19548">
        <ele>192.4</ele>
        <time>2024-03-29T06:22:28Z</time>
      </trkpt>
      <trkpt lat="50.06607" lon="4.19548">
        <ele>192.4</ele>
        <time>2024-03-29T06:22:29Z</time>
      </trkpt>
      <trkpt lat="50.06614" lon="4.19548">
        <ele>192.4</ele>
        <time>2024-03-29T06:22:30Z</time>
      </trkpt>
      <trkpt lat="50.06621" lon="4.19548">
        <ele>192</ele>
        <time>2024-03-29T06:22:31Z</time>
      </trkpt>
      <trkpt lat="50.06629" lon="4.19548">
        <ele>192</ele>
        <time>2024-03-29T06:22:32Z</time>
      </trkpt>
      <trkpt lat="50.06636" lon="4.19547">
        <ele>192</ele>
        <time>2024-03-29T06:22:33Z</time>
      </trkpt>
      <trkpt lat="50.06643" lon="4.19547">
        <ele>192</ele>
        <time>2024-03-29T06:22:34Z</time>
      </trkpt>
      <trkpt lat="50.06651" lon="4.19547">
        <ele>192</ele>
        <time>2024-03-29T06:22:35Z</time>
      </trkpt>
      <trkpt lat="50.06658" lon="4.19546">
        <ele>191.8</ele>
        <time>2024-03-29T06:22:36Z</time>
      </trkpt>
      <trkpt lat="50.06665" lon="4.19546">
        <ele>191.6</ele>
        <time>2024-03-29T06:22:37Z</time>
      </trkpt>
      <trkpt lat="50.06672" lon="4.19546">
        <ele>191.6</ele>
        <time>2024-03-29T06:22:38Z</time>
      </trkpt>
      <trkpt lat="50.06679" lon="4.19546">
        <ele>191.6</ele>
        <time>2024-03-29T06:22:39Z</time>
      </trkpt>
      <trkpt lat="50.06686" lon="4.19546">
        <ele>191.6</ele>
        <time>2024-03-29T06:22:40Z</time>
      </trkpt>
      <trkpt lat="50.06692" lon="4.19546">
        <ele>191.8</ele>
        <time>2024-03-29T06:22:41Z</time>
      </trkpt>
      <trkpt lat="50.06699" lon="4.19546">
        <ele>191.6</ele>
        <time>2024-03-29T06:22:42Z</time>
      </trkpt>
      <trkpt lat="50.06706" lon="4.19547">
        <ele>191.6</ele>
        <time>2024-03-29T06:22:43Z</time>
      </trkpt>
      <trkpt lat="50.06713" lon="4.19548">
        <ele>191.6</ele>
        <time>2024-03-29T06:22:44Z</time>
      </trkpt>
      <trkpt lat="50.0672" lon="4.19549">
        <ele>191.6</ele>
        <time>2024-03-29T06:22:45Z</time>
      </trkpt>
      <trkpt lat="50.06727" lon="4.1955">
        <ele>191.6</ele>
        <time>2024-03-29T06:22:46Z</time>
      </trkpt>
      <trkpt lat="50.06734" lon="4.19552">
        <ele>191.6</ele>
        <time>2024-03-29T06:22:47Z</time>
      </trkpt>
      <trkpt lat="50.0674" lon="4.19553">
        <ele>191.8</ele>
        <time>2024-03-29T06:22:48Z</time>
      </trkpt>
      <trkpt lat="50.06747" lon="4.19555">
        <ele>192</ele>
        <time>2024-03-29T06:22:49Z</time>
      </trkpt>
      <trkpt lat="50.06754" lon="4.19557">
        <ele>192</ele>
        <time>2024-03-29T06:22:50Z</time>
      </trkpt>
      <trkpt lat="50.06761" lon="4.19559">
        <ele>192</ele>
        <time>2024-03-29T06:22:51Z</time>
      </trkpt>
      <trkpt lat="50.06767" lon="4.19561">
        <ele>192</ele>
        <time>2024-03-29T06:22:52Z</time>
      </trkpt>
      <trkpt lat="50.06774" lon="4.19564">
        <ele>192.4</ele>
        <time>2024-03-29T06:22:53Z</time>
      </trkpt>
      <trkpt lat="50.06781" lon="4.19566">
        <ele>192.4</ele>
        <time>2024-03-29T06:22:54Z</time>
      </trkpt>
      <trkpt lat="50.06787" lon="4.19569">
        <ele>192.4</ele>
        <time>2024-03-29T06:22:55Z</time>
      </trkpt>
      <trkpt lat="50.06794" lon="4.19571">
        <ele>192.6</ele>
        <time>2024-03-29T06:22:56Z</time>
      </trkpt>
      <trkpt lat="50.068" lon="4.19573">
        <ele>192.8</ele>
        <time>2024-03-29T06:22:57Z</time>
      </trkpt>
      <trkpt lat="50.06807" lon="4.19576">
        <ele>193</ele>
        <time>2024-03-29T06:22:58Z</time>
      </trkpt>
      <trkpt lat="50.06814" lon="4.19578">
        <ele>193.4</ele>
        <time>2024-03-29T06:22:59Z</time>
      </trkpt>
      <trkpt lat="50.06821" lon="4.19581">
        <ele>193.4</ele>
        <time>2024-03-29T06:23:00Z</time>
      </trkpt>
      <trkpt lat="50.06828" lon="4.19584">
        <ele>193.8</ele>
        <time>2024-03-29T06:23:01Z</time>
      </trkpt>
      <trkpt lat="50.06835" lon="4.19587">
        <ele>193.8</ele>
        <time>2024-03-29T06:23:02Z</time>
      </trkpt>
      <trkpt lat="50.06842" lon="4.19589">
        <ele>193.8</ele>
        <time>2024-03-29T06:23:03Z</time>
      </trkpt>
      <trkpt lat="50.06849" lon="4.19592">
        <ele>194</ele>
        <time>2024-03-29T06:23:04Z</time>
      </trkpt>
      <trkpt lat="50.06857" lon="4.19594">
        <ele>193.8</ele>
        <time>2024-03-29T06:23:05Z</time>
      </trkpt>
      <trkpt lat="50.06864" lon="4.19597">
        <ele>193.8</ele>
        <time>2024-03-29T06:23:06Z</time>
      </trkpt>
      <trkpt lat="50.06872" lon="4.196">
        <ele>194</ele>
        <time>2024-03-29T06:23:07Z</time>
      </trkpt>
      <trkpt lat="50.0688" lon="4.19602">
        <ele>193.8</ele>
        <time>2024-03-29T06:23:08Z</time>
      </trkpt>
      <trkpt lat="50.06888" lon="4.19605">
        <ele>193.8</ele>
        <time>2024-03-29T06:23:09Z</time>
      </trkpt>
      <trkpt lat="50.06896" lon="4.19607">
        <ele>193.8</ele>
        <time>2024-03-29T06:23:10Z</time>
      </trkpt>
      <trkpt lat="50.06904" lon="4.19609">
        <ele>193.8</ele>
        <time>2024-03-29T06:23:11Z</time>
      </trkpt>
      <trkpt lat="50.06912" lon="4.19611">
        <ele>194</ele>
        <time>2024-03-29T06:23:12Z</time>
      </trkpt>
      <trkpt lat="50.0692" lon="4.19612">
        <ele>193.6</ele>
        <time>2024-03-29T06:23:13Z</time>
      </trkpt>
      <trkpt lat="50.06928" lon="4.19612">
        <ele>193.6</ele>
        <time>2024-03-29T06:23:14Z</time>
      </trkpt>
      <trkpt lat="50.06936" lon="4.19612">
        <ele>193.2</ele>
        <time>2024-03-29T06:23:15Z</time>
      </trkpt>
      <trkpt lat="50.06944" lon="4.19611">
        <ele>193.2</ele>
        <time>2024-03-29T06:23:16Z</time>
      </trkpt>
      <trkpt lat="50.06952" lon="4.19611">
        <ele>193</ele>
        <time>2024-03-29T06:23:17Z</time>
      </trkpt>
      <trkpt lat="50.0696" lon="4.1961">
        <ele>192.2</ele>
        <time>2024-03-29T06:23:18Z</time>
      </trkpt>
      <trkpt lat="50.06968" lon="4.19609">
        <ele>191.6</ele>
        <time>2024-03-29T06:23:19Z</time>
      </trkpt>
      <trkpt lat="50.06976" lon="4.19608">
        <ele>191.2</ele>
        <time>2024-03-29T06:23:20Z</time>
      </trkpt>
      <trkpt lat="50.06983" lon="4.19606">
        <ele>190.8</ele>
        <time>2024-03-29T06:23:21Z</time>
      </trkpt>
      <trkpt lat="50.06991" lon="4.19605">
        <ele>190.6</ele>
        <time>2024-03-29T06:23:22Z</time>
      </trkpt>
      <trkpt lat="50.06999" lon="4.19604">
        <ele>190.4</ele>
        <time>2024-03-29T06:23:23Z</time>
      </trkpt>
      <trkpt lat="50.07006" lon="4.19602">
        <ele>190.2</ele>
        <time>2024-03-29T06:23:24Z</time>
      </trkpt>
      <trkpt lat="50.07014" lon="4.19601">
        <ele>190</ele>
        <time>2024-03-29T06:23:25Z</time>
      </trkpt>
      <trkpt lat="50.07022" lon="4.196">
        <ele>190.2</ele>
        <time>2024-03-29T06:23:26Z</time>
      </trkpt>
      <trkpt lat="50.07029" lon="4.19598">
        <ele>190</ele>
        <time>2024-03-29T06:23:27Z</time>
      </trkpt>
      <trkpt lat="50.07037" lon="4.19597">
        <ele>190</ele>
        <time>2024-03-29T06:23:28Z</time>
      </trkpt>
      <trkpt lat="50.07044" lon="4.19596">
        <ele>190</ele>
        <time>2024-03-29T06:23:29Z</time>
      </trkpt>
      <trkpt lat="50.07052" lon="4.19595">
        <ele>190</ele>
        <time>2024-03-29T06:23:30Z</time>
      </trkpt>
      <trkpt lat="50.07059" lon="4.19593">
        <ele>190</ele>
        <time>2024-03-29T06:23:31Z</time>
      </trkpt>
      <trkpt lat="50.07066" lon="4.19592">
        <ele>190</ele>
        <time>2024-03-29T06:23:32Z</time>
      </trkpt>
      <trkpt lat="50.07074" lon="4.19591">
        <ele>190</ele>
        <time>2024-03-29T06:23:33Z</time>
      </trkpt>
      <trkpt lat="50.07081" lon="4.1959">
        <ele>190</ele>
        <time>2024-03-29T06:23:34Z</time>
      </trkpt>
      <trkpt lat="50.07088" lon="4.19589">
        <ele>190</ele>
        <time>2024-03-29T06:23:35Z</time>
      </trkpt>
      <trkpt lat="50.07095" lon="4.19587">
        <ele>190</ele>
        <time>2024-03-29T06:23:36Z</time>
      </trkpt>
      <trkpt lat="50.07103" lon="4.19586">
        <ele>190</ele>
        <time>2024-03-29T06:23:37Z</time>
      </trkpt>
      <trkpt lat="50.0711" lon="4.19585">
        <ele>190</ele>
        <time>2024-03-29T06:23:38Z</time>
      </trkpt>
      <trkpt lat="50.07117" lon="4.19584">
        <ele>190.2</ele>
        <time>2024-03-29T06:23:39Z</time>
      </trkpt>
      <trkpt lat="50.07125" lon="4.19583">
        <ele>190</ele>
        <time>2024-03-29T06:23:40Z</time>
      </trkpt>
      <trkpt lat="50.07132" lon="4.19583">
        <ele>190</ele>
        <time>2024-03-29T06:23:41Z</time>
      </trkpt>
      <trkpt lat="50.07139" lon="4.19582">
        <ele>190</ele>
        <time>2024-03-29T06:23:42Z</time>
      </trkpt>
      <trkpt lat="50.07147" lon="4.19581">
        <ele>190</ele>
        <time>2024-03-29T06:23:43Z</time>
      </trkpt>
      <trkpt lat="50.07154" lon="4.1958">
        <ele>190</ele>
        <time>2024-03-29T06:23:44Z</time>
      </trkpt>
      <trkpt lat="50.07162" lon="4.19579">
        <ele>190</ele>
        <time>2024-03-29T06:23:45Z</time>
      </trkpt>
      <trkpt lat="50.0717" lon="4.19578">
        <ele>190</ele>
        <time>2024-03-29T06:23:46Z</time>
      </trkpt>
      <trkpt lat="50.07177" lon="4.19577">
        <ele>189.8</ele>
        <time>2024-03-29T06:23:47Z</time>
      </trkpt>
      <trkpt lat="50.07185" lon="4.19576">
        <ele>189.4</ele>
        <time>2024-03-29T06:23:48Z</time>
      </trkpt>
      <trkpt lat="50.07193" lon="4.19575">
        <ele>189.4</ele>
        <time>2024-03-29T06:23:49Z</time>
      </trkpt>
      <trkpt lat="50.072" lon="4.19574">
        <ele>189</ele>
        <time>2024-03-29T06:23:50Z</time>
      </trkpt>
      <trkpt lat="50.07208" lon="4.19573">
        <ele>189</ele>
        <time>2024-03-29T06:23:51Z</time>
      </trkpt>
      <trkpt lat="50.07215" lon="4.19572">
        <ele>188.8</ele>
        <time>2024-03-29T06:23:52Z</time>
      </trkpt>
      <trkpt lat="50.07223" lon="4.19572">
        <ele>188.6</ele>
        <time>2024-03-29T06:23:53Z</time>
      </trkpt>
      <trkpt lat="50.07231" lon="4.19571">
        <ele>188.6</ele>
        <time>2024-03-29T06:23:54Z</time>
      </trkpt>
      <trkpt lat="50.07238" lon="4.1957">
        <ele>188.6</ele>
        <time>2024-03-29T06:23:55Z</time>
      </trkpt>
      <trkpt lat="50.07246" lon="4.19569">
        <ele>188.6</ele>
        <time>2024-03-29T06:23:56Z</time>
      </trkpt>
      <trkpt lat="50.07254" lon="4.19568">
        <ele>188.6</ele>
        <time>2024-03-29T06:23:57Z</time>
      </trkpt>
      <trkpt lat="50.07262" lon="4.19568">
        <ele>188.4</ele>
        <time>2024-03-29T06:23:58Z</time>
      </trkpt>
      <trkpt lat="50.0727" lon="4.19567">
        <ele>188.4</ele>
        <time>2024-03-29T06:23:59Z</time>
      </trkpt>
      <trkpt lat="50.07278" lon="4.19566">
        <ele>188.4</ele>
        <time>2024-03-29T06:24:00Z</time>
      </trkpt>
      <trkpt lat="50.07286" lon="4.19565">
        <ele>188.4</ele>
        <time>2024-03-29T06:24:01Z</time>
      </trkpt>
      <trkpt lat="50.07293" lon="4.19564">
        <ele>188.4</ele>
        <time>2024-03-29T06:24:02Z</time>
      </trkpt>
      <trkpt lat="50.07301" lon="4.19563">
        <ele>188.4</ele>
        <time>2024-03-29T06:24:03Z</time>
      </trkpt>
      <trkpt lat="50.07309" lon="4.19563">
        <ele>188</ele>
        <time>2024-03-29T06:24:04Z</time>
      </trkpt>
      <trkpt lat="50.07317" lon="4.19562">
        <ele>187.8</ele>
        <time>2024-03-29T06:24:05Z</time>
      </trkpt>
      <trkpt lat="50.07326" lon="4.19561">
        <ele>187.8</ele>
        <time>2024-03-29T06:24:06Z</time>
      </trkpt>
      <trkpt lat="50.07334" lon="4.19561">
        <ele>187.6</ele>
        <time>2024-03-29T06:24:07Z</time>
      </trkpt>
      <trkpt lat="50.07342" lon="4.1956">
        <ele>187.4</ele>
        <time>2024-03-29T06:24:08Z</time>
      </trkpt>
      <trkpt lat="50.0735" lon="4.1956">
        <ele>187</ele>
        <time>2024-03-29T06:24:09Z</time>
      </trkpt>
      <trkpt lat="50.07359" lon="4.19559">
        <ele>186.8</ele>
        <time>2024-03-29T06:24:10Z</time>
      </trkpt>
      <trkpt lat="50.07367" lon="4.19559">
        <ele>186.2</ele>
        <time>2024-03-29T06:24:11Z</time>
      </trkpt>
      <trkpt lat="50.07375" lon="4.19558">
        <ele>185.8</ele>
        <time>2024-03-29T06:24:12Z</time>
      </trkpt>
      <trkpt lat="50.07384" lon="4.19558">
        <ele>185.4</ele>
        <time>2024-03-29T06:24:13Z</time>
      </trkpt>
      <trkpt lat="50.07392" lon="4.19558">
        <ele>185.4</ele>
        <time>2024-03-29T06:24:14Z</time>
      </trkpt>
      <trkpt lat="50.07401" lon="4.19558">
        <ele>185.2</ele>
        <time>2024-03-29T06:24:15Z</time>
      </trkpt>
      <trkpt lat="50.07409" lon="4.19558">
        <ele>185.2</ele>
        <time>2024-03-29T06:24:16Z</time>
      </trkpt>
      <trkpt lat="50.07417" lon="4.19559">
        <ele>185</ele>
        <time>2024-03-29T06:24:17Z</time>
      </trkpt>
      <trkpt lat="50.07426" lon="4.1956">
        <ele>184.8</ele>
        <time>2024-03-29T06:24:18Z</time>
      </trkpt>
      <trkpt lat="50.07435" lon="4.19561">
        <ele>184.6</ele>
        <time>2024-03-29T06:24:19Z</time>
      </trkpt>
      <trkpt lat="50.07444" lon="4.19563">
        <ele>184.6</ele>
        <time>2024-03-29T06:24:20Z</time>
      </trkpt>
      <trkpt lat="50.07453" lon="4.19564">
        <ele>184.4</ele>
        <time>2024-03-29T06:24:21Z</time>
      </trkpt>
      <trkpt lat="50.07462" lon="4.19565">
        <ele>184.4</ele>
        <time>2024-03-29T06:24:22Z</time>
      </trkpt>
      <trkpt lat="50.07471" lon="4.19567">
        <ele>184.4</ele>
        <time>2024-03-29T06:24:23Z</time>
      </trkpt>
      <trkpt lat="50.0748" lon="4.19567">
        <ele>184.4</ele>
        <time>2024-03-29T06:24:24Z</time>
      </trkpt>
      <trkpt lat="50.07489" lon="4.19568">
        <ele>184.2</ele>
        <time>2024-03-29T06:24:25Z</time>
      </trkpt>
      <trkpt lat="50.07498" lon="4.19567">
        <ele>184</ele>
        <time>2024-03-29T06:24:26Z</time>
      </trkpt>
      <trkpt lat="50.07507" lon="4.19564">
        <ele>184</ele>
        <time>2024-03-29T06:24:27Z</time>
      </trkpt>
      <trkpt lat="50.07515" lon="4.19559">
        <ele>184</ele>
        <time>2024-03-29T06:24:28Z</time>
      </trkpt>
      <trkpt lat="50.07523" lon="4.19552">
        <ele>184</ele>
        <time>2024-03-29T06:24:29Z</time>
      </trkpt>
      <trkpt lat="50.0753" lon="4.19543">
        <ele>183.8</ele>
        <time>2024-03-29T06:24:30Z</time>
      </trkpt>
      <trkpt lat="50.07536" lon="4.19533">
        <ele>183.6</ele>
        <time>2024-03-29T06:24:31Z</time>
      </trkpt>
      <trkpt lat="50.07541" lon="4.19521">
        <ele>183.6</ele>
        <time>2024-03-29T06:24:32Z</time>
      </trkpt>
      <trkpt lat="50.07546" lon="4.1951">
        <ele>183.4</ele>
        <time>2024-03-29T06:24:33Z</time>
      </trkpt>
      <trkpt lat="50.0755" lon="4.19498">
        <ele>183</ele>
        <time>2024-03-29T06:24:34Z</time>
      </trkpt>
      <trkpt lat="50.07554" lon="4.19486">
        <ele>182.8</ele>
        <time>2024-03-29T06:24:35Z</time>
      </trkpt>
      <trkpt lat="50.07558" lon="4.19475">
        <ele>182.6</ele>
        <time>2024-03-29T06:24:36Z</time>
      </trkpt>
      <trkpt lat="50.07562" lon="4.19463">
        <ele>182.4</ele>
        <time>2024-03-29T06:24:37Z</time>
      </trkpt>
      <trkpt lat="50.07566" lon="4.19452">
        <ele>182.4</ele>
        <time>2024-03-29T06:24:38Z</time>
      </trkpt>
      <trkpt lat="50.0757" lon="4.19442">
        <ele>182.4</ele>
        <time>2024-03-29T06:24:39Z</time>
      </trkpt>
      <trkpt lat="50.07574" lon="4.19432">
        <ele>182.2</ele>
        <time>2024-03-29T06:24:40Z</time>
      </trkpt>
      <trkpt lat="50.07578" lon="4.19422">
        <ele>182.2</ele>
        <time>2024-03-29T06:24:41Z</time>
      </trkpt>
      <trkpt lat="50.07583" lon="4.19413">
        <ele>182</ele>
        <time>2024-03-29T06:24:42Z</time>
      </trkpt>
      <trkpt lat="50.07588" lon="4.19403">
        <ele>181.6</ele>
        <time>2024-03-29T06:24:43Z</time>
      </trkpt>
      <trkpt lat="50.07593" lon="4.19395">
        <ele>181.6</ele>
        <time>2024-03-29T06:24:44Z</time>
      </trkpt>
      <trkpt lat="50.07599" lon="4.19387">
        <ele>181.4</ele>
        <time>2024-03-29T06:24:45Z</time>
      </trkpt>
      <trkpt lat="50.07605" lon="4.19381">
        <ele>181.2</ele>
        <time>2024-03-29T06:24:46Z</time>
      </trkpt>
      <trkpt lat="50.07612" lon="4.19375">
        <ele>181.2</ele>
        <time>2024-03-29T06:24:47Z</time>
      </trkpt>
      <trkpt lat="50.07617" lon="4.19369">
        <ele>181</ele>
        <time>2024-03-29T06:24:48Z</time>
      </trkpt>
      <trkpt lat="50.07623" lon="4.19364">
        <ele>181.2</ele>
        <time>2024-03-29T06:24:49Z</time>
      </trkpt>
      <trkpt lat="50.07629" lon="4.19359">
        <ele>181</ele>
        <time>2024-03-29T06:24:50Z</time>
      </trkpt>
      <trkpt lat="50.07635" lon="4.19355">
        <ele>181.2</ele>
        <time>2024-03-29T06:24:51Z</time>
      </trkpt>
      <trkpt lat="50.07641" lon="4.1935">
        <ele>181</ele>
        <time>2024-03-29T06:24:52Z</time>
      </trkpt>
      <trkpt lat="50.07647" lon="4.19345">
        <ele>181.2</ele>
        <time>2024-03-29T06:24:53Z</time>
      </trkpt>
      <trkpt lat="50.07652" lon="4.19341">
        <ele>181.2</ele>
        <time>2024-03-29T06:24:54Z</time>
      </trkpt>
      <trkpt lat="50.07658" lon="4.19336">
        <ele>181.4</ele>
        <time>2024-03-29T06:24:55Z</time>
      </trkpt>
      <trkpt lat="50.07664" lon="4.19331">
        <ele>181.8</ele>
        <time>2024-03-29T06:24:56Z</time>
      </trkpt>
      <trkpt lat="50.07669" lon="4.19326">
        <ele>181.8</ele>
        <time>2024-03-29T06:24:57Z</time>
      </trkpt>
      <trkpt lat="50.07675" lon="4.19321">
        <ele>182</ele>
        <time>2024-03-29T06:24:58Z</time>
      </trkpt>
      <trkpt lat="50.07681" lon="4.19317">
        <ele>182.4</ele>
        <time>2024-03-29T06:24:59Z</time>
      </trkpt>
      <trkpt lat="50.07687" lon="4.19312">
        <ele>182.6</ele>
        <time>2024-03-29T06:25:00Z</time>
      </trkpt>
      <trkpt lat="50.07692" lon="4.19308">
        <ele>182.8</ele>
        <time>2024-03-29T06:25:01Z</time>
      </trkpt>
      <trkpt lat="50.07698" lon="4.19304">
        <ele>183.2</ele>
        <time>2024-03-29T06:25:02Z</time>
      </trkpt>
      <trkpt lat="50.07704" lon="4.193">
        <ele>183.6</ele>
        <time>2024-03-29T06:25:03Z</time>
      </trkpt>
      <trkpt lat="50.0771" lon="4.19297">
        <ele>184.8</ele>
        <time>2024-03-29T06:25:04Z</time>
      </trkpt>
      <trkpt lat="50.07716" lon="4.19293">
        <ele>184.8</ele>
        <time>2024-03-29T06:25:05Z</time>
      </trkpt>
      <trkpt lat="50.07722" lon="4.1929">
        <ele>185.6</ele>
        <time>2024-03-29T06:25:06Z</time>
      </trkpt>
      <trkpt lat="50.07728" lon="4.19287">
        <ele>185.8</ele>
        <time>2024-03-29T06:25:07Z</time>
      </trkpt>
      <trkpt lat="50.07734" lon="4.19283">
        <ele>186.2</ele>
        <time>2024-03-29T06:25:08Z</time>
      </trkpt>
      <trkpt lat="50.0774" lon="4.1928">
        <ele>186.4</ele>
        <time>2024-03-29T06:25:09Z</time>
      </trkpt>
      <trkpt lat="50.07746" lon="4.19276">
        <ele>186.8</ele>
        <time>2024-03-29T06:25:10Z</time>
      </trkpt>
      <trkpt lat="50.07752" lon="4.19271">
        <ele>187</ele>
        <time>2024-03-29T06:25:11Z</time>
      </trkpt>
      <trkpt lat="50.07759" lon="4.19267">
        <ele>187.2</ele>
        <time>2024-03-29T06:25:12Z</time>
      </trkpt>
      <trkpt lat="50.07765" lon="4.19263">
        <ele>187.6</ele>
        <time>2024-03-29T06:25:13Z</time>
      </trkpt>
      <trkpt lat="50.07772" lon="4.19258">
        <ele>187.8</ele>
        <time>2024-03-29T06:25:14Z</time>
      </trkpt>
      <trkpt lat="50.07778" lon="4.19253">
        <ele>188.6</ele>
        <time>2024-03-29T06:25:15Z</time>
      </trkpt>
      <trkpt lat="50.07785" lon="4.19248">
        <ele>188.8</ele>
        <time>2024-03-29T06:25:16Z</time>
      </trkpt>
      <trkpt lat="50.07792" lon="4.19243">
        <ele>189.2</ele>
        <time>2024-03-29T06:25:17Z</time>
      </trkpt>
      <trkpt lat="50.07798" lon="4.19237">
        <ele>189.2</ele>
        <time>2024-03-29T06:25:18Z</time>
      </trkpt>
      <trkpt lat="50.07805" lon="4.19232">
        <ele>189.2</ele>
        <time>2024-03-29T06:25:19Z</time>
      </trkpt>
      <trkpt lat="50.07812" lon="4.19226">
        <ele>189.4</ele>
        <time>2024-03-29T06:25:20Z</time>
      </trkpt>
      <trkpt lat="50.07818" lon="4.19221">
        <ele>189.4</ele>
        <time>2024-03-29T06:25:21Z</time>
      </trkpt>
      <trkpt lat="50.07825" lon="4.19216">
        <ele>189.4</ele>
        <time>2024-03-29T06:25:22Z</time>
      </trkpt>
      <trkpt lat="50.07831" lon="4.19211">
        <ele>189.4</ele>
        <time>2024-03-29T06:25:23Z</time>
      </trkpt>
      <trkpt lat="50.07838" lon="4.19206">
        <ele>189.4</ele>
        <time>2024-03-29T06:25:24Z</time>
      </trkpt>
      <trkpt lat="50.07845" lon="4.192">
        <ele>189.4</ele>
        <time>2024-03-29T06:25:25Z</time>
      </trkpt>
      <trkpt lat="50.07851" lon="4.19195">
        <ele>189.4</ele>
        <time>2024-03-29T06:25:26Z</time>
      </trkpt>
      <trkpt lat="50.07858" lon="4.19191">
        <ele>189.4</ele>
        <time>2024-03-29T06:25:27Z</time>
      </trkpt>
      <trkpt lat="50.07865" lon="4.19186">
        <ele>189.2</ele>
        <time>2024-03-29T06:25:28Z</time>
      </trkpt>
      <trkpt lat="50.07872" lon="4.19181">
        <ele>189</ele>
        <time>2024-03-29T06:25:29Z</time>
      </trkpt>
      <trkpt lat="50.07879" lon="4.19177">
        <ele>188.6</ele>
        <time>2024-03-29T06:25:30Z</time>
      </trkpt>
      <trkpt lat="50.07886" lon="4.19173">
        <ele>188.4</ele>
        <time>2024-03-29T06:25:31Z</time>
      </trkpt>
      <trkpt lat="50.07893" lon="4.19168">
        <ele>188</ele>
        <time>2024-03-29T06:25:32Z</time>
      </trkpt>
      <trkpt lat="50.07901" lon="4.19163">
        <ele>187.4</ele>
        <time>2024-03-29T06:25:33Z</time>
      </trkpt>
      <trkpt lat="50.07908" lon="4.19158">
        <ele>187.4</ele>
        <time>2024-03-29T06:25:34Z</time>
      </trkpt>
      <trkpt lat="50.07916" lon="4.19153">
        <ele>187.2</ele>
        <time>2024-03-29T06:25:35Z</time>
      </trkpt>
      <trkpt lat="50.07923" lon="4.19148">
        <ele>186.8</ele>
        <time>2024-03-29T06:25:36Z</time>
      </trkpt>
      <trkpt lat="50.07931" lon="4.19143">
        <ele>186.6</ele>
        <time>2024-03-29T06:25:37Z</time>
      </trkpt>
      <trkpt lat="50.07939" lon="4.19138">
        <ele>186.6</ele>
        <time>2024-03-29T06:25:38Z</time>
      </trkpt>
      <trkpt lat="50.07947" lon="4.19133">
        <ele>186.4</ele>
        <time>2024-03-29T06:25:39Z</time>
      </trkpt>
      <trkpt lat="50.07955" lon="4.19128">
        <ele>186.4</ele>
        <time>2024-03-29T06:25:40Z</time>
      </trkpt>
      <trkpt lat="50.07962" lon="4.19124">
        <ele>186</ele>
        <time>2024-03-29T06:25:41Z</time>
      </trkpt>
      <trkpt lat="50.0797" lon="4.19119">
        <ele>186</ele>
        <time>2024-03-29T06:25:42Z</time>
      </trkpt>
      <trkpt lat="50.07978" lon="4.19116">
        <ele>186</ele>
        <time>2024-03-29T06:25:43Z</time>
      </trkpt>
      <trkpt lat="50.07986" lon="4.19112">
        <ele>185.8</ele>
        <time>2024-03-29T06:25:44Z</time>
      </trkpt>
      <trkpt lat="50.07994" lon="4.19109">
        <ele>185.8</ele>
        <time>2024-03-29T06:25:45Z</time>
      </trkpt>
      <trkpt lat="50.08002" lon="4.19106">
        <ele>185.6</ele>
        <time>2024-03-29T06:25:46Z</time>
      </trkpt>
      <trkpt lat="50.0801" lon="4.19104">
        <ele>185.4</ele>
        <time>2024-03-29T06:25:47Z</time>
      </trkpt>
      <trkpt lat="50.08018" lon="4.19101">
        <ele>185.4</ele>
        <time>2024-03-29T06:25:48Z</time>
      </trkpt>
      <trkpt lat="50.08025" lon="4.19099">
        <ele>185.4</ele>
        <time>2024-03-29T06:25:49Z</time>
      </trkpt>
      <trkpt lat="50.08033" lon="4.19097">
        <ele>185.2</ele>
        <time>2024-03-29T06:25:50Z</time>
      </trkpt>
      <trkpt lat="50.08041" lon="4.19095">
        <ele>185</ele>
        <time>2024-03-29T06:25:51Z</time>
      </trkpt>
      <trkpt lat="50.08049" lon="4.19094">
        <ele>184.6</ele>
        <time>2024-03-29T06:25:52Z</time>
      </trkpt>
      <trkpt lat="50.08056" lon="4.19094">
        <ele>184.4</ele>
        <time>2024-03-29T06:25:53Z</time>
      </trkpt>
      <trkpt lat="50.08064" lon="4.19093">
        <ele>184.2</ele>
        <time>2024-03-29T06:25:54Z</time>
      </trkpt>
      <trkpt lat="50.08072" lon="4.19093">
        <ele>184.2</ele>
        <time>2024-03-29T06:25:55Z</time>
      </trkpt>
      <trkpt lat="50.0808" lon="4.19092">
        <ele>184</ele>
        <time>2024-03-29T06:25:56Z</time>
      </trkpt>
      <trkpt lat="50.08088" lon="4.19091">
        <ele>184</ele>
        <time>2024-03-29T06:25:57Z</time>
      </trkpt>
      <trkpt lat="50.08096" lon="4.19091">
        <ele>184</ele>
        <time>2024-03-29T06:25:58Z</time>
      </trkpt>
      <trkpt lat="50.08104" lon="4.1909">
        <ele>184</ele>
        <time>2024-03-29T06:25:59Z</time>
      </trkpt>
      <trkpt lat="50.08112" lon="4.19089">
        <ele>184</ele>
        <time>2024-03-29T06:26:00Z</time>
      </trkpt>
      <trkpt lat="50.0812" lon="4.19089">
        <ele>184</ele>
        <time>2024-03-29T06:26:01Z</time>
      </trkpt>
      <trkpt lat="50.08127" lon="4.19088">
        <ele>183.8</ele>
        <time>2024-03-29T06:26:02Z</time>
      </trkpt>
      <trkpt lat="50.08135" lon="4.19087">
        <ele>183.6</ele>
        <time>2024-03-29T06:26:03Z</time>
      </trkpt>
      <trkpt lat="50.08143" lon="4.19087">
        <ele>183.6</ele>
        <time>2024-03-29T06:26:04Z</time>
      </trkpt>
      <trkpt lat="50.0815" lon="4.19086">
        <ele>183.8</ele>
        <time>2024-03-29T06:26:05Z</time>
      </trkpt>
      <trkpt lat="50.08157" lon="4.19086">
        <ele>183.6</ele>
        <time>2024-03-29T06:26:06Z</time>
      </trkpt>
      <trkpt lat="50.08165" lon="4.19086">
        <ele>183.6</ele>
        <time>2024-03-29T06:26:07Z</time>
      </trkpt>
      <trkpt lat="50.08172" lon="4.19087">
        <ele>183.6</ele>
        <time>2024-03-29T06:26:08Z</time>
      </trkpt>
      <trkpt lat="50.08179" lon="4.19089">
        <ele>183.6</ele>
        <time>2024-03-29T06:26:09Z</time>
      </trkpt>
      <trkpt lat="50.08186" lon="4.19091">
        <ele>183.6</ele>
        <time>2024-03-29T06:26:10Z</time>
      </trkpt>
      <trkpt lat="50.08192" lon="4.19094">
        <ele>183.6</ele>
        <time>2024-03-29T06:26:11Z</time>
      </trkpt>
      <trkpt lat="50.08199" lon="4.19097">
        <ele>183.6</ele>
        <time>2024-03-29T06:26:12Z</time>
      </trkpt>
      <trkpt lat="50.08205" lon="4.191">
        <ele>183.6</ele>
        <time>2024-03-29T06:26:13Z</time>
      </trkpt>
      <trkpt lat="50.08211" lon="4.19103">
        <ele>183.8</ele>
        <time>2024-03-29T06:26:14Z</time>
      </trkpt>
      <trkpt lat="50.08217" lon="4.19107">
        <ele>183.8</ele>
        <time>2024-03-29T06:26:15Z</time>
      </trkpt>
      <trkpt lat="50.08223" lon="4.1911">
        <ele>184</ele>
        <time>2024-03-29T06:26:16Z</time>
      </trkpt>
      <trkpt lat="50.08229" lon="4.19113">
        <ele>184</ele>
        <time>2024-03-29T06:26:17Z</time>
      </trkpt>
      <trkpt lat="50.08235" lon="4.19117">
        <ele>184.2</ele>
        <time>2024-03-29T06:26:18Z</time>
      </trkpt>
      <trkpt lat="50.08241" lon="4.1912">
        <ele>184.4</ele>
        <time>2024-03-29T06:26:19Z</time>
      </trkpt>
      <trkpt lat="50.08246" lon="4.19123">
        <ele>184.6</ele>
        <time>2024-03-29T06:26:20Z</time>
      </trkpt>
      <trkpt lat="50.08252" lon="4.19127">
        <ele>184.8</ele>
        <time>2024-03-29T06:26:21Z</time>
      </trkpt>
      <trkpt lat="50.08258" lon="4.19131">
        <ele>185.2</ele>
        <time>2024-03-29T06:26:22Z</time>
      </trkpt>
      <trkpt lat="50.08264" lon="4.19135">
        <ele>185.6</ele>
        <time>2024-03-29T06:26:23Z</time>
      </trkpt>
      <trkpt lat="50.0827" lon="4.19138">
        <ele>185.8</ele>
        <time>2024-03-29T06:26:24Z</time>
      </trkpt>
      <trkpt lat="50.08275" lon="4.19142">
        <ele>186</ele>
        <time>2024-03-29T06:26:25Z</time>
      </trkpt>
      <trkpt lat="50.08281" lon="4.19146">
        <ele>186</ele>
        <time>2024-03-29T06:26:26Z</time>
      </trkpt>
      <trkpt lat="50.08286" lon="4.1915">
        <ele>186.2</ele>
        <time>2024-03-29T06:26:27Z</time>
      </trkpt>
      <trkpt lat="50.08292" lon="4.19154">
        <ele>186.4</ele>
        <time>2024-03-29T06:26:28Z</time>
      </trkpt>
      <trkpt lat="50.08297" lon="4.19158">
        <ele>186.4</ele>
        <time>2024-03-29T06:26:29Z</time>
      </trkpt>
      <trkpt lat="50.08303" lon="4.19162">
        <ele>186.6</ele>
        <time>2024-03-29T06:26:30Z</time>
      </trkpt>
      <trkpt lat="50.08308" lon="4.19166">
        <ele>186.6</ele>
        <time>2024-03-29T06:26:31Z</time>
      </trkpt>
      <trkpt lat="50.08313" lon="4.1917">
        <ele>186.6</ele>
        <time>2024-03-29T06:26:32Z</time>
      </trkpt>
      <trkpt lat="50.08319" lon="4.19174">
        <ele>186.6</ele>
        <time>2024-03-29T06:26:33Z</time>
      </trkpt>
      <trkpt lat="50.08324" lon="4.19177">
        <ele>186.6</ele>
        <time>2024-03-29T06:26:34Z</time>
      </trkpt>
      <trkpt lat="50.08329" lon="4.1918">
        <ele>186.8</ele>
        <time>2024-03-29T06:26:35Z</time>
      </trkpt>
      <trkpt lat="50.08335" lon="4.19183">
        <ele>187</ele>
        <time>2024-03-29T06:26:36Z</time>
      </trkpt>
      <trkpt lat="50.0834" lon="4.19185">
        <ele>187.4</ele>
        <time>2024-03-29T06:26:37Z</time>
      </trkpt>
      <trkpt lat="50.08345" lon="4.19187">
        <ele>188</ele>
        <time>2024-03-29T06:26:38Z</time>
      </trkpt>
      <trkpt lat="50.08351" lon="4.19189">
        <ele>188.2</ele>
        <time>2024-03-29T06:26:39Z</time>
      </trkpt>
      <trkpt lat="50.08357" lon="4.19191">
        <ele>188.4</ele>
        <time>2024-03-29T06:26:40Z</time>
      </trkpt>
      <trkpt lat="50.08362" lon="4.19193">
        <ele>188.8</ele>
        <time>2024-03-29T06:26:41Z</time>
      </trkpt>
      <trkpt lat="50.08367" lon="4.19194">
        <ele>189</ele>
        <time>2024-03-29T06:26:42Z</time>
      </trkpt>
      <trkpt lat="50.08373" lon="4.19195">
        <ele>189.4</ele>
        <time>2024-03-29T06:26:43Z</time>
      </trkpt>
      <trkpt lat="50.08378" lon="4.19195">
        <ele>189.8</ele>
        <time>2024-03-29T06:26:44Z</time>
      </trkpt>
      <trkpt lat="50.08383" lon="4.19197">
        <ele>190</ele>
        <time>2024-03-29T06:26:45Z</time>
      </trkpt>
      <trkpt lat="50.08389" lon="4.19198">
        <ele>190.4</ele>
        <time>2024-03-29T06:26:46Z</time>
      </trkpt>
      <trkpt lat="50.08395" lon="4.192">
        <ele>190.8</ele>
        <time>2024-03-29T06:26:47Z</time>
      </trkpt>
      <trkpt lat="50.08401" lon="4.19201">
        <ele>191</ele>
        <time>2024-03-29T06:26:48Z</time>
      </trkpt>
      <trkpt lat="50.08407" lon="4.19202">
        <ele>191.2</ele>
        <time>2024-03-29T06:26:49Z</time>
      </trkpt>
      <trkpt lat="50.08413" lon="4.19204">
        <ele>191.2</ele>
        <time>2024-03-29T06:26:50Z</time>
      </trkpt>
      <trkpt lat="50.08419" lon="4.19205">
        <ele>191.4</ele>
        <time>2024-03-29T06:26:51Z</time>
      </trkpt>
      <trkpt lat="50.08425" lon="4.19207">
        <ele>191.6</ele>
        <time>2024-03-29T06:26:52Z</time>
      </trkpt>
      <trkpt lat="50.08431" lon="4.19209">
        <ele>191.6</ele>
        <time>2024-03-29T06:26:53Z</time>
      </trkpt>
      <trkpt lat="50.08437" lon="4.1921">
        <ele>191.8</ele>
        <time>2024-03-29T06:26:54Z</time>
      </trkpt>
      <trkpt lat="50.08443" lon="4.19212">
        <ele>191.8</ele>
        <time>2024-03-29T06:26:55Z</time>
      </trkpt>
      <trkpt lat="50.08449" lon="4.19215">
        <ele>192</ele>
        <time>2024-03-29T06:26:56Z</time>
      </trkpt>
      <trkpt lat="50.08456" lon="4.19217">
        <ele>192</ele>
        <time>2024-03-29T06:26:57Z</time>
      </trkpt>
      <trkpt lat="50.08462" lon="4.19219">
        <ele>192.2</ele>
        <time>2024-03-29T06:26:58Z</time>
      </trkpt>
      <trkpt lat="50.08469" lon="4.19222">
        <ele>192.2</ele>
        <time>2024-03-29T06:26:59Z</time>
      </trkpt>
      <trkpt lat="50.08476" lon="4.19225">
        <ele>192.2</ele>
        <time>2024-03-29T06:27:00Z</time>
      </trkpt>
      <trkpt lat="50.08483" lon="4.19228">
        <ele>192</ele>
        <time>2024-03-29T06:27:01Z</time>
      </trkpt>
      <trkpt lat="50.0849" lon="4.19232">
        <ele>192.2</ele>
        <time>2024-03-29T06:27:02Z</time>
      </trkpt>
      <trkpt lat="50.08498" lon="4.19236">
        <ele>192</ele>
        <time>2024-03-29T06:27:03Z</time>
      </trkpt>
      <trkpt lat="50.08506" lon="4.1924">
        <ele>192.2</ele>
        <time>2024-03-29T06:27:04Z</time>
      </trkpt>
      <trkpt lat="50.08514" lon="4.19244">
        <ele>192</ele>
        <time>2024-03-29T06:27:05Z</time>
      </trkpt>
      <trkpt lat="50.08522" lon="4.19247">
        <ele>191.8</ele>
        <time>2024-03-29T06:27:06Z</time>
      </trkpt>
      <trkpt lat="50.0853" lon="4.19252">
        <ele>191.8</ele>
        <time>2024-03-29T06:27:07Z</time>
      </trkpt>
      <trkpt lat="50.08538" lon="4.19256">
        <ele>191.6</ele>
        <time>2024-03-29T06:27:08Z</time>
      </trkpt>
      <trkpt lat="50.08546" lon="4.1926">
        <ele>191.6</ele>
        <time>2024-03-29T06:27:09Z</time>
      </trkpt>
      <trkpt lat="50.08554" lon="4.19265">
        <ele>191.2</ele>
        <time>2024-03-29T06:27:10Z</time>
      </trkpt>
      <trkpt lat="50.08563" lon="4.1927">
        <ele>191.2</ele>
        <time>2024-03-29T06:27:11Z</time>
      </trkpt>
      <trkpt lat="50.08571" lon="4.19276">
        <ele>190.8</ele>
        <time>2024-03-29T06:27:12Z</time>
      </trkpt>
      <trkpt lat="50.08579" lon="4.19281">
        <ele>190.2</ele>
        <time>2024-03-29T06:27:13Z</time>
      </trkpt>
      <trkpt lat="50.08588" lon="4.19287">
        <ele>189.6</ele>
        <time>2024-03-29T06:27:14Z</time>
      </trkpt>
      <trkpt lat="50.08596" lon="4.19291">
        <ele>188.6</ele>
        <time>2024-03-29T06:27:15Z</time>
      </trkpt>
      <trkpt lat="50.08605" lon="4.19296">
        <ele>188.6</ele>
        <time>2024-03-29T06:27:16Z</time>
      </trkpt>
      <trkpt lat="50.08614" lon="4.19301">
        <ele>188.2</ele>
        <time>2024-03-29T06:27:17Z</time>
      </trkpt>
      <trkpt lat="50.08623" lon="4.19305">
        <ele>188.2</ele>
        <time>2024-03-29T06:27:18Z</time>
      </trkpt>
      <trkpt lat="50.08632" lon="4.19309">
        <ele>187.8</ele>
        <time>2024-03-29T06:27:19Z</time>
      </trkpt>
      <trkpt lat="50.08641" lon="4.19313">
        <ele>187.4</ele>
        <time>2024-03-29T06:27:20Z</time>
      </trkpt>
      <trkpt lat="50.0865" lon="4.19317">
        <ele>186.8</ele>
        <time>2024-03-29T06:27:21Z</time>
      </trkpt>
      <trkpt lat="50.08659" lon="4.19321">
        <ele>186.4</ele>
        <time>2024-03-29T06:27:22Z</time>
      </trkpt>
      <trkpt lat="50.08668" lon="4.19324">
        <ele>186</ele>
        <time>2024-03-29T06:27:23Z</time>
      </trkpt>
      <trkpt lat="50.08677" lon="4.19327">
        <ele>185.6</ele>
        <time>2024-03-29T06:27:24Z</time>
      </trkpt>
      <trkpt lat="50.08686" lon="4.19329">
        <ele>184.4</ele>
        <time>2024-03-29T06:27:25Z</time>
      </trkpt>
      <trkpt lat="50.08695" lon="4.19332">
        <ele>183.6</ele>
        <time>2024-03-29T06:27:26Z</time>
      </trkpt>
      <trkpt lat="50.08704" lon="4.19334">
        <ele>183</ele>
        <time>2024-03-29T06:27:27Z</time>
      </trkpt>
      <trkpt lat="50.08713" lon="4.19335">
        <ele>182.6</ele>
        <time>2024-03-29T06:27:28Z</time>
      </trkpt>
      <trkpt lat="50.08721" lon="4.19336">
        <ele>182.2</ele>
        <time>2024-03-29T06:27:29Z</time>
      </trkpt>
      <trkpt lat="50.0873" lon="4.19336">
        <ele>182.2</ele>
        <time>2024-03-29T06:27:30Z</time>
      </trkpt>
      <trkpt lat="50.08739" lon="4.19336">
        <ele>182.2</ele>
        <time>2024-03-29T06:27:31Z</time>
      </trkpt>
      <trkpt lat="50.08748" lon="4.19336">
        <ele>182</ele>
        <time>2024-03-29T06:27:32Z</time>
      </trkpt>
      <trkpt lat="50.08756" lon="4.19335">
        <ele>182</ele>
        <time>2024-03-29T06:27:33Z</time>
      </trkpt>
      <trkpt lat="50.08765" lon="4.19334">
        <ele>182</ele>
        <time>2024-03-29T06:27:34Z</time>
      </trkpt>
      <trkpt lat="50.08774" lon="4.19333">
        <ele>181.8</ele>
        <time>2024-03-29T06:27:35Z</time>
      </trkpt>
      <trkpt lat="50.08782" lon="4.19332">
        <ele>181.8</ele>
        <time>2024-03-29T06:27:36Z</time>
      </trkpt>
      <trkpt lat="50.0879" lon="4.19331">
        <ele>181.8</ele>
        <time>2024-03-29T06:27:37Z</time>
      </trkpt>
      <trkpt lat="50.08799" lon="4.1933">
        <ele>181.8</ele>
        <time>2024-03-29T06:27:38Z</time>
      </trkpt>
      <trkpt lat="50.08807" lon="4.19329">
        <ele>181.6</ele>
        <time>2024-03-29T06:27:39Z</time>
      </trkpt>
      <trkpt lat="50.08815" lon="4.19328">
        <ele>181.6</ele>
        <time>2024-03-29T06:27:40Z</time>
      </trkpt>
      <trkpt lat="50.08823" lon="4.19327">
        <ele>181.8</ele>
        <time>2024-03-29T06:27:41Z</time>
      </trkpt>
      <trkpt lat="50.08831" lon="4.19326">
        <ele>181.8</ele>
        <time>2024-03-29T06:27:42Z</time>
      </trkpt>
      <trkpt lat="50.08838" lon="4.19325">
        <ele>181.8</ele>
        <time>2024-03-29T06:27:43Z</time>
      </trkpt>
      <trkpt lat="50.08846" lon="4.19324">
        <ele>181.6</ele>
        <time>2024-03-29T06:27:44Z</time>
      </trkpt>
      <trkpt lat="50.08854" lon="4.19323">
        <ele>181.8</ele>
        <time>2024-03-29T06:27:45Z</time>
      </trkpt>
      <trkpt lat="50.08861" lon="4.19322">
        <ele>181.8</ele>
        <time>2024-03-29T06:27:46Z</time>
      </trkpt>
      <trkpt lat="50.08869" lon="4.19321">
        <ele>181.8</ele>
        <time>2024-03-29T06:27:47Z</time>
      </trkpt>
      <trkpt lat="50.08876" lon="4.1932">
        <ele>181.8</ele>
        <time>2024-03-29T06:27:48Z</time>
      </trkpt>
      <trkpt lat="50.08884" lon="4.19319">
        <ele>181.6</ele>
        <time>2024-03-29T06:27:49Z</time>
      </trkpt>
      <trkpt lat="50.08891" lon="4.19319">
        <ele>181.8</ele>
        <time>2024-03-29T06:27:50Z</time>
      </trkpt>
      <trkpt lat="50.08899" lon="4.1932">
        <ele>181.8</ele>
        <time>2024-03-29T06:27:51Z</time>
      </trkpt>
      <trkpt lat="50.08906" lon="4.19321">
        <ele>181.6</ele>
        <time>2024-03-29T06:27:52Z</time>
      </trkpt>
      <trkpt lat="50.08913" lon="4.19323">
        <ele>181.6</ele>
        <time>2024-03-29T06:27:53Z</time>
      </trkpt>
      <trkpt lat="50.08921" lon="4.19325">
        <ele>181.6</ele>
        <time>2024-03-29T06:27:54Z</time>
      </trkpt>
      <trkpt lat="50.08928" lon="4.19328">
        <ele>181.6</ele>
        <time>2024-03-29T06:27:55Z</time>
      </trkpt>
      <trkpt lat="50.08934" lon="4.19331">
        <ele>181.6</ele>
        <time>2024-03-29T06:27:56Z</time>
      </trkpt>
      <trkpt lat="50.08941" lon="4.19334">
        <ele>181.8</ele>
        <time>2024-03-29T06:27:57Z</time>
      </trkpt>
      <trkpt lat="50.08948" lon="4.19337">
        <ele>181.6</ele>
        <time>2024-03-29T06:27:58Z</time>
      </trkpt>
      <trkpt lat="50.08955" lon="4.1934">
        <ele>181.6</ele>
        <time>2024-03-29T06:27:59Z</time>
      </trkpt>
      <trkpt lat="50.08961" lon="4.19343">
        <ele>181.6</ele>
        <time>2024-03-29T06:28:00Z</time>
      </trkpt>
      <trkpt lat="50.08967" lon="4.19346">
        <ele>181.8</ele>
        <time>2024-03-29T06:28:01Z</time>
      </trkpt>
      <trkpt lat="50.08974" lon="4.19349">
        <ele>181.8</ele>
        <time>2024-03-29T06:28:02Z</time>
      </trkpt>
      <trkpt lat="50.0898" lon="4.19351">
        <ele>181.8</ele>
        <time>2024-03-29T06:28:03Z</time>
      </trkpt>
      <trkpt lat="50.08986" lon="4.19354">
        <ele>181.8</ele>
        <time>2024-03-29T06:28:04Z</time>
      </trkpt>
      <trkpt lat="50.08992" lon="4.19356">
        <ele>182.2</ele>
        <time>2024-03-29T06:28:05Z</time>
      </trkpt>
      <trkpt lat="50.08999" lon="4.19358">
        <ele>182.2</ele>
        <time>2024-03-29T06:28:06Z</time>
      </trkpt>
      <trkpt lat="50.09005" lon="4.1936">
        <ele>182.2</ele>
        <time>2024-03-29T06:28:07Z</time>
      </trkpt>
      <trkpt lat="50.09011" lon="4.19361">
        <ele>182.2</ele>
        <time>2024-03-29T06:28:08Z</time>
      </trkpt>
      <trkpt lat="50.09018" lon="4.19362">
        <ele>182.4</ele>
        <time>2024-03-29T06:28:09Z</time>
      </trkpt>
      <trkpt lat="50.09024" lon="4.19363">
        <ele>182.4</ele>
        <time>2024-03-29T06:28:10Z</time>
      </trkpt>
      <trkpt lat="50.0903" lon="4.19364">
        <ele>182.4</ele>
        <time>2024-03-29T06:28:11Z</time>
      </trkpt>
      <trkpt lat="50.09037" lon="4.19364">
        <ele>182.4</ele>
        <time>2024-03-29T06:28:12Z</time>
      </trkpt>
      <trkpt lat="50.09043" lon="4.19365">
        <ele>182.8</ele>
        <time>2024-03-29T06:28:13Z</time>
      </trkpt>
      <trkpt lat="50.0905" lon="4.19365">
        <ele>183.4</ele>
        <time>2024-03-29T06:28:14Z</time>
      </trkpt>
      <trkpt lat="50.09056" lon="4.19365">
        <ele>183.8</ele>
        <time>2024-03-29T06:28:15Z</time>
      </trkpt>
      <trkpt lat="50.09063" lon="4.19364">
        <ele>184</ele>
        <time>2024-03-29T06:28:16Z</time>
      </trkpt>
      <trkpt lat="50.09069" lon="4.19364">
        <ele>184.4</ele>
        <time>2024-03-29T06:28:17Z</time>
      </trkpt>
      <trkpt lat="50.09075" lon="4.19364">
        <ele>184.6</ele>
        <time>2024-03-29T06:28:18Z</time>
      </trkpt>
      <trkpt lat="50.09082" lon="4.19364">
        <ele>185</ele>
        <time>2024-03-29T06:28:19Z</time>
      </trkpt>
      <trkpt lat="50.09088" lon="4.19364">
        <ele>185</ele>
        <time>2024-03-29T06:28:20Z</time>
      </trkpt>
      <trkpt lat="50.09095" lon="4.19364">
        <ele>185.2</ele>
        <time>2024-03-29T06:28:21Z</time>
      </trkpt>
      <trkpt lat="50.09101" lon="4.19364">
        <ele>185.4</ele>
        <time>2024-03-29T06:28:22Z</time>
      </trkpt>
      <trkpt lat="50.09108" lon="4.19364">
        <ele>185.4</ele>
        <time>2024-03-29T06:28:23Z</time>
      </trkpt>
      <trkpt lat="50.09114" lon="4.19364">
        <ele>185.6</ele>
        <time>2024-03-29T06:28:24Z</time>
      </trkpt>
      <trkpt lat="50.09121" lon="4.19365">
        <ele>185.8</ele>
        <time>2024-03-29T06:28:25Z</time>
      </trkpt>
      <trkpt lat="50.09127" lon="4.19365">
        <ele>185.8</ele>
        <time>2024-03-29T06:28:26Z</time>
      </trkpt>
      <trkpt lat="50.09134" lon="4.19365">
        <ele>186.2</ele>
        <time>2024-03-29T06:28:27Z</time>
      </trkpt>
      <trkpt lat="50.09141" lon="4.19365">
        <ele>186.2</ele>
        <time>2024-03-29T06:28:28Z</time>
      </trkpt>
      <trkpt lat="50.09147" lon="4.19365">
        <ele>186.4</ele>
        <time>2024-03-29T06:28:29Z</time>
      </trkpt>
      <trkpt lat="50.09154" lon="4.19365">
        <ele>186.6</ele>
        <time>2024-03-29T06:28:30Z</time>
      </trkpt>
      <trkpt lat="50.09161" lon="4.19365">
        <ele>186.4</ele>
        <time>2024-03-29T06:28:31Z</time>
      </trkpt>
      <trkpt lat="50.09167" lon="4.19365">
        <ele>186.6</ele>
        <time>2024-03-29T06:28:32Z</time>
      </trkpt>
      <trkpt lat="50.09174" lon="4.19365">
        <ele>186.6</ele>
        <time>2024-03-29T06:28:33Z</time>
      </trkpt>
      <trkpt lat="50.09181" lon="4.19364">
        <ele>186.6</ele>
        <time>2024-03-29T06:28:34Z</time>
      </trkpt>
      <trkpt lat="50.09189" lon="4.19363">
        <ele>186.6</ele>
        <time>2024-03-29T06:28:35Z</time>
      </trkpt>
      <trkpt lat="50.09196" lon="4.19362">
        <ele>186.6</ele>
        <time>2024-03-29T06:28:36Z</time>
      </trkpt>
      <trkpt lat="50.09203" lon="4.19361">
        <ele>186.8</ele>
        <time>2024-03-29T06:28:37Z</time>
      </trkpt>
      <trkpt lat="50.0921" lon="4.19359">
        <ele>186.6</ele>
        <time>2024-03-29T06:28:38Z</time>
      </trkpt>
      <trkpt lat="50.09218" lon="4.19357">
        <ele>186.6</ele>
        <time>2024-03-29T06:28:39Z</time>
      </trkpt>
      <trkpt lat="50.09225" lon="4.19355">
        <ele>186.2</ele>
        <time>2024-03-29T06:28:40Z</time>
      </trkpt>
      <trkpt lat="50.09232" lon="4.19352">
        <ele>185.8</ele>
        <time>2024-03-29T06:28:41Z</time>
      </trkpt>
      <trkpt lat="50.0924" lon="4.1935">
        <ele>185.8</ele>
        <time>2024-03-29T06:28:42Z</time>
      </trkpt>
      <trkpt lat="50.09247" lon="4.19347">
        <ele>185.8</ele>
        <time>2024-03-29T06:28:43Z</time>
      </trkpt>
      <trkpt lat="50.09254" lon="4.19344">
        <ele>185.2</ele>
        <time>2024-03-29T06:28:44Z</time>
      </trkpt>
      <trkpt lat="50.09262" lon="4.19341">
        <ele>184.8</ele>
        <time>2024-03-29T06:28:45Z</time>
      </trkpt>
      <trkpt lat="50.09269" lon="4.19338">
        <ele>184.8</ele>
        <time>2024-03-29T06:28:46Z</time>
      </trkpt>
      <trkpt lat="50.09277" lon="4.19336">
        <ele>184.6</ele>
        <time>2024-03-29T06:28:47Z</time>
      </trkpt>
      <trkpt lat="50.09284" lon="4.19334">
        <ele>184.4</ele>
        <time>2024-03-29T06:28:48Z</time>
      </trkpt>
      <trkpt lat="50.09292" lon="4.19333">
        <ele>184.4</ele>
        <time>2024-03-29T06:28:49Z</time>
      </trkpt>
      <trkpt lat="50.093" lon="4.19332">
        <ele>184.2</ele>
        <time>2024-03-29T06:28:50Z</time>
      </trkpt>
      <trkpt lat="50.09308" lon="4.19332">
        <ele>184.4</ele>
        <time>2024-03-29T06:28:51Z</time>
      </trkpt>
      <trkpt lat="50.09315" lon="4.19332">
        <ele>184.2</ele>
        <time>2024-03-29T06:28:52Z</time>
      </trkpt>
      <trkpt lat="50.09323" lon="4.19332">
        <ele>184</ele>
        <time>2024-03-29T06:28:53Z</time>
      </trkpt>
      <trkpt lat="50.09331" lon="4.19332">
        <ele>184.2</ele>
        <time>2024-03-29T06:28:54Z</time>
      </trkpt>
      <trkpt lat="50.09338" lon="4.19333">
        <ele>184</ele>
        <time>2024-03-29T06:28:55Z</time>
      </trkpt>
      <trkpt lat="50.09346" lon="4.19334">
        <ele>184</ele>
        <time>2024-03-29T06:28:56Z</time>
      </trkpt>
      <trkpt lat="50.09354" lon="4.19336">
        <ele>184</ele>
        <time>2024-03-29T06:28:57Z</time>
      </trkpt>
      <trkpt lat="50.09361" lon="4.19338">
        <ele>183.8</ele>
        <time>2024-03-29T06:28:58Z</time>
      </trkpt>
      <trkpt lat="50.09369" lon="4.19342">
        <ele>184</ele>
        <time>2024-03-29T06:28:59Z</time>
      </trkpt>
      <trkpt lat="50.09377" lon="4.19347">
        <ele>183.6</ele>
        <time>2024-03-29T06:29:00Z</time>
      </trkpt>
      <trkpt lat="50.09384" lon="4.19353">
        <ele>183.6</ele>
        <time>2024-03-29T06:29:01Z</time>
      </trkpt>
      <trkpt lat="50.09391" lon="4.1936">
        <ele>183.4</ele>
        <time>2024-03-29T06:29:02Z</time>
      </trkpt>
      <trkpt lat="50.09398" lon="4.19368">
        <ele>183.4</ele>
        <time>2024-03-29T06:29:03Z</time>
      </trkpt>
      <trkpt lat="50.09404" lon="4.19377">
        <ele>183.4</ele>
        <time>2024-03-29T06:29:04Z</time>
      </trkpt>
      <trkpt lat="50.0941" lon="4.19386">
        <ele>183.4</ele>
        <time>2024-03-29T06:29:05Z</time>
      </trkpt>
      <trkpt lat="50.09415" lon="4.19395">
        <ele>183.2</ele>
        <time>2024-03-29T06:29:06Z</time>
      </trkpt>
      <trkpt lat="50.09421" lon="4.19404">
        <ele>183</ele>
        <time>2024-03-29T06:29:07Z</time>
      </trkpt>
      <trkpt lat="50.09427" lon="4.19414">
        <ele>183</ele>
        <time>2024-03-29T06:29:08Z</time>
      </trkpt>
      <trkpt lat="50.09433" lon="4.19423">
        <ele>182.6</ele>
        <time>2024-03-29T06:29:09Z</time>
      </trkpt>
      <trkpt lat="50.09438" lon="4.19433">
        <ele>182.4</ele>
        <time>2024-03-29T06:29:10Z</time>
      </trkpt>
      <trkpt lat="50.09444" lon="4.19442">
        <ele>182.4</ele>
        <time>2024-03-29T06:29:11Z</time>
      </trkpt>
      <trkpt lat="50.0945" lon="4.19451">
        <ele>182.2</ele>
        <time>2024-03-29T06:29:12Z</time>
      </trkpt>
      <trkpt lat="50.09456" lon="4.19461">
        <ele>182</ele>
        <time>2024-03-29T06:29:13Z</time>
      </trkpt>
      <trkpt lat="50.09461" lon="4.1947">
        <ele>182</ele>
        <time>2024-03-29T06:29:14Z</time>
      </trkpt>
      <trkpt lat="50.09467" lon="4.19479">
        <ele>181.8</ele>
        <time>2024-03-29T06:29:15Z</time>
      </trkpt>
      <trkpt lat="50.09472" lon="4.19489">
        <ele>181.8</ele>
        <time>2024-03-29T06:29:16Z</time>
      </trkpt>
      <trkpt lat="50.09477" lon="4.19498">
        <ele>181.6</ele>
        <time>2024-03-29T06:29:17Z</time>
      </trkpt>
      <trkpt lat="50.09482" lon="4.19507">
        <ele>181.4</ele>
        <time>2024-03-29T06:29:18Z</time>
      </trkpt>
      <trkpt lat="50.09487" lon="4.19516">
        <ele>180.2</ele>
        <time>2024-03-29T06:29:19Z</time>
      </trkpt>
      <trkpt lat="50.09492" lon="4.19524">
        <ele>179.8</ele>
        <time>2024-03-29T06:29:20Z</time>
      </trkpt>
      <trkpt lat="50.09498" lon="4.19532">
        <ele>179.4</ele>
        <time>2024-03-29T06:29:21Z</time>
      </trkpt>
      <trkpt lat="50.09504" lon="4.19539">
        <ele>179.4</ele>
        <time>2024-03-29T06:29:22Z</time>
      </trkpt>
      <trkpt lat="50.0951" lon="4.19545">
        <ele>179.4</ele>
        <time>2024-03-29T06:29:23Z</time>
      </trkpt>
      <trkpt lat="50.09517" lon="4.19549">
        <ele>179.2</ele>
        <time>2024-03-29T06:29:24Z</time>
      </trkpt>
      <trkpt lat="50.09525" lon="4.19552">
        <ele>179.2</ele>
        <time>2024-03-29T06:29:25Z</time>
      </trkpt>
      <trkpt lat="50.09533" lon="4.19554">
        <ele>179.2</ele>
        <time>2024-03-29T06:29:26Z</time>
      </trkpt>
      <trkpt lat="50.09541" lon="4.19555">
        <ele>179.2</ele>
        <time>2024-03-29T06:29:27Z</time>
      </trkpt>
      <trkpt lat="50.09549" lon="4.19555">
        <ele>179.2</ele>
        <time>2024-03-29T06:29:28Z</time>
      </trkpt>
      <trkpt lat="50.09557" lon="4.19555">
        <ele>179.2</ele>
        <time>2024-03-29T06:29:29Z</time>
      </trkpt>
      <trkpt lat="50.09566" lon="4.19555">
        <ele>179</ele>
        <time>2024-03-29T06:29:30Z</time>
      </trkpt>
      <trkpt lat="50.09574" lon="4.19554">
        <ele>179</ele>
        <time>2024-03-29T06:29:31Z</time>
      </trkpt>
      <trkpt lat="50.09583" lon="4.19553">
        <ele>179</ele>
        <time>2024-03-29T06:29:32Z</time>
      </trkpt>
      <trkpt lat="50.09591" lon="4.1955">
        <ele>179</ele>
        <time>2024-03-29T06:29:33Z</time>
      </trkpt>
      <trkpt lat="50.096" lon="4.19546">
        <ele>179</ele>
        <time>2024-03-29T06:29:34Z</time>
      </trkpt>
      <trkpt lat="50.09608" lon="4.19541">
        <ele>179</ele>
        <time>2024-03-29T06:29:35Z</time>
      </trkpt>
      <trkpt lat="50.09615" lon="4.19534">
        <ele>178.6</ele>
        <time>2024-03-29T06:29:36Z</time>
      </trkpt>
      <trkpt lat="50.09622" lon="4.19526">
        <ele>178.4</ele>
        <time>2024-03-29T06:29:37Z</time>
      </trkpt>
      <trkpt lat="50.09628" lon="4.19517">
        <ele>178</ele>
        <time>2024-03-29T06:29:38Z</time>
      </trkpt>
      <trkpt lat="50.09634" lon="4.19508">
        <ele>177.6</ele>
        <time>2024-03-29T06:29:39Z</time>
      </trkpt>
      <trkpt lat="50.0964" lon="4.19499">
        <ele>177.4</ele>
        <time>2024-03-29T06:29:40Z</time>
      </trkpt>
      <trkpt lat="50.09646" lon="4.19491">
        <ele>177.2</ele>
        <time>2024-03-29T06:29:41Z</time>
      </trkpt>
      <trkpt lat="50.09653" lon="4.19484">
        <ele>177</ele>
        <time>2024-03-29T06:29:42Z</time>
      </trkpt>
      <trkpt lat="50.09659" lon="4.19477">
        <ele>176.8</ele>
        <time>2024-03-29T06:29:43Z</time>
      </trkpt>
      <trkpt lat="50.09665" lon="4.1947">
        <ele>176.8</ele>
        <time>2024-03-29T06:29:44Z</time>
      </trkpt>
      <trkpt lat="50.09671" lon="4.19464">
        <ele>176.8</ele>
        <time>2024-03-29T06:29:45Z</time>
      </trkpt>
      <trkpt lat="50.09677" lon="4.19457">
        <ele>176.8</ele>
        <time>2024-03-29T06:29:46Z</time>
      </trkpt>
      <trkpt lat="50.09684" lon="4.19451">
        <ele>176.8</ele>
        <time>2024-03-29T06:29:47Z</time>
      </trkpt>
      <trkpt lat="50.0969" lon="4.19445">
        <ele>176.8</ele>
        <time>2024-03-29T06:29:48Z</time>
      </trkpt>
      <trkpt lat="50.09696" lon="4.19438">
        <ele>176.8</ele>
        <time>2024-03-29T06:29:49Z</time>
      </trkpt>
      <trkpt lat="50.09702" lon="4.19432">
        <ele>176.8</ele>
        <time>2024-03-29T06:29:50Z</time>
      </trkpt>
      <trkpt lat="50.09708" lon="4.19427">
        <ele>176.8</ele>
        <time>2024-03-29T06:29:51Z</time>
      </trkpt>
      <trkpt lat="50.09714" lon="4.19421">
        <ele>176.8</ele>
        <time>2024-03-29T06:29:52Z</time>
      </trkpt>
      <trkpt lat="50.09721" lon="4.19417">
        <ele>176.8</ele>
        <time>2024-03-29T06:29:53Z</time>
      </trkpt>
      <trkpt lat="50.09727" lon="4.19413">
        <ele>176.8</ele>
        <time>2024-03-29T06:29:54Z</time>
      </trkpt>
      <trkpt lat="50.09734" lon="4.19411">
        <ele>176.8</ele>
        <time>2024-03-29T06:29:55Z</time>
      </trkpt>
      <trkpt lat="50.09741" lon="4.19409">
        <ele>176.6</ele>
        <time>2024-03-29T06:29:56Z</time>
      </trkpt>
      <trkpt lat="50.09747" lon="4.19408">
        <ele>176.8</ele>
        <time>2024-03-29T06:29:57Z</time>
      </trkpt>
      <trkpt lat="50.09754" lon="4.19408">
        <ele>176.8</ele>
        <time>2024-03-29T06:29:58Z</time>
      </trkpt>
      <trkpt lat="50.0976" lon="4.19408">
        <ele>177</ele>
        <time>2024-03-29T06:29:59Z</time>
      </trkpt>
      <trkpt lat="50.09767" lon="4.19409">
        <ele>177</ele>
        <time>2024-03-29T06:30:00Z</time>
      </trkpt>
      <trkpt lat="50.09774" lon="4.19409">
        <ele>177</ele>
        <time>2024-03-29T06:30:01Z</time>
      </trkpt>
      <trkpt lat="50.09781" lon="4.19409">
        <ele>177</ele>
        <time>2024-03-29T06:30:02Z</time>
      </trkpt>
      <trkpt lat="50.09788" lon="4.19409">
        <ele>177</ele>
        <time>2024-03-29T06:30:03Z</time>
      </trkpt>
      <trkpt lat="50.09795" lon="4.19409">
        <ele>177</ele>
        <time>2024-03-29T06:30:04Z</time>
      </trkpt>
      <trkpt lat="50.09802" lon="4.1941">
        <ele>177.2</ele>
        <time>2024-03-29T06:30:05Z</time>
      </trkpt>
      <trkpt lat="50.09809" lon="4.1941">
        <ele>177.2</ele>
        <time>2024-03-29T06:30:06Z</time>
      </trkpt>
      <trkpt lat="50.09817" lon="4.1941">
        <ele>177.2</ele>
        <time>2024-03-29T06:30:07Z</time>
      </trkpt>
      <trkpt lat="50.09824" lon="4.1941">
        <ele>177.2</ele>
        <time>2024-03-29T06:30:08Z</time>
      </trkpt>
      <trkpt lat="50.09831" lon="4.19411">
        <ele>177.2</ele>
        <time>2024-03-29T06:30:09Z</time>
      </trkpt>
      <trkpt lat="50.09838" lon="4.19411">
        <ele>177.2</ele>
        <time>2024-03-29T06:30:10Z</time>
      </trkpt>
      <trkpt lat="50.09845" lon="4.19411">
        <ele>177.2</ele>
        <time>2024-03-29T06:30:11Z</time>
      </trkpt>
      <trkpt lat="50.09852" lon="4.19411">
        <ele>177.2</ele>
        <time>2024-03-29T06:30:12Z</time>
      </trkpt>
      <trkpt lat="50.09858" lon="4.19412">
        <ele>177.6</ele>
        <time>2024-03-29T06:30:13Z</time>
      </trkpt>
      <trkpt lat="50.09865" lon="4.19412">
        <ele>177.6</ele>
        <time>2024-03-29T06:30:14Z</time>
      </trkpt>
      <trkpt lat="50.09871" lon="4.19412">
        <ele>177.8</ele>
        <time>2024-03-29T06:30:15Z</time>
      </trkpt>
      <trkpt lat="50.09877" lon="4.19412">
        <ele>178</ele>
        <time>2024-03-29T06:30:16Z</time>
      </trkpt>
      <trkpt lat="50.09883" lon="4.19412">
        <ele>178.2</ele>
        <time>2024-03-29T06:30:17Z</time>
      </trkpt>
      <trkpt lat="50.09889" lon="4.19412">
        <ele>178.2</ele>
        <time>2024-03-29T06:30:18Z</time>
      </trkpt>
      <trkpt lat="50.09895" lon="4.19412">
        <ele>178.4</ele>
        <time>2024-03-29T06:30:19Z</time>
      </trkpt>
      <trkpt lat="50.09901" lon="4.19412">
        <ele>178.4</ele>
        <time>2024-03-29T06:30:20Z</time>
      </trkpt>
      <trkpt lat="50.09906" lon="4.19412">
        <ele>178.6</ele>
        <time>2024-03-29T06:30:21Z</time>
      </trkpt>
      <trkpt lat="50.09912" lon="4.19411">
        <ele>178.6</ele>
        <time>2024-03-29T06:30:22Z</time>
      </trkpt>
      <trkpt lat="50.09918" lon="4.19411">
        <ele>179.2</ele>
        <time>2024-03-29T06:30:23Z</time>
      </trkpt>
      <trkpt lat="50.09924" lon="4.1941">
        <ele>179.6</ele>
        <time>2024-03-29T06:30:24Z</time>
      </trkpt>
      <trkpt lat="50.0993" lon="4.19409">
        <ele>179.8</ele>
        <time>2024-03-29T06:30:25Z</time>
      </trkpt>
      <trkpt lat="50.09936" lon="4.19409">
        <ele>180.2</ele>
        <time>2024-03-29T06:30:26Z</time>
      </trkpt>
      <trkpt lat="50.09942" lon="4.19408">
        <ele>180.4</ele>
        <time>2024-03-29T06:30:27Z</time>
      </trkpt>
      <trkpt lat="50.09948" lon="4.19407">
        <ele>180.4</ele>
        <time>2024-03-29T06:30:28Z</time>
      </trkpt>
      <trkpt lat="50.09954" lon="4.19406">
        <ele>180.6</ele>
        <time>2024-03-29T06:30:29Z</time>
      </trkpt>
      <trkpt lat="50.0996" lon="4.19405">
        <ele>180.8</ele>
        <time>2024-03-29T06:30:30Z</time>
      </trkpt>
      <trkpt lat="50.09966" lon="4.19405">
        <ele>180.8</ele>
        <time>2024-03-29T06:30:31Z</time>
      </trkpt>
      <trkpt lat="50.09973" lon="4.19404">
        <ele>181.2</ele>
        <time>2024-03-29T06:30:32Z</time>
      </trkpt>
      <trkpt lat="50.09979" lon="4.19403">
        <ele>181.4</ele>
        <time>2024-03-29T06:30:33Z</time>
      </trkpt>
      <trkpt lat="50.09985" lon="4.19403">
        <ele>181.6</ele>
        <time>2024-03-29T06:30:34Z</time>
      </trkpt>
      <trkpt lat="50.09991" lon="4.19402">
        <ele>181.8</ele>
        <time>2024-03-29T06:30:35Z</time>
      </trkpt>
      <trkpt lat="50.09997" lon="4.19401">
        <ele>182</ele>
        <time>2024-03-29T06:30:36Z</time>
      </trkpt>
      <trkpt lat="50.10003" lon="4.194">
        <ele>182.2</ele>
        <time>2024-03-29T06:30:37Z</time>
      </trkpt>
      <trkpt lat="50.10009" lon="4.19399">
        <ele>182.6</ele>
        <time>2024-03-29T06:30:38Z</time>
      </trkpt>
      <trkpt lat="50.10016" lon="4.19398">
        <ele>183</ele>
        <time>2024-03-29T06:30:39Z</time>
      </trkpt>
      <trkpt lat="50.10022" lon="4.19396">
        <ele>183.2</ele>
        <time>2024-03-29T06:30:40Z</time>
      </trkpt>
      <trkpt lat="50.10028" lon="4.19394">
        <ele>183.4</ele>
        <time>2024-03-29T06:30:41Z</time>
      </trkpt>
      <trkpt lat="50.10035" lon="4.19392">
        <ele>183.6</ele>
        <time>2024-03-29T06:30:42Z</time>
      </trkpt>
      <trkpt lat="50.10041" lon="4.19388">
        <ele>183.8</ele>
        <time>2024-03-29T06:30:43Z</time>
      </trkpt>
      <trkpt lat="50.10048" lon="4.19385">
        <ele>184</ele>
        <time>2024-03-29T06:30:44Z</time>
      </trkpt>
      <trkpt lat="50.10054" lon="4.19381">
        <ele>184.4</ele>
        <time>2024-03-29T06:30:45Z</time>
      </trkpt>
      <trkpt lat="50.10061" lon="4.19377">
        <ele>184.6</ele>
        <time>2024-03-29T06:30:46Z</time>
      </trkpt>
      <trkpt lat="50.10067" lon="4.19373">
        <ele>184.8</ele>
        <time>2024-03-29T06:30:47Z</time>
      </trkpt>
      <trkpt lat="50.10073" lon="4.19368">
        <ele>184.8</ele>
        <time>2024-03-29T06:30:48Z</time>
      </trkpt>
      <trkpt lat="50.1008" lon="4.19363">
        <ele>185</ele>
        <time>2024-03-29T06:30:49Z</time>
      </trkpt>
      <trkpt lat="50.10086" lon="4.19358">
        <ele>184.8</ele>
        <time>2024-03-29T06:30:50Z</time>
      </trkpt>
      <trkpt lat="50.10093" lon="4.19353">
        <ele>185</ele>
        <time>2024-03-29T06:30:51Z</time>
      </trkpt>
      <trkpt lat="50.10099" lon="4.19347">
        <ele>185</ele>
        <time>2024-03-29T06:30:52Z</time>
      </trkpt>
      <trkpt lat="50.10106" lon="4.19342">
        <ele>185</ele>
        <time>2024-03-29T06:30:53Z</time>
      </trkpt>
      <trkpt lat="50.10113" lon="4.19338">
        <ele>185</ele>
        <time>2024-03-29T06:30:54Z</time>
      </trkpt>
      <trkpt lat="50.10121" lon="4.19333">
        <ele>185</ele>
        <time>2024-03-29T06:30:55Z</time>
      </trkpt>
      <trkpt lat="50.10129" lon="4.1933">
        <ele>185</ele>
        <time>2024-03-29T06:30:56Z</time>
      </trkpt>
      <trkpt lat="50.10137" lon="4.19328">
        <ele>185</ele>
        <time>2024-03-29T06:30:57Z</time>
      </trkpt>
      <trkpt lat="50.10145" lon="4.19326">
        <ele>185</ele>
        <time>2024-03-29T06:30:58Z</time>
      </trkpt>
      <trkpt lat="50.10154" lon="4.19324">
        <ele>185</ele>
        <time>2024-03-29T06:30:59Z</time>
      </trkpt>
      <trkpt lat="50.10162" lon="4.19323">
        <ele>184.8</ele>
        <time>2024-03-29T06:31:00Z</time>
      </trkpt>
      <trkpt lat="50.10171" lon="4.19323">
        <ele>184.8</ele>
        <time>2024-03-29T06:31:01Z</time>
      </trkpt>
      <trkpt lat="50.1018" lon="4.19323">
        <ele>184.8</ele>
        <time>2024-03-29T06:31:02Z</time>
      </trkpt>
      <trkpt lat="50.10188" lon="4.19323">
        <ele>184.2</ele>
        <time>2024-03-29T06:31:03Z</time>
      </trkpt>
      <trkpt lat="50.10197" lon="4.19324">
        <ele>183.8</ele>
        <time>2024-03-29T06:31:04Z</time>
      </trkpt>
      <trkpt lat="50.10206" lon="4.19324">
        <ele>183.6</ele>
        <time>2024-03-29T06:31:05Z</time>
      </trkpt>
      <trkpt lat="50.10214" lon="4.19324">
        <ele>183.2</ele>
        <time>2024-03-29T06:31:06Z</time>
      </trkpt>
      <trkpt lat="50.10223" lon="4.19324">
        <ele>182.8</ele>
        <time>2024-03-29T06:31:07Z</time>
      </trkpt>
      <trkpt lat="50.10232" lon="4.19324">
        <ele>182.8</ele>
        <time>2024-03-29T06:31:08Z</time>
      </trkpt>
      <trkpt lat="50.1024" lon="4.19324">
        <ele>182.8</ele>
        <time>2024-03-29T06:31:09Z</time>
      </trkpt>
      <trkpt lat="50.10249" lon="4.19324">
        <ele>182.4</ele>
        <time>2024-03-29T06:31:10Z</time>
      </trkpt>
      <trkpt lat="50.10258" lon="4.19324">
        <ele>182.2</ele>
        <time>2024-03-29T06:31:11Z</time>
      </trkpt>
      <trkpt lat="50.10267" lon="4.19324">
        <ele>181.8</ele>
        <time>2024-03-29T06:31:12Z</time>
      </trkpt>
      <trkpt lat="50.10275" lon="4.19324">
        <ele>181.8</ele>
        <time>2024-03-29T06:31:13Z</time>
      </trkpt>
      <trkpt lat="50.10284" lon="4.19324">
        <ele>181.8</ele>
        <time>2024-03-29T06:31:14Z</time>
      </trkpt>
      <trkpt lat="50.10293" lon="4.19324">
        <ele>181.8</ele>
        <time>2024-03-29T06:31:15Z</time>
      </trkpt>
      <trkpt lat="50.10302" lon="4.19324">
        <ele>181.8</ele>
        <time>2024-03-29T06:31:16Z</time>
      </trkpt>
      <trkpt lat="50.10311" lon="4.19324">
        <ele>181.6</ele>
        <time>2024-03-29T06:31:17Z</time>
      </trkpt>
      <trkpt lat="50.10321" lon="4.19324">
        <ele>181.8</ele>
        <time>2024-03-29T06:31:18Z</time>
      </trkpt>
      <trkpt lat="50.1033" lon="4.19324">
        <ele>181.6</ele>
        <time>2024-03-29T06:31:19Z</time>
      </trkpt>
      <trkpt lat="50.1034" lon="4.19324">
        <ele>181.2</ele>
        <time>2024-03-29T06:31:20Z</time>
      </trkpt>
      <trkpt lat="50.10349" lon="4.19324">
        <ele>180.4</ele>
        <time>2024-03-29T06:31:21Z</time>
      </trkpt>
      <trkpt lat="50.10359" lon="4.19324">
        <ele>179.8</ele>
        <time>2024-03-29T06:31:22Z</time>
      </trkpt>
      <trkpt lat="50.10368" lon="4.19324">
        <ele>179.6</ele>
        <time>2024-03-29T06:31:23Z</time>
      </trkpt>
      <trkpt lat="50.10378" lon="4.19324">
        <ele>179.4</ele>
        <time>2024-03-29T06:31:24Z</time>
      </trkpt>
      <trkpt lat="50.10387" lon="4.19323">
        <ele>179.2</ele>
        <time>2024-03-29T06:31:25Z</time>
      </trkpt>
      <trkpt lat="50.10397" lon="4.19324">
        <ele>179</ele>
        <time>2024-03-29T06:31:26Z</time>
      </trkpt>
      <trkpt lat="50.10406" lon="4.19324">
        <ele>178.8</ele>
        <time>2024-03-29T06:31:27Z</time>
      </trkpt>
      <trkpt lat="50.10415" lon="4.19324">
        <ele>178.6</ele>
        <time>2024-03-29T06:31:28Z</time>
      </trkpt>
      <trkpt lat="50.10424" lon="4.19326">
        <ele>178.4</ele>
        <time>2024-03-29T06:31:29Z</time>
      </trkpt>
      <trkpt lat="50.10433" lon="4.19327">
        <ele>178.4</ele>
        <time>2024-03-29T06:31:30Z</time>
      </trkpt>
      <trkpt lat="50.10442" lon="4.19329">
        <ele>178</ele>
        <time>2024-03-29T06:31:31Z</time>
      </trkpt>
      <trkpt lat="50.1045" lon="4.19331">
        <ele>177.8</ele>
        <time>2024-03-29T06:31:32Z</time>
      </trkpt>
      <trkpt lat="50.10458" lon="4.19332">
        <ele>177.8</ele>
        <time>2024-03-29T06:31:33Z</time>
      </trkpt>
      <trkpt lat="50.10466" lon="4.19334">
        <ele>177.6</ele>
        <time>2024-03-29T06:31:34Z</time>
      </trkpt>
      <trkpt lat="50.10474" lon="4.19335">
        <ele>177.6</ele>
        <time>2024-03-29T06:31:35Z</time>
      </trkpt>
      <trkpt lat="50.10481" lon="4.19336">
        <ele>177.6</ele>
        <time>2024-03-29T06:31:36Z</time>
      </trkpt>
      <trkpt lat="50.10489" lon="4.19337">
        <ele>177.6</ele>
        <time>2024-03-29T06:31:37Z</time>
      </trkpt>
      <trkpt lat="50.10496" lon="4.19337">
        <ele>177.4</ele>
        <time>2024-03-29T06:31:38Z</time>
      </trkpt>
      <trkpt lat="50.10503" lon="4.19338">
        <ele>177.6</ele>
        <time>2024-03-29T06:31:39Z</time>
      </trkpt>
      <trkpt lat="50.10509" lon="4.19339">
        <ele>177.4</ele>
        <time>2024-03-29T06:31:40Z</time>
      </trkpt>
      <trkpt lat="50.10516" lon="4.1934">
        <ele>177.4</ele>
        <time>2024-03-29T06:31:41Z</time>
      </trkpt>
      <trkpt lat="50.10523" lon="4.19342">
        <ele>177.4</ele>
        <time>2024-03-29T06:31:42Z</time>
      </trkpt>
      <trkpt lat="50.1053" lon="4.19343">
        <ele>177.4</ele>
        <time>2024-03-29T06:31:43Z</time>
      </trkpt>
      <trkpt lat="50.10537" lon="4.19344">
        <ele>177.4</ele>
        <time>2024-03-29T06:31:44Z</time>
      </trkpt>
      <trkpt lat="50.10544" lon="4.19346">
        <ele>177.4</ele>
        <time>2024-03-29T06:31:45Z</time>
      </trkpt>
      <trkpt lat="50.10551" lon="4.19347">
        <ele>177.4</ele>
        <time>2024-03-29T06:31:46Z</time>
      </trkpt>
      <trkpt lat="50.10558" lon="4.19349">
        <ele>177.6</ele>
        <time>2024-03-29T06:31:47Z</time>
      </trkpt>
      <trkpt lat="50.10566" lon="4.1935">
        <ele>177.6</ele>
        <time>2024-03-29T06:31:48Z</time>
      </trkpt>
      <trkpt lat="50.10574" lon="4.19351">
        <ele>177.8</ele>
        <time>2024-03-29T06:31:49Z</time>
      </trkpt>
      <trkpt lat="50.10582" lon="4.19352">
        <ele>177.8</ele>
        <time>2024-03-29T06:31:50Z</time>
      </trkpt>
      <trkpt lat="50.1059" lon="4.19351">
        <ele>177.6</ele>
        <time>2024-03-29T06:31:51Z</time>
      </trkpt>
      <trkpt lat="50.10598" lon="4.19351">
        <ele>177.4</ele>
        <time>2024-03-29T06:31:52Z</time>
      </trkpt>
      <trkpt lat="50.10606" lon="4.1935">
        <ele>177.4</ele>
        <time>2024-03-29T06:31:53Z</time>
      </trkpt>
      <trkpt lat="50.10614" lon="4.19349">
        <ele>177.4</ele>
        <time>2024-03-29T06:31:54Z</time>
      </trkpt>
      <trkpt lat="50.10622" lon="4.19347">
        <ele>177.2</ele>
        <time>2024-03-29T06:31:55Z</time>
      </trkpt>
      <trkpt lat="50.1063" lon="4.19346">
        <ele>177.2</ele>
        <time>2024-03-29T06:31:56Z</time>
      </trkpt>
      <trkpt lat="50.10638" lon="4.19345">
        <ele>177.2</ele>
        <time>2024-03-29T06:31:57Z</time>
      </trkpt>
      <trkpt lat="50.10645" lon="4.19342">
        <ele>177</ele>
        <time>2024-03-29T06:31:58Z</time>
      </trkpt>
      <trkpt lat="50.10653" lon="4.19339">
        <ele>177</ele>
        <time>2024-03-29T06:31:59Z</time>
      </trkpt>
      <trkpt lat="50.1066" lon="4.19333">
        <ele>176.6</ele>
        <time>2024-03-29T06:32:00Z</time>
      </trkpt>
      <trkpt lat="50.10666" lon="4.19327">
        <ele>176.2</ele>
        <time>2024-03-29T06:32:01Z</time>
      </trkpt>
      <trkpt lat="50.10672" lon="4.19319">
        <ele>176.2</ele>
        <time>2024-03-29T06:32:02Z</time>
      </trkpt>
      <trkpt lat="50.10677" lon="4.19311">
        <ele>176.2</ele>
        <time>2024-03-29T06:32:03Z</time>
      </trkpt>
      <trkpt lat="50.10682" lon="4.19303">
        <ele>176.2</ele>
        <time>2024-03-29T06:32:04Z</time>
      </trkpt>
      <trkpt lat="50.10687" lon="4.19295">
        <ele>176.2</ele>
        <time>2024-03-29T06:32:05Z</time>
      </trkpt>
      <trkpt lat="50.10691" lon="4.19286">
        <ele>176.2</ele>
        <time>2024-03-29T06:32:06Z</time>
      </trkpt>
      <trkpt lat="50.10696" lon="4.19278">
        <ele>176</ele>
        <time>2024-03-29T06:32:07Z</time>
      </trkpt>
      <trkpt lat="50.107" lon="4.1927">
        <ele>176.2</ele>
        <time>2024-03-29T06:32:08Z</time>
      </trkpt>
      <trkpt lat="50.10705" lon="4.19262">
        <ele>176.2</ele>
        <time>2024-03-29T06:32:09Z</time>
      </trkpt>
      <trkpt lat="50.10709" lon="4.19255">
        <ele>176</ele>
        <time>2024-03-29T06:32:10Z</time>
      </trkpt>
      <trkpt lat="50.10714" lon="4.19248">
        <ele>176.2</ele>
        <time>2024-03-29T06:32:11Z</time>
      </trkpt>
      <trkpt lat="50.10718" lon="4.1924">
        <ele>176.2</ele>
        <time>2024-03-29T06:32:12Z</time>
      </trkpt>
      <trkpt lat="50.10723" lon="4.19234">
        <ele>176.2</ele>
        <time>2024-03-29T06:32:13Z</time>
      </trkpt>
      <trkpt lat="50.10728" lon="4.19227">
        <ele>176.4</ele>
        <time>2024-03-29T06:32:14Z</time>
      </trkpt>
      <trkpt lat="50.10733" lon="4.19221">
        <ele>177</ele>
        <time>2024-03-29T06:32:15Z</time>
      </trkpt>
      <trkpt lat="50.10737" lon="4.19215">
        <ele>177.6</ele>
        <time>2024-03-29T06:32:16Z</time>
      </trkpt>
      <trkpt lat="50.10742" lon="4.19208">
        <ele>178</ele>
        <time>2024-03-29T06:32:17Z</time>
      </trkpt>
      <trkpt lat="50.10746" lon="4.19203">
        <ele>178.4</ele>
        <time>2024-03-29T06:32:18Z</time>
      </trkpt>
      <trkpt lat="50.1075" lon="4.19196">
        <ele>178.6</ele>
        <time>2024-03-29T06:32:19Z</time>
      </trkpt>
      <trkpt lat="50.10754" lon="4.19189">
        <ele>178.6</ele>
        <time>2024-03-29T06:32:20Z</time>
      </trkpt>
      <trkpt lat="50.10759" lon="4.19182">
        <ele>179</ele>
        <time>2024-03-29T06:32:21Z</time>
      </trkpt>
      <trkpt lat="50.10763" lon="4.19175">
        <ele>179.4</ele>
        <time>2024-03-29T06:32:22Z</time>
      </trkpt>
      <trkpt lat="50.10766" lon="4.19166">
        <ele>179.6</ele>
        <time>2024-03-29T06:32:23Z</time>
      </trkpt>
      <trkpt lat="50.1077" lon="4.19158">
        <ele>180</ele>
        <time>2024-03-29T06:32:24Z</time>
      </trkpt>
      <trkpt lat="50.10774" lon="4.19148">
        <ele>180.4</ele>
        <time>2024-03-29T06:32:25Z</time>
      </trkpt>
      <trkpt lat="50.10777" lon="4.19139">
        <ele>180.4</ele>
        <time>2024-03-29T06:32:26Z</time>
      </trkpt>
      <trkpt lat="50.10781" lon="4.19129">
        <ele>180.4</ele>
        <time>2024-03-29T06:32:27Z</time>
      </trkpt>
      <trkpt lat="50.10784" lon="4.19119">
        <ele>180.6</ele>
        <time>2024-03-29T06:32:28Z</time>
      </trkpt>
      <trkpt lat="50.10788" lon="4.19109">
        <ele>180.6</ele>
        <time>2024-03-29T06:32:29Z</time>
      </trkpt>
      <trkpt lat="50.10792" lon="4.19098">
        <ele>180.8</ele>
        <time>2024-03-29T06:32:30Z</time>
      </trkpt>
      <trkpt lat="50.10795" lon="4.19087">
        <ele>180.6</ele>
        <time>2024-03-29T06:32:31Z</time>
      </trkpt>
      <trkpt lat="50.10799" lon="4.19072">
        <ele>180.8</ele>
        <time>2024-03-29T06:32:32Z</time>
      </trkpt>
      <trkpt lat="50.10803" lon="4.19059">
        <ele>180.8</ele>
        <time>2024-03-29T06:32:33Z</time>
      </trkpt>
      <trkpt lat="50.10806" lon="4.19045">
        <ele>180.6</ele>
        <time>2024-03-29T06:32:34Z</time>
      </trkpt>
      <trkpt lat="50.10809" lon="4.19032">
        <ele>180.6</ele>
        <time>2024-03-29T06:32:35Z</time>
      </trkpt>
      <trkpt lat="50.10812" lon="4.19019">
        <ele>180.6</ele>
        <time>2024-03-29T06:32:36Z</time>
      </trkpt>
      <trkpt lat="50.10814" lon="4.19005">
        <ele>180.4</ele>
        <time>2024-03-29T06:32:37Z</time>
      </trkpt>
      <trkpt lat="50.10816" lon="4.18991">
        <ele>179.8</ele>
        <time>2024-03-29T06:32:38Z</time>
      </trkpt>
      <trkpt lat="50.10817" lon="4.18978">
        <ele>179.6</ele>
        <time>2024-03-29T06:32:39Z</time>
      </trkpt>
      <trkpt lat="50.10819" lon="4.18964">
        <ele>179</ele>
        <time>2024-03-29T06:32:40Z</time>
      </trkpt>
      <trkpt lat="50.1082" lon="4.18951">
        <ele>178.4</ele>
        <time>2024-03-29T06:32:41Z</time>
      </trkpt>
      <trkpt lat="50.10822" lon="4.18937">
        <ele>178.4</ele>
        <time>2024-03-29T06:32:42Z</time>
      </trkpt>
      <trkpt lat="50.10823" lon="4.18924">
        <ele>178.2</ele>
        <time>2024-03-29T06:32:43Z</time>
      </trkpt>
      <trkpt lat="50.10825" lon="4.1891">
        <ele>178</ele>
        <time>2024-03-29T06:32:44Z</time>
      </trkpt>
      <trkpt lat="50.10827" lon="4.18898">
        <ele>177.6</ele>
        <time>2024-03-29T06:32:45Z</time>
      </trkpt>
      <trkpt lat="50.1083" lon="4.18886">
        <ele>177.4</ele>
        <time>2024-03-29T06:32:46Z</time>
      </trkpt>
      <trkpt lat="50.10834" lon="4.18874">
        <ele>177</ele>
        <time>2024-03-29T06:32:47Z</time>
      </trkpt>
      <trkpt lat="50.10838" lon="4.18863">
        <ele>176.8</ele>
        <time>2024-03-29T06:32:48Z</time>
      </trkpt>
      <trkpt lat="50.10842" lon="4.18853">
        <ele>176.4</ele>
        <time>2024-03-29T06:32:49Z</time>
      </trkpt>
      <trkpt lat="50.10846" lon="4.18843">
        <ele>176.2</ele>
        <time>2024-03-29T06:32:50Z</time>
      </trkpt>
      <trkpt lat="50.1085" lon="4.18833">
        <ele>176.4</ele>
        <time>2024-03-29T06:32:51Z</time>
      </trkpt>
      <trkpt lat="50.10853" lon="4.18824">
        <ele>176.2</ele>
        <time>2024-03-29T06:32:52Z</time>
      </trkpt>
      <trkpt lat="50.10857" lon="4.18815">
        <ele>176.4</ele>
        <time>2024-03-29T06:32:53Z</time>
      </trkpt>
      <trkpt lat="50.10861" lon="4.18806">
        <ele>176.2</ele>
        <time>2024-03-29T06:32:54Z</time>
      </trkpt>
      <trkpt lat="50.10865" lon="4.18797">
        <ele>176.4</ele>
        <time>2024-03-29T06:32:55Z</time>
      </trkpt>
      <trkpt lat="50.10869" lon="4.18788">
        <ele>176.2</ele>
        <time>2024-03-29T06:32:56Z</time>
      </trkpt>
      <trkpt lat="50.10873" lon="4.1878">
        <ele>176.2</ele>
        <time>2024-03-29T06:32:57Z</time>
      </trkpt>
      <trkpt lat="50.10877" lon="4.18771">
        <ele>176.4</ele>
        <time>2024-03-29T06:32:58Z</time>
      </trkpt>
      <trkpt lat="50.10881" lon="4.18763">
        <ele>176.4</ele>
        <time>2024-03-29T06:32:59Z</time>
      </trkpt>
      <trkpt lat="50.10885" lon="4.18754">
        <ele>176.4</ele>
        <time>2024-03-29T06:33:00Z</time>
      </trkpt>
      <trkpt lat="50.10889" lon="4.18746">
        <ele>176.6</ele>
        <time>2024-03-29T06:33:01Z</time>
      </trkpt>
      <trkpt lat="50.10893" lon="4.18738">
        <ele>176.6</ele>
        <time>2024-03-29T06:33:02Z</time>
      </trkpt>
      <trkpt lat="50.10897" lon="4.18729">
        <ele>176.6</ele>
        <time>2024-03-29T06:33:03Z</time>
      </trkpt>
      <trkpt lat="50.10901" lon="4.18721">
        <ele>176.6</ele>
        <time>2024-03-29T06:33:04Z</time>
      </trkpt>
      <trkpt lat="50.10905" lon="4.18712">
        <ele>176.6</ele>
        <time>2024-03-29T06:33:05Z</time>
      </trkpt>
      <trkpt lat="50.10909" lon="4.18703">
        <ele>176.8</ele>
        <time>2024-03-29T06:33:06Z</time>
      </trkpt>
      <trkpt lat="50.10913" lon="4.18695">
        <ele>176.8</ele>
        <time>2024-03-29T06:33:07Z</time>
      </trkpt>
      <trkpt lat="50.10917" lon="4.18686">
        <ele>177</ele>
        <time>2024-03-29T06:33:08Z</time>
      </trkpt>
      <trkpt lat="50.10921" lon="4.18678">
        <ele>177.4</ele>
        <time>2024-03-29T06:33:09Z</time>
      </trkpt>
      <trkpt lat="50.10925" lon="4.18669">
        <ele>177.6</ele>
        <time>2024-03-29T06:33:10Z</time>
      </trkpt>
      <trkpt lat="50.10928" lon="4.18661">
        <ele>177.8</ele>
        <time>2024-03-29T06:33:11Z</time>
      </trkpt>
      <trkpt lat="50.10932" lon="4.18653">
        <ele>178</ele>
        <time>2024-03-29T06:33:12Z</time>
      </trkpt>
      <trkpt lat="50.10936" lon="4.18644">
        <ele>178.2</ele>
        <time>2024-03-29T06:33:13Z</time>
      </trkpt>
      <trkpt lat="50.1094" lon="4.18636">
        <ele>178.2</ele>
        <time>2024-03-29T06:33:14Z</time>
      </trkpt>
      <trkpt lat="50.10943" lon="4.18628">
        <ele>178.4</ele>
        <time>2024-03-29T06:33:15Z</time>
      </trkpt>
      <trkpt lat="50.10947" lon="4.1862">
        <ele>178.8</ele>
        <time>2024-03-29T06:33:16Z</time>
      </trkpt>
      <trkpt lat="50.10951" lon="4.18613">
        <ele>179</ele>
        <time>2024-03-29T06:33:17Z</time>
      </trkpt>
      <trkpt lat="50.10956" lon="4.18605">
        <ele>179.2</ele>
        <time>2024-03-29T06:33:18Z</time>
      </trkpt>
      <trkpt lat="50.1096" lon="4.18598">
        <ele>179.2</ele>
        <time>2024-03-29T06:33:19Z</time>
      </trkpt>
      <trkpt lat="50.10964" lon="4.18591">
        <ele>179.4</ele>
        <time>2024-03-29T06:33:20Z</time>
      </trkpt>
      <trkpt lat="50.10969" lon="4.18584">
        <ele>179.6</ele>
        <time>2024-03-29T06:33:21Z</time>
      </trkpt>
      <trkpt lat="50.10974" lon="4.18577">
        <ele>180</ele>
        <time>2024-03-29T06:33:22Z</time>
      </trkpt>
      <trkpt lat="50.10979" lon="4.1857">
        <ele>180.4</ele>
        <time>2024-03-29T06:33:23Z</time>
      </trkpt>
      <trkpt lat="50.10983" lon="4.18563">
        <ele>180.6</ele>
        <time>2024-03-29T06:33:24Z</time>
      </trkpt>
      <trkpt lat="50.10988" lon="4.18556">
        <ele>180.8</ele>
        <time>2024-03-29T06:33:25Z</time>
      </trkpt>
      <trkpt lat="50.10993" lon="4.1855">
        <ele>180.8</ele>
        <time>2024-03-29T06:33:26Z</time>
      </trkpt>
      <trkpt lat="50.10998" lon="4.18542">
        <ele>181.4</ele>
        <time>2024-03-29T06:33:27Z</time>
      </trkpt>
      <trkpt lat="50.11003" lon="4.18535">
        <ele>181.8</ele>
        <time>2024-03-29T06:33:28Z</time>
      </trkpt>
      <trkpt lat="50.11008" lon="4.18528">
        <ele>182.2</ele>
        <time>2024-03-29T06:33:29Z</time>
      </trkpt>
      <trkpt lat="50.11013" lon="4.18521">
        <ele>182.6</ele>
        <time>2024-03-29T06:33:30Z</time>
      </trkpt>
      <trkpt lat="50.11018" lon="4.18513">
        <ele>182.6</ele>
        <time>2024-03-29T06:33:31Z</time>
      </trkpt>
      <trkpt lat="50.11023" lon="4.18505">
        <ele>182.8</ele>
        <time>2024-03-29T06:33:32Z</time>
      </trkpt>
      <trkpt lat="50.11027" lon="4.18498">
        <ele>183.2</ele>
        <time>2024-03-29T06:33:33Z</time>
      </trkpt>
      <trkpt lat="50.11032" lon="4.1849">
        <ele>183.4</ele>
        <time>2024-03-29T06:33:34Z</time>
      </trkpt>
      <trkpt lat="50.11036" lon="4.18482">
        <ele>183.8</ele>
        <time>2024-03-29T06:33:35Z</time>
      </trkpt>
      <trkpt lat="50.11041" lon="4.18474">
        <ele>184.2</ele>
        <time>2024-03-29T06:33:36Z</time>
      </trkpt>
      <trkpt lat="50.11045" lon="4.18466">
        <ele>184.2</ele>
        <time>2024-03-29T06:33:37Z</time>
      </trkpt>
      <trkpt lat="50.11049" lon="4.18458">
        <ele>184.4</ele>
        <time>2024-03-29T06:33:38Z</time>
      </trkpt>
      <trkpt lat="50.11054" lon="4.1845">
        <ele>184.4</ele>
        <time>2024-03-29T06:33:39Z</time>
      </trkpt>
      <trkpt lat="50.11057" lon="4.18442">
        <ele>184.6</ele>
        <time>2024-03-29T06:33:40Z</time>
      </trkpt>
      <trkpt lat="50.11062" lon="4.18433">
        <ele>184.6</ele>
        <time>2024-03-29T06:33:41Z</time>
      </trkpt>
      <trkpt lat="50.11066" lon="4.18425">
        <ele>184.8</ele>
        <time>2024-03-29T06:33:42Z</time>
      </trkpt>
      <trkpt lat="50.11071" lon="4.18416">
        <ele>184.8</ele>
        <time>2024-03-29T06:33:43Z</time>
      </trkpt>
      <trkpt lat="50.11076" lon="4.18409">
        <ele>184.8</ele>
        <time>2024-03-29T06:33:44Z</time>
      </trkpt>
      <trkpt lat="50.11082" lon="4.18402">
        <ele>184.8</ele>
        <time>2024-03-29T06:33:45Z</time>
      </trkpt>
      <trkpt lat="50.11088" lon="4.18395">
        <ele>184.6</ele>
        <time>2024-03-29T06:33:46Z</time>
      </trkpt>
      <trkpt lat="50.11094" lon="4.18389">
        <ele>184.8</ele>
        <time>2024-03-29T06:33:47Z</time>
      </trkpt>
      <trkpt lat="50.11101" lon="4.18384">
        <ele>184.8</ele>
        <time>2024-03-29T06:33:48Z</time>
      </trkpt>
      <trkpt lat="50.11108" lon="4.1838">
        <ele>184.6</ele>
        <time>2024-03-29T06:33:49Z</time>
      </trkpt>
      <trkpt lat="50.11116" lon="4.18375">
        <ele>184.6</ele>
        <time>2024-03-29T06:33:50Z</time>
      </trkpt>
      <trkpt lat="50.11124" lon="4.18369">
        <ele>184.6</ele>
        <time>2024-03-29T06:33:51Z</time>
      </trkpt>
      <trkpt lat="50.11132" lon="4.18365">
        <ele>184.6</ele>
        <time>2024-03-29T06:33:52Z</time>
      </trkpt>
      <trkpt lat="50.1114" lon="4.18361">
        <ele>184.6</ele>
        <time>2024-03-29T06:33:53Z</time>
      </trkpt>
      <trkpt lat="50.11149" lon="4.18357">
        <ele>184.6</ele>
        <time>2024-03-29T06:33:54Z</time>
      </trkpt>
      <trkpt lat="50.11158" lon="4.18353">
        <ele>184.2</ele>
        <time>2024-03-29T06:33:55Z</time>
      </trkpt>
      <trkpt lat="50.11168" lon="4.1835">
        <ele>184.2</ele>
        <time>2024-03-29T06:33:56Z</time>
      </trkpt>
      <trkpt lat="50.11178" lon="4.18348">
        <ele>183.6</ele>
        <time>2024-03-29T06:33:57Z</time>
      </trkpt>
      <trkpt lat="50.11188" lon="4.18346">
        <ele>183</ele>
        <time>2024-03-29T06:33:58Z</time>
      </trkpt>
      <trkpt lat="50.11198" lon="4.18343">
        <ele>182.6</ele>
        <time>2024-03-29T06:33:59Z</time>
      </trkpt>
      <trkpt lat="50.11209" lon="4.18341">
        <ele>182.2</ele>
        <time>2024-03-29T06:34:00Z</time>
      </trkpt>
      <trkpt lat="50.11219" lon="4.18337">
        <ele>181.8</ele>
        <time>2024-03-29T06:34:01Z</time>
      </trkpt>
      <trkpt lat="50.11229" lon="4.18334">
        <ele>181.4</ele>
        <time>2024-03-29T06:34:02Z</time>
      </trkpt>
      <trkpt lat="50.1124" lon="4.1833">
        <ele>181.2</ele>
        <time>2024-03-29T06:34:03Z</time>
      </trkpt>
      <trkpt lat="50.1125" lon="4.18327">
        <ele>181</ele>
        <time>2024-03-29T06:34:04Z</time>
      </trkpt>
      <trkpt lat="50.1126" lon="4.18323">
        <ele>180.4</ele>
        <time>2024-03-29T06:34:05Z</time>
      </trkpt>
      <trkpt lat="50.11269" lon="4.18319">
        <ele>179.6</ele>
        <time>2024-03-29T06:34:06Z</time>
      </trkpt>
      <trkpt lat="50.11278" lon="4.18315">
        <ele>178.6</ele>
        <time>2024-03-29T06:34:07Z</time>
      </trkpt>
      <trkpt lat="50.11286" lon="4.1831">
        <ele>177.8</ele>
        <time>2024-03-29T06:34:08Z</time>
      </trkpt>
      <trkpt lat="50.11294" lon="4.18305">
        <ele>177.4</ele>
        <time>2024-03-29T06:34:09Z</time>
      </trkpt>
      <trkpt lat="50.11301" lon="4.183">
        <ele>177.4</ele>
        <time>2024-03-29T06:34:10Z</time>
      </trkpt>
      <trkpt lat="50.11308" lon="4.18294">
        <ele>177.2</ele>
        <time>2024-03-29T06:34:11Z</time>
      </trkpt>
      <trkpt lat="50.11315" lon="4.18288">
        <ele>177.2</ele>
        <time>2024-03-29T06:34:12Z</time>
      </trkpt>
      <trkpt lat="50.11322" lon="4.18282">
        <ele>177</ele>
        <time>2024-03-29T06:34:13Z</time>
      </trkpt>
      <trkpt lat="50.11328" lon="4.18276">
        <ele>176.8</ele>
        <time>2024-03-29T06:34:14Z</time>
      </trkpt>
      <trkpt lat="50.11335" lon="4.1827">
        <ele>176.4</ele>
        <time>2024-03-29T06:34:15Z</time>
      </trkpt>
      <trkpt lat="50.11342" lon="4.18263">
        <ele>176.2</ele>
        <time>2024-03-29T06:34:16Z</time>
      </trkpt>
      <trkpt lat="50.11349" lon="4.18256">
        <ele>175.8</ele>
        <time>2024-03-29T06:34:17Z</time>
      </trkpt>
      <trkpt lat="50.11356" lon="4.1825">
        <ele>175.8</ele>
        <time>2024-03-29T06:34:18Z</time>
      </trkpt>
      <trkpt lat="50.11363" lon="4.18243">
        <ele>175.6</ele>
        <time>2024-03-29T06:34:19Z</time>
      </trkpt>
      <trkpt lat="50.11371" lon="4.18236">
        <ele>175.6</ele>
        <time>2024-03-29T06:34:20Z</time>
      </trkpt>
      <trkpt lat="50.11379" lon="4.18229">
        <ele>175.6</ele>
        <time>2024-03-29T06:34:21Z</time>
      </trkpt>
      <trkpt lat="50.11386" lon="4.18222">
        <ele>175.4</ele>
        <time>2024-03-29T06:34:22Z</time>
      </trkpt>
      <trkpt lat="50.11394" lon="4.18216">
        <ele>175.4</ele>
        <time>2024-03-29T06:34:23Z</time>
      </trkpt>
      <trkpt lat="50.11402" lon="4.1821">
        <ele>175.4</ele>
        <time>2024-03-29T06:34:24Z</time>
      </trkpt>
      <trkpt lat="50.1141" lon="4.18203">
        <ele>175.2</ele>
        <time>2024-03-29T06:34:25Z</time>
      </trkpt>
      <trkpt lat="50.11417" lon="4.18197">
        <ele>175.2</ele>
        <time>2024-03-29T06:34:26Z</time>
      </trkpt>
      <trkpt lat="50.11425" lon="4.18192">
        <ele>175.2</ele>
        <time>2024-03-29T06:34:27Z</time>
      </trkpt>
      <trkpt lat="50.11432" lon="4.18187">
        <ele>175.2</ele>
        <time>2024-03-29T06:34:28Z</time>
      </trkpt>
      <trkpt lat="50.11438" lon="4.18182">
        <ele>175.2</ele>
        <time>2024-03-29T06:34:29Z</time>
      </trkpt>
      <trkpt lat="50.11444" lon="4.18177">
        <ele>175.2</ele>
        <time>2024-03-29T06:34:30Z</time>
      </trkpt>
      <trkpt lat="50.1145" lon="4.18173">
        <ele>175.2</ele>
        <time>2024-03-29T06:34:31Z</time>
      </trkpt>
      <trkpt lat="50.11456" lon="4.18169">
        <ele>175.2</ele>
        <time>2024-03-29T06:34:32Z</time>
      </trkpt>
      <trkpt lat="50.11461" lon="4.18165">
        <ele>175.2</ele>
        <time>2024-03-29T06:34:33Z</time>
      </trkpt>
      <trkpt lat="50.11466" lon="4.1816">
        <ele>175.2</ele>
        <time>2024-03-29T06:34:34Z</time>
      </trkpt>
      <trkpt lat="50.11471" lon="4.18156">
        <ele>175.4</ele>
        <time>2024-03-29T06:34:35Z</time>
      </trkpt>
      <trkpt lat="50.11475" lon="4.18151">
        <ele>175.4</ele>
        <time>2024-03-29T06:34:36Z</time>
      </trkpt>
      <trkpt lat="50.1148" lon="4.18146">
        <ele>175.6</ele>
        <time>2024-03-29T06:34:37Z</time>
      </trkpt>
      <trkpt lat="50.11484" lon="4.18141">
        <ele>176</ele>
        <time>2024-03-29T06:34:38Z</time>
      </trkpt>
      <trkpt lat="50.11488" lon="4.18136">
        <ele>176.6</ele>
        <time>2024-03-29T06:34:39Z</time>
      </trkpt>
      <trkpt lat="50.11491" lon="4.1813">
        <ele>177.2</ele>
        <time>2024-03-29T06:34:40Z</time>
      </trkpt>
      <trkpt lat="50.11495" lon="4.18125">
        <ele>177.8</ele>
        <time>2024-03-29T06:34:41Z</time>
      </trkpt>
      <trkpt lat="50.11499" lon="4.18119">
        <ele>178.2</ele>
        <time>2024-03-29T06:34:42Z</time>
      </trkpt>
      <trkpt lat="50.11503" lon="4.18114">
        <ele>179</ele>
        <time>2024-03-29T06:34:43Z</time>
      </trkpt>
      <trkpt lat="50.11507" lon="4.18109">
        <ele>179.6</ele>
        <time>2024-03-29T06:34:44Z</time>
      </trkpt>
      <trkpt lat="50.11511" lon="4.18104">
        <ele>180</ele>
        <time>2024-03-29T06:34:45Z</time>
      </trkpt>
      <trkpt lat="50.11515" lon="4.18099">
        <ele>180.4</ele>
        <time>2024-03-29T06:34:46Z</time>
      </trkpt>
      <trkpt lat="50.1152" lon="4.18095">
        <ele>180.8</ele>
        <time>2024-03-29T06:34:47Z</time>
      </trkpt>
      <trkpt lat="50.11524" lon="4.1809">
        <ele>181.8</ele>
        <time>2024-03-29T06:34:48Z</time>
      </trkpt>
      <trkpt lat="50.11529" lon="4.18087">
        <ele>182</ele>
        <time>2024-03-29T06:34:49Z</time>
      </trkpt>
      <trkpt lat="50.11534" lon="4.18083">
        <ele>182.4</ele>
        <time>2024-03-29T06:34:50Z</time>
      </trkpt>
      <trkpt lat="50.11538" lon="4.18079">
        <ele>182.4</ele>
        <time>2024-03-29T06:34:51Z</time>
      </trkpt>
      <trkpt lat="50.11543" lon="4.18076">
        <ele>182.8</ele>
        <time>2024-03-29T06:34:52Z</time>
      </trkpt>
      <trkpt lat="50.11547" lon="4.18071">
        <ele>183</ele>
        <time>2024-03-29T06:34:53Z</time>
      </trkpt>
      <trkpt lat="50.11551" lon="4.18067">
        <ele>183</ele>
        <time>2024-03-29T06:34:54Z</time>
      </trkpt>
      <trkpt lat="50.11555" lon="4.18061">
        <ele>183</ele>
        <time>2024-03-29T06:34:55Z</time>
      </trkpt>
      <trkpt lat="50.11559" lon="4.18055">
        <ele>183.2</ele>
        <time>2024-03-29T06:34:56Z</time>
      </trkpt>
      <trkpt lat="50.11564" lon="4.18048">
        <ele>183.6</ele>
        <time>2024-03-29T06:34:57Z</time>
      </trkpt>
      <trkpt lat="50.11568" lon="4.18041">
        <ele>183.6</ele>
        <time>2024-03-29T06:34:58Z</time>
      </trkpt>
      <trkpt lat="50.11572" lon="4.18034">
        <ele>184.4</ele>
        <time>2024-03-29T06:34:59Z</time>
      </trkpt>
      <trkpt lat="50.11577" lon="4.18026">
        <ele>184.8</ele>
        <time>2024-03-29T06:35:00Z</time>
      </trkpt>
      <trkpt lat="50.11582" lon="4.18017">
        <ele>185</ele>
        <time>2024-03-29T06:35:01Z</time>
      </trkpt>
      <trkpt lat="50.11588" lon="4.18008">
        <ele>185.2</ele>
        <time>2024-03-29T06:35:02Z</time>
      </trkpt>
      <trkpt lat="50.11594" lon="4.17999">
        <ele>185.4</ele>
        <time>2024-03-29T06:35:03Z</time>
      </trkpt>
      <trkpt lat="50.11601" lon="4.1799">
        <ele>185.2</ele>
        <time>2024-03-29T06:35:04Z</time>
      </trkpt>
      <trkpt lat="50.11608" lon="4.17981">
        <ele>185.4</ele>
        <time>2024-03-29T06:35:05Z</time>
      </trkpt>
      <trkpt lat="50.11616" lon="4.17973">
        <ele>185.4</ele>
        <time>2024-03-29T06:35:06Z</time>
      </trkpt>
      <trkpt lat="50.11624" lon="4.17964">
        <ele>185.4</ele>
        <time>2024-03-29T06:35:07Z</time>
      </trkpt>
      <trkpt lat="50.11633" lon="4.17955">
        <ele>185.4</ele>
        <time>2024-03-29T06:35:08Z</time>
      </trkpt>
      <trkpt lat="50.11642" lon="4.17947">
        <ele>185.2</ele>
        <time>2024-03-29T06:35:09Z</time>
      </trkpt>
      <trkpt lat="50.11651" lon="4.17937">
        <ele>185.2</ele>
        <time>2024-03-29T06:35:10Z</time>
      </trkpt>
      <trkpt lat="50.11661" lon="4.17928">
        <ele>184.4</ele>
        <time>2024-03-29T06:35:11Z</time>
      </trkpt>
      <trkpt lat="50.11671" lon="4.17919">
        <ele>183.8</ele>
        <time>2024-03-29T06:35:12Z</time>
      </trkpt>
      <trkpt lat="50.11682" lon="4.1791">
        <ele>183.6</ele>
        <time>2024-03-29T06:35:13Z</time>
      </trkpt>
      <trkpt lat="50.11693" lon="4.17903">
        <ele>182.8</ele>
        <time>2024-03-29T06:35:14Z</time>
      </trkpt>
      <trkpt lat="50.11705" lon="4.17896">
        <ele>181.6</ele>
        <time>2024-03-29T06:35:15Z</time>
      </trkpt>
      <trkpt lat="50.11716" lon="4.1789">
        <ele>180.4</ele>
        <time>2024-03-29T06:35:16Z</time>
      </trkpt>
      <trkpt lat="50.11728" lon="4.17885">
        <ele>180.4</ele>
        <time>2024-03-29T06:35:17Z</time>
      </trkpt>
      <trkpt lat="50.1174" lon="4.1788">
        <ele>179.2</ele>
        <time>2024-03-29T06:35:18Z</time>
      </trkpt>
      <trkpt lat="50.11751" lon="4.17876">
        <ele>178.2</ele>
        <time>2024-03-29T06:35:19Z</time>
      </trkpt>
      <trkpt lat="50.11762" lon="4.17871">
        <ele>176.8</ele>
        <time>2024-03-29T06:35:20Z</time>
      </trkpt>
      <trkpt lat="50.11772" lon="4.17865">
        <ele>175</ele>
        <time>2024-03-29T06:35:21Z</time>
      </trkpt>
      <trkpt lat="50.11781" lon="4.17859">
        <ele>173.6</ele>
        <time>2024-03-29T06:35:22Z</time>
      </trkpt>
      <trkpt lat="50.11789" lon="4.1785">
        <ele>172.8</ele>
        <time>2024-03-29T06:35:23Z</time>
      </trkpt>
      <trkpt lat="50.11797" lon="4.17842">
        <ele>172.2</ele>
        <time>2024-03-29T06:35:24Z</time>
      </trkpt>
      <trkpt lat="50.11804" lon="4.17834">
        <ele>172</ele>
        <time>2024-03-29T06:35:25Z</time>
      </trkpt>
      <trkpt lat="50.11812" lon="4.17826">
        <ele>172</ele>
        <time>2024-03-29T06:35:26Z</time>
      </trkpt>
      <trkpt lat="50.11819" lon="4.17818">
        <ele>172</ele>
        <time>2024-03-29T06:35:27Z</time>
      </trkpt>
      <trkpt lat="50.11826" lon="4.1781">
        <ele>171.8</ele>
        <time>2024-03-29T06:35:28Z</time>
      </trkpt>
      <trkpt lat="50.11834" lon="4.17802">
        <ele>172</ele>
        <time>2024-03-29T06:35:29Z</time>
      </trkpt>
      <trkpt lat="50.11842" lon="4.17796">
        <ele>171.8</ele>
        <time>2024-03-29T06:35:30Z</time>
      </trkpt>
      <trkpt lat="50.11851" lon="4.17792">
        <ele>171.4</ele>
        <time>2024-03-29T06:35:31Z</time>
      </trkpt>
      <trkpt lat="50.1186" lon="4.1779">
        <ele>171</ele>
        <time>2024-03-29T06:35:32Z</time>
      </trkpt>
      <trkpt lat="50.11869" lon="4.1779">
        <ele>171.2</ele>
        <time>2024-03-29T06:35:33Z</time>
      </trkpt>
      <trkpt lat="50.11877" lon="4.17789">
        <ele>171</ele>
        <time>2024-03-29T06:35:34Z</time>
      </trkpt>
      <trkpt lat="50.11886" lon="4.1779">
        <ele>170.8</ele>
        <time>2024-03-29T06:35:35Z</time>
      </trkpt>
      <trkpt lat="50.11895" lon="4.17791">
        <ele>171</ele>
        <time>2024-03-29T06:35:36Z</time>
      </trkpt>
      <trkpt lat="50.11903" lon="4.17792">
        <ele>171.2</ele>
        <time>2024-03-29T06:35:37Z</time>
      </trkpt>
      <trkpt lat="50.11911" lon="4.17793">
        <ele>171.2</ele>
        <time>2024-03-29T06:35:38Z</time>
      </trkpt>
      <trkpt lat="50.1192" lon="4.17793">
        <ele>171.2</ele>
        <time>2024-03-29T06:35:39Z</time>
      </trkpt>
      <trkpt lat="50.11928" lon="4.17793">
        <ele>171.2</ele>
        <time>2024-03-29T06:35:40Z</time>
      </trkpt>
      <trkpt lat="50.11935" lon="4.17793">
        <ele>171.6</ele>
        <time>2024-03-29T06:35:41Z</time>
      </trkpt>
      <trkpt lat="50.11942" lon="4.17791">
        <ele>171.6</ele>
        <time>2024-03-29T06:35:42Z</time>
      </trkpt>
      <trkpt lat="50.11949" lon="4.1779">
        <ele>171.8</ele>
        <time>2024-03-29T06:35:43Z</time>
      </trkpt>
      <trkpt lat="50.11955" lon="4.17788">
        <ele>171.8</ele>
        <time>2024-03-29T06:35:44Z</time>
      </trkpt>
      <trkpt lat="50.11961" lon="4.17784">
        <ele>172</ele>
        <time>2024-03-29T06:35:45Z</time>
      </trkpt>
      <trkpt lat="50.11966" lon="4.17779">
        <ele>172</ele>
        <time>2024-03-29T06:35:46Z</time>
      </trkpt>
      <trkpt lat="50.11971" lon="4.17773">
        <ele>172</ele>
        <time>2024-03-29T06:35:47Z</time>
      </trkpt>
      <trkpt lat="50.11976" lon="4.17766">
        <ele>172</ele>
        <time>2024-03-29T06:35:48Z</time>
      </trkpt>
      <trkpt lat="50.1198" lon="4.17758">
        <ele>172</ele>
        <time>2024-03-29T06:35:49Z</time>
      </trkpt>
      <trkpt lat="50.11983" lon="4.17749">
        <ele>172.2</ele>
        <time>2024-03-29T06:35:50Z</time>
      </trkpt>
      <trkpt lat="50.11985" lon="4.1774">
        <ele>172.6</ele>
        <time>2024-03-29T06:35:51Z</time>
      </trkpt>
      <trkpt lat="50.11987" lon="4.1773">
        <ele>173.2</ele>
        <time>2024-03-29T06:35:52Z</time>
      </trkpt>
      <trkpt lat="50.11988" lon="4.1772">
        <ele>173.6</ele>
        <time>2024-03-29T06:35:53Z</time>
      </trkpt>
      <trkpt lat="50.11989" lon="4.1771">
        <ele>174</ele>
        <time>2024-03-29T06:35:54Z</time>
      </trkpt>
      <trkpt lat="50.11991" lon="4.177">
        <ele>174.8</ele>
        <time>2024-03-29T06:35:55Z</time>
      </trkpt>
      <trkpt lat="50.11991" lon="4.17691">
        <ele>175.6</ele>
        <time>2024-03-29T06:35:56Z</time>
      </trkpt>
      <trkpt lat="50.11992" lon="4.17681">
        <ele>176</ele>
        <time>2024-03-29T06:35:57Z</time>
      </trkpt>
      <trkpt lat="50.11994" lon="4.17671">
        <ele>176.4</ele>
        <time>2024-03-29T06:35:58Z</time>
      </trkpt>
      <trkpt lat="50.11995" lon="4.17661">
        <ele>176.8</ele>
        <time>2024-03-29T06:35:59Z</time>
      </trkpt>
      <trkpt lat="50.11996" lon="4.1765">
        <ele>177.4</ele>
        <time>2024-03-29T06:36:00Z</time>
      </trkpt>
      <trkpt lat="50.11997" lon="4.1764">
        <ele>177.4</ele>
        <time>2024-03-29T06:36:01Z</time>
      </trkpt>
      <trkpt lat="50.11999" lon="4.17629">
        <ele>178</ele>
        <time>2024-03-29T06:36:02Z</time>
      </trkpt>
      <trkpt lat="50.12" lon="4.17619">
        <ele>178.4</ele>
        <time>2024-03-29T06:36:03Z</time>
      </trkpt>
      <trkpt lat="50.12002" lon="4.17608">
        <ele>178.8</ele>
        <time>2024-03-29T06:36:04Z</time>
      </trkpt>
      <trkpt lat="50.12004" lon="4.17597">
        <ele>178.8</ele>
        <time>2024-03-29T06:36:05Z</time>
      </trkpt>
      <trkpt lat="50.12006" lon="4.17587">
        <ele>179</ele>
        <time>2024-03-29T06:36:06Z</time>
      </trkpt>
      <trkpt lat="50.12008" lon="4.17576">
        <ele>179.2</ele>
        <time>2024-03-29T06:36:07Z</time>
      </trkpt>
      <trkpt lat="50.1201" lon="4.17565">
        <ele>179</ele>
        <time>2024-03-29T06:36:08Z</time>
      </trkpt>
      <trkpt lat="50.12012" lon="4.17554">
        <ele>179.4</ele>
        <time>2024-03-29T06:36:09Z</time>
      </trkpt>
      <trkpt lat="50.12015" lon="4.17543">
        <ele>179.4</ele>
        <time>2024-03-29T06:36:10Z</time>
      </trkpt>
      <trkpt lat="50.12017" lon="4.17533">
        <ele>179.4</ele>
        <time>2024-03-29T06:36:11Z</time>
      </trkpt>
      <trkpt lat="50.12019" lon="4.17522">
        <ele>179.4</ele>
        <time>2024-03-29T06:36:12Z</time>
      </trkpt>
      <trkpt lat="50.12022" lon="4.17511">
        <ele>179.4</ele>
        <time>2024-03-29T06:36:13Z</time>
      </trkpt>
      <trkpt lat="50.12024" lon="4.175">
        <ele>179.2</ele>
        <time>2024-03-29T06:36:14Z</time>
      </trkpt>
      <trkpt lat="50.12027" lon="4.17489">
        <ele>179.2</ele>
        <time>2024-03-29T06:36:15Z</time>
      </trkpt>
      <trkpt lat="50.1203" lon="4.17478">
        <ele>179.2</ele>
        <time>2024-03-29T06:36:16Z</time>
      </trkpt>
      <trkpt lat="50.12032" lon="4.17468">
        <ele>179.2</ele>
        <time>2024-03-29T06:36:17Z</time>
      </trkpt>
      <trkpt lat="50.12035" lon="4.17457">
        <ele>179.2</ele>
        <time>2024-03-29T06:36:18Z</time>
      </trkpt>
      <trkpt lat="50.12038" lon="4.17446">
        <ele>179.2</ele>
        <time>2024-03-29T06:36:19Z</time>
      </trkpt>
      <trkpt lat="50.12041" lon="4.17435">
        <ele>179</ele>
        <time>2024-03-29T06:36:20Z</time>
      </trkpt>
      <trkpt lat="50.12044" lon="4.17424">
        <ele>179.2</ele>
        <time>2024-03-29T06:36:21Z</time>
      </trkpt>
      <trkpt lat="50.12046" lon="4.17413">
        <ele>179</ele>
        <time>2024-03-29T06:36:22Z</time>
      </trkpt>
      <trkpt lat="50.12049" lon="4.17401">
        <ele>179</ele>
        <time>2024-03-29T06:36:23Z</time>
      </trkpt>
      <trkpt lat="50.12051" lon="4.1739">
        <ele>179</ele>
        <time>2024-03-29T06:36:24Z</time>
      </trkpt>
      <trkpt lat="50.12053" lon="4.17378">
        <ele>179</ele>
        <time>2024-03-29T06:36:25Z</time>
      </trkpt>
      <trkpt lat="50.12055" lon="4.17367">
        <ele>179</ele>
        <time>2024-03-29T06:36:26Z</time>
      </trkpt>
      <trkpt lat="50.12057" lon="4.17356">
        <ele>178.8</ele>
        <time>2024-03-29T06:36:27Z</time>
      </trkpt>
      <trkpt lat="50.12059" lon="4.17345">
        <ele>178.6</ele>
        <time>2024-03-29T06:36:28Z</time>
      </trkpt>
      <trkpt lat="50.12061" lon="4.17335">
        <ele>178.6</ele>
        <time>2024-03-29T06:36:29Z</time>
      </trkpt>
      <trkpt lat="50.12062" lon="4.17324">
        <ele>178.4</ele>
        <time>2024-03-29T06:36:30Z</time>
      </trkpt>
      <trkpt lat="50.12064" lon="4.17314">
        <ele>178.4</ele>
        <time>2024-03-29T06:36:31Z</time>
      </trkpt>
      <trkpt lat="50.12066" lon="4.17304">
        <ele>178.2</ele>
        <time>2024-03-29T06:36:32Z</time>
      </trkpt>
      <trkpt lat="50.12067" lon="4.17293">
        <ele>178</ele>
        <time>2024-03-29T06:36:33Z</time>
      </trkpt>
      <trkpt lat="50.12069" lon="4.17283">
        <ele>178</ele>
        <time>2024-03-29T06:36:34Z</time>
      </trkpt>
      <trkpt lat="50.1207" lon="4.17272">
        <ele>178</ele>
        <time>2024-03-29T06:36:35Z</time>
      </trkpt>
      <trkpt lat="50.12072" lon="4.17262">
        <ele>178</ele>
        <time>2024-03-29T06:36:36Z</time>
      </trkpt>
      <trkpt lat="50.12074" lon="4.17251">
        <ele>177.6</ele>
        <time>2024-03-29T06:36:37Z</time>
      </trkpt>
      <trkpt lat="50.12075" lon="4.17241">
        <ele>177.6</ele>
        <time>2024-03-29T06:36:38Z</time>
      </trkpt>
      <trkpt lat="50.12077" lon="4.1723">
        <ele>177.6</ele>
        <time>2024-03-29T06:36:39Z</time>
      </trkpt>
      <trkpt lat="50.12078" lon="4.17219">
        <ele>177.6</ele>
        <time>2024-03-29T06:36:40Z</time>
      </trkpt>
      <trkpt lat="50.1208" lon="4.17208">
        <ele>177.6</ele>
        <time>2024-03-29T06:36:41Z</time>
      </trkpt>
      <trkpt lat="50.12081" lon="4.17198">
        <ele>177.2</ele>
        <time>2024-03-29T06:36:42Z</time>
      </trkpt>
      <trkpt lat="50.12083" lon="4.17186">
        <ele>177.2</ele>
        <time>2024-03-29T06:36:43Z</time>
      </trkpt>
      <trkpt lat="50.12084" lon="4.17175">
        <ele>177.2</ele>
        <time>2024-03-29T06:36:44Z</time>
      </trkpt>
      <trkpt lat="50.12085" lon="4.17164">
        <ele>177.2</ele>
        <time>2024-03-29T06:36:45Z</time>
      </trkpt>
      <trkpt lat="50.12086" lon="4.17152">
        <ele>177.2</ele>
        <time>2024-03-29T06:36:46Z</time>
      </trkpt>
      <trkpt lat="50.12086" lon="4.17141">
        <ele>177</ele>
        <time>2024-03-29T06:36:47Z</time>
      </trkpt>
      <trkpt lat="50.12087" lon="4.1713">
        <ele>177</ele>
        <time>2024-03-29T06:36:48Z</time>
      </trkpt>
      <trkpt lat="50.12088" lon="4.17119">
        <ele>177.2</ele>
        <time>2024-03-29T06:36:49Z</time>
      </trkpt>
      <trkpt lat="50.1209" lon="4.17108">
        <ele>177</ele>
        <time>2024-03-29T06:36:50Z</time>
      </trkpt>
      <trkpt lat="50.12091" lon="4.17097">
        <ele>176.8</ele>
        <time>2024-03-29T06:36:51Z</time>
      </trkpt>
      <trkpt lat="50.12093" lon="4.17087">
        <ele>176.8</ele>
        <time>2024-03-29T06:36:52Z</time>
      </trkpt>
      <trkpt lat="50.12095" lon="4.17077">
        <ele>176.8</ele>
        <time>2024-03-29T06:36:53Z</time>
      </trkpt>
      <trkpt lat="50.12098" lon="4.17067">
        <ele>176.8</ele>
        <time>2024-03-29T06:36:54Z</time>
      </trkpt>
      <trkpt lat="50.121" lon="4.17057">
        <ele>176.8</ele>
        <time>2024-03-29T06:36:55Z</time>
      </trkpt>
      <trkpt lat="50.12102" lon="4.17048">
        <ele>176.8</ele>
        <time>2024-03-29T06:36:56Z</time>
      </trkpt>
      <trkpt lat="50.12105" lon="4.17038">
        <ele>176.6</ele>
        <time>2024-03-29T06:36:57Z</time>
      </trkpt>
      <trkpt lat="50.12107" lon="4.17029">
        <ele>176.6</ele>
        <time>2024-03-29T06:36:58Z</time>
      </trkpt>
      <trkpt lat="50.12109" lon="4.17019">
        <ele>176.8</ele>
        <time>2024-03-29T06:36:59Z</time>
      </trkpt>
      <trkpt lat="50.1211" lon="4.17008">
        <ele>177</ele>
        <time>2024-03-29T06:37:00Z</time>
      </trkpt>
      <trkpt lat="50.12112" lon="4.16998">
        <ele>176.8</ele>
        <time>2024-03-29T06:37:01Z</time>
      </trkpt>
      <trkpt lat="50.12113" lon="4.16987">
        <ele>177</ele>
        <time>2024-03-29T06:37:02Z</time>
      </trkpt>
      <trkpt lat="50.12115" lon="4.16977">
        <ele>177</ele>
        <time>2024-03-29T06:37:03Z</time>
      </trkpt>
      <trkpt lat="50.12116" lon="4.16966">
        <ele>176.8</ele>
        <time>2024-03-29T06:37:04Z</time>
      </trkpt>
      <trkpt lat="50.12118" lon="4.16954">
        <ele>177</ele>
        <time>2024-03-29T06:37:05Z</time>
      </trkpt>
      <trkpt lat="50.12119" lon="4.16943">
        <ele>177</ele>
        <time>2024-03-29T06:37:06Z</time>
      </trkpt>
      <trkpt lat="50.12121" lon="4.16931">
        <ele>177</ele>
        <time>2024-03-29T06:37:07Z</time>
      </trkpt>
      <trkpt lat="50.12122" lon="4.1692">
        <ele>177</ele>
        <time>2024-03-29T06:37:08Z</time>
      </trkpt>
      <trkpt lat="50.12124" lon="4.16908">
        <ele>177</ele>
        <time>2024-03-29T06:37:09Z</time>
      </trkpt>
      <trkpt lat="50.12126" lon="4.16896">
        <ele>177</ele>
        <time>2024-03-29T06:37:10Z</time>
      </trkpt>
      <trkpt lat="50.12127" lon="4.16884">
        <ele>177</ele>
        <time>2024-03-29T06:37:11Z</time>
      </trkpt>
      <trkpt lat="50.12129" lon="4.16873">
        <ele>176.8</ele>
        <time>2024-03-29T06:37:12Z</time>
      </trkpt>
      <trkpt lat="50.12131" lon="4.16861">
        <ele>176.8</ele>
        <time>2024-03-29T06:37:13Z</time>
      </trkpt>
      <trkpt lat="50.12134" lon="4.16849">
        <ele>176.8</ele>
        <time>2024-03-29T06:37:14Z</time>
      </trkpt>
      <trkpt lat="50.12136" lon="4.16836">
        <ele>177</ele>
        <time>2024-03-29T06:37:15Z</time>
      </trkpt>
      <trkpt lat="50.12139" lon="4.16824">
        <ele>176.8</ele>
        <time>2024-03-29T06:37:16Z</time>
      </trkpt>
      <trkpt lat="50.12142" lon="4.16811">
        <ele>176.6</ele>
        <time>2024-03-29T06:37:17Z</time>
      </trkpt>
      <trkpt lat="50.12146" lon="4.16799">
        <ele>176.2</ele>
        <time>2024-03-29T06:37:18Z</time>
      </trkpt>
      <trkpt lat="50.1215" lon="4.16787">
        <ele>175.8</ele>
        <time>2024-03-29T06:37:19Z</time>
      </trkpt>
      <trkpt lat="50.12154" lon="4.16775">
        <ele>175.8</ele>
        <time>2024-03-29T06:37:20Z</time>
      </trkpt>
      <trkpt lat="50.12158" lon="4.16763">
        <ele>175.6</ele>
        <time>2024-03-29T06:37:21Z</time>
      </trkpt>
      <trkpt lat="50.12163" lon="4.16752">
        <ele>175.2</ele>
        <time>2024-03-29T06:37:22Z</time>
      </trkpt>
      <trkpt lat="50.12167" lon="4.1674">
        <ele>175</ele>
        <time>2024-03-29T06:37:23Z</time>
      </trkpt>
      <trkpt lat="50.12172" lon="4.16729">
        <ele>174.2</ele>
        <time>2024-03-29T06:37:24Z</time>
      </trkpt>
      <trkpt lat="50.12176" lon="4.16718">
        <ele>174</ele>
        <time>2024-03-29T06:37:25Z</time>
      </trkpt>
      <trkpt lat="50.1218" lon="4.16708">
        <ele>173.6</ele>
        <time>2024-03-29T06:37:26Z</time>
      </trkpt>
      <trkpt lat="50.12185" lon="4.16698">
        <ele>173.6</ele>
        <time>2024-03-29T06:37:27Z</time>
      </trkpt>
      <trkpt lat="50.12189" lon="4.16689">
        <ele>173.6</ele>
        <time>2024-03-29T06:37:28Z</time>
      </trkpt>
      <trkpt lat="50.12193" lon="4.1668">
        <ele>173.6</ele>
        <time>2024-03-29T06:37:29Z</time>
      </trkpt>
      <trkpt lat="50.12197" lon="4.16672">
        <ele>173.4</ele>
        <time>2024-03-29T06:37:30Z</time>
      </trkpt>
      <trkpt lat="50.12202" lon="4.16664">
        <ele>173.4</ele>
        <time>2024-03-29T06:37:31Z</time>
      </trkpt>
      <trkpt lat="50.12206" lon="4.16656">
        <ele>173.6</ele>
        <time>2024-03-29T06:37:32Z</time>
      </trkpt>
      <trkpt lat="50.1221" lon="4.16649">
        <ele>173.4</ele>
        <time>2024-03-29T06:37:33Z</time>
      </trkpt>
      <trkpt lat="50.12214" lon="4.16642">
        <ele>173.4</ele>
        <time>2024-03-29T06:37:34Z</time>
      </trkpt>
      <trkpt lat="50.12218" lon="4.16635">
        <ele>173.4</ele>
        <time>2024-03-29T06:37:35Z</time>
      </trkpt>
      <trkpt lat="50.12222" lon="4.16629">
        <ele>173.6</ele>
        <time>2024-03-29T06:37:36Z</time>
      </trkpt>
      <trkpt lat="50.12226" lon="4.16622">
        <ele>173.6</ele>
        <time>2024-03-29T06:37:37Z</time>
      </trkpt>
      <trkpt lat="50.12229" lon="4.16615">
        <ele>174</ele>
        <time>2024-03-29T06:37:38Z</time>
      </trkpt>
      <trkpt lat="50.12232" lon="4.16609">
        <ele>174.2</ele>
        <time>2024-03-29T06:37:39Z</time>
      </trkpt>
      <trkpt lat="50.12235" lon="4.16602">
        <ele>174.4</ele>
        <time>2024-03-29T06:37:40Z</time>
      </trkpt>
      <trkpt lat="50.12238" lon="4.16596">
        <ele>175</ele>
        <time>2024-03-29T06:37:41Z</time>
      </trkpt>
      <trkpt lat="50.12241" lon="4.16589">
        <ele>175.4</ele>
        <time>2024-03-29T06:37:42Z</time>
      </trkpt>
      <trkpt lat="50.12244" lon="4.16582">
        <ele>175.6</ele>
        <time>2024-03-29T06:37:43Z</time>
      </trkpt>
      <trkpt lat="50.12246" lon="4.16574">
        <ele>176.2</ele>
        <time>2024-03-29T06:37:44Z</time>
      </trkpt>
      <trkpt lat="50.12249" lon="4.16567">
        <ele>176.6</ele>
        <time>2024-03-29T06:37:45Z</time>
      </trkpt>
      <trkpt lat="50.1225" lon="4.16559">
        <ele>177.2</ele>
        <time>2024-03-29T06:37:46Z</time>
      </trkpt>
      <trkpt lat="50.12252" lon="4.16551">
        <ele>177.8</ele>
        <time>2024-03-29T06:37:47Z</time>
      </trkpt>
      <trkpt lat="50.12253" lon="4.16543">
        <ele>178.6</ele>
        <time>2024-03-29T06:37:48Z</time>
      </trkpt>
      <trkpt lat="50.12254" lon="4.16534">
        <ele>179.2</ele>
        <time>2024-03-29T06:37:49Z</time>
      </trkpt>
      <trkpt lat="50.12255" lon="4.16526">
        <ele>179.6</ele>
        <time>2024-03-29T06:37:50Z</time>
      </trkpt>
      <trkpt lat="50.12256" lon="4.16517">
        <ele>179.6</ele>
        <time>2024-03-29T06:37:51Z</time>
      </trkpt>
      <trkpt lat="50.12258" lon="4.16508">
        <ele>180</ele>
        <time>2024-03-29T06:37:52Z</time>
      </trkpt>
      <trkpt lat="50.12259" lon="4.165">
        <ele>180.2</ele>
        <time>2024-03-29T06:37:53Z</time>
      </trkpt>
      <trkpt lat="50.12261" lon="4.16491">
        <ele>180.4</ele>
        <time>2024-03-29T06:37:54Z</time>
      </trkpt>
      <trkpt lat="50.12262" lon="4.16482">
        <ele>180.4</ele>
        <time>2024-03-29T06:37:55Z</time>
      </trkpt>
      <trkpt lat="50.12264" lon="4.16474">
        <ele>180.4</ele>
        <time>2024-03-29T06:37:56Z</time>
      </trkpt>
      <trkpt lat="50.12267" lon="4.16466">
        <ele>180.6</ele>
        <time>2024-03-29T06:37:57Z</time>
      </trkpt>
      <trkpt lat="50.12269" lon="4.16458">
        <ele>180.6</ele>
        <time>2024-03-29T06:37:58Z</time>
      </trkpt>
      <trkpt lat="50.12273" lon="4.1645">
        <ele>180.6</ele>
        <time>2024-03-29T06:37:59Z</time>
      </trkpt>
      <trkpt lat="50.12276" lon="4.16442">
        <ele>180.8</ele>
        <time>2024-03-29T06:38:00Z</time>
      </trkpt>
      <trkpt lat="50.12279" lon="4.16434">
        <ele>180.8</ele>
        <time>2024-03-29T06:38:01Z</time>
      </trkpt>
      <trkpt lat="50.12282" lon="4.16426">
        <ele>181</ele>
        <time>2024-03-29T06:38:02Z</time>
      </trkpt>
      <trkpt lat="50.12286" lon="4.16419">
        <ele>181.2</ele>
        <time>2024-03-29T06:38:03Z</time>
      </trkpt>
      <trkpt lat="50.12289" lon="4.16411">
        <ele>181.2</ele>
        <time>2024-03-29T06:38:04Z</time>
      </trkpt>
      <trkpt lat="50.12292" lon="4.16404">
        <ele>181.4</ele>
        <time>2024-03-29T06:38:05Z</time>
      </trkpt>
      <trkpt lat="50.12296" lon="4.16396">
        <ele>181.6</ele>
        <time>2024-03-29T06:38:06Z</time>
      </trkpt>
      <trkpt lat="50.12299" lon="4.16389">
        <ele>181.6</ele>
        <time>2024-03-29T06:38:07Z</time>
      </trkpt>
      <trkpt lat="50.12302" lon="4.16381">
        <ele>181.8</ele>
        <time>2024-03-29T06:38:08Z</time>
      </trkpt>
      <trkpt lat="50.12305" lon="4.16374">
        <ele>182</ele>
        <time>2024-03-29T06:38:09Z</time>
      </trkpt>
      <trkpt lat="50.12308" lon="4.16366">
        <ele>182.2</ele>
        <time>2024-03-29T06:38:10Z</time>
      </trkpt>
      <trkpt lat="50.12311" lon="4.16359">
        <ele>182.4</ele>
        <time>2024-03-29T06:38:11Z</time>
      </trkpt>
      <trkpt lat="50.12313" lon="4.16351">
        <ele>182.8</ele>
        <time>2024-03-29T06:38:12Z</time>
      </trkpt>
      <trkpt lat="50.12315" lon="4.16343">
        <ele>183</ele>
        <time>2024-03-29T06:38:13Z</time>
      </trkpt>
      <trkpt lat="50.12317" lon="4.16335">
        <ele>183</ele>
        <time>2024-03-29T06:38:14Z</time>
      </trkpt>
      <trkpt lat="50.12319" lon="4.16327">
        <ele>183.2</ele>
        <time>2024-03-29T06:38:15Z</time>
      </trkpt>
      <trkpt lat="50.1232" lon="4.16319">
        <ele>183.4</ele>
        <time>2024-03-29T06:38:16Z</time>
      </trkpt>
      <trkpt lat="50.12321" lon="4.16311">
        <ele>183.4</ele>
        <time>2024-03-29T06:38:17Z</time>
      </trkpt>
      <trkpt lat="50.12321" lon="4.16302">
        <ele>183.4</ele>
        <time>2024-03-29T06:38:18Z</time>
      </trkpt>
      <trkpt lat="50.12322" lon="4.16294">
        <ele>183.6</ele>
        <time>2024-03-29T06:38:19Z</time>
      </trkpt>
      <trkpt lat="50.12322" lon="4.16286">
        <ele>183.8</ele>
        <time>2024-03-29T06:38:20Z</time>
      </trkpt>
      <trkpt lat="50.12322" lon="4.16278">
        <ele>183.8</ele>
        <time>2024-03-29T06:38:21Z</time>
      </trkpt>
      <trkpt lat="50.12321" lon="4.16271">
        <ele>184</ele>
        <time>2024-03-29T06:38:22Z</time>
      </trkpt>
      <trkpt lat="50.12321" lon="4.16263">
        <ele>184</ele>
        <time>2024-03-29T06:38:23Z</time>
      </trkpt>
      <trkpt lat="50.1232" lon="4.16256">
        <ele>184.2</ele>
        <time>2024-03-29T06:38:24Z</time>
      </trkpt>
      <trkpt lat="50.12318" lon="4.16248">
        <ele>184.4</ele>
        <time>2024-03-29T06:38:25Z</time>
      </trkpt>
      <trkpt lat="50.12317" lon="4.16241">
        <ele>184.4</ele>
        <time>2024-03-29T06:38:26Z</time>
      </trkpt>
      <trkpt lat="50.12315" lon="4.16234">
        <ele>184.8</ele>
        <time>2024-03-29T06:38:27Z</time>
      </trkpt>
      <trkpt lat="50.12313" lon="4.16227">
        <ele>185</ele>
        <time>2024-03-29T06:38:28Z</time>
      </trkpt>
      <trkpt lat="50.1231" lon="4.1622">
        <ele>185.2</ele>
        <time>2024-03-29T06:38:29Z</time>
      </trkpt>
      <trkpt lat="50.12308" lon="4.16214">
        <ele>185.4</ele>
        <time>2024-03-29T06:38:30Z</time>
      </trkpt>
      <trkpt lat="50.12305" lon="4.16208">
        <ele>185.8</ele>
        <time>2024-03-29T06:38:31Z</time>
      </trkpt>
      <trkpt lat="50.12302" lon="4.16202">
        <ele>185.8</ele>
        <time>2024-03-29T06:38:32Z</time>
      </trkpt>
      <trkpt lat="50.12299" lon="4.16197">
        <ele>186.2</ele>
        <time>2024-03-29T06:38:33Z</time>
      </trkpt>
      <trkpt lat="50.12296" lon="4.16191">
        <ele>186.4</ele>
        <time>2024-03-29T06:38:34Z</time>
      </trkpt>
      <trkpt lat="50.12293" lon="4.16186">
        <ele>186.6</ele>
        <time>2024-03-29T06:38:35Z</time>
      </trkpt>
      <trkpt lat="50.1229" lon="4.16181">
        <ele>186.6</ele>
        <time>2024-03-29T06:38:36Z</time>
      </trkpt>
      <trkpt lat="50.12286" lon="4.16176">
        <ele>186.8</ele>
        <time>2024-03-29T06:38:37Z</time>
      </trkpt>
      <trkpt lat="50.12283" lon="4.16171">
        <ele>186.8</ele>
        <time>2024-03-29T06:38:38Z</time>
      </trkpt>
      <trkpt lat="50.1228" lon="4.16165">
        <ele>187.2</ele>
        <time>2024-03-29T06:38:39Z</time>
      </trkpt>
      <trkpt lat="50.12276" lon="4.1616">
        <ele>187.2</ele>
        <time>2024-03-29T06:38:40Z</time>
      </trkpt>
      <trkpt lat="50.12273" lon="4.16155">
        <ele>187.4</ele>
        <time>2024-03-29T06:38:41Z</time>
      </trkpt>
      <trkpt lat="50.1227" lon="4.1615">
        <ele>187.6</ele>
        <time>2024-03-29T06:38:42Z</time>
      </trkpt>
      <trkpt lat="50.12266" lon="4.16144">
        <ele>187.8</ele>
        <time>2024-03-29T06:38:43Z</time>
      </trkpt>
      <trkpt lat="50.12263" lon="4.16139">
        <ele>188</ele>
        <time>2024-03-29T06:38:44Z</time>
      </trkpt>
      <trkpt lat="50.12259" lon="4.16133">
        <ele>188</ele>
        <time>2024-03-29T06:38:45Z</time>
      </trkpt>
      <trkpt lat="50.12256" lon="4.16128">
        <ele>188.4</ele>
        <time>2024-03-29T06:38:46Z</time>
      </trkpt>
      <trkpt lat="50.12252" lon="4.16123">
        <ele>188.6</ele>
        <time>2024-03-29T06:38:47Z</time>
      </trkpt>
      <trkpt lat="50.12249" lon="4.16117">
        <ele>188.8</ele>
        <time>2024-03-29T06:38:48Z</time>
      </trkpt>
      <trkpt lat="50.12245" lon="4.16112">
        <ele>188.8</ele>
        <time>2024-03-29T06:38:49Z</time>
      </trkpt>
      <trkpt lat="50.12242" lon="4.16106">
        <ele>189.2</ele>
        <time>2024-03-29T06:38:50Z</time>
      </trkpt>
      <trkpt lat="50.12238" lon="4.16101">
        <ele>189.4</ele>
        <time>2024-03-29T06:38:51Z</time>
      </trkpt>
      <trkpt lat="50.12235" lon="4.16095">
        <ele>189.2</ele>
        <time>2024-03-29T06:38:52Z</time>
      </trkpt>
      <trkpt lat="50.12231" lon="4.16089">
        <ele>189.4</ele>
        <time>2024-03-29T06:38:53Z</time>
      </trkpt>
      <trkpt lat="50.12227" lon="4.16083">
        <ele>189.2</ele>
        <time>2024-03-29T06:38:54Z</time>
      </trkpt>
      <trkpt lat="50.12224" lon="4.16077">
        <ele>189.2</ele>
        <time>2024-03-29T06:38:55Z</time>
      </trkpt>
      <trkpt lat="50.1222" lon="4.16072">
        <ele>189.4</ele>
        <time>2024-03-29T06:38:56Z</time>
      </trkpt>
      <trkpt lat="50.12216" lon="4.16066">
        <ele>189.4</ele>
        <time>2024-03-29T06:38:57Z</time>
      </trkpt>
      <trkpt lat="50.12213" lon="4.1606">
        <ele>189.6</ele>
        <time>2024-03-29T06:38:58Z</time>
      </trkpt>
      <trkpt lat="50.12209" lon="4.16054">
        <ele>189.6</ele>
        <time>2024-03-29T06:38:59Z</time>
      </trkpt>
      <trkpt lat="50.12205" lon="4.16048">
        <ele>189.6</ele>
        <time>2024-03-29T06:39:00Z</time>
      </trkpt>
      <trkpt lat="50.12202" lon="4.16043">
        <ele>189.6</ele>
        <time>2024-03-29T06:39:01Z</time>
      </trkpt>
      <trkpt lat="50.12198" lon="4.16037">
        <ele>189.6</ele>
        <time>2024-03-29T06:39:02Z</time>
      </trkpt>
      <trkpt lat="50.12194" lon="4.16031">
        <ele>189.6</ele>
        <time>2024-03-29T06:39:03Z</time>
      </trkpt>
      <trkpt lat="50.1219" lon="4.16025">
        <ele>189.6</ele>
        <time>2024-03-29T06:39:04Z</time>
      </trkpt>
      <trkpt lat="50.12187" lon="4.16019">
        <ele>189.8</ele>
        <time>2024-03-29T06:39:05Z</time>
      </trkpt>
      <trkpt lat="50.12183" lon="4.16013">
        <ele>189.8</ele>
        <time>2024-03-29T06:39:06Z</time>
      </trkpt>
      <trkpt lat="50.1218" lon="4.16007">
        <ele>189.8</ele>
        <time>2024-03-29T06:39:07Z</time>
      </trkpt>
      <trkpt lat="50.12176" lon="4.16">
        <ele>189.6</ele>
        <time>2024-03-29T06:39:08Z</time>
      </trkpt>
      <trkpt lat="50.12173" lon="4.15994">
        <ele>189.8</ele>
        <time>2024-03-29T06:39:09Z</time>
      </trkpt>
      <trkpt lat="50.1217" lon="4.15987">
        <ele>189.8</ele>
        <time>2024-03-29T06:39:10Z</time>
      </trkpt>
      <trkpt lat="50.12168" lon="4.15981">
        <ele>189.8</ele>
        <time>2024-03-29T06:39:11Z</time>
      </trkpt>
      <trkpt lat="50.12166" lon="4.15974">
        <ele>189.8</ele>
        <time>2024-03-29T06:39:12Z</time>
      </trkpt>
      <trkpt lat="50.12164" lon="4.15967">
        <ele>189.8</ele>
        <time>2024-03-29T06:39:13Z</time>
      </trkpt>
      <trkpt lat="50.12163" lon="4.1596">
        <ele>190</ele>
        <time>2024-03-29T06:39:14Z</time>
      </trkpt>
      <trkpt lat="50.12162" lon="4.15953">
        <ele>190</ele>
        <time>2024-03-29T06:39:15Z</time>
      </trkpt>
      <trkpt lat="50.12161" lon="4.15946">
        <ele>190</ele>
        <time>2024-03-29T06:39:16Z</time>
      </trkpt>
      <trkpt lat="50.12161" lon="4.15939">
        <ele>190.6</ele>
        <time>2024-03-29T06:39:17Z</time>
      </trkpt>
      <trkpt lat="50.12161" lon="4.15932">
        <ele>190.6</ele>
        <time>2024-03-29T06:39:18Z</time>
      </trkpt>
      <trkpt lat="50.12161" lon="4.15925">
        <ele>190.6</ele>
        <time>2024-03-29T06:39:19Z</time>
      </trkpt>
      <trkpt lat="50.12161" lon="4.15917">
        <ele>190.8</ele>
        <time>2024-03-29T06:39:20Z</time>
      </trkpt>
      <trkpt lat="50.12162" lon="4.1591">
        <ele>191</ele>
        <time>2024-03-29T06:39:21Z</time>
      </trkpt>
      <trkpt lat="50.12163" lon="4.15903">
        <ele>191</ele>
        <time>2024-03-29T06:39:22Z</time>
      </trkpt>
      <trkpt lat="50.12165" lon="4.15897">
        <ele>191.6</ele>
        <time>2024-03-29T06:39:23Z</time>
      </trkpt>
      <trkpt lat="50.12167" lon="4.15892">
        <ele>192.2</ele>
        <time>2024-03-29T06:39:24Z</time>
      </trkpt>
      <trkpt lat="50.12169" lon="4.15889">
        <ele>192.8</ele>
        <time>2024-03-29T06:39:25Z</time>
      </trkpt>
      <trkpt lat="50.12169" lon="4.15886">
        <ele>193.6</ele>
        <time>2024-03-29T06:39:26Z</time>
      </trkpt>
      <trkpt lat="50.1217" lon="4.15886">
        <ele>194.4</ele>
        <time>2024-03-29T06:39:27Z</time>
      </trkpt>
      <trkpt lat="50.1217" lon="4.15886">
        <ele>194.8</ele>
        <time>2024-03-29T06:39:28Z</time>
      </trkpt>
      <trkpt lat="50.1217" lon="4.15886">
        <ele>195.4</ele>
        <time>2024-03-29T06:39:29Z</time>
      </trkpt>
      <trkpt lat="50.1217" lon="4.15886">
        <ele>195.6</ele>
        <time>2024-03-29T06:39:30Z</time>
      </trkpt>
      <trkpt lat="50.1217" lon="4.15886">
        <ele>195.8</ele>
        <time>2024-03-29T06:39:31Z</time>
      </trkpt>
      <trkpt lat="50.1217" lon="4.15886">
        <ele>196</ele>
        <time>2024-03-29T06:39:32Z</time>
      </trkpt>
      <trkpt lat="50.12169" lon="4.15883">
        <ele>197</ele>
        <time>2024-03-29T06:40:14Z</time>
      </trkpt>
      <trkpt lat="50.1217" lon="4.1588">
        <ele>196.8</ele>
        <time>2024-03-29T06:40:15Z</time>
      </trkpt>
      <trkpt lat="50.1217" lon="4.15876">
        <ele>197</ele>
        <time>2024-03-29T06:40:16Z</time>
      </trkpt>
      <trkpt lat="50.12171" lon="4.15872">
        <ele>197</ele>
        <time>2024-03-29T06:40:17Z</time>
      </trkpt>
      <trkpt lat="50.12172" lon="4.15868">
        <ele>197</ele>
        <time>2024-03-29T06:40:18Z</time>
      </trkpt>
      <trkpt lat="50.12173" lon="4.15864">
        <ele>196.8</ele>
        <time>2024-03-29T06:40:19Z</time>
      </trkpt>
      <trkpt lat="50.12174" lon="4.15859">
        <ele>197</ele>
        <time>2024-03-29T06:40:20Z</time>
      </trkpt>
      <trkpt lat="50.12176" lon="4.15853">
        <ele>197</ele>
        <time>2024-03-29T06:40:21Z</time>
      </trkpt>
      <trkpt lat="50.12178" lon="4.15847">
        <ele>197</ele>
        <time>2024-03-29T06:40:22Z</time>
      </trkpt>
      <trkpt lat="50.12179" lon="4.1584">
        <ele>196.8</ele>
        <time>2024-03-29T06:40:23Z</time>
      </trkpt>
      <trkpt lat="50.12181" lon="4.15832">
        <ele>196.6</ele>
        <time>2024-03-29T06:40:24Z</time>
      </trkpt>
      <trkpt lat="50.12184" lon="4.15825">
        <ele>196.6</ele>
        <time>2024-03-29T06:40:25Z</time>
      </trkpt>
      <trkpt lat="50.12186" lon="4.15816">
        <ele>196.4</ele>
        <time>2024-03-29T06:40:26Z</time>
      </trkpt>
      <trkpt lat="50.12189" lon="4.15808">
        <ele>196.6</ele>
        <time>2024-03-29T06:40:27Z</time>
      </trkpt>
      <trkpt lat="50.12191" lon="4.15798">
        <ele>196.4</ele>
        <time>2024-03-29T06:40:28Z</time>
      </trkpt>
      <trkpt lat="50.12194" lon="4.15788">
        <ele>196.4</ele>
        <time>2024-03-29T06:40:29Z</time>
      </trkpt>
      <trkpt lat="50.12197" lon="4.15778">
        <ele>196.4</ele>
        <time>2024-03-29T06:40:30Z</time>
      </trkpt>
      <trkpt lat="50.122" lon="4.15767">
        <ele>196.4</ele>
        <time>2024-03-29T06:40:31Z</time>
      </trkpt>
      <trkpt lat="50.12203" lon="4.15756">
        <ele>196.2</ele>
        <time>2024-03-29T06:40:32Z</time>
      </trkpt>
      <trkpt lat="50.12206" lon="4.15745">
        <ele>196</ele>
        <time>2024-03-29T06:40:33Z</time>
      </trkpt>
      <trkpt lat="50.12209" lon="4.15733">
        <ele>195.8</ele>
        <time>2024-03-29T06:40:34Z</time>
      </trkpt>
      <trkpt lat="50.12212" lon="4.15721">
        <ele>195.8</ele>
        <time>2024-03-29T06:40:35Z</time>
      </trkpt>
      <trkpt lat="50.12216" lon="4.15708">
        <ele>195.6</ele>
        <time>2024-03-29T06:40:36Z</time>
      </trkpt>
      <trkpt lat="50.12219" lon="4.15695">
        <ele>195.2</ele>
        <time>2024-03-29T06:40:37Z</time>
      </trkpt>
      <trkpt lat="50.12222" lon="4.15682">
        <ele>194.2</ele>
        <time>2024-03-29T06:40:38Z</time>
      </trkpt>
      <trkpt lat="50.12225" lon="4.15668">
        <ele>193.4</ele>
        <time>2024-03-29T06:40:39Z</time>
      </trkpt>
      <trkpt lat="50.12227" lon="4.15653">
        <ele>192.6</ele>
        <time>2024-03-29T06:40:40Z</time>
      </trkpt>
      <trkpt lat="50.1223" lon="4.15638">
        <ele>191.6</ele>
        <time>2024-03-29T06:40:41Z</time>
      </trkpt>
      <trkpt lat="50.12232" lon="4.15623">
        <ele>191.2</ele>
        <time>2024-03-29T06:40:42Z</time>
      </trkpt>
      <trkpt lat="50.12234" lon="4.15607">
        <ele>190.6</ele>
        <time>2024-03-29T06:40:43Z</time>
      </trkpt>
      <trkpt lat="50.12237" lon="4.15591">
        <ele>190.2</ele>
        <time>2024-03-29T06:40:44Z</time>
      </trkpt>
      <trkpt lat="50.12239" lon="4.15574">
        <ele>189.4</ele>
        <time>2024-03-29T06:40:45Z</time>
      </trkpt>
      <trkpt lat="50.12242" lon="4.15557">
        <ele>188.6</ele>
        <time>2024-03-29T06:40:46Z</time>
      </trkpt>
      <trkpt lat="50.12247" lon="4.15541">
        <ele>187.6</ele>
        <time>2024-03-29T06:40:47Z</time>
      </trkpt>
      <trkpt lat="50.12252" lon="4.15525">
        <ele>186.6</ele>
        <time>2024-03-29T06:40:48Z</time>
      </trkpt>
      <trkpt lat="50.12257" lon="4.15509">
        <ele>186.2</ele>
        <time>2024-03-29T06:40:49Z</time>
      </trkpt>
      <trkpt lat="50.12264" lon="4.15493">
        <ele>185.4</ele>
        <time>2024-03-29T06:40:50Z</time>
      </trkpt>
      <trkpt lat="50.12271" lon="4.15478">
        <ele>184.6</ele>
        <time>2024-03-29T06:40:51Z</time>
      </trkpt>
      <trkpt lat="50.12278" lon="4.15463">
        <ele>183.4</ele>
        <time>2024-03-29T06:40:52Z</time>
      </trkpt>
      <trkpt lat="50.12286" lon="4.15447">
        <ele>183.4</ele>
        <time>2024-03-29T06:40:53Z</time>
      </trkpt>
      <trkpt lat="50.12293" lon="4.15432">
        <ele>182.8</ele>
        <time>2024-03-29T06:40:54Z</time>
      </trkpt>
      <trkpt lat="50.12301" lon="4.15417">
        <ele>182</ele>
        <time>2024-03-29T06:40:55Z</time>
      </trkpt>
      <trkpt lat="50.12309" lon="4.15402">
        <ele>180.6</ele>
        <time>2024-03-29T06:40:56Z</time>
      </trkpt>
      <trkpt lat="50.12318" lon="4.15389">
        <ele>179.6</ele>
        <time>2024-03-29T06:40:57Z</time>
      </trkpt>
      <trkpt lat="50.12326" lon="4.15375">
        <ele>178.8</ele>
        <time>2024-03-29T06:40:58Z</time>
      </trkpt>
      <trkpt lat="50.12334" lon="4.15363">
        <ele>178.2</ele>
        <time>2024-03-29T06:40:59Z</time>
      </trkpt>
      <trkpt lat="50.12343" lon="4.15351">
        <ele>177.2</ele>
        <time>2024-03-29T06:41:00Z</time>
      </trkpt>
      <trkpt lat="50.12351" lon="4.15341">
        <ele>175.8</ele>
        <time>2024-03-29T06:41:01Z</time>
      </trkpt>
      <trkpt lat="50.12359" lon="4.15331">
        <ele>175</ele>
        <time>2024-03-29T06:41:02Z</time>
      </trkpt>
      <trkpt lat="50.12367" lon="4.15322">
        <ele>174.4</ele>
        <time>2024-03-29T06:41:03Z</time>
      </trkpt>
      <trkpt lat="50.12375" lon="4.15313">
        <ele>174.2</ele>
        <time>2024-03-29T06:41:04Z</time>
      </trkpt>
      <trkpt lat="50.12382" lon="4.15305">
        <ele>173.8</ele>
        <time>2024-03-29T06:41:05Z</time>
      </trkpt>
      <trkpt lat="50.12389" lon="4.15297">
        <ele>173.8</ele>
        <time>2024-03-29T06:41:06Z</time>
      </trkpt>
      <trkpt lat="50.12395" lon="4.1529">
        <ele>173.8</ele>
        <time>2024-03-29T06:41:07Z</time>
      </trkpt>
      <trkpt lat="50.12401" lon="4.15282">
        <ele>173.6</ele>
        <time>2024-03-29T06:41:08Z</time>
      </trkpt>
      <trkpt lat="50.12407" lon="4.15275">
        <ele>173.8</ele>
        <time>2024-03-29T06:41:09Z</time>
      </trkpt>
      <trkpt lat="50.12413" lon="4.15269">
        <ele>173.8</ele>
        <time>2024-03-29T06:41:10Z</time>
      </trkpt>
      <trkpt lat="50.12418" lon="4.15263">
        <ele>174</ele>
        <time>2024-03-29T06:41:11Z</time>
      </trkpt>
      <trkpt lat="50.12423" lon="4.15258">
        <ele>173.8</ele>
        <time>2024-03-29T06:41:12Z</time>
      </trkpt>
      <trkpt lat="50.12428" lon="4.15252">
        <ele>174</ele>
        <time>2024-03-29T06:41:13Z</time>
      </trkpt>
      <trkpt lat="50.12432" lon="4.15247">
        <ele>174.8</ele>
        <time>2024-03-29T06:41:14Z</time>
      </trkpt>
      <trkpt lat="50.12436" lon="4.15242">
        <ele>174.8</ele>
        <time>2024-03-29T06:41:15Z</time>
      </trkpt>
      <trkpt lat="50.1244" lon="4.15237">
        <ele>175.8</ele>
        <time>2024-03-29T06:41:16Z</time>
      </trkpt>
      <trkpt lat="50.12445" lon="4.15232">
        <ele>176.6</ele>
        <time>2024-03-29T06:41:17Z</time>
      </trkpt>
      <trkpt lat="50.12449" lon="4.15227">
        <ele>177.2</ele>
        <time>2024-03-29T06:41:18Z</time>
      </trkpt>
      <trkpt lat="50.12453" lon="4.15223">
        <ele>177.8</ele>
        <time>2024-03-29T06:41:19Z</time>
      </trkpt>
      <trkpt lat="50.12457" lon="4.15218">
        <ele>178.6</ele>
        <time>2024-03-29T06:41:20Z</time>
      </trkpt>
      <trkpt lat="50.12461" lon="4.15213">
        <ele>179.4</ele>
        <time>2024-03-29T06:41:21Z</time>
      </trkpt>
      <trkpt lat="50.12465" lon="4.15209">
        <ele>180</ele>
        <time>2024-03-29T06:41:22Z</time>
      </trkpt>
      <trkpt lat="50.12468" lon="4.15204">
        <ele>180.6</ele>
        <time>2024-03-29T06:41:23Z</time>
      </trkpt>
      <trkpt lat="50.12472" lon="4.152">
        <ele>181.2</ele>
        <time>2024-03-29T06:41:24Z</time>
      </trkpt>
      <trkpt lat="50.12476" lon="4.15195">
        <ele>181.8</ele>
        <time>2024-03-29T06:41:25Z</time>
      </trkpt>
      <trkpt lat="50.12479" lon="4.15191">
        <ele>182</ele>
        <time>2024-03-29T06:41:26Z</time>
      </trkpt>
      <trkpt lat="50.12482" lon="4.15186">
        <ele>182.4</ele>
        <time>2024-03-29T06:41:27Z</time>
      </trkpt>
      <trkpt lat="50.12485" lon="4.15181">
        <ele>183</ele>
        <time>2024-03-29T06:41:28Z</time>
      </trkpt>
      <trkpt lat="50.12488" lon="4.15177">
        <ele>183.4</ele>
        <time>2024-03-29T06:41:29Z</time>
      </trkpt>
      <trkpt lat="50.12491" lon="4.15172">
        <ele>183.8</ele>
        <time>2024-03-29T06:41:30Z</time>
      </trkpt>
      <trkpt lat="50.12494" lon="4.15167">
        <ele>184</ele>
        <time>2024-03-29T06:41:31Z</time>
      </trkpt>
      <trkpt lat="50.12497" lon="4.15162">
        <ele>184.8</ele>
        <time>2024-03-29T06:41:32Z</time>
      </trkpt>
      <trkpt lat="50.12499" lon="4.15157">
        <ele>185.2</ele>
        <time>2024-03-29T06:41:33Z</time>
      </trkpt>
      <trkpt lat="50.12502" lon="4.15152">
        <ele>185.6</ele>
        <time>2024-03-29T06:41:34Z</time>
      </trkpt>
      <trkpt lat="50.12505" lon="4.15147">
        <ele>185.8</ele>
        <time>2024-03-29T06:41:35Z</time>
      </trkpt>
      <trkpt lat="50.12507" lon="4.15142">
        <ele>185.8</ele>
        <time>2024-03-29T06:41:36Z</time>
      </trkpt>
      <trkpt lat="50.1251" lon="4.15137">
        <ele>186</ele>
        <time>2024-03-29T06:41:37Z</time>
      </trkpt>
      <trkpt lat="50.12512" lon="4.15131">
        <ele>186.2</ele>
        <time>2024-03-29T06:41:38Z</time>
      </trkpt>
      <trkpt lat="50.12514" lon="4.15126">
        <ele>186.4</ele>
        <time>2024-03-29T06:41:39Z</time>
      </trkpt>
      <trkpt lat="50.12517" lon="4.15121">
        <ele>186.4</ele>
        <time>2024-03-29T06:41:40Z</time>
      </trkpt>
      <trkpt lat="50.12519" lon="4.15116">
        <ele>186.6</ele>
        <time>2024-03-29T06:41:41Z</time>
      </trkpt>
      <trkpt lat="50.12521" lon="4.1511">
        <ele>186.8</ele>
        <time>2024-03-29T06:41:42Z</time>
      </trkpt>
      <trkpt lat="50.12523" lon="4.15105">
        <ele>187.2</ele>
        <time>2024-03-29T06:41:43Z</time>
      </trkpt>
      <trkpt lat="50.12525" lon="4.151">
        <ele>187.8</ele>
        <time>2024-03-29T06:41:44Z</time>
      </trkpt>
      <trkpt lat="50.12527" lon="4.15095">
        <ele>188.2</ele>
        <time>2024-03-29T06:41:45Z</time>
      </trkpt>
      <trkpt lat="50.12529" lon="4.15091">
        <ele>188.6</ele>
        <time>2024-03-29T06:41:46Z</time>
      </trkpt>
      <trkpt lat="50.12531" lon="4.15086">
        <ele>189</ele>
        <time>2024-03-29T06:41:47Z</time>
      </trkpt>
      <trkpt lat="50.12533" lon="4.15081">
        <ele>188.8</ele>
        <time>2024-03-29T06:41:48Z</time>
      </trkpt>
      <trkpt lat="50.12535" lon="4.15076">
        <ele>189.2</ele>
        <time>2024-03-29T06:41:49Z</time>
      </trkpt>
      <trkpt lat="50.12537" lon="4.15069">
        <ele>189.6</ele>
        <time>2024-03-29T06:41:50Z</time>
      </trkpt>
      <trkpt lat="50.12539" lon="4.15064">
        <ele>189.8</ele>
        <time>2024-03-29T06:41:51Z</time>
      </trkpt>
      <trkpt lat="50.12541" lon="4.15058">
        <ele>190</ele>
        <time>2024-03-29T06:41:52Z</time>
      </trkpt>
      <trkpt lat="50.12542" lon="4.15053">
        <ele>190.6</ele>
        <time>2024-03-29T06:41:53Z</time>
      </trkpt>
      <trkpt lat="50.12544" lon="4.15047">
        <ele>190.8</ele>
        <time>2024-03-29T06:41:54Z</time>
      </trkpt>
      <trkpt lat="50.12545" lon="4.15041">
        <ele>191.2</ele>
        <time>2024-03-29T06:41:55Z</time>
      </trkpt>
      <trkpt lat="50.12547" lon="4.15035">
        <ele>191.4</ele>
        <time>2024-03-29T06:41:56Z</time>
      </trkpt>
      <trkpt lat="50.12548" lon="4.15029">
        <ele>191.4</ele>
        <time>2024-03-29T06:41:57Z</time>
      </trkpt>
      <trkpt lat="50.12549" lon="4.15023">
        <ele>191.8</ele>
        <time>2024-03-29T06:41:58Z</time>
      </trkpt>
      <trkpt lat="50.12549" lon="4.15017">
        <ele>192</ele>
        <time>2024-03-29T06:41:59Z</time>
      </trkpt>
      <trkpt lat="50.1255" lon="4.15011">
        <ele>192.4</ele>
        <time>2024-03-29T06:42:00Z</time>
      </trkpt>
      <trkpt lat="50.1255" lon="4.15005">
        <ele>192.8</ele>
        <time>2024-03-29T06:42:01Z</time>
      </trkpt>
      <trkpt lat="50.1255" lon="4.14999">
        <ele>193.4</ele>
        <time>2024-03-29T06:42:02Z</time>
      </trkpt>
      <trkpt lat="50.1255" lon="4.14992">
        <ele>193.6</ele>
        <time>2024-03-29T06:42:03Z</time>
      </trkpt>
      <trkpt lat="50.1255" lon="4.14986">
        <ele>193.8</ele>
        <time>2024-03-29T06:42:04Z</time>
      </trkpt>
      <trkpt lat="50.12549" lon="4.1498">
        <ele>194</ele>
        <time>2024-03-29T06:42:05Z</time>
      </trkpt>
      <trkpt lat="50.12549" lon="4.14973">
        <ele>194.6</ele>
        <time>2024-03-29T06:42:06Z</time>
      </trkpt>
      <trkpt lat="50.12548" lon="4.14967">
        <ele>194.8</ele>
        <time>2024-03-29T06:42:07Z</time>
      </trkpt>
      <trkpt lat="50.12547" lon="4.14961">
        <ele>195</ele>
        <time>2024-03-29T06:42:08Z</time>
      </trkpt>
      <trkpt lat="50.12547" lon="4.14955">
        <ele>195.4</ele>
        <time>2024-03-29T06:42:09Z</time>
      </trkpt>
      <trkpt lat="50.12546" lon="4.14949">
        <ele>195.8</ele>
        <time>2024-03-29T06:42:10Z</time>
      </trkpt>
      <trkpt lat="50.12545" lon="4.14943">
        <ele>196.2</ele>
        <time>2024-03-29T06:42:11Z</time>
      </trkpt>
      <trkpt lat="50.12543" lon="4.14937">
        <ele>196.4</ele>
        <time>2024-03-29T06:42:12Z</time>
      </trkpt>
      <trkpt lat="50.12542" lon="4.14931">
        <ele>196.8</ele>
        <time>2024-03-29T06:42:13Z</time>
      </trkpt>
      <trkpt lat="50.12541" lon="4.14925">
        <ele>197.2</ele>
        <time>2024-03-29T06:42:14Z</time>
      </trkpt>
      <trkpt lat="50.1254" lon="4.14919">
        <ele>197.4</ele>
        <time>2024-03-29T06:42:15Z</time>
      </trkpt>
      <trkpt lat="50.12539" lon="4.14913">
        <ele>197.8</ele>
        <time>2024-03-29T06:42:16Z</time>
      </trkpt>
      <trkpt lat="50.12537" lon="4.14908">
        <ele>198</ele>
        <time>2024-03-29T06:42:17Z</time>
      </trkpt>
      <trkpt lat="50.12536" lon="4.14901">
        <ele>198.2</ele>
        <time>2024-03-29T06:42:18Z</time>
      </trkpt>
      <trkpt lat="50.12535" lon="4.14895">
        <ele>198.2</ele>
        <time>2024-03-29T06:42:19Z</time>
      </trkpt>
      <trkpt lat="50.12534" lon="4.14889">
        <ele>198.4</ele>
        <time>2024-03-29T06:42:20Z</time>
      </trkpt>
      <trkpt lat="50.12532" lon="4.14883">
        <ele>199</ele>
        <time>2024-03-29T06:42:21Z</time>
      </trkpt>
      <trkpt lat="50.12531" lon="4.14877">
        <ele>199.2</ele>
        <time>2024-03-29T06:42:22Z</time>
      </trkpt>
      <trkpt lat="50.1253" lon="4.14871">
        <ele>199.4</ele>
        <time>2024-03-29T06:42:23Z</time>
      </trkpt>
      <trkpt lat="50.12528" lon="4.14865">
        <ele>199.6</ele>
        <time>2024-03-29T06:42:24Z</time>
      </trkpt>
      <trkpt lat="50.12527" lon="4.14859">
        <ele>199.8</ele>
        <time>2024-03-29T06:42:25Z</time>
      </trkpt>
      <trkpt lat="50.12526" lon="4.14852">
        <ele>199.8</ele>
        <time>2024-03-29T06:42:26Z</time>
      </trkpt>
      <trkpt lat="50.12525" lon="4.14846">
        <ele>200</ele>
        <time>2024-03-29T06:42:27Z</time>
      </trkpt>
      <trkpt lat="50.12524" lon="4.14839">
        <ele>200</ele>
        <time>2024-03-29T06:42:28Z</time>
      </trkpt>
      <trkpt lat="50.12522" lon="4.14833">
        <ele>200.2</ele>
        <time>2024-03-29T06:42:29Z</time>
      </trkpt>
      <trkpt lat="50.12521" lon="4.14826">
        <ele>200.8</ele>
        <time>2024-03-29T06:42:30Z</time>
      </trkpt>
      <trkpt lat="50.1252" lon="4.1482">
        <ele>201.4</ele>
        <time>2024-03-29T06:42:31Z</time>
      </trkpt>
      <trkpt lat="50.12519" lon="4.14813">
        <ele>201.8</ele>
        <time>2024-03-29T06:42:32Z</time>
      </trkpt>
      <trkpt lat="50.12519" lon="4.14807">
        <ele>202</ele>
        <time>2024-03-29T06:42:33Z</time>
      </trkpt>
      <trkpt lat="50.12519" lon="4.14801">
        <ele>202</ele>
        <time>2024-03-29T06:42:34Z</time>
      </trkpt>
      <trkpt lat="50.12519" lon="4.14794">
        <ele>202.4</ele>
        <time>2024-03-29T06:42:35Z</time>
      </trkpt>
      <trkpt lat="50.12519" lon="4.14788">
        <ele>202.6</ele>
        <time>2024-03-29T06:42:36Z</time>
      </trkpt>
      <trkpt lat="50.12519" lon="4.14782">
        <ele>202.8</ele>
        <time>2024-03-29T06:42:37Z</time>
      </trkpt>
      <trkpt lat="50.12519" lon="4.14775">
        <ele>202.8</ele>
        <time>2024-03-29T06:42:38Z</time>
      </trkpt>
      <trkpt lat="50.1252" lon="4.14769">
        <ele>203</ele>
        <time>2024-03-29T06:42:39Z</time>
      </trkpt>
      <trkpt lat="50.1252" lon="4.14762">
        <ele>203.4</ele>
        <time>2024-03-29T06:42:40Z</time>
      </trkpt>
      <trkpt lat="50.12521" lon="4.14756">
        <ele>203.4</ele>
        <time>2024-03-29T06:42:41Z</time>
      </trkpt>
      <trkpt lat="50.12521" lon="4.14749">
        <ele>203.6</ele>
        <time>2024-03-29T06:42:42Z</time>
      </trkpt>
      <trkpt lat="50.12522" lon="4.14743">
        <ele>203.6</ele>
        <time>2024-03-29T06:42:43Z</time>
      </trkpt>
      <trkpt lat="50.12523" lon="4.14736">
        <ele>203.8</ele>
        <time>2024-03-29T06:42:44Z</time>
      </trkpt>
      <trkpt lat="50.12524" lon="4.1473">
        <ele>204.4</ele>
        <time>2024-03-29T06:42:45Z</time>
      </trkpt>
      <trkpt lat="50.12526" lon="4.14723">
        <ele>205.6</ele>
        <time>2024-03-29T06:42:46Z</time>
      </trkpt>
      <trkpt lat="50.12527" lon="4.14716">
        <ele>206.4</ele>
        <time>2024-03-29T06:42:47Z</time>
      </trkpt>
      <trkpt lat="50.12529" lon="4.14709">
        <ele>206.8</ele>
        <time>2024-03-29T06:42:48Z</time>
      </trkpt>
      <trkpt lat="50.12531" lon="4.14703">
        <ele>207.2</ele>
        <time>2024-03-29T06:42:49Z</time>
      </trkpt>
      <trkpt lat="50.12533" lon="4.14696">
        <ele>207.6</ele>
        <time>2024-03-29T06:42:50Z</time>
      </trkpt>
      <trkpt lat="50.12535" lon="4.1469">
        <ele>207.8</ele>
        <time>2024-03-29T06:42:51Z</time>
      </trkpt>
      <trkpt lat="50.12537" lon="4.14683">
        <ele>208.2</ele>
        <time>2024-03-29T06:42:52Z</time>
      </trkpt>
      <trkpt lat="50.12539" lon="4.14677">
        <ele>208.4</ele>
        <time>2024-03-29T06:42:53Z</time>
      </trkpt>
      <trkpt lat="50.12542" lon="4.14671">
        <ele>208.4</ele>
        <time>2024-03-29T06:42:54Z</time>
      </trkpt>
      <trkpt lat="50.12545" lon="4.14665">
        <ele>208.4</ele>
        <time>2024-03-29T06:42:55Z</time>
      </trkpt>
      <trkpt lat="50.12548" lon="4.14659">
        <ele>208.6</ele>
        <time>2024-03-29T06:42:56Z</time>
      </trkpt>
      <trkpt lat="50.12551" lon="4.14653">
        <ele>208.8</ele>
        <time>2024-03-29T06:42:57Z</time>
      </trkpt>
      <trkpt lat="50.12554" lon="4.14648">
        <ele>209.6</ele>
        <time>2024-03-29T06:42:58Z</time>
      </trkpt>
      <trkpt lat="50.12557" lon="4.14642">
        <ele>210.2</ele>
        <time>2024-03-29T06:42:59Z</time>
      </trkpt>
      <trkpt lat="50.12561" lon="4.14637">
        <ele>210.6</ele>
        <time>2024-03-29T06:43:00Z</time>
      </trkpt>
      <trkpt lat="50.12564" lon="4.14632">
        <ele>210.8</ele>
        <time>2024-03-29T06:43:01Z</time>
      </trkpt>
      <trkpt lat="50.12568" lon="4.14627">
        <ele>210.8</ele>
        <time>2024-03-29T06:43:02Z</time>
      </trkpt>
      <trkpt lat="50.12571" lon="4.14622">
        <ele>211.2</ele>
        <time>2024-03-29T06:43:03Z</time>
      </trkpt>
      <trkpt lat="50.12575" lon="4.14618">
        <ele>211.4</ele>
        <time>2024-03-29T06:43:04Z</time>
      </trkpt>
      <trkpt lat="50.1258" lon="4.14614">
        <ele>211.6</ele>
        <time>2024-03-29T06:43:05Z</time>
      </trkpt>
      <trkpt lat="50.12584" lon="4.1461">
        <ele>212</ele>
        <time>2024-03-29T06:43:06Z</time>
      </trkpt>
      <trkpt lat="50.12588" lon="4.14606">
        <ele>212.2</ele>
        <time>2024-03-29T06:43:07Z</time>
      </trkpt>
      <trkpt lat="50.12593" lon="4.14602">
        <ele>212.8</ele>
        <time>2024-03-29T06:43:08Z</time>
      </trkpt>
      <trkpt lat="50.12598" lon="4.14599">
        <ele>213.2</ele>
        <time>2024-03-29T06:43:09Z</time>
      </trkpt>
      <trkpt lat="50.12603" lon="4.14596">
        <ele>213.4</ele>
        <time>2024-03-29T06:43:10Z</time>
      </trkpt>
      <trkpt lat="50.12608" lon="4.14592">
        <ele>213.6</ele>
        <time>2024-03-29T06:43:11Z</time>
      </trkpt>
      <trkpt lat="50.12613" lon="4.14588">
        <ele>214.2</ele>
        <time>2024-03-29T06:43:12Z</time>
      </trkpt>
      <trkpt lat="50.12618" lon="4.14585">
        <ele>214.4</ele>
        <time>2024-03-29T06:43:13Z</time>
      </trkpt>
      <trkpt lat="50.12623" lon="4.14582">
        <ele>214.8</ele>
        <time>2024-03-29T06:43:14Z</time>
      </trkpt>
      <trkpt lat="50.12629" lon="4.14579">
        <ele>215</ele>
        <time>2024-03-29T06:43:15Z</time>
      </trkpt>
      <trkpt lat="50.12634" lon="4.14575">
        <ele>215.2</ele>
        <time>2024-03-29T06:43:16Z</time>
      </trkpt>
      <trkpt lat="50.1264" lon="4.14572">
        <ele>215.6</ele>
        <time>2024-03-29T06:43:17Z</time>
      </trkpt>
      <trkpt lat="50.12645" lon="4.14568">
        <ele>216</ele>
        <time>2024-03-29T06:43:18Z</time>
      </trkpt>
      <trkpt lat="50.12651" lon="4.14565">
        <ele>216</ele>
        <time>2024-03-29T06:43:19Z</time>
      </trkpt>
      <trkpt lat="50.12657" lon="4.14561">
        <ele>216.2</ele>
        <time>2024-03-29T06:43:20Z</time>
      </trkpt>
      <trkpt lat="50.12663" lon="4.14557">
        <ele>216.2</ele>
        <time>2024-03-29T06:43:21Z</time>
      </trkpt>
      <trkpt lat="50.1267" lon="4.14554">
        <ele>216.4</ele>
        <time>2024-03-29T06:43:22Z</time>
      </trkpt>
      <trkpt lat="50.12676" lon="4.1455">
        <ele>216.4</ele>
        <time>2024-03-29T06:43:23Z</time>
      </trkpt>
      <trkpt lat="50.12682" lon="4.14546">
        <ele>216.4</ele>
        <time>2024-03-29T06:43:24Z</time>
      </trkpt>
      <trkpt lat="50.12688" lon="4.14542">
        <ele>216.6</ele>
        <time>2024-03-29T06:43:25Z</time>
      </trkpt>
      <trkpt lat="50.12694" lon="4.14538">
        <ele>216.8</ele>
        <time>2024-03-29T06:43:26Z</time>
      </trkpt>
      <trkpt lat="50.12701" lon="4.14534">
        <ele>217</ele>
        <time>2024-03-29T06:43:27Z</time>
      </trkpt>
      <trkpt lat="50.12707" lon="4.1453">
        <ele>217</ele>
        <time>2024-03-29T06:43:28Z</time>
      </trkpt>
      <trkpt lat="50.12713" lon="4.14527">
        <ele>217</ele>
        <time>2024-03-29T06:43:29Z</time>
      </trkpt>
      <trkpt lat="50.12719" lon="4.14523">
        <ele>217.2</ele>
        <time>2024-03-29T06:43:30Z</time>
      </trkpt>
      <trkpt lat="50.12726" lon="4.14519">
        <ele>217.4</ele>
        <time>2024-03-29T06:43:31Z</time>
      </trkpt>
      <trkpt lat="50.12732" lon="4.14515">
        <ele>217.4</ele>
        <time>2024-03-29T06:43:32Z</time>
      </trkpt>
      <trkpt lat="50.12738" lon="4.14511">
        <ele>217.6</ele>
        <time>2024-03-29T06:43:33Z</time>
      </trkpt>
      <trkpt lat="50.12745" lon="4.14507">
        <ele>218</ele>
        <time>2024-03-29T06:43:34Z</time>
      </trkpt>
      <trkpt lat="50.12751" lon="4.14503">
        <ele>218</ele>
        <time>2024-03-29T06:43:35Z</time>
      </trkpt>
      <trkpt lat="50.12757" lon="4.14499">
        <ele>218.2</ele>
        <time>2024-03-29T06:43:36Z</time>
      </trkpt>
      <trkpt lat="50.12763" lon="4.14495">
        <ele>218.2</ele>
        <time>2024-03-29T06:43:37Z</time>
      </trkpt>
      <trkpt lat="50.1277" lon="4.14491">
        <ele>218.4</ele>
        <time>2024-03-29T06:43:38Z</time>
      </trkpt>
      <trkpt lat="50.12776" lon="4.14487">
        <ele>218.8</ele>
        <time>2024-03-29T06:43:39Z</time>
      </trkpt>
      <trkpt lat="50.12783" lon="4.14483">
        <ele>219.2</ele>
        <time>2024-03-29T06:43:40Z</time>
      </trkpt>
      <trkpt lat="50.12789" lon="4.14479">
        <ele>219.8</ele>
        <time>2024-03-29T06:43:41Z</time>
      </trkpt>
      <trkpt lat="50.12796" lon="4.14475">
        <ele>220.2</ele>
        <time>2024-03-29T06:43:42Z</time>
      </trkpt>
      <trkpt lat="50.12802" lon="4.14471">
        <ele>220.2</ele>
        <time>2024-03-29T06:43:43Z</time>
      </trkpt>
      <trkpt lat="50.12809" lon="4.14467">
        <ele>220.4</ele>
        <time>2024-03-29T06:43:44Z</time>
      </trkpt>
      <trkpt lat="50.12816" lon="4.14463">
        <ele>220.4</ele>
        <time>2024-03-29T06:43:45Z</time>
      </trkpt>
      <trkpt lat="50.12822" lon="4.14459">
        <ele>220.6</ele>
        <time>2024-03-29T06:43:46Z</time>
      </trkpt>
      <trkpt lat="50.12829" lon="4.14455">
        <ele>220.6</ele>
        <time>2024-03-29T06:43:47Z</time>
      </trkpt>
      <trkpt lat="50.12835" lon="4.1445">
        <ele>220.6</ele>
        <time>2024-03-29T06:43:48Z</time>
      </trkpt>
      <trkpt lat="50.12842" lon="4.14446">
        <ele>220.8</ele>
        <time>2024-03-29T06:43:49Z</time>
      </trkpt>
      <trkpt lat="50.12849" lon="4.14441">
        <ele>221</ele>
        <time>2024-03-29T06:43:50Z</time>
      </trkpt>
      <trkpt lat="50.12855" lon="4.14435">
        <ele>220.8</ele>
        <time>2024-03-29T06:43:51Z</time>
      </trkpt>
      <trkpt lat="50.12861" lon="4.14429">
        <ele>220.8</ele>
        <time>2024-03-29T06:43:52Z</time>
      </trkpt>
      <trkpt lat="50.12867" lon="4.14423">
        <ele>220.8</ele>
        <time>2024-03-29T06:43:53Z</time>
      </trkpt>
      <trkpt lat="50.12873" lon="4.14416">
        <ele>220.8</ele>
        <time>2024-03-29T06:43:54Z</time>
      </trkpt>
      <trkpt lat="50.12878" lon="4.14408">
        <ele>220.8</ele>
        <time>2024-03-29T06:43:55Z</time>
      </trkpt>
      <trkpt lat="50.12883" lon="4.14401">
        <ele>220.8</ele>
        <time>2024-03-29T06:43:56Z</time>
      </trkpt>
      <trkpt lat="50.12888" lon="4.14393">
        <ele>220.8</ele>
        <time>2024-03-29T06:43:57Z</time>
      </trkpt>
      <trkpt lat="50.12893" lon="4.14384">
        <ele>221</ele>
        <time>2024-03-29T06:43:58Z</time>
      </trkpt>
      <trkpt lat="50.12897" lon="4.14375">
        <ele>220.8</ele>
        <time>2024-03-29T06:43:59Z</time>
      </trkpt>
      <trkpt lat="50.12901" lon="4.14366">
        <ele>220.8</ele>
        <time>2024-03-29T06:44:00Z</time>
      </trkpt>
      <trkpt lat="50.12905" lon="4.14357">
        <ele>221</ele>
        <time>2024-03-29T06:44:01Z</time>
      </trkpt>
      <trkpt lat="50.12909" lon="4.14348">
        <ele>221</ele>
        <time>2024-03-29T06:44:02Z</time>
      </trkpt>
      <trkpt lat="50.12913" lon="4.14339">
        <ele>221</ele>
        <time>2024-03-29T06:44:03Z</time>
      </trkpt>
      <trkpt lat="50.12917" lon="4.1433">
        <ele>221</ele>
        <time>2024-03-29T06:44:04Z</time>
      </trkpt>
      <trkpt lat="50.1292" lon="4.1432">
        <ele>221</ele>
        <time>2024-03-29T06:44:05Z</time>
      </trkpt>
      <trkpt lat="50.12924" lon="4.14311">
        <ele>221</ele>
        <time>2024-03-29T06:44:06Z</time>
      </trkpt>
      <trkpt lat="50.12927" lon="4.14302">
        <ele>221</ele>
        <time>2024-03-29T06:44:07Z</time>
      </trkpt>
      <trkpt lat="50.1293" lon="4.14292">
        <ele>221</ele>
        <time>2024-03-29T06:44:08Z</time>
      </trkpt>
      <trkpt lat="50.12934" lon="4.14283">
        <ele>221</ele>
        <time>2024-03-29T06:44:09Z</time>
      </trkpt>
      <trkpt lat="50.12937" lon="4.14273">
        <ele>221</ele>
        <time>2024-03-29T06:44:10Z</time>
      </trkpt>
      <trkpt lat="50.1294" lon="4.14263">
        <ele>221</ele>
        <time>2024-03-29T06:44:11Z</time>
      </trkpt>
      <trkpt lat="50.12942" lon="4.14253">
        <ele>221.2</ele>
        <time>2024-03-29T06:44:12Z</time>
      </trkpt>
      <trkpt lat="50.12945" lon="4.14244">
        <ele>221.2</ele>
        <time>2024-03-29T06:44:13Z</time>
      </trkpt>
      <trkpt lat="50.12948" lon="4.14234">
        <ele>221.2</ele>
        <time>2024-03-29T06:44:14Z</time>
      </trkpt>
      <trkpt lat="50.1295" lon="4.14224">
        <ele>221.4</ele>
        <time>2024-03-29T06:44:15Z</time>
      </trkpt>
      <trkpt lat="50.12952" lon="4.14214">
        <ele>221.6</ele>
        <time>2024-03-29T06:44:16Z</time>
      </trkpt>
      <trkpt lat="50.12955" lon="4.14204">
        <ele>221.8</ele>
        <time>2024-03-29T06:44:17Z</time>
      </trkpt>
      <trkpt lat="50.12957" lon="4.14194">
        <ele>222.4</ele>
        <time>2024-03-29T06:44:18Z</time>
      </trkpt>
      <trkpt lat="50.12959" lon="4.14184">
        <ele>222.8</ele>
        <time>2024-03-29T06:44:19Z</time>
      </trkpt>
      <trkpt lat="50.12962" lon="4.14174">
        <ele>222.8</ele>
        <time>2024-03-29T06:44:20Z</time>
      </trkpt>
      <trkpt lat="50.12964" lon="4.14164">
        <ele>223.4</ele>
        <time>2024-03-29T06:44:21Z</time>
      </trkpt>
      <trkpt lat="50.12967" lon="4.14154">
        <ele>223.6</ele>
        <time>2024-03-29T06:44:22Z</time>
      </trkpt>
      <trkpt lat="50.12969" lon="4.14144">
        <ele>223.8</ele>
        <time>2024-03-29T06:44:23Z</time>
      </trkpt>
      <trkpt lat="50.12971" lon="4.14134">
        <ele>224</ele>
        <time>2024-03-29T06:44:24Z</time>
      </trkpt>
      <trkpt lat="50.12974" lon="4.14124">
        <ele>224.2</ele>
        <time>2024-03-29T06:44:25Z</time>
      </trkpt>
      <trkpt lat="50.12976" lon="4.14114">
        <ele>224.4</ele>
        <time>2024-03-29T06:44:26Z</time>
      </trkpt>
      <trkpt lat="50.12979" lon="4.14104">
        <ele>224.6</ele>
        <time>2024-03-29T06:44:27Z</time>
      </trkpt>
      <trkpt lat="50.12981" lon="4.14093">
        <ele>224.8</ele>
        <time>2024-03-29T06:44:28Z</time>
      </trkpt>
      <trkpt lat="50.12983" lon="4.14083">
        <ele>224.8</ele>
        <time>2024-03-29T06:44:29Z</time>
      </trkpt>
      <trkpt lat="50.12985" lon="4.14072">
        <ele>225</ele>
        <time>2024-03-29T06:44:30Z</time>
      </trkpt>
      <trkpt lat="50.12988" lon="4.14062">
        <ele>225</ele>
        <time>2024-03-29T06:44:31Z</time>
      </trkpt>
      <trkpt lat="50.1299" lon="4.14051">
        <ele>225.2</ele>
        <time>2024-03-29T06:44:32Z</time>
      </trkpt>
      <trkpt lat="50.12992" lon="4.14041">
        <ele>225.2</ele>
        <time>2024-03-29T06:44:33Z</time>
      </trkpt>
      <trkpt lat="50.12994" lon="4.1403">
        <ele>225.2</ele>
        <time>2024-03-29T06:44:34Z</time>
      </trkpt>
      <trkpt lat="50.12997" lon="4.1402">
        <ele>225.2</ele>
        <time>2024-03-29T06:44:35Z</time>
      </trkpt>
      <trkpt lat="50.12999" lon="4.14009">
        <ele>225.2</ele>
        <time>2024-03-29T06:44:36Z</time>
      </trkpt>
      <trkpt lat="50.13001" lon="4.13998">
        <ele>225.2</ele>
        <time>2024-03-29T06:44:37Z</time>
      </trkpt>
      <trkpt lat="50.13003" lon="4.13987">
        <ele>225.2</ele>
        <time>2024-03-29T06:44:38Z</time>
      </trkpt>
      <trkpt lat="50.13006" lon="4.13976">
        <ele>225.2</ele>
        <time>2024-03-29T06:44:39Z</time>
      </trkpt>
      <trkpt lat="50.13008" lon="4.13966">
        <ele>225.2</ele>
        <time>2024-03-29T06:44:40Z</time>
      </trkpt>
      <trkpt lat="50.1301" lon="4.13955">
        <ele>225</ele>
        <time>2024-03-29T06:44:41Z</time>
      </trkpt>
      <trkpt lat="50.13012" lon="4.13943">
        <ele>225</ele>
        <time>2024-03-29T06:44:42Z</time>
      </trkpt>
      <trkpt lat="50.13015" lon="4.13932">
        <ele>225</ele>
        <time>2024-03-29T06:44:43Z</time>
      </trkpt>
      <trkpt lat="50.13017" lon="4.13921">
        <ele>224.8</ele>
        <time>2024-03-29T06:44:44Z</time>
      </trkpt>
      <trkpt lat="50.13019" lon="4.1391">
        <ele>224.8</ele>
        <time>2024-03-29T06:44:45Z</time>
      </trkpt>
      <trkpt lat="50.13022" lon="4.13899">
        <ele>224.8</ele>
        <time>2024-03-29T06:44:46Z</time>
      </trkpt>
      <trkpt lat="50.13024" lon="4.13887">
        <ele>224.6</ele>
        <time>2024-03-29T06:44:47Z</time>
      </trkpt>
      <trkpt lat="50.13027" lon="4.13876">
        <ele>224.4</ele>
        <time>2024-03-29T06:44:48Z</time>
      </trkpt>
      <trkpt lat="50.13029" lon="4.13864">
        <ele>224.4</ele>
        <time>2024-03-29T06:44:49Z</time>
      </trkpt>
      <trkpt lat="50.13032" lon="4.13853">
        <ele>224.4</ele>
        <time>2024-03-29T06:44:50Z</time>
      </trkpt>
      <trkpt lat="50.13035" lon="4.13841">
        <ele>224.4</ele>
        <time>2024-03-29T06:44:51Z</time>
      </trkpt>
      <trkpt lat="50.13037" lon="4.13829">
        <ele>224.2</ele>
        <time>2024-03-29T06:44:52Z</time>
      </trkpt>
      <trkpt lat="50.1304" lon="4.13817">
        <ele>224</ele>
        <time>2024-03-29T06:44:53Z</time>
      </trkpt>
      <trkpt lat="50.13043" lon="4.13805">
        <ele>223.8</ele>
        <time>2024-03-29T06:44:54Z</time>
      </trkpt>
      <trkpt lat="50.13046" lon="4.13793">
        <ele>223.8</ele>
        <time>2024-03-29T06:44:55Z</time>
      </trkpt>
      <trkpt lat="50.13049" lon="4.13781">
        <ele>223.4</ele>
        <time>2024-03-29T06:44:56Z</time>
      </trkpt>
      <trkpt lat="50.13052" lon="4.13769">
        <ele>223</ele>
        <time>2024-03-29T06:44:57Z</time>
      </trkpt>
      <trkpt lat="50.13055" lon="4.13757">
        <ele>222.8</ele>
        <time>2024-03-29T06:44:58Z</time>
      </trkpt>
      <trkpt lat="50.13058" lon="4.13745">
        <ele>222.8</ele>
        <time>2024-03-29T06:44:59Z</time>
      </trkpt>
      <trkpt lat="50.13061" lon="4.13733">
        <ele>222.4</ele>
        <time>2024-03-29T06:45:00Z</time>
      </trkpt>
      <trkpt lat="50.13065" lon="4.13721">
        <ele>222</ele>
        <time>2024-03-29T06:45:01Z</time>
      </trkpt>
      <trkpt lat="50.13068" lon="4.13708">
        <ele>221.6</ele>
        <time>2024-03-29T06:45:02Z</time>
      </trkpt>
      <trkpt lat="50.13071" lon="4.13696">
        <ele>221.4</ele>
        <time>2024-03-29T06:45:03Z</time>
      </trkpt>
      <trkpt lat="50.13075" lon="4.13684">
        <ele>220.8</ele>
        <time>2024-03-29T06:45:04Z</time>
      </trkpt>
      <trkpt lat="50.13078" lon="4.13672">
        <ele>220.6</ele>
        <time>2024-03-29T06:45:05Z</time>
      </trkpt>
      <trkpt lat="50.13082" lon="4.1366">
        <ele>220.4</ele>
        <time>2024-03-29T06:45:06Z</time>
      </trkpt>
      <trkpt lat="50.13085" lon="4.13649">
        <ele>219.6</ele>
        <time>2024-03-29T06:45:07Z</time>
      </trkpt>
      <trkpt lat="50.13088" lon="4.13637">
        <ele>219.2</ele>
        <time>2024-03-29T06:45:08Z</time>
      </trkpt>
      <trkpt lat="50.13092" lon="4.13626">
        <ele>218.8</ele>
        <time>2024-03-29T06:45:09Z</time>
      </trkpt>
      <trkpt lat="50.13095" lon="4.13615">
        <ele>218.8</ele>
        <time>2024-03-29T06:45:10Z</time>
      </trkpt>
      <trkpt lat="50.13098" lon="4.13604">
        <ele>218.8</ele>
        <time>2024-03-29T06:45:11Z</time>
      </trkpt>
      <trkpt lat="50.13101" lon="4.13594">
        <ele>218.8</ele>
        <time>2024-03-29T06:45:12Z</time>
      </trkpt>
      <trkpt lat="50.13104" lon="4.13583">
        <ele>218.8</ele>
        <time>2024-03-29T06:45:13Z</time>
      </trkpt>
      <trkpt lat="50.13107" lon="4.13573">
        <ele>218.8</ele>
        <time>2024-03-29T06:45:14Z</time>
      </trkpt>
      <trkpt lat="50.1311" lon="4.13563">
        <ele>218.8</ele>
        <time>2024-03-29T06:45:15Z</time>
      </trkpt>
      <trkpt lat="50.13112" lon="4.13553">
        <ele>218.6</ele>
        <time>2024-03-29T06:45:16Z</time>
      </trkpt>
      <trkpt lat="50.13115" lon="4.13543">
        <ele>218.6</ele>
        <time>2024-03-29T06:45:17Z</time>
      </trkpt>
      <trkpt lat="50.13117" lon="4.13534">
        <ele>218.8</ele>
        <time>2024-03-29T06:45:18Z</time>
      </trkpt>
      <trkpt lat="50.13119" lon="4.13523">
        <ele>218.8</ele>
        <time>2024-03-29T06:45:19Z</time>
      </trkpt>
      <trkpt lat="50.13119" lon="4.13513">
        <ele>219</ele>
        <time>2024-03-29T06:45:20Z</time>
      </trkpt>
      <trkpt lat="50.13117" lon="4.13503">
        <ele>219</ele>
        <time>2024-03-29T06:45:21Z</time>
      </trkpt>
      <trkpt lat="50.13114" lon="4.13494">
        <ele>219.2</ele>
        <time>2024-03-29T06:45:22Z</time>
      </trkpt>
      <trkpt lat="50.1311" lon="4.13485">
        <ele>219.4</ele>
        <time>2024-03-29T06:45:23Z</time>
      </trkpt>
      <trkpt lat="50.13106" lon="4.13477">
        <ele>219.6</ele>
        <time>2024-03-29T06:45:24Z</time>
      </trkpt>
      <trkpt lat="50.13103" lon="4.13469">
        <ele>219.6</ele>
        <time>2024-03-29T06:45:25Z</time>
      </trkpt>
      <trkpt lat="50.13099" lon="4.1346">
        <ele>219.8</ele>
        <time>2024-03-29T06:45:26Z</time>
      </trkpt>
      <trkpt lat="50.13096" lon="4.13452">
        <ele>219.8</ele>
        <time>2024-03-29T06:45:27Z</time>
      </trkpt>
      <trkpt lat="50.13092" lon="4.13443">
        <ele>219.8</ele>
        <time>2024-03-29T06:45:28Z</time>
      </trkpt>
      <trkpt lat="50.13088" lon="4.13435">
        <ele>219.8</ele>
        <time>2024-03-29T06:45:29Z</time>
      </trkpt>
      <trkpt lat="50.13084" lon="4.13427">
        <ele>219.8</ele>
        <time>2024-03-29T06:45:30Z</time>
      </trkpt>
      <trkpt lat="50.13079" lon="4.13418">
        <ele>219.8</ele>
        <time>2024-03-29T06:45:31Z</time>
      </trkpt>
      <trkpt lat="50.13075" lon="4.1341">
        <ele>219.8</ele>
        <time>2024-03-29T06:45:32Z</time>
      </trkpt>
      <trkpt lat="50.13071" lon="4.13402">
        <ele>219.8</ele>
        <time>2024-03-29T06:45:33Z</time>
      </trkpt>
      <trkpt lat="50.13067" lon="4.13393">
        <ele>219.8</ele>
        <time>2024-03-29T06:45:34Z</time>
      </trkpt>
      <trkpt lat="50.13062" lon="4.13385">
        <ele>219.8</ele>
        <time>2024-03-29T06:45:35Z</time>
      </trkpt>
      <trkpt lat="50.13058" lon="4.13377">
        <ele>219.6</ele>
        <time>2024-03-29T06:45:36Z</time>
      </trkpt>
      <trkpt lat="50.13054" lon="4.13368">
        <ele>219.6</ele>
        <time>2024-03-29T06:45:37Z</time>
      </trkpt>
      <trkpt lat="50.1305" lon="4.1336">
        <ele>219.6</ele>
        <time>2024-03-29T06:45:38Z</time>
      </trkpt>
      <trkpt lat="50.13045" lon="4.13351">
        <ele>219.6</ele>
        <time>2024-03-29T06:45:39Z</time>
      </trkpt>
      <trkpt lat="50.13041" lon="4.13343">
        <ele>219.4</ele>
        <time>2024-03-29T06:45:40Z</time>
      </trkpt>
      <trkpt lat="50.13037" lon="4.13334">
        <ele>219.2</ele>
        <time>2024-03-29T06:45:41Z</time>
      </trkpt>
      <trkpt lat="50.13033" lon="4.13325">
        <ele>218.8</ele>
        <time>2024-03-29T06:45:42Z</time>
      </trkpt>
      <trkpt lat="50.13029" lon="4.13317">
        <ele>218.8</ele>
        <time>2024-03-29T06:45:43Z</time>
      </trkpt>
      <trkpt lat="50.13024" lon="4.13308">
        <ele>218.6</ele>
        <time>2024-03-29T06:45:44Z</time>
      </trkpt>
      <trkpt lat="50.1302" lon="4.133">
        <ele>218.4</ele>
        <time>2024-03-29T06:45:45Z</time>
      </trkpt>
      <trkpt lat="50.13016" lon="4.13291">
        <ele>218.4</ele>
        <time>2024-03-29T06:45:46Z</time>
      </trkpt>
      <trkpt lat="50.13012" lon="4.13282">
        <ele>218.4</ele>
        <time>2024-03-29T06:45:47Z</time>
      </trkpt>
      <trkpt lat="50.13008" lon="4.13274">
        <ele>218.2</ele>
        <time>2024-03-29T06:45:48Z</time>
      </trkpt>
      <trkpt lat="50.13004" lon="4.13265">
        <ele>218.2</ele>
        <time>2024-03-29T06:45:49Z</time>
      </trkpt>
      <trkpt lat="50.13" lon="4.13257">
        <ele>218.2</ele>
        <time>2024-03-29T06:45:50Z</time>
      </trkpt>
      <trkpt lat="50.12996" lon="4.13248">
        <ele>218.2</ele>
        <time>2024-03-29T06:45:51Z</time>
      </trkpt>
      <trkpt lat="50.12992" lon="4.1324">
        <ele>218.2</ele>
        <time>2024-03-29T06:45:52Z</time>
      </trkpt>
      <trkpt lat="50.12987" lon="4.13231">
        <ele>218.2</ele>
        <time>2024-03-29T06:45:53Z</time>
      </trkpt>
      <trkpt lat="50.12983" lon="4.13222">
        <ele>218</ele>
        <time>2024-03-29T06:45:54Z</time>
      </trkpt>
      <trkpt lat="50.12979" lon="4.13214">
        <ele>218</ele>
        <time>2024-03-29T06:45:55Z</time>
      </trkpt>
      <trkpt lat="50.12975" lon="4.13205">
        <ele>218</ele>
        <time>2024-03-29T06:45:56Z</time>
      </trkpt>
      <trkpt lat="50.12971" lon="4.13197">
        <ele>218.2</ele>
        <time>2024-03-29T06:45:57Z</time>
      </trkpt>
      <trkpt lat="50.12967" lon="4.13188">
        <ele>218.2</ele>
        <time>2024-03-29T06:45:58Z</time>
      </trkpt>
      <trkpt lat="50.12963" lon="4.13179">
        <ele>218</ele>
        <time>2024-03-29T06:45:59Z</time>
      </trkpt>
      <trkpt lat="50.12959" lon="4.13171">
        <ele>218.2</ele>
        <time>2024-03-29T06:46:00Z</time>
      </trkpt>
      <trkpt lat="50.12955" lon="4.13162">
        <ele>218.2</ele>
        <time>2024-03-29T06:46:01Z</time>
      </trkpt>
      <trkpt lat="50.1295" lon="4.13153">
        <ele>218.2</ele>
        <time>2024-03-29T06:46:02Z</time>
      </trkpt>
      <trkpt lat="50.12946" lon="4.13145">
        <ele>218.4</ele>
        <time>2024-03-29T06:46:03Z</time>
      </trkpt>
      <trkpt lat="50.12942" lon="4.13136">
        <ele>218.4</ele>
        <time>2024-03-29T06:46:04Z</time>
      </trkpt>
      <trkpt lat="50.12938" lon="4.13127">
        <ele>218.2</ele>
        <time>2024-03-29T06:46:05Z</time>
      </trkpt>
      <trkpt lat="50.12934" lon="4.13118">
        <ele>218.2</ele>
        <time>2024-03-29T06:46:06Z</time>
      </trkpt>
      <trkpt lat="50.12929" lon="4.1311">
        <ele>218.2</ele>
        <time>2024-03-29T06:46:07Z</time>
      </trkpt>
      <trkpt lat="50.12925" lon="4.13101">
        <ele>218.4</ele>
        <time>2024-03-29T06:46:08Z</time>
      </trkpt>
      <trkpt lat="50.12921" lon="4.13092">
        <ele>218.4</ele>
        <time>2024-03-29T06:46:09Z</time>
      </trkpt>
      <trkpt lat="50.12917" lon="4.13083">
        <ele>218.4</ele>
        <time>2024-03-29T06:46:10Z</time>
      </trkpt>
      <trkpt lat="50.12913" lon="4.13074">
        <ele>218.2</ele>
        <time>2024-03-29T06:46:11Z</time>
      </trkpt>
      <trkpt lat="50.12909" lon="4.13065">
        <ele>218</ele>
        <time>2024-03-29T06:46:12Z</time>
      </trkpt>
      <trkpt lat="50.12904" lon="4.13056">
        <ele>218</ele>
        <time>2024-03-29T06:46:13Z</time>
      </trkpt>
      <trkpt lat="50.129" lon="4.13047">
        <ele>217.8</ele>
        <time>2024-03-29T06:46:14Z</time>
      </trkpt>
      <trkpt lat="50.12896" lon="4.13037">
        <ele>217.8</ele>
        <time>2024-03-29T06:46:15Z</time>
      </trkpt>
      <trkpt lat="50.12891" lon="4.13028">
        <ele>217.6</ele>
        <time>2024-03-29T06:46:16Z</time>
      </trkpt>
      <trkpt lat="50.12887" lon="4.13019">
        <ele>217.6</ele>
        <time>2024-03-29T06:46:17Z</time>
      </trkpt>
      <trkpt lat="50.12882" lon="4.1301">
        <ele>217.4</ele>
        <time>2024-03-29T06:46:18Z</time>
      </trkpt>
      <trkpt lat="50.12878" lon="4.13">
        <ele>217.4</ele>
        <time>2024-03-29T06:46:19Z</time>
      </trkpt>
      <trkpt lat="50.12873" lon="4.12991">
        <ele>217.4</ele>
        <time>2024-03-29T06:46:20Z</time>
      </trkpt>
      <trkpt lat="50.12868" lon="4.12981">
        <ele>217.2</ele>
        <time>2024-03-29T06:46:21Z</time>
      </trkpt>
      <trkpt lat="50.12863" lon="4.12972">
        <ele>217.2</ele>
        <time>2024-03-29T06:46:22Z</time>
      </trkpt>
      <trkpt lat="50.12859" lon="4.12962">
        <ele>216.8</ele>
        <time>2024-03-29T06:46:23Z</time>
      </trkpt>
      <trkpt lat="50.12854" lon="4.12952">
        <ele>216.2</ele>
        <time>2024-03-29T06:46:24Z</time>
      </trkpt>
      <trkpt lat="50.12849" lon="4.12943">
        <ele>215.4</ele>
        <time>2024-03-29T06:46:25Z</time>
      </trkpt>
      <trkpt lat="50.12845" lon="4.12933">
        <ele>215.2</ele>
        <time>2024-03-29T06:46:26Z</time>
      </trkpt>
      <trkpt lat="50.1284" lon="4.12923">
        <ele>214.8</ele>
        <time>2024-03-29T06:46:27Z</time>
      </trkpt>
      <trkpt lat="50.12835" lon="4.12913">
        <ele>214.4</ele>
        <time>2024-03-29T06:46:28Z</time>
      </trkpt>
      <trkpt lat="50.12831" lon="4.12903">
        <ele>214.4</ele>
        <time>2024-03-29T06:46:29Z</time>
      </trkpt>
      <trkpt lat="50.12826" lon="4.12893">
        <ele>214.4</ele>
        <time>2024-03-29T06:46:30Z</time>
      </trkpt>
      <trkpt lat="50.12821" lon="4.12883">
        <ele>214</ele>
        <time>2024-03-29T06:46:31Z</time>
      </trkpt>
      <trkpt lat="50.12816" lon="4.12873">
        <ele>213.8</ele>
        <time>2024-03-29T06:46:32Z</time>
      </trkpt>
      <trkpt lat="50.12811" lon="4.12863">
        <ele>213.6</ele>
        <time>2024-03-29T06:46:33Z</time>
      </trkpt>
      <trkpt lat="50.12806" lon="4.12853">
        <ele>213.8</ele>
        <time>2024-03-29T06:46:34Z</time>
      </trkpt>
      <trkpt lat="50.12802" lon="4.12843">
        <ele>213.6</ele>
        <time>2024-03-29T06:46:35Z</time>
      </trkpt>
      <trkpt lat="50.12797" lon="4.12832">
        <ele>213.6</ele>
        <time>2024-03-29T06:46:36Z</time>
      </trkpt>
      <trkpt lat="50.12792" lon="4.12821">
        <ele>213.6</ele>
        <time>2024-03-29T06:46:37Z</time>
      </trkpt>
      <trkpt lat="50.12787" lon="4.12811">
        <ele>213.6</ele>
        <time>2024-03-29T06:46:38Z</time>
      </trkpt>
      <trkpt lat="50.12782" lon="4.12801">
        <ele>213.4</ele>
        <time>2024-03-29T06:46:39Z</time>
      </trkpt>
      <trkpt lat="50.12777" lon="4.12791">
        <ele>213.2</ele>
        <time>2024-03-29T06:46:40Z</time>
      </trkpt>
      <trkpt lat="50.12773" lon="4.12781">
        <ele>213</ele>
        <time>2024-03-29T06:46:41Z</time>
      </trkpt>
      <trkpt lat="50.12768" lon="4.1277">
        <ele>212.8</ele>
        <time>2024-03-29T06:46:42Z</time>
      </trkpt>
      <trkpt lat="50.12763" lon="4.1276">
        <ele>212.6</ele>
        <time>2024-03-29T06:46:43Z</time>
      </trkpt>
      <trkpt lat="50.12758" lon="4.1275">
        <ele>212.2</ele>
        <time>2024-03-29T06:46:44Z</time>
      </trkpt>
      <trkpt lat="50.12753" lon="4.1274">
        <ele>211.8</ele>
        <time>2024-03-29T06:46:45Z</time>
      </trkpt>
      <trkpt lat="50.12748" lon="4.12729">
        <ele>211.2</ele>
        <time>2024-03-29T06:46:46Z</time>
      </trkpt>
      <trkpt lat="50.12743" lon="4.12719">
        <ele>211</ele>
        <time>2024-03-29T06:46:47Z</time>
      </trkpt>
      <trkpt lat="50.12737" lon="4.1271">
        <ele>210.6</ele>
        <time>2024-03-29T06:46:48Z</time>
      </trkpt>
      <trkpt lat="50.12731" lon="4.12701">
        <ele>210.4</ele>
        <time>2024-03-29T06:46:49Z</time>
      </trkpt>
      <trkpt lat="50.12724" lon="4.12692">
        <ele>210.4</ele>
        <time>2024-03-29T06:46:50Z</time>
      </trkpt>
      <trkpt lat="50.12718" lon="4.12683">
        <ele>210.2</ele>
        <time>2024-03-29T06:46:51Z</time>
      </trkpt>
      <trkpt lat="50.12711" lon="4.12675">
        <ele>210.2</ele>
        <time>2024-03-29T06:46:52Z</time>
      </trkpt>
      <trkpt lat="50.12703" lon="4.12668">
        <ele>210</ele>
        <time>2024-03-29T06:46:53Z</time>
      </trkpt>
      <trkpt lat="50.12695" lon="4.12662">
        <ele>210</ele>
        <time>2024-03-29T06:46:54Z</time>
      </trkpt>
      <trkpt lat="50.12687" lon="4.12656">
        <ele>209.6</ele>
        <time>2024-03-29T06:46:55Z</time>
      </trkpt>
      <trkpt lat="50.12678" lon="4.1265">
        <ele>209.2</ele>
        <time>2024-03-29T06:46:56Z</time>
      </trkpt>
      <trkpt lat="50.1267" lon="4.12644">
        <ele>208.4</ele>
        <time>2024-03-29T06:46:57Z</time>
      </trkpt>
      <trkpt lat="50.12661" lon="4.12639">
        <ele>208.2</ele>
        <time>2024-03-29T06:46:58Z</time>
      </trkpt>
      <trkpt lat="50.12652" lon="4.12633">
        <ele>207.8</ele>
        <time>2024-03-29T06:46:59Z</time>
      </trkpt>
      <trkpt lat="50.12643" lon="4.12628">
        <ele>207.8</ele>
        <time>2024-03-29T06:47:00Z</time>
      </trkpt>
      <trkpt lat="50.12634" lon="4.12622">
        <ele>207.4</ele>
        <time>2024-03-29T06:47:01Z</time>
      </trkpt>
      <trkpt lat="50.12625" lon="4.12616">
        <ele>207.2</ele>
        <time>2024-03-29T06:47:02Z</time>
      </trkpt>
      <trkpt lat="50.12616" lon="4.12611">
        <ele>206.8</ele>
        <time>2024-03-29T06:47:03Z</time>
      </trkpt>
      <trkpt lat="50.12606" lon="4.12607">
        <ele>206.2</ele>
        <time>2024-03-29T06:47:04Z</time>
      </trkpt>
      <trkpt lat="50.12597" lon="4.12603">
        <ele>205.8</ele>
        <time>2024-03-29T06:47:05Z</time>
      </trkpt>
      <trkpt lat="50.12587" lon="4.12599">
        <ele>205</ele>
        <time>2024-03-29T06:47:06Z</time>
      </trkpt>
      <trkpt lat="50.12576" lon="4.12596">
        <ele>204.6</ele>
        <time>2024-03-29T06:47:07Z</time>
      </trkpt>
      <trkpt lat="50.12566" lon="4.12594">
        <ele>204</ele>
        <time>2024-03-29T06:47:08Z</time>
      </trkpt>
      <trkpt lat="50.12556" lon="4.12592">
        <ele>203.2</ele>
        <time>2024-03-29T06:47:09Z</time>
      </trkpt>
      <trkpt lat="50.12545" lon="4.12589">
        <ele>202.6</ele>
        <time>2024-03-29T06:47:10Z</time>
      </trkpt>
      <trkpt lat="50.12535" lon="4.12587">
        <ele>202.4</ele>
        <time>2024-03-29T06:47:11Z</time>
      </trkpt>
      <trkpt lat="50.12524" lon="4.12584">
        <ele>201.8</ele>
        <time>2024-03-29T06:47:12Z</time>
      </trkpt>
      <trkpt lat="50.12514" lon="4.1258">
        <ele>201.2</ele>
        <time>2024-03-29T06:47:13Z</time>
      </trkpt>
      <trkpt lat="50.12504" lon="4.12576">
        <ele>200.8</ele>
        <time>2024-03-29T06:47:14Z</time>
      </trkpt>
      <trkpt lat="50.12493" lon="4.12572">
        <ele>200.2</ele>
        <time>2024-03-29T06:47:15Z</time>
      </trkpt>
      <trkpt lat="50.12483" lon="4.12567">
        <ele>199.8</ele>
        <time>2024-03-29T06:47:16Z</time>
      </trkpt>
      <trkpt lat="50.12473" lon="4.12562">
        <ele>198.8</ele>
        <time>2024-03-29T06:47:17Z</time>
      </trkpt>
      <trkpt lat="50.12462" lon="4.12557">
        <ele>197.8</ele>
        <time>2024-03-29T06:47:18Z</time>
      </trkpt>
      <trkpt lat="50.12451" lon="4.12553">
        <ele>196.8</ele>
        <time>2024-03-29T06:47:19Z</time>
      </trkpt>
      <trkpt lat="50.12441" lon="4.12548">
        <ele>195.8</ele>
        <time>2024-03-29T06:47:20Z</time>
      </trkpt>
      <trkpt lat="50.12431" lon="4.12544">
        <ele>195.2</ele>
        <time>2024-03-29T06:47:21Z</time>
      </trkpt>
      <trkpt lat="50.1242" lon="4.12539">
        <ele>195.2</ele>
        <time>2024-03-29T06:47:22Z</time>
      </trkpt>
      <trkpt lat="50.12409" lon="4.12534">
        <ele>193.8</ele>
        <time>2024-03-29T06:47:23Z</time>
      </trkpt>
      <trkpt lat="50.12398" lon="4.12529">
        <ele>192.8</ele>
        <time>2024-03-29T06:47:24Z</time>
      </trkpt>
      <trkpt lat="50.12388" lon="4.12524">
        <ele>191.8</ele>
        <time>2024-03-29T06:47:25Z</time>
      </trkpt>
      <trkpt lat="50.12377" lon="4.1252">
        <ele>191.4</ele>
        <time>2024-03-29T06:47:26Z</time>
      </trkpt>
      <trkpt lat="50.12366" lon="4.12515">
        <ele>190.6</ele>
        <time>2024-03-29T06:47:27Z</time>
      </trkpt>
      <trkpt lat="50.12356" lon="4.12509">
        <ele>190</ele>
        <time>2024-03-29T06:47:28Z</time>
      </trkpt>
      <trkpt lat="50.12345" lon="4.12502">
        <ele>189.2</ele>
        <time>2024-03-29T06:47:29Z</time>
      </trkpt>
      <trkpt lat="50.12336" lon="4.12493">
        <ele>188.2</ele>
        <time>2024-03-29T06:47:30Z</time>
      </trkpt>
      <trkpt lat="50.12328" lon="4.12481">
        <ele>187.2</ele>
        <time>2024-03-29T06:47:31Z</time>
      </trkpt>
      <trkpt lat="50.1232" lon="4.12469">
        <ele>186.4</ele>
        <time>2024-03-29T06:47:32Z</time>
      </trkpt>
      <trkpt lat="50.12314" lon="4.12455">
        <ele>185.6</ele>
        <time>2024-03-29T06:47:33Z</time>
      </trkpt>
      <trkpt lat="50.12308" lon="4.12441">
        <ele>185.2</ele>
        <time>2024-03-29T06:47:34Z</time>
      </trkpt>
      <trkpt lat="50.12303" lon="4.12426">
        <ele>184.6</ele>
        <time>2024-03-29T06:47:35Z</time>
      </trkpt>
      <trkpt lat="50.12298" lon="4.12411">
        <ele>184</ele>
        <time>2024-03-29T06:47:36Z</time>
      </trkpt>
      <trkpt lat="50.12294" lon="4.12396">
        <ele>183.4</ele>
        <time>2024-03-29T06:47:37Z</time>
      </trkpt>
      <trkpt lat="50.12289" lon="4.12381">
        <ele>182.6</ele>
        <time>2024-03-29T06:47:38Z</time>
      </trkpt>
      <trkpt lat="50.12285" lon="4.12367">
        <ele>182.2</ele>
        <time>2024-03-29T06:47:39Z</time>
      </trkpt>
      <trkpt lat="50.1228" lon="4.12353">
        <ele>181.8</ele>
        <time>2024-03-29T06:47:40Z</time>
      </trkpt>
      <trkpt lat="50.12276" lon="4.12339">
        <ele>181.4</ele>
        <time>2024-03-29T06:47:41Z</time>
      </trkpt>
      <trkpt lat="50.12272" lon="4.12325">
        <ele>181</ele>
        <time>2024-03-29T06:47:42Z</time>
      </trkpt>
      <trkpt lat="50.12268" lon="4.12312">
        <ele>180</ele>
        <time>2024-03-29T06:47:43Z</time>
      </trkpt>
      <trkpt lat="50.12264" lon="4.12298">
        <ele>180</ele>
        <time>2024-03-29T06:47:44Z</time>
      </trkpt>
      <trkpt lat="50.12261" lon="4.12285">
        <ele>179.4</ele>
        <time>2024-03-29T06:47:45Z</time>
      </trkpt>
      <trkpt lat="50.12258" lon="4.12272">
        <ele>179.2</ele>
        <time>2024-03-29T06:47:46Z</time>
      </trkpt>
      <trkpt lat="50.12255" lon="4.12259">
        <ele>179</ele>
        <time>2024-03-29T06:47:47Z</time>
      </trkpt>
      <trkpt lat="50.12252" lon="4.12246">
        <ele>179</ele>
        <time>2024-03-29T06:47:48Z</time>
      </trkpt>
      <trkpt lat="50.1225" lon="4.12234">
        <ele>178.6</ele>
        <time>2024-03-29T06:47:49Z</time>
      </trkpt>
      <trkpt lat="50.12248" lon="4.12221">
        <ele>178.6</ele>
        <time>2024-03-29T06:47:50Z</time>
      </trkpt>
      <trkpt lat="50.12246" lon="4.12209">
        <ele>178.4</ele>
        <time>2024-03-29T06:47:51Z</time>
      </trkpt>
      <trkpt lat="50.12245" lon="4.12196">
        <ele>178.4</ele>
        <time>2024-03-29T06:47:52Z</time>
      </trkpt>
      <trkpt lat="50.12243" lon="4.12184">
        <ele>178.4</ele>
        <time>2024-03-29T06:47:53Z</time>
      </trkpt>
      <trkpt lat="50.12242" lon="4.12172">
        <ele>178.6</ele>
        <time>2024-03-29T06:47:54Z</time>
      </trkpt>
      <trkpt lat="50.12241" lon="4.1216">
        <ele>178.6</ele>
        <time>2024-03-29T06:47:55Z</time>
      </trkpt>
      <trkpt lat="50.1224" lon="4.12149">
        <ele>178.6</ele>
        <time>2024-03-29T06:47:56Z</time>
      </trkpt>
      <trkpt lat="50.12239" lon="4.12137">
        <ele>178.8</ele>
        <time>2024-03-29T06:47:57Z</time>
      </trkpt>
      <trkpt lat="50.12238" lon="4.12125">
        <ele>178.8</ele>
        <time>2024-03-29T06:47:58Z</time>
      </trkpt>
      <trkpt lat="50.12237" lon="4.12113">
        <ele>179.2</ele>
        <time>2024-03-29T06:47:59Z</time>
      </trkpt>
      <trkpt lat="50.12236" lon="4.12101">
        <ele>179.2</ele>
        <time>2024-03-29T06:48:00Z</time>
      </trkpt>
      <trkpt lat="50.12235" lon="4.12089">
        <ele>179.4</ele>
        <time>2024-03-29T06:48:01Z</time>
      </trkpt>
      <trkpt lat="50.12234" lon="4.12077">
        <ele>179.4</ele>
        <time>2024-03-29T06:48:02Z</time>
      </trkpt>
      <trkpt lat="50.12232" lon="4.12065">
        <ele>179.4</ele>
        <time>2024-03-29T06:48:03Z</time>
      </trkpt>
      <trkpt lat="50.12231" lon="4.12052">
        <ele>179.6</ele>
        <time>2024-03-29T06:48:04Z</time>
      </trkpt>
      <trkpt lat="50.12229" lon="4.1204">
        <ele>179.6</ele>
        <time>2024-03-29T06:48:05Z</time>
      </trkpt>
      <trkpt lat="50.12227" lon="4.12026">
        <ele>179.6</ele>
        <time>2024-03-29T06:48:06Z</time>
      </trkpt>
      <trkpt lat="50.12225" lon="4.12013">
        <ele>179.6</ele>
        <time>2024-03-29T06:48:07Z</time>
      </trkpt>
      <trkpt lat="50.12223" lon="4.12">
        <ele>179.6</ele>
        <time>2024-03-29T06:48:08Z</time>
      </trkpt>
      <trkpt lat="50.1222" lon="4.11986">
        <ele>179.6</ele>
        <time>2024-03-29T06:48:09Z</time>
      </trkpt>
      <trkpt lat="50.12218" lon="4.11972">
        <ele>179.6</ele>
        <time>2024-03-29T06:48:10Z</time>
      </trkpt>
      <trkpt lat="50.12215" lon="4.11958">
        <ele>179.2</ele>
        <time>2024-03-29T06:48:11Z</time>
      </trkpt>
      <trkpt lat="50.12212" lon="4.11944">
        <ele>178.8</ele>
        <time>2024-03-29T06:48:12Z</time>
      </trkpt>
      <trkpt lat="50.12209" lon="4.1193">
        <ele>178.4</ele>
        <time>2024-03-29T06:48:13Z</time>
      </trkpt>
      <trkpt lat="50.12207" lon="4.11916">
        <ele>178.2</ele>
        <time>2024-03-29T06:48:14Z</time>
      </trkpt>
      <trkpt lat="50.12204" lon="4.11902">
        <ele>177.2</ele>
        <time>2024-03-29T06:48:15Z</time>
      </trkpt>
      <trkpt lat="50.12201" lon="4.11888">
        <ele>176</ele>
        <time>2024-03-29T06:48:16Z</time>
      </trkpt>
      <trkpt lat="50.12198" lon="4.11875">
        <ele>175.2</ele>
        <time>2024-03-29T06:48:17Z</time>
      </trkpt>
      <trkpt lat="50.12196" lon="4.11862">
        <ele>174.8</ele>
        <time>2024-03-29T06:48:18Z</time>
      </trkpt>
      <trkpt lat="50.12193" lon="4.11849">
        <ele>174.2</ele>
        <time>2024-03-29T06:48:19Z</time>
      </trkpt>
      <trkpt lat="50.12191" lon="4.11836">
        <ele>174</ele>
        <time>2024-03-29T06:48:20Z</time>
      </trkpt>
      <trkpt lat="50.12188" lon="4.11824">
        <ele>173.6</ele>
        <time>2024-03-29T06:48:21Z</time>
      </trkpt>
      <trkpt lat="50.12186" lon="4.11811">
        <ele>173.6</ele>
        <time>2024-03-29T06:48:22Z</time>
      </trkpt>
      <trkpt lat="50.12183" lon="4.11799">
        <ele>173.2</ele>
        <time>2024-03-29T06:48:23Z</time>
      </trkpt>
      <trkpt lat="50.12181" lon="4.11787">
        <ele>173.2</ele>
        <time>2024-03-29T06:48:24Z</time>
      </trkpt>
      <trkpt lat="50.12178" lon="4.11775">
        <ele>173</ele>
        <time>2024-03-29T06:48:25Z</time>
      </trkpt>
      <trkpt lat="50.12176" lon="4.11763">
        <ele>173</ele>
        <time>2024-03-29T06:48:26Z</time>
      </trkpt>
      <trkpt lat="50.12173" lon="4.11752">
        <ele>173.2</ele>
        <time>2024-03-29T06:48:27Z</time>
      </trkpt>
      <trkpt lat="50.12171" lon="4.1174">
        <ele>173.2</ele>
        <time>2024-03-29T06:48:28Z</time>
      </trkpt>
      <trkpt lat="50.12169" lon="4.11729">
        <ele>173</ele>
        <time>2024-03-29T06:48:29Z</time>
      </trkpt>
      <trkpt lat="50.12166" lon="4.11717">
        <ele>173</ele>
        <time>2024-03-29T06:48:30Z</time>
      </trkpt>
      <trkpt lat="50.12164" lon="4.11706">
        <ele>173</ele>
        <time>2024-03-29T06:48:31Z</time>
      </trkpt>
      <trkpt lat="50.12162" lon="4.11695">
        <ele>173.2</ele>
        <time>2024-03-29T06:48:32Z</time>
      </trkpt>
      <trkpt lat="50.1216" lon="4.11684">
        <ele>173.2</ele>
        <time>2024-03-29T06:48:33Z</time>
      </trkpt>
      <trkpt lat="50.12158" lon="4.11673">
        <ele>173.2</ele>
        <time>2024-03-29T06:48:34Z</time>
      </trkpt>
      <trkpt lat="50.12156" lon="4.11663">
        <ele>173.4</ele>
        <time>2024-03-29T06:48:35Z</time>
      </trkpt>
      <trkpt lat="50.12154" lon="4.11652">
        <ele>173.4</ele>
        <time>2024-03-29T06:48:36Z</time>
      </trkpt>
      <trkpt lat="50.12152" lon="4.11643">
        <ele>173.4</ele>
        <time>2024-03-29T06:48:37Z</time>
      </trkpt>
      <trkpt lat="50.1215" lon="4.11633">
        <ele>173.8</ele>
        <time>2024-03-29T06:48:38Z</time>
      </trkpt>
      <trkpt lat="50.12148" lon="4.11624">
        <ele>173.8</ele>
        <time>2024-03-29T06:48:39Z</time>
      </trkpt>
      <trkpt lat="50.12146" lon="4.11615">
        <ele>173.8</ele>
        <time>2024-03-29T06:48:40Z</time>
      </trkpt>
      <trkpt lat="50.12144" lon="4.11606">
        <ele>173.8</ele>
        <time>2024-03-29T06:48:41Z</time>
      </trkpt>
      <trkpt lat="50.12142" lon="4.11597">
        <ele>173.8</ele>
        <time>2024-03-29T06:48:42Z</time>
      </trkpt>
      <trkpt lat="50.1214" lon="4.11589">
        <ele>173.8</ele>
        <time>2024-03-29T06:48:43Z</time>
      </trkpt>
      <trkpt lat="50.12138" lon="4.1158">
        <ele>174</ele>
        <time>2024-03-29T06:48:44Z</time>
      </trkpt>
      <trkpt lat="50.12135" lon="4.11572">
        <ele>174.2</ele>
        <time>2024-03-29T06:48:45Z</time>
      </trkpt>
      <trkpt lat="50.12133" lon="4.11564">
        <ele>174.4</ele>
        <time>2024-03-29T06:48:46Z</time>
      </trkpt>
      <trkpt lat="50.12131" lon="4.11556">
        <ele>174.8</ele>
        <time>2024-03-29T06:48:47Z</time>
      </trkpt>
      <trkpt lat="50.12128" lon="4.11548">
        <ele>175</ele>
        <time>2024-03-29T06:48:48Z</time>
      </trkpt>
      <trkpt lat="50.12125" lon="4.1154">
        <ele>175.2</ele>
        <time>2024-03-29T06:48:49Z</time>
      </trkpt>
      <trkpt lat="50.12123" lon="4.11532">
        <ele>175.2</ele>
        <time>2024-03-29T06:48:50Z</time>
      </trkpt>
      <trkpt lat="50.1212" lon="4.11524">
        <ele>175.4</ele>
        <time>2024-03-29T06:48:51Z</time>
      </trkpt>
      <trkpt lat="50.12118" lon="4.11516">
        <ele>175.8</ele>
        <time>2024-03-29T06:48:52Z</time>
      </trkpt>
      <trkpt lat="50.12115" lon="4.11509">
        <ele>176</ele>
        <time>2024-03-29T06:48:53Z</time>
      </trkpt>
      <trkpt lat="50.12112" lon="4.11501">
        <ele>176.2</ele>
        <time>2024-03-29T06:48:54Z</time>
      </trkpt>
      <trkpt lat="50.12109" lon="4.11494">
        <ele>176.4</ele>
        <time>2024-03-29T06:48:55Z</time>
      </trkpt>
      <trkpt lat="50.12107" lon="4.11486">
        <ele>176.6</ele>
        <time>2024-03-29T06:48:56Z</time>
      </trkpt>
      <trkpt lat="50.12104" lon="4.11479">
        <ele>176.8</ele>
        <time>2024-03-29T06:48:57Z</time>
      </trkpt>
      <trkpt lat="50.12101" lon="4.11471">
        <ele>177</ele>
        <time>2024-03-29T06:48:58Z</time>
      </trkpt>
      <trkpt lat="50.12099" lon="4.11464">
        <ele>177.2</ele>
        <time>2024-03-29T06:48:59Z</time>
      </trkpt>
      <trkpt lat="50.12096" lon="4.11456">
        <ele>177.4</ele>
        <time>2024-03-29T06:49:00Z</time>
      </trkpt>
      <trkpt lat="50.12093" lon="4.11449">
        <ele>177.4</ele>
        <time>2024-03-29T06:49:01Z</time>
      </trkpt>
      <trkpt lat="50.1209" lon="4.11441">
        <ele>177.6</ele>
        <time>2024-03-29T06:49:02Z</time>
      </trkpt>
      <trkpt lat="50.12088" lon="4.11434">
        <ele>177.6</ele>
        <time>2024-03-29T06:49:03Z</time>
      </trkpt>
      <trkpt lat="50.12085" lon="4.11426">
        <ele>178.2</ele>
        <time>2024-03-29T06:49:04Z</time>
      </trkpt>
      <trkpt lat="50.12082" lon="4.11418">
        <ele>178.4</ele>
        <time>2024-03-29T06:49:05Z</time>
      </trkpt>
      <trkpt lat="50.12079" lon="4.1141">
        <ele>178.8</ele>
        <time>2024-03-29T06:49:06Z</time>
      </trkpt>
      <trkpt lat="50.12076" lon="4.11403">
        <ele>179.2</ele>
        <time>2024-03-29T06:49:07Z</time>
      </trkpt>
      <trkpt lat="50.12074" lon="4.11394">
        <ele>179.2</ele>
        <time>2024-03-29T06:49:08Z</time>
      </trkpt>
      <trkpt lat="50.12071" lon="4.11386">
        <ele>179.4</ele>
        <time>2024-03-29T06:49:09Z</time>
      </trkpt>
      <trkpt lat="50.12068" lon="4.11377">
        <ele>179.6</ele>
        <time>2024-03-29T06:49:10Z</time>
      </trkpt>
      <trkpt lat="50.12065" lon="4.11368">
        <ele>179.6</ele>
        <time>2024-03-29T06:49:11Z</time>
      </trkpt>
      <trkpt lat="50.12063" lon="4.11359">
        <ele>179.6</ele>
        <time>2024-03-29T06:49:12Z</time>
      </trkpt>
      <trkpt lat="50.1206" lon="4.1135">
        <ele>179.6</ele>
        <time>2024-03-29T06:49:13Z</time>
      </trkpt>
      <trkpt lat="50.12058" lon="4.1134">
        <ele>180</ele>
        <time>2024-03-29T06:49:14Z</time>
      </trkpt>
      <trkpt lat="50.12055" lon="4.11331">
        <ele>180</ele>
        <time>2024-03-29T06:49:15Z</time>
      </trkpt>
      <trkpt lat="50.12053" lon="4.11321">
        <ele>180</ele>
        <time>2024-03-29T06:49:16Z</time>
      </trkpt>
      <trkpt lat="50.12051" lon="4.1131">
        <ele>180</ele>
        <time>2024-03-29T06:49:17Z</time>
      </trkpt>
      <trkpt lat="50.12048" lon="4.113">
        <ele>180</ele>
        <time>2024-03-29T06:49:18Z</time>
      </trkpt>
      <trkpt lat="50.12046" lon="4.1129">
        <ele>180</ele>
        <time>2024-03-29T06:49:19Z</time>
      </trkpt>
      <trkpt lat="50.12044" lon="4.11279">
        <ele>180.2</ele>
        <time>2024-03-29T06:49:20Z</time>
      </trkpt>
      <trkpt lat="50.12043" lon="4.11268">
        <ele>179.8</ele>
        <time>2024-03-29T06:49:21Z</time>
      </trkpt>
      <trkpt lat="50.12041" lon="4.11256">
        <ele>180</ele>
        <time>2024-03-29T06:49:22Z</time>
      </trkpt>
      <trkpt lat="50.12039" lon="4.11245">
        <ele>179.8</ele>
        <time>2024-03-29T06:49:23Z</time>
      </trkpt>
      <trkpt lat="50.12038" lon="4.11232">
        <ele>179.8</ele>
        <time>2024-03-29T06:49:24Z</time>
      </trkpt>
      <trkpt lat="50.12037" lon="4.1122">
        <ele>180</ele>
        <time>2024-03-29T06:49:25Z</time>
      </trkpt>
      <trkpt lat="50.12035" lon="4.11207">
        <ele>179.6</ele>
        <time>2024-03-29T06:49:26Z</time>
      </trkpt>
      <trkpt lat="50.12035" lon="4.11193">
        <ele>179.6</ele>
        <time>2024-03-29T06:49:27Z</time>
      </trkpt>
      <trkpt lat="50.12034" lon="4.11179">
        <ele>179.4</ele>
        <time>2024-03-29T06:49:28Z</time>
      </trkpt>
      <trkpt lat="50.12033" lon="4.11165">
        <ele>179</ele>
        <time>2024-03-29T06:49:29Z</time>
      </trkpt>
      <trkpt lat="50.12033" lon="4.1115">
        <ele>178.6</ele>
        <time>2024-03-29T06:49:30Z</time>
      </trkpt>
      <trkpt lat="50.12032" lon="4.11135">
        <ele>178.6</ele>
        <time>2024-03-29T06:49:31Z</time>
      </trkpt>
      <trkpt lat="50.12031" lon="4.1112">
        <ele>178.2</ele>
        <time>2024-03-29T06:49:32Z</time>
      </trkpt>
      <trkpt lat="50.12031" lon="4.11104">
        <ele>177.6</ele>
        <time>2024-03-29T06:49:33Z</time>
      </trkpt>
      <trkpt lat="50.1203" lon="4.11089">
        <ele>177.6</ele>
        <time>2024-03-29T06:49:34Z</time>
      </trkpt>
      <trkpt lat="50.1203" lon="4.11074">
        <ele>177</ele>
        <time>2024-03-29T06:49:35Z</time>
      </trkpt>
      <trkpt lat="50.12029" lon="4.11058">
        <ele>176.4</ele>
        <time>2024-03-29T06:49:36Z</time>
      </trkpt>
      <trkpt lat="50.12029" lon="4.11044">
        <ele>175.6</ele>
        <time>2024-03-29T06:49:37Z</time>
      </trkpt>
      <trkpt lat="50.12028" lon="4.1103">
        <ele>174.8</ele>
        <time>2024-03-29T06:49:38Z</time>
      </trkpt>
      <trkpt lat="50.12028" lon="4.11016">
        <ele>173.8</ele>
        <time>2024-03-29T06:49:39Z</time>
      </trkpt>
      <trkpt lat="50.12027" lon="4.11002">
        <ele>172.8</ele>
        <time>2024-03-29T06:49:40Z</time>
      </trkpt>
      <trkpt lat="50.12027" lon="4.10989">
        <ele>171.8</ele>
        <time>2024-03-29T06:49:41Z</time>
      </trkpt>
      <trkpt lat="50.12026" lon="4.10976">
        <ele>171.6</ele>
        <time>2024-03-29T06:49:42Z</time>
      </trkpt>
      <trkpt lat="50.12026" lon="4.10963">
        <ele>171.4</ele>
        <time>2024-03-29T06:49:43Z</time>
      </trkpt>
      <trkpt lat="50.12025" lon="4.10951">
        <ele>171</ele>
        <time>2024-03-29T06:49:44Z</time>
      </trkpt>
      <trkpt lat="50.12025" lon="4.10939">
        <ele>171.2</ele>
        <time>2024-03-29T06:49:45Z</time>
      </trkpt>
      <trkpt lat="50.12024" lon="4.10927">
        <ele>171.2</ele>
        <time>2024-03-29T06:49:46Z</time>
      </trkpt>
      <trkpt lat="50.12023" lon="4.10916">
        <ele>171</ele>
        <time>2024-03-29T06:49:47Z</time>
      </trkpt>
      <trkpt lat="50.12022" lon="4.10905">
        <ele>171</ele>
        <time>2024-03-29T06:49:48Z</time>
      </trkpt>
      <trkpt lat="50.12021" lon="4.10893">
        <ele>171</ele>
        <time>2024-03-29T06:49:49Z</time>
      </trkpt>
      <trkpt lat="50.1202" lon="4.10882">
        <ele>171</ele>
        <time>2024-03-29T06:49:50Z</time>
      </trkpt>
      <trkpt lat="50.12019" lon="4.10872">
        <ele>171</ele>
        <time>2024-03-29T06:49:51Z</time>
      </trkpt>
      <trkpt lat="50.12018" lon="4.10861">
        <ele>171.2</ele>
        <time>2024-03-29T06:49:52Z</time>
      </trkpt>
      <trkpt lat="50.12016" lon="4.1085">
        <ele>171.2</ele>
        <time>2024-03-29T06:49:53Z</time>
      </trkpt>
      <trkpt lat="50.12015" lon="4.10839">
        <ele>171.2</ele>
        <time>2024-03-29T06:49:54Z</time>
      </trkpt>
      <trkpt lat="50.12014" lon="4.10829">
        <ele>171.2</ele>
        <time>2024-03-29T06:49:55Z</time>
      </trkpt>
      <trkpt lat="50.12012" lon="4.10818">
        <ele>171.2</ele>
        <time>2024-03-29T06:49:56Z</time>
      </trkpt>
      <trkpt lat="50.1201" lon="4.10807">
        <ele>171.4</ele>
        <time>2024-03-29T06:49:57Z</time>
      </trkpt>
      <trkpt lat="50.12009" lon="4.10797">
        <ele>171.4</ele>
        <time>2024-03-29T06:49:58Z</time>
      </trkpt>
      <trkpt lat="50.12007" lon="4.10787">
        <ele>171.6</ele>
        <time>2024-03-29T06:49:59Z</time>
      </trkpt>
      <trkpt lat="50.12005" lon="4.10777">
        <ele>171.8</ele>
        <time>2024-03-29T06:50:00Z</time>
      </trkpt>
      <trkpt lat="50.12004" lon="4.10766">
        <ele>172</ele>
        <time>2024-03-29T06:50:01Z</time>
      </trkpt>
      <trkpt lat="50.12002" lon="4.10756">
        <ele>172.4</ele>
        <time>2024-03-29T06:50:02Z</time>
      </trkpt>
      <trkpt lat="50.12001" lon="4.10747">
        <ele>172.8</ele>
        <time>2024-03-29T06:50:03Z</time>
      </trkpt>
      <trkpt lat="50.11999" lon="4.10737">
        <ele>173</ele>
        <time>2024-03-29T06:50:04Z</time>
      </trkpt>
      <trkpt lat="50.11998" lon="4.10727">
        <ele>173.2</ele>
        <time>2024-03-29T06:50:05Z</time>
      </trkpt>
      <trkpt lat="50.11997" lon="4.10718">
        <ele>173.2</ele>
        <time>2024-03-29T06:50:06Z</time>
      </trkpt>
      <trkpt lat="50.11996" lon="4.10708">
        <ele>173.2</ele>
        <time>2024-03-29T06:50:07Z</time>
      </trkpt>
      <trkpt lat="50.11995" lon="4.10698">
        <ele>173.4</ele>
        <time>2024-03-29T06:50:08Z</time>
      </trkpt>
      <trkpt lat="50.11995" lon="4.10688">
        <ele>173.2</ele>
        <time>2024-03-29T06:50:09Z</time>
      </trkpt>
      <trkpt lat="50.11996" lon="4.10678">
        <ele>173.4</ele>
        <time>2024-03-29T06:50:10Z</time>
      </trkpt>
      <trkpt lat="50.11997" lon="4.10667">
        <ele>173.4</ele>
        <time>2024-03-29T06:50:11Z</time>
      </trkpt>
      <trkpt lat="50.11998" lon="4.10657">
        <ele>173.6</ele>
        <time>2024-03-29T06:50:12Z</time>
      </trkpt>
      <trkpt lat="50.12" lon="4.10647">
        <ele>173.6</ele>
        <time>2024-03-29T06:50:13Z</time>
      </trkpt>
      <trkpt lat="50.12002" lon="4.10637">
        <ele>173.6</ele>
        <time>2024-03-29T06:50:14Z</time>
      </trkpt>
      <trkpt lat="50.12005" lon="4.10627">
        <ele>173.6</ele>
        <time>2024-03-29T06:50:15Z</time>
      </trkpt>
      <trkpt lat="50.12008" lon="4.10617">
        <ele>173.8</ele>
        <time>2024-03-29T06:50:16Z</time>
      </trkpt>
      <trkpt lat="50.12011" lon="4.10606">
        <ele>173.8</ele>
        <time>2024-03-29T06:50:17Z</time>
      </trkpt>
      <trkpt lat="50.12015" lon="4.10596">
        <ele>173.8</ele>
        <time>2024-03-29T06:50:18Z</time>
      </trkpt>
      <trkpt lat="50.12018" lon="4.10585">
        <ele>173.8</ele>
        <time>2024-03-29T06:50:19Z</time>
      </trkpt>
      <trkpt lat="50.12021" lon="4.10574">
        <ele>174</ele>
        <time>2024-03-29T06:50:20Z</time>
      </trkpt>
      <trkpt lat="50.12025" lon="4.10562">
        <ele>173.8</ele>
        <time>2024-03-29T06:50:21Z</time>
      </trkpt>
      <trkpt lat="50.12029" lon="4.1055">
        <ele>173.8</ele>
        <time>2024-03-29T06:50:22Z</time>
      </trkpt>
      <trkpt lat="50.12032" lon="4.10537">
        <ele>173.8</ele>
        <time>2024-03-29T06:50:23Z</time>
      </trkpt>
      <trkpt lat="50.12037" lon="4.10524">
        <ele>173.8</ele>
        <time>2024-03-29T06:50:24Z</time>
      </trkpt>
      <trkpt lat="50.12041" lon="4.1051">
        <ele>173.8</ele>
        <time>2024-03-29T06:50:25Z</time>
      </trkpt>
      <trkpt lat="50.12045" lon="4.10496">
        <ele>173.8</ele>
        <time>2024-03-29T06:50:26Z</time>
      </trkpt>
      <trkpt lat="50.12049" lon="4.10482">
        <ele>173.4</ele>
        <time>2024-03-29T06:50:27Z</time>
      </trkpt>
      <trkpt lat="50.12054" lon="4.10467">
        <ele>172.8</ele>
        <time>2024-03-29T06:50:28Z</time>
      </trkpt>
      <trkpt lat="50.12058" lon="4.10452">
        <ele>172.2</ele>
        <time>2024-03-29T06:50:29Z</time>
      </trkpt>
      <trkpt lat="50.12062" lon="4.10437">
        <ele>171.4</ele>
        <time>2024-03-29T06:50:30Z</time>
      </trkpt>
      <trkpt lat="50.12066" lon="4.10422">
        <ele>171</ele>
        <time>2024-03-29T06:50:31Z</time>
      </trkpt>
      <trkpt lat="50.12069" lon="4.10408">
        <ele>170.4</ele>
        <time>2024-03-29T06:50:32Z</time>
      </trkpt>
      <trkpt lat="50.12071" lon="4.10393">
        <ele>170</ele>
        <time>2024-03-29T06:50:33Z</time>
      </trkpt>
      <trkpt lat="50.12073" lon="4.10379">
        <ele>169.4</ele>
        <time>2024-03-29T06:50:34Z</time>
      </trkpt>
      <trkpt lat="50.12074" lon="4.10365">
        <ele>168.8</ele>
        <time>2024-03-29T06:50:35Z</time>
      </trkpt>
      <trkpt lat="50.12075" lon="4.10352">
        <ele>167.8</ele>
        <time>2024-03-29T06:50:36Z</time>
      </trkpt>
      <trkpt lat="50.12076" lon="4.10339">
        <ele>167.6</ele>
        <time>2024-03-29T06:50:37Z</time>
      </trkpt>
      <trkpt lat="50.12076" lon="4.10326">
        <ele>167.4</ele>
        <time>2024-03-29T06:50:38Z</time>
      </trkpt>
      <trkpt lat="50.12076" lon="4.10315">
        <ele>167.2</ele>
        <time>2024-03-29T06:50:39Z</time>
      </trkpt>
      <trkpt lat="50.12076" lon="4.10303">
        <ele>167.2</ele>
        <time>2024-03-29T06:50:40Z</time>
      </trkpt>
      <trkpt lat="50.12076" lon="4.10292">
        <ele>167</ele>
        <time>2024-03-29T06:50:41Z</time>
      </trkpt>
      <trkpt lat="50.12076" lon="4.10281">
        <ele>166.8</ele>
        <time>2024-03-29T06:50:42Z</time>
      </trkpt>
      <trkpt lat="50.12076" lon="4.10271">
        <ele>166.6</ele>
        <time>2024-03-29T06:50:43Z</time>
      </trkpt>
      <trkpt lat="50.12076" lon="4.1026">
        <ele>166.6</ele>
        <time>2024-03-29T06:50:44Z</time>
      </trkpt>
      <trkpt lat="50.12077" lon="4.1025">
        <ele>166.6</ele>
        <time>2024-03-29T06:50:45Z</time>
      </trkpt>
      <trkpt lat="50.12078" lon="4.1024">
        <ele>166.6</ele>
        <time>2024-03-29T06:50:46Z</time>
      </trkpt>
      <trkpt lat="50.12078" lon="4.1023">
        <ele>166.6</ele>
        <time>2024-03-29T06:50:47Z</time>
      </trkpt>
      <trkpt lat="50.12079" lon="4.10221">
        <ele>166.6</ele>
        <time>2024-03-29T06:50:48Z</time>
      </trkpt>
      <trkpt lat="50.1208" lon="4.10211">
        <ele>167</ele>
        <time>2024-03-29T06:50:49Z</time>
      </trkpt>
      <trkpt lat="50.1208" lon="4.10202">
        <ele>167.2</ele>
        <time>2024-03-29T06:50:50Z</time>
      </trkpt>
      <trkpt lat="50.1208" lon="4.10192">
        <ele>167.2</ele>
        <time>2024-03-29T06:50:51Z</time>
      </trkpt>
      <trkpt lat="50.12081" lon="4.10183">
        <ele>167.6</ele>
        <time>2024-03-29T06:50:52Z</time>
      </trkpt>
      <trkpt lat="50.12082" lon="4.10174">
        <ele>167.4</ele>
        <time>2024-03-29T06:50:53Z</time>
      </trkpt>
      <trkpt lat="50.12083" lon="4.10165">
        <ele>168.4</ele>
        <time>2024-03-29T06:50:54Z</time>
      </trkpt>
      <trkpt lat="50.12085" lon="4.10155">
        <ele>168.8</ele>
        <time>2024-03-29T06:50:55Z</time>
      </trkpt>
      <trkpt lat="50.12086" lon="4.10146">
        <ele>169.2</ele>
        <time>2024-03-29T06:50:56Z</time>
      </trkpt>
      <trkpt lat="50.12088" lon="4.10137">
        <ele>169.4</ele>
        <time>2024-03-29T06:50:57Z</time>
      </trkpt>
      <trkpt lat="50.1209" lon="4.10128">
        <ele>169.6</ele>
        <time>2024-03-29T06:50:58Z</time>
      </trkpt>
      <trkpt lat="50.12092" lon="4.10118">
        <ele>169.6</ele>
        <time>2024-03-29T06:50:59Z</time>
      </trkpt>
      <trkpt lat="50.12094" lon="4.10109">
        <ele>169.8</ele>
        <time>2024-03-29T06:51:00Z</time>
      </trkpt>
      <trkpt lat="50.12096" lon="4.10099">
        <ele>170.2</ele>
        <time>2024-03-29T06:51:01Z</time>
      </trkpt>
      <trkpt lat="50.12098" lon="4.10089">
        <ele>170.2</ele>
        <time>2024-03-29T06:51:02Z</time>
      </trkpt>
      <trkpt lat="50.12101" lon="4.10079">
        <ele>170.2</ele>
        <time>2024-03-29T06:51:03Z</time>
      </trkpt>
      <trkpt lat="50.12103" lon="4.10069">
        <ele>170.6</ele>
        <time>2024-03-29T06:51:04Z</time>
      </trkpt>
      <trkpt lat="50.12105" lon="4.10059">
        <ele>171.2</ele>
        <time>2024-03-29T06:51:05Z</time>
      </trkpt>
      <trkpt lat="50.12107" lon="4.10049">
        <ele>171</ele>
        <time>2024-03-29T06:51:06Z</time>
      </trkpt>
      <trkpt lat="50.1211" lon="4.10039">
        <ele>171.2</ele>
        <time>2024-03-29T06:51:07Z</time>
      </trkpt>
      <trkpt lat="50.12112" lon="4.10028">
        <ele>171.2</ele>
        <time>2024-03-29T06:51:08Z</time>
      </trkpt>
      <trkpt lat="50.12115" lon="4.10019">
        <ele>171.2</ele>
        <time>2024-03-29T06:51:09Z</time>
      </trkpt>
      <trkpt lat="50.12117" lon="4.10009">
        <ele>171.2</ele>
        <time>2024-03-29T06:51:10Z</time>
      </trkpt>
      <trkpt lat="50.12119" lon="4.09999">
        <ele>171.4</ele>
        <time>2024-03-29T06:51:11Z</time>
      </trkpt>
      <trkpt lat="50.12121" lon="4.09989">
        <ele>171.2</ele>
        <time>2024-03-29T06:51:12Z</time>
      </trkpt>
      <trkpt lat="50.12122" lon="4.09979">
        <ele>171.4</ele>
        <time>2024-03-29T06:51:13Z</time>
      </trkpt>
      <trkpt lat="50.12123" lon="4.09969">
        <ele>171.4</ele>
        <time>2024-03-29T06:51:14Z</time>
      </trkpt>
      <trkpt lat="50.12124" lon="4.0996">
        <ele>171.4</ele>
        <time>2024-03-29T06:51:15Z</time>
      </trkpt>
      <trkpt lat="50.12124" lon="4.0995">
        <ele>171.4</ele>
        <time>2024-03-29T06:51:16Z</time>
      </trkpt>
      <trkpt lat="50.12124" lon="4.09941">
        <ele>171.6</ele>
        <time>2024-03-29T06:51:17Z</time>
      </trkpt>
      <trkpt lat="50.12124" lon="4.09932">
        <ele>171.6</ele>
        <time>2024-03-29T06:51:18Z</time>
      </trkpt>
      <trkpt lat="50.12123" lon="4.09923">
        <ele>171.6</ele>
        <time>2024-03-29T06:51:19Z</time>
      </trkpt>
      <trkpt lat="50.12122" lon="4.09915">
        <ele>171.6</ele>
        <time>2024-03-29T06:51:20Z</time>
      </trkpt>
      <trkpt lat="50.1212" lon="4.09907">
        <ele>171.6</ele>
        <time>2024-03-29T06:51:21Z</time>
      </trkpt>
      <trkpt lat="50.12119" lon="4.09899">
        <ele>171.8</ele>
        <time>2024-03-29T06:51:22Z</time>
      </trkpt>
      <trkpt lat="50.12118" lon="4.09891">
        <ele>172</ele>
        <time>2024-03-29T06:51:23Z</time>
      </trkpt>
      <trkpt lat="50.12117" lon="4.09883">
        <ele>172</ele>
        <time>2024-03-29T06:51:24Z</time>
      </trkpt>
      <trkpt lat="50.12116" lon="4.09875">
        <ele>172.2</ele>
        <time>2024-03-29T06:51:25Z</time>
      </trkpt>
      <trkpt lat="50.12115" lon="4.09867">
        <ele>172.4</ele>
        <time>2024-03-29T06:51:26Z</time>
      </trkpt>
      <trkpt lat="50.12114" lon="4.09859">
        <ele>172.6</ele>
        <time>2024-03-29T06:51:27Z</time>
      </trkpt>
      <trkpt lat="50.12113" lon="4.09851">
        <ele>173</ele>
        <time>2024-03-29T06:51:28Z</time>
      </trkpt>
      <trkpt lat="50.12112" lon="4.09843">
        <ele>173.4</ele>
        <time>2024-03-29T06:51:29Z</time>
      </trkpt>
      <trkpt lat="50.12111" lon="4.09834">
        <ele>173.8</ele>
        <time>2024-03-29T06:51:30Z</time>
      </trkpt>
      <trkpt lat="50.1211" lon="4.09825">
        <ele>173.8</ele>
        <time>2024-03-29T06:51:31Z</time>
      </trkpt>
      <trkpt lat="50.1211" lon="4.09816">
        <ele>174</ele>
        <time>2024-03-29T06:51:32Z</time>
      </trkpt>
      <trkpt lat="50.12109" lon="4.09807">
        <ele>174</ele>
        <time>2024-03-29T06:51:33Z</time>
      </trkpt>
      <trkpt lat="50.12109" lon="4.09798">
        <ele>174.4</ele>
        <time>2024-03-29T06:51:34Z</time>
      </trkpt>
      <trkpt lat="50.12108" lon="4.09789">
        <ele>174.8</ele>
        <time>2024-03-29T06:51:35Z</time>
      </trkpt>
      <trkpt lat="50.12107" lon="4.0978">
        <ele>174.8</ele>
        <time>2024-03-29T06:51:36Z</time>
      </trkpt>
      <trkpt lat="50.12106" lon="4.09771">
        <ele>174.8</ele>
        <time>2024-03-29T06:51:37Z</time>
      </trkpt>
      <trkpt lat="50.12104" lon="4.09761">
        <ele>175</ele>
        <time>2024-03-29T06:51:38Z</time>
      </trkpt>
      <trkpt lat="50.12102" lon="4.09752">
        <ele>175.2</ele>
        <time>2024-03-29T06:51:39Z</time>
      </trkpt>
      <trkpt lat="50.121" lon="4.09742">
        <ele>175.4</ele>
        <time>2024-03-29T06:51:40Z</time>
      </trkpt>
      <trkpt lat="50.12097" lon="4.09732">
        <ele>175.6</ele>
        <time>2024-03-29T06:51:41Z</time>
      </trkpt>
      <trkpt lat="50.12095" lon="4.09722">
        <ele>175.6</ele>
        <time>2024-03-29T06:51:42Z</time>
      </trkpt>
      <trkpt lat="50.12092" lon="4.09712">
        <ele>175.8</ele>
        <time>2024-03-29T06:51:43Z</time>
      </trkpt>
      <trkpt lat="50.12089" lon="4.09702">
        <ele>175.8</ele>
        <time>2024-03-29T06:51:44Z</time>
      </trkpt>
      <trkpt lat="50.12087" lon="4.09691">
        <ele>175.8</ele>
        <time>2024-03-29T06:51:45Z</time>
      </trkpt>
      <trkpt lat="50.12084" lon="4.09681">
        <ele>176</ele>
        <time>2024-03-29T06:51:46Z</time>
      </trkpt>
      <trkpt lat="50.12082" lon="4.0967">
        <ele>176</ele>
        <time>2024-03-29T06:51:47Z</time>
      </trkpt>
      <trkpt lat="50.12079" lon="4.0966">
        <ele>175.8</ele>
        <time>2024-03-29T06:51:48Z</time>
      </trkpt>
      <trkpt lat="50.12076" lon="4.0965">
        <ele>176</ele>
        <time>2024-03-29T06:51:49Z</time>
      </trkpt>
      <trkpt lat="50.12074" lon="4.0964">
        <ele>175.8</ele>
        <time>2024-03-29T06:51:50Z</time>
      </trkpt>
      <trkpt lat="50.12072" lon="4.09629">
        <ele>175.6</ele>
        <time>2024-03-29T06:51:51Z</time>
      </trkpt>
      <trkpt lat="50.1207" lon="4.09619">
        <ele>175.8</ele>
        <time>2024-03-29T06:51:52Z</time>
      </trkpt>
      <trkpt lat="50.12069" lon="4.09609">
        <ele>175.8</ele>
        <time>2024-03-29T06:51:53Z</time>
      </trkpt>
      <trkpt lat="50.12069" lon="4.09598">
        <ele>176</ele>
        <time>2024-03-29T06:51:54Z</time>
      </trkpt>
      <trkpt lat="50.12069" lon="4.09588">
        <ele>176</ele>
        <time>2024-03-29T06:51:55Z</time>
      </trkpt>
      <trkpt lat="50.12069" lon="4.09577">
        <ele>176</ele>
        <time>2024-03-29T06:51:56Z</time>
      </trkpt>
      <trkpt lat="50.1207" lon="4.09567">
        <ele>176</ele>
        <time>2024-03-29T06:51:57Z</time>
      </trkpt>
      <trkpt lat="50.12071" lon="4.09557">
        <ele>176</ele>
        <time>2024-03-29T06:51:58Z</time>
      </trkpt>
      <trkpt lat="50.12072" lon="4.09546">
        <ele>175.8</ele>
        <time>2024-03-29T06:51:59Z</time>
      </trkpt>
      <trkpt lat="50.12073" lon="4.09536">
        <ele>176</ele>
        <time>2024-03-29T06:52:00Z</time>
      </trkpt>
      <trkpt lat="50.12075" lon="4.09525">
        <ele>175.8</ele>
        <time>2024-03-29T06:52:01Z</time>
      </trkpt>
      <trkpt lat="50.12076" lon="4.09515">
        <ele>175.8</ele>
        <time>2024-03-29T06:52:02Z</time>
      </trkpt>
      <trkpt lat="50.12078" lon="4.09504">
        <ele>175.6</ele>
        <time>2024-03-29T06:52:03Z</time>
      </trkpt>
      <trkpt lat="50.1208" lon="4.09493">
        <ele>175.6</ele>
        <time>2024-03-29T06:52:04Z</time>
      </trkpt>
      <trkpt lat="50.12082" lon="4.09482">
        <ele>175.6</ele>
        <time>2024-03-29T06:52:05Z</time>
      </trkpt>
      <trkpt lat="50.12085" lon="4.09471">
        <ele>175.6</ele>
        <time>2024-03-29T06:52:06Z</time>
      </trkpt>
      <trkpt lat="50.12088" lon="4.09461">
        <ele>175.6</ele>
        <time>2024-03-29T06:52:07Z</time>
      </trkpt>
      <trkpt lat="50.12091" lon="4.09449">
        <ele>175.8</ele>
        <time>2024-03-29T06:52:08Z</time>
      </trkpt>
      <trkpt lat="50.12094" lon="4.09438">
        <ele>175.8</ele>
        <time>2024-03-29T06:52:09Z</time>
      </trkpt>
      <trkpt lat="50.12096" lon="4.09426">
        <ele>175.8</ele>
        <time>2024-03-29T06:52:10Z</time>
      </trkpt>
      <trkpt lat="50.12099" lon="4.09414">
        <ele>175.8</ele>
        <time>2024-03-29T06:52:11Z</time>
      </trkpt>
      <trkpt lat="50.12102" lon="4.09402">
        <ele>175.6</ele>
        <time>2024-03-29T06:52:12Z</time>
      </trkpt>
      <trkpt lat="50.12105" lon="4.0939">
        <ele>175.6</ele>
        <time>2024-03-29T06:52:13Z</time>
      </trkpt>
      <trkpt lat="50.12109" lon="4.09377">
        <ele>175.4</ele>
        <time>2024-03-29T06:52:14Z</time>
      </trkpt>
      <trkpt lat="50.12112" lon="4.09365">
        <ele>175.2</ele>
        <time>2024-03-29T06:52:15Z</time>
      </trkpt>
      <trkpt lat="50.12115" lon="4.09352">
        <ele>175</ele>
        <time>2024-03-29T06:52:16Z</time>
      </trkpt>
      <trkpt lat="50.12118" lon="4.09339">
        <ele>174.8</ele>
        <time>2024-03-29T06:52:17Z</time>
      </trkpt>
      <trkpt lat="50.12121" lon="4.09325">
        <ele>174.8</ele>
        <time>2024-03-29T06:52:18Z</time>
      </trkpt>
      <trkpt lat="50.12124" lon="4.09312">
        <ele>174.4</ele>
        <time>2024-03-29T06:52:19Z</time>
      </trkpt>
      <trkpt lat="50.12126" lon="4.09298">
        <ele>173.8</ele>
        <time>2024-03-29T06:52:20Z</time>
      </trkpt>
      <trkpt lat="50.12129" lon="4.09283">
        <ele>173.4</ele>
        <time>2024-03-29T06:52:21Z</time>
      </trkpt>
      <trkpt lat="50.12131" lon="4.09269">
        <ele>173</ele>
        <time>2024-03-29T06:52:22Z</time>
      </trkpt>
      <trkpt lat="50.12134" lon="4.09254">
        <ele>172.4</ele>
        <time>2024-03-29T06:52:23Z</time>
      </trkpt>
      <trkpt lat="50.12137" lon="4.0924">
        <ele>172</ele>
        <time>2024-03-29T06:52:24Z</time>
      </trkpt>
      <trkpt lat="50.12141" lon="4.09226">
        <ele>171.4</ele>
        <time>2024-03-29T06:52:25Z</time>
      </trkpt>
      <trkpt lat="50.12146" lon="4.09212">
        <ele>170.8</ele>
        <time>2024-03-29T06:52:26Z</time>
      </trkpt>
      <trkpt lat="50.12151" lon="4.092">
        <ele>170.6</ele>
        <time>2024-03-29T06:52:27Z</time>
      </trkpt>
      <trkpt lat="50.12157" lon="4.09187">
        <ele>170.4</ele>
        <time>2024-03-29T06:52:28Z</time>
      </trkpt>
      <trkpt lat="50.12163" lon="4.09176">
        <ele>170.2</ele>
        <time>2024-03-29T06:52:29Z</time>
      </trkpt>
      <trkpt lat="50.12169" lon="4.09164">
        <ele>170</ele>
        <time>2024-03-29T06:52:30Z</time>
      </trkpt>
      <trkpt lat="50.12174" lon="4.09152">
        <ele>170</ele>
        <time>2024-03-29T06:52:31Z</time>
      </trkpt>
      <trkpt lat="50.12179" lon="4.09139">
        <ele>170</ele>
        <time>2024-03-29T06:52:32Z</time>
      </trkpt>
      <trkpt lat="50.12183" lon="4.09125">
        <ele>170</ele>
        <time>2024-03-29T06:52:33Z</time>
      </trkpt>
      <trkpt lat="50.12186" lon="4.09111">
        <ele>169.8</ele>
        <time>2024-03-29T06:52:34Z</time>
      </trkpt>
      <trkpt lat="50.12189" lon="4.09096">
        <ele>169.4</ele>
        <time>2024-03-29T06:52:35Z</time>
      </trkpt>
      <trkpt lat="50.1219" lon="4.09082">
        <ele>169.2</ele>
        <time>2024-03-29T06:52:36Z</time>
      </trkpt>
      <trkpt lat="50.1219" lon="4.09067">
        <ele>169</ele>
        <time>2024-03-29T06:52:37Z</time>
      </trkpt>
      <trkpt lat="50.12191" lon="4.09053">
        <ele>168.6</ele>
        <time>2024-03-29T06:52:38Z</time>
      </trkpt>
      <trkpt lat="50.12191" lon="4.09038">
        <ele>168.2</ele>
        <time>2024-03-29T06:52:39Z</time>
      </trkpt>
      <trkpt lat="50.12191" lon="4.09024">
        <ele>167.8</ele>
        <time>2024-03-29T06:52:40Z</time>
      </trkpt>
      <trkpt lat="50.12191" lon="4.0901">
        <ele>167.6</ele>
        <time>2024-03-29T06:52:41Z</time>
      </trkpt>
      <trkpt lat="50.12191" lon="4.08996">
        <ele>167.2</ele>
        <time>2024-03-29T06:52:42Z</time>
      </trkpt>
      <trkpt lat="50.12191" lon="4.08982">
        <ele>167.2</ele>
        <time>2024-03-29T06:52:43Z</time>
      </trkpt>
      <trkpt lat="50.12191" lon="4.08968">
        <ele>166.8</ele>
        <time>2024-03-29T06:52:44Z</time>
      </trkpt>
      <trkpt lat="50.12191" lon="4.08955">
        <ele>166</ele>
        <time>2024-03-29T06:52:45Z</time>
      </trkpt>
      <trkpt lat="50.12191" lon="4.08942">
        <ele>165.8</ele>
        <time>2024-03-29T06:52:46Z</time>
      </trkpt>
      <trkpt lat="50.12191" lon="4.08929">
        <ele>165.6</ele>
        <time>2024-03-29T06:52:47Z</time>
      </trkpt>
      <trkpt lat="50.12191" lon="4.08916">
        <ele>165.2</ele>
        <time>2024-03-29T06:52:48Z</time>
      </trkpt>
      <trkpt lat="50.12191" lon="4.08903">
        <ele>165</ele>
        <time>2024-03-29T06:52:49Z</time>
      </trkpt>
      <trkpt lat="50.12192" lon="4.0889">
        <ele>164.6</ele>
        <time>2024-03-29T06:52:50Z</time>
      </trkpt>
      <trkpt lat="50.12192" lon="4.08877">
        <ele>164.4</ele>
        <time>2024-03-29T06:52:51Z</time>
      </trkpt>
      <trkpt lat="50.12192" lon="4.08865">
        <ele>164.4</ele>
        <time>2024-03-29T06:52:52Z</time>
      </trkpt>
      <trkpt lat="50.12193" lon="4.08852">
        <ele>164.2</ele>
        <time>2024-03-29T06:52:53Z</time>
      </trkpt>
      <trkpt lat="50.12194" lon="4.0884">
        <ele>164.2</ele>
        <time>2024-03-29T06:52:54Z</time>
      </trkpt>
      <trkpt lat="50.12195" lon="4.08828">
        <ele>164</ele>
        <time>2024-03-29T06:52:55Z</time>
      </trkpt>
      <trkpt lat="50.12196" lon="4.08816">
        <ele>164</ele>
        <time>2024-03-29T06:52:56Z</time>
      </trkpt>
      <trkpt lat="50.12198" lon="4.08805">
        <ele>164</ele>
        <time>2024-03-29T06:52:57Z</time>
      </trkpt>
      <trkpt lat="50.12199" lon="4.08793">
        <ele>163.8</ele>
        <time>2024-03-29T06:52:58Z</time>
      </trkpt>
      <trkpt lat="50.12201" lon="4.08781">
        <ele>164</ele>
        <time>2024-03-29T06:52:59Z</time>
      </trkpt>
      <trkpt lat="50.12202" lon="4.0877">
        <ele>164.2</ele>
        <time>2024-03-29T06:53:00Z</time>
      </trkpt>
      <trkpt lat="50.12204" lon="4.08759">
        <ele>164.2</ele>
        <time>2024-03-29T06:53:01Z</time>
      </trkpt>
      <trkpt lat="50.12205" lon="4.08747">
        <ele>164.2</ele>
        <time>2024-03-29T06:53:02Z</time>
      </trkpt>
      <trkpt lat="50.12205" lon="4.08736">
        <ele>164.2</ele>
        <time>2024-03-29T06:53:03Z</time>
      </trkpt>
      <trkpt lat="50.12206" lon="4.08725">
        <ele>164.2</ele>
        <time>2024-03-29T06:53:04Z</time>
      </trkpt>
      <trkpt lat="50.12207" lon="4.08714">
        <ele>164.2</ele>
        <time>2024-03-29T06:53:05Z</time>
      </trkpt>
      <trkpt lat="50.12207" lon="4.08703">
        <ele>164</ele>
        <time>2024-03-29T06:53:06Z</time>
      </trkpt>
      <trkpt lat="50.12207" lon="4.08692">
        <ele>164.2</ele>
        <time>2024-03-29T06:53:07Z</time>
      </trkpt>
      <trkpt lat="50.12208" lon="4.0868">
        <ele>164.2</ele>
        <time>2024-03-29T06:53:08Z</time>
      </trkpt>
      <trkpt lat="50.12208" lon="4.08669">
        <ele>164</ele>
        <time>2024-03-29T06:53:09Z</time>
      </trkpt>
      <trkpt lat="50.12208" lon="4.08658">
        <ele>164.2</ele>
        <time>2024-03-29T06:53:10Z</time>
      </trkpt>
      <trkpt lat="50.12208" lon="4.08647">
        <ele>164.2</ele>
        <time>2024-03-29T06:53:11Z</time>
      </trkpt>
      <trkpt lat="50.12208" lon="4.08635">
        <ele>164</ele>
        <time>2024-03-29T06:53:12Z</time>
      </trkpt>
      <trkpt lat="50.12208" lon="4.08624">
        <ele>164.2</ele>
        <time>2024-03-29T06:53:13Z</time>
      </trkpt>
      <trkpt lat="50.12208" lon="4.08613">
        <ele>164.2</ele>
        <time>2024-03-29T06:53:14Z</time>
      </trkpt>
      <trkpt lat="50.12207" lon="4.08602">
        <ele>164.2</ele>
        <time>2024-03-29T06:53:15Z</time>
      </trkpt>
      <trkpt lat="50.12207" lon="4.08591">
        <ele>164.2</ele>
        <time>2024-03-29T06:53:16Z</time>
      </trkpt>
      <trkpt lat="50.12206" lon="4.0858">
        <ele>164.2</ele>
        <time>2024-03-29T06:53:17Z</time>
      </trkpt>
      <trkpt lat="50.12206" lon="4.08569">
        <ele>164.2</ele>
        <time>2024-03-29T06:53:18Z</time>
      </trkpt>
      <trkpt lat="50.12206" lon="4.08558">
        <ele>164.2</ele>
        <time>2024-03-29T06:53:19Z</time>
      </trkpt>
      <trkpt lat="50.12206" lon="4.08547">
        <ele>164.2</ele>
        <time>2024-03-29T06:53:20Z</time>
      </trkpt>
      <trkpt lat="50.12206" lon="4.08536">
        <ele>164</ele>
        <time>2024-03-29T06:53:21Z</time>
      </trkpt>
      <trkpt lat="50.12206" lon="4.08525">
        <ele>164</ele>
        <time>2024-03-29T06:53:22Z</time>
      </trkpt>
      <trkpt lat="50.12207" lon="4.08514">
        <ele>164.2</ele>
        <time>2024-03-29T06:53:23Z</time>
      </trkpt>
      <trkpt lat="50.12209" lon="4.08504">
        <ele>164.2</ele>
        <time>2024-03-29T06:53:24Z</time>
      </trkpt>
      <trkpt lat="50.1221" lon="4.08494">
        <ele>164.2</ele>
        <time>2024-03-29T06:53:25Z</time>
      </trkpt>
      <trkpt lat="50.12212" lon="4.08483">
        <ele>164.2</ele>
        <time>2024-03-29T06:53:26Z</time>
      </trkpt>
      <trkpt lat="50.12214" lon="4.08474">
        <ele>164.2</ele>
        <time>2024-03-29T06:53:27Z</time>
      </trkpt>
      <trkpt lat="50.12216" lon="4.08464">
        <ele>164.2</ele>
        <time>2024-03-29T06:53:28Z</time>
      </trkpt>
      <trkpt lat="50.12217" lon="4.08454">
        <ele>164.4</ele>
        <time>2024-03-29T06:53:29Z</time>
      </trkpt>
      <trkpt lat="50.12219" lon="4.08444">
        <ele>164.6</ele>
        <time>2024-03-29T06:53:30Z</time>
      </trkpt>
      <trkpt lat="50.12221" lon="4.08434">
        <ele>164.6</ele>
        <time>2024-03-29T06:53:31Z</time>
      </trkpt>
      <trkpt lat="50.12223" lon="4.08425">
        <ele>164.8</ele>
        <time>2024-03-29T06:53:32Z</time>
      </trkpt>
      <trkpt lat="50.12226" lon="4.08415">
        <ele>165</ele>
        <time>2024-03-29T06:53:33Z</time>
      </trkpt>
      <trkpt lat="50.12228" lon="4.08405">
        <ele>165.4</ele>
        <time>2024-03-29T06:53:34Z</time>
      </trkpt>
      <trkpt lat="50.12231" lon="4.08396">
        <ele>165.6</ele>
        <time>2024-03-29T06:53:35Z</time>
      </trkpt>
      <trkpt lat="50.12234" lon="4.08387">
        <ele>165.6</ele>
        <time>2024-03-29T06:53:36Z</time>
      </trkpt>
      <trkpt lat="50.12237" lon="4.08378">
        <ele>165.8</ele>
        <time>2024-03-29T06:53:37Z</time>
      </trkpt>
      <trkpt lat="50.1224" lon="4.08369">
        <ele>166</ele>
        <time>2024-03-29T06:53:38Z</time>
      </trkpt>
      <trkpt lat="50.12244" lon="4.0836">
        <ele>166.2</ele>
        <time>2024-03-29T06:53:39Z</time>
      </trkpt>
      <trkpt lat="50.12248" lon="4.08352">
        <ele>166.4</ele>
        <time>2024-03-29T06:53:40Z</time>
      </trkpt>
      <trkpt lat="50.12251" lon="4.08343">
        <ele>166.6</ele>
        <time>2024-03-29T06:53:41Z</time>
      </trkpt>
      <trkpt lat="50.12255" lon="4.08335">
        <ele>166.8</ele>
        <time>2024-03-29T06:53:42Z</time>
      </trkpt>
      <trkpt lat="50.12259" lon="4.08327">
        <ele>167.2</ele>
        <time>2024-03-29T06:53:43Z</time>
      </trkpt>
      <trkpt lat="50.12263" lon="4.08319">
        <ele>167.4</ele>
        <time>2024-03-29T06:53:44Z</time>
      </trkpt>
      <trkpt lat="50.12267" lon="4.0831">
        <ele>167.6</ele>
        <time>2024-03-29T06:53:45Z</time>
      </trkpt>
      <trkpt lat="50.12271" lon="4.08302">
        <ele>167.8</ele>
        <time>2024-03-29T06:53:46Z</time>
      </trkpt>
      <trkpt lat="50.12274" lon="4.08294">
        <ele>168.4</ele>
        <time>2024-03-29T06:53:47Z</time>
      </trkpt>
      <trkpt lat="50.12278" lon="4.08286">
        <ele>168.8</ele>
        <time>2024-03-29T06:53:48Z</time>
      </trkpt>
      <trkpt lat="50.12282" lon="4.08278">
        <ele>169.2</ele>
        <time>2024-03-29T06:53:49Z</time>
      </trkpt>
      <trkpt lat="50.12286" lon="4.08269">
        <ele>169.6</ele>
        <time>2024-03-29T06:53:50Z</time>
      </trkpt>
      <trkpt lat="50.1229" lon="4.08261">
        <ele>169.6</ele>
        <time>2024-03-29T06:53:51Z</time>
      </trkpt>
      <trkpt lat="50.12294" lon="4.08253">
        <ele>169.8</ele>
        <time>2024-03-29T06:53:52Z</time>
      </trkpt>
      <trkpt lat="50.12297" lon="4.08245">
        <ele>170.2</ele>
        <time>2024-03-29T06:53:53Z</time>
      </trkpt>
      <trkpt lat="50.12301" lon="4.08237">
        <ele>170.4</ele>
        <time>2024-03-29T06:53:54Z</time>
      </trkpt>
      <trkpt lat="50.12305" lon="4.08229">
        <ele>170.6</ele>
        <time>2024-03-29T06:53:55Z</time>
      </trkpt>
      <trkpt lat="50.12309" lon="4.08221">
        <ele>171.2</ele>
        <time>2024-03-29T06:53:56Z</time>
      </trkpt>
      <trkpt lat="50.12313" lon="4.08213">
        <ele>171.2</ele>
        <time>2024-03-29T06:53:57Z</time>
      </trkpt>
      <trkpt lat="50.12316" lon="4.08205">
        <ele>171.2</ele>
        <time>2024-03-29T06:53:58Z</time>
      </trkpt>
      <trkpt lat="50.1232" lon="4.08197">
        <ele>171.4</ele>
        <time>2024-03-29T06:53:59Z</time>
      </trkpt>
      <trkpt lat="50.12324" lon="4.08188">
        <ele>171.6</ele>
        <time>2024-03-29T06:54:00Z</time>
      </trkpt>
      <trkpt lat="50.12328" lon="4.0818">
        <ele>171.8</ele>
        <time>2024-03-29T06:54:01Z</time>
      </trkpt>
      <trkpt lat="50.12332" lon="4.08172">
        <ele>172</ele>
        <time>2024-03-29T06:54:02Z</time>
      </trkpt>
      <trkpt lat="50.12336" lon="4.08163">
        <ele>172.2</ele>
        <time>2024-03-29T06:54:03Z</time>
      </trkpt>
      <trkpt lat="50.1234" lon="4.08155">
        <ele>172.4</ele>
        <time>2024-03-29T06:54:04Z</time>
      </trkpt>
      <trkpt lat="50.12344" lon="4.08146">
        <ele>172.6</ele>
        <time>2024-03-29T06:54:05Z</time>
      </trkpt>
      <trkpt lat="50.12348" lon="4.08137">
        <ele>172.8</ele>
        <time>2024-03-29T06:54:06Z</time>
      </trkpt>
      <trkpt lat="50.12352" lon="4.08129">
        <ele>172.8</ele>
        <time>2024-03-29T06:54:07Z</time>
      </trkpt>
      <trkpt lat="50.12356" lon="4.0812">
        <ele>172.8</ele>
        <time>2024-03-29T06:54:08Z</time>
      </trkpt>
      <trkpt lat="50.1236" lon="4.08111">
        <ele>173</ele>
        <time>2024-03-29T06:54:09Z</time>
      </trkpt>
      <trkpt lat="50.12364" lon="4.08103">
        <ele>173.4</ele>
        <time>2024-03-29T06:54:10Z</time>
      </trkpt>
      <trkpt lat="50.12368" lon="4.08094">
        <ele>173.6</ele>
        <time>2024-03-29T06:54:11Z</time>
      </trkpt>
      <trkpt lat="50.12372" lon="4.08085">
        <ele>173.8</ele>
        <time>2024-03-29T06:54:12Z</time>
      </trkpt>
      <trkpt lat="50.12376" lon="4.08077">
        <ele>173.8</ele>
        <time>2024-03-29T06:54:13Z</time>
      </trkpt>
      <trkpt lat="50.12381" lon="4.08068">
        <ele>174.2</ele>
        <time>2024-03-29T06:54:14Z</time>
      </trkpt>
      <trkpt lat="50.12385" lon="4.0806">
        <ele>174.4</ele>
        <time>2024-03-29T06:54:15Z</time>
      </trkpt>
      <trkpt lat="50.12391" lon="4.08054">
        <ele>174.4</ele>
        <time>2024-03-29T06:54:16Z</time>
      </trkpt>
      <trkpt lat="50.12397" lon="4.08051">
        <ele>174.4</ele>
        <time>2024-03-29T06:54:17Z</time>
      </trkpt>
      <trkpt lat="50.12404" lon="4.08052">
        <ele>174.6</ele>
        <time>2024-03-29T06:54:18Z</time>
      </trkpt>
      <trkpt lat="50.1241" lon="4.08056">
        <ele>174.6</ele>
        <time>2024-03-29T06:54:19Z</time>
      </trkpt>
      <trkpt lat="50.12416" lon="4.08063">
        <ele>174.6</ele>
        <time>2024-03-29T06:54:20Z</time>
      </trkpt>
      <trkpt lat="50.12421" lon="4.08072">
        <ele>174.6</ele>
        <time>2024-03-29T06:54:21Z</time>
      </trkpt>
      <trkpt lat="50.12426" lon="4.08082">
        <ele>174.6</ele>
        <time>2024-03-29T06:54:22Z</time>
      </trkpt>
      <trkpt lat="50.12431" lon="4.08091">
        <ele>174.6</ele>
        <time>2024-03-29T06:54:23Z</time>
      </trkpt>
      <trkpt lat="50.12436" lon="4.08101">
        <ele>174.6</ele>
        <time>2024-03-29T06:54:24Z</time>
      </trkpt>
      <trkpt lat="50.12441" lon="4.08111">
        <ele>174.6</ele>
        <time>2024-03-29T06:54:25Z</time>
      </trkpt>
      <trkpt lat="50.12446" lon="4.08121">
        <ele>174.6</ele>
        <time>2024-03-29T06:54:26Z</time>
      </trkpt>
      <trkpt lat="50.12451" lon="4.08131">
        <ele>174.6</ele>
        <time>2024-03-29T06:54:27Z</time>
      </trkpt>
      <trkpt lat="50.12457" lon="4.08141">
        <ele>174.8</ele>
        <time>2024-03-29T06:54:28Z</time>
      </trkpt>
      <trkpt lat="50.12462" lon="4.0815">
        <ele>174.6</ele>
        <time>2024-03-29T06:54:29Z</time>
      </trkpt>
      <trkpt lat="50.12467" lon="4.0816">
        <ele>174.6</ele>
        <time>2024-03-29T06:54:30Z</time>
      </trkpt>
      <trkpt lat="50.12472" lon="4.0817">
        <ele>174.6</ele>
        <time>2024-03-29T06:54:31Z</time>
      </trkpt>
      <trkpt lat="50.12477" lon="4.0818">
        <ele>174.4</ele>
        <time>2024-03-29T06:54:32Z</time>
      </trkpt>
      <trkpt lat="50.12483" lon="4.0819">
        <ele>173.8</ele>
        <time>2024-03-29T06:54:33Z</time>
      </trkpt>
      <trkpt lat="50.12488" lon="4.082">
        <ele>173.6</ele>
        <time>2024-03-29T06:54:34Z</time>
      </trkpt>
      <trkpt lat="50.12493" lon="4.08211">
        <ele>173.4</ele>
        <time>2024-03-29T06:54:35Z</time>
      </trkpt>
      <trkpt lat="50.12498" lon="4.08221">
        <ele>173.2</ele>
        <time>2024-03-29T06:54:36Z</time>
      </trkpt>
      <trkpt lat="50.12504" lon="4.0823">
        <ele>173</ele>
        <time>2024-03-29T06:54:37Z</time>
      </trkpt>
      <trkpt lat="50.1251" lon="4.0824">
        <ele>173</ele>
        <time>2024-03-29T06:54:38Z</time>
      </trkpt>
      <trkpt lat="50.12516" lon="4.08249">
        <ele>172.8</ele>
        <time>2024-03-29T06:54:39Z</time>
      </trkpt>
      <trkpt lat="50.12523" lon="4.08257">
        <ele>172.6</ele>
        <time>2024-03-29T06:54:40Z</time>
      </trkpt>
      <trkpt lat="50.1253" lon="4.08264">
        <ele>172.6</ele>
        <time>2024-03-29T06:54:41Z</time>
      </trkpt>
      <trkpt lat="50.12537" lon="4.08271">
        <ele>172.6</ele>
        <time>2024-03-29T06:54:42Z</time>
      </trkpt>
      <trkpt lat="50.12545" lon="4.08277">
        <ele>172.6</ele>
        <time>2024-03-29T06:54:43Z</time>
      </trkpt>
      <trkpt lat="50.12553" lon="4.08282">
        <ele>172.4</ele>
        <time>2024-03-29T06:54:44Z</time>
      </trkpt>
      <trkpt lat="50.12561" lon="4.08286">
        <ele>172.2</ele>
        <time>2024-03-29T06:54:45Z</time>
      </trkpt>
      <trkpt lat="50.12569" lon="4.08289">
        <ele>172</ele>
        <time>2024-03-29T06:54:46Z</time>
      </trkpt>
      <trkpt lat="50.12577" lon="4.08292">
        <ele>172</ele>
        <time>2024-03-29T06:54:47Z</time>
      </trkpt>
      <trkpt lat="50.12585" lon="4.08294">
        <ele>171.6</ele>
        <time>2024-03-29T06:54:48Z</time>
      </trkpt>
      <trkpt lat="50.12593" lon="4.08294">
        <ele>171.6</ele>
        <time>2024-03-29T06:54:49Z</time>
      </trkpt>
      <trkpt lat="50.12601" lon="4.08295">
        <ele>171.6</ele>
        <time>2024-03-29T06:54:50Z</time>
      </trkpt>
      <trkpt lat="50.12608" lon="4.08295">
        <ele>171.6</ele>
        <time>2024-03-29T06:54:51Z</time>
      </trkpt>
      <trkpt lat="50.12616" lon="4.08294">
        <ele>171.6</ele>
        <time>2024-03-29T06:54:52Z</time>
      </trkpt>
      <trkpt lat="50.12623" lon="4.08294">
        <ele>171.4</ele>
        <time>2024-03-29T06:54:53Z</time>
      </trkpt>
      <trkpt lat="50.1263" lon="4.08294">
        <ele>171.6</ele>
        <time>2024-03-29T06:54:54Z</time>
      </trkpt>
      <trkpt lat="50.12637" lon="4.08294">
        <ele>171.6</ele>
        <time>2024-03-29T06:54:55Z</time>
      </trkpt>
      <trkpt lat="50.12644" lon="4.08294">
        <ele>171.6</ele>
        <time>2024-03-29T06:54:56Z</time>
      </trkpt>
      <trkpt lat="50.1265" lon="4.08294">
        <ele>171.4</ele>
        <time>2024-03-29T06:54:57Z</time>
      </trkpt>
      <trkpt lat="50.12657" lon="4.08294">
        <ele>171.6</ele>
        <time>2024-03-29T06:54:58Z</time>
      </trkpt>
      <trkpt lat="50.12664" lon="4.08294">
        <ele>172</ele>
        <time>2024-03-29T06:54:59Z</time>
      </trkpt>
      <trkpt lat="50.1267" lon="4.08294">
        <ele>172.2</ele>
        <time>2024-03-29T06:55:00Z</time>
      </trkpt>
      <trkpt lat="50.12676" lon="4.08294">
        <ele>172.2</ele>
        <time>2024-03-29T06:55:01Z</time>
      </trkpt>
      <trkpt lat="50.12683" lon="4.08294">
        <ele>172.4</ele>
        <time>2024-03-29T06:55:02Z</time>
      </trkpt>
      <trkpt lat="50.12689" lon="4.08293">
        <ele>172.4</ele>
        <time>2024-03-29T06:55:03Z</time>
      </trkpt>
      <trkpt lat="50.12696" lon="4.08293">
        <ele>172.8</ele>
        <time>2024-03-29T06:55:04Z</time>
      </trkpt>
      <trkpt lat="50.12702" lon="4.08293">
        <ele>172.6</ele>
        <time>2024-03-29T06:55:05Z</time>
      </trkpt>
      <trkpt lat="50.12708" lon="4.08293">
        <ele>173</ele>
        <time>2024-03-29T06:55:06Z</time>
      </trkpt>
      <trkpt lat="50.12715" lon="4.08293">
        <ele>173.4</ele>
        <time>2024-03-29T06:55:07Z</time>
      </trkpt>
      <trkpt lat="50.12721" lon="4.08293">
        <ele>174</ele>
        <time>2024-03-29T06:55:08Z</time>
      </trkpt>
      <trkpt lat="50.12727" lon="4.08292">
        <ele>174.4</ele>
        <time>2024-03-29T06:55:09Z</time>
      </trkpt>
      <trkpt lat="50.12734" lon="4.08292">
        <ele>175</ele>
        <time>2024-03-29T06:55:10Z</time>
      </trkpt>
      <trkpt lat="50.1274" lon="4.08292">
        <ele>175.4</ele>
        <time>2024-03-29T06:55:11Z</time>
      </trkpt>
      <trkpt lat="50.12747" lon="4.08292">
        <ele>175.8</ele>
        <time>2024-03-29T06:55:12Z</time>
      </trkpt>
      <trkpt lat="50.12753" lon="4.08291">
        <ele>176.2</ele>
        <time>2024-03-29T06:55:13Z</time>
      </trkpt>
      <trkpt lat="50.12759" lon="4.08291">
        <ele>176.6</ele>
        <time>2024-03-29T06:55:14Z</time>
      </trkpt>
      <trkpt lat="50.12766" lon="4.08291">
        <ele>176.8</ele>
        <time>2024-03-29T06:55:15Z</time>
      </trkpt>
      <trkpt lat="50.12772" lon="4.08291">
        <ele>177.4</ele>
        <time>2024-03-29T06:55:16Z</time>
      </trkpt>
      <trkpt lat="50.12778" lon="4.08291">
        <ele>177.6</ele>
        <time>2024-03-29T06:55:17Z</time>
      </trkpt>
      <trkpt lat="50.12784" lon="4.08291">
        <ele>178.2</ele>
        <time>2024-03-29T06:55:18Z</time>
      </trkpt>
      <trkpt lat="50.1279" lon="4.08292">
        <ele>178.6</ele>
        <time>2024-03-29T06:55:19Z</time>
      </trkpt>
      <trkpt lat="50.12796" lon="4.08293">
        <ele>179.2</ele>
        <time>2024-03-29T06:55:20Z</time>
      </trkpt>
      <trkpt lat="50.12803" lon="4.08294">
        <ele>179.4</ele>
        <time>2024-03-29T06:55:21Z</time>
      </trkpt>
      <trkpt lat="50.12809" lon="4.08296">
        <ele>179.6</ele>
        <time>2024-03-29T06:55:22Z</time>
      </trkpt>
      <trkpt lat="50.12814" lon="4.08298">
        <ele>180.2</ele>
        <time>2024-03-29T06:55:23Z</time>
      </trkpt>
      <trkpt lat="50.1282" lon="4.083">
        <ele>180.6</ele>
        <time>2024-03-29T06:55:24Z</time>
      </trkpt>
      <trkpt lat="50.12826" lon="4.08303">
        <ele>180.6</ele>
        <time>2024-03-29T06:55:25Z</time>
      </trkpt>
      <trkpt lat="50.12831" lon="4.08306">
        <ele>181.4</ele>
        <time>2024-03-29T06:55:26Z</time>
      </trkpt>
      <trkpt lat="50.12837" lon="4.08309">
        <ele>181.6</ele>
        <time>2024-03-29T06:55:27Z</time>
      </trkpt>
      <trkpt lat="50.12842" lon="4.08312">
        <ele>182.4</ele>
        <time>2024-03-29T06:55:28Z</time>
      </trkpt>
      <trkpt lat="50.12848" lon="4.08316">
        <ele>183</ele>
        <time>2024-03-29T06:55:29Z</time>
      </trkpt>
      <trkpt lat="50.12853" lon="4.08319">
        <ele>183.8</ele>
        <time>2024-03-29T06:55:30Z</time>
      </trkpt>
      <trkpt lat="50.12858" lon="4.08324">
        <ele>184</ele>
        <time>2024-03-29T06:55:31Z</time>
      </trkpt>
      <trkpt lat="50.12863" lon="4.08328">
        <ele>184.4</ele>
        <time>2024-03-29T06:55:32Z</time>
      </trkpt>
      <trkpt lat="50.12868" lon="4.08333">
        <ele>184.8</ele>
        <time>2024-03-29T06:55:33Z</time>
      </trkpt>
      <trkpt lat="50.12872" lon="4.08338">
        <ele>185.2</ele>
        <time>2024-03-29T06:55:34Z</time>
      </trkpt>
      <trkpt lat="50.12877" lon="4.08342">
        <ele>185.2</ele>
        <time>2024-03-29T06:55:35Z</time>
      </trkpt>
      <trkpt lat="50.12882" lon="4.08347">
        <ele>185.6</ele>
        <time>2024-03-29T06:55:36Z</time>
      </trkpt>
      <trkpt lat="50.12886" lon="4.08352">
        <ele>185.8</ele>
        <time>2024-03-29T06:55:37Z</time>
      </trkpt>
      <trkpt lat="50.12891" lon="4.08356">
        <ele>186.4</ele>
        <time>2024-03-29T06:55:38Z</time>
      </trkpt>
      <trkpt lat="50.12896" lon="4.08361">
        <ele>187</ele>
        <time>2024-03-29T06:55:39Z</time>
      </trkpt>
      <trkpt lat="50.129" lon="4.08366">
        <ele>187.4</ele>
        <time>2024-03-29T06:55:40Z</time>
      </trkpt>
      <trkpt lat="50.12905" lon="4.08371">
        <ele>187.4</ele>
        <time>2024-03-29T06:55:41Z</time>
      </trkpt>
      <trkpt lat="50.12909" lon="4.08376">
        <ele>187.8</ele>
        <time>2024-03-29T06:55:42Z</time>
      </trkpt>
      <trkpt lat="50.12914" lon="4.08381">
        <ele>188</ele>
        <time>2024-03-29T06:55:43Z</time>
      </trkpt>
      <trkpt lat="50.12918" lon="4.08386">
        <ele>188.2</ele>
        <time>2024-03-29T06:55:44Z</time>
      </trkpt>
      <trkpt lat="50.12923" lon="4.08392">
        <ele>189.2</ele>
        <time>2024-03-29T06:55:45Z</time>
      </trkpt>
      <trkpt lat="50.12928" lon="4.08397">
        <ele>189.2</ele>
        <time>2024-03-29T06:55:46Z</time>
      </trkpt>
      <trkpt lat="50.12932" lon="4.08402">
        <ele>190</ele>
        <time>2024-03-29T06:55:47Z</time>
      </trkpt>
      <trkpt lat="50.12937" lon="4.08407">
        <ele>190.2</ele>
        <time>2024-03-29T06:55:48Z</time>
      </trkpt>
      <trkpt lat="50.12942" lon="4.08412">
        <ele>190.6</ele>
        <time>2024-03-29T06:55:49Z</time>
      </trkpt>
      <trkpt lat="50.12946" lon="4.08417">
        <ele>191</ele>
        <time>2024-03-29T06:55:50Z</time>
      </trkpt>
      <trkpt lat="50.12951" lon="4.08421">
        <ele>191</ele>
        <time>2024-03-29T06:55:51Z</time>
      </trkpt>
      <trkpt lat="50.12955" lon="4.08425">
        <ele>191.2</ele>
        <time>2024-03-29T06:55:52Z</time>
      </trkpt>
      <trkpt lat="50.1296" lon="4.08428">
        <ele>191.6</ele>
        <time>2024-03-29T06:55:53Z</time>
      </trkpt>
      <trkpt lat="50.12965" lon="4.0843">
        <ele>191.8</ele>
        <time>2024-03-29T06:55:54Z</time>
      </trkpt>
      <trkpt lat="50.1297" lon="4.08432">
        <ele>192</ele>
        <time>2024-03-29T06:55:55Z</time>
      </trkpt>
      <trkpt lat="50.12975" lon="4.08434">
        <ele>192</ele>
        <time>2024-03-29T06:55:56Z</time>
      </trkpt>
      <trkpt lat="50.1298" lon="4.08435">
        <ele>192.4</ele>
        <time>2024-03-29T06:55:57Z</time>
      </trkpt>
      <trkpt lat="50.12985" lon="4.08436">
        <ele>192.4</ele>
        <time>2024-03-29T06:55:58Z</time>
      </trkpt>
      <trkpt lat="50.12989" lon="4.08436">
        <ele>192.8</ele>
        <time>2024-03-29T06:55:59Z</time>
      </trkpt>
      <trkpt lat="50.12994" lon="4.08436">
        <ele>193</ele>
        <time>2024-03-29T06:56:00Z</time>
      </trkpt>
      <trkpt lat="50.12998" lon="4.08435">
        <ele>193.6</ele>
        <time>2024-03-29T06:56:01Z</time>
      </trkpt>
      <trkpt lat="50.13003" lon="4.08434">
        <ele>194</ele>
        <time>2024-03-29T06:56:02Z</time>
      </trkpt>
      <trkpt lat="50.13007" lon="4.08432">
        <ele>194.6</ele>
        <time>2024-03-29T06:56:03Z</time>
      </trkpt>
      <trkpt lat="50.13011" lon="4.08429">
        <ele>195</ele>
        <time>2024-03-29T06:56:04Z</time>
      </trkpt>
      <trkpt lat="50.13015" lon="4.08427">
        <ele>195.4</ele>
        <time>2024-03-29T06:56:05Z</time>
      </trkpt>
      <trkpt lat="50.13018" lon="4.08424">
        <ele>196.6</ele>
        <time>2024-03-29T06:56:06Z</time>
      </trkpt>
      <trkpt lat="50.13022" lon="4.08422">
        <ele>197.4</ele>
        <time>2024-03-29T06:56:07Z</time>
      </trkpt>
      <trkpt lat="50.13027" lon="4.08419">
        <ele>197.8</ele>
        <time>2024-03-29T06:56:08Z</time>
      </trkpt>
      <trkpt lat="50.13031" lon="4.08415">
        <ele>197.8</ele>
        <time>2024-03-29T06:56:09Z</time>
      </trkpt>
      <trkpt lat="50.13035" lon="4.08411">
        <ele>198</ele>
        <time>2024-03-29T06:56:10Z</time>
      </trkpt>
      <trkpt lat="50.13038" lon="4.08408">
        <ele>198.2</ele>
        <time>2024-03-29T06:56:11Z</time>
      </trkpt>
      <trkpt lat="50.13042" lon="4.08404">
        <ele>198.2</ele>
        <time>2024-03-29T06:56:12Z</time>
      </trkpt>
      <trkpt lat="50.13046" lon="4.08401">
        <ele>198.4</ele>
        <time>2024-03-29T06:56:13Z</time>
      </trkpt>
      <trkpt lat="50.13049" lon="4.08397">
        <ele>198.6</ele>
        <time>2024-03-29T06:56:14Z</time>
      </trkpt>
      <trkpt lat="50.13052" lon="4.08394">
        <ele>198.8</ele>
        <time>2024-03-29T06:56:15Z</time>
      </trkpt>
      <trkpt lat="50.13056" lon="4.0839">
        <ele>199</ele>
        <time>2024-03-29T06:56:16Z</time>
      </trkpt>
      <trkpt lat="50.13059" lon="4.08387">
        <ele>199.4</ele>
        <time>2024-03-29T06:56:17Z</time>
      </trkpt>
      <trkpt lat="50.13063" lon="4.08383">
        <ele>199.6</ele>
        <time>2024-03-29T06:56:18Z</time>
      </trkpt>
      <trkpt lat="50.13066" lon="4.08379">
        <ele>200</ele>
        <time>2024-03-29T06:56:19Z</time>
      </trkpt>
      <trkpt lat="50.1307" lon="4.08376">
        <ele>200.2</ele>
        <time>2024-03-29T06:56:20Z</time>
      </trkpt>
      <trkpt lat="50.13073" lon="4.08373">
        <ele>200.6</ele>
        <time>2024-03-29T06:56:21Z</time>
      </trkpt>
      <trkpt lat="50.13077" lon="4.0837">
        <ele>200.8</ele>
        <time>2024-03-29T06:56:22Z</time>
      </trkpt>
      <trkpt lat="50.1308" lon="4.08368">
        <ele>201.2</ele>
        <time>2024-03-29T06:56:23Z</time>
      </trkpt>
      <trkpt lat="50.13083" lon="4.08365">
        <ele>201.2</ele>
        <time>2024-03-29T06:56:24Z</time>
      </trkpt>
      <trkpt lat="50.13086" lon="4.08361">
        <ele>201.6</ele>
        <time>2024-03-29T06:56:25Z</time>
      </trkpt>
      <trkpt lat="50.1309" lon="4.08358">
        <ele>201.6</ele>
        <time>2024-03-29T06:56:26Z</time>
      </trkpt>
      <trkpt lat="50.13093" lon="4.08355">
        <ele>202.2</ele>
        <time>2024-03-29T06:56:27Z</time>
      </trkpt>
      <trkpt lat="50.13096" lon="4.08352">
        <ele>202.4</ele>
        <time>2024-03-29T06:56:28Z</time>
      </trkpt>
      <trkpt lat="50.13099" lon="4.0835">
        <ele>202.8</ele>
        <time>2024-03-29T06:56:29Z</time>
      </trkpt>
      <trkpt lat="50.13102" lon="4.08347">
        <ele>202.8</ele>
        <time>2024-03-29T06:56:30Z</time>
      </trkpt>
      <trkpt lat="50.13105" lon="4.08345">
        <ele>203</ele>
        <time>2024-03-29T06:56:31Z</time>
      </trkpt>
      <trkpt lat="50.13109" lon="4.08342">
        <ele>203.4</ele>
        <time>2024-03-29T06:56:32Z</time>
      </trkpt>
      <trkpt lat="50.13112" lon="4.08341">
        <ele>203.8</ele>
        <time>2024-03-29T06:56:33Z</time>
      </trkpt>
      <trkpt lat="50.13115" lon="4.08339">
        <ele>204</ele>
        <time>2024-03-29T06:56:34Z</time>
      </trkpt>
      <trkpt lat="50.13119" lon="4.08337">
        <ele>204.4</ele>
        <time>2024-03-29T06:56:35Z</time>
      </trkpt>
      <trkpt lat="50.13123" lon="4.08336">
        <ele>204.6</ele>
        <time>2024-03-29T06:56:36Z</time>
      </trkpt>
      <trkpt lat="50.13127" lon="4.08334">
        <ele>205</ele>
        <time>2024-03-29T06:56:37Z</time>
      </trkpt>
      <trkpt lat="50.1313" lon="4.08333">
        <ele>205.4</ele>
        <time>2024-03-29T06:56:38Z</time>
      </trkpt>
      <trkpt lat="50.13134" lon="4.08333">
        <ele>205.8</ele>
        <time>2024-03-29T06:56:39Z</time>
      </trkpt>
      <trkpt lat="50.13138" lon="4.08333">
        <ele>206</ele>
        <time>2024-03-29T06:56:40Z</time>
      </trkpt>
      <trkpt lat="50.13142" lon="4.08332">
        <ele>206.2</ele>
        <time>2024-03-29T06:56:41Z</time>
      </trkpt>
      <trkpt lat="50.13146" lon="4.08332">
        <ele>206.6</ele>
        <time>2024-03-29T06:56:42Z</time>
      </trkpt>
      <trkpt lat="50.1315" lon="4.08331">
        <ele>206.8</ele>
        <time>2024-03-29T06:56:43Z</time>
      </trkpt>
      <trkpt lat="50.13153" lon="4.08331">
        <ele>207</ele>
        <time>2024-03-29T06:56:44Z</time>
      </trkpt>
      <trkpt lat="50.13157" lon="4.08331">
        <ele>207.2</ele>
        <time>2024-03-29T06:56:45Z</time>
      </trkpt>
      <trkpt lat="50.13161" lon="4.08332">
        <ele>207.4</ele>
        <time>2024-03-29T06:56:46Z</time>
      </trkpt>
      <trkpt lat="50.13165" lon="4.08332">
        <ele>207.8</ele>
        <time>2024-03-29T06:56:47Z</time>
      </trkpt>
      <trkpt lat="50.13169" lon="4.08333">
        <ele>207.8</ele>
        <time>2024-03-29T06:56:48Z</time>
      </trkpt>
      <trkpt lat="50.13173" lon="4.08334">
        <ele>208.2</ele>
        <time>2024-03-29T06:56:49Z</time>
      </trkpt>
      <trkpt lat="50.13177" lon="4.08334">
        <ele>208.4</ele>
        <time>2024-03-29T06:56:50Z</time>
      </trkpt>
      <trkpt lat="50.13181" lon="4.08335">
        <ele>209</ele>
        <time>2024-03-29T06:56:51Z</time>
      </trkpt>
      <trkpt lat="50.13184" lon="4.08337">
        <ele>209</ele>
        <time>2024-03-29T06:56:52Z</time>
      </trkpt>
      <trkpt lat="50.13188" lon="4.08338">
        <ele>209.4</ele>
        <time>2024-03-29T06:56:53Z</time>
      </trkpt>
      <trkpt lat="50.13192" lon="4.08339">
        <ele>209.6</ele>
        <time>2024-03-29T06:56:54Z</time>
      </trkpt>
      <trkpt lat="50.13196" lon="4.0834">
        <ele>210</ele>
        <time>2024-03-29T06:56:55Z</time>
      </trkpt>
      <trkpt lat="50.132" lon="4.08341">
        <ele>210.2</ele>
        <time>2024-03-29T06:56:56Z</time>
      </trkpt>
      <trkpt lat="50.13204" lon="4.08342">
        <ele>210.6</ele>
        <time>2024-03-29T06:56:57Z</time>
      </trkpt>
      <trkpt lat="50.13208" lon="4.08343">
        <ele>211</ele>
        <time>2024-03-29T06:56:58Z</time>
      </trkpt>
      <trkpt lat="50.13212" lon="4.08344">
        <ele>211.2</ele>
        <time>2024-03-29T06:56:59Z</time>
      </trkpt>
      <trkpt lat="50.13216" lon="4.08345">
        <ele>211.6</ele>
        <time>2024-03-29T06:57:00Z</time>
      </trkpt>
      <trkpt lat="50.1322" lon="4.08346">
        <ele>212.2</ele>
        <time>2024-03-29T06:57:01Z</time>
      </trkpt>
      <trkpt lat="50.13224" lon="4.08347">
        <ele>212.8</ele>
        <time>2024-03-29T06:57:02Z</time>
      </trkpt>
      <trkpt lat="50.13227" lon="4.08349">
        <ele>212.8</ele>
        <time>2024-03-29T06:57:03Z</time>
      </trkpt>
      <trkpt lat="50.13231" lon="4.0835">
        <ele>213.2</ele>
        <time>2024-03-29T06:57:04Z</time>
      </trkpt>
      <trkpt lat="50.13236" lon="4.08351">
        <ele>213.4</ele>
        <time>2024-03-29T06:57:05Z</time>
      </trkpt>
      <trkpt lat="50.1324" lon="4.08352">
        <ele>213.8</ele>
        <time>2024-03-29T06:57:06Z</time>
      </trkpt>
      <trkpt lat="50.13245" lon="4.08353">
        <ele>214.4</ele>
        <time>2024-03-29T06:57:07Z</time>
      </trkpt>
      <trkpt lat="50.13249" lon="4.08355">
        <ele>214.6</ele>
        <time>2024-03-29T06:57:08Z</time>
      </trkpt>
      <trkpt lat="50.13253" lon="4.08355">
        <ele>214.8</ele>
        <time>2024-03-29T06:57:09Z</time>
      </trkpt>
      <trkpt lat="50.13257" lon="4.08356">
        <ele>215</ele>
        <time>2024-03-29T06:57:10Z</time>
      </trkpt>
      <trkpt lat="50.13261" lon="4.08357">
        <ele>215</ele>
        <time>2024-03-29T06:57:11Z</time>
      </trkpt>
      <trkpt lat="50.13265" lon="4.08358">
        <ele>215</ele>
        <time>2024-03-29T06:57:12Z</time>
      </trkpt>
      <trkpt lat="50.13269" lon="4.08359">
        <ele>215.2</ele>
        <time>2024-03-29T06:57:13Z</time>
      </trkpt>
      <trkpt lat="50.13273" lon="4.08361">
        <ele>215.2</ele>
        <time>2024-03-29T06:57:14Z</time>
      </trkpt>
      <trkpt lat="50.13278" lon="4.08362">
        <ele>215.4</ele>
        <time>2024-03-29T06:57:15Z</time>
      </trkpt>
      <trkpt lat="50.13282" lon="4.08363">
        <ele>215.4</ele>
        <time>2024-03-29T06:57:16Z</time>
      </trkpt>
      <trkpt lat="50.13286" lon="4.08364">
        <ele>215.4</ele>
        <time>2024-03-29T06:57:17Z</time>
      </trkpt>
      <trkpt lat="50.1329" lon="4.08365">
        <ele>215.4</ele>
        <time>2024-03-29T06:57:18Z</time>
      </trkpt>
      <trkpt lat="50.13295" lon="4.08366">
        <ele>215.4</ele>
        <time>2024-03-29T06:57:19Z</time>
      </trkpt>
      <trkpt lat="50.13299" lon="4.08367">
        <ele>215.6</ele>
        <time>2024-03-29T06:57:20Z</time>
      </trkpt>
      <trkpt lat="50.13303" lon="4.08368">
        <ele>215.8</ele>
        <time>2024-03-29T06:57:21Z</time>
      </trkpt>
      <trkpt lat="50.13307" lon="4.08369">
        <ele>215.8</ele>
        <time>2024-03-29T06:57:22Z</time>
      </trkpt>
      <trkpt lat="50.13312" lon="4.0837">
        <ele>215.8</ele>
        <time>2024-03-29T06:57:23Z</time>
      </trkpt>
      <trkpt lat="50.13316" lon="4.08371">
        <ele>215.8</ele>
        <time>2024-03-29T06:57:24Z</time>
      </trkpt>
      <trkpt lat="50.13321" lon="4.08372">
        <ele>215.8</ele>
        <time>2024-03-29T06:57:25Z</time>
      </trkpt>
      <trkpt lat="50.13325" lon="4.08373">
        <ele>215.8</ele>
        <time>2024-03-29T06:57:26Z</time>
      </trkpt>
      <trkpt lat="50.13329" lon="4.08373">
        <ele>216</ele>
        <time>2024-03-29T06:57:27Z</time>
      </trkpt>
      <trkpt lat="50.13334" lon="4.08373">
        <ele>216.2</ele>
        <time>2024-03-29T06:57:28Z</time>
      </trkpt>
      <trkpt lat="50.13339" lon="4.08373">
        <ele>216.2</ele>
        <time>2024-03-29T06:57:29Z</time>
      </trkpt>
      <trkpt lat="50.13344" lon="4.08374">
        <ele>216.2</ele>
        <time>2024-03-29T06:57:30Z</time>
      </trkpt>
      <trkpt lat="50.13349" lon="4.08373">
        <ele>216</ele>
        <time>2024-03-29T06:57:31Z</time>
      </trkpt>
      <trkpt lat="50.13354" lon="4.08373">
        <ele>216.2</ele>
        <time>2024-03-29T06:57:32Z</time>
      </trkpt>
      <trkpt lat="50.13359" lon="4.08372">
        <ele>216.2</ele>
        <time>2024-03-29T06:57:33Z</time>
      </trkpt>
      <trkpt lat="50.13365" lon="4.08371">
        <ele>216.2</ele>
        <time>2024-03-29T06:57:34Z</time>
      </trkpt>
      <trkpt lat="50.1337" lon="4.0837">
        <ele>216.2</ele>
        <time>2024-03-29T06:57:35Z</time>
      </trkpt>
      <trkpt lat="50.13376" lon="4.08369">
        <ele>216.4</ele>
        <time>2024-03-29T06:57:36Z</time>
      </trkpt>
      <trkpt lat="50.13382" lon="4.08367">
        <ele>216.4</ele>
        <time>2024-03-29T06:57:37Z</time>
      </trkpt>
      <trkpt lat="50.13388" lon="4.08365">
        <ele>216.6</ele>
        <time>2024-03-29T06:57:38Z</time>
      </trkpt>
      <trkpt lat="50.13394" lon="4.08363">
        <ele>216.8</ele>
        <time>2024-03-29T06:57:39Z</time>
      </trkpt>
      <trkpt lat="50.134" lon="4.08361">
        <ele>216.8</ele>
        <time>2024-03-29T06:57:40Z</time>
      </trkpt>
      <trkpt lat="50.13406" lon="4.08359">
        <ele>217</ele>
        <time>2024-03-29T06:57:41Z</time>
      </trkpt>
      <trkpt lat="50.13412" lon="4.08357">
        <ele>217</ele>
        <time>2024-03-29T06:57:42Z</time>
      </trkpt>
      <trkpt lat="50.13418" lon="4.08355">
        <ele>217</ele>
        <time>2024-03-29T06:57:43Z</time>
      </trkpt>
      <trkpt lat="50.13424" lon="4.08353">
        <ele>217.2</ele>
        <time>2024-03-29T06:57:44Z</time>
      </trkpt>
      <trkpt lat="50.1343" lon="4.08351">
        <ele>217</ele>
        <time>2024-03-29T06:57:45Z</time>
      </trkpt>
      <trkpt lat="50.13435" lon="4.08349">
        <ele>217.2</ele>
        <time>2024-03-29T06:57:46Z</time>
      </trkpt>
      <trkpt lat="50.13441" lon="4.08347">
        <ele>217.2</ele>
        <time>2024-03-29T06:57:47Z</time>
      </trkpt>
      <trkpt lat="50.13447" lon="4.08345">
        <ele>217.2</ele>
        <time>2024-03-29T06:57:48Z</time>
      </trkpt>
      <trkpt lat="50.13452" lon="4.08343">
        <ele>217</ele>
        <time>2024-03-29T06:57:49Z</time>
      </trkpt>
      <trkpt lat="50.13458" lon="4.08341">
        <ele>217.2</ele>
        <time>2024-03-29T06:57:50Z</time>
      </trkpt>
      <trkpt lat="50.13463" lon="4.08339">
        <ele>217</ele>
        <time>2024-03-29T06:57:51Z</time>
      </trkpt>
      <trkpt lat="50.13469" lon="4.08337">
        <ele>217</ele>
        <time>2024-03-29T06:57:52Z</time>
      </trkpt>
      <trkpt lat="50.13474" lon="4.08335">
        <ele>217</ele>
        <time>2024-03-29T06:57:53Z</time>
      </trkpt>
      <trkpt lat="50.1348" lon="4.08334">
        <ele>217</ele>
        <time>2024-03-29T06:57:54Z</time>
      </trkpt>
      <trkpt lat="50.13485" lon="4.08332">
        <ele>217</ele>
        <time>2024-03-29T06:57:55Z</time>
      </trkpt>
      <trkpt lat="50.1349" lon="4.0833">
        <ele>217</ele>
        <time>2024-03-29T06:57:56Z</time>
      </trkpt>
      <trkpt lat="50.13496" lon="4.08328">
        <ele>217</ele>
        <time>2024-03-29T06:57:57Z</time>
      </trkpt>
      <trkpt lat="50.13501" lon="4.08327">
        <ele>216.8</ele>
        <time>2024-03-29T06:57:58Z</time>
      </trkpt>
      <trkpt lat="50.13506" lon="4.08325">
        <ele>217</ele>
        <time>2024-03-29T06:57:59Z</time>
      </trkpt>
      <trkpt lat="50.13511" lon="4.08324">
        <ele>217</ele>
        <time>2024-03-29T06:58:00Z</time>
      </trkpt>
      <trkpt lat="50.13516" lon="4.08322">
        <ele>217</ele>
        <time>2024-03-29T06:58:01Z</time>
      </trkpt>
      <trkpt lat="50.1352" lon="4.08321">
        <ele>217</ele>
        <time>2024-03-29T06:58:02Z</time>
      </trkpt>
      <trkpt lat="50.13525" lon="4.08319">
        <ele>217.2</ele>
        <time>2024-03-29T06:58:03Z</time>
      </trkpt>
      <trkpt lat="50.1353" lon="4.08318">
        <ele>217.4</ele>
        <time>2024-03-29T06:58:04Z</time>
      </trkpt>
      <trkpt lat="50.13535" lon="4.08317">
        <ele>217.6</ele>
        <time>2024-03-29T06:58:05Z</time>
      </trkpt>
      <trkpt lat="50.1354" lon="4.08316">
        <ele>217.8</ele>
        <time>2024-03-29T06:58:06Z</time>
      </trkpt>
      <trkpt lat="50.13545" lon="4.08315">
        <ele>217.8</ele>
        <time>2024-03-29T06:58:07Z</time>
      </trkpt>
      <trkpt lat="50.1355" lon="4.08315">
        <ele>218</ele>
        <time>2024-03-29T06:58:08Z</time>
      </trkpt>
      <trkpt lat="50.13554" lon="4.08314">
        <ele>218</ele>
        <time>2024-03-29T06:58:09Z</time>
      </trkpt>
      <trkpt lat="50.13559" lon="4.08313">
        <ele>218.2</ele>
        <time>2024-03-29T06:58:10Z</time>
      </trkpt>
      <trkpt lat="50.13564" lon="4.08312">
        <ele>218.6</ele>
        <time>2024-03-29T06:58:11Z</time>
      </trkpt>
      <trkpt lat="50.13569" lon="4.08311">
        <ele>218.8</ele>
        <time>2024-03-29T06:58:12Z</time>
      </trkpt>
      <trkpt lat="50.13574" lon="4.0831">
        <ele>219.4</ele>
        <time>2024-03-29T06:58:13Z</time>
      </trkpt>
      <trkpt lat="50.13579" lon="4.0831">
        <ele>219.6</ele>
        <time>2024-03-29T06:58:14Z</time>
      </trkpt>
      <trkpt lat="50.13584" lon="4.08309">
        <ele>219.8</ele>
        <time>2024-03-29T06:58:15Z</time>
      </trkpt>
      <trkpt lat="50.13589" lon="4.08308">
        <ele>220</ele>
        <time>2024-03-29T06:58:16Z</time>
      </trkpt>
      <trkpt lat="50.13595" lon="4.08307">
        <ele>220</ele>
        <time>2024-03-29T06:58:17Z</time>
      </trkpt>
      <trkpt lat="50.136" lon="4.08305">
        <ele>220.2</ele>
        <time>2024-03-29T06:58:18Z</time>
      </trkpt>
      <trkpt lat="50.13605" lon="4.08304">
        <ele>220.2</ele>
        <time>2024-03-29T06:58:19Z</time>
      </trkpt>
      <trkpt lat="50.1361" lon="4.08303">
        <ele>220.6</ele>
        <time>2024-03-29T06:58:20Z</time>
      </trkpt>
      <trkpt lat="50.13615" lon="4.08303">
        <ele>220.8</ele>
        <time>2024-03-29T06:58:21Z</time>
      </trkpt>
      <trkpt lat="50.1362" lon="4.08306">
        <ele>221</ele>
        <time>2024-03-29T06:58:22Z</time>
      </trkpt>
      <trkpt lat="50.13624" lon="4.0831">
        <ele>221.2</ele>
        <time>2024-03-29T06:58:23Z</time>
      </trkpt>
      <trkpt lat="50.13628" lon="4.08316">
        <ele>221.2</ele>
        <time>2024-03-29T06:58:24Z</time>
      </trkpt>
      <trkpt lat="50.13631" lon="4.08322">
        <ele>221.4</ele>
        <time>2024-03-29T06:58:25Z</time>
      </trkpt>
      <trkpt lat="50.13633" lon="4.0833">
        <ele>221.4</ele>
        <time>2024-03-29T06:58:26Z</time>
      </trkpt>
      <trkpt lat="50.13635" lon="4.08339">
        <ele>221.6</ele>
        <time>2024-03-29T06:58:27Z</time>
      </trkpt>
      <trkpt lat="50.13636" lon="4.08347">
        <ele>221.4</ele>
        <time>2024-03-29T06:58:28Z</time>
      </trkpt>
      <trkpt lat="50.13636" lon="4.08356">
        <ele>221.6</ele>
        <time>2024-03-29T06:58:29Z</time>
      </trkpt>
      <trkpt lat="50.13635" lon="4.08364">
        <ele>221.6</ele>
        <time>2024-03-29T06:58:30Z</time>
      </trkpt>
      <trkpt lat="50.13633" lon="4.08372">
        <ele>221.4</ele>
        <time>2024-03-29T06:58:31Z</time>
      </trkpt>
      <trkpt lat="50.1363" lon="4.08381">
        <ele>221.4</ele>
        <time>2024-03-29T06:58:32Z</time>
      </trkpt>
      <trkpt lat="50.13628" lon="4.08389">
        <ele>221.4</ele>
        <time>2024-03-29T06:58:33Z</time>
      </trkpt>
      <trkpt lat="50.13627" lon="4.08399">
        <ele>221.4</ele>
        <time>2024-03-29T06:58:34Z</time>
      </trkpt>
      <trkpt lat="50.13627" lon="4.08408">
        <ele>221.2</ele>
        <time>2024-03-29T06:58:35Z</time>
      </trkpt>
      <trkpt lat="50.13628" lon="4.08418">
        <ele>221</ele>
        <time>2024-03-29T06:58:36Z</time>
      </trkpt>
      <trkpt lat="50.13627" lon="4.08428">
        <ele>220.8</ele>
        <time>2024-03-29T06:58:37Z</time>
      </trkpt>
      <trkpt lat="50.13625" lon="4.08439">
        <ele>220.4</ele>
        <time>2024-03-29T06:58:38Z</time>
      </trkpt>
      <trkpt lat="50.13622" lon="4.08448">
        <ele>219.8</ele>
        <time>2024-03-29T06:58:39Z</time>
      </trkpt>
      <trkpt lat="50.13619" lon="4.08458">
        <ele>219.4</ele>
        <time>2024-03-29T06:58:40Z</time>
      </trkpt>
      <trkpt lat="50.13614" lon="4.08467">
        <ele>219.4</ele>
        <time>2024-03-29T06:58:41Z</time>
      </trkpt>
      <trkpt lat="50.13609" lon="4.08477">
        <ele>218.8</ele>
        <time>2024-03-29T06:58:42Z</time>
      </trkpt>
      <trkpt lat="50.13604" lon="4.08488">
        <ele>218.6</ele>
        <time>2024-03-29T06:58:43Z</time>
      </trkpt>
      <trkpt lat="50.13599" lon="4.08498">
        <ele>218.4</ele>
        <time>2024-03-29T06:58:44Z</time>
      </trkpt>
      <trkpt lat="50.13594" lon="4.08508">
        <ele>218.2</ele>
        <time>2024-03-29T06:58:45Z</time>
      </trkpt>
      <trkpt lat="50.13589" lon="4.08518">
        <ele>218.2</ele>
        <time>2024-03-29T06:58:46Z</time>
      </trkpt>
      <trkpt lat="50.13583" lon="4.08529">
        <ele>218</ele>
        <time>2024-03-29T06:58:47Z</time>
      </trkpt>
      <trkpt lat="50.13578" lon="4.08539">
        <ele>217.2</ele>
        <time>2024-03-29T06:58:48Z</time>
      </trkpt>
      <trkpt lat="50.13573" lon="4.08548">
        <ele>216.4</ele>
        <time>2024-03-29T06:58:49Z</time>
      </trkpt>
      <trkpt lat="50.13569" lon="4.08556">
        <ele>216.2</ele>
        <time>2024-03-29T06:58:50Z</time>
      </trkpt>
      <trkpt lat="50.13565" lon="4.08561">
        <ele>215.6</ele>
        <time>2024-03-29T06:58:51Z</time>
      </trkpt>
      <trkpt lat="50.13561" lon="4.08562">
        <ele>214.6</ele>
        <time>2024-03-29T06:58:52Z</time>
      </trkpt>
      <trkpt lat="50.13558" lon="4.08561">
        <ele>214.2</ele>
        <time>2024-03-29T06:58:53Z</time>
      </trkpt>
      <trkpt lat="50.13556" lon="4.08556">
        <ele>213.6</ele>
        <time>2024-03-29T06:58:54Z</time>
      </trkpt>
      <trkpt lat="50.13554" lon="4.08551">
        <ele>212.6</ele>
        <time>2024-03-29T06:58:55Z</time>
      </trkpt>
      <trkpt lat="50.13554" lon="4.08545">
        <ele>212</ele>
        <time>2024-03-29T06:58:56Z</time>
      </trkpt>
      <trkpt lat="50.13553" lon="4.08539">
        <ele>211.6</ele>
        <time>2024-03-29T06:58:57Z</time>
      </trkpt>
      <trkpt lat="50.13553" lon="4.08533">
        <ele>211.2</ele>
        <time>2024-03-29T06:58:58Z</time>
      </trkpt>
      <trkpt lat="50.13553" lon="4.08527">
        <ele>211.2</ele>
        <time>2024-03-29T06:58:59Z</time>
      </trkpt>
      <trkpt lat="50.13553" lon="4.08521">
        <ele>211.2</ele>
        <time>2024-03-29T06:59:00Z</time>
      </trkpt>
      <trkpt lat="50.13552" lon="4.08515">
        <ele>211</ele>
        <time>2024-03-29T06:59:01Z</time>
      </trkpt>
      <trkpt lat="50.13551" lon="4.08509">
        <ele>211</ele>
        <time>2024-03-29T06:59:02Z</time>
      </trkpt>
      <trkpt lat="50.13551" lon="4.08503">
        <ele>211</ele>
        <time>2024-03-29T06:59:03Z</time>
      </trkpt>
      <trkpt lat="50.1355" lon="4.08496">
        <ele>211</ele>
        <time>2024-03-29T06:59:04Z</time>
      </trkpt>
      <trkpt lat="50.13548" lon="4.0849">
        <ele>211</ele>
        <time>2024-03-29T06:59:05Z</time>
      </trkpt>
      <trkpt lat="50.13547" lon="4.08485">
        <ele>211</ele>
        <time>2024-03-29T06:59:06Z</time>
      </trkpt>
      <trkpt lat="50.13545" lon="4.0848">
        <ele>210.8</ele>
        <time>2024-03-29T06:59:07Z</time>
      </trkpt>
      <trkpt lat="50.13543" lon="4.08476">
        <ele>210.8</ele>
        <time>2024-03-29T06:59:08Z</time>
      </trkpt>
      <trkpt lat="50.13541" lon="4.08472">
        <ele>211</ele>
        <time>2024-03-29T06:59:09Z</time>
      </trkpt>
      <trkpt lat="50.13538" lon="4.08468">
        <ele>211</ele>
        <time>2024-03-29T06:59:10Z</time>
      </trkpt>
      <trkpt lat="50.13536" lon="4.08465">
        <ele>211.2</ele>
        <time>2024-03-29T06:59:11Z</time>
      </trkpt>
      <trkpt lat="50.13534" lon="4.08463">
        <ele>211.2</ele>
        <time>2024-03-29T06:59:12Z</time>
      </trkpt>
      <trkpt lat="50.13532" lon="4.08461">
        <ele>211.2</ele>
        <time>2024-03-29T06:59:13Z</time>
      </trkpt>
      <trkpt lat="50.13531" lon="4.08459">
        <ele>211.2</ele>
        <time>2024-03-29T06:59:14Z</time>
      </trkpt>
      <trkpt lat="50.13529" lon="4.08458">
        <ele>211.2</ele>
        <time>2024-03-29T06:59:15Z</time>
      </trkpt>
      <trkpt lat="50.13528" lon="4.08457">
        <ele>211.4</ele>
        <time>2024-03-29T06:59:16Z</time>
      </trkpt>
      <trkpt lat="50.13528" lon="4.08456">
        <ele>211.6</ele>
        <time>2024-03-29T06:59:17Z</time>
      </trkpt>
      <trkpt lat="50.13527" lon="4.08455">
        <ele>212.2</ele>
        <time>2024-03-29T06:59:18Z</time>
      </trkpt>
      <trkpt lat="50.13528" lon="4.08454">
        <ele>212.6</ele>
        <time>2024-03-29T06:59:19Z</time>
      </trkpt>
      <trkpt lat="50.13527" lon="4.08453">
        <ele>213</ele>
        <time>2024-03-29T06:59:20Z</time>
      </trkpt>
      <trkpt lat="50.13527" lon="4.08453">
        <ele>213.4</ele>
        <time>2024-03-29T06:59:21Z</time>
      </trkpt>
      <trkpt lat="50.13527" lon="4.08453">
        <ele>213.8</ele>
        <time>2024-03-29T06:59:22Z</time>
      </trkpt>
      <trkpt lat="50.13527" lon="4.08453">
        <ele>214.4</ele>
        <time>2024-03-29T06:59:23Z</time>
      </trkpt>
      <trkpt lat="50.13526" lon="4.08453">
        <ele>214.4</ele>
        <time>2024-03-29T06:59:24Z</time>
      </trkpt>
      <trkpt lat="50.13526" lon="4.08453">
        <ele>214.4</ele>
        <time>2024-03-29T06:59:25Z</time>
      </trkpt>
      <trkpt lat="50.13526" lon="4.08452">
        <ele>215</ele>
        <time>2024-03-29T06:59:26Z</time>
      </trkpt>
      <trkpt lat="50.13526" lon="4.08452">
        <ele>215</ele>
        <time>2024-03-29T06:59:27Z</time>
      </trkpt>
      <trkpt lat="50.13526" lon="4.08452">
        <ele>215</ele>
        <time>2024-03-29T06:59:28Z</time>
      </trkpt>
      <trkpt lat="50.13526" lon="4.08451">
        <ele>215</ele>
        <time>2024-03-29T06:59:29Z</time>
      </trkpt>
      <trkpt lat="50.13595" lon="4.08507">
        <ele>228.8</ele>
        <time>2024-03-29T15:36:20Z</time>
      </trkpt>
      <trkpt lat="50.13597" lon="4.08503">
        <ele>229.2</ele>
        <time>2024-03-29T15:36:21Z</time>
      </trkpt>
      <trkpt lat="50.13599" lon="4.08499">
        <ele>229.4</ele>
        <time>2024-03-29T15:36:22Z</time>
      </trkpt>
      <trkpt lat="50.13601" lon="4.08495">
        <ele>229.4</ele>
        <time>2024-03-29T15:36:23Z</time>
      </trkpt>
      <trkpt lat="50.13603" lon="4.08491">
        <ele>229.6</ele>
        <time>2024-03-29T15:36:24Z</time>
      </trkpt>
      <trkpt lat="50.13605" lon="4.08488">
        <ele>230.6</ele>
        <time>2024-03-29T15:36:25Z</time>
      </trkpt>
      <trkpt lat="50.13607" lon="4.08485">
        <ele>231.2</ele>
        <time>2024-03-29T15:36:26Z</time>
      </trkpt>
      <trkpt lat="50.13608" lon="4.08482">
        <ele>231.2</ele>
        <time>2024-03-29T15:36:27Z</time>
      </trkpt>
      <trkpt lat="50.1361" lon="4.08478">
        <ele>231.8</ele>
        <time>2024-03-29T15:36:28Z</time>
      </trkpt>
      <trkpt lat="50.13612" lon="4.08474">
        <ele>232.2</ele>
        <time>2024-03-29T15:36:29Z</time>
      </trkpt>
      <trkpt lat="50.13614" lon="4.0847">
        <ele>232.4</ele>
        <time>2024-03-29T15:36:30Z</time>
      </trkpt>
      <trkpt lat="50.13616" lon="4.08467">
        <ele>232.2</ele>
        <time>2024-03-29T15:36:31Z</time>
      </trkpt>
      <trkpt lat="50.13618" lon="4.08463">
        <ele>232.2</ele>
        <time>2024-03-29T15:36:32Z</time>
      </trkpt>
      <trkpt lat="50.1362" lon="4.08459">
        <ele>233</ele>
        <time>2024-03-29T15:36:33Z</time>
      </trkpt>
      <trkpt lat="50.13622" lon="4.08456">
        <ele>233.4</ele>
        <time>2024-03-29T15:36:34Z</time>
      </trkpt>
      <trkpt lat="50.13624" lon="4.08454">
        <ele>233.6</ele>
        <time>2024-03-29T15:36:35Z</time>
      </trkpt>
      <trkpt lat="50.13625" lon="4.0845">
        <ele>234</ele>
        <time>2024-03-29T15:36:36Z</time>
      </trkpt>
      <trkpt lat="50.13627" lon="4.08447">
        <ele>234.2</ele>
        <time>2024-03-29T15:36:37Z</time>
      </trkpt>
      <trkpt lat="50.13629" lon="4.08443">
        <ele>234.4</ele>
        <time>2024-03-29T15:36:38Z</time>
      </trkpt>
      <trkpt lat="50.1363" lon="4.08439">
        <ele>234.6</ele>
        <time>2024-03-29T15:36:39Z</time>
      </trkpt>
      <trkpt lat="50.13631" lon="4.08435">
        <ele>233.4</ele>
        <time>2024-03-29T15:36:40Z</time>
      </trkpt>
      <trkpt lat="50.13632" lon="4.0843">
        <ele>233.2</ele>
        <time>2024-03-29T15:36:41Z</time>
      </trkpt>
      <trkpt lat="50.13633" lon="4.08425">
        <ele>233.2</ele>
        <time>2024-03-29T15:36:42Z</time>
      </trkpt>
      <trkpt lat="50.13634" lon="4.0842">
        <ele>233.4</ele>
        <time>2024-03-29T15:36:43Z</time>
      </trkpt>
      <trkpt lat="50.13636" lon="4.08415">
        <ele>233.8</ele>
        <time>2024-03-29T15:36:44Z</time>
      </trkpt>
      <trkpt lat="50.13638" lon="4.08411">
        <ele>234</ele>
        <time>2024-03-29T15:36:45Z</time>
      </trkpt>
      <trkpt lat="50.13639" lon="4.08407">
        <ele>234.2</ele>
        <time>2024-03-29T15:36:46Z</time>
      </trkpt>
      <trkpt lat="50.13641" lon="4.08402">
        <ele>234.4</ele>
        <time>2024-03-29T15:36:47Z</time>
      </trkpt>
      <trkpt lat="50.13644" lon="4.08398">
        <ele>234.6</ele>
        <time>2024-03-29T15:36:48Z</time>
      </trkpt>
      <trkpt lat="50.13647" lon="4.08394">
        <ele>234.8</ele>
        <time>2024-03-29T15:36:49Z</time>
      </trkpt>
      <trkpt lat="50.13651" lon="4.08388">
        <ele>234.8</ele>
        <time>2024-03-29T15:36:50Z</time>
      </trkpt>
      <trkpt lat="50.13653" lon="4.08382">
        <ele>234.8</ele>
        <time>2024-03-29T15:36:51Z</time>
      </trkpt>
      <trkpt lat="50.13654" lon="4.08376">
        <ele>235</ele>
        <time>2024-03-29T15:36:52Z</time>
      </trkpt>
      <trkpt lat="50.13654" lon="4.08369">
        <ele>234.8</ele>
        <time>2024-03-29T15:36:53Z</time>
      </trkpt>
      <trkpt lat="50.13653" lon="4.08364">
        <ele>234.8</ele>
        <time>2024-03-29T15:36:54Z</time>
      </trkpt>
      <trkpt lat="50.1365" lon="4.08359">
        <ele>235</ele>
        <time>2024-03-29T15:36:55Z</time>
      </trkpt>
      <trkpt lat="50.13647" lon="4.08356">
        <ele>235</ele>
        <time>2024-03-29T15:36:56Z</time>
      </trkpt>
      <trkpt lat="50.13644" lon="4.08352">
        <ele>234.8</ele>
        <time>2024-03-29T15:36:57Z</time>
      </trkpt>
      <trkpt lat="50.13641" lon="4.08346">
        <ele>235</ele>
        <time>2024-03-29T15:36:58Z</time>
      </trkpt>
      <trkpt lat="50.13639" lon="4.08339">
        <ele>235</ele>
        <time>2024-03-29T15:36:59Z</time>
      </trkpt>
      <trkpt lat="50.13638" lon="4.08333">
        <ele>235</ele>
        <time>2024-03-29T15:37:00Z</time>
      </trkpt>
      <trkpt lat="50.13637" lon="4.08328">
        <ele>235.2</ele>
        <time>2024-03-29T15:37:01Z</time>
      </trkpt>
      <trkpt lat="50.13637" lon="4.08322">
        <ele>235.2</ele>
        <time>2024-03-29T15:37:02Z</time>
      </trkpt>
      <trkpt lat="50.13636" lon="4.08317">
        <ele>235.2</ele>
        <time>2024-03-29T15:37:03Z</time>
      </trkpt>
      <trkpt lat="50.13636" lon="4.08312">
        <ele>235.4</ele>
        <time>2024-03-29T15:37:04Z</time>
      </trkpt>
      <trkpt lat="50.13636" lon="4.08308">
        <ele>235.4</ele>
        <time>2024-03-29T15:37:05Z</time>
      </trkpt>
      <trkpt lat="50.13636" lon="4.08304">
        <ele>235.8</ele>
        <time>2024-03-29T15:37:06Z</time>
      </trkpt>
      <trkpt lat="50.13636" lon="4.083">
        <ele>235.6</ele>
        <time>2024-03-29T15:37:07Z</time>
      </trkpt>
      <trkpt lat="50.13636" lon="4.08297">
        <ele>235.6</ele>
        <time>2024-03-29T15:37:08Z</time>
      </trkpt>
      <trkpt lat="50.13636" lon="4.08294">
        <ele>235.8</ele>
        <time>2024-03-29T15:37:09Z</time>
      </trkpt>
      <trkpt lat="50.13635" lon="4.0829">
        <ele>235.8</ele>
        <time>2024-03-29T15:37:10Z</time>
      </trkpt>
      <trkpt lat="50.13633" lon="4.08288">
        <ele>236</ele>
        <time>2024-03-29T15:37:11Z</time>
      </trkpt>
      <trkpt lat="50.1363" lon="4.08286">
        <ele>236.4</ele>
        <time>2024-03-29T15:37:12Z</time>
      </trkpt>
      <trkpt lat="50.13626" lon="4.08286">
        <ele>236.6</ele>
        <time>2024-03-29T15:37:13Z</time>
      </trkpt>
      <trkpt lat="50.13622" lon="4.08286">
        <ele>236.6</ele>
        <time>2024-03-29T15:37:14Z</time>
      </trkpt>
      <trkpt lat="50.13617" lon="4.08287">
        <ele>236.6</ele>
        <time>2024-03-29T15:37:15Z</time>
      </trkpt>
      <trkpt lat="50.13612" lon="4.08288">
        <ele>236.6</ele>
        <time>2024-03-29T15:37:16Z</time>
      </trkpt>
      <trkpt lat="50.13606" lon="4.08289">
        <ele>236.6</ele>
        <time>2024-03-29T15:37:17Z</time>
      </trkpt>
      <trkpt lat="50.13601" lon="4.0829">
        <ele>236.6</ele>
        <time>2024-03-29T15:37:18Z</time>
      </trkpt>
      <trkpt lat="50.13595" lon="4.08291">
        <ele>236.6</ele>
        <time>2024-03-29T15:37:19Z</time>
      </trkpt>
      <trkpt lat="50.13589" lon="4.08292">
        <ele>236.8</ele>
        <time>2024-03-29T15:37:20Z</time>
      </trkpt>
      <trkpt lat="50.13582" lon="4.08293">
        <ele>236.8</ele>
        <time>2024-03-29T15:37:21Z</time>
      </trkpt>
      <trkpt lat="50.13576" lon="4.08294">
        <ele>236.8</ele>
        <time>2024-03-29T15:37:22Z</time>
      </trkpt>
      <trkpt lat="50.1357" lon="4.08296">
        <ele>236.6</ele>
        <time>2024-03-29T15:37:23Z</time>
      </trkpt>
      <trkpt lat="50.13563" lon="4.08297">
        <ele>236.6</ele>
        <time>2024-03-29T15:37:24Z</time>
      </trkpt>
      <trkpt lat="50.13556" lon="4.083">
        <ele>236.6</ele>
        <time>2024-03-29T15:37:25Z</time>
      </trkpt>
      <trkpt lat="50.13549" lon="4.08302">
        <ele>236.4</ele>
        <time>2024-03-29T15:37:26Z</time>
      </trkpt>
      <trkpt lat="50.13542" lon="4.08304">
        <ele>236.2</ele>
        <time>2024-03-29T15:37:27Z</time>
      </trkpt>
      <trkpt lat="50.13535" lon="4.08306">
        <ele>236.2</ele>
        <time>2024-03-29T15:37:28Z</time>
      </trkpt>
      <trkpt lat="50.13528" lon="4.08308">
        <ele>236</ele>
        <time>2024-03-29T15:37:29Z</time>
      </trkpt>
      <trkpt lat="50.1352" lon="4.08311">
        <ele>236</ele>
        <time>2024-03-29T15:37:30Z</time>
      </trkpt>
      <trkpt lat="50.13513" lon="4.08313">
        <ele>235.4</ele>
        <time>2024-03-29T15:37:31Z</time>
      </trkpt>
      <trkpt lat="50.13505" lon="4.08316">
        <ele>234.8</ele>
        <time>2024-03-29T15:37:32Z</time>
      </trkpt>
      <trkpt lat="50.13498" lon="4.08319">
        <ele>234</ele>
        <time>2024-03-29T15:37:33Z</time>
      </trkpt>
      <trkpt lat="50.1349" lon="4.08321">
        <ele>233.8</ele>
        <time>2024-03-29T15:37:34Z</time>
      </trkpt>
      <trkpt lat="50.13482" lon="4.08324">
        <ele>233.2</ele>
        <time>2024-03-29T15:37:35Z</time>
      </trkpt>
      <trkpt lat="50.13475" lon="4.08327">
        <ele>232.8</ele>
        <time>2024-03-29T15:37:36Z</time>
      </trkpt>
      <trkpt lat="50.13467" lon="4.08329">
        <ele>232.8</ele>
        <time>2024-03-29T15:37:37Z</time>
      </trkpt>
      <trkpt lat="50.13459" lon="4.0833">
        <ele>232.4</ele>
        <time>2024-03-29T15:37:38Z</time>
      </trkpt>
      <trkpt lat="50.13452" lon="4.08333">
        <ele>231.6</ele>
        <time>2024-03-29T15:37:39Z</time>
      </trkpt>
      <trkpt lat="50.13444" lon="4.08335">
        <ele>231.4</ele>
        <time>2024-03-29T15:37:40Z</time>
      </trkpt>
      <trkpt lat="50.13437" lon="4.08337">
        <ele>231</ele>
        <time>2024-03-29T15:37:41Z</time>
      </trkpt>
      <trkpt lat="50.13429" lon="4.0834">
        <ele>230.8</ele>
        <time>2024-03-29T15:37:42Z</time>
      </trkpt>
      <trkpt lat="50.13422" lon="4.08342">
        <ele>230.4</ele>
        <time>2024-03-29T15:37:43Z</time>
      </trkpt>
      <trkpt lat="50.13415" lon="4.08345">
        <ele>230.2</ele>
        <time>2024-03-29T15:37:44Z</time>
      </trkpt>
      <trkpt lat="50.13407" lon="4.08347">
        <ele>230</ele>
        <time>2024-03-29T15:37:45Z</time>
      </trkpt>
      <trkpt lat="50.134" lon="4.0835">
        <ele>229.8</ele>
        <time>2024-03-29T15:37:46Z</time>
      </trkpt>
      <trkpt lat="50.13393" lon="4.08352">
        <ele>229.8</ele>
        <time>2024-03-29T15:37:47Z</time>
      </trkpt>
      <trkpt lat="50.13386" lon="4.08355">
        <ele>229.8</ele>
        <time>2024-03-29T15:37:48Z</time>
      </trkpt>
      <trkpt lat="50.13379" lon="4.08357">
        <ele>229.6</ele>
        <time>2024-03-29T15:37:49Z</time>
      </trkpt>
      <trkpt lat="50.13373" lon="4.08359">
        <ele>229.6</ele>
        <time>2024-03-29T15:37:50Z</time>
      </trkpt>
      <trkpt lat="50.13366" lon="4.0836">
        <ele>229.6</ele>
        <time>2024-03-29T15:37:51Z</time>
      </trkpt>
      <trkpt lat="50.1336" lon="4.08361">
        <ele>229.2</ele>
        <time>2024-03-29T15:37:52Z</time>
      </trkpt>
      <trkpt lat="50.13353" lon="4.08361">
        <ele>229.2</ele>
        <time>2024-03-29T15:37:53Z</time>
      </trkpt>
      <trkpt lat="50.13347" lon="4.08361">
        <ele>229.2</ele>
        <time>2024-03-29T15:37:54Z</time>
      </trkpt>
      <trkpt lat="50.1334" lon="4.08361">
        <ele>229.2</ele>
        <time>2024-03-29T15:37:55Z</time>
      </trkpt>
      <trkpt lat="50.13333" lon="4.08361">
        <ele>229.2</ele>
        <time>2024-03-29T15:37:56Z</time>
      </trkpt>
      <trkpt lat="50.13326" lon="4.0836">
        <ele>229.2</ele>
        <time>2024-03-29T15:37:57Z</time>
      </trkpt>
      <trkpt lat="50.13319" lon="4.08359">
        <ele>229.4</ele>
        <time>2024-03-29T15:37:58Z</time>
      </trkpt>
      <trkpt lat="50.13312" lon="4.08357">
        <ele>229.4</ele>
        <time>2024-03-29T15:37:59Z</time>
      </trkpt>
      <trkpt lat="50.13305" lon="4.08356">
        <ele>229.4</ele>
        <time>2024-03-29T15:38:00Z</time>
      </trkpt>
      <trkpt lat="50.13298" lon="4.08354">
        <ele>229.4</ele>
        <time>2024-03-29T15:38:01Z</time>
      </trkpt>
      <trkpt lat="50.13291" lon="4.08352">
        <ele>229.6</ele>
        <time>2024-03-29T15:38:02Z</time>
      </trkpt>
      <trkpt lat="50.13283" lon="4.0835">
        <ele>229.6</ele>
        <time>2024-03-29T15:38:03Z</time>
      </trkpt>
      <trkpt lat="50.13276" lon="4.08348">
        <ele>229.6</ele>
        <time>2024-03-29T15:38:04Z</time>
      </trkpt>
      <trkpt lat="50.13269" lon="4.08345">
        <ele>229.8</ele>
        <time>2024-03-29T15:38:05Z</time>
      </trkpt>
      <trkpt lat="50.13261" lon="4.08343">
        <ele>229.8</ele>
        <time>2024-03-29T15:38:06Z</time>
      </trkpt>
      <trkpt lat="50.13254" lon="4.08341">
        <ele>229.8</ele>
        <time>2024-03-29T15:38:07Z</time>
      </trkpt>
      <trkpt lat="50.13246" lon="4.08339">
        <ele>229.8</ele>
        <time>2024-03-29T15:38:08Z</time>
      </trkpt>
      <trkpt lat="50.13239" lon="4.08337">
        <ele>229.8</ele>
        <time>2024-03-29T15:38:09Z</time>
      </trkpt>
      <trkpt lat="50.13231" lon="4.08335">
        <ele>229.8</ele>
        <time>2024-03-29T15:38:10Z</time>
      </trkpt>
      <trkpt lat="50.13223" lon="4.08333">
        <ele>230</ele>
        <time>2024-03-29T15:38:11Z</time>
      </trkpt>
      <trkpt lat="50.13215" lon="4.08331">
        <ele>229.8</ele>
        <time>2024-03-29T15:38:12Z</time>
      </trkpt>
      <trkpt lat="50.13207" lon="4.08329">
        <ele>229.8</ele>
        <time>2024-03-29T15:38:13Z</time>
      </trkpt>
      <trkpt lat="50.13199" lon="4.08327">
        <ele>229.6</ele>
        <time>2024-03-29T15:38:14Z</time>
      </trkpt>
      <trkpt lat="50.13191" lon="4.08324">
        <ele>229.4</ele>
        <time>2024-03-29T15:38:15Z</time>
      </trkpt>
      <trkpt lat="50.13182" lon="4.08322">
        <ele>228.6</ele>
        <time>2024-03-29T15:38:16Z</time>
      </trkpt>
      <trkpt lat="50.13173" lon="4.0832">
        <ele>228.6</ele>
        <time>2024-03-29T15:38:17Z</time>
      </trkpt>
      <trkpt lat="50.13164" lon="4.08318">
        <ele>227.4</ele>
        <time>2024-03-29T15:38:18Z</time>
      </trkpt>
      <trkpt lat="50.13155" lon="4.08317">
        <ele>226.6</ele>
        <time>2024-03-29T15:38:19Z</time>
      </trkpt>
      <trkpt lat="50.13145" lon="4.08317">
        <ele>226.4</ele>
        <time>2024-03-29T15:38:20Z</time>
      </trkpt>
      <trkpt lat="50.13136" lon="4.08318">
        <ele>226.2</ele>
        <time>2024-03-29T15:38:21Z</time>
      </trkpt>
      <trkpt lat="50.13126" lon="4.0832">
        <ele>226.2</ele>
        <time>2024-03-29T15:38:22Z</time>
      </trkpt>
      <trkpt lat="50.13116" lon="4.08324">
        <ele>226</ele>
        <time>2024-03-29T15:38:23Z</time>
      </trkpt>
      <trkpt lat="50.13107" lon="4.0833">
        <ele>225.6</ele>
        <time>2024-03-29T15:38:24Z</time>
      </trkpt>
      <trkpt lat="50.13097" lon="4.08336">
        <ele>225.6</ele>
        <time>2024-03-29T15:38:25Z</time>
      </trkpt>
      <trkpt lat="50.13088" lon="4.08343">
        <ele>225</ele>
        <time>2024-03-29T15:38:26Z</time>
      </trkpt>
      <trkpt lat="50.13078" lon="4.08351">
        <ele>224.4</ele>
        <time>2024-03-29T15:38:27Z</time>
      </trkpt>
      <trkpt lat="50.13069" lon="4.08359">
        <ele>223.4</ele>
        <time>2024-03-29T15:38:28Z</time>
      </trkpt>
      <trkpt lat="50.1306" lon="4.08367">
        <ele>222.8</ele>
        <time>2024-03-29T15:38:29Z</time>
      </trkpt>
      <trkpt lat="50.13051" lon="4.08375">
        <ele>222.2</ele>
        <time>2024-03-29T15:38:30Z</time>
      </trkpt>
      <trkpt lat="50.13042" lon="4.08383">
        <ele>221.4</ele>
        <time>2024-03-29T15:38:31Z</time>
      </trkpt>
      <trkpt lat="50.13033" lon="4.08392">
        <ele>220.4</ele>
        <time>2024-03-29T15:38:32Z</time>
      </trkpt>
      <trkpt lat="50.13024" lon="4.084">
        <ele>219.6</ele>
        <time>2024-03-29T15:38:33Z</time>
      </trkpt>
      <trkpt lat="50.13015" lon="4.08408">
        <ele>219</ele>
        <time>2024-03-29T15:38:34Z</time>
      </trkpt>
      <trkpt lat="50.13005" lon="4.08415">
        <ele>218</ele>
        <time>2024-03-29T15:38:35Z</time>
      </trkpt>
      <trkpt lat="50.12995" lon="4.0842">
        <ele>217.2</ele>
        <time>2024-03-29T15:38:36Z</time>
      </trkpt>
      <trkpt lat="50.12982" lon="4.0842">
        <ele>216.2</ele>
        <time>2024-03-29T15:38:37Z</time>
      </trkpt>
      <trkpt lat="50.1297" lon="4.08417">
        <ele>215.2</ele>
        <time>2024-03-29T15:38:38Z</time>
      </trkpt>
      <trkpt lat="50.1296" lon="4.08414">
        <ele>214.6</ele>
        <time>2024-03-29T15:38:39Z</time>
      </trkpt>
      <trkpt lat="50.1295" lon="4.08408">
        <ele>213.4</ele>
        <time>2024-03-29T15:38:40Z</time>
      </trkpt>
      <trkpt lat="50.12939" lon="4.08399">
        <ele>212.8</ele>
        <time>2024-03-29T15:38:41Z</time>
      </trkpt>
      <trkpt lat="50.12929" lon="4.08389">
        <ele>212</ele>
        <time>2024-03-29T15:38:42Z</time>
      </trkpt>
      <trkpt lat="50.12919" lon="4.08379">
        <ele>211</ele>
        <time>2024-03-29T15:38:43Z</time>
      </trkpt>
      <trkpt lat="50.1291" lon="4.08369">
        <ele>211</ele>
        <time>2024-03-29T15:38:44Z</time>
      </trkpt>
      <trkpt lat="50.129" lon="4.08359">
        <ele>210.2</ele>
        <time>2024-03-29T15:38:45Z</time>
      </trkpt>
      <trkpt lat="50.1289" lon="4.08348">
        <ele>208.8</ele>
        <time>2024-03-29T15:38:46Z</time>
      </trkpt>
      <trkpt lat="50.1288" lon="4.08337">
        <ele>207.8</ele>
        <time>2024-03-29T15:38:47Z</time>
      </trkpt>
      <trkpt lat="50.1287" lon="4.08327">
        <ele>206.8</ele>
        <time>2024-03-29T15:38:48Z</time>
      </trkpt>
      <trkpt lat="50.1286" lon="4.08318">
        <ele>206</ele>
        <time>2024-03-29T15:38:49Z</time>
      </trkpt>
      <trkpt lat="50.12849" lon="4.08309">
        <ele>205.6</ele>
        <time>2024-03-29T15:38:50Z</time>
      </trkpt>
      <trkpt lat="50.12838" lon="4.08301">
        <ele>205.2</ele>
        <time>2024-03-29T15:38:51Z</time>
      </trkpt>
      <trkpt lat="50.12826" lon="4.08295">
        <ele>204.4</ele>
        <time>2024-03-29T15:38:52Z</time>
      </trkpt>
      <trkpt lat="50.12814" lon="4.08289">
        <ele>203.8</ele>
        <time>2024-03-29T15:38:53Z</time>
      </trkpt>
      <trkpt lat="50.12802" lon="4.08284">
        <ele>202.8</ele>
        <time>2024-03-29T15:38:54Z</time>
      </trkpt>
      <trkpt lat="50.1279" lon="4.08281">
        <ele>202.2</ele>
        <time>2024-03-29T15:38:55Z</time>
      </trkpt>
      <trkpt lat="50.12778" lon="4.08279">
        <ele>201.8</ele>
        <time>2024-03-29T15:38:56Z</time>
      </trkpt>
      <trkpt lat="50.12765" lon="4.08279">
        <ele>201.2</ele>
        <time>2024-03-29T15:38:57Z</time>
      </trkpt>
      <trkpt lat="50.12753" lon="4.08279">
        <ele>200.2</ele>
        <time>2024-03-29T15:38:58Z</time>
      </trkpt>
      <trkpt lat="50.1274" lon="4.08279">
        <ele>199</ele>
        <time>2024-03-29T15:38:59Z</time>
      </trkpt>
      <trkpt lat="50.12728" lon="4.08279">
        <ele>197.8</ele>
        <time>2024-03-29T15:39:00Z</time>
      </trkpt>
      <trkpt lat="50.12715" lon="4.08279">
        <ele>196.4</ele>
        <time>2024-03-29T15:39:01Z</time>
      </trkpt>
      <trkpt lat="50.12702" lon="4.0828">
        <ele>194.8</ele>
        <time>2024-03-29T15:39:02Z</time>
      </trkpt>
      <trkpt lat="50.12689" lon="4.0828">
        <ele>193.8</ele>
        <time>2024-03-29T15:39:03Z</time>
      </trkpt>
      <trkpt lat="50.12677" lon="4.0828">
        <ele>193.2</ele>
        <time>2024-03-29T15:39:04Z</time>
      </trkpt>
      <trkpt lat="50.12664" lon="4.08281">
        <ele>191.8</ele>
        <time>2024-03-29T15:39:05Z</time>
      </trkpt>
      <trkpt lat="50.12651" lon="4.08281">
        <ele>191.8</ele>
        <time>2024-03-29T15:39:06Z</time>
      </trkpt>
      <trkpt lat="50.12638" lon="4.08281">
        <ele>190.8</ele>
        <time>2024-03-29T15:39:07Z</time>
      </trkpt>
      <trkpt lat="50.12626" lon="4.08281">
        <ele>190.2</ele>
        <time>2024-03-29T15:39:08Z</time>
      </trkpt>
      <trkpt lat="50.12613" lon="4.08282">
        <ele>189.2</ele>
        <time>2024-03-29T15:39:09Z</time>
      </trkpt>
      <trkpt lat="50.126" lon="4.08282">
        <ele>188.4</ele>
        <time>2024-03-29T15:39:10Z</time>
      </trkpt>
      <trkpt lat="50.12588" lon="4.08282">
        <ele>187.6</ele>
        <time>2024-03-29T15:39:11Z</time>
      </trkpt>
      <trkpt lat="50.12576" lon="4.0828">
        <ele>187</ele>
        <time>2024-03-29T15:39:12Z</time>
      </trkpt>
      <trkpt lat="50.12565" lon="4.08277">
        <ele>186.8</ele>
        <time>2024-03-29T15:39:13Z</time>
      </trkpt>
      <trkpt lat="50.12554" lon="4.08272">
        <ele>186.2</ele>
        <time>2024-03-29T15:39:14Z</time>
      </trkpt>
      <trkpt lat="50.12543" lon="4.08266">
        <ele>185</ele>
        <time>2024-03-29T15:39:15Z</time>
      </trkpt>
      <trkpt lat="50.12534" lon="4.08259">
        <ele>184</ele>
        <time>2024-03-29T15:39:16Z</time>
      </trkpt>
      <trkpt lat="50.12525" lon="4.08251">
        <ele>183.4</ele>
        <time>2024-03-29T15:39:17Z</time>
      </trkpt>
      <trkpt lat="50.12517" lon="4.08242">
        <ele>183</ele>
        <time>2024-03-29T15:39:18Z</time>
      </trkpt>
      <trkpt lat="50.1251" lon="4.08233">
        <ele>182.8</ele>
        <time>2024-03-29T15:39:19Z</time>
      </trkpt>
      <trkpt lat="50.12503" lon="4.08223">
        <ele>182.8</ele>
        <time>2024-03-29T15:39:20Z</time>
      </trkpt>
      <trkpt lat="50.12497" lon="4.08213">
        <ele>182.8</ele>
        <time>2024-03-29T15:39:21Z</time>
      </trkpt>
      <trkpt lat="50.12492" lon="4.08202">
        <ele>182.8</ele>
        <time>2024-03-29T15:39:22Z</time>
      </trkpt>
      <trkpt lat="50.12486" lon="4.08192">
        <ele>182.6</ele>
        <time>2024-03-29T15:39:23Z</time>
      </trkpt>
      <trkpt lat="50.12481" lon="4.08182">
        <ele>182.6</ele>
        <time>2024-03-29T15:39:24Z</time>
      </trkpt>
      <trkpt lat="50.12476" lon="4.08172">
        <ele>182.6</ele>
        <time>2024-03-29T15:39:25Z</time>
      </trkpt>
      <trkpt lat="50.12472" lon="4.08163">
        <ele>182.6</ele>
        <time>2024-03-29T15:39:26Z</time>
      </trkpt>
      <trkpt lat="50.12467" lon="4.08154">
        <ele>183.4</ele>
        <time>2024-03-29T15:39:27Z</time>
      </trkpt>
      <trkpt lat="50.12463" lon="4.08146">
        <ele>183.8</ele>
        <time>2024-03-29T15:39:28Z</time>
      </trkpt>
      <trkpt lat="50.12459" lon="4.08138">
        <ele>183.8</ele>
        <time>2024-03-29T15:39:29Z</time>
      </trkpt>
      <trkpt lat="50.12455" lon="4.0813">
        <ele>184.6</ele>
        <time>2024-03-29T15:39:30Z</time>
      </trkpt>
      <trkpt lat="50.12451" lon="4.08123">
        <ele>185.4</ele>
        <time>2024-03-29T15:39:31Z</time>
      </trkpt>
      <trkpt lat="50.12448" lon="4.08116">
        <ele>185.8</ele>
        <time>2024-03-29T15:39:32Z</time>
      </trkpt>
      <trkpt lat="50.12445" lon="4.08109">
        <ele>186.2</ele>
        <time>2024-03-29T15:39:33Z</time>
      </trkpt>
      <trkpt lat="50.12441" lon="4.08103">
        <ele>186.4</ele>
        <time>2024-03-29T15:39:34Z</time>
      </trkpt>
      <trkpt lat="50.12438" lon="4.08096">
        <ele>186.6</ele>
        <time>2024-03-29T15:39:35Z</time>
      </trkpt>
      <trkpt lat="50.12435" lon="4.0809">
        <ele>187</ele>
        <time>2024-03-29T15:39:36Z</time>
      </trkpt>
      <trkpt lat="50.12432" lon="4.08083">
        <ele>187.2</ele>
        <time>2024-03-29T15:39:37Z</time>
      </trkpt>
      <trkpt lat="50.12429" lon="4.08077">
        <ele>187.2</ele>
        <time>2024-03-29T15:39:38Z</time>
      </trkpt>
      <trkpt lat="50.12426" lon="4.0807">
        <ele>187.4</ele>
        <time>2024-03-29T15:39:39Z</time>
      </trkpt>
      <trkpt lat="50.12423" lon="4.08064">
        <ele>187.6</ele>
        <time>2024-03-29T15:39:40Z</time>
      </trkpt>
      <trkpt lat="50.1242" lon="4.08057">
        <ele>188</ele>
        <time>2024-03-29T15:39:41Z</time>
      </trkpt>
      <trkpt lat="50.12417" lon="4.08051">
        <ele>188.4</ele>
        <time>2024-03-29T15:39:42Z</time>
      </trkpt>
      <trkpt lat="50.12414" lon="4.08044">
        <ele>188.4</ele>
        <time>2024-03-29T15:39:43Z</time>
      </trkpt>
      <trkpt lat="50.12413" lon="4.08037">
        <ele>188.6</ele>
        <time>2024-03-29T15:39:44Z</time>
      </trkpt>
      <trkpt lat="50.12412" lon="4.08029">
        <ele>188.6</ele>
        <time>2024-03-29T15:39:45Z</time>
      </trkpt>
      <trkpt lat="50.12411" lon="4.08021">
        <ele>188.8</ele>
        <time>2024-03-29T15:39:46Z</time>
      </trkpt>
      <trkpt lat="50.12409" lon="4.08013">
        <ele>189</ele>
        <time>2024-03-29T15:39:47Z</time>
      </trkpt>
      <trkpt lat="50.12407" lon="4.08006">
        <ele>189</ele>
        <time>2024-03-29T15:39:48Z</time>
      </trkpt>
      <trkpt lat="50.12402" lon="4.08001">
        <ele>188.8</ele>
        <time>2024-03-29T15:39:49Z</time>
      </trkpt>
      <trkpt lat="50.12398" lon="4.07998">
        <ele>188.8</ele>
        <time>2024-03-29T15:39:50Z</time>
      </trkpt>
      <trkpt lat="50.12393" lon="4.07997">
        <ele>188.8</ele>
        <time>2024-03-29T15:39:51Z</time>
      </trkpt>
      <trkpt lat="50.12388" lon="4.07998">
        <ele>189</ele>
        <time>2024-03-29T15:39:52Z</time>
      </trkpt>
      <trkpt lat="50.12383" lon="4.08002">
        <ele>188.8</ele>
        <time>2024-03-29T15:39:53Z</time>
      </trkpt>
      <trkpt lat="50.1238" lon="4.08008">
        <ele>188.8</ele>
        <time>2024-03-29T15:39:54Z</time>
      </trkpt>
      <trkpt lat="50.12378" lon="4.08016">
        <ele>188.8</ele>
        <time>2024-03-29T15:39:55Z</time>
      </trkpt>
      <trkpt lat="50.12377" lon="4.08025">
        <ele>188.8</ele>
        <time>2024-03-29T15:39:56Z</time>
      </trkpt>
      <trkpt lat="50.12377" lon="4.08034">
        <ele>188.8</ele>
        <time>2024-03-29T15:39:57Z</time>
      </trkpt>
      <trkpt lat="50.12376" lon="4.08044">
        <ele>188.8</ele>
        <time>2024-03-29T15:39:58Z</time>
      </trkpt>
      <trkpt lat="50.12374" lon="4.08054">
        <ele>188.8</ele>
        <time>2024-03-29T15:39:59Z</time>
      </trkpt>
      <trkpt lat="50.12371" lon="4.08063">
        <ele>188.8</ele>
        <time>2024-03-29T15:40:00Z</time>
      </trkpt>
      <trkpt lat="50.12367" lon="4.08072">
        <ele>188.8</ele>
        <time>2024-03-29T15:40:01Z</time>
      </trkpt>
      <trkpt lat="50.12363" lon="4.08081">
        <ele>188.8</ele>
        <time>2024-03-29T15:40:02Z</time>
      </trkpt>
      <trkpt lat="50.12359" lon="4.0809">
        <ele>188.8</ele>
        <time>2024-03-29T15:40:03Z</time>
      </trkpt>
      <trkpt lat="50.12355" lon="4.08099">
        <ele>188.8</ele>
        <time>2024-03-29T15:40:04Z</time>
      </trkpt>
      <trkpt lat="50.12351" lon="4.08108">
        <ele>188.6</ele>
        <time>2024-03-29T15:40:05Z</time>
      </trkpt>
      <trkpt lat="50.12347" lon="4.08117">
        <ele>188.6</ele>
        <time>2024-03-29T15:40:06Z</time>
      </trkpt>
      <trkpt lat="50.12343" lon="4.08126">
        <ele>188.6</ele>
        <time>2024-03-29T15:40:07Z</time>
      </trkpt>
      <trkpt lat="50.12338" lon="4.08135">
        <ele>188.4</ele>
        <time>2024-03-29T15:40:08Z</time>
      </trkpt>
      <trkpt lat="50.12334" lon="4.08144">
        <ele>188.4</ele>
        <time>2024-03-29T15:40:09Z</time>
      </trkpt>
      <trkpt lat="50.1233" lon="4.08154">
        <ele>188.4</ele>
        <time>2024-03-29T15:40:10Z</time>
      </trkpt>
      <trkpt lat="50.12326" lon="4.08163">
        <ele>188.6</ele>
        <time>2024-03-29T15:40:11Z</time>
      </trkpt>
      <trkpt lat="50.12321" lon="4.08173">
        <ele>188.4</ele>
        <time>2024-03-29T15:40:12Z</time>
      </trkpt>
      <trkpt lat="50.12317" lon="4.08182">
        <ele>188.4</ele>
        <time>2024-03-29T15:40:13Z</time>
      </trkpt>
      <trkpt lat="50.12313" lon="4.08192">
        <ele>188.2</ele>
        <time>2024-03-29T15:40:14Z</time>
      </trkpt>
      <trkpt lat="50.12308" lon="4.08202">
        <ele>188.2</ele>
        <time>2024-03-29T15:40:15Z</time>
      </trkpt>
      <trkpt lat="50.12304" lon="4.08211">
        <ele>188.2</ele>
        <time>2024-03-29T15:40:16Z</time>
      </trkpt>
      <trkpt lat="50.12299" lon="4.08221">
        <ele>188</ele>
        <time>2024-03-29T15:40:17Z</time>
      </trkpt>
      <trkpt lat="50.12295" lon="4.08231">
        <ele>188.2</ele>
        <time>2024-03-29T15:40:18Z</time>
      </trkpt>
      <trkpt lat="50.12291" lon="4.08241">
        <ele>188</ele>
        <time>2024-03-29T15:40:19Z</time>
      </trkpt>
      <trkpt lat="50.12286" lon="4.08251">
        <ele>187.8</ele>
        <time>2024-03-29T15:40:20Z</time>
      </trkpt>
      <trkpt lat="50.12281" lon="4.08261">
        <ele>187.6</ele>
        <time>2024-03-29T15:40:21Z</time>
      </trkpt>
      <trkpt lat="50.12277" lon="4.08271">
        <ele>187.6</ele>
        <time>2024-03-29T15:40:22Z</time>
      </trkpt>
      <trkpt lat="50.12272" lon="4.08282">
        <ele>187.2</ele>
        <time>2024-03-29T15:40:23Z</time>
      </trkpt>
      <trkpt lat="50.12267" lon="4.08292">
        <ele>187</ele>
        <time>2024-03-29T15:40:24Z</time>
      </trkpt>
      <trkpt lat="50.12262" lon="4.08303">
        <ele>186.8</ele>
        <time>2024-03-29T15:40:25Z</time>
      </trkpt>
      <trkpt lat="50.12257" lon="4.08314">
        <ele>186.4</ele>
        <time>2024-03-29T15:40:26Z</time>
      </trkpt>
      <trkpt lat="50.12252" lon="4.08324">
        <ele>186.2</ele>
        <time>2024-03-29T15:40:27Z</time>
      </trkpt>
      <trkpt lat="50.12247" lon="4.08336">
        <ele>185.8</ele>
        <time>2024-03-29T15:40:28Z</time>
      </trkpt>
      <trkpt lat="50.12242" lon="4.08347">
        <ele>185.4</ele>
        <time>2024-03-29T15:40:29Z</time>
      </trkpt>
      <trkpt lat="50.12237" lon="4.08358">
        <ele>185</ele>
        <time>2024-03-29T15:40:30Z</time>
      </trkpt>
      <trkpt lat="50.12232" lon="4.0837">
        <ele>184.6</ele>
        <time>2024-03-29T15:40:31Z</time>
      </trkpt>
      <trkpt lat="50.12228" lon="4.08382">
        <ele>183.6</ele>
        <time>2024-03-29T15:40:32Z</time>
      </trkpt>
      <trkpt lat="50.12223" lon="4.08394">
        <ele>183.4</ele>
        <time>2024-03-29T15:40:33Z</time>
      </trkpt>
      <trkpt lat="50.1222" lon="4.08407">
        <ele>182.8</ele>
        <time>2024-03-29T15:40:34Z</time>
      </trkpt>
      <trkpt lat="50.12217" lon="4.0842">
        <ele>182.6</ele>
        <time>2024-03-29T15:40:35Z</time>
      </trkpt>
      <trkpt lat="50.12214" lon="4.08434">
        <ele>182.6</ele>
        <time>2024-03-29T15:40:36Z</time>
      </trkpt>
      <trkpt lat="50.12212" lon="4.08447">
        <ele>182.4</ele>
        <time>2024-03-29T15:40:37Z</time>
      </trkpt>
      <trkpt lat="50.12209" lon="4.0846">
        <ele>182.2</ele>
        <time>2024-03-29T15:40:38Z</time>
      </trkpt>
      <trkpt lat="50.12207" lon="4.08474">
        <ele>182</ele>
        <time>2024-03-29T15:40:39Z</time>
      </trkpt>
      <trkpt lat="50.12204" lon="4.08487">
        <ele>181.6</ele>
        <time>2024-03-29T15:40:40Z</time>
      </trkpt>
      <trkpt lat="50.12202" lon="4.08501">
        <ele>181.2</ele>
        <time>2024-03-29T15:40:41Z</time>
      </trkpt>
      <trkpt lat="50.122" lon="4.08515">
        <ele>180.6</ele>
        <time>2024-03-29T15:40:42Z</time>
      </trkpt>
      <trkpt lat="50.12199" lon="4.08529">
        <ele>180.4</ele>
        <time>2024-03-29T15:40:43Z</time>
      </trkpt>
      <trkpt lat="50.12199" lon="4.08543">
        <ele>179.6</ele>
        <time>2024-03-29T15:40:44Z</time>
      </trkpt>
      <trkpt lat="50.12198" lon="4.08557">
        <ele>179</ele>
        <time>2024-03-29T15:40:45Z</time>
      </trkpt>
      <trkpt lat="50.12199" lon="4.0857">
        <ele>178.4</ele>
        <time>2024-03-29T15:40:46Z</time>
      </trkpt>
      <trkpt lat="50.12199" lon="4.08584">
        <ele>178</ele>
        <time>2024-03-29T15:40:47Z</time>
      </trkpt>
      <trkpt lat="50.12199" lon="4.08597">
        <ele>177.8</ele>
        <time>2024-03-29T15:40:48Z</time>
      </trkpt>
      <trkpt lat="50.122" lon="4.0861">
        <ele>177.8</ele>
        <time>2024-03-29T15:40:49Z</time>
      </trkpt>
      <trkpt lat="50.122" lon="4.08624">
        <ele>177.6</ele>
        <time>2024-03-29T15:40:50Z</time>
      </trkpt>
      <trkpt lat="50.12201" lon="4.08637">
        <ele>177.2</ele>
        <time>2024-03-29T15:40:51Z</time>
      </trkpt>
      <trkpt lat="50.12201" lon="4.0865">
        <ele>177.2</ele>
        <time>2024-03-29T15:40:52Z</time>
      </trkpt>
      <trkpt lat="50.12201" lon="4.08662">
        <ele>176.8</ele>
        <time>2024-03-29T15:40:53Z</time>
      </trkpt>
      <trkpt lat="50.12201" lon="4.08675">
        <ele>176.8</ele>
        <time>2024-03-29T15:40:54Z</time>
      </trkpt>
      <trkpt lat="50.12201" lon="4.08687">
        <ele>176.8</ele>
        <time>2024-03-29T15:40:55Z</time>
      </trkpt>
      <trkpt lat="50.122" lon="4.087">
        <ele>176.6</ele>
        <time>2024-03-29T15:40:56Z</time>
      </trkpt>
      <trkpt lat="50.122" lon="4.08712">
        <ele>176.8</ele>
        <time>2024-03-29T15:40:57Z</time>
      </trkpt>
      <trkpt lat="50.122" lon="4.08724">
        <ele>176.8</ele>
        <time>2024-03-29T15:40:58Z</time>
      </trkpt>
      <trkpt lat="50.12199" lon="4.08736">
        <ele>176.8</ele>
        <time>2024-03-29T15:40:59Z</time>
      </trkpt>
      <trkpt lat="50.12198" lon="4.08748">
        <ele>176.4</ele>
        <time>2024-03-29T15:41:00Z</time>
      </trkpt>
      <trkpt lat="50.12197" lon="4.08759">
        <ele>176.6</ele>
        <time>2024-03-29T15:41:01Z</time>
      </trkpt>
      <trkpt lat="50.12196" lon="4.08771">
        <ele>176.4</ele>
        <time>2024-03-29T15:41:02Z</time>
      </trkpt>
      <trkpt lat="50.12195" lon="4.08782">
        <ele>176.4</ele>
        <time>2024-03-29T15:41:03Z</time>
      </trkpt>
      <trkpt lat="50.12193" lon="4.08794">
        <ele>176.4</ele>
        <time>2024-03-29T15:41:04Z</time>
      </trkpt>
      <trkpt lat="50.12192" lon="4.08805">
        <ele>176.4</ele>
        <time>2024-03-29T15:41:05Z</time>
      </trkpt>
      <trkpt lat="50.1219" lon="4.08816">
        <ele>176.4</ele>
        <time>2024-03-29T15:41:06Z</time>
      </trkpt>
      <trkpt lat="50.12189" lon="4.08828">
        <ele>176.6</ele>
        <time>2024-03-29T15:41:07Z</time>
      </trkpt>
      <trkpt lat="50.12187" lon="4.08839">
        <ele>176.4</ele>
        <time>2024-03-29T15:41:08Z</time>
      </trkpt>
      <trkpt lat="50.12187" lon="4.0885">
        <ele>176.6</ele>
        <time>2024-03-29T15:41:09Z</time>
      </trkpt>
      <trkpt lat="50.12186" lon="4.08861">
        <ele>176.6</ele>
        <time>2024-03-29T15:41:10Z</time>
      </trkpt>
      <trkpt lat="50.12186" lon="4.08873">
        <ele>176.6</ele>
        <time>2024-03-29T15:41:11Z</time>
      </trkpt>
      <trkpt lat="50.12185" lon="4.08884">
        <ele>177</ele>
        <time>2024-03-29T15:41:12Z</time>
      </trkpt>
      <trkpt lat="50.12185" lon="4.08895">
        <ele>177.2</ele>
        <time>2024-03-29T15:41:13Z</time>
      </trkpt>
      <trkpt lat="50.12185" lon="4.08906">
        <ele>177.4</ele>
        <time>2024-03-29T15:41:14Z</time>
      </trkpt>
      <trkpt lat="50.12185" lon="4.08917">
        <ele>177.6</ele>
        <time>2024-03-29T15:41:15Z</time>
      </trkpt>
      <trkpt lat="50.12185" lon="4.08928">
        <ele>177.8</ele>
        <time>2024-03-29T15:41:16Z</time>
      </trkpt>
      <trkpt lat="50.12185" lon="4.08938">
        <ele>177.8</ele>
        <time>2024-03-29T15:41:17Z</time>
      </trkpt>
      <trkpt lat="50.12185" lon="4.08949">
        <ele>178</ele>
        <time>2024-03-29T15:41:18Z</time>
      </trkpt>
      <trkpt lat="50.12185" lon="4.0896">
        <ele>178</ele>
        <time>2024-03-29T15:41:19Z</time>
      </trkpt>
      <trkpt lat="50.12184" lon="4.0897">
        <ele>178</ele>
        <time>2024-03-29T15:41:20Z</time>
      </trkpt>
      <trkpt lat="50.12184" lon="4.08981">
        <ele>178.4</ele>
        <time>2024-03-29T15:41:21Z</time>
      </trkpt>
      <trkpt lat="50.12184" lon="4.08991">
        <ele>178.4</ele>
        <time>2024-03-29T15:41:22Z</time>
      </trkpt>
      <trkpt lat="50.12184" lon="4.09001">
        <ele>178.6</ele>
        <time>2024-03-29T15:41:23Z</time>
      </trkpt>
      <trkpt lat="50.12184" lon="4.09011">
        <ele>178.8</ele>
        <time>2024-03-29T15:41:24Z</time>
      </trkpt>
      <trkpt lat="50.12184" lon="4.09021">
        <ele>178.8</ele>
        <time>2024-03-29T15:41:25Z</time>
      </trkpt>
      <trkpt lat="50.12184" lon="4.09031">
        <ele>179</ele>
        <time>2024-03-29T15:41:26Z</time>
      </trkpt>
      <trkpt lat="50.12184" lon="4.09041">
        <ele>179</ele>
        <time>2024-03-29T15:41:27Z</time>
      </trkpt>
      <trkpt lat="50.12184" lon="4.09051">
        <ele>179.2</ele>
        <time>2024-03-29T15:41:28Z</time>
      </trkpt>
      <trkpt lat="50.12184" lon="4.09061">
        <ele>179.2</ele>
        <time>2024-03-29T15:41:29Z</time>
      </trkpt>
      <trkpt lat="50.12184" lon="4.09071">
        <ele>179</ele>
        <time>2024-03-29T15:41:30Z</time>
      </trkpt>
      <trkpt lat="50.12184" lon="4.09081">
        <ele>179.2</ele>
        <time>2024-03-29T15:41:31Z</time>
      </trkpt>
      <trkpt lat="50.12183" lon="4.0909">
        <ele>179.4</ele>
        <time>2024-03-29T15:41:32Z</time>
      </trkpt>
      <trkpt lat="50.12183" lon="4.091">
        <ele>179.4</ele>
        <time>2024-03-29T15:41:33Z</time>
      </trkpt>
      <trkpt lat="50.12182" lon="4.09109">
        <ele>179.6</ele>
        <time>2024-03-29T15:41:34Z</time>
      </trkpt>
      <trkpt lat="50.1218" lon="4.09118">
        <ele>179.8</ele>
        <time>2024-03-29T15:41:35Z</time>
      </trkpt>
      <trkpt lat="50.12178" lon="4.09127">
        <ele>179.8</ele>
        <time>2024-03-29T15:41:36Z</time>
      </trkpt>
      <trkpt lat="50.12176" lon="4.09135">
        <ele>180</ele>
        <time>2024-03-29T15:41:37Z</time>
      </trkpt>
      <trkpt lat="50.12174" lon="4.09143">
        <ele>180.4</ele>
        <time>2024-03-29T15:41:38Z</time>
      </trkpt>
      <trkpt lat="50.12171" lon="4.09151">
        <ele>180.4</ele>
        <time>2024-03-29T15:41:39Z</time>
      </trkpt>
      <trkpt lat="50.12168" lon="4.09158">
        <ele>180.6</ele>
        <time>2024-03-29T15:41:40Z</time>
      </trkpt>
      <trkpt lat="50.12165" lon="4.09165">
        <ele>180.6</ele>
        <time>2024-03-29T15:41:41Z</time>
      </trkpt>
      <trkpt lat="50.12161" lon="4.09172">
        <ele>180.6</ele>
        <time>2024-03-29T15:41:42Z</time>
      </trkpt>
      <trkpt lat="50.12158" lon="4.09179">
        <ele>180.8</ele>
        <time>2024-03-29T15:41:43Z</time>
      </trkpt>
      <trkpt lat="50.12154" lon="4.09186">
        <ele>181</ele>
        <time>2024-03-29T15:41:44Z</time>
      </trkpt>
      <trkpt lat="50.1215" lon="4.09193">
        <ele>181.2</ele>
        <time>2024-03-29T15:41:45Z</time>
      </trkpt>
      <trkpt lat="50.12147" lon="4.092">
        <ele>181.6</ele>
        <time>2024-03-29T15:41:46Z</time>
      </trkpt>
      <trkpt lat="50.12144" lon="4.09208">
        <ele>181.6</ele>
        <time>2024-03-29T15:41:47Z</time>
      </trkpt>
      <trkpt lat="50.1214" lon="4.09215">
        <ele>181.8</ele>
        <time>2024-03-29T15:41:48Z</time>
      </trkpt>
      <trkpt lat="50.12138" lon="4.09223">
        <ele>181.8</ele>
        <time>2024-03-29T15:41:49Z</time>
      </trkpt>
      <trkpt lat="50.12135" lon="4.09231">
        <ele>182</ele>
        <time>2024-03-29T15:41:50Z</time>
      </trkpt>
      <trkpt lat="50.12133" lon="4.09238">
        <ele>182.2</ele>
        <time>2024-03-29T15:41:51Z</time>
      </trkpt>
      <trkpt lat="50.12131" lon="4.09246">
        <ele>182</ele>
        <time>2024-03-29T15:41:52Z</time>
      </trkpt>
      <trkpt lat="50.12129" lon="4.09255">
        <ele>182.2</ele>
        <time>2024-03-29T15:41:53Z</time>
      </trkpt>
      <trkpt lat="50.12128" lon="4.09263">
        <ele>182.2</ele>
        <time>2024-03-29T15:41:54Z</time>
      </trkpt>
      <trkpt lat="50.12126" lon="4.0927">
        <ele>182.4</ele>
        <time>2024-03-29T15:41:55Z</time>
      </trkpt>
      <trkpt lat="50.12125" lon="4.09278">
        <ele>182.6</ele>
        <time>2024-03-29T15:41:56Z</time>
      </trkpt>
      <trkpt lat="50.12124" lon="4.09286">
        <ele>182.6</ele>
        <time>2024-03-29T15:41:57Z</time>
      </trkpt>
      <trkpt lat="50.12122" lon="4.09294">
        <ele>182.8</ele>
        <time>2024-03-29T15:41:58Z</time>
      </trkpt>
      <trkpt lat="50.12121" lon="4.09301">
        <ele>182.8</ele>
        <time>2024-03-29T15:41:59Z</time>
      </trkpt>
      <trkpt lat="50.1212" lon="4.09309">
        <ele>183.2</ele>
        <time>2024-03-29T15:42:00Z</time>
      </trkpt>
      <trkpt lat="50.12118" lon="4.09316">
        <ele>183.4</ele>
        <time>2024-03-29T15:42:01Z</time>
      </trkpt>
      <trkpt lat="50.12117" lon="4.09323">
        <ele>183.6</ele>
        <time>2024-03-29T15:42:02Z</time>
      </trkpt>
      <trkpt lat="50.12116" lon="4.0933">
        <ele>183.6</ele>
        <time>2024-03-29T15:42:03Z</time>
      </trkpt>
      <trkpt lat="50.12114" lon="4.09337">
        <ele>183.8</ele>
        <time>2024-03-29T15:42:04Z</time>
      </trkpt>
      <trkpt lat="50.12113" lon="4.09345">
        <ele>183.8</ele>
        <time>2024-03-29T15:42:05Z</time>
      </trkpt>
      <trkpt lat="50.12111" lon="4.09352">
        <ele>184</ele>
        <time>2024-03-29T15:42:06Z</time>
      </trkpt>
      <trkpt lat="50.1211" lon="4.09359">
        <ele>184.2</ele>
        <time>2024-03-29T15:42:07Z</time>
      </trkpt>
      <trkpt lat="50.12108" lon="4.09365">
        <ele>184.6</ele>
        <time>2024-03-29T15:42:08Z</time>
      </trkpt>
      <trkpt lat="50.12106" lon="4.09372">
        <ele>184.6</ele>
        <time>2024-03-29T15:42:09Z</time>
      </trkpt>
      <trkpt lat="50.12104" lon="4.09379">
        <ele>184.8</ele>
        <time>2024-03-29T15:42:10Z</time>
      </trkpt>
      <trkpt lat="50.12103" lon="4.09385">
        <ele>184.8</ele>
        <time>2024-03-29T15:42:11Z</time>
      </trkpt>
      <trkpt lat="50.12101" lon="4.09392">
        <ele>184.8</ele>
        <time>2024-03-29T15:42:12Z</time>
      </trkpt>
      <trkpt lat="50.12099" lon="4.09398">
        <ele>185</ele>
        <time>2024-03-29T15:42:13Z</time>
      </trkpt>
      <trkpt lat="50.12098" lon="4.09404">
        <ele>185.2</ele>
        <time>2024-03-29T15:42:14Z</time>
      </trkpt>
      <trkpt lat="50.12096" lon="4.0941">
        <ele>185.4</ele>
        <time>2024-03-29T15:42:15Z</time>
      </trkpt>
      <trkpt lat="50.12094" lon="4.09416">
        <ele>185.4</ele>
        <time>2024-03-29T15:42:16Z</time>
      </trkpt>
      <trkpt lat="50.12092" lon="4.09422">
        <ele>185.6</ele>
        <time>2024-03-29T15:42:17Z</time>
      </trkpt>
      <trkpt lat="50.12091" lon="4.09428">
        <ele>185.8</ele>
        <time>2024-03-29T15:42:18Z</time>
      </trkpt>
      <trkpt lat="50.12089" lon="4.09433">
        <ele>186</ele>
        <time>2024-03-29T15:42:19Z</time>
      </trkpt>
      <trkpt lat="50.12087" lon="4.09439">
        <ele>186</ele>
        <time>2024-03-29T15:42:20Z</time>
      </trkpt>
      <trkpt lat="50.12085" lon="4.09445">
        <ele>186.6</ele>
        <time>2024-03-29T15:42:21Z</time>
      </trkpt>
      <trkpt lat="50.12084" lon="4.09451">
        <ele>187.4</ele>
        <time>2024-03-29T15:42:22Z</time>
      </trkpt>
      <trkpt lat="50.12082" lon="4.09457">
        <ele>187.6</ele>
        <time>2024-03-29T15:42:23Z</time>
      </trkpt>
      <trkpt lat="50.12081" lon="4.09463">
        <ele>187.6</ele>
        <time>2024-03-29T15:42:24Z</time>
      </trkpt>
      <trkpt lat="50.1208" lon="4.09469">
        <ele>188</ele>
        <time>2024-03-29T15:42:25Z</time>
      </trkpt>
      <trkpt lat="50.12079" lon="4.09475">
        <ele>188</ele>
        <time>2024-03-29T15:42:26Z</time>
      </trkpt>
      <trkpt lat="50.12077" lon="4.09482">
        <ele>188</ele>
        <time>2024-03-29T15:42:27Z</time>
      </trkpt>
      <trkpt lat="50.12076" lon="4.09488">
        <ele>188</ele>
        <time>2024-03-29T15:42:28Z</time>
      </trkpt>
      <trkpt lat="50.12075" lon="4.09494">
        <ele>188.2</ele>
        <time>2024-03-29T15:42:29Z</time>
      </trkpt>
      <trkpt lat="50.12074" lon="4.09501">
        <ele>188.4</ele>
        <time>2024-03-29T15:42:30Z</time>
      </trkpt>
      <trkpt lat="50.12073" lon="4.09507">
        <ele>188.6</ele>
        <time>2024-03-29T15:42:31Z</time>
      </trkpt>
      <trkpt lat="50.12071" lon="4.09514">
        <ele>188.4</ele>
        <time>2024-03-29T15:42:32Z</time>
      </trkpt>
      <trkpt lat="50.1207" lon="4.0952">
        <ele>188.6</ele>
        <time>2024-03-29T15:42:33Z</time>
      </trkpt>
      <trkpt lat="50.12069" lon="4.09527">
        <ele>189</ele>
        <time>2024-03-29T15:42:34Z</time>
      </trkpt>
      <trkpt lat="50.12069" lon="4.09534">
        <ele>189</ele>
        <time>2024-03-29T15:42:35Z</time>
      </trkpt>
      <trkpt lat="50.12068" lon="4.09541">
        <ele>189.2</ele>
        <time>2024-03-29T15:42:36Z</time>
      </trkpt>
      <trkpt lat="50.12067" lon="4.09548">
        <ele>189.4</ele>
        <time>2024-03-29T15:42:37Z</time>
      </trkpt>
      <trkpt lat="50.12066" lon="4.09556">
        <ele>189.6</ele>
        <time>2024-03-29T15:42:38Z</time>
      </trkpt>
      <trkpt lat="50.12065" lon="4.09564">
        <ele>189.8</ele>
        <time>2024-03-29T15:42:39Z</time>
      </trkpt>
      <trkpt lat="50.12065" lon="4.09572">
        <ele>190</ele>
        <time>2024-03-29T15:42:40Z</time>
      </trkpt>
      <trkpt lat="50.12064" lon="4.0958">
        <ele>190.8</ele>
        <time>2024-03-29T15:42:41Z</time>
      </trkpt>
      <trkpt lat="50.12064" lon="4.09589">
        <ele>191</ele>
        <time>2024-03-29T15:42:42Z</time>
      </trkpt>
      <trkpt lat="50.12064" lon="4.09597">
        <ele>191</ele>
        <time>2024-03-29T15:42:43Z</time>
      </trkpt>
      <trkpt lat="50.12064" lon="4.09607">
        <ele>191</ele>
        <time>2024-03-29T15:42:44Z</time>
      </trkpt>
      <trkpt lat="50.12064" lon="4.09616">
        <ele>191</ele>
        <time>2024-03-29T15:42:45Z</time>
      </trkpt>
      <trkpt lat="50.12065" lon="4.09625">
        <ele>191</ele>
        <time>2024-03-29T15:42:46Z</time>
      </trkpt>
      <trkpt lat="50.12066" lon="4.09635">
        <ele>191</ele>
        <time>2024-03-29T15:42:47Z</time>
      </trkpt>
      <trkpt lat="50.12068" lon="4.09645">
        <ele>191</ele>
        <time>2024-03-29T15:42:48Z</time>
      </trkpt>
      <trkpt lat="50.12071" lon="4.09654">
        <ele>191</ele>
        <time>2024-03-29T15:42:49Z</time>
      </trkpt>
      <trkpt lat="50.12073" lon="4.09664">
        <ele>191</ele>
        <time>2024-03-29T15:42:50Z</time>
      </trkpt>
      <trkpt lat="50.12076" lon="4.09674">
        <ele>191</ele>
        <time>2024-03-29T15:42:51Z</time>
      </trkpt>
      <trkpt lat="50.12078" lon="4.09684">
        <ele>191</ele>
        <time>2024-03-29T15:42:52Z</time>
      </trkpt>
      <trkpt lat="50.1208" lon="4.09693">
        <ele>190.8</ele>
        <time>2024-03-29T15:42:53Z</time>
      </trkpt>
      <trkpt lat="50.12083" lon="4.09702">
        <ele>190.8</ele>
        <time>2024-03-29T15:42:54Z</time>
      </trkpt>
      <trkpt lat="50.12085" lon="4.09712">
        <ele>190.4</ele>
        <time>2024-03-29T15:42:55Z</time>
      </trkpt>
      <trkpt lat="50.12087" lon="4.09721">
        <ele>190</ele>
        <time>2024-03-29T15:42:56Z</time>
      </trkpt>
      <trkpt lat="50.12088" lon="4.0973">
        <ele>189.8</ele>
        <time>2024-03-29T15:42:57Z</time>
      </trkpt>
      <trkpt lat="50.1209" lon="4.09739">
        <ele>189.6</ele>
        <time>2024-03-29T15:42:58Z</time>
      </trkpt>
      <trkpt lat="50.12092" lon="4.09747">
        <ele>189.4</ele>
        <time>2024-03-29T15:42:59Z</time>
      </trkpt>
      <trkpt lat="50.12095" lon="4.09756">
        <ele>189.6</ele>
        <time>2024-03-29T15:43:00Z</time>
      </trkpt>
      <trkpt lat="50.12097" lon="4.09765">
        <ele>189.4</ele>
        <time>2024-03-29T15:43:01Z</time>
      </trkpt>
      <trkpt lat="50.12098" lon="4.09774">
        <ele>189.4</ele>
        <time>2024-03-29T15:43:02Z</time>
      </trkpt>
      <trkpt lat="50.121" lon="4.09784">
        <ele>189.4</ele>
        <time>2024-03-29T15:43:03Z</time>
      </trkpt>
      <trkpt lat="50.12101" lon="4.09793">
        <ele>189.6</ele>
        <time>2024-03-29T15:43:04Z</time>
      </trkpt>
      <trkpt lat="50.12102" lon="4.09803">
        <ele>189.4</ele>
        <time>2024-03-29T15:43:05Z</time>
      </trkpt>
      <trkpt lat="50.12102" lon="4.09813">
        <ele>189.6</ele>
        <time>2024-03-29T15:43:06Z</time>
      </trkpt>
      <trkpt lat="50.12103" lon="4.09824">
        <ele>189.6</ele>
        <time>2024-03-29T15:43:07Z</time>
      </trkpt>
      <trkpt lat="50.12104" lon="4.09834">
        <ele>189.6</ele>
        <time>2024-03-29T15:43:08Z</time>
      </trkpt>
      <trkpt lat="50.12105" lon="4.09845">
        <ele>189.6</ele>
        <time>2024-03-29T15:43:09Z</time>
      </trkpt>
      <trkpt lat="50.12106" lon="4.09856">
        <ele>189.6</ele>
        <time>2024-03-29T15:43:10Z</time>
      </trkpt>
      <trkpt lat="50.12108" lon="4.09868">
        <ele>189.6</ele>
        <time>2024-03-29T15:43:11Z</time>
      </trkpt>
      <trkpt lat="50.12109" lon="4.09879">
        <ele>189.4</ele>
        <time>2024-03-29T15:43:12Z</time>
      </trkpt>
      <trkpt lat="50.1211" lon="4.09892">
        <ele>189.6</ele>
        <time>2024-03-29T15:43:13Z</time>
      </trkpt>
      <trkpt lat="50.12112" lon="4.09904">
        <ele>189.6</ele>
        <time>2024-03-29T15:43:14Z</time>
      </trkpt>
      <trkpt lat="50.12113" lon="4.09917">
        <ele>189.6</ele>
        <time>2024-03-29T15:43:15Z</time>
      </trkpt>
      <trkpt lat="50.12113" lon="4.0993">
        <ele>189.4</ele>
        <time>2024-03-29T15:43:16Z</time>
      </trkpt>
      <trkpt lat="50.12114" lon="4.09944">
        <ele>189.4</ele>
        <time>2024-03-29T15:43:17Z</time>
      </trkpt>
      <trkpt lat="50.12114" lon="4.09959">
        <ele>189</ele>
        <time>2024-03-29T15:43:18Z</time>
      </trkpt>
      <trkpt lat="50.12113" lon="4.09973">
        <ele>189</ele>
        <time>2024-03-29T15:43:19Z</time>
      </trkpt>
      <trkpt lat="50.12112" lon="4.09987">
        <ele>188.8</ele>
        <time>2024-03-29T15:43:20Z</time>
      </trkpt>
      <trkpt lat="50.1211" lon="4.10002">
        <ele>188.6</ele>
        <time>2024-03-29T15:43:21Z</time>
      </trkpt>
      <trkpt lat="50.12108" lon="4.10016">
        <ele>188.6</ele>
        <time>2024-03-29T15:43:22Z</time>
      </trkpt>
      <trkpt lat="50.12106" lon="4.1003">
        <ele>188.6</ele>
        <time>2024-03-29T15:43:23Z</time>
      </trkpt>
      <trkpt lat="50.12104" lon="4.10044">
        <ele>188.2</ele>
        <time>2024-03-29T15:43:24Z</time>
      </trkpt>
      <trkpt lat="50.12101" lon="4.10058">
        <ele>187.4</ele>
        <time>2024-03-29T15:43:25Z</time>
      </trkpt>
      <trkpt lat="50.12098" lon="4.10071">
        <ele>186.6</ele>
        <time>2024-03-29T15:43:26Z</time>
      </trkpt>
      <trkpt lat="50.12095" lon="4.10084">
        <ele>186</ele>
        <time>2024-03-29T15:43:27Z</time>
      </trkpt>
      <trkpt lat="50.12093" lon="4.10096">
        <ele>185.2</ele>
        <time>2024-03-29T15:43:28Z</time>
      </trkpt>
      <trkpt lat="50.1209" lon="4.10108">
        <ele>185</ele>
        <time>2024-03-29T15:43:29Z</time>
      </trkpt>
      <trkpt lat="50.12087" lon="4.1012">
        <ele>184.8</ele>
        <time>2024-03-29T15:43:30Z</time>
      </trkpt>
      <trkpt lat="50.12085" lon="4.10131">
        <ele>184.4</ele>
        <time>2024-03-29T15:43:31Z</time>
      </trkpt>
      <trkpt lat="50.12083" lon="4.10141">
        <ele>184.6</ele>
        <time>2024-03-29T15:43:32Z</time>
      </trkpt>
      <trkpt lat="50.12081" lon="4.10148">
        <ele>184.6</ele>
        <time>2024-03-29T15:43:33Z</time>
      </trkpt>
      <trkpt lat="50.1208" lon="4.10152">
        <ele>184.4</ele>
        <time>2024-03-29T15:43:34Z</time>
      </trkpt>
      <trkpt lat="50.12079" lon="4.10153">
        <ele>184.4</ele>
        <time>2024-03-29T15:43:35Z</time>
      </trkpt>
      <trkpt lat="50.12079" lon="4.10153">
        <ele>184.4</ele>
        <time>2024-03-29T15:43:36Z</time>
      </trkpt>
      <trkpt lat="50.12079" lon="4.10154">
        <ele>187.8</ele>
        <time>2024-03-29T15:47:44Z</time>
      </trkpt>
      <trkpt lat="50.12079" lon="4.10157">
        <ele>187.8</ele>
        <time>2024-03-29T15:47:45Z</time>
      </trkpt>
      <trkpt lat="50.12078" lon="4.10161">
        <ele>187.6</ele>
        <time>2024-03-29T15:47:46Z</time>
      </trkpt>
      <trkpt lat="50.12077" lon="4.10166">
        <ele>187.6</ele>
        <time>2024-03-29T15:47:47Z</time>
      </trkpt>
      <trkpt lat="50.12077" lon="4.10171">
        <ele>187.6</ele>
        <time>2024-03-29T15:47:48Z</time>
      </trkpt>
      <trkpt lat="50.12076" lon="4.10177">
        <ele>187.6</ele>
        <time>2024-03-29T15:47:49Z</time>
      </trkpt>
      <trkpt lat="50.12075" lon="4.10184">
        <ele>187.6</ele>
        <time>2024-03-29T15:47:50Z</time>
      </trkpt>
      <trkpt lat="50.12074" lon="4.10192">
        <ele>187.4</ele>
        <time>2024-03-29T15:47:51Z</time>
      </trkpt>
      <trkpt lat="50.12073" lon="4.102">
        <ele>187.4</ele>
        <time>2024-03-29T15:47:52Z</time>
      </trkpt>
      <trkpt lat="50.12072" lon="4.10209">
        <ele>187.2</ele>
        <time>2024-03-29T15:47:53Z</time>
      </trkpt>
      <trkpt lat="50.12071" lon="4.10219">
        <ele>187.2</ele>
        <time>2024-03-29T15:47:54Z</time>
      </trkpt>
      <trkpt lat="50.12071" lon="4.10229">
        <ele>187</ele>
        <time>2024-03-29T15:47:55Z</time>
      </trkpt>
      <trkpt lat="50.12071" lon="4.1024">
        <ele>187</ele>
        <time>2024-03-29T15:47:56Z</time>
      </trkpt>
      <trkpt lat="50.12071" lon="4.1025">
        <ele>186.6</ele>
        <time>2024-03-29T15:47:57Z</time>
      </trkpt>
      <trkpt lat="50.12071" lon="4.10262">
        <ele>186.2</ele>
        <time>2024-03-29T15:47:58Z</time>
      </trkpt>
      <trkpt lat="50.12071" lon="4.10273">
        <ele>185.2</ele>
        <time>2024-03-29T15:47:59Z</time>
      </trkpt>
      <trkpt lat="50.12071" lon="4.10285">
        <ele>184.6</ele>
        <time>2024-03-29T15:48:00Z</time>
      </trkpt>
      <trkpt lat="50.1207" lon="4.10297">
        <ele>184</ele>
        <time>2024-03-29T15:48:01Z</time>
      </trkpt>
      <trkpt lat="50.1207" lon="4.10309">
        <ele>183.4</ele>
        <time>2024-03-29T15:48:02Z</time>
      </trkpt>
      <trkpt lat="50.1207" lon="4.10321">
        <ele>183</ele>
        <time>2024-03-29T15:48:03Z</time>
      </trkpt>
      <trkpt lat="50.1207" lon="4.10333">
        <ele>183</ele>
        <time>2024-03-29T15:48:04Z</time>
      </trkpt>
      <trkpt lat="50.12069" lon="4.10345">
        <ele>182.8</ele>
        <time>2024-03-29T15:48:05Z</time>
      </trkpt>
      <trkpt lat="50.12069" lon="4.10358">
        <ele>182.8</ele>
        <time>2024-03-29T15:48:06Z</time>
      </trkpt>
      <trkpt lat="50.12068" lon="4.10371">
        <ele>182.4</ele>
        <time>2024-03-29T15:48:07Z</time>
      </trkpt>
      <trkpt lat="50.12067" lon="4.10383">
        <ele>182</ele>
        <time>2024-03-29T15:48:08Z</time>
      </trkpt>
      <trkpt lat="50.12065" lon="4.10395">
        <ele>181.8</ele>
        <time>2024-03-29T15:48:09Z</time>
      </trkpt>
      <trkpt lat="50.12063" lon="4.10408">
        <ele>181.6</ele>
        <time>2024-03-29T15:48:10Z</time>
      </trkpt>
      <trkpt lat="50.12061" lon="4.10419">
        <ele>181.2</ele>
        <time>2024-03-29T15:48:11Z</time>
      </trkpt>
      <trkpt lat="50.12059" lon="4.10431">
        <ele>181</ele>
        <time>2024-03-29T15:48:12Z</time>
      </trkpt>
      <trkpt lat="50.12056" lon="4.10442">
        <ele>180.8</ele>
        <time>2024-03-29T15:48:13Z</time>
      </trkpt>
      <trkpt lat="50.12053" lon="4.10453">
        <ele>180.8</ele>
        <time>2024-03-29T15:48:14Z</time>
      </trkpt>
      <trkpt lat="50.1205" lon="4.10463">
        <ele>180.8</ele>
        <time>2024-03-29T15:48:15Z</time>
      </trkpt>
      <trkpt lat="50.12047" lon="4.10473">
        <ele>180.6</ele>
        <time>2024-03-29T15:48:16Z</time>
      </trkpt>
      <trkpt lat="50.12044" lon="4.10482">
        <ele>180.6</ele>
        <time>2024-03-29T15:48:17Z</time>
      </trkpt>
      <trkpt lat="50.12042" lon="4.10491">
        <ele>180.8</ele>
        <time>2024-03-29T15:48:18Z</time>
      </trkpt>
      <trkpt lat="50.12039" lon="4.105">
        <ele>180.6</ele>
        <time>2024-03-29T15:48:19Z</time>
      </trkpt>
      <trkpt lat="50.12037" lon="4.10508">
        <ele>180.6</ele>
        <time>2024-03-29T15:48:20Z</time>
      </trkpt>
      <trkpt lat="50.12034" lon="4.10516">
        <ele>180.6</ele>
        <time>2024-03-29T15:48:21Z</time>
      </trkpt>
      <trkpt lat="50.12032" lon="4.10524">
        <ele>180.6</ele>
        <time>2024-03-29T15:48:22Z</time>
      </trkpt>
      <trkpt lat="50.1203" lon="4.10531">
        <ele>181</ele>
        <time>2024-03-29T15:48:23Z</time>
      </trkpt>
      <trkpt lat="50.12027" lon="4.10538">
        <ele>181.2</ele>
        <time>2024-03-29T15:48:24Z</time>
      </trkpt>
      <trkpt lat="50.12025" lon="4.10545">
        <ele>181.4</ele>
        <time>2024-03-29T15:48:25Z</time>
      </trkpt>
      <trkpt lat="50.12023" lon="4.10552">
        <ele>181.4</ele>
        <time>2024-03-29T15:48:26Z</time>
      </trkpt>
      <trkpt lat="50.12021" lon="4.10559">
        <ele>182</ele>
        <time>2024-03-29T15:48:27Z</time>
      </trkpt>
      <trkpt lat="50.12019" lon="4.10566">
        <ele>183</ele>
        <time>2024-03-29T15:48:28Z</time>
      </trkpt>
      <trkpt lat="50.12017" lon="4.10573">
        <ele>183.4</ele>
        <time>2024-03-29T15:48:29Z</time>
      </trkpt>
      <trkpt lat="50.12015" lon="4.10579">
        <ele>183.6</ele>
        <time>2024-03-29T15:48:30Z</time>
      </trkpt>
      <trkpt lat="50.12013" lon="4.10586">
        <ele>183.8</ele>
        <time>2024-03-29T15:48:31Z</time>
      </trkpt>
      <trkpt lat="50.12011" lon="4.10592">
        <ele>184.4</ele>
        <time>2024-03-29T15:48:32Z</time>
      </trkpt>
      <trkpt lat="50.12009" lon="4.10598">
        <ele>184.8</ele>
        <time>2024-03-29T15:48:33Z</time>
      </trkpt>
      <trkpt lat="50.12007" lon="4.10605">
        <ele>185.2</ele>
        <time>2024-03-29T15:48:34Z</time>
      </trkpt>
      <trkpt lat="50.12005" lon="4.10611">
        <ele>185.8</ele>
        <time>2024-03-29T15:48:35Z</time>
      </trkpt>
      <trkpt lat="50.12003" lon="4.10618">
        <ele>186.6</ele>
        <time>2024-03-29T15:48:36Z</time>
      </trkpt>
      <trkpt lat="50.12001" lon="4.10625">
        <ele>187.4</ele>
        <time>2024-03-29T15:48:37Z</time>
      </trkpt>
      <trkpt lat="50.12" lon="4.10632">
        <ele>188</ele>
        <time>2024-03-29T15:48:38Z</time>
      </trkpt>
      <trkpt lat="50.11998" lon="4.10639">
        <ele>188.8</ele>
        <time>2024-03-29T15:48:39Z</time>
      </trkpt>
      <trkpt lat="50.11996" lon="4.10647">
        <ele>189</ele>
        <time>2024-03-29T15:48:40Z</time>
      </trkpt>
      <trkpt lat="50.11994" lon="4.10654">
        <ele>189.4</ele>
        <time>2024-03-29T15:48:41Z</time>
      </trkpt>
      <trkpt lat="50.11993" lon="4.10662">
        <ele>189.6</ele>
        <time>2024-03-29T15:48:42Z</time>
      </trkpt>
      <trkpt lat="50.11992" lon="4.1067">
        <ele>189.8</ele>
        <time>2024-03-29T15:48:43Z</time>
      </trkpt>
      <trkpt lat="50.11991" lon="4.10679">
        <ele>190</ele>
        <time>2024-03-29T15:48:44Z</time>
      </trkpt>
      <trkpt lat="50.11991" lon="4.10687">
        <ele>190</ele>
        <time>2024-03-29T15:48:45Z</time>
      </trkpt>
      <trkpt lat="50.11991" lon="4.10696">
        <ele>190.2</ele>
        <time>2024-03-29T15:48:46Z</time>
      </trkpt>
      <trkpt lat="50.11991" lon="4.10705">
        <ele>190.4</ele>
        <time>2024-03-29T15:48:47Z</time>
      </trkpt>
      <trkpt lat="50.11991" lon="4.10714">
        <ele>190.4</ele>
        <time>2024-03-29T15:48:48Z</time>
      </trkpt>
      <trkpt lat="50.11992" lon="4.10723">
        <ele>190.2</ele>
        <time>2024-03-29T15:48:49Z</time>
      </trkpt>
      <trkpt lat="50.11993" lon="4.10732">
        <ele>190.4</ele>
        <time>2024-03-29T15:48:50Z</time>
      </trkpt>
      <trkpt lat="50.11995" lon="4.10742">
        <ele>190.4</ele>
        <time>2024-03-29T15:48:51Z</time>
      </trkpt>
      <trkpt lat="50.11996" lon="4.10752">
        <ele>190.8</ele>
        <time>2024-03-29T15:48:52Z</time>
      </trkpt>
      <trkpt lat="50.11998" lon="4.10762">
        <ele>191</ele>
        <time>2024-03-29T15:48:53Z</time>
      </trkpt>
      <trkpt lat="50.11999" lon="4.10772">
        <ele>191</ele>
        <time>2024-03-29T15:48:54Z</time>
      </trkpt>
      <trkpt lat="50.12001" lon="4.10782">
        <ele>191.2</ele>
        <time>2024-03-29T15:48:55Z</time>
      </trkpt>
      <trkpt lat="50.12003" lon="4.10793">
        <ele>191.2</ele>
        <time>2024-03-29T15:48:56Z</time>
      </trkpt>
      <trkpt lat="50.12005" lon="4.10803">
        <ele>191.2</ele>
        <time>2024-03-29T15:48:57Z</time>
      </trkpt>
      <trkpt lat="50.12006" lon="4.10814">
        <ele>191.2</ele>
        <time>2024-03-29T15:48:58Z</time>
      </trkpt>
      <trkpt lat="50.12008" lon="4.10825">
        <ele>191.2</ele>
        <time>2024-03-29T15:48:59Z</time>
      </trkpt>
      <trkpt lat="50.1201" lon="4.10836">
        <ele>191.2</ele>
        <time>2024-03-29T15:49:00Z</time>
      </trkpt>
      <trkpt lat="50.12012" lon="4.10847">
        <ele>191.2</ele>
        <time>2024-03-29T15:49:01Z</time>
      </trkpt>
      <trkpt lat="50.12013" lon="4.10859">
        <ele>191.2</ele>
        <time>2024-03-29T15:49:02Z</time>
      </trkpt>
      <trkpt lat="50.12015" lon="4.1087">
        <ele>191.2</ele>
        <time>2024-03-29T15:49:03Z</time>
      </trkpt>
      <trkpt lat="50.12016" lon="4.10882">
        <ele>190.8</ele>
        <time>2024-03-29T15:49:04Z</time>
      </trkpt>
      <trkpt lat="50.12017" lon="4.10893">
        <ele>190.6</ele>
        <time>2024-03-29T15:49:05Z</time>
      </trkpt>
      <trkpt lat="50.12018" lon="4.10905">
        <ele>190.2</ele>
        <time>2024-03-29T15:49:06Z</time>
      </trkpt>
      <trkpt lat="50.12019" lon="4.10916">
        <ele>190</ele>
        <time>2024-03-29T15:49:07Z</time>
      </trkpt>
      <trkpt lat="50.1202" lon="4.10928">
        <ele>189.8</ele>
        <time>2024-03-29T15:49:08Z</time>
      </trkpt>
      <trkpt lat="50.12021" lon="4.10939">
        <ele>189.8</ele>
        <time>2024-03-29T15:49:09Z</time>
      </trkpt>
      <trkpt lat="50.12021" lon="4.10951">
        <ele>189.8</ele>
        <time>2024-03-29T15:49:10Z</time>
      </trkpt>
      <trkpt lat="50.12022" lon="4.10963">
        <ele>189</ele>
        <time>2024-03-29T15:49:11Z</time>
      </trkpt>
      <trkpt lat="50.12022" lon="4.10974">
        <ele>188.2</ele>
        <time>2024-03-29T15:49:12Z</time>
      </trkpt>
      <trkpt lat="50.12023" lon="4.10986">
        <ele>187.8</ele>
        <time>2024-03-29T15:49:13Z</time>
      </trkpt>
      <trkpt lat="50.12023" lon="4.10998">
        <ele>187.4</ele>
        <time>2024-03-29T15:49:14Z</time>
      </trkpt>
      <trkpt lat="50.12024" lon="4.1101">
        <ele>187.2</ele>
        <time>2024-03-29T15:49:15Z</time>
      </trkpt>
      <trkpt lat="50.12024" lon="4.11021">
        <ele>187</ele>
        <time>2024-03-29T15:49:16Z</time>
      </trkpt>
      <trkpt lat="50.12025" lon="4.11033">
        <ele>187.2</ele>
        <time>2024-03-29T15:49:17Z</time>
      </trkpt>
      <trkpt lat="50.12025" lon="4.11045">
        <ele>187.2</ele>
        <time>2024-03-29T15:49:18Z</time>
      </trkpt>
      <trkpt lat="50.12025" lon="4.11057">
        <ele>187</ele>
        <time>2024-03-29T15:49:19Z</time>
      </trkpt>
      <trkpt lat="50.12026" lon="4.11068">
        <ele>187</ele>
        <time>2024-03-29T15:49:20Z</time>
      </trkpt>
      <trkpt lat="50.12026" lon="4.1108">
        <ele>186.6</ele>
        <time>2024-03-29T15:49:21Z</time>
      </trkpt>
      <trkpt lat="50.12027" lon="4.11091">
        <ele>186.6</ele>
        <time>2024-03-29T15:49:22Z</time>
      </trkpt>
      <trkpt lat="50.12027" lon="4.11101">
        <ele>186.6</ele>
        <time>2024-03-29T15:49:23Z</time>
      </trkpt>
      <trkpt lat="50.12027" lon="4.11112">
        <ele>186.6</ele>
        <time>2024-03-29T15:49:24Z</time>
      </trkpt>
      <trkpt lat="50.12027" lon="4.11122">
        <ele>186.6</ele>
        <time>2024-03-29T15:49:25Z</time>
      </trkpt>
      <trkpt lat="50.12028" lon="4.11131">
        <ele>186.8</ele>
        <time>2024-03-29T15:49:26Z</time>
      </trkpt>
      <trkpt lat="50.12028" lon="4.11141">
        <ele>187</ele>
        <time>2024-03-29T15:49:27Z</time>
      </trkpt>
      <trkpt lat="50.12029" lon="4.11149">
        <ele>186.8</ele>
        <time>2024-03-29T15:49:28Z</time>
      </trkpt>
      <trkpt lat="50.12029" lon="4.11157">
        <ele>187</ele>
        <time>2024-03-29T15:49:29Z</time>
      </trkpt>
      <trkpt lat="50.12029" lon="4.11165">
        <ele>187</ele>
        <time>2024-03-29T15:49:30Z</time>
      </trkpt>
      <trkpt lat="50.1203" lon="4.11173">
        <ele>187.2</ele>
        <time>2024-03-29T15:49:31Z</time>
      </trkpt>
      <trkpt lat="50.1203" lon="4.1118">
        <ele>187.2</ele>
        <time>2024-03-29T15:49:32Z</time>
      </trkpt>
      <trkpt lat="50.1203" lon="4.11187">
        <ele>187.6</ele>
        <time>2024-03-29T15:49:33Z</time>
      </trkpt>
      <trkpt lat="50.12031" lon="4.11194">
        <ele>188</ele>
        <time>2024-03-29T15:49:34Z</time>
      </trkpt>
      <trkpt lat="50.12031" lon="4.112">
        <ele>188.4</ele>
        <time>2024-03-29T15:49:35Z</time>
      </trkpt>
      <trkpt lat="50.12032" lon="4.11207">
        <ele>188.8</ele>
        <time>2024-03-29T15:49:36Z</time>
      </trkpt>
      <trkpt lat="50.12032" lon="4.11213">
        <ele>189.4</ele>
        <time>2024-03-29T15:49:37Z</time>
      </trkpt>
      <trkpt lat="50.12033" lon="4.11218">
        <ele>189.8</ele>
        <time>2024-03-29T15:49:38Z</time>
      </trkpt>
      <trkpt lat="50.12033" lon="4.11224">
        <ele>190.4</ele>
        <time>2024-03-29T15:49:39Z</time>
      </trkpt>
      <trkpt lat="50.12034" lon="4.11231">
        <ele>190.8</ele>
        <time>2024-03-29T15:49:40Z</time>
      </trkpt>
      <trkpt lat="50.12035" lon="4.11237">
        <ele>191.2</ele>
        <time>2024-03-29T15:49:41Z</time>
      </trkpt>
      <trkpt lat="50.12036" lon="4.11243">
        <ele>191.4</ele>
        <time>2024-03-29T15:49:42Z</time>
      </trkpt>
      <trkpt lat="50.12037" lon="4.11249">
        <ele>191.8</ele>
        <time>2024-03-29T15:49:43Z</time>
      </trkpt>
      <trkpt lat="50.12037" lon="4.11256">
        <ele>192</ele>
        <time>2024-03-29T15:49:44Z</time>
      </trkpt>
      <trkpt lat="50.12038" lon="4.11262">
        <ele>192.2</ele>
        <time>2024-03-29T15:49:45Z</time>
      </trkpt>
      <trkpt lat="50.12039" lon="4.11267">
        <ele>193</ele>
        <time>2024-03-29T15:49:46Z</time>
      </trkpt>
      <trkpt lat="50.1204" lon="4.11274">
        <ele>193.6</ele>
        <time>2024-03-29T15:49:47Z</time>
      </trkpt>
      <trkpt lat="50.12041" lon="4.1128">
        <ele>194</ele>
        <time>2024-03-29T15:49:48Z</time>
      </trkpt>
      <trkpt lat="50.12042" lon="4.11287">
        <ele>194.2</ele>
        <time>2024-03-29T15:49:49Z</time>
      </trkpt>
      <trkpt lat="50.12043" lon="4.11293">
        <ele>194.6</ele>
        <time>2024-03-29T15:49:50Z</time>
      </trkpt>
      <trkpt lat="50.12045" lon="4.113">
        <ele>195</ele>
        <time>2024-03-29T15:49:51Z</time>
      </trkpt>
      <trkpt lat="50.12046" lon="4.11306">
        <ele>195</ele>
        <time>2024-03-29T15:49:52Z</time>
      </trkpt>
      <trkpt lat="50.12048" lon="4.11314">
        <ele>195.2</ele>
        <time>2024-03-29T15:49:53Z</time>
      </trkpt>
      <trkpt lat="50.1205" lon="4.1132">
        <ele>195.2</ele>
        <time>2024-03-29T15:49:54Z</time>
      </trkpt>
      <trkpt lat="50.12051" lon="4.11328">
        <ele>195.4</ele>
        <time>2024-03-29T15:49:55Z</time>
      </trkpt>
      <trkpt lat="50.12053" lon="4.11335">
        <ele>196</ele>
        <time>2024-03-29T15:49:56Z</time>
      </trkpt>
      <trkpt lat="50.12055" lon="4.11342">
        <ele>196.2</ele>
        <time>2024-03-29T15:49:57Z</time>
      </trkpt>
      <trkpt lat="50.12056" lon="4.11349">
        <ele>196.4</ele>
        <time>2024-03-29T15:49:58Z</time>
      </trkpt>
      <trkpt lat="50.12058" lon="4.11356">
        <ele>196.2</ele>
        <time>2024-03-29T15:49:59Z</time>
      </trkpt>
      <trkpt lat="50.1206" lon="4.11363">
        <ele>196.6</ele>
        <time>2024-03-29T15:50:00Z</time>
      </trkpt>
      <trkpt lat="50.12062" lon="4.1137">
        <ele>196.4</ele>
        <time>2024-03-29T15:50:01Z</time>
      </trkpt>
      <trkpt lat="50.12064" lon="4.11377">
        <ele>196.4</ele>
        <time>2024-03-29T15:50:02Z</time>
      </trkpt>
      <trkpt lat="50.12067" lon="4.11385">
        <ele>196.4</ele>
        <time>2024-03-29T15:50:03Z</time>
      </trkpt>
      <trkpt lat="50.12069" lon="4.11392">
        <ele>196.6</ele>
        <time>2024-03-29T15:50:04Z</time>
      </trkpt>
      <trkpt lat="50.12072" lon="4.114">
        <ele>196.8</ele>
        <time>2024-03-29T15:50:05Z</time>
      </trkpt>
      <trkpt lat="50.12074" lon="4.11408">
        <ele>196.6</ele>
        <time>2024-03-29T15:50:06Z</time>
      </trkpt>
      <trkpt lat="50.12077" lon="4.11416">
        <ele>196.6</ele>
        <time>2024-03-29T15:50:07Z</time>
      </trkpt>
      <trkpt lat="50.1208" lon="4.11424">
        <ele>196.6</ele>
        <time>2024-03-29T15:50:08Z</time>
      </trkpt>
      <trkpt lat="50.12083" lon="4.11432">
        <ele>196.6</ele>
        <time>2024-03-29T15:50:09Z</time>
      </trkpt>
      <trkpt lat="50.12086" lon="4.11441">
        <ele>196.6</ele>
        <time>2024-03-29T15:50:10Z</time>
      </trkpt>
      <trkpt lat="50.12089" lon="4.11451">
        <ele>196.6</ele>
        <time>2024-03-29T15:50:11Z</time>
      </trkpt>
      <trkpt lat="50.12093" lon="4.1146">
        <ele>196.6</ele>
        <time>2024-03-29T15:50:12Z</time>
      </trkpt>
      <trkpt lat="50.12096" lon="4.1147">
        <ele>196.6</ele>
        <time>2024-03-29T15:50:13Z</time>
      </trkpt>
      <trkpt lat="50.121" lon="4.1148">
        <ele>196.4</ele>
        <time>2024-03-29T15:50:14Z</time>
      </trkpt>
      <trkpt lat="50.12103" lon="4.1149">
        <ele>196</ele>
        <time>2024-03-29T15:50:15Z</time>
      </trkpt>
      <trkpt lat="50.12107" lon="4.115">
        <ele>196</ele>
        <time>2024-03-29T15:50:16Z</time>
      </trkpt>
      <trkpt lat="50.12111" lon="4.1151">
        <ele>196</ele>
        <time>2024-03-29T15:50:17Z</time>
      </trkpt>
      <trkpt lat="50.12115" lon="4.11521">
        <ele>195.8</ele>
        <time>2024-03-29T15:50:18Z</time>
      </trkpt>
      <trkpt lat="50.12118" lon="4.11532">
        <ele>195.6</ele>
        <time>2024-03-29T15:50:19Z</time>
      </trkpt>
      <trkpt lat="50.12122" lon="4.11543">
        <ele>195.6</ele>
        <time>2024-03-29T15:50:20Z</time>
      </trkpt>
      <trkpt lat="50.12126" lon="4.11555">
        <ele>195.4</ele>
        <time>2024-03-29T15:50:21Z</time>
      </trkpt>
      <trkpt lat="50.12129" lon="4.11566">
        <ele>195.2</ele>
        <time>2024-03-29T15:50:22Z</time>
      </trkpt>
      <trkpt lat="50.12133" lon="4.11578">
        <ele>194.8</ele>
        <time>2024-03-29T15:50:23Z</time>
      </trkpt>
      <trkpt lat="50.12136" lon="4.11591">
        <ele>194.6</ele>
        <time>2024-03-29T15:50:24Z</time>
      </trkpt>
      <trkpt lat="50.12139" lon="4.11604">
        <ele>194.2</ele>
        <time>2024-03-29T15:50:25Z</time>
      </trkpt>
      <trkpt lat="50.12142" lon="4.11617">
        <ele>194</ele>
        <time>2024-03-29T15:50:26Z</time>
      </trkpt>
      <trkpt lat="50.12145" lon="4.1163">
        <ele>193.6</ele>
        <time>2024-03-29T15:50:27Z</time>
      </trkpt>
      <trkpt lat="50.12147" lon="4.11644">
        <ele>193.4</ele>
        <time>2024-03-29T15:50:28Z</time>
      </trkpt>
      <trkpt lat="50.1215" lon="4.11658">
        <ele>192.8</ele>
        <time>2024-03-29T15:50:29Z</time>
      </trkpt>
      <trkpt lat="50.12153" lon="4.11672">
        <ele>192.4</ele>
        <time>2024-03-29T15:50:30Z</time>
      </trkpt>
      <trkpt lat="50.12156" lon="4.11686">
        <ele>192.2</ele>
        <time>2024-03-29T15:50:31Z</time>
      </trkpt>
      <trkpt lat="50.12159" lon="4.117">
        <ele>191.6</ele>
        <time>2024-03-29T15:50:32Z</time>
      </trkpt>
      <trkpt lat="50.12162" lon="4.11714">
        <ele>191.6</ele>
        <time>2024-03-29T15:50:33Z</time>
      </trkpt>
      <trkpt lat="50.12165" lon="4.11727">
        <ele>191.4</ele>
        <time>2024-03-29T15:50:34Z</time>
      </trkpt>
      <trkpt lat="50.12167" lon="4.11741">
        <ele>191.2</ele>
        <time>2024-03-29T15:50:35Z</time>
      </trkpt>
      <trkpt lat="50.1217" lon="4.11754">
        <ele>190.4</ele>
        <time>2024-03-29T15:50:36Z</time>
      </trkpt>
      <trkpt lat="50.12173" lon="4.11767">
        <ele>190</ele>
        <time>2024-03-29T15:50:37Z</time>
      </trkpt>
      <trkpt lat="50.12175" lon="4.11779">
        <ele>190</ele>
        <time>2024-03-29T15:50:38Z</time>
      </trkpt>
      <trkpt lat="50.12178" lon="4.11792">
        <ele>189.6</ele>
        <time>2024-03-29T15:50:39Z</time>
      </trkpt>
      <trkpt lat="50.1218" lon="4.11804">
        <ele>189.4</ele>
        <time>2024-03-29T15:50:40Z</time>
      </trkpt>
      <trkpt lat="50.12183" lon="4.11816">
        <ele>189.4</ele>
        <time>2024-03-29T15:50:41Z</time>
      </trkpt>
      <trkpt lat="50.12185" lon="4.11828">
        <ele>189.2</ele>
        <time>2024-03-29T15:50:42Z</time>
      </trkpt>
      <trkpt lat="50.12188" lon="4.1184">
        <ele>189.2</ele>
        <time>2024-03-29T15:50:43Z</time>
      </trkpt>
      <trkpt lat="50.1219" lon="4.11852">
        <ele>189.2</ele>
        <time>2024-03-29T15:50:44Z</time>
      </trkpt>
      <trkpt lat="50.12192" lon="4.11864">
        <ele>189.2</ele>
        <time>2024-03-29T15:50:45Z</time>
      </trkpt>
      <trkpt lat="50.12195" lon="4.11876">
        <ele>189.2</ele>
        <time>2024-03-29T15:50:46Z</time>
      </trkpt>
      <trkpt lat="50.12197" lon="4.11887">
        <ele>189.2</ele>
        <time>2024-03-29T15:50:47Z</time>
      </trkpt>
      <trkpt lat="50.122" lon="4.11899">
        <ele>189.2</ele>
        <time>2024-03-29T15:50:48Z</time>
      </trkpt>
      <trkpt lat="50.12202" lon="4.11911">
        <ele>189.2</ele>
        <time>2024-03-29T15:50:49Z</time>
      </trkpt>
      <trkpt lat="50.12204" lon="4.11922">
        <ele>189.2</ele>
        <time>2024-03-29T15:50:50Z</time>
      </trkpt>
      <trkpt lat="50.12206" lon="4.11933">
        <ele>189.2</ele>
        <time>2024-03-29T15:50:51Z</time>
      </trkpt>
      <trkpt lat="50.12208" lon="4.11944">
        <ele>189.2</ele>
        <time>2024-03-29T15:50:52Z</time>
      </trkpt>
      <trkpt lat="50.1221" lon="4.11954">
        <ele>189.4</ele>
        <time>2024-03-29T15:50:53Z</time>
      </trkpt>
      <trkpt lat="50.12212" lon="4.11965">
        <ele>189.6</ele>
        <time>2024-03-29T15:50:54Z</time>
      </trkpt>
      <trkpt lat="50.12214" lon="4.11975">
        <ele>189.6</ele>
        <time>2024-03-29T15:50:55Z</time>
      </trkpt>
      <trkpt lat="50.12216" lon="4.11984">
        <ele>189.8</ele>
        <time>2024-03-29T15:50:56Z</time>
      </trkpt>
      <trkpt lat="50.12218" lon="4.11993">
        <ele>189.8</ele>
        <time>2024-03-29T15:50:57Z</time>
      </trkpt>
      <trkpt lat="50.1222" lon="4.12002">
        <ele>189.8</ele>
        <time>2024-03-29T15:50:58Z</time>
      </trkpt>
      <trkpt lat="50.12221" lon="4.12011">
        <ele>190</ele>
        <time>2024-03-29T15:50:59Z</time>
      </trkpt>
      <trkpt lat="50.12223" lon="4.1202">
        <ele>190</ele>
        <time>2024-03-29T15:51:00Z</time>
      </trkpt>
      <trkpt lat="50.12224" lon="4.12028">
        <ele>190.2</ele>
        <time>2024-03-29T15:51:01Z</time>
      </trkpt>
      <trkpt lat="50.12225" lon="4.12037">
        <ele>190.2</ele>
        <time>2024-03-29T15:51:02Z</time>
      </trkpt>
      <trkpt lat="50.12226" lon="4.12045">
        <ele>190.2</ele>
        <time>2024-03-29T15:51:03Z</time>
      </trkpt>
      <trkpt lat="50.12227" lon="4.12053">
        <ele>190.4</ele>
        <time>2024-03-29T15:51:04Z</time>
      </trkpt>
      <trkpt lat="50.12228" lon="4.12061">
        <ele>191</ele>
        <time>2024-03-29T15:51:05Z</time>
      </trkpt>
      <trkpt lat="50.12229" lon="4.12068">
        <ele>191.4</ele>
        <time>2024-03-29T15:51:06Z</time>
      </trkpt>
      <trkpt lat="50.1223" lon="4.12076">
        <ele>191.8</ele>
        <time>2024-03-29T15:51:07Z</time>
      </trkpt>
      <trkpt lat="50.12231" lon="4.12083">
        <ele>192</ele>
        <time>2024-03-29T15:51:08Z</time>
      </trkpt>
      <trkpt lat="50.12232" lon="4.12091">
        <ele>192.4</ele>
        <time>2024-03-29T15:51:09Z</time>
      </trkpt>
      <trkpt lat="50.12233" lon="4.12099">
        <ele>192.8</ele>
        <time>2024-03-29T15:51:10Z</time>
      </trkpt>
      <trkpt lat="50.12233" lon="4.12106">
        <ele>193.2</ele>
        <time>2024-03-29T15:51:11Z</time>
      </trkpt>
      <trkpt lat="50.12234" lon="4.12114">
        <ele>193.6</ele>
        <time>2024-03-29T15:51:12Z</time>
      </trkpt>
      <trkpt lat="50.12235" lon="4.12122">
        <ele>193.8</ele>
        <time>2024-03-29T15:51:13Z</time>
      </trkpt>
      <trkpt lat="50.12235" lon="4.1213">
        <ele>194.4</ele>
        <time>2024-03-29T15:51:14Z</time>
      </trkpt>
      <trkpt lat="50.12236" lon="4.12138">
        <ele>194.8</ele>
        <time>2024-03-29T15:51:15Z</time>
      </trkpt>
      <trkpt lat="50.12237" lon="4.12145">
        <ele>195.2</ele>
        <time>2024-03-29T15:51:16Z</time>
      </trkpt>
      <trkpt lat="50.12237" lon="4.12153">
        <ele>195.2</ele>
        <time>2024-03-29T15:51:17Z</time>
      </trkpt>
      <trkpt lat="50.12238" lon="4.12161">
        <ele>195.6</ele>
        <time>2024-03-29T15:51:18Z</time>
      </trkpt>
      <trkpt lat="50.12239" lon="4.12169">
        <ele>195.6</ele>
        <time>2024-03-29T15:51:19Z</time>
      </trkpt>
      <trkpt lat="50.1224" lon="4.12177">
        <ele>196</ele>
        <time>2024-03-29T15:51:20Z</time>
      </trkpt>
      <trkpt lat="50.12241" lon="4.12185">
        <ele>196</ele>
        <time>2024-03-29T15:51:21Z</time>
      </trkpt>
      <trkpt lat="50.12242" lon="4.12193">
        <ele>196</ele>
        <time>2024-03-29T15:51:22Z</time>
      </trkpt>
      <trkpt lat="50.12243" lon="4.12201">
        <ele>196</ele>
        <time>2024-03-29T15:51:23Z</time>
      </trkpt>
      <trkpt lat="50.12244" lon="4.1221">
        <ele>196.2</ele>
        <time>2024-03-29T15:51:24Z</time>
      </trkpt>
      <trkpt lat="50.12245" lon="4.12218">
        <ele>196.4</ele>
        <time>2024-03-29T15:51:25Z</time>
      </trkpt>
      <trkpt lat="50.12246" lon="4.12226">
        <ele>196.6</ele>
        <time>2024-03-29T15:51:26Z</time>
      </trkpt>
      <trkpt lat="50.12247" lon="4.12235">
        <ele>196.4</ele>
        <time>2024-03-29T15:51:27Z</time>
      </trkpt>
      <trkpt lat="50.12249" lon="4.12243">
        <ele>196.4</ele>
        <time>2024-03-29T15:51:28Z</time>
      </trkpt>
      <trkpt lat="50.1225" lon="4.12252">
        <ele>196.6</ele>
        <time>2024-03-29T15:51:29Z</time>
      </trkpt>
      <trkpt lat="50.12252" lon="4.1226">
        <ele>196.6</ele>
        <time>2024-03-29T15:51:30Z</time>
      </trkpt>
      <trkpt lat="50.12254" lon="4.12269">
        <ele>196.6</ele>
        <time>2024-03-29T15:51:31Z</time>
      </trkpt>
      <trkpt lat="50.12255" lon="4.12277">
        <ele>196.6</ele>
        <time>2024-03-29T15:51:32Z</time>
      </trkpt>
      <trkpt lat="50.12257" lon="4.12285">
        <ele>196.8</ele>
        <time>2024-03-29T15:51:33Z</time>
      </trkpt>
      <trkpt lat="50.1226" lon="4.12294">
        <ele>196.8</ele>
        <time>2024-03-29T15:51:34Z</time>
      </trkpt>
      <trkpt lat="50.12262" lon="4.12302">
        <ele>196.8</ele>
        <time>2024-03-29T15:51:35Z</time>
      </trkpt>
      <trkpt lat="50.12264" lon="4.12311">
        <ele>197</ele>
        <time>2024-03-29T15:51:36Z</time>
      </trkpt>
      <trkpt lat="50.12266" lon="4.12319">
        <ele>197</ele>
        <time>2024-03-29T15:51:37Z</time>
      </trkpt>
      <trkpt lat="50.12268" lon="4.12327">
        <ele>196.8</ele>
        <time>2024-03-29T15:51:38Z</time>
      </trkpt>
      <trkpt lat="50.12271" lon="4.12336">
        <ele>197</ele>
        <time>2024-03-29T15:51:39Z</time>
      </trkpt>
      <trkpt lat="50.12273" lon="4.12344">
        <ele>197</ele>
        <time>2024-03-29T15:51:40Z</time>
      </trkpt>
      <trkpt lat="50.12276" lon="4.12352">
        <ele>197.2</ele>
        <time>2024-03-29T15:51:41Z</time>
      </trkpt>
      <trkpt lat="50.12279" lon="4.12361">
        <ele>197</ele>
        <time>2024-03-29T15:51:42Z</time>
      </trkpt>
      <trkpt lat="50.12281" lon="4.12369">
        <ele>197</ele>
        <time>2024-03-29T15:51:43Z</time>
      </trkpt>
      <trkpt lat="50.12284" lon="4.12378">
        <ele>197</ele>
        <time>2024-03-29T15:51:44Z</time>
      </trkpt>
      <trkpt lat="50.12287" lon="4.12386">
        <ele>197</ele>
        <time>2024-03-29T15:51:45Z</time>
      </trkpt>
      <trkpt lat="50.12289" lon="4.12395">
        <ele>197</ele>
        <time>2024-03-29T15:51:46Z</time>
      </trkpt>
      <trkpt lat="50.12292" lon="4.12403">
        <ele>197</ele>
        <time>2024-03-29T15:51:47Z</time>
      </trkpt>
      <trkpt lat="50.12295" lon="4.12411">
        <ele>197.2</ele>
        <time>2024-03-29T15:51:48Z</time>
      </trkpt>
      <trkpt lat="50.12297" lon="4.12419">
        <ele>197.2</ele>
        <time>2024-03-29T15:51:49Z</time>
      </trkpt>
      <trkpt lat="50.123" lon="4.12426">
        <ele>197.2</ele>
        <time>2024-03-29T15:51:50Z</time>
      </trkpt>
      <trkpt lat="50.12302" lon="4.12434">
        <ele>197.2</ele>
        <time>2024-03-29T15:51:51Z</time>
      </trkpt>
      <trkpt lat="50.12305" lon="4.12441">
        <ele>197.4</ele>
        <time>2024-03-29T15:51:52Z</time>
      </trkpt>
      <trkpt lat="50.12307" lon="4.12449">
        <ele>197.2</ele>
        <time>2024-03-29T15:51:53Z</time>
      </trkpt>
      <trkpt lat="50.1231" lon="4.12456">
        <ele>197.4</ele>
        <time>2024-03-29T15:51:54Z</time>
      </trkpt>
      <trkpt lat="50.12312" lon="4.12463">
        <ele>197.4</ele>
        <time>2024-03-29T15:51:55Z</time>
      </trkpt>
      <trkpt lat="50.12315" lon="4.12469">
        <ele>197.4</ele>
        <time>2024-03-29T15:51:56Z</time>
      </trkpt>
      <trkpt lat="50.12318" lon="4.12475">
        <ele>197.4</ele>
        <time>2024-03-29T15:51:57Z</time>
      </trkpt>
      <trkpt lat="50.12321" lon="4.12481">
        <ele>197.6</ele>
        <time>2024-03-29T15:51:58Z</time>
      </trkpt>
      <trkpt lat="50.12324" lon="4.12486">
        <ele>197.6</ele>
        <time>2024-03-29T15:51:59Z</time>
      </trkpt>
      <trkpt lat="50.12328" lon="4.12491">
        <ele>198</ele>
        <time>2024-03-29T15:52:00Z</time>
      </trkpt>
      <trkpt lat="50.12331" lon="4.12496">
        <ele>198.6</ele>
        <time>2024-03-29T15:52:01Z</time>
      </trkpt>
      <trkpt lat="50.12334" lon="4.12501">
        <ele>199.4</ele>
        <time>2024-03-29T15:52:02Z</time>
      </trkpt>
      <trkpt lat="50.12338" lon="4.12506">
        <ele>199.6</ele>
        <time>2024-03-29T15:52:03Z</time>
      </trkpt>
      <trkpt lat="50.12341" lon="4.12511">
        <ele>199.8</ele>
        <time>2024-03-29T15:52:04Z</time>
      </trkpt>
      <trkpt lat="50.12344" lon="4.12515">
        <ele>200</ele>
        <time>2024-03-29T15:52:05Z</time>
      </trkpt>
      <trkpt lat="50.12347" lon="4.1252">
        <ele>200</ele>
        <time>2024-03-29T15:52:06Z</time>
      </trkpt>
      <trkpt lat="50.1235" lon="4.12524">
        <ele>200.2</ele>
        <time>2024-03-29T15:52:07Z</time>
      </trkpt>
      <trkpt lat="50.12353" lon="4.12529">
        <ele>200.6</ele>
        <time>2024-03-29T15:52:08Z</time>
      </trkpt>
      <trkpt lat="50.12356" lon="4.12533">
        <ele>200.8</ele>
        <time>2024-03-29T15:52:09Z</time>
      </trkpt>
      <trkpt lat="50.1236" lon="4.12538">
        <ele>201.2</ele>
        <time>2024-03-29T15:52:10Z</time>
      </trkpt>
      <trkpt lat="50.12363" lon="4.12542">
        <ele>201.6</ele>
        <time>2024-03-29T15:52:11Z</time>
      </trkpt>
      <trkpt lat="50.12366" lon="4.12546">
        <ele>201.8</ele>
        <time>2024-03-29T15:52:12Z</time>
      </trkpt>
      <trkpt lat="50.12369" lon="4.12551">
        <ele>202.2</ele>
        <time>2024-03-29T15:52:13Z</time>
      </trkpt>
      <trkpt lat="50.12372" lon="4.12555">
        <ele>202.6</ele>
        <time>2024-03-29T15:52:14Z</time>
      </trkpt>
      <trkpt lat="50.12375" lon="4.12559">
        <ele>202.8</ele>
        <time>2024-03-29T15:52:15Z</time>
      </trkpt>
      <trkpt lat="50.12378" lon="4.12564">
        <ele>202.8</ele>
        <time>2024-03-29T15:52:16Z</time>
      </trkpt>
      <trkpt lat="50.12381" lon="4.12568">
        <ele>203.4</ele>
        <time>2024-03-29T15:52:17Z</time>
      </trkpt>
      <trkpt lat="50.12384" lon="4.12572">
        <ele>203.8</ele>
        <time>2024-03-29T15:52:18Z</time>
      </trkpt>
      <trkpt lat="50.12387" lon="4.12576">
        <ele>204.2</ele>
        <time>2024-03-29T15:52:19Z</time>
      </trkpt>
      <trkpt lat="50.1239" lon="4.12581">
        <ele>204.4</ele>
        <time>2024-03-29T15:52:20Z</time>
      </trkpt>
      <trkpt lat="50.12394" lon="4.12586">
        <ele>204.4</ele>
        <time>2024-03-29T15:52:21Z</time>
      </trkpt>
      <trkpt lat="50.12397" lon="4.1259">
        <ele>204.6</ele>
        <time>2024-03-29T15:52:22Z</time>
      </trkpt>
      <trkpt lat="50.12401" lon="4.12595">
        <ele>204.6</ele>
        <time>2024-03-29T15:52:23Z</time>
      </trkpt>
      <trkpt lat="50.12405" lon="4.12601">
        <ele>204.8</ele>
        <time>2024-03-29T15:52:24Z</time>
      </trkpt>
      <trkpt lat="50.12409" lon="4.12606">
        <ele>205</ele>
        <time>2024-03-29T15:52:25Z</time>
      </trkpt>
      <trkpt lat="50.12413" lon="4.12612">
        <ele>205.2</ele>
        <time>2024-03-29T15:52:26Z</time>
      </trkpt>
      <trkpt lat="50.12417" lon="4.12618">
        <ele>205.2</ele>
        <time>2024-03-29T15:52:27Z</time>
      </trkpt>
      <trkpt lat="50.12421" lon="4.12624">
        <ele>205.2</ele>
        <time>2024-03-29T15:52:28Z</time>
      </trkpt>
      <trkpt lat="50.12425" lon="4.1263">
        <ele>205.2</ele>
        <time>2024-03-29T15:52:29Z</time>
      </trkpt>
      <trkpt lat="50.1243" lon="4.12637">
        <ele>205.4</ele>
        <time>2024-03-29T15:52:30Z</time>
      </trkpt>
      <trkpt lat="50.12434" lon="4.12644">
        <ele>205.2</ele>
        <time>2024-03-29T15:52:31Z</time>
      </trkpt>
      <trkpt lat="50.12438" lon="4.12652">
        <ele>205.2</ele>
        <time>2024-03-29T15:52:32Z</time>
      </trkpt>
      <trkpt lat="50.12442" lon="4.1266">
        <ele>205.2</ele>
        <time>2024-03-29T15:52:33Z</time>
      </trkpt>
      <trkpt lat="50.12447" lon="4.12668">
        <ele>205.4</ele>
        <time>2024-03-29T15:52:34Z</time>
      </trkpt>
      <trkpt lat="50.12451" lon="4.12677">
        <ele>205.4</ele>
        <time>2024-03-29T15:52:35Z</time>
      </trkpt>
      <trkpt lat="50.12454" lon="4.12686">
        <ele>205.2</ele>
        <time>2024-03-29T15:52:36Z</time>
      </trkpt>
      <trkpt lat="50.12458" lon="4.12696">
        <ele>205</ele>
        <time>2024-03-29T15:52:37Z</time>
      </trkpt>
      <trkpt lat="50.12461" lon="4.12705">
        <ele>205</ele>
        <time>2024-03-29T15:52:38Z</time>
      </trkpt>
      <trkpt lat="50.12464" lon="4.12715">
        <ele>204.8</ele>
        <time>2024-03-29T15:52:39Z</time>
      </trkpt>
      <trkpt lat="50.12466" lon="4.12724">
        <ele>204.8</ele>
        <time>2024-03-29T15:52:40Z</time>
      </trkpt>
      <trkpt lat="50.12468" lon="4.12734">
        <ele>204.4</ele>
        <time>2024-03-29T15:52:41Z</time>
      </trkpt>
      <trkpt lat="50.1247" lon="4.12743">
        <ele>204.2</ele>
        <time>2024-03-29T15:52:42Z</time>
      </trkpt>
      <trkpt lat="50.12472" lon="4.12753">
        <ele>204</ele>
        <time>2024-03-29T15:52:43Z</time>
      </trkpt>
      <trkpt lat="50.12473" lon="4.12762">
        <ele>204</ele>
        <time>2024-03-29T15:52:44Z</time>
      </trkpt>
      <trkpt lat="50.12474" lon="4.12771">
        <ele>203.8</ele>
        <time>2024-03-29T15:52:45Z</time>
      </trkpt>
      <trkpt lat="50.12475" lon="4.12779">
        <ele>203.8</ele>
        <time>2024-03-29T15:52:46Z</time>
      </trkpt>
      <trkpt lat="50.12475" lon="4.12788">
        <ele>204</ele>
        <time>2024-03-29T15:52:47Z</time>
      </trkpt>
      <trkpt lat="50.12476" lon="4.12796">
        <ele>203.8</ele>
        <time>2024-03-29T15:52:48Z</time>
      </trkpt>
      <trkpt lat="50.12477" lon="4.12803">
        <ele>203.8</ele>
        <time>2024-03-29T15:52:49Z</time>
      </trkpt>
      <trkpt lat="50.12477" lon="4.12811">
        <ele>203.8</ele>
        <time>2024-03-29T15:52:50Z</time>
      </trkpt>
      <trkpt lat="50.12477" lon="4.12819">
        <ele>203.8</ele>
        <time>2024-03-29T15:52:51Z</time>
      </trkpt>
      <trkpt lat="50.12477" lon="4.12826">
        <ele>203.8</ele>
        <time>2024-03-29T15:52:52Z</time>
      </trkpt>
      <trkpt lat="50.12477" lon="4.12833">
        <ele>203.8</ele>
        <time>2024-03-29T15:52:53Z</time>
      </trkpt>
      <trkpt lat="50.12477" lon="4.1284">
        <ele>204.2</ele>
        <time>2024-03-29T15:52:54Z</time>
      </trkpt>
      <trkpt lat="50.12477" lon="4.12846">
        <ele>204.2</ele>
        <time>2024-03-29T15:52:55Z</time>
      </trkpt>
      <trkpt lat="50.12477" lon="4.12852">
        <ele>204.4</ele>
        <time>2024-03-29T15:52:56Z</time>
      </trkpt>
      <trkpt lat="50.12477" lon="4.12858">
        <ele>204.8</ele>
        <time>2024-03-29T15:52:57Z</time>
      </trkpt>
      <trkpt lat="50.12476" lon="4.12863">
        <ele>205</ele>
        <time>2024-03-29T15:52:58Z</time>
      </trkpt>
      <trkpt lat="50.12476" lon="4.12868">
        <ele>205.4</ele>
        <time>2024-03-29T15:52:59Z</time>
      </trkpt>
      <trkpt lat="50.12475" lon="4.12873">
        <ele>205.8</ele>
        <time>2024-03-29T15:53:00Z</time>
      </trkpt>
      <trkpt lat="50.12474" lon="4.12878">
        <ele>206.2</ele>
        <time>2024-03-29T15:53:01Z</time>
      </trkpt>
      <trkpt lat="50.12474" lon="4.12882">
        <ele>206.4</ele>
        <time>2024-03-29T15:53:02Z</time>
      </trkpt>
      <trkpt lat="50.12473" lon="4.12886">
        <ele>206.8</ele>
        <time>2024-03-29T15:53:03Z</time>
      </trkpt>
      <trkpt lat="50.12473" lon="4.1289">
        <ele>207.2</ele>
        <time>2024-03-29T15:53:04Z</time>
      </trkpt>
      <trkpt lat="50.12473" lon="4.12894">
        <ele>207.6</ele>
        <time>2024-03-29T15:53:05Z</time>
      </trkpt>
      <trkpt lat="50.12472" lon="4.12898">
        <ele>207.8</ele>
        <time>2024-03-29T15:53:06Z</time>
      </trkpt>
      <trkpt lat="50.12472" lon="4.12902">
        <ele>208</ele>
        <time>2024-03-29T15:53:07Z</time>
      </trkpt>
      <trkpt lat="50.12472" lon="4.12907">
        <ele>208.4</ele>
        <time>2024-03-29T15:53:08Z</time>
      </trkpt>
      <trkpt lat="50.12471" lon="4.12911">
        <ele>208.6</ele>
        <time>2024-03-29T15:53:09Z</time>
      </trkpt>
      <trkpt lat="50.1247" lon="4.12915">
        <ele>209</ele>
        <time>2024-03-29T15:53:10Z</time>
      </trkpt>
      <trkpt lat="50.1247" lon="4.12919">
        <ele>209.6</ele>
        <time>2024-03-29T15:53:11Z</time>
      </trkpt>
      <trkpt lat="50.12469" lon="4.12923">
        <ele>209.6</ele>
        <time>2024-03-29T15:53:12Z</time>
      </trkpt>
      <trkpt lat="50.12468" lon="4.12927">
        <ele>209.8</ele>
        <time>2024-03-29T15:53:13Z</time>
      </trkpt>
      <trkpt lat="50.12467" lon="4.12931">
        <ele>210.2</ele>
        <time>2024-03-29T15:53:14Z</time>
      </trkpt>
      <trkpt lat="50.12466" lon="4.12934">
        <ele>210.4</ele>
        <time>2024-03-29T15:53:15Z</time>
      </trkpt>
      <trkpt lat="50.12465" lon="4.12938">
        <ele>210.8</ele>
        <time>2024-03-29T15:53:16Z</time>
      </trkpt>
      <trkpt lat="50.12464" lon="4.12942">
        <ele>211</ele>
        <time>2024-03-29T15:53:17Z</time>
      </trkpt>
      <trkpt lat="50.12463" lon="4.12946">
        <ele>211.2</ele>
        <time>2024-03-29T15:53:18Z</time>
      </trkpt>
      <trkpt lat="50.12462" lon="4.1295">
        <ele>211.6</ele>
        <time>2024-03-29T15:53:19Z</time>
      </trkpt>
      <trkpt lat="50.12461" lon="4.12954">
        <ele>212</ele>
        <time>2024-03-29T15:53:20Z</time>
      </trkpt>
      <trkpt lat="50.12461" lon="4.12958">
        <ele>212.6</ele>
        <time>2024-03-29T15:53:21Z</time>
      </trkpt>
      <trkpt lat="50.1246" lon="4.12962">
        <ele>213</ele>
        <time>2024-03-29T15:53:22Z</time>
      </trkpt>
      <trkpt lat="50.12459" lon="4.12966">
        <ele>213.4</ele>
        <time>2024-03-29T15:53:23Z</time>
      </trkpt>
      <trkpt lat="50.12459" lon="4.12969">
        <ele>213.8</ele>
        <time>2024-03-29T15:53:24Z</time>
      </trkpt>
      <trkpt lat="50.12458" lon="4.12973">
        <ele>214</ele>
        <time>2024-03-29T15:53:25Z</time>
      </trkpt>
      <trkpt lat="50.12458" lon="4.12977">
        <ele>214.2</ele>
        <time>2024-03-29T15:53:26Z</time>
      </trkpt>
      <trkpt lat="50.12458" lon="4.12981">
        <ele>214.8</ele>
        <time>2024-03-29T15:53:27Z</time>
      </trkpt>
      <trkpt lat="50.12458" lon="4.12985">
        <ele>215</ele>
        <time>2024-03-29T15:53:28Z</time>
      </trkpt>
      <trkpt lat="50.12458" lon="4.12989">
        <ele>215.4</ele>
        <time>2024-03-29T15:53:29Z</time>
      </trkpt>
      <trkpt lat="50.12457" lon="4.12992">
        <ele>215.6</ele>
        <time>2024-03-29T15:53:30Z</time>
      </trkpt>
      <trkpt lat="50.12456" lon="4.12996">
        <ele>215.8</ele>
        <time>2024-03-29T15:53:31Z</time>
      </trkpt>
      <trkpt lat="50.12456" lon="4.13">
        <ele>216</ele>
        <time>2024-03-29T15:53:32Z</time>
      </trkpt>
      <trkpt lat="50.12455" lon="4.13004">
        <ele>216.2</ele>
        <time>2024-03-29T15:53:33Z</time>
      </trkpt>
      <trkpt lat="50.12455" lon="4.13008">
        <ele>216.2</ele>
        <time>2024-03-29T15:53:34Z</time>
      </trkpt>
      <trkpt lat="50.12454" lon="4.13012">
        <ele>216.6</ele>
        <time>2024-03-29T15:53:35Z</time>
      </trkpt>
      <trkpt lat="50.12454" lon="4.13015">
        <ele>216.6</ele>
        <time>2024-03-29T15:53:36Z</time>
      </trkpt>
      <trkpt lat="50.12453" lon="4.13019">
        <ele>217</ele>
        <time>2024-03-29T15:53:37Z</time>
      </trkpt>
      <trkpt lat="50.12453" lon="4.13023">
        <ele>217.2</ele>
        <time>2024-03-29T15:53:38Z</time>
      </trkpt>
      <trkpt lat="50.12452" lon="4.13027">
        <ele>217.4</ele>
        <time>2024-03-29T15:53:39Z</time>
      </trkpt>
      <trkpt lat="50.12452" lon="4.13031">
        <ele>217.8</ele>
        <time>2024-03-29T15:53:40Z</time>
      </trkpt>
      <trkpt lat="50.12451" lon="4.13034">
        <ele>218</ele>
        <time>2024-03-29T15:53:41Z</time>
      </trkpt>
      <trkpt lat="50.1245" lon="4.13038">
        <ele>218.2</ele>
        <time>2024-03-29T15:53:42Z</time>
      </trkpt>
      <trkpt lat="50.12449" lon="4.13042">
        <ele>218.6</ele>
        <time>2024-03-29T15:53:43Z</time>
      </trkpt>
      <trkpt lat="50.12449" lon="4.13046">
        <ele>218.8</ele>
        <time>2024-03-29T15:53:44Z</time>
      </trkpt>
      <trkpt lat="50.12448" lon="4.1305">
        <ele>219</ele>
        <time>2024-03-29T15:53:45Z</time>
      </trkpt>
      <trkpt lat="50.12447" lon="4.13054">
        <ele>219.2</ele>
        <time>2024-03-29T15:53:46Z</time>
      </trkpt>
      <trkpt lat="50.12446" lon="4.13057">
        <ele>219.6</ele>
        <time>2024-03-29T15:53:47Z</time>
      </trkpt>
      <trkpt lat="50.12444" lon="4.13061">
        <ele>219.8</ele>
        <time>2024-03-29T15:53:48Z</time>
      </trkpt>
      <trkpt lat="50.12443" lon="4.13065">
        <ele>220</ele>
        <time>2024-03-29T15:53:49Z</time>
      </trkpt>
      <trkpt lat="50.12443" lon="4.13069">
        <ele>220.2</ele>
        <time>2024-03-29T15:53:50Z</time>
      </trkpt>
      <trkpt lat="50.12442" lon="4.13073">
        <ele>220.4</ele>
        <time>2024-03-29T15:53:51Z</time>
      </trkpt>
      <trkpt lat="50.12441" lon="4.13076">
        <ele>220.8</ele>
        <time>2024-03-29T15:53:52Z</time>
      </trkpt>
      <trkpt lat="50.1244" lon="4.1308">
        <ele>220.8</ele>
        <time>2024-03-29T15:53:53Z</time>
      </trkpt>
      <trkpt lat="50.12439" lon="4.13083">
        <ele>221</ele>
        <time>2024-03-29T15:53:54Z</time>
      </trkpt>
      <trkpt lat="50.12439" lon="4.13087">
        <ele>221</ele>
        <time>2024-03-29T15:53:55Z</time>
      </trkpt>
      <trkpt lat="50.12438" lon="4.1309">
        <ele>221</ele>
        <time>2024-03-29T15:53:56Z</time>
      </trkpt>
      <trkpt lat="50.12436" lon="4.13094">
        <ele>221</ele>
        <time>2024-03-29T15:53:57Z</time>
      </trkpt>
      <trkpt lat="50.12435" lon="4.13097">
        <ele>221.4</ele>
        <time>2024-03-29T15:53:58Z</time>
      </trkpt>
      <trkpt lat="50.12434" lon="4.13101">
        <ele>221.6</ele>
        <time>2024-03-29T15:53:59Z</time>
      </trkpt>
      <trkpt lat="50.12433" lon="4.13104">
        <ele>221.6</ele>
        <time>2024-03-29T15:54:00Z</time>
      </trkpt>
      <trkpt lat="50.12431" lon="4.13108">
        <ele>221.6</ele>
        <time>2024-03-29T15:54:01Z</time>
      </trkpt>
      <trkpt lat="50.1243" lon="4.13112">
        <ele>222</ele>
        <time>2024-03-29T15:54:02Z</time>
      </trkpt>
      <trkpt lat="50.12428" lon="4.13116">
        <ele>222.4</ele>
        <time>2024-03-29T15:54:03Z</time>
      </trkpt>
      <trkpt lat="50.12427" lon="4.13121">
        <ele>222.6</ele>
        <time>2024-03-29T15:54:04Z</time>
      </trkpt>
      <trkpt lat="50.12426" lon="4.13125">
        <ele>222.6</ele>
        <time>2024-03-29T15:54:05Z</time>
      </trkpt>
      <trkpt lat="50.12425" lon="4.1313">
        <ele>222.8</ele>
        <time>2024-03-29T15:54:06Z</time>
      </trkpt>
      <trkpt lat="50.12423" lon="4.13134">
        <ele>223</ele>
        <time>2024-03-29T15:54:07Z</time>
      </trkpt>
      <trkpt lat="50.12422" lon="4.13139">
        <ele>223.2</ele>
        <time>2024-03-29T15:54:08Z</time>
      </trkpt>
      <trkpt lat="50.12421" lon="4.13143">
        <ele>223.2</ele>
        <time>2024-03-29T15:54:09Z</time>
      </trkpt>
      <trkpt lat="50.12419" lon="4.13148">
        <ele>223.4</ele>
        <time>2024-03-29T15:54:10Z</time>
      </trkpt>
      <trkpt lat="50.12418" lon="4.13152">
        <ele>223.6</ele>
        <time>2024-03-29T15:54:11Z</time>
      </trkpt>
      <trkpt lat="50.12416" lon="4.13156">
        <ele>223.8</ele>
        <time>2024-03-29T15:54:12Z</time>
      </trkpt>
      <trkpt lat="50.12415" lon="4.13161">
        <ele>224</ele>
        <time>2024-03-29T15:54:13Z</time>
      </trkpt>
      <trkpt lat="50.12414" lon="4.13165">
        <ele>224</ele>
        <time>2024-03-29T15:54:14Z</time>
      </trkpt>
      <trkpt lat="50.12412" lon="4.1317">
        <ele>224.2</ele>
        <time>2024-03-29T15:54:15Z</time>
      </trkpt>
      <trkpt lat="50.12411" lon="4.13174">
        <ele>224.2</ele>
        <time>2024-03-29T15:54:16Z</time>
      </trkpt>
      <trkpt lat="50.12409" lon="4.13179">
        <ele>224.4</ele>
        <time>2024-03-29T15:54:17Z</time>
      </trkpt>
      <trkpt lat="50.12408" lon="4.13183">
        <ele>224.4</ele>
        <time>2024-03-29T15:54:18Z</time>
      </trkpt>
      <trkpt lat="50.12406" lon="4.13188">
        <ele>224.6</ele>
        <time>2024-03-29T15:54:19Z</time>
      </trkpt>
      <trkpt lat="50.12405" lon="4.13192">
        <ele>224.6</ele>
        <time>2024-03-29T15:54:20Z</time>
      </trkpt>
      <trkpt lat="50.12403" lon="4.13197">
        <ele>224.8</ele>
        <time>2024-03-29T15:54:21Z</time>
      </trkpt>
      <trkpt lat="50.12403" lon="4.13203">
        <ele>224.8</ele>
        <time>2024-03-29T15:54:22Z</time>
      </trkpt>
      <trkpt lat="50.12401" lon="4.13209">
        <ele>225</ele>
        <time>2024-03-29T15:54:23Z</time>
      </trkpt>
      <trkpt lat="50.12399" lon="4.13214">
        <ele>225.2</ele>
        <time>2024-03-29T15:54:24Z</time>
      </trkpt>
      <trkpt lat="50.124" lon="4.13221">
        <ele>225.2</ele>
        <time>2024-03-29T15:54:25Z</time>
      </trkpt>
      <trkpt lat="50.12399" lon="4.13227">
        <ele>225.2</ele>
        <time>2024-03-29T15:54:26Z</time>
      </trkpt>
      <trkpt lat="50.12398" lon="4.13233">
        <ele>225.2</ele>
        <time>2024-03-29T15:54:27Z</time>
      </trkpt>
      <trkpt lat="50.12396" lon="4.13239">
        <ele>225.2</ele>
        <time>2024-03-29T15:54:28Z</time>
      </trkpt>
      <trkpt lat="50.12394" lon="4.13245">
        <ele>225.2</ele>
        <time>2024-03-29T15:54:29Z</time>
      </trkpt>
      <trkpt lat="50.12392" lon="4.13251">
        <ele>225.2</ele>
        <time>2024-03-29T15:54:30Z</time>
      </trkpt>
      <trkpt lat="50.1239" lon="4.13258">
        <ele>225</ele>
        <time>2024-03-29T15:54:31Z</time>
      </trkpt>
      <trkpt lat="50.12388" lon="4.13265">
        <ele>225.2</ele>
        <time>2024-03-29T15:54:32Z</time>
      </trkpt>
      <trkpt lat="50.12387" lon="4.13272">
        <ele>225.2</ele>
        <time>2024-03-29T15:54:33Z</time>
      </trkpt>
      <trkpt lat="50.12385" lon="4.13279">
        <ele>225.2</ele>
        <time>2024-03-29T15:54:34Z</time>
      </trkpt>
      <trkpt lat="50.12382" lon="4.13287">
        <ele>225.2</ele>
        <time>2024-03-29T15:54:35Z</time>
      </trkpt>
      <trkpt lat="50.1238" lon="4.13294">
        <ele>225.2</ele>
        <time>2024-03-29T15:54:36Z</time>
      </trkpt>
      <trkpt lat="50.12377" lon="4.13302">
        <ele>225.2</ele>
        <time>2024-03-29T15:54:37Z</time>
      </trkpt>
      <trkpt lat="50.12375" lon="4.1331">
        <ele>225</ele>
        <time>2024-03-29T15:54:38Z</time>
      </trkpt>
      <trkpt lat="50.12372" lon="4.13319">
        <ele>225</ele>
        <time>2024-03-29T15:54:39Z</time>
      </trkpt>
      <trkpt lat="50.1237" lon="4.13328">
        <ele>225</ele>
        <time>2024-03-29T15:54:40Z</time>
      </trkpt>
      <trkpt lat="50.12367" lon="4.13337">
        <ele>224.8</ele>
        <time>2024-03-29T15:54:41Z</time>
      </trkpt>
      <trkpt lat="50.12364" lon="4.13346">
        <ele>224.6</ele>
        <time>2024-03-29T15:54:42Z</time>
      </trkpt>
      <trkpt lat="50.12361" lon="4.13356">
        <ele>224.4</ele>
        <time>2024-03-29T15:54:43Z</time>
      </trkpt>
      <trkpt lat="50.12358" lon="4.13366">
        <ele>224.4</ele>
        <time>2024-03-29T15:54:44Z</time>
      </trkpt>
      <trkpt lat="50.12354" lon="4.13377">
        <ele>224.2</ele>
        <time>2024-03-29T15:54:45Z</time>
      </trkpt>
      <trkpt lat="50.12351" lon="4.13388">
        <ele>224</ele>
        <time>2024-03-29T15:54:46Z</time>
      </trkpt>
      <trkpt lat="50.12347" lon="4.13399">
        <ele>224</ele>
        <time>2024-03-29T15:54:47Z</time>
      </trkpt>
      <trkpt lat="50.12344" lon="4.13411">
        <ele>223.4</ele>
        <time>2024-03-29T15:54:48Z</time>
      </trkpt>
      <trkpt lat="50.12339" lon="4.13424">
        <ele>222.8</ele>
        <time>2024-03-29T15:54:49Z</time>
      </trkpt>
      <trkpt lat="50.12335" lon="4.13437">
        <ele>222.2</ele>
        <time>2024-03-29T15:54:50Z</time>
      </trkpt>
      <trkpt lat="50.1233" lon="4.1345">
        <ele>221.8</ele>
        <time>2024-03-29T15:54:51Z</time>
      </trkpt>
      <trkpt lat="50.12325" lon="4.13463">
        <ele>221.4</ele>
        <time>2024-03-29T15:54:52Z</time>
      </trkpt>
      <trkpt lat="50.12319" lon="4.13477">
        <ele>220.6</ele>
        <time>2024-03-29T15:54:53Z</time>
      </trkpt>
      <trkpt lat="50.12313" lon="4.13492">
        <ele>220.2</ele>
        <time>2024-03-29T15:54:54Z</time>
      </trkpt>
      <trkpt lat="50.12306" lon="4.13506">
        <ele>219.8</ele>
        <time>2024-03-29T15:54:55Z</time>
      </trkpt>
      <trkpt lat="50.123" lon="4.13521">
        <ele>219.2</ele>
        <time>2024-03-29T15:54:56Z</time>
      </trkpt>
      <trkpt lat="50.12293" lon="4.13535">
        <ele>218.4</ele>
        <time>2024-03-29T15:54:57Z</time>
      </trkpt>
      <trkpt lat="50.12286" lon="4.1355">
        <ele>217.4</ele>
        <time>2024-03-29T15:54:58Z</time>
      </trkpt>
      <trkpt lat="50.12279" lon="4.13565">
        <ele>216.4</ele>
        <time>2024-03-29T15:54:59Z</time>
      </trkpt>
      <trkpt lat="50.12272" lon="4.1358">
        <ele>215.4</ele>
        <time>2024-03-29T15:55:00Z</time>
      </trkpt>
      <trkpt lat="50.12266" lon="4.13594">
        <ele>214.4</ele>
        <time>2024-03-29T15:55:01Z</time>
      </trkpt>
      <trkpt lat="50.12259" lon="4.13608">
        <ele>213</ele>
        <time>2024-03-29T15:55:02Z</time>
      </trkpt>
      <trkpt lat="50.12252" lon="4.13622">
        <ele>213</ele>
        <time>2024-03-29T15:55:03Z</time>
      </trkpt>
      <trkpt lat="50.12246" lon="4.13635">
        <ele>212.2</ele>
        <time>2024-03-29T15:55:04Z</time>
      </trkpt>
      <trkpt lat="50.1224" lon="4.13648">
        <ele>211.2</ele>
        <time>2024-03-29T15:55:05Z</time>
      </trkpt>
      <trkpt lat="50.12234" lon="4.1366">
        <ele>209.6</ele>
        <time>2024-03-29T15:55:06Z</time>
      </trkpt>
      <trkpt lat="50.12229" lon="4.13671">
        <ele>208.4</ele>
        <time>2024-03-29T15:55:07Z</time>
      </trkpt>
      <trkpt lat="50.12223" lon="4.13682">
        <ele>207.4</ele>
        <time>2024-03-29T15:55:08Z</time>
      </trkpt>
      <trkpt lat="50.12218" lon="4.13692">
        <ele>207</ele>
        <time>2024-03-29T15:55:09Z</time>
      </trkpt>
      <trkpt lat="50.12214" lon="4.13702">
        <ele>206.8</ele>
        <time>2024-03-29T15:55:10Z</time>
      </trkpt>
      <trkpt lat="50.1221" lon="4.13711">
        <ele>206.8</ele>
        <time>2024-03-29T15:55:11Z</time>
      </trkpt>
      <trkpt lat="50.12206" lon="4.1372">
        <ele>206.6</ele>
        <time>2024-03-29T15:55:12Z</time>
      </trkpt>
      <trkpt lat="50.12202" lon="4.13728">
        <ele>206.6</ele>
        <time>2024-03-29T15:55:13Z</time>
      </trkpt>
      <trkpt lat="50.12199" lon="4.13736">
        <ele>206.8</ele>
        <time>2024-03-29T15:55:14Z</time>
      </trkpt>
      <trkpt lat="50.12195" lon="4.13743">
        <ele>206.6</ele>
        <time>2024-03-29T15:55:15Z</time>
      </trkpt>
      <trkpt lat="50.12192" lon="4.1375">
        <ele>206.6</ele>
        <time>2024-03-29T15:55:16Z</time>
      </trkpt>
      <trkpt lat="50.1219" lon="4.13756">
        <ele>206.6</ele>
        <time>2024-03-29T15:55:17Z</time>
      </trkpt>
      <trkpt lat="50.12188" lon="4.13762">
        <ele>206.8</ele>
        <time>2024-03-29T15:55:18Z</time>
      </trkpt>
      <trkpt lat="50.12186" lon="4.13767">
        <ele>207.4</ele>
        <time>2024-03-29T15:55:19Z</time>
      </trkpt>
      <trkpt lat="50.12184" lon="4.13772">
        <ele>207.6</ele>
        <time>2024-03-29T15:55:20Z</time>
      </trkpt>
      <trkpt lat="50.12182" lon="4.13777">
        <ele>208.2</ele>
        <time>2024-03-29T15:55:21Z</time>
      </trkpt>
      <trkpt lat="50.1218" lon="4.13781">
        <ele>208.8</ele>
        <time>2024-03-29T15:55:22Z</time>
      </trkpt>
      <trkpt lat="50.12178" lon="4.13785">
        <ele>209.4</ele>
        <time>2024-03-29T15:55:23Z</time>
      </trkpt>
      <trkpt lat="50.12177" lon="4.1379">
        <ele>210.6</ele>
        <time>2024-03-29T15:55:24Z</time>
      </trkpt>
      <trkpt lat="50.12175" lon="4.13794">
        <ele>210.6</ele>
        <time>2024-03-29T15:55:25Z</time>
      </trkpt>
      <trkpt lat="50.12173" lon="4.13798">
        <ele>211.4</ele>
        <time>2024-03-29T15:55:26Z</time>
      </trkpt>
      <trkpt lat="50.12171" lon="4.13802">
        <ele>212</ele>
        <time>2024-03-29T15:55:27Z</time>
      </trkpt>
      <trkpt lat="50.1217" lon="4.13806">
        <ele>212.6</ele>
        <time>2024-03-29T15:55:28Z</time>
      </trkpt>
      <trkpt lat="50.12168" lon="4.1381">
        <ele>213.4</ele>
        <time>2024-03-29T15:55:29Z</time>
      </trkpt>
      <trkpt lat="50.12167" lon="4.13814">
        <ele>213.8</ele>
        <time>2024-03-29T15:55:30Z</time>
      </trkpt>
      <trkpt lat="50.12166" lon="4.13818">
        <ele>214.4</ele>
        <time>2024-03-29T15:55:31Z</time>
      </trkpt>
      <trkpt lat="50.12165" lon="4.13823">
        <ele>215</ele>
        <time>2024-03-29T15:55:32Z</time>
      </trkpt>
      <trkpt lat="50.12164" lon="4.13826">
        <ele>215.4</ele>
        <time>2024-03-29T15:55:33Z</time>
      </trkpt>
      <trkpt lat="50.12163" lon="4.1383">
        <ele>215.8</ele>
        <time>2024-03-29T15:55:34Z</time>
      </trkpt>
      <trkpt lat="50.12162" lon="4.13834">
        <ele>216.2</ele>
        <time>2024-03-29T15:55:35Z</time>
      </trkpt>
      <trkpt lat="50.1216" lon="4.13839">
        <ele>216.8</ele>
        <time>2024-03-29T15:55:36Z</time>
      </trkpt>
      <trkpt lat="50.12159" lon="4.13843">
        <ele>217.4</ele>
        <time>2024-03-29T15:55:37Z</time>
      </trkpt>
      <trkpt lat="50.12158" lon="4.13847">
        <ele>217.8</ele>
        <time>2024-03-29T15:55:38Z</time>
      </trkpt>
      <trkpt lat="50.12156" lon="4.13851">
        <ele>218.2</ele>
        <time>2024-03-29T15:55:39Z</time>
      </trkpt>
      <trkpt lat="50.12154" lon="4.13856">
        <ele>218.4</ele>
        <time>2024-03-29T15:55:40Z</time>
      </trkpt>
      <trkpt lat="50.12153" lon="4.1386">
        <ele>218.6</ele>
        <time>2024-03-29T15:55:41Z</time>
      </trkpt>
      <trkpt lat="50.12152" lon="4.13864">
        <ele>219.2</ele>
        <time>2024-03-29T15:55:42Z</time>
      </trkpt>
      <trkpt lat="50.1215" lon="4.13868">
        <ele>219.6</ele>
        <time>2024-03-29T15:55:43Z</time>
      </trkpt>
      <trkpt lat="50.12149" lon="4.13872">
        <ele>220</ele>
        <time>2024-03-29T15:55:44Z</time>
      </trkpt>
      <trkpt lat="50.12147" lon="4.13876">
        <ele>220.4</ele>
        <time>2024-03-29T15:55:45Z</time>
      </trkpt>
      <trkpt lat="50.12146" lon="4.1388">
        <ele>220.8</ele>
        <time>2024-03-29T15:55:46Z</time>
      </trkpt>
      <trkpt lat="50.12145" lon="4.13884">
        <ele>220.8</ele>
        <time>2024-03-29T15:55:47Z</time>
      </trkpt>
      <trkpt lat="50.12145" lon="4.13889">
        <ele>221.2</ele>
        <time>2024-03-29T15:55:48Z</time>
      </trkpt>
      <trkpt lat="50.12144" lon="4.13893">
        <ele>221.4</ele>
        <time>2024-03-29T15:55:49Z</time>
      </trkpt>
      <trkpt lat="50.12143" lon="4.13898">
        <ele>221.8</ele>
        <time>2024-03-29T15:55:50Z</time>
      </trkpt>
      <trkpt lat="50.12142" lon="4.13903">
        <ele>222</ele>
        <time>2024-03-29T15:55:51Z</time>
      </trkpt>
      <trkpt lat="50.12142" lon="4.13908">
        <ele>222.2</ele>
        <time>2024-03-29T15:55:52Z</time>
      </trkpt>
      <trkpt lat="50.12141" lon="4.13913">
        <ele>222.6</ele>
        <time>2024-03-29T15:55:53Z</time>
      </trkpt>
      <trkpt lat="50.12141" lon="4.13918">
        <ele>222.6</ele>
        <time>2024-03-29T15:55:54Z</time>
      </trkpt>
      <trkpt lat="50.12141" lon="4.13923">
        <ele>222.8</ele>
        <time>2024-03-29T15:55:55Z</time>
      </trkpt>
      <trkpt lat="50.12139" lon="4.13927">
        <ele>223</ele>
        <time>2024-03-29T15:55:56Z</time>
      </trkpt>
      <trkpt lat="50.12138" lon="4.13932">
        <ele>224</ele>
        <time>2024-03-29T15:55:57Z</time>
      </trkpt>
      <trkpt lat="50.12137" lon="4.13937">
        <ele>224.4</ele>
        <time>2024-03-29T15:55:58Z</time>
      </trkpt>
      <trkpt lat="50.12137" lon="4.13942">
        <ele>224.8</ele>
        <time>2024-03-29T15:55:59Z</time>
      </trkpt>
      <trkpt lat="50.12137" lon="4.13948">
        <ele>225.4</ele>
        <time>2024-03-29T15:56:00Z</time>
      </trkpt>
      <trkpt lat="50.12136" lon="4.13954">
        <ele>225.8</ele>
        <time>2024-03-29T15:56:01Z</time>
      </trkpt>
      <trkpt lat="50.12136" lon="4.1396">
        <ele>225.8</ele>
        <time>2024-03-29T15:56:02Z</time>
      </trkpt>
      <trkpt lat="50.12136" lon="4.13966">
        <ele>226</ele>
        <time>2024-03-29T15:56:03Z</time>
      </trkpt>
      <trkpt lat="50.12136" lon="4.13972">
        <ele>226.2</ele>
        <time>2024-03-29T15:56:04Z</time>
      </trkpt>
      <trkpt lat="50.12136" lon="4.13978">
        <ele>226.6</ele>
        <time>2024-03-29T15:56:05Z</time>
      </trkpt>
      <trkpt lat="50.12136" lon="4.13984">
        <ele>226.8</ele>
        <time>2024-03-29T15:56:06Z</time>
      </trkpt>
      <trkpt lat="50.12136" lon="4.1399">
        <ele>227.2</ele>
        <time>2024-03-29T15:56:07Z</time>
      </trkpt>
      <trkpt lat="50.12136" lon="4.13995">
        <ele>227.6</ele>
        <time>2024-03-29T15:56:08Z</time>
      </trkpt>
      <trkpt lat="50.12137" lon="4.14001">
        <ele>227.6</ele>
        <time>2024-03-29T15:56:09Z</time>
      </trkpt>
      <trkpt lat="50.12137" lon="4.14007">
        <ele>228</ele>
        <time>2024-03-29T15:56:10Z</time>
      </trkpt>
      <trkpt lat="50.12137" lon="4.14012">
        <ele>228</ele>
        <time>2024-03-29T15:56:11Z</time>
      </trkpt>
      <trkpt lat="50.12138" lon="4.14018">
        <ele>228.2</ele>
        <time>2024-03-29T15:56:12Z</time>
      </trkpt>
      <trkpt lat="50.12138" lon="4.14024">
        <ele>228.2</ele>
        <time>2024-03-29T15:56:13Z</time>
      </trkpt>
      <trkpt lat="50.12138" lon="4.1403">
        <ele>228.4</ele>
        <time>2024-03-29T15:56:14Z</time>
      </trkpt>
      <trkpt lat="50.12139" lon="4.14036">
        <ele>228.4</ele>
        <time>2024-03-29T15:56:15Z</time>
      </trkpt>
      <trkpt lat="50.12139" lon="4.14042">
        <ele>228.6</ele>
        <time>2024-03-29T15:56:16Z</time>
      </trkpt>
      <trkpt lat="50.1214" lon="4.14047">
        <ele>228.6</ele>
        <time>2024-03-29T15:56:17Z</time>
      </trkpt>
      <trkpt lat="50.12141" lon="4.14053">
        <ele>228.6</ele>
        <time>2024-03-29T15:56:18Z</time>
      </trkpt>
      <trkpt lat="50.12143" lon="4.1406">
        <ele>228.8</ele>
        <time>2024-03-29T15:56:19Z</time>
      </trkpt>
      <trkpt lat="50.12143" lon="4.14066">
        <ele>229</ele>
        <time>2024-03-29T15:56:20Z</time>
      </trkpt>
      <trkpt lat="50.12144" lon="4.14072">
        <ele>229</ele>
        <time>2024-03-29T15:56:21Z</time>
      </trkpt>
      <trkpt lat="50.12145" lon="4.14078">
        <ele>229.4</ele>
        <time>2024-03-29T15:56:22Z</time>
      </trkpt>
      <trkpt lat="50.12146" lon="4.14084">
        <ele>229.8</ele>
        <time>2024-03-29T15:56:23Z</time>
      </trkpt>
      <trkpt lat="50.12147" lon="4.14091">
        <ele>230</ele>
        <time>2024-03-29T15:56:24Z</time>
      </trkpt>
      <trkpt lat="50.12149" lon="4.14097">
        <ele>230.2</ele>
        <time>2024-03-29T15:56:25Z</time>
      </trkpt>
      <trkpt lat="50.12151" lon="4.14104">
        <ele>230.4</ele>
        <time>2024-03-29T15:56:26Z</time>
      </trkpt>
      <trkpt lat="50.12152" lon="4.14111">
        <ele>230.4</ele>
        <time>2024-03-29T15:56:27Z</time>
      </trkpt>
      <trkpt lat="50.12154" lon="4.14118">
        <ele>230.4</ele>
        <time>2024-03-29T15:56:28Z</time>
      </trkpt>
      <trkpt lat="50.12156" lon="4.14125">
        <ele>230.6</ele>
        <time>2024-03-29T15:56:29Z</time>
      </trkpt>
      <trkpt lat="50.12158" lon="4.14132">
        <ele>230.6</ele>
        <time>2024-03-29T15:56:30Z</time>
      </trkpt>
      <trkpt lat="50.1216" lon="4.1414">
        <ele>230.6</ele>
        <time>2024-03-29T15:56:31Z</time>
      </trkpt>
      <trkpt lat="50.12163" lon="4.14147">
        <ele>230.6</ele>
        <time>2024-03-29T15:56:32Z</time>
      </trkpt>
      <trkpt lat="50.12165" lon="4.14155">
        <ele>230.6</ele>
        <time>2024-03-29T15:56:33Z</time>
      </trkpt>
      <trkpt lat="50.12168" lon="4.14163">
        <ele>230.6</ele>
        <time>2024-03-29T15:56:34Z</time>
      </trkpt>
      <trkpt lat="50.12171" lon="4.14171">
        <ele>230.6</ele>
        <time>2024-03-29T15:56:35Z</time>
      </trkpt>
      <trkpt lat="50.12175" lon="4.1418">
        <ele>230.6</ele>
        <time>2024-03-29T15:56:36Z</time>
      </trkpt>
      <trkpt lat="50.12178" lon="4.14188">
        <ele>230.6</ele>
        <time>2024-03-29T15:56:37Z</time>
      </trkpt>
      <trkpt lat="50.12182" lon="4.14197">
        <ele>230.6</ele>
        <time>2024-03-29T15:56:38Z</time>
      </trkpt>
      <trkpt lat="50.12187" lon="4.14207">
        <ele>230.6</ele>
        <time>2024-03-29T15:56:39Z</time>
      </trkpt>
      <trkpt lat="50.12192" lon="4.14217">
        <ele>230.2</ele>
        <time>2024-03-29T15:56:40Z</time>
      </trkpt>
      <trkpt lat="50.12197" lon="4.14227">
        <ele>230.2</ele>
        <time>2024-03-29T15:56:41Z</time>
      </trkpt>
      <trkpt lat="50.12202" lon="4.14238">
        <ele>230</ele>
        <time>2024-03-29T15:56:42Z</time>
      </trkpt>
      <trkpt lat="50.12207" lon="4.1425">
        <ele>229.8</ele>
        <time>2024-03-29T15:56:43Z</time>
      </trkpt>
      <trkpt lat="50.12213" lon="4.14262">
        <ele>229.4</ele>
        <time>2024-03-29T15:56:44Z</time>
      </trkpt>
      <trkpt lat="50.12219" lon="4.14275">
        <ele>229.2</ele>
        <time>2024-03-29T15:56:45Z</time>
      </trkpt>
      <trkpt lat="50.12225" lon="4.14288">
        <ele>228.6</ele>
        <time>2024-03-29T15:56:46Z</time>
      </trkpt>
      <trkpt lat="50.12231" lon="4.14302">
        <ele>228</ele>
        <time>2024-03-29T15:56:47Z</time>
      </trkpt>
      <trkpt lat="50.12238" lon="4.14316">
        <ele>227.8</ele>
        <time>2024-03-29T15:56:48Z</time>
      </trkpt>
      <trkpt lat="50.12244" lon="4.14329">
        <ele>227</ele>
        <time>2024-03-29T15:56:49Z</time>
      </trkpt>
      <trkpt lat="50.12251" lon="4.14343">
        <ele>226.6</ele>
        <time>2024-03-29T15:56:50Z</time>
      </trkpt>
      <trkpt lat="50.12258" lon="4.14357">
        <ele>225.4</ele>
        <time>2024-03-29T15:56:51Z</time>
      </trkpt>
      <trkpt lat="50.12264" lon="4.1437">
        <ele>224.4</ele>
        <time>2024-03-29T15:56:52Z</time>
      </trkpt>
      <trkpt lat="50.1227" lon="4.14384">
        <ele>224.4</ele>
        <time>2024-03-29T15:56:53Z</time>
      </trkpt>
      <trkpt lat="50.12276" lon="4.14397">
        <ele>223.2</ele>
        <time>2024-03-29T15:56:54Z</time>
      </trkpt>
      <trkpt lat="50.12282" lon="4.1441">
        <ele>221.6</ele>
        <time>2024-03-29T15:56:55Z</time>
      </trkpt>
      <trkpt lat="50.12287" lon="4.14422">
        <ele>220.2</ele>
        <time>2024-03-29T15:56:56Z</time>
      </trkpt>
      <trkpt lat="50.12293" lon="4.14434">
        <ele>219.2</ele>
        <time>2024-03-29T15:56:57Z</time>
      </trkpt>
      <trkpt lat="50.12298" lon="4.14445">
        <ele>218.6</ele>
        <time>2024-03-29T15:56:58Z</time>
      </trkpt>
      <trkpt lat="50.12303" lon="4.14456">
        <ele>218.4</ele>
        <time>2024-03-29T15:56:59Z</time>
      </trkpt>
      <trkpt lat="50.12308" lon="4.14466">
        <ele>218.2</ele>
        <time>2024-03-29T15:57:00Z</time>
      </trkpt>
      <trkpt lat="50.12312" lon="4.14476">
        <ele>218.2</ele>
        <time>2024-03-29T15:57:01Z</time>
      </trkpt>
      <trkpt lat="50.12316" lon="4.14485">
        <ele>218.2</ele>
        <time>2024-03-29T15:57:02Z</time>
      </trkpt>
      <trkpt lat="50.1232" lon="4.14494">
        <ele>218.2</ele>
        <time>2024-03-29T15:57:03Z</time>
      </trkpt>
      <trkpt lat="50.12324" lon="4.14503">
        <ele>218.2</ele>
        <time>2024-03-29T15:57:04Z</time>
      </trkpt>
      <trkpt lat="50.12328" lon="4.14511">
        <ele>218.2</ele>
        <time>2024-03-29T15:57:05Z</time>
      </trkpt>
      <trkpt lat="50.12332" lon="4.14518">
        <ele>218.2</ele>
        <time>2024-03-29T15:57:06Z</time>
      </trkpt>
      <trkpt lat="50.12335" lon="4.14526">
        <ele>218.6</ele>
        <time>2024-03-29T15:57:07Z</time>
      </trkpt>
      <trkpt lat="50.12338" lon="4.14533">
        <ele>218.8</ele>
        <time>2024-03-29T15:57:08Z</time>
      </trkpt>
      <trkpt lat="50.12342" lon="4.14539">
        <ele>219.6</ele>
        <time>2024-03-29T15:57:09Z</time>
      </trkpt>
      <trkpt lat="50.12345" lon="4.14546">
        <ele>220.4</ele>
        <time>2024-03-29T15:57:10Z</time>
      </trkpt>
      <trkpt lat="50.12348" lon="4.14553">
        <ele>221</ele>
        <time>2024-03-29T15:57:11Z</time>
      </trkpt>
      <trkpt lat="50.12351" lon="4.14559">
        <ele>221.4</ele>
        <time>2024-03-29T15:57:12Z</time>
      </trkpt>
      <trkpt lat="50.12354" lon="4.14566">
        <ele>221.8</ele>
        <time>2024-03-29T15:57:13Z</time>
      </trkpt>
      <trkpt lat="50.12357" lon="4.14572">
        <ele>221.8</ele>
        <time>2024-03-29T15:57:14Z</time>
      </trkpt>
      <trkpt lat="50.1236" lon="4.14578">
        <ele>221.8</ele>
        <time>2024-03-29T15:57:15Z</time>
      </trkpt>
      <trkpt lat="50.12363" lon="4.14584">
        <ele>222.4</ele>
        <time>2024-03-29T15:57:16Z</time>
      </trkpt>
      <trkpt lat="50.12366" lon="4.1459">
        <ele>222.8</ele>
        <time>2024-03-29T15:57:17Z</time>
      </trkpt>
      <trkpt lat="50.12368" lon="4.14596">
        <ele>223.4</ele>
        <time>2024-03-29T15:57:18Z</time>
      </trkpt>
      <trkpt lat="50.12371" lon="4.14602">
        <ele>223.8</ele>
        <time>2024-03-29T15:57:19Z</time>
      </trkpt>
      <trkpt lat="50.12374" lon="4.14608">
        <ele>224</ele>
        <time>2024-03-29T15:57:20Z</time>
      </trkpt>
      <trkpt lat="50.12377" lon="4.14615">
        <ele>224.2</ele>
        <time>2024-03-29T15:57:21Z</time>
      </trkpt>
      <trkpt lat="50.12379" lon="4.14621">
        <ele>224.2</ele>
        <time>2024-03-29T15:57:22Z</time>
      </trkpt>
      <trkpt lat="50.12382" lon="4.14627">
        <ele>224.6</ele>
        <time>2024-03-29T15:57:23Z</time>
      </trkpt>
      <trkpt lat="50.12386" lon="4.14634">
        <ele>224.8</ele>
        <time>2024-03-29T15:57:24Z</time>
      </trkpt>
      <trkpt lat="50.12389" lon="4.1464">
        <ele>225.2</ele>
        <time>2024-03-29T15:57:25Z</time>
      </trkpt>
      <trkpt lat="50.12392" lon="4.14646">
        <ele>225.4</ele>
        <time>2024-03-29T15:57:26Z</time>
      </trkpt>
      <trkpt lat="50.12395" lon="4.14653">
        <ele>225.6</ele>
        <time>2024-03-29T15:57:27Z</time>
      </trkpt>
      <trkpt lat="50.12398" lon="4.14659">
        <ele>225.8</ele>
        <time>2024-03-29T15:57:28Z</time>
      </trkpt>
      <trkpt lat="50.12401" lon="4.14666">
        <ele>226</ele>
        <time>2024-03-29T15:57:29Z</time>
      </trkpt>
      <trkpt lat="50.12405" lon="4.14673">
        <ele>226.2</ele>
        <time>2024-03-29T15:57:30Z</time>
      </trkpt>
      <trkpt lat="50.12408" lon="4.14679">
        <ele>226.2</ele>
        <time>2024-03-29T15:57:31Z</time>
      </trkpt>
      <trkpt lat="50.12412" lon="4.14686">
        <ele>226.4</ele>
        <time>2024-03-29T15:57:32Z</time>
      </trkpt>
      <trkpt lat="50.12415" lon="4.14692">
        <ele>226.4</ele>
        <time>2024-03-29T15:57:33Z</time>
      </trkpt>
      <trkpt lat="50.12419" lon="4.14698">
        <ele>226.6</ele>
        <time>2024-03-29T15:57:34Z</time>
      </trkpt>
      <trkpt lat="50.12423" lon="4.14704">
        <ele>226.8</ele>
        <time>2024-03-29T15:57:35Z</time>
      </trkpt>
      <trkpt lat="50.12428" lon="4.14709">
        <ele>226.8</ele>
        <time>2024-03-29T15:57:36Z</time>
      </trkpt>
      <trkpt lat="50.12433" lon="4.14715">
        <ele>227</ele>
        <time>2024-03-29T15:57:37Z</time>
      </trkpt>
      <trkpt lat="50.12438" lon="4.1472">
        <ele>227</ele>
        <time>2024-03-29T15:57:38Z</time>
      </trkpt>
      <trkpt lat="50.12443" lon="4.14726">
        <ele>227</ele>
        <time>2024-03-29T15:57:39Z</time>
      </trkpt>
      <trkpt lat="50.12448" lon="4.14731">
        <ele>226.8</ele>
        <time>2024-03-29T15:57:40Z</time>
      </trkpt>
      <trkpt lat="50.12454" lon="4.14736">
        <ele>227</ele>
        <time>2024-03-29T15:57:41Z</time>
      </trkpt>
      <trkpt lat="50.12459" lon="4.14741">
        <ele>226.8</ele>
        <time>2024-03-29T15:57:42Z</time>
      </trkpt>
      <trkpt lat="50.12465" lon="4.14747">
        <ele>227</ele>
        <time>2024-03-29T15:57:43Z</time>
      </trkpt>
      <trkpt lat="50.12471" lon="4.14752">
        <ele>227</ele>
        <time>2024-03-29T15:57:44Z</time>
      </trkpt>
      <trkpt lat="50.12477" lon="4.14758">
        <ele>227</ele>
        <time>2024-03-29T15:57:45Z</time>
      </trkpt>
      <trkpt lat="50.12483" lon="4.14764">
        <ele>227</ele>
        <time>2024-03-29T15:57:46Z</time>
      </trkpt>
      <trkpt lat="50.1249" lon="4.14771">
        <ele>227</ele>
        <time>2024-03-29T15:57:47Z</time>
      </trkpt>
      <trkpt lat="50.12496" lon="4.14778">
        <ele>226.8</ele>
        <time>2024-03-29T15:57:48Z</time>
      </trkpt>
      <trkpt lat="50.12502" lon="4.14787">
        <ele>226.6</ele>
        <time>2024-03-29T15:57:49Z</time>
      </trkpt>
      <trkpt lat="50.12507" lon="4.14798">
        <ele>226.2</ele>
        <time>2024-03-29T15:57:50Z</time>
      </trkpt>
      <trkpt lat="50.12511" lon="4.14809">
        <ele>225.8</ele>
        <time>2024-03-29T15:57:51Z</time>
      </trkpt>
      <trkpt lat="50.12514" lon="4.14822">
        <ele>225.6</ele>
        <time>2024-03-29T15:57:52Z</time>
      </trkpt>
      <trkpt lat="50.12517" lon="4.14836">
        <ele>225.4</ele>
        <time>2024-03-29T15:57:53Z</time>
      </trkpt>
      <trkpt lat="50.12519" lon="4.1485">
        <ele>225</ele>
        <time>2024-03-29T15:57:54Z</time>
      </trkpt>
      <trkpt lat="50.12522" lon="4.14864">
        <ele>224.4</ele>
        <time>2024-03-29T15:57:55Z</time>
      </trkpt>
      <trkpt lat="50.12525" lon="4.14878">
        <ele>224.2</ele>
        <time>2024-03-29T15:57:56Z</time>
      </trkpt>
      <trkpt lat="50.12528" lon="4.14893">
        <ele>223.6</ele>
        <time>2024-03-29T15:57:57Z</time>
      </trkpt>
      <trkpt lat="50.12531" lon="4.14908">
        <ele>223</ele>
        <time>2024-03-29T15:57:58Z</time>
      </trkpt>
      <trkpt lat="50.12535" lon="4.14924">
        <ele>222.2</ele>
        <time>2024-03-29T15:57:59Z</time>
      </trkpt>
      <trkpt lat="50.12538" lon="4.14939">
        <ele>222.2</ele>
        <time>2024-03-29T15:58:00Z</time>
      </trkpt>
      <trkpt lat="50.12541" lon="4.14956">
        <ele>221.8</ele>
        <time>2024-03-29T15:58:01Z</time>
      </trkpt>
      <trkpt lat="50.12543" lon="4.14973">
        <ele>221</ele>
        <time>2024-03-29T15:58:02Z</time>
      </trkpt>
      <trkpt lat="50.12544" lon="4.14991">
        <ele>220.4</ele>
        <time>2024-03-29T15:58:03Z</time>
      </trkpt>
      <trkpt lat="50.12544" lon="4.15009">
        <ele>220</ele>
        <time>2024-03-29T15:58:04Z</time>
      </trkpt>
      <trkpt lat="50.12542" lon="4.15028">
        <ele>219.4</ele>
        <time>2024-03-29T15:58:05Z</time>
      </trkpt>
      <trkpt lat="50.12539" lon="4.15046">
        <ele>218.8</ele>
        <time>2024-03-29T15:58:06Z</time>
      </trkpt>
      <trkpt lat="50.12534" lon="4.15063">
        <ele>218.2</ele>
        <time>2024-03-29T15:58:07Z</time>
      </trkpt>
      <trkpt lat="50.12528" lon="4.15081">
        <ele>217.2</ele>
        <time>2024-03-29T15:58:08Z</time>
      </trkpt>
      <trkpt lat="50.12521" lon="4.15097">
        <ele>216</ele>
        <time>2024-03-29T15:58:09Z</time>
      </trkpt>
      <trkpt lat="50.12514" lon="4.15114">
        <ele>215</ele>
        <time>2024-03-29T15:58:10Z</time>
      </trkpt>
      <trkpt lat="50.12507" lon="4.15131">
        <ele>213.8</ele>
        <time>2024-03-29T15:58:11Z</time>
      </trkpt>
      <trkpt lat="50.12499" lon="4.15147">
        <ele>212.4</ele>
        <time>2024-03-29T15:58:12Z</time>
      </trkpt>
      <trkpt lat="50.1249" lon="4.15163">
        <ele>211</ele>
        <time>2024-03-29T15:58:13Z</time>
      </trkpt>
      <trkpt lat="50.12481" lon="4.15179">
        <ele>209.8</ele>
        <time>2024-03-29T15:58:14Z</time>
      </trkpt>
      <trkpt lat="50.12471" lon="4.15193">
        <ele>208.8</ele>
        <time>2024-03-29T15:58:15Z</time>
      </trkpt>
      <trkpt lat="50.12461" lon="4.15207">
        <ele>207.8</ele>
        <time>2024-03-29T15:58:16Z</time>
      </trkpt>
      <trkpt lat="50.1245" lon="4.1522">
        <ele>207.4</ele>
        <time>2024-03-29T15:58:17Z</time>
      </trkpt>
      <trkpt lat="50.12439" lon="4.15233">
        <ele>206</ele>
        <time>2024-03-29T15:58:18Z</time>
      </trkpt>
      <trkpt lat="50.12428" lon="4.15246">
        <ele>205.2</ele>
        <time>2024-03-29T15:58:19Z</time>
      </trkpt>
      <trkpt lat="50.12417" lon="4.15259">
        <ele>203.8</ele>
        <time>2024-03-29T15:58:20Z</time>
      </trkpt>
      <trkpt lat="50.12405" lon="4.15271">
        <ele>202.6</ele>
        <time>2024-03-29T15:58:21Z</time>
      </trkpt>
      <trkpt lat="50.12394" lon="4.15284">
        <ele>202.6</ele>
        <time>2024-03-29T15:58:22Z</time>
      </trkpt>
      <trkpt lat="50.12383" lon="4.15297">
        <ele>200.4</ele>
        <time>2024-03-29T15:58:23Z</time>
      </trkpt>
      <trkpt lat="50.12372" lon="4.1531">
        <ele>199.6</ele>
        <time>2024-03-29T15:58:24Z</time>
      </trkpt>
      <trkpt lat="50.12361" lon="4.15322">
        <ele>198.2</ele>
        <time>2024-03-29T15:58:25Z</time>
      </trkpt>
      <trkpt lat="50.12351" lon="4.15335">
        <ele>197</ele>
        <time>2024-03-29T15:58:26Z</time>
      </trkpt>
      <trkpt lat="50.12341" lon="4.15347">
        <ele>195.2</ele>
        <time>2024-03-29T15:58:27Z</time>
      </trkpt>
      <trkpt lat="50.12331" lon="4.1536">
        <ele>193.8</ele>
        <time>2024-03-29T15:58:28Z</time>
      </trkpt>
      <trkpt lat="50.12322" lon="4.15373">
        <ele>192.6</ele>
        <time>2024-03-29T15:58:29Z</time>
      </trkpt>
      <trkpt lat="50.12314" lon="4.15385">
        <ele>190.6</ele>
        <time>2024-03-29T15:58:30Z</time>
      </trkpt>
      <trkpt lat="50.12307" lon="4.15398">
        <ele>189</ele>
        <time>2024-03-29T15:58:31Z</time>
      </trkpt>
      <trkpt lat="50.123" lon="4.1541">
        <ele>188.2</ele>
        <time>2024-03-29T15:58:32Z</time>
      </trkpt>
      <trkpt lat="50.12294" lon="4.15422">
        <ele>188</ele>
        <time>2024-03-29T15:58:33Z</time>
      </trkpt>
      <trkpt lat="50.12288" lon="4.15433">
        <ele>187.6</ele>
        <time>2024-03-29T15:58:34Z</time>
      </trkpt>
      <trkpt lat="50.12283" lon="4.15444">
        <ele>187.6</ele>
        <time>2024-03-29T15:58:35Z</time>
      </trkpt>
      <trkpt lat="50.12278" lon="4.15455">
        <ele>187.6</ele>
        <time>2024-03-29T15:58:36Z</time>
      </trkpt>
      <trkpt lat="50.12273" lon="4.15465">
        <ele>187.4</ele>
        <time>2024-03-29T15:58:37Z</time>
      </trkpt>
      <trkpt lat="50.12268" lon="4.15475">
        <ele>187.6</ele>
        <time>2024-03-29T15:58:38Z</time>
      </trkpt>
      <trkpt lat="50.12264" lon="4.15484">
        <ele>187.6</ele>
        <time>2024-03-29T15:58:39Z</time>
      </trkpt>
      <trkpt lat="50.1226" lon="4.15493">
        <ele>187.6</ele>
        <time>2024-03-29T15:58:40Z</time>
      </trkpt>
      <trkpt lat="50.12256" lon="4.15501">
        <ele>187.4</ele>
        <time>2024-03-29T15:58:41Z</time>
      </trkpt>
      <trkpt lat="50.12253" lon="4.15509">
        <ele>187.6</ele>
        <time>2024-03-29T15:58:42Z</time>
      </trkpt>
      <trkpt lat="50.1225" lon="4.15517">
        <ele>188.6</ele>
        <time>2024-03-29T15:58:43Z</time>
      </trkpt>
      <trkpt lat="50.12247" lon="4.15525">
        <ele>188.6</ele>
        <time>2024-03-29T15:58:44Z</time>
      </trkpt>
      <trkpt lat="50.12244" lon="4.15532">
        <ele>189.8</ele>
        <time>2024-03-29T15:58:45Z</time>
      </trkpt>
      <trkpt lat="50.12242" lon="4.1554">
        <ele>191.2</ele>
        <time>2024-03-29T15:58:46Z</time>
      </trkpt>
      <trkpt lat="50.1224" lon="4.15547">
        <ele>192.2</ele>
        <time>2024-03-29T15:58:47Z</time>
      </trkpt>
      <trkpt lat="50.12238" lon="4.15554">
        <ele>192.6</ele>
        <time>2024-03-29T15:58:48Z</time>
      </trkpt>
      <trkpt lat="50.12237" lon="4.15562">
        <ele>193</ele>
        <time>2024-03-29T15:58:49Z</time>
      </trkpt>
      <trkpt lat="50.12235" lon="4.15569">
        <ele>193.4</ele>
        <time>2024-03-29T15:58:50Z</time>
      </trkpt>
      <trkpt lat="50.12234" lon="4.15575">
        <ele>193.8</ele>
        <time>2024-03-29T15:58:51Z</time>
      </trkpt>
      <trkpt lat="50.12233" lon="4.15581">
        <ele>194.6</ele>
        <time>2024-03-29T15:58:52Z</time>
      </trkpt>
      <trkpt lat="50.12232" lon="4.15588">
        <ele>195.4</ele>
        <time>2024-03-29T15:58:53Z</time>
      </trkpt>
      <trkpt lat="50.12232" lon="4.15594">
        <ele>196.6</ele>
        <time>2024-03-29T15:58:54Z</time>
      </trkpt>
      <trkpt lat="50.12231" lon="4.156">
        <ele>197</ele>
        <time>2024-03-29T15:58:55Z</time>
      </trkpt>
      <trkpt lat="50.1223" lon="4.15606">
        <ele>197.8</ele>
        <time>2024-03-29T15:58:56Z</time>
      </trkpt>
      <trkpt lat="50.12229" lon="4.15611">
        <ele>198.4</ele>
        <time>2024-03-29T15:58:57Z</time>
      </trkpt>
      <trkpt lat="50.12228" lon="4.15617">
        <ele>198.8</ele>
        <time>2024-03-29T15:58:58Z</time>
      </trkpt>
      <trkpt lat="50.12227" lon="4.15623">
        <ele>199</ele>
        <time>2024-03-29T15:58:59Z</time>
      </trkpt>
      <trkpt lat="50.12226" lon="4.15628">
        <ele>199</ele>
        <time>2024-03-29T15:59:00Z</time>
      </trkpt>
      <trkpt lat="50.12225" lon="4.15633">
        <ele>199.4</ele>
        <time>2024-03-29T15:59:01Z</time>
      </trkpt>
      <trkpt lat="50.12224" lon="4.15639">
        <ele>199.8</ele>
        <time>2024-03-29T15:59:02Z</time>
      </trkpt>
      <trkpt lat="50.12224" lon="4.15644">
        <ele>200.2</ele>
        <time>2024-03-29T15:59:03Z</time>
      </trkpt>
      <trkpt lat="50.12223" lon="4.15649">
        <ele>200.6</ele>
        <time>2024-03-29T15:59:04Z</time>
      </trkpt>
      <trkpt lat="50.12222" lon="4.15653">
        <ele>200.8</ele>
        <time>2024-03-29T15:59:05Z</time>
      </trkpt>
      <trkpt lat="50.12221" lon="4.15658">
        <ele>201.2</ele>
        <time>2024-03-29T15:59:06Z</time>
      </trkpt>
      <trkpt lat="50.1222" lon="4.15663">
        <ele>201.2</ele>
        <time>2024-03-29T15:59:07Z</time>
      </trkpt>
      <trkpt lat="50.1222" lon="4.15667">
        <ele>201.2</ele>
        <time>2024-03-29T15:59:08Z</time>
      </trkpt>
      <trkpt lat="50.12219" lon="4.15672">
        <ele>201.4</ele>
        <time>2024-03-29T15:59:09Z</time>
      </trkpt>
      <trkpt lat="50.12218" lon="4.15676">
        <ele>201.4</ele>
        <time>2024-03-29T15:59:10Z</time>
      </trkpt>
      <trkpt lat="50.12217" lon="4.15681">
        <ele>201.8</ele>
        <time>2024-03-29T15:59:11Z</time>
      </trkpt>
      <trkpt lat="50.12216" lon="4.15685">
        <ele>202.2</ele>
        <time>2024-03-29T15:59:12Z</time>
      </trkpt>
      <trkpt lat="50.12215" lon="4.1569">
        <ele>202.2</ele>
        <time>2024-03-29T15:59:13Z</time>
      </trkpt>
      <trkpt lat="50.12214" lon="4.15694">
        <ele>202.4</ele>
        <time>2024-03-29T15:59:14Z</time>
      </trkpt>
      <trkpt lat="50.12213" lon="4.15699">
        <ele>202.8</ele>
        <time>2024-03-29T15:59:15Z</time>
      </trkpt>
      <trkpt lat="50.12212" lon="4.15703">
        <ele>202.8</ele>
        <time>2024-03-29T15:59:16Z</time>
      </trkpt>
      <trkpt lat="50.12211" lon="4.15708">
        <ele>203</ele>
        <time>2024-03-29T15:59:17Z</time>
      </trkpt>
      <trkpt lat="50.12209" lon="4.15712">
        <ele>203.2</ele>
        <time>2024-03-29T15:59:18Z</time>
      </trkpt>
      <trkpt lat="50.12208" lon="4.15717">
        <ele>203.4</ele>
        <time>2024-03-29T15:59:19Z</time>
      </trkpt>
      <trkpt lat="50.12207" lon="4.15721">
        <ele>204.2</ele>
        <time>2024-03-29T15:59:20Z</time>
      </trkpt>
      <trkpt lat="50.12206" lon="4.15726">
        <ele>204.8</ele>
        <time>2024-03-29T15:59:21Z</time>
      </trkpt>
      <trkpt lat="50.12205" lon="4.1573">
        <ele>205.2</ele>
        <time>2024-03-29T15:59:22Z</time>
      </trkpt>
      <trkpt lat="50.12203" lon="4.15735">
        <ele>205.6</ele>
        <time>2024-03-29T15:59:23Z</time>
      </trkpt>
      <trkpt lat="50.12202" lon="4.15739">
        <ele>205.6</ele>
        <time>2024-03-29T15:59:24Z</time>
      </trkpt>
      <trkpt lat="50.12201" lon="4.15744">
        <ele>206</ele>
        <time>2024-03-29T15:59:25Z</time>
      </trkpt>
      <trkpt lat="50.122" lon="4.15749">
        <ele>206.4</ele>
        <time>2024-03-29T15:59:26Z</time>
      </trkpt>
      <trkpt lat="50.12198" lon="4.15753">
        <ele>206.4</ele>
        <time>2024-03-29T15:59:27Z</time>
      </trkpt>
      <trkpt lat="50.12197" lon="4.15758">
        <ele>206.6</ele>
        <time>2024-03-29T15:59:28Z</time>
      </trkpt>
      <trkpt lat="50.12196" lon="4.15762">
        <ele>207</ele>
        <time>2024-03-29T15:59:29Z</time>
      </trkpt>
      <trkpt lat="50.12195" lon="4.15767">
        <ele>207</ele>
        <time>2024-03-29T15:59:30Z</time>
      </trkpt>
      <trkpt lat="50.12193" lon="4.15771">
        <ele>207</ele>
        <time>2024-03-29T15:59:31Z</time>
      </trkpt>
      <trkpt lat="50.12192" lon="4.15776">
        <ele>207</ele>
        <time>2024-03-29T15:59:32Z</time>
      </trkpt>
      <trkpt lat="50.12191" lon="4.1578">
        <ele>207.4</ele>
        <time>2024-03-29T15:59:33Z</time>
      </trkpt>
      <trkpt lat="50.12189" lon="4.15785">
        <ele>207.6</ele>
        <time>2024-03-29T15:59:34Z</time>
      </trkpt>
      <trkpt lat="50.12188" lon="4.15789">
        <ele>207.8</ele>
        <time>2024-03-29T15:59:35Z</time>
      </trkpt>
      <trkpt lat="50.12187" lon="4.15793">
        <ele>208</ele>
        <time>2024-03-29T15:59:36Z</time>
      </trkpt>
      <trkpt lat="50.12186" lon="4.15798">
        <ele>208</ele>
        <time>2024-03-29T15:59:37Z</time>
      </trkpt>
      <trkpt lat="50.12184" lon="4.15802">
        <ele>208</ele>
        <time>2024-03-29T15:59:38Z</time>
      </trkpt>
      <trkpt lat="50.12183" lon="4.15807">
        <ele>208.4</ele>
        <time>2024-03-29T15:59:39Z</time>
      </trkpt>
      <trkpt lat="50.12182" lon="4.15811">
        <ele>208.4</ele>
        <time>2024-03-29T15:59:40Z</time>
      </trkpt>
      <trkpt lat="50.12181" lon="4.15816">
        <ele>208.4</ele>
        <time>2024-03-29T15:59:41Z</time>
      </trkpt>
      <trkpt lat="50.12179" lon="4.1582">
        <ele>208.8</ele>
        <time>2024-03-29T15:59:42Z</time>
      </trkpt>
      <trkpt lat="50.12178" lon="4.15825">
        <ele>208.8</ele>
        <time>2024-03-29T15:59:43Z</time>
      </trkpt>
      <trkpt lat="50.12177" lon="4.1583">
        <ele>209</ele>
        <time>2024-03-29T15:59:44Z</time>
      </trkpt>
      <trkpt lat="50.12175" lon="4.15835">
        <ele>209.4</ele>
        <time>2024-03-29T15:59:45Z</time>
      </trkpt>
      <trkpt lat="50.12174" lon="4.1584">
        <ele>209.6</ele>
        <time>2024-03-29T15:59:46Z</time>
      </trkpt>
      <trkpt lat="50.12172" lon="4.15845">
        <ele>209.6</ele>
        <time>2024-03-29T15:59:47Z</time>
      </trkpt>
      <trkpt lat="50.12171" lon="4.15851">
        <ele>210</ele>
        <time>2024-03-29T15:59:48Z</time>
      </trkpt>
      <trkpt lat="50.12169" lon="4.15857">
        <ele>210</ele>
        <time>2024-03-29T15:59:49Z</time>
      </trkpt>
      <trkpt lat="50.12167" lon="4.15862">
        <ele>210.4</ele>
        <time>2024-03-29T15:59:50Z</time>
      </trkpt>
      <trkpt lat="50.12166" lon="4.15868">
        <ele>211</ele>
        <time>2024-03-29T15:59:51Z</time>
      </trkpt>
      <trkpt lat="50.12164" lon="4.15875">
        <ele>211</ele>
        <time>2024-03-29T15:59:52Z</time>
      </trkpt>
      <trkpt lat="50.12162" lon="4.15881">
        <ele>211.4</ele>
        <time>2024-03-29T15:59:53Z</time>
      </trkpt>
      <trkpt lat="50.12161" lon="4.15888">
        <ele>211.6</ele>
        <time>2024-03-29T15:59:54Z</time>
      </trkpt>
      <trkpt lat="50.12159" lon="4.15896">
        <ele>211.8</ele>
        <time>2024-03-29T15:59:55Z</time>
      </trkpt>
      <trkpt lat="50.12158" lon="4.15904">
        <ele>211.8</ele>
        <time>2024-03-29T15:59:56Z</time>
      </trkpt>
      <trkpt lat="50.12157" lon="4.15912">
        <ele>211.8</ele>
        <time>2024-03-29T15:59:57Z</time>
      </trkpt>
      <trkpt lat="50.12156" lon="4.15921">
        <ele>212</ele>
        <time>2024-03-29T15:59:58Z</time>
      </trkpt>
      <trkpt lat="50.12156" lon="4.1593">
        <ele>211.8</ele>
        <time>2024-03-29T15:59:59Z</time>
      </trkpt>
      <trkpt lat="50.12156" lon="4.1594">
        <ele>211.8</ele>
        <time>2024-03-29T16:00:00Z</time>
      </trkpt>
      <trkpt lat="50.12157" lon="4.1595">
        <ele>211.8</ele>
        <time>2024-03-29T16:00:01Z</time>
      </trkpt>
      <trkpt lat="50.12159" lon="4.15961">
        <ele>211.8</ele>
        <time>2024-03-29T16:00:02Z</time>
      </trkpt>
      <trkpt lat="50.12161" lon="4.15972">
        <ele>211.8</ele>
        <time>2024-03-29T16:00:03Z</time>
      </trkpt>
      <trkpt lat="50.12164" lon="4.15983">
        <ele>211.8</ele>
        <time>2024-03-29T16:00:04Z</time>
      </trkpt>
      <trkpt lat="50.12168" lon="4.15994">
        <ele>211.6</ele>
        <time>2024-03-29T16:00:05Z</time>
      </trkpt>
      <trkpt lat="50.12173" lon="4.16004">
        <ele>211.6</ele>
        <time>2024-03-29T16:00:06Z</time>
      </trkpt>
      <trkpt lat="50.12178" lon="4.16014">
        <ele>211.4</ele>
        <time>2024-03-29T16:00:07Z</time>
      </trkpt>
      <trkpt lat="50.12183" lon="4.16023">
        <ele>211.2</ele>
        <time>2024-03-29T16:00:08Z</time>
      </trkpt>
      <trkpt lat="50.12189" lon="4.16032">
        <ele>210.8</ele>
        <time>2024-03-29T16:00:09Z</time>
      </trkpt>
      <trkpt lat="50.12194" lon="4.1604">
        <ele>210</ele>
        <time>2024-03-29T16:00:10Z</time>
      </trkpt>
      <trkpt lat="50.122" lon="4.16049">
        <ele>209.8</ele>
        <time>2024-03-29T16:00:11Z</time>
      </trkpt>
      <trkpt lat="50.12205" lon="4.16058">
        <ele>209.2</ele>
        <time>2024-03-29T16:00:12Z</time>
      </trkpt>
      <trkpt lat="50.12211" lon="4.16067">
        <ele>208.6</ele>
        <time>2024-03-29T16:00:13Z</time>
      </trkpt>
      <trkpt lat="50.12216" lon="4.16075">
        <ele>207.6</ele>
        <time>2024-03-29T16:00:14Z</time>
      </trkpt>
      <trkpt lat="50.12222" lon="4.16084">
        <ele>207.6</ele>
        <time>2024-03-29T16:00:15Z</time>
      </trkpt>
      <trkpt lat="50.12227" lon="4.16092">
        <ele>207.2</ele>
        <time>2024-03-29T16:00:16Z</time>
      </trkpt>
      <trkpt lat="50.12232" lon="4.161">
        <ele>207</ele>
        <time>2024-03-29T16:00:17Z</time>
      </trkpt>
      <trkpt lat="50.12238" lon="4.16109">
        <ele>206.8</ele>
        <time>2024-03-29T16:00:18Z</time>
      </trkpt>
      <trkpt lat="50.12243" lon="4.16117">
        <ele>206.8</ele>
        <time>2024-03-29T16:00:19Z</time>
      </trkpt>
      <trkpt lat="50.12248" lon="4.16125">
        <ele>206.6</ele>
        <time>2024-03-29T16:00:20Z</time>
      </trkpt>
      <trkpt lat="50.12253" lon="4.16133">
        <ele>206.6</ele>
        <time>2024-03-29T16:00:21Z</time>
      </trkpt>
      <trkpt lat="50.12259" lon="4.16141">
        <ele>206.4</ele>
        <time>2024-03-29T16:00:22Z</time>
      </trkpt>
      <trkpt lat="50.12264" lon="4.1615">
        <ele>206.4</ele>
        <time>2024-03-29T16:00:23Z</time>
      </trkpt>
      <trkpt lat="50.12269" lon="4.16158">
        <ele>206.4</ele>
        <time>2024-03-29T16:00:24Z</time>
      </trkpt>
      <trkpt lat="50.12275" lon="4.16167">
        <ele>206.4</ele>
        <time>2024-03-29T16:00:25Z</time>
      </trkpt>
      <trkpt lat="50.1228" lon="4.16175">
        <ele>206.2</ele>
        <time>2024-03-29T16:00:26Z</time>
      </trkpt>
      <trkpt lat="50.12286" lon="4.16185">
        <ele>206.2</ele>
        <time>2024-03-29T16:00:27Z</time>
      </trkpt>
      <trkpt lat="50.12292" lon="4.16194">
        <ele>205.8</ele>
        <time>2024-03-29T16:00:28Z</time>
      </trkpt>
      <trkpt lat="50.12298" lon="4.16204">
        <ele>205.8</ele>
        <time>2024-03-29T16:00:29Z</time>
      </trkpt>
      <trkpt lat="50.12303" lon="4.16215">
        <ele>205.6</ele>
        <time>2024-03-29T16:00:30Z</time>
      </trkpt>
      <trkpt lat="50.12308" lon="4.16228">
        <ele>205.2</ele>
        <time>2024-03-29T16:00:31Z</time>
      </trkpt>
      <trkpt lat="50.12312" lon="4.16241">
        <ele>205</ele>
        <time>2024-03-29T16:00:32Z</time>
      </trkpt>
      <trkpt lat="50.12315" lon="4.16255">
        <ele>204.4</ele>
        <time>2024-03-29T16:00:33Z</time>
      </trkpt>
      <trkpt lat="50.12317" lon="4.1627">
        <ele>204.2</ele>
        <time>2024-03-29T16:00:34Z</time>
      </trkpt>
      <trkpt lat="50.12318" lon="4.16285">
        <ele>204</ele>
        <time>2024-03-29T16:00:35Z</time>
      </trkpt>
      <trkpt lat="50.12318" lon="4.16301">
        <ele>203.6</ele>
        <time>2024-03-29T16:00:36Z</time>
      </trkpt>
      <trkpt lat="50.12317" lon="4.16317">
        <ele>203.6</ele>
        <time>2024-03-29T16:00:37Z</time>
      </trkpt>
      <trkpt lat="50.12315" lon="4.16332">
        <ele>203.2</ele>
        <time>2024-03-29T16:00:38Z</time>
      </trkpt>
      <trkpt lat="50.12311" lon="4.16346">
        <ele>202.4</ele>
        <time>2024-03-29T16:00:39Z</time>
      </trkpt>
      <trkpt lat="50.12306" lon="4.1636">
        <ele>201.8</ele>
        <time>2024-03-29T16:00:40Z</time>
      </trkpt>
      <trkpt lat="50.12301" lon="4.16374">
        <ele>201.2</ele>
        <time>2024-03-29T16:00:41Z</time>
      </trkpt>
      <trkpt lat="50.12296" lon="4.16387">
        <ele>200.8</ele>
        <time>2024-03-29T16:00:42Z</time>
      </trkpt>
      <trkpt lat="50.1229" lon="4.16399">
        <ele>200.2</ele>
        <time>2024-03-29T16:00:43Z</time>
      </trkpt>
      <trkpt lat="50.12285" lon="4.16412">
        <ele>199.6</ele>
        <time>2024-03-29T16:00:44Z</time>
      </trkpt>
      <trkpt lat="50.1228" lon="4.16424">
        <ele>199</ele>
        <time>2024-03-29T16:00:45Z</time>
      </trkpt>
      <trkpt lat="50.12274" lon="4.16436">
        <ele>198.2</ele>
        <time>2024-03-29T16:00:46Z</time>
      </trkpt>
      <trkpt lat="50.12269" lon="4.16448">
        <ele>197.4</ele>
        <time>2024-03-29T16:00:47Z</time>
      </trkpt>
      <trkpt lat="50.12265" lon="4.1646">
        <ele>196.8</ele>
        <time>2024-03-29T16:00:48Z</time>
      </trkpt>
      <trkpt lat="50.12261" lon="4.16472">
        <ele>195.8</ele>
        <time>2024-03-29T16:00:49Z</time>
      </trkpt>
      <trkpt lat="50.12258" lon="4.16485">
        <ele>195</ele>
        <time>2024-03-29T16:00:50Z</time>
      </trkpt>
      <trkpt lat="50.12256" lon="4.16498">
        <ele>194.6</ele>
        <time>2024-03-29T16:00:51Z</time>
      </trkpt>
      <trkpt lat="50.12254" lon="4.16511">
        <ele>194.2</ele>
        <time>2024-03-29T16:00:52Z</time>
      </trkpt>
      <trkpt lat="50.12252" lon="4.16525">
        <ele>194.4</ele>
        <time>2024-03-29T16:00:53Z</time>
      </trkpt>
      <trkpt lat="50.1225" lon="4.16538">
        <ele>194</ele>
        <time>2024-03-29T16:00:54Z</time>
      </trkpt>
      <trkpt lat="50.12248" lon="4.16552">
        <ele>194</ele>
        <time>2024-03-29T16:00:55Z</time>
      </trkpt>
      <trkpt lat="50.12245" lon="4.16565">
        <ele>194</ele>
        <time>2024-03-29T16:00:56Z</time>
      </trkpt>
      <trkpt lat="50.12241" lon="4.16578">
        <ele>193.8</ele>
        <time>2024-03-29T16:00:57Z</time>
      </trkpt>
      <trkpt lat="50.12236" lon="4.16591">
        <ele>193.6</ele>
        <time>2024-03-29T16:00:58Z</time>
      </trkpt>
      <trkpt lat="50.12231" lon="4.16604">
        <ele>193.6</ele>
        <time>2024-03-29T16:00:59Z</time>
      </trkpt>
      <trkpt lat="50.12224" lon="4.16616">
        <ele>193.6</ele>
        <time>2024-03-29T16:01:00Z</time>
      </trkpt>
      <trkpt lat="50.12218" lon="4.16628">
        <ele>193.4</ele>
        <time>2024-03-29T16:01:01Z</time>
      </trkpt>
      <trkpt lat="50.12211" lon="4.1664">
        <ele>193.6</ele>
        <time>2024-03-29T16:01:02Z</time>
      </trkpt>
      <trkpt lat="50.12204" lon="4.16652">
        <ele>193.4</ele>
        <time>2024-03-29T16:01:03Z</time>
      </trkpt>
      <trkpt lat="50.12198" lon="4.16665">
        <ele>193.4</ele>
        <time>2024-03-29T16:01:04Z</time>
      </trkpt>
      <trkpt lat="50.12191" lon="4.16678">
        <ele>193.4</ele>
        <time>2024-03-29T16:01:05Z</time>
      </trkpt>
      <trkpt lat="50.12185" lon="4.16691">
        <ele>193.2</ele>
        <time>2024-03-29T16:01:06Z</time>
      </trkpt>
      <trkpt lat="50.12179" lon="4.16705">
        <ele>192.6</ele>
        <time>2024-03-29T16:01:07Z</time>
      </trkpt>
      <trkpt lat="50.12173" lon="4.16718">
        <ele>191.6</ele>
        <time>2024-03-29T16:01:08Z</time>
      </trkpt>
      <trkpt lat="50.12167" lon="4.16732">
        <ele>190.4</ele>
        <time>2024-03-29T16:01:09Z</time>
      </trkpt>
      <trkpt lat="50.12162" lon="4.16746">
        <ele>189.4</ele>
        <time>2024-03-29T16:01:10Z</time>
      </trkpt>
      <trkpt lat="50.12157" lon="4.16759">
        <ele>189</ele>
        <time>2024-03-29T16:01:11Z</time>
      </trkpt>
      <trkpt lat="50.12152" lon="4.16772">
        <ele>188.6</ele>
        <time>2024-03-29T16:01:12Z</time>
      </trkpt>
      <trkpt lat="50.12147" lon="4.16784">
        <ele>188.4</ele>
        <time>2024-03-29T16:01:13Z</time>
      </trkpt>
      <trkpt lat="50.12142" lon="4.16797">
        <ele>188.2</ele>
        <time>2024-03-29T16:01:14Z</time>
      </trkpt>
      <trkpt lat="50.12139" lon="4.16809">
        <ele>187.4</ele>
        <time>2024-03-29T16:01:15Z</time>
      </trkpt>
      <trkpt lat="50.12135" lon="4.1682">
        <ele>187.2</ele>
        <time>2024-03-29T16:01:16Z</time>
      </trkpt>
      <trkpt lat="50.12132" lon="4.16832">
        <ele>187</ele>
        <time>2024-03-29T16:01:17Z</time>
      </trkpt>
      <trkpt lat="50.1213" lon="4.16842">
        <ele>186.8</ele>
        <time>2024-03-29T16:01:18Z</time>
      </trkpt>
      <trkpt lat="50.12127" lon="4.16853">
        <ele>186.8</ele>
        <time>2024-03-29T16:01:19Z</time>
      </trkpt>
      <trkpt lat="50.12125" lon="4.16863">
        <ele>186.8</ele>
        <time>2024-03-29T16:01:20Z</time>
      </trkpt>
      <trkpt lat="50.12124" lon="4.16872">
        <ele>186.8</ele>
        <time>2024-03-29T16:01:21Z</time>
      </trkpt>
      <trkpt lat="50.12122" lon="4.16882">
        <ele>186.8</ele>
        <time>2024-03-29T16:01:22Z</time>
      </trkpt>
      <trkpt lat="50.12121" lon="4.16891">
        <ele>186.8</ele>
        <time>2024-03-29T16:01:23Z</time>
      </trkpt>
      <trkpt lat="50.1212" lon="4.169">
        <ele>186.8</ele>
        <time>2024-03-29T16:01:24Z</time>
      </trkpt>
      <trkpt lat="50.12118" lon="4.16909">
        <ele>186.8</ele>
        <time>2024-03-29T16:01:25Z</time>
      </trkpt>
      <trkpt lat="50.12117" lon="4.16918">
        <ele>187</ele>
        <time>2024-03-29T16:01:26Z</time>
      </trkpt>
      <trkpt lat="50.12116" lon="4.16927">
        <ele>187.4</ele>
        <time>2024-03-29T16:01:27Z</time>
      </trkpt>
      <trkpt lat="50.12115" lon="4.16936">
        <ele>188</ele>
        <time>2024-03-29T16:01:28Z</time>
      </trkpt>
      <trkpt lat="50.12114" lon="4.16945">
        <ele>189</ele>
        <time>2024-03-29T16:01:29Z</time>
      </trkpt>
      <trkpt lat="50.12112" lon="4.16954">
        <ele>189.6</ele>
        <time>2024-03-29T16:01:30Z</time>
      </trkpt>
      <trkpt lat="50.12111" lon="4.16963">
        <ele>190</ele>
        <time>2024-03-29T16:01:31Z</time>
      </trkpt>
      <trkpt lat="50.1211" lon="4.16972">
        <ele>190.4</ele>
        <time>2024-03-29T16:01:32Z</time>
      </trkpt>
      <trkpt lat="50.12109" lon="4.1698">
        <ele>191</ele>
        <time>2024-03-29T16:01:33Z</time>
      </trkpt>
      <trkpt lat="50.12108" lon="4.16989">
        <ele>191</ele>
        <time>2024-03-29T16:01:34Z</time>
      </trkpt>
      <trkpt lat="50.12107" lon="4.16998">
        <ele>191.2</ele>
        <time>2024-03-29T16:01:35Z</time>
      </trkpt>
      <trkpt lat="50.12105" lon="4.17006">
        <ele>191.4</ele>
        <time>2024-03-29T16:01:36Z</time>
      </trkpt>
      <trkpt lat="50.12104" lon="4.17015">
        <ele>191.8</ele>
        <time>2024-03-29T16:01:37Z</time>
      </trkpt>
      <trkpt lat="50.12102" lon="4.17024">
        <ele>192</ele>
        <time>2024-03-29T16:01:38Z</time>
      </trkpt>
      <trkpt lat="50.12101" lon="4.17032">
        <ele>192</ele>
        <time>2024-03-29T16:01:39Z</time>
      </trkpt>
      <trkpt lat="50.12099" lon="4.17041">
        <ele>192</ele>
        <time>2024-03-29T16:01:40Z</time>
      </trkpt>
      <trkpt lat="50.12097" lon="4.17049">
        <ele>192.2</ele>
        <time>2024-03-29T16:01:41Z</time>
      </trkpt>
      <trkpt lat="50.12095" lon="4.17058">
        <ele>192.2</ele>
        <time>2024-03-29T16:01:42Z</time>
      </trkpt>
      <trkpt lat="50.12093" lon="4.17066">
        <ele>192.2</ele>
        <time>2024-03-29T16:01:43Z</time>
      </trkpt>
      <trkpt lat="50.12091" lon="4.17075">
        <ele>192.2</ele>
        <time>2024-03-29T16:01:44Z</time>
      </trkpt>
      <trkpt lat="50.12089" lon="4.17083">
        <ele>192.4</ele>
        <time>2024-03-29T16:01:45Z</time>
      </trkpt>
      <trkpt lat="50.12088" lon="4.17092">
        <ele>192.4</ele>
        <time>2024-03-29T16:01:46Z</time>
      </trkpt>
      <trkpt lat="50.12086" lon="4.17101">
        <ele>192.4</ele>
        <time>2024-03-29T16:01:47Z</time>
      </trkpt>
      <trkpt lat="50.12085" lon="4.17111">
        <ele>192.4</ele>
        <time>2024-03-29T16:01:48Z</time>
      </trkpt>
      <trkpt lat="50.12084" lon="4.1712">
        <ele>192.4</ele>
        <time>2024-03-29T16:01:49Z</time>
      </trkpt>
      <trkpt lat="50.12083" lon="4.17129">
        <ele>192.4</ele>
        <time>2024-03-29T16:01:50Z</time>
      </trkpt>
      <trkpt lat="50.12082" lon="4.17139">
        <ele>192.4</ele>
        <time>2024-03-29T16:01:51Z</time>
      </trkpt>
      <trkpt lat="50.12081" lon="4.17149">
        <ele>192.2</ele>
        <time>2024-03-29T16:01:52Z</time>
      </trkpt>
      <trkpt lat="50.1208" lon="4.17158">
        <ele>192.4</ele>
        <time>2024-03-29T16:01:53Z</time>
      </trkpt>
      <trkpt lat="50.12079" lon="4.17168">
        <ele>192.4</ele>
        <time>2024-03-29T16:01:54Z</time>
      </trkpt>
      <trkpt lat="50.12079" lon="4.17178">
        <ele>192.2</ele>
        <time>2024-03-29T16:01:55Z</time>
      </trkpt>
      <trkpt lat="50.12078" lon="4.17187">
        <ele>192.2</ele>
        <time>2024-03-29T16:01:56Z</time>
      </trkpt>
      <trkpt lat="50.12077" lon="4.17196">
        <ele>192</ele>
        <time>2024-03-29T16:01:57Z</time>
      </trkpt>
      <trkpt lat="50.12076" lon="4.17205">
        <ele>192</ele>
        <time>2024-03-29T16:01:58Z</time>
      </trkpt>
      <trkpt lat="50.12075" lon="4.17214">
        <ele>191.8</ele>
        <time>2024-03-29T16:01:59Z</time>
      </trkpt>
      <trkpt lat="50.12074" lon="4.17222">
        <ele>191.8</ele>
        <time>2024-03-29T16:02:00Z</time>
      </trkpt>
      <trkpt lat="50.12072" lon="4.17231">
        <ele>191.8</ele>
        <time>2024-03-29T16:02:01Z</time>
      </trkpt>
      <trkpt lat="50.12071" lon="4.17239">
        <ele>191.8</ele>
        <time>2024-03-29T16:02:02Z</time>
      </trkpt>
      <trkpt lat="50.1207" lon="4.17247">
        <ele>192</ele>
        <time>2024-03-29T16:02:03Z</time>
      </trkpt>
      <trkpt lat="50.12068" lon="4.17255">
        <ele>192.2</ele>
        <time>2024-03-29T16:02:04Z</time>
      </trkpt>
      <trkpt lat="50.12067" lon="4.17263">
        <ele>192</ele>
        <time>2024-03-29T16:02:05Z</time>
      </trkpt>
      <trkpt lat="50.12066" lon="4.17271">
        <ele>192</ele>
        <time>2024-03-29T16:02:06Z</time>
      </trkpt>
      <trkpt lat="50.12065" lon="4.17279">
        <ele>192</ele>
        <time>2024-03-29T16:02:07Z</time>
      </trkpt>
      <trkpt lat="50.12063" lon="4.17286">
        <ele>192.2</ele>
        <time>2024-03-29T16:02:08Z</time>
      </trkpt>
      <trkpt lat="50.12062" lon="4.17294">
        <ele>192.2</ele>
        <time>2024-03-29T16:02:09Z</time>
      </trkpt>
      <trkpt lat="50.12061" lon="4.17302">
        <ele>192.2</ele>
        <time>2024-03-29T16:02:10Z</time>
      </trkpt>
      <trkpt lat="50.1206" lon="4.17311">
        <ele>192.4</ele>
        <time>2024-03-29T16:02:11Z</time>
      </trkpt>
      <trkpt lat="50.12058" lon="4.17319">
        <ele>192.6</ele>
        <time>2024-03-29T16:02:12Z</time>
      </trkpt>
      <trkpt lat="50.12057" lon="4.17328">
        <ele>193</ele>
        <time>2024-03-29T16:02:13Z</time>
      </trkpt>
      <trkpt lat="50.12055" lon="4.17336">
        <ele>193.4</ele>
        <time>2024-03-29T16:02:14Z</time>
      </trkpt>
      <trkpt lat="50.12054" lon="4.17346">
        <ele>193.4</ele>
        <time>2024-03-29T16:02:15Z</time>
      </trkpt>
      <trkpt lat="50.12053" lon="4.17355">
        <ele>193.6</ele>
        <time>2024-03-29T16:02:16Z</time>
      </trkpt>
      <trkpt lat="50.12051" lon="4.17364">
        <ele>193.6</ele>
        <time>2024-03-29T16:02:17Z</time>
      </trkpt>
      <trkpt lat="50.12049" lon="4.17374">
        <ele>193.6</ele>
        <time>2024-03-29T16:02:18Z</time>
      </trkpt>
      <trkpt lat="50.12047" lon="4.17384">
        <ele>193.6</ele>
        <time>2024-03-29T16:02:19Z</time>
      </trkpt>
      <trkpt lat="50.12045" lon="4.17393">
        <ele>193.4</ele>
        <time>2024-03-29T16:02:20Z</time>
      </trkpt>
      <trkpt lat="50.12043" lon="4.17402">
        <ele>193.6</ele>
        <time>2024-03-29T16:02:21Z</time>
      </trkpt>
      <trkpt lat="50.12041" lon="4.17411">
        <ele>193.4</ele>
        <time>2024-03-29T16:02:22Z</time>
      </trkpt>
      <trkpt lat="50.12039" lon="4.1742">
        <ele>193.6</ele>
        <time>2024-03-29T16:02:23Z</time>
      </trkpt>
      <trkpt lat="50.12036" lon="4.17429">
        <ele>193.4</ele>
        <time>2024-03-29T16:02:24Z</time>
      </trkpt>
      <trkpt lat="50.12034" lon="4.17438">
        <ele>193.4</ele>
        <time>2024-03-29T16:02:25Z</time>
      </trkpt>
      <trkpt lat="50.12032" lon="4.17446">
        <ele>193.4</ele>
        <time>2024-03-29T16:02:26Z</time>
      </trkpt>
      <trkpt lat="50.1203" lon="4.17455">
        <ele>193.4</ele>
        <time>2024-03-29T16:02:27Z</time>
      </trkpt>
      <trkpt lat="50.12028" lon="4.17463">
        <ele>193.4</ele>
        <time>2024-03-29T16:02:28Z</time>
      </trkpt>
      <trkpt lat="50.12026" lon="4.17471">
        <ele>193.4</ele>
        <time>2024-03-29T16:02:29Z</time>
      </trkpt>
      <trkpt lat="50.12024" lon="4.17479">
        <ele>193.2</ele>
        <time>2024-03-29T16:02:30Z</time>
      </trkpt>
      <trkpt lat="50.12023" lon="4.17487">
        <ele>193.4</ele>
        <time>2024-03-29T16:02:31Z</time>
      </trkpt>
      <trkpt lat="50.12021" lon="4.17495">
        <ele>193.4</ele>
        <time>2024-03-29T16:02:32Z</time>
      </trkpt>
      <trkpt lat="50.12019" lon="4.17503">
        <ele>193.2</ele>
        <time>2024-03-29T16:02:33Z</time>
      </trkpt>
      <trkpt lat="50.12017" lon="4.17511">
        <ele>193.2</ele>
        <time>2024-03-29T16:02:34Z</time>
      </trkpt>
      <trkpt lat="50.12016" lon="4.17519">
        <ele>193.2</ele>
        <time>2024-03-29T16:02:35Z</time>
      </trkpt>
      <trkpt lat="50.12014" lon="4.17526">
        <ele>193.4</ele>
        <time>2024-03-29T16:02:36Z</time>
      </trkpt>
      <trkpt lat="50.12012" lon="4.17534">
        <ele>193.4</ele>
        <time>2024-03-29T16:02:37Z</time>
      </trkpt>
      <trkpt lat="50.12011" lon="4.17542">
        <ele>193.2</ele>
        <time>2024-03-29T16:02:38Z</time>
      </trkpt>
      <trkpt lat="50.12009" lon="4.1755">
        <ele>193.4</ele>
        <time>2024-03-29T16:02:39Z</time>
      </trkpt>
      <trkpt lat="50.12008" lon="4.17558">
        <ele>193.4</ele>
        <time>2024-03-29T16:02:40Z</time>
      </trkpt>
      <trkpt lat="50.12006" lon="4.17566">
        <ele>193.6</ele>
        <time>2024-03-29T16:02:41Z</time>
      </trkpt>
      <trkpt lat="50.12004" lon="4.17574">
        <ele>193.6</ele>
        <time>2024-03-29T16:02:42Z</time>
      </trkpt>
      <trkpt lat="50.12003" lon="4.17582">
        <ele>193.4</ele>
        <time>2024-03-29T16:02:43Z</time>
      </trkpt>
      <trkpt lat="50.12001" lon="4.1759">
        <ele>193.6</ele>
        <time>2024-03-29T16:02:44Z</time>
      </trkpt>
      <trkpt lat="50.12" lon="4.17598">
        <ele>193.6</ele>
        <time>2024-03-29T16:02:45Z</time>
      </trkpt>
      <trkpt lat="50.11998" lon="4.17607">
        <ele>193.6</ele>
        <time>2024-03-29T16:02:46Z</time>
      </trkpt>
      <trkpt lat="50.11997" lon="4.17615">
        <ele>193.8</ele>
        <time>2024-03-29T16:02:47Z</time>
      </trkpt>
      <trkpt lat="50.11996" lon="4.17624">
        <ele>193.6</ele>
        <time>2024-03-29T16:02:48Z</time>
      </trkpt>
      <trkpt lat="50.11995" lon="4.17633">
        <ele>193.8</ele>
        <time>2024-03-29T16:02:49Z</time>
      </trkpt>
      <trkpt lat="50.11994" lon="4.17642">
        <ele>194</ele>
        <time>2024-03-29T16:02:50Z</time>
      </trkpt>
      <trkpt lat="50.11993" lon="4.17652">
        <ele>194</ele>
        <time>2024-03-29T16:02:51Z</time>
      </trkpt>
      <trkpt lat="50.11992" lon="4.17661">
        <ele>193.8</ele>
        <time>2024-03-29T16:02:52Z</time>
      </trkpt>
      <trkpt lat="50.11991" lon="4.17671">
        <ele>194</ele>
        <time>2024-03-29T16:02:53Z</time>
      </trkpt>
      <trkpt lat="50.1199" lon="4.17681">
        <ele>194.2</ele>
        <time>2024-03-29T16:02:54Z</time>
      </trkpt>
      <trkpt lat="50.11989" lon="4.17691">
        <ele>194.4</ele>
        <time>2024-03-29T16:02:55Z</time>
      </trkpt>
      <trkpt lat="50.11988" lon="4.17702">
        <ele>194.4</ele>
        <time>2024-03-29T16:02:56Z</time>
      </trkpt>
      <trkpt lat="50.11986" lon="4.17712">
        <ele>194.4</ele>
        <time>2024-03-29T16:02:57Z</time>
      </trkpt>
      <trkpt lat="50.11984" lon="4.17723">
        <ele>194.4</ele>
        <time>2024-03-29T16:02:58Z</time>
      </trkpt>
      <trkpt lat="50.11983" lon="4.17733">
        <ele>194.6</ele>
        <time>2024-03-29T16:02:59Z</time>
      </trkpt>
      <trkpt lat="50.11981" lon="4.17744">
        <ele>194.4</ele>
        <time>2024-03-29T16:03:00Z</time>
      </trkpt>
      <trkpt lat="50.11978" lon="4.17755">
        <ele>194.4</ele>
        <time>2024-03-29T16:03:01Z</time>
      </trkpt>
      <trkpt lat="50.11973" lon="4.17765">
        <ele>194.4</ele>
        <time>2024-03-29T16:03:02Z</time>
      </trkpt>
      <trkpt lat="50.11967" lon="4.17773">
        <ele>194.2</ele>
        <time>2024-03-29T16:03:03Z</time>
      </trkpt>
      <trkpt lat="50.11959" lon="4.1778">
        <ele>193.8</ele>
        <time>2024-03-29T16:03:04Z</time>
      </trkpt>
      <trkpt lat="50.11951" lon="4.17785">
        <ele>193.6</ele>
        <time>2024-03-29T16:03:05Z</time>
      </trkpt>
      <trkpt lat="50.11942" lon="4.17788">
        <ele>193.2</ele>
        <time>2024-03-29T16:03:06Z</time>
      </trkpt>
      <trkpt lat="50.11932" lon="4.17789">
        <ele>193</ele>
        <time>2024-03-29T16:03:07Z</time>
      </trkpt>
      <trkpt lat="50.11923" lon="4.17788">
        <ele>192.6</ele>
        <time>2024-03-29T16:03:08Z</time>
      </trkpt>
      <trkpt lat="50.11913" lon="4.17788">
        <ele>192.4</ele>
        <time>2024-03-29T16:03:09Z</time>
      </trkpt>
      <trkpt lat="50.11904" lon="4.17786">
        <ele>192.2</ele>
        <time>2024-03-29T16:03:10Z</time>
      </trkpt>
      <trkpt lat="50.11894" lon="4.17785">
        <ele>191</ele>
        <time>2024-03-29T16:03:11Z</time>
      </trkpt>
      <trkpt lat="50.11885" lon="4.17785">
        <ele>190</ele>
        <time>2024-03-29T16:03:12Z</time>
      </trkpt>
      <trkpt lat="50.11875" lon="4.17785">
        <ele>190</ele>
        <time>2024-03-29T16:03:13Z</time>
      </trkpt>
      <trkpt lat="50.11867" lon="4.17785">
        <ele>189</ele>
        <time>2024-03-29T16:03:14Z</time>
      </trkpt>
      <trkpt lat="50.11858" lon="4.17787">
        <ele>187.8</ele>
        <time>2024-03-29T16:03:15Z</time>
      </trkpt>
      <trkpt lat="50.11849" lon="4.17788">
        <ele>187</ele>
        <time>2024-03-29T16:03:16Z</time>
      </trkpt>
      <trkpt lat="50.11841" lon="4.17791">
        <ele>186.4</ele>
        <time>2024-03-29T16:03:17Z</time>
      </trkpt>
      <trkpt lat="50.11834" lon="4.17795">
        <ele>186</ele>
        <time>2024-03-29T16:03:18Z</time>
      </trkpt>
      <trkpt lat="50.11827" lon="4.17801">
        <ele>185.6</ele>
        <time>2024-03-29T16:03:19Z</time>
      </trkpt>
      <trkpt lat="50.1182" lon="4.17807">
        <ele>185.6</ele>
        <time>2024-03-29T16:03:20Z</time>
      </trkpt>
      <trkpt lat="50.11814" lon="4.17813">
        <ele>185.6</ele>
        <time>2024-03-29T16:03:21Z</time>
      </trkpt>
      <trkpt lat="50.11808" lon="4.1782">
        <ele>185.6</ele>
        <time>2024-03-29T16:03:22Z</time>
      </trkpt>
      <trkpt lat="50.11802" lon="4.17826">
        <ele>185.6</ele>
        <time>2024-03-29T16:03:23Z</time>
      </trkpt>
      <trkpt lat="50.11797" lon="4.17832">
        <ele>185.4</ele>
        <time>2024-03-29T16:03:24Z</time>
      </trkpt>
      <trkpt lat="50.11791" lon="4.17838">
        <ele>185.6</ele>
        <time>2024-03-29T16:03:25Z</time>
      </trkpt>
      <trkpt lat="50.11785" lon="4.17844">
        <ele>185.6</ele>
        <time>2024-03-29T16:03:26Z</time>
      </trkpt>
      <trkpt lat="50.11779" lon="4.1785">
        <ele>185.8</ele>
        <time>2024-03-29T16:03:27Z</time>
      </trkpt>
      <trkpt lat="50.11773" lon="4.17856">
        <ele>186.2</ele>
        <time>2024-03-29T16:03:28Z</time>
      </trkpt>
      <trkpt lat="50.11766" lon="4.17861">
        <ele>186.2</ele>
        <time>2024-03-29T16:03:29Z</time>
      </trkpt>
      <trkpt lat="50.11759" lon="4.17866">
        <ele>186.6</ele>
        <time>2024-03-29T16:03:30Z</time>
      </trkpt>
      <trkpt lat="50.11752" lon="4.1787">
        <ele>186.6</ele>
        <time>2024-03-29T16:03:31Z</time>
      </trkpt>
      <trkpt lat="50.11745" lon="4.17873">
        <ele>186.6</ele>
        <time>2024-03-29T16:03:32Z</time>
      </trkpt>
      <trkpt lat="50.11738" lon="4.17875">
        <ele>187</ele>
        <time>2024-03-29T16:03:33Z</time>
      </trkpt>
      <trkpt lat="50.1173" lon="4.17878">
        <ele>186.8</ele>
        <time>2024-03-29T16:03:34Z</time>
      </trkpt>
      <trkpt lat="50.11723" lon="4.1788">
        <ele>187.2</ele>
        <time>2024-03-29T16:03:35Z</time>
      </trkpt>
      <trkpt lat="50.11717" lon="4.17883">
        <ele>187.2</ele>
        <time>2024-03-29T16:03:36Z</time>
      </trkpt>
      <trkpt lat="50.1171" lon="4.17886">
        <ele>187.4</ele>
        <time>2024-03-29T16:03:37Z</time>
      </trkpt>
      <trkpt lat="50.11704" lon="4.17889">
        <ele>187.4</ele>
        <time>2024-03-29T16:03:38Z</time>
      </trkpt>
      <trkpt lat="50.11698" lon="4.17892">
        <ele>187.4</ele>
        <time>2024-03-29T16:03:39Z</time>
      </trkpt>
      <trkpt lat="50.11693" lon="4.17895">
        <ele>187.6</ele>
        <time>2024-03-29T16:03:40Z</time>
      </trkpt>
      <trkpt lat="50.11688" lon="4.17898">
        <ele>187.8</ele>
        <time>2024-03-29T16:03:41Z</time>
      </trkpt>
      <trkpt lat="50.11683" lon="4.17901">
        <ele>187.8</ele>
        <time>2024-03-29T16:03:42Z</time>
      </trkpt>
      <trkpt lat="50.11678" lon="4.17905">
        <ele>188</ele>
        <time>2024-03-29T16:03:43Z</time>
      </trkpt>
      <trkpt lat="50.11674" lon="4.17908">
        <ele>188</ele>
        <time>2024-03-29T16:03:44Z</time>
      </trkpt>
      <trkpt lat="50.1167" lon="4.17911">
        <ele>188</ele>
        <time>2024-03-29T16:03:45Z</time>
      </trkpt>
      <trkpt lat="50.11667" lon="4.17914">
        <ele>188.2</ele>
        <time>2024-03-29T16:03:46Z</time>
      </trkpt>
      <trkpt lat="50.11663" lon="4.17917">
        <ele>188.4</ele>
        <time>2024-03-29T16:03:47Z</time>
      </trkpt>
      <trkpt lat="50.1166" lon="4.17919">
        <ele>188.6</ele>
        <time>2024-03-29T16:03:48Z</time>
      </trkpt>
      <trkpt lat="50.11657" lon="4.17922">
        <ele>188.8</ele>
        <time>2024-03-29T16:03:49Z</time>
      </trkpt>
      <trkpt lat="50.11654" lon="4.17924">
        <ele>189.4</ele>
        <time>2024-03-29T16:03:50Z</time>
      </trkpt>
      <trkpt lat="50.11651" lon="4.17926">
        <ele>189.8</ele>
        <time>2024-03-29T16:03:51Z</time>
      </trkpt>
      <trkpt lat="50.11648" lon="4.17929">
        <ele>190.2</ele>
        <time>2024-03-29T16:03:52Z</time>
      </trkpt>
      <trkpt lat="50.11646" lon="4.17931">
        <ele>190.4</ele>
        <time>2024-03-29T16:03:53Z</time>
      </trkpt>
      <trkpt lat="50.11643" lon="4.17933">
        <ele>190.8</ele>
        <time>2024-03-29T16:03:54Z</time>
      </trkpt>
      <trkpt lat="50.1164" lon="4.17935">
        <ele>191.2</ele>
        <time>2024-03-29T16:03:55Z</time>
      </trkpt>
      <trkpt lat="50.11638" lon="4.17938">
        <ele>191.8</ele>
        <time>2024-03-29T16:03:56Z</time>
      </trkpt>
      <trkpt lat="50.11635" lon="4.1794">
        <ele>192.2</ele>
        <time>2024-03-29T16:03:57Z</time>
      </trkpt>
      <trkpt lat="50.11632" lon="4.17943">
        <ele>192.2</ele>
        <time>2024-03-29T16:03:58Z</time>
      </trkpt>
      <trkpt lat="50.1163" lon="4.17946">
        <ele>192.4</ele>
        <time>2024-03-29T16:03:59Z</time>
      </trkpt>
      <trkpt lat="50.11627" lon="4.17949">
        <ele>192.8</ele>
        <time>2024-03-29T16:04:00Z</time>
      </trkpt>
      <trkpt lat="50.11625" lon="4.17951">
        <ele>193</ele>
        <time>2024-03-29T16:04:01Z</time>
      </trkpt>
      <trkpt lat="50.11622" lon="4.17954">
        <ele>193.2</ele>
        <time>2024-03-29T16:04:02Z</time>
      </trkpt>
      <trkpt lat="50.11619" lon="4.17957">
        <ele>193.6</ele>
        <time>2024-03-29T16:04:03Z</time>
      </trkpt>
      <trkpt lat="50.11617" lon="4.1796">
        <ele>194</ele>
        <time>2024-03-29T16:04:04Z</time>
      </trkpt>
      <trkpt lat="50.11614" lon="4.17963">
        <ele>194.4</ele>
        <time>2024-03-29T16:04:05Z</time>
      </trkpt>
      <trkpt lat="50.11611" lon="4.17966">
        <ele>194.8</ele>
        <time>2024-03-29T16:04:06Z</time>
      </trkpt>
      <trkpt lat="50.11609" lon="4.17969">
        <ele>195.2</ele>
        <time>2024-03-29T16:04:07Z</time>
      </trkpt>
      <trkpt lat="50.11606" lon="4.17972">
        <ele>195.2</ele>
        <time>2024-03-29T16:04:08Z</time>
      </trkpt>
      <trkpt lat="50.11603" lon="4.17975">
        <ele>195.4</ele>
        <time>2024-03-29T16:04:09Z</time>
      </trkpt>
      <trkpt lat="50.11601" lon="4.17978">
        <ele>195.6</ele>
        <time>2024-03-29T16:04:10Z</time>
      </trkpt>
      <trkpt lat="50.11598" lon="4.17981">
        <ele>195.8</ele>
        <time>2024-03-29T16:04:11Z</time>
      </trkpt>
      <trkpt lat="50.11596" lon="4.17984">
        <ele>195.8</ele>
        <time>2024-03-29T16:04:12Z</time>
      </trkpt>
      <trkpt lat="50.11593" lon="4.17987">
        <ele>196</ele>
        <time>2024-03-29T16:04:13Z</time>
      </trkpt>
      <trkpt lat="50.11591" lon="4.17991">
        <ele>196.2</ele>
        <time>2024-03-29T16:04:14Z</time>
      </trkpt>
      <trkpt lat="50.11589" lon="4.17994">
        <ele>196.4</ele>
        <time>2024-03-29T16:04:15Z</time>
      </trkpt>
      <trkpt lat="50.11586" lon="4.17997">
        <ele>196.6</ele>
        <time>2024-03-29T16:04:16Z</time>
      </trkpt>
      <trkpt lat="50.11584" lon="4.18001">
        <ele>197</ele>
        <time>2024-03-29T16:04:17Z</time>
      </trkpt>
      <trkpt lat="50.11582" lon="4.18004">
        <ele>197.2</ele>
        <time>2024-03-29T16:04:18Z</time>
      </trkpt>
      <trkpt lat="50.11579" lon="4.18008">
        <ele>197.8</ele>
        <time>2024-03-29T16:04:19Z</time>
      </trkpt>
      <trkpt lat="50.11577" lon="4.18012">
        <ele>197.8</ele>
        <time>2024-03-29T16:04:20Z</time>
      </trkpt>
      <trkpt lat="50.11575" lon="4.18015">
        <ele>198.2</ele>
        <time>2024-03-29T16:04:21Z</time>
      </trkpt>
      <trkpt lat="50.11573" lon="4.18019">
        <ele>198.8</ele>
        <time>2024-03-29T16:04:22Z</time>
      </trkpt>
      <trkpt lat="50.11571" lon="4.18023">
        <ele>199</ele>
        <time>2024-03-29T16:04:23Z</time>
      </trkpt>
      <trkpt lat="50.11569" lon="4.18026">
        <ele>199.2</ele>
        <time>2024-03-29T16:04:24Z</time>
      </trkpt>
      <trkpt lat="50.11567" lon="4.1803">
        <ele>199.4</ele>
        <time>2024-03-29T16:04:25Z</time>
      </trkpt>
      <trkpt lat="50.11565" lon="4.18034">
        <ele>199.8</ele>
        <time>2024-03-29T16:04:26Z</time>
      </trkpt>
      <trkpt lat="50.11563" lon="4.18037">
        <ele>200</ele>
        <time>2024-03-29T16:04:27Z</time>
      </trkpt>
      <trkpt lat="50.1156" lon="4.18041">
        <ele>200.4</ele>
        <time>2024-03-29T16:04:28Z</time>
      </trkpt>
      <trkpt lat="50.11558" lon="4.18045">
        <ele>200.4</ele>
        <time>2024-03-29T16:04:29Z</time>
      </trkpt>
      <trkpt lat="50.11555" lon="4.18049">
        <ele>200.8</ele>
        <time>2024-03-29T16:04:30Z</time>
      </trkpt>
      <trkpt lat="50.11552" lon="4.18053">
        <ele>201.2</ele>
        <time>2024-03-29T16:04:31Z</time>
      </trkpt>
      <trkpt lat="50.11549" lon="4.18057">
        <ele>201.2</ele>
        <time>2024-03-29T16:04:32Z</time>
      </trkpt>
      <trkpt lat="50.11545" lon="4.18062">
        <ele>201.2</ele>
        <time>2024-03-29T16:04:33Z</time>
      </trkpt>
      <trkpt lat="50.11541" lon="4.18066">
        <ele>201.4</ele>
        <time>2024-03-29T16:04:34Z</time>
      </trkpt>
      <trkpt lat="50.11537" lon="4.1807">
        <ele>201.4</ele>
        <time>2024-03-29T16:04:35Z</time>
      </trkpt>
      <trkpt lat="50.11532" lon="4.18075">
        <ele>201.4</ele>
        <time>2024-03-29T16:04:36Z</time>
      </trkpt>
      <trkpt lat="50.11527" lon="4.18079">
        <ele>201.4</ele>
        <time>2024-03-29T16:04:37Z</time>
      </trkpt>
      <trkpt lat="50.11522" lon="4.18083">
        <ele>201.4</ele>
        <time>2024-03-29T16:04:38Z</time>
      </trkpt>
      <trkpt lat="50.11516" lon="4.18088">
        <ele>201.4</ele>
        <time>2024-03-29T16:04:39Z</time>
      </trkpt>
      <trkpt lat="50.11511" lon="4.18093">
        <ele>201.2</ele>
        <time>2024-03-29T16:04:40Z</time>
      </trkpt>
      <trkpt lat="50.11505" lon="4.18099">
        <ele>201</ele>
        <time>2024-03-29T16:04:41Z</time>
      </trkpt>
      <trkpt lat="50.115" lon="4.18106">
        <ele>200.6</ele>
        <time>2024-03-29T16:04:42Z</time>
      </trkpt>
      <trkpt lat="50.11494" lon="4.18114">
        <ele>200.6</ele>
        <time>2024-03-29T16:04:43Z</time>
      </trkpt>
      <trkpt lat="50.11489" lon="4.18122">
        <ele>200.2</ele>
        <time>2024-03-29T16:04:44Z</time>
      </trkpt>
      <trkpt lat="50.11482" lon="4.1813">
        <ele>200</ele>
        <time>2024-03-29T16:04:45Z</time>
      </trkpt>
      <trkpt lat="50.11476" lon="4.18139">
        <ele>199.8</ele>
        <time>2024-03-29T16:04:46Z</time>
      </trkpt>
      <trkpt lat="50.11469" lon="4.18147">
        <ele>199.6</ele>
        <time>2024-03-29T16:04:47Z</time>
      </trkpt>
      <trkpt lat="50.11461" lon="4.18154">
        <ele>199.2</ele>
        <time>2024-03-29T16:04:48Z</time>
      </trkpt>
      <trkpt lat="50.11452" lon="4.18161">
        <ele>199</ele>
        <time>2024-03-29T16:04:49Z</time>
      </trkpt>
      <trkpt lat="50.11443" lon="4.18168">
        <ele>198.6</ele>
        <time>2024-03-29T16:04:50Z</time>
      </trkpt>
      <trkpt lat="50.11434" lon="4.18175">
        <ele>198</ele>
        <time>2024-03-29T16:04:51Z</time>
      </trkpt>
      <trkpt lat="50.11425" lon="4.18182">
        <ele>197.4</ele>
        <time>2024-03-29T16:04:52Z</time>
      </trkpt>
      <trkpt lat="50.11415" lon="4.18189">
        <ele>196.2</ele>
        <time>2024-03-29T16:04:53Z</time>
      </trkpt>
      <trkpt lat="50.11406" lon="4.18197">
        <ele>195.4</ele>
        <time>2024-03-29T16:04:54Z</time>
      </trkpt>
      <trkpt lat="50.11397" lon="4.18204">
        <ele>194.6</ele>
        <time>2024-03-29T16:04:55Z</time>
      </trkpt>
      <trkpt lat="50.11388" lon="4.18211">
        <ele>193.6</ele>
        <time>2024-03-29T16:04:56Z</time>
      </trkpt>
      <trkpt lat="50.1138" lon="4.18218">
        <ele>192.4</ele>
        <time>2024-03-29T16:04:57Z</time>
      </trkpt>
      <trkpt lat="50.11372" lon="4.18224">
        <ele>190.6</ele>
        <time>2024-03-29T16:04:58Z</time>
      </trkpt>
      <trkpt lat="50.11365" lon="4.18231">
        <ele>189.6</ele>
        <time>2024-03-29T16:04:59Z</time>
      </trkpt>
      <trkpt lat="50.11358" lon="4.18237">
        <ele>189.2</ele>
        <time>2024-03-29T16:05:00Z</time>
      </trkpt>
      <trkpt lat="50.11352" lon="4.18243">
        <ele>188.8</ele>
        <time>2024-03-29T16:05:01Z</time>
      </trkpt>
      <trkpt lat="50.11346" lon="4.18249">
        <ele>188.8</ele>
        <time>2024-03-29T16:05:02Z</time>
      </trkpt>
      <trkpt lat="50.1134" lon="4.18254">
        <ele>188.6</ele>
        <time>2024-03-29T16:05:03Z</time>
      </trkpt>
      <trkpt lat="50.11334" lon="4.1826">
        <ele>188.8</ele>
        <time>2024-03-29T16:05:04Z</time>
      </trkpt>
      <trkpt lat="50.11329" lon="4.18265">
        <ele>188.8</ele>
        <time>2024-03-29T16:05:05Z</time>
      </trkpt>
      <trkpt lat="50.11324" lon="4.1827">
        <ele>188.8</ele>
        <time>2024-03-29T16:05:06Z</time>
      </trkpt>
      <trkpt lat="50.11319" lon="4.18275">
        <ele>188.6</ele>
        <time>2024-03-29T16:05:07Z</time>
      </trkpt>
      <trkpt lat="50.11314" lon="4.18279">
        <ele>188.6</ele>
        <time>2024-03-29T16:05:08Z</time>
      </trkpt>
      <trkpt lat="50.11309" lon="4.18284">
        <ele>188.6</ele>
        <time>2024-03-29T16:05:09Z</time>
      </trkpt>
      <trkpt lat="50.11304" lon="4.18289">
        <ele>189.2</ele>
        <time>2024-03-29T16:05:10Z</time>
      </trkpt>
      <trkpt lat="50.11298" lon="4.18293">
        <ele>189.8</ele>
        <time>2024-03-29T16:05:11Z</time>
      </trkpt>
      <trkpt lat="50.11293" lon="4.18297">
        <ele>190.6</ele>
        <time>2024-03-29T16:05:12Z</time>
      </trkpt>
      <trkpt lat="50.11287" lon="4.18301">
        <ele>191.2</ele>
        <time>2024-03-29T16:05:13Z</time>
      </trkpt>
      <trkpt lat="50.1128" lon="4.18305">
        <ele>191.4</ele>
        <time>2024-03-29T16:05:14Z</time>
      </trkpt>
      <trkpt lat="50.11274" lon="4.18308">
        <ele>191.4</ele>
        <time>2024-03-29T16:05:15Z</time>
      </trkpt>
      <trkpt lat="50.11267" lon="4.18311">
        <ele>191.4</ele>
        <time>2024-03-29T16:05:16Z</time>
      </trkpt>
      <trkpt lat="50.11259" lon="4.18314">
        <ele>191.6</ele>
        <time>2024-03-29T16:05:17Z</time>
      </trkpt>
      <trkpt lat="50.11252" lon="4.18317">
        <ele>191.6</ele>
        <time>2024-03-29T16:05:18Z</time>
      </trkpt>
      <trkpt lat="50.11245" lon="4.1832">
        <ele>191.6</ele>
        <time>2024-03-29T16:05:19Z</time>
      </trkpt>
      <trkpt lat="50.11238" lon="4.18322">
        <ele>191.6</ele>
        <time>2024-03-29T16:05:20Z</time>
      </trkpt>
      <trkpt lat="50.11231" lon="4.18325">
        <ele>191.6</ele>
        <time>2024-03-29T16:05:21Z</time>
      </trkpt>
      <trkpt lat="50.11224" lon="4.18327">
        <ele>191.6</ele>
        <time>2024-03-29T16:05:22Z</time>
      </trkpt>
      <trkpt lat="50.11217" lon="4.18329">
        <ele>191.6</ele>
        <time>2024-03-29T16:05:23Z</time>
      </trkpt>
      <trkpt lat="50.11211" lon="4.18331">
        <ele>191.6</ele>
        <time>2024-03-29T16:05:24Z</time>
      </trkpt>
      <trkpt lat="50.11205" lon="4.18332">
        <ele>191.6</ele>
        <time>2024-03-29T16:05:25Z</time>
      </trkpt>
      <trkpt lat="50.11199" lon="4.18334">
        <ele>191.6</ele>
        <time>2024-03-29T16:05:26Z</time>
      </trkpt>
      <trkpt lat="50.11193" lon="4.18335">
        <ele>191.6</ele>
        <time>2024-03-29T16:05:27Z</time>
      </trkpt>
      <trkpt lat="50.11188" lon="4.18336">
        <ele>191.6</ele>
        <time>2024-03-29T16:05:28Z</time>
      </trkpt>
      <trkpt lat="50.11183" lon="4.18337">
        <ele>191.6</ele>
        <time>2024-03-29T16:05:29Z</time>
      </trkpt>
      <trkpt lat="50.11179" lon="4.18338">
        <ele>191.8</ele>
        <time>2024-03-29T16:05:30Z</time>
      </trkpt>
      <trkpt lat="50.11174" lon="4.18339">
        <ele>191.8</ele>
        <time>2024-03-29T16:05:31Z</time>
      </trkpt>
      <trkpt lat="50.1117" lon="4.1834">
        <ele>191.6</ele>
        <time>2024-03-29T16:05:32Z</time>
      </trkpt>
      <trkpt lat="50.11166" lon="4.18341">
        <ele>191.6</ele>
        <time>2024-03-29T16:05:33Z</time>
      </trkpt>
      <trkpt lat="50.11162" lon="4.18342">
        <ele>191.8</ele>
        <time>2024-03-29T16:05:34Z</time>
      </trkpt>
      <trkpt lat="50.11159" lon="4.18343">
        <ele>192.4</ele>
        <time>2024-03-29T16:05:35Z</time>
      </trkpt>
      <trkpt lat="50.11155" lon="4.18344">
        <ele>192.8</ele>
        <time>2024-03-29T16:05:36Z</time>
      </trkpt>
      <trkpt lat="50.11152" lon="4.18346">
        <ele>193</ele>
        <time>2024-03-29T16:05:37Z</time>
      </trkpt>
      <trkpt lat="50.11149" lon="4.18347">
        <ele>193.4</ele>
        <time>2024-03-29T16:05:38Z</time>
      </trkpt>
      <trkpt lat="50.11145" lon="4.18348">
        <ele>193.6</ele>
        <time>2024-03-29T16:05:39Z</time>
      </trkpt>
      <trkpt lat="50.11142" lon="4.18349">
        <ele>194</ele>
        <time>2024-03-29T16:05:40Z</time>
      </trkpt>
      <trkpt lat="50.11139" lon="4.1835">
        <ele>194.4</ele>
        <time>2024-03-29T16:05:41Z</time>
      </trkpt>
      <trkpt lat="50.11136" lon="4.18351">
        <ele>194.8</ele>
        <time>2024-03-29T16:05:42Z</time>
      </trkpt>
      <trkpt lat="50.11132" lon="4.18353">
        <ele>194.8</ele>
        <time>2024-03-29T16:05:43Z</time>
      </trkpt>
      <trkpt lat="50.11129" lon="4.18355">
        <ele>195.4</ele>
        <time>2024-03-29T16:05:44Z</time>
      </trkpt>
      <trkpt lat="50.11126" lon="4.18357">
        <ele>195.8</ele>
        <time>2024-03-29T16:05:45Z</time>
      </trkpt>
      <trkpt lat="50.11123" lon="4.18359">
        <ele>196</ele>
        <time>2024-03-29T16:05:46Z</time>
      </trkpt>
      <trkpt lat="50.11119" lon="4.18361">
        <ele>196.2</ele>
        <time>2024-03-29T16:05:47Z</time>
      </trkpt>
      <trkpt lat="50.11116" lon="4.18364">
        <ele>196.6</ele>
        <time>2024-03-29T16:05:48Z</time>
      </trkpt>
      <trkpt lat="50.11113" lon="4.18366">
        <ele>196.8</ele>
        <time>2024-03-29T16:05:49Z</time>
      </trkpt>
      <trkpt lat="50.1111" lon="4.18368">
        <ele>196.8</ele>
        <time>2024-03-29T16:05:50Z</time>
      </trkpt>
      <trkpt lat="50.11107" lon="4.18371">
        <ele>197</ele>
        <time>2024-03-29T16:05:51Z</time>
      </trkpt>
      <trkpt lat="50.11104" lon="4.18373">
        <ele>197.4</ele>
        <time>2024-03-29T16:05:52Z</time>
      </trkpt>
      <trkpt lat="50.111" lon="4.18376">
        <ele>197.6</ele>
        <time>2024-03-29T16:05:53Z</time>
      </trkpt>
      <trkpt lat="50.11097" lon="4.18378">
        <ele>197.6</ele>
        <time>2024-03-29T16:05:54Z</time>
      </trkpt>
      <trkpt lat="50.11094" lon="4.18381">
        <ele>198.2</ele>
        <time>2024-03-29T16:05:55Z</time>
      </trkpt>
      <trkpt lat="50.11091" lon="4.18384">
        <ele>198.2</ele>
        <time>2024-03-29T16:05:56Z</time>
      </trkpt>
      <trkpt lat="50.11088" lon="4.18387">
        <ele>198.4</ele>
        <time>2024-03-29T16:05:57Z</time>
      </trkpt>
      <trkpt lat="50.11085" lon="4.1839">
        <ele>198.8</ele>
        <time>2024-03-29T16:05:58Z</time>
      </trkpt>
      <trkpt lat="50.11082" lon="4.18394">
        <ele>199</ele>
        <time>2024-03-29T16:05:59Z</time>
      </trkpt>
      <trkpt lat="50.11079" lon="4.18397">
        <ele>199.2</ele>
        <time>2024-03-29T16:06:00Z</time>
      </trkpt>
      <trkpt lat="50.11076" lon="4.18401">
        <ele>199.4</ele>
        <time>2024-03-29T16:06:01Z</time>
      </trkpt>
      <trkpt lat="50.11074" lon="4.18405">
        <ele>199.6</ele>
        <time>2024-03-29T16:06:02Z</time>
      </trkpt>
      <trkpt lat="50.11071" lon="4.18409">
        <ele>199.6</ele>
        <time>2024-03-29T16:06:03Z</time>
      </trkpt>
      <trkpt lat="50.11068" lon="4.18414">
        <ele>199.6</ele>
        <time>2024-03-29T16:06:04Z</time>
      </trkpt>
      <trkpt lat="50.11066" lon="4.18418">
        <ele>200</ele>
        <time>2024-03-29T16:06:05Z</time>
      </trkpt>
      <trkpt lat="50.11063" lon="4.18423">
        <ele>199.8</ele>
        <time>2024-03-29T16:06:06Z</time>
      </trkpt>
      <trkpt lat="50.1106" lon="4.18427">
        <ele>200</ele>
        <time>2024-03-29T16:06:07Z</time>
      </trkpt>
      <trkpt lat="50.11058" lon="4.18433">
        <ele>200</ele>
        <time>2024-03-29T16:06:08Z</time>
      </trkpt>
      <trkpt lat="50.11055" lon="4.18438">
        <ele>200.2</ele>
        <time>2024-03-29T16:06:09Z</time>
      </trkpt>
      <trkpt lat="50.11052" lon="4.18443">
        <ele>200.2</ele>
        <time>2024-03-29T16:06:10Z</time>
      </trkpt>
      <trkpt lat="50.11049" lon="4.18449">
        <ele>200.4</ele>
        <time>2024-03-29T16:06:11Z</time>
      </trkpt>
      <trkpt lat="50.11046" lon="4.18455">
        <ele>200.4</ele>
        <time>2024-03-29T16:06:12Z</time>
      </trkpt>
      <trkpt lat="50.11043" lon="4.18461">
        <ele>200.2</ele>
        <time>2024-03-29T16:06:13Z</time>
      </trkpt>
      <trkpt lat="50.1104" lon="4.18468">
        <ele>200.4</ele>
        <time>2024-03-29T16:06:14Z</time>
      </trkpt>
      <trkpt lat="50.11036" lon="4.18474">
        <ele>200.4</ele>
        <time>2024-03-29T16:06:15Z</time>
      </trkpt>
      <trkpt lat="50.11033" lon="4.1848">
        <ele>200.4</ele>
        <time>2024-03-29T16:06:16Z</time>
      </trkpt>
      <trkpt lat="50.11029" lon="4.18487">
        <ele>200.4</ele>
        <time>2024-03-29T16:06:17Z</time>
      </trkpt>
      <trkpt lat="50.11025" lon="4.18493">
        <ele>200.2</ele>
        <time>2024-03-29T16:06:18Z</time>
      </trkpt>
      <trkpt lat="50.11021" lon="4.18499">
        <ele>200.4</ele>
        <time>2024-03-29T16:06:19Z</time>
      </trkpt>
      <trkpt lat="50.11017" lon="4.18506">
        <ele>200.2</ele>
        <time>2024-03-29T16:06:20Z</time>
      </trkpt>
      <trkpt lat="50.11013" lon="4.18512">
        <ele>200.4</ele>
        <time>2024-03-29T16:06:21Z</time>
      </trkpt>
      <trkpt lat="50.11008" lon="4.18519">
        <ele>200.2</ele>
        <time>2024-03-29T16:06:22Z</time>
      </trkpt>
      <trkpt lat="50.11004" lon="4.18526">
        <ele>199.8</ele>
        <time>2024-03-29T16:06:23Z</time>
      </trkpt>
      <trkpt lat="50.11" lon="4.18532">
        <ele>199.6</ele>
        <time>2024-03-29T16:06:24Z</time>
      </trkpt>
      <trkpt lat="50.10995" lon="4.18539">
        <ele>199.4</ele>
        <time>2024-03-29T16:06:25Z</time>
      </trkpt>
      <trkpt lat="50.1099" lon="4.18546">
        <ele>199.4</ele>
        <time>2024-03-29T16:06:26Z</time>
      </trkpt>
      <trkpt lat="50.10986" lon="4.18553">
        <ele>199.4</ele>
        <time>2024-03-29T16:06:27Z</time>
      </trkpt>
      <trkpt lat="50.10981" lon="4.1856">
        <ele>199.2</ele>
        <time>2024-03-29T16:06:28Z</time>
      </trkpt>
      <trkpt lat="50.10976" lon="4.18568">
        <ele>199.2</ele>
        <time>2024-03-29T16:06:29Z</time>
      </trkpt>
      <trkpt lat="50.10971" lon="4.18575">
        <ele>198.8</ele>
        <time>2024-03-29T16:06:30Z</time>
      </trkpt>
      <trkpt lat="50.10966" lon="4.18583">
        <ele>198.8</ele>
        <time>2024-03-29T16:06:31Z</time>
      </trkpt>
      <trkpt lat="50.10961" lon="4.18591">
        <ele>198.4</ele>
        <time>2024-03-29T16:06:32Z</time>
      </trkpt>
      <trkpt lat="50.10956" lon="4.186">
        <ele>198.2</ele>
        <time>2024-03-29T16:06:33Z</time>
      </trkpt>
      <trkpt lat="50.10951" lon="4.18609">
        <ele>198.2</ele>
        <time>2024-03-29T16:06:34Z</time>
      </trkpt>
      <trkpt lat="50.10945" lon="4.18618">
        <ele>198.2</ele>
        <time>2024-03-29T16:06:35Z</time>
      </trkpt>
      <trkpt lat="50.1094" lon="4.18628">
        <ele>198</ele>
        <time>2024-03-29T16:06:36Z</time>
      </trkpt>
      <trkpt lat="50.10936" lon="4.18639">
        <ele>197.6</ele>
        <time>2024-03-29T16:06:37Z</time>
      </trkpt>
      <trkpt lat="50.10931" lon="4.18649">
        <ele>197.4</ele>
        <time>2024-03-29T16:06:38Z</time>
      </trkpt>
      <trkpt lat="50.10926" lon="4.1866">
        <ele>196.8</ele>
        <time>2024-03-29T16:06:39Z</time>
      </trkpt>
      <trkpt lat="50.10921" lon="4.18671">
        <ele>196.6</ele>
        <time>2024-03-29T16:06:40Z</time>
      </trkpt>
      <trkpt lat="50.10916" lon="4.18682">
        <ele>196.2</ele>
        <time>2024-03-29T16:06:41Z</time>
      </trkpt>
      <trkpt lat="50.10911" lon="4.18693">
        <ele>195.8</ele>
        <time>2024-03-29T16:06:42Z</time>
      </trkpt>
      <trkpt lat="50.10906" lon="4.18703">
        <ele>195.4</ele>
        <time>2024-03-29T16:06:43Z</time>
      </trkpt>
      <trkpt lat="50.10901" lon="4.18714">
        <ele>194.8</ele>
        <time>2024-03-29T16:06:44Z</time>
      </trkpt>
      <trkpt lat="50.10896" lon="4.18725">
        <ele>194.2</ele>
        <time>2024-03-29T16:06:45Z</time>
      </trkpt>
      <trkpt lat="50.10891" lon="4.18735">
        <ele>193.8</ele>
        <time>2024-03-29T16:06:46Z</time>
      </trkpt>
      <trkpt lat="50.10886" lon="4.18746">
        <ele>193.4</ele>
        <time>2024-03-29T16:06:47Z</time>
      </trkpt>
      <trkpt lat="50.10881" lon="4.18756">
        <ele>193.4</ele>
        <time>2024-03-29T16:06:48Z</time>
      </trkpt>
      <trkpt lat="50.10876" lon="4.18766">
        <ele>193</ele>
        <time>2024-03-29T16:06:49Z</time>
      </trkpt>
      <trkpt lat="50.10871" lon="4.18777">
        <ele>192.6</ele>
        <time>2024-03-29T16:06:50Z</time>
      </trkpt>
      <trkpt lat="50.10866" lon="4.18787">
        <ele>192</ele>
        <time>2024-03-29T16:06:51Z</time>
      </trkpt>
      <trkpt lat="50.10862" lon="4.18798">
        <ele>191.8</ele>
        <time>2024-03-29T16:06:52Z</time>
      </trkpt>
      <trkpt lat="50.10857" lon="4.18809">
        <ele>191.4</ele>
        <time>2024-03-29T16:06:53Z</time>
      </trkpt>
      <trkpt lat="50.10852" lon="4.18819">
        <ele>191.4</ele>
        <time>2024-03-29T16:06:54Z</time>
      </trkpt>
      <trkpt lat="50.10847" lon="4.1883">
        <ele>191.4</ele>
        <time>2024-03-29T16:06:55Z</time>
      </trkpt>
      <trkpt lat="50.10843" lon="4.18841">
        <ele>191.4</ele>
        <time>2024-03-29T16:06:56Z</time>
      </trkpt>
      <trkpt lat="50.10838" lon="4.18852">
        <ele>191.2</ele>
        <time>2024-03-29T16:06:57Z</time>
      </trkpt>
      <trkpt lat="50.10834" lon="4.18862">
        <ele>191</ele>
        <time>2024-03-29T16:06:58Z</time>
      </trkpt>
      <trkpt lat="50.10831" lon="4.18873">
        <ele>190.8</ele>
        <time>2024-03-29T16:06:59Z</time>
      </trkpt>
      <trkpt lat="50.10827" lon="4.18885">
        <ele>190.8</ele>
        <time>2024-03-29T16:07:00Z</time>
      </trkpt>
      <trkpt lat="50.10825" lon="4.18896">
        <ele>190.8</ele>
        <time>2024-03-29T16:07:01Z</time>
      </trkpt>
      <trkpt lat="50.10823" lon="4.18908">
        <ele>190.6</ele>
        <time>2024-03-29T16:07:02Z</time>
      </trkpt>
      <trkpt lat="50.10821" lon="4.18919">
        <ele>190.4</ele>
        <time>2024-03-29T16:07:03Z</time>
      </trkpt>
      <trkpt lat="50.1082" lon="4.1893">
        <ele>190.2</ele>
        <time>2024-03-29T16:07:04Z</time>
      </trkpt>
      <trkpt lat="50.10819" lon="4.18942">
        <ele>190.2</ele>
        <time>2024-03-29T16:07:05Z</time>
      </trkpt>
      <trkpt lat="50.10818" lon="4.18953">
        <ele>190</ele>
        <time>2024-03-29T16:07:06Z</time>
      </trkpt>
      <trkpt lat="50.10817" lon="4.18964">
        <ele>190</ele>
        <time>2024-03-29T16:07:07Z</time>
      </trkpt>
      <trkpt lat="50.10816" lon="4.18974">
        <ele>190</ele>
        <time>2024-03-29T16:07:08Z</time>
      </trkpt>
      <trkpt lat="50.10814" lon="4.18985">
        <ele>190</ele>
        <time>2024-03-29T16:07:09Z</time>
      </trkpt>
      <trkpt lat="50.10813" lon="4.18995">
        <ele>190</ele>
        <time>2024-03-29T16:07:10Z</time>
      </trkpt>
      <trkpt lat="50.10811" lon="4.19005">
        <ele>190</ele>
        <time>2024-03-29T16:07:11Z</time>
      </trkpt>
      <trkpt lat="50.1081" lon="4.19014">
        <ele>190</ele>
        <time>2024-03-29T16:07:12Z</time>
      </trkpt>
      <trkpt lat="50.10808" lon="4.19024">
        <ele>190</ele>
        <time>2024-03-29T16:07:13Z</time>
      </trkpt>
      <trkpt lat="50.10806" lon="4.19033">
        <ele>189.8</ele>
        <time>2024-03-29T16:07:14Z</time>
      </trkpt>
      <trkpt lat="50.10804" lon="4.19042">
        <ele>190</ele>
        <time>2024-03-29T16:07:15Z</time>
      </trkpt>
      <trkpt lat="50.10801" lon="4.1905">
        <ele>190.2</ele>
        <time>2024-03-29T16:07:16Z</time>
      </trkpt>
      <trkpt lat="50.10799" lon="4.19058">
        <ele>190.2</ele>
        <time>2024-03-29T16:07:17Z</time>
      </trkpt>
      <trkpt lat="50.10797" lon="4.19066">
        <ele>190.6</ele>
        <time>2024-03-29T16:07:18Z</time>
      </trkpt>
      <trkpt lat="50.10794" lon="4.19074">
        <ele>190.6</ele>
        <time>2024-03-29T16:07:19Z</time>
      </trkpt>
      <trkpt lat="50.10792" lon="4.19081">
        <ele>191</ele>
        <time>2024-03-29T16:07:20Z</time>
      </trkpt>
      <trkpt lat="50.10789" lon="4.19089">
        <ele>191</ele>
        <time>2024-03-29T16:07:21Z</time>
      </trkpt>
      <trkpt lat="50.10787" lon="4.19096">
        <ele>191.2</ele>
        <time>2024-03-29T16:07:22Z</time>
      </trkpt>
      <trkpt lat="50.10785" lon="4.19103">
        <ele>191.4</ele>
        <time>2024-03-29T16:07:23Z</time>
      </trkpt>
      <trkpt lat="50.10782" lon="4.1911">
        <ele>191.4</ele>
        <time>2024-03-29T16:07:24Z</time>
      </trkpt>
      <trkpt lat="50.1078" lon="4.19116">
        <ele>191.8</ele>
        <time>2024-03-29T16:07:25Z</time>
      </trkpt>
      <trkpt lat="50.10777" lon="4.19122">
        <ele>192</ele>
        <time>2024-03-29T16:07:26Z</time>
      </trkpt>
      <trkpt lat="50.10775" lon="4.19129">
        <ele>192.4</ele>
        <time>2024-03-29T16:07:27Z</time>
      </trkpt>
      <trkpt lat="50.10772" lon="4.19135">
        <ele>192.6</ele>
        <time>2024-03-29T16:07:28Z</time>
      </trkpt>
      <trkpt lat="50.1077" lon="4.19141">
        <ele>193</ele>
        <time>2024-03-29T16:07:29Z</time>
      </trkpt>
      <trkpt lat="50.10767" lon="4.19147">
        <ele>193.2</ele>
        <time>2024-03-29T16:07:30Z</time>
      </trkpt>
      <trkpt lat="50.10765" lon="4.19153">
        <ele>193.6</ele>
        <time>2024-03-29T16:07:31Z</time>
      </trkpt>
      <trkpt lat="50.10762" lon="4.19159">
        <ele>194</ele>
        <time>2024-03-29T16:07:32Z</time>
      </trkpt>
      <trkpt lat="50.10759" lon="4.19166">
        <ele>194</ele>
        <time>2024-03-29T16:07:33Z</time>
      </trkpt>
      <trkpt lat="50.10756" lon="4.19172">
        <ele>194.2</ele>
        <time>2024-03-29T16:07:34Z</time>
      </trkpt>
      <trkpt lat="50.10753" lon="4.19179">
        <ele>194</ele>
        <time>2024-03-29T16:07:35Z</time>
      </trkpt>
      <trkpt lat="50.10749" lon="4.19186">
        <ele>194.2</ele>
        <time>2024-03-29T16:07:36Z</time>
      </trkpt>
      <trkpt lat="50.10745" lon="4.19192">
        <ele>194.2</ele>
        <time>2024-03-29T16:07:37Z</time>
      </trkpt>
      <trkpt lat="50.10741" lon="4.19198">
        <ele>194.2</ele>
        <time>2024-03-29T16:07:38Z</time>
      </trkpt>
      <trkpt lat="50.10737" lon="4.19204">
        <ele>194.4</ele>
        <time>2024-03-29T16:07:39Z</time>
      </trkpt>
      <trkpt lat="50.10733" lon="4.1921">
        <ele>194.4</ele>
        <time>2024-03-29T16:07:40Z</time>
      </trkpt>
      <trkpt lat="50.10728" lon="4.19217">
        <ele>194.4</ele>
        <time>2024-03-29T16:07:41Z</time>
      </trkpt>
      <trkpt lat="50.10723" lon="4.19223">
        <ele>194.4</ele>
        <time>2024-03-29T16:07:42Z</time>
      </trkpt>
      <trkpt lat="50.10718" lon="4.1923">
        <ele>194.4</ele>
        <time>2024-03-29T16:07:43Z</time>
      </trkpt>
      <trkpt lat="50.10714" lon="4.19238">
        <ele>194.4</ele>
        <time>2024-03-29T16:07:44Z</time>
      </trkpt>
      <trkpt lat="50.10709" lon="4.19245">
        <ele>194.4</ele>
        <time>2024-03-29T16:07:45Z</time>
      </trkpt>
      <trkpt lat="50.10705" lon="4.19253">
        <ele>194.2</ele>
        <time>2024-03-29T16:07:46Z</time>
      </trkpt>
      <trkpt lat="50.107" lon="4.19261">
        <ele>194.2</ele>
        <time>2024-03-29T16:07:47Z</time>
      </trkpt>
      <trkpt lat="50.10695" lon="4.19269">
        <ele>194</ele>
        <time>2024-03-29T16:07:48Z</time>
      </trkpt>
      <trkpt lat="50.10691" lon="4.19278">
        <ele>193.6</ele>
        <time>2024-03-29T16:07:49Z</time>
      </trkpt>
      <trkpt lat="50.10687" lon="4.19286">
        <ele>193.2</ele>
        <time>2024-03-29T16:07:50Z</time>
      </trkpt>
      <trkpt lat="50.10682" lon="4.19295">
        <ele>193</ele>
        <time>2024-03-29T16:07:51Z</time>
      </trkpt>
      <trkpt lat="50.10677" lon="4.19303">
        <ele>192.8</ele>
        <time>2024-03-29T16:07:52Z</time>
      </trkpt>
      <trkpt lat="50.10672" lon="4.19312">
        <ele>192.8</ele>
        <time>2024-03-29T16:07:53Z</time>
      </trkpt>
      <trkpt lat="50.10667" lon="4.19319">
        <ele>192.6</ele>
        <time>2024-03-29T16:07:54Z</time>
      </trkpt>
      <trkpt lat="50.10662" lon="4.19326">
        <ele>192.6</ele>
        <time>2024-03-29T16:07:55Z</time>
      </trkpt>
      <trkpt lat="50.10656" lon="4.19332">
        <ele>192.4</ele>
        <time>2024-03-29T16:07:56Z</time>
      </trkpt>
      <trkpt lat="50.1065" lon="4.19336">
        <ele>192.4</ele>
        <time>2024-03-29T16:07:57Z</time>
      </trkpt>
      <trkpt lat="50.10643" lon="4.19339">
        <ele>192.2</ele>
        <time>2024-03-29T16:07:58Z</time>
      </trkpt>
      <trkpt lat="50.10636" lon="4.1934">
        <ele>192</ele>
        <time>2024-03-29T16:07:59Z</time>
      </trkpt>
      <trkpt lat="50.10629" lon="4.1934">
        <ele>191.6</ele>
        <time>2024-03-29T16:08:00Z</time>
      </trkpt>
      <trkpt lat="50.10622" lon="4.1934">
        <ele>191.6</ele>
        <time>2024-03-29T16:08:01Z</time>
      </trkpt>
      <trkpt lat="50.10616" lon="4.19341">
        <ele>191.6</ele>
        <time>2024-03-29T16:08:02Z</time>
      </trkpt>
      <trkpt lat="50.10609" lon="4.19342">
        <ele>191.4</ele>
        <time>2024-03-29T16:08:03Z</time>
      </trkpt>
      <trkpt lat="50.10603" lon="4.19342">
        <ele>191.2</ele>
        <time>2024-03-29T16:08:04Z</time>
      </trkpt>
      <trkpt lat="50.10597" lon="4.19343">
        <ele>191.2</ele>
        <time>2024-03-29T16:08:05Z</time>
      </trkpt>
      <trkpt lat="50.1059" lon="4.19343">
        <ele>191</ele>
        <time>2024-03-29T16:08:06Z</time>
      </trkpt>
      <trkpt lat="50.10584" lon="4.19343">
        <ele>190.8</ele>
        <time>2024-03-29T16:08:07Z</time>
      </trkpt>
      <trkpt lat="50.10578" lon="4.19343">
        <ele>190.6</ele>
        <time>2024-03-29T16:08:08Z</time>
      </trkpt>
      <trkpt lat="50.10572" lon="4.19343">
        <ele>190.4</ele>
        <time>2024-03-29T16:08:09Z</time>
      </trkpt>
      <trkpt lat="50.10567" lon="4.19342">
        <ele>190.6</ele>
        <time>2024-03-29T16:08:10Z</time>
      </trkpt>
      <trkpt lat="50.10561" lon="4.19341">
        <ele>190.4</ele>
        <time>2024-03-29T16:08:11Z</time>
      </trkpt>
      <trkpt lat="50.10556" lon="4.1934">
        <ele>190.4</ele>
        <time>2024-03-29T16:08:12Z</time>
      </trkpt>
      <trkpt lat="50.10551" lon="4.19338">
        <ele>190.4</ele>
        <time>2024-03-29T16:08:13Z</time>
      </trkpt>
      <trkpt lat="50.10547" lon="4.19337">
        <ele>190.6</ele>
        <time>2024-03-29T16:08:14Z</time>
      </trkpt>
      <trkpt lat="50.10542" lon="4.19337">
        <ele>190.6</ele>
        <time>2024-03-29T16:08:15Z</time>
      </trkpt>
      <trkpt lat="50.10537" lon="4.19336">
        <ele>190.8</ele>
        <time>2024-03-29T16:08:16Z</time>
      </trkpt>
      <trkpt lat="50.10533" lon="4.19335">
        <ele>191.2</ele>
        <time>2024-03-29T16:08:17Z</time>
      </trkpt>
      <trkpt lat="50.10529" lon="4.19334">
        <ele>191.4</ele>
        <time>2024-03-29T16:08:18Z</time>
      </trkpt>
      <trkpt lat="50.10524" lon="4.19333">
        <ele>191.2</ele>
        <time>2024-03-29T16:08:19Z</time>
      </trkpt>
      <trkpt lat="50.10519" lon="4.19333">
        <ele>192</ele>
        <time>2024-03-29T16:08:20Z</time>
      </trkpt>
      <trkpt lat="50.10514" lon="4.19332">
        <ele>192.6</ele>
        <time>2024-03-29T16:08:21Z</time>
      </trkpt>
      <trkpt lat="50.10508" lon="4.19331">
        <ele>192.8</ele>
        <time>2024-03-29T16:08:22Z</time>
      </trkpt>
      <trkpt lat="50.10502" lon="4.1933">
        <ele>193.2</ele>
        <time>2024-03-29T16:08:23Z</time>
      </trkpt>
      <trkpt lat="50.10496" lon="4.19329">
        <ele>193.2</ele>
        <time>2024-03-29T16:08:24Z</time>
      </trkpt>
      <trkpt lat="50.1049" lon="4.19328">
        <ele>193.4</ele>
        <time>2024-03-29T16:08:25Z</time>
      </trkpt>
      <trkpt lat="50.10483" lon="4.19328">
        <ele>193.4</ele>
        <time>2024-03-29T16:08:26Z</time>
      </trkpt>
      <trkpt lat="50.10477" lon="4.19327">
        <ele>193.2</ele>
        <time>2024-03-29T16:08:27Z</time>
      </trkpt>
      <trkpt lat="50.1047" lon="4.19326">
        <ele>193.4</ele>
        <time>2024-03-29T16:08:28Z</time>
      </trkpt>
      <trkpt lat="50.10463" lon="4.19325">
        <ele>193.6</ele>
        <time>2024-03-29T16:08:29Z</time>
      </trkpt>
      <trkpt lat="50.10456" lon="4.19324">
        <ele>193.4</ele>
        <time>2024-03-29T16:08:30Z</time>
      </trkpt>
      <trkpt lat="50.10449" lon="4.19323">
        <ele>193.4</ele>
        <time>2024-03-29T16:08:31Z</time>
      </trkpt>
      <trkpt lat="50.10442" lon="4.19321">
        <ele>193.4</ele>
        <time>2024-03-29T16:08:32Z</time>
      </trkpt>
      <trkpt lat="50.10435" lon="4.1932">
        <ele>193.4</ele>
        <time>2024-03-29T16:08:33Z</time>
      </trkpt>
      <trkpt lat="50.10428" lon="4.19319">
        <ele>193</ele>
        <time>2024-03-29T16:08:34Z</time>
      </trkpt>
      <trkpt lat="50.10421" lon="4.19317">
        <ele>192.8</ele>
        <time>2024-03-29T16:08:35Z</time>
      </trkpt>
      <trkpt lat="50.10415" lon="4.19316">
        <ele>192.4</ele>
        <time>2024-03-29T16:08:36Z</time>
      </trkpt>
      <trkpt lat="50.10408" lon="4.19316">
        <ele>192.2</ele>
        <time>2024-03-29T16:08:37Z</time>
      </trkpt>
      <trkpt lat="50.10402" lon="4.19315">
        <ele>192</ele>
        <time>2024-03-29T16:08:38Z</time>
      </trkpt>
      <trkpt lat="50.10395" lon="4.19315">
        <ele>191.8</ele>
        <time>2024-03-29T16:08:39Z</time>
      </trkpt>
      <trkpt lat="50.10389" lon="4.19314">
        <ele>191.6</ele>
        <time>2024-03-29T16:08:40Z</time>
      </trkpt>
      <trkpt lat="50.10383" lon="4.19314">
        <ele>191.6</ele>
        <time>2024-03-29T16:08:41Z</time>
      </trkpt>
      <trkpt lat="50.10376" lon="4.19315">
        <ele>191.2</ele>
        <time>2024-03-29T16:08:42Z</time>
      </trkpt>
      <trkpt lat="50.1037" lon="4.19315">
        <ele>191.4</ele>
        <time>2024-03-29T16:08:43Z</time>
      </trkpt>
      <trkpt lat="50.10364" lon="4.19315">
        <ele>191.2</ele>
        <time>2024-03-29T16:08:44Z</time>
      </trkpt>
      <trkpt lat="50.10359" lon="4.19315">
        <ele>191.4</ele>
        <time>2024-03-29T16:08:45Z</time>
      </trkpt>
      <trkpt lat="50.10353" lon="4.19315">
        <ele>191.4</ele>
        <time>2024-03-29T16:08:46Z</time>
      </trkpt>
      <trkpt lat="50.10347" lon="4.19315">
        <ele>191.2</ele>
        <time>2024-03-29T16:08:47Z</time>
      </trkpt>
      <trkpt lat="50.10342" lon="4.19315">
        <ele>191.4</ele>
        <time>2024-03-29T16:08:48Z</time>
      </trkpt>
      <trkpt lat="50.10336" lon="4.19315">
        <ele>191.4</ele>
        <time>2024-03-29T16:08:49Z</time>
      </trkpt>
      <trkpt lat="50.10331" lon="4.19315">
        <ele>191.2</ele>
        <time>2024-03-29T16:08:50Z</time>
      </trkpt>
      <trkpt lat="50.10326" lon="4.19315">
        <ele>191</ele>
        <time>2024-03-29T16:08:51Z</time>
      </trkpt>
      <trkpt lat="50.10321" lon="4.19315">
        <ele>191</ele>
        <time>2024-03-29T16:08:52Z</time>
      </trkpt>
      <trkpt lat="50.10316" lon="4.19316">
        <ele>191</ele>
        <time>2024-03-29T16:08:53Z</time>
      </trkpt>
      <trkpt lat="50.10311" lon="4.19316">
        <ele>191</ele>
        <time>2024-03-29T16:08:54Z</time>
      </trkpt>
      <trkpt lat="50.10307" lon="4.19316">
        <ele>191.2</ele>
        <time>2024-03-29T16:08:55Z</time>
      </trkpt>
      <trkpt lat="50.10302" lon="4.19316">
        <ele>191.2</ele>
        <time>2024-03-29T16:08:56Z</time>
      </trkpt>
      <trkpt lat="50.10298" lon="4.19316">
        <ele>191</ele>
        <time>2024-03-29T16:08:57Z</time>
      </trkpt>
      <trkpt lat="50.10293" lon="4.19315">
        <ele>191.2</ele>
        <time>2024-03-29T16:08:58Z</time>
      </trkpt>
      <trkpt lat="50.10289" lon="4.19315">
        <ele>191.2</ele>
        <time>2024-03-29T16:08:59Z</time>
      </trkpt>
      <trkpt lat="50.10285" lon="4.19315">
        <ele>191.4</ele>
        <time>2024-03-29T16:09:00Z</time>
      </trkpt>
      <trkpt lat="50.1028" lon="4.19315">
        <ele>192</ele>
        <time>2024-03-29T16:09:01Z</time>
      </trkpt>
      <trkpt lat="50.10276" lon="4.19316">
        <ele>192.4</ele>
        <time>2024-03-29T16:09:02Z</time>
      </trkpt>
      <trkpt lat="50.10272" lon="4.19316">
        <ele>192.4</ele>
        <time>2024-03-29T16:09:03Z</time>
      </trkpt>
      <trkpt lat="50.10268" lon="4.19316">
        <ele>192.8</ele>
        <time>2024-03-29T16:09:04Z</time>
      </trkpt>
      <trkpt lat="50.10263" lon="4.19315">
        <ele>192.8</ele>
        <time>2024-03-29T16:09:05Z</time>
      </trkpt>
      <trkpt lat="50.10259" lon="4.19316">
        <ele>192.8</ele>
        <time>2024-03-29T16:09:06Z</time>
      </trkpt>
      <trkpt lat="50.10255" lon="4.19316">
        <ele>193.2</ele>
        <time>2024-03-29T16:09:07Z</time>
      </trkpt>
      <trkpt lat="50.10251" lon="4.19316">
        <ele>193.2</ele>
        <time>2024-03-29T16:09:08Z</time>
      </trkpt>
      <trkpt lat="50.10246" lon="4.19316">
        <ele>193.4</ele>
        <time>2024-03-29T16:09:09Z</time>
      </trkpt>
      <trkpt lat="50.10242" lon="4.19316">
        <ele>193.6</ele>
        <time>2024-03-29T16:09:10Z</time>
      </trkpt>
      <trkpt lat="50.10238" lon="4.19316">
        <ele>193.8</ele>
        <time>2024-03-29T16:09:11Z</time>
      </trkpt>
      <trkpt lat="50.10234" lon="4.19316">
        <ele>193.8</ele>
        <time>2024-03-29T16:09:12Z</time>
      </trkpt>
      <trkpt lat="50.1023" lon="4.19316">
        <ele>194</ele>
        <time>2024-03-29T16:09:13Z</time>
      </trkpt>
      <trkpt lat="50.10225" lon="4.19315">
        <ele>194.4</ele>
        <time>2024-03-29T16:09:14Z</time>
      </trkpt>
      <trkpt lat="50.10221" lon="4.19315">
        <ele>194.6</ele>
        <time>2024-03-29T16:09:15Z</time>
      </trkpt>
      <trkpt lat="50.10217" lon="4.19315">
        <ele>194.8</ele>
        <time>2024-03-29T16:09:16Z</time>
      </trkpt>
      <trkpt lat="50.10213" lon="4.19315">
        <ele>194.8</ele>
        <time>2024-03-29T16:09:17Z</time>
      </trkpt>
      <trkpt lat="50.10208" lon="4.19315">
        <ele>195</ele>
        <time>2024-03-29T16:09:18Z</time>
      </trkpt>
      <trkpt lat="50.10204" lon="4.19315">
        <ele>195</ele>
        <time>2024-03-29T16:09:19Z</time>
      </trkpt>
      <trkpt lat="50.102" lon="4.19315">
        <ele>195</ele>
        <time>2024-03-29T16:09:20Z</time>
      </trkpt>
      <trkpt lat="50.10195" lon="4.19315">
        <ele>195</ele>
        <time>2024-03-29T16:09:21Z</time>
      </trkpt>
      <trkpt lat="50.10191" lon="4.19315">
        <ele>195.2</ele>
        <time>2024-03-29T16:09:22Z</time>
      </trkpt>
      <trkpt lat="50.10186" lon="4.19315">
        <ele>195.2</ele>
        <time>2024-03-29T16:09:23Z</time>
      </trkpt>
      <trkpt lat="50.10182" lon="4.19315">
        <ele>195.2</ele>
        <time>2024-03-29T16:09:24Z</time>
      </trkpt>
      <trkpt lat="50.10178" lon="4.19315">
        <ele>195.4</ele>
        <time>2024-03-29T16:09:25Z</time>
      </trkpt>
      <trkpt lat="50.10173" lon="4.19315">
        <ele>195.2</ele>
        <time>2024-03-29T16:09:26Z</time>
      </trkpt>
      <trkpt lat="50.10169" lon="4.19315">
        <ele>195.2</ele>
        <time>2024-03-29T16:09:27Z</time>
      </trkpt>
      <trkpt lat="50.10165" lon="4.19314">
        <ele>195.4</ele>
        <time>2024-03-29T16:09:28Z</time>
      </trkpt>
      <trkpt lat="50.10161" lon="4.19315">
        <ele>195.4</ele>
        <time>2024-03-29T16:09:29Z</time>
      </trkpt>
      <trkpt lat="50.10157" lon="4.19315">
        <ele>195.4</ele>
        <time>2024-03-29T16:09:30Z</time>
      </trkpt>
      <trkpt lat="50.10152" lon="4.19315">
        <ele>195.4</ele>
        <time>2024-03-29T16:09:31Z</time>
      </trkpt>
      <trkpt lat="50.10148" lon="4.19315">
        <ele>195.6</ele>
        <time>2024-03-29T16:09:32Z</time>
      </trkpt>
      <trkpt lat="50.10144" lon="4.19316">
        <ele>195.4</ele>
        <time>2024-03-29T16:09:33Z</time>
      </trkpt>
      <trkpt lat="50.1014" lon="4.19316">
        <ele>195.6</ele>
        <time>2024-03-29T16:09:34Z</time>
      </trkpt>
      <trkpt lat="50.10136" lon="4.19317">
        <ele>195.6</ele>
        <time>2024-03-29T16:09:35Z</time>
      </trkpt>
      <trkpt lat="50.10132" lon="4.19318">
        <ele>195.6</ele>
        <time>2024-03-29T16:09:36Z</time>
      </trkpt>
      <trkpt lat="50.10128" lon="4.19319">
        <ele>195.8</ele>
        <time>2024-03-29T16:09:37Z</time>
      </trkpt>
      <trkpt lat="50.10124" lon="4.19321">
        <ele>195.6</ele>
        <time>2024-03-29T16:09:38Z</time>
      </trkpt>
      <trkpt lat="50.1012" lon="4.19322">
        <ele>195.8</ele>
        <time>2024-03-29T16:09:39Z</time>
      </trkpt>
      <trkpt lat="50.10117" lon="4.19324">
        <ele>195.8</ele>
        <time>2024-03-29T16:09:40Z</time>
      </trkpt>
      <trkpt lat="50.10113" lon="4.19326">
        <ele>195.6</ele>
        <time>2024-03-29T16:09:41Z</time>
      </trkpt>
      <trkpt lat="50.10109" lon="4.19328">
        <ele>195.6</ele>
        <time>2024-03-29T16:09:42Z</time>
      </trkpt>
      <trkpt lat="50.10106" lon="4.1933">
        <ele>195.8</ele>
        <time>2024-03-29T16:09:43Z</time>
      </trkpt>
      <trkpt lat="50.10102" lon="4.19332">
        <ele>195.8</ele>
        <time>2024-03-29T16:09:44Z</time>
      </trkpt>
      <trkpt lat="50.10099" lon="4.19334">
        <ele>195.8</ele>
        <time>2024-03-29T16:09:45Z</time>
      </trkpt>
      <trkpt lat="50.10096" lon="4.19337">
        <ele>196</ele>
        <time>2024-03-29T16:09:46Z</time>
      </trkpt>
      <trkpt lat="50.10094" lon="4.1934">
        <ele>196.2</ele>
        <time>2024-03-29T16:09:47Z</time>
      </trkpt>
      <trkpt lat="50.10092" lon="4.19343">
        <ele>196.6</ele>
        <time>2024-03-29T16:09:48Z</time>
      </trkpt>
      <trkpt lat="50.10091" lon="4.19347">
        <ele>196.8</ele>
        <time>2024-03-29T16:09:49Z</time>
      </trkpt>
      <trkpt lat="50.10091" lon="4.1935">
        <ele>197.4</ele>
        <time>2024-03-29T16:09:50Z</time>
      </trkpt>
      <trkpt lat="50.1009" lon="4.19353">
        <ele>197.6</ele>
        <time>2024-03-29T16:09:51Z</time>
      </trkpt>
      <trkpt lat="50.10089" lon="4.19354">
        <ele>197.6</ele>
        <time>2024-03-29T16:09:52Z</time>
      </trkpt>
      <trkpt lat="50.10088" lon="4.19355">
        <ele>197.8</ele>
        <time>2024-03-29T16:09:53Z</time>
      </trkpt>
      <trkpt lat="50.10087" lon="4.19355">
        <ele>198</ele>
        <time>2024-03-29T16:09:54Z</time>
      </trkpt>
      <trkpt lat="50.10087" lon="4.19355">
        <ele>198</ele>
        <time>2024-03-29T16:09:55Z</time>
      </trkpt>
    </trkseg>
  </trk>
</gpx>